<?xml version="1.0" encoding="UTF-8"?>
<gpx version="1.1" creator="https://www.youtrack.es" xsi:schemaLocation="http://www.topografix.com/GPX/1/1 http://www.topografix.com/GPX/1/1/gpx.xsd http://www.garmin.com/xmlschemas/GpxExtensions/v3 http://www.garmin.com/xmlschemas/GpxExtensionsv3.xsd http://www.garmin.com/xmlschemas/TrackPointExtension/v1 http://www.garmin.com/xmlschemas/TrackPointExtensionv1.xsd" xmlns:gpxtpx="http://www.garmin.com/xmlschemas/TrackPointExtension/v1" xmlns:gpxx="http://www.garmin.com/xmlschemas/GpxExtensions/v3" xmlns:xsi="http://www.w3.org/2001/XMLSchema-instance">
  <metadata>
    <link href="https://www.youtrack.es">
      <text>YouTrack.es</text>
    </link>
    <time>2026-05-10T18:36:29Z</time>
  </metadata>
  <trk>
    <src>https://www.youtrack.es</src>
    <link href="https://www.youtrack.es/ruta/17021-quepefups">
      <text>YouTrack.es</text>
    </link>
    <trkseg>
      <trkpt lat="41.548146" lon="2.100488">
        <ele>190.60</ele>
        <time>1970-01-01T00:00:00Z</time>
      </trkpt>
      <trkpt lat="41.548162" lon="2.100503">
        <ele>190.60</ele>
        <time>1970-01-01T00:00:03Z</time>
      </trkpt>
      <trkpt lat="41.548163" lon="2.100500">
        <ele>190.60</ele>
        <time>1970-01-01T00:00:10Z</time>
      </trkpt>
      <trkpt lat="41.548164" lon="2.100497">
        <ele>190.60</ele>
        <time>1970-01-01T00:00:18Z</time>
      </trkpt>
      <trkpt lat="41.548164" lon="2.100494">
        <ele>190.60</ele>
        <time>1970-01-01T00:00:25Z</time>
      </trkpt>
      <trkpt lat="41.548165" lon="2.100490">
        <ele>190.60</ele>
        <time>1970-01-01T00:00:33Z</time>
      </trkpt>
      <trkpt lat="41.548166" lon="2.100487">
        <ele>190.60</ele>
        <time>1970-01-01T00:00:40Z</time>
      </trkpt>
      <trkpt lat="41.548167" lon="2.100484">
        <ele>190.60</ele>
        <time>1970-01-01T00:00:42Z</time>
      </trkpt>
      <trkpt lat="41.548168" lon="2.100481">
        <ele>190.60</ele>
        <time>1970-01-01T00:00:43Z</time>
      </trkpt>
      <trkpt lat="41.548169" lon="2.100478">
        <ele>190.60</ele>
        <time>1970-01-01T00:00:44Z</time>
      </trkpt>
      <trkpt lat="41.548170" lon="2.100475">
        <ele>190.60</ele>
        <time>1970-01-01T00:00:48Z</time>
      </trkpt>
      <trkpt lat="41.548170" lon="2.100472">
        <ele>190.60</ele>
        <time>1970-01-01T00:00:49Z</time>
      </trkpt>
      <trkpt lat="41.548171" lon="2.100469">
        <ele>190.60</ele>
        <time>1970-01-01T00:00:51Z</time>
      </trkpt>
      <trkpt lat="41.548172" lon="2.100465">
        <ele>190.60</ele>
        <time>1970-01-01T00:00:55Z</time>
      </trkpt>
      <trkpt lat="41.548173" lon="2.100462">
        <ele>190.60</ele>
        <time>1970-01-01T00:00:58Z</time>
      </trkpt>
      <trkpt lat="41.548174" lon="2.100459">
        <ele>190.60</ele>
        <time>1970-01-01T00:00:59Z</time>
      </trkpt>
      <trkpt lat="41.548175" lon="2.100456">
        <ele>190.60</ele>
        <time>1970-01-01T00:01:01Z</time>
      </trkpt>
      <trkpt lat="41.548176" lon="2.100453">
        <ele>190.60</ele>
        <time>1970-01-01T00:01:03Z</time>
      </trkpt>
      <trkpt lat="41.548176" lon="2.100450">
        <ele>190.60</ele>
        <time>1970-01-01T00:01:06Z</time>
      </trkpt>
      <trkpt lat="41.548177" lon="2.100447">
        <ele>190.60</ele>
        <time>1970-01-01T00:01:10Z</time>
      </trkpt>
      <trkpt lat="41.548178" lon="2.100444">
        <ele>190.60</ele>
        <time>1970-01-01T00:01:18Z</time>
      </trkpt>
      <trkpt lat="41.548179" lon="2.100440">
        <ele>190.60</ele>
        <time>1970-01-01T00:01:19Z</time>
      </trkpt>
      <trkpt lat="41.548180" lon="2.100437">
        <ele>190.60</ele>
        <time>1970-01-01T00:01:21Z</time>
      </trkpt>
      <trkpt lat="41.548181" lon="2.100434">
        <ele>190.60</ele>
        <time>1970-01-01T00:01:23Z</time>
      </trkpt>
      <trkpt lat="41.548182" lon="2.100431">
        <ele>190.60</ele>
        <time>1970-01-01T00:01:25Z</time>
      </trkpt>
      <trkpt lat="41.548183" lon="2.100428">
        <ele>190.60</ele>
        <time>1970-01-01T00:01:27Z</time>
      </trkpt>
      <trkpt lat="41.548183" lon="2.100425">
        <ele>190.60</ele>
        <time>1970-01-01T00:01:33Z</time>
      </trkpt>
      <trkpt lat="41.548184" lon="2.100422">
        <ele>190.60</ele>
        <time>1970-01-01T00:01:35Z</time>
      </trkpt>
      <trkpt lat="41.548185" lon="2.100419">
        <ele>190.60</ele>
        <time>1970-01-01T00:01:38Z</time>
      </trkpt>
      <trkpt lat="41.548186" lon="2.100416">
        <ele>190.60</ele>
        <time>1970-01-01T00:01:39Z</time>
      </trkpt>
      <trkpt lat="41.548187" lon="2.100412">
        <ele>190.60</ele>
        <time>1970-01-01T00:01:40Z</time>
      </trkpt>
      <trkpt lat="41.548188" lon="2.100409">
        <ele>190.60</ele>
        <time>1970-01-01T00:01:42Z</time>
      </trkpt>
      <trkpt lat="41.548189" lon="2.100406">
        <ele>190.60</ele>
        <time>1970-01-01T00:01:43Z</time>
      </trkpt>
      <trkpt lat="41.548189" lon="2.100403">
        <ele>190.60</ele>
        <time>1970-01-01T00:01:45Z</time>
      </trkpt>
      <trkpt lat="41.548190" lon="2.100400">
        <ele>190.60</ele>
        <time>1970-01-01T00:01:47Z</time>
      </trkpt>
      <trkpt lat="41.548191" lon="2.100397">
        <ele>190.60</ele>
        <time>1970-01-01T00:01:48Z</time>
      </trkpt>
      <trkpt lat="41.548192" lon="2.100394">
        <ele>190.60</ele>
        <time>1970-01-01T00:01:50Z</time>
      </trkpt>
      <trkpt lat="41.548193" lon="2.100391">
        <ele>190.60</ele>
        <time>1970-01-01T00:01:52Z</time>
      </trkpt>
      <trkpt lat="41.548194" lon="2.100387">
        <ele>190.60</ele>
        <time>1970-01-01T00:01:55Z</time>
      </trkpt>
      <trkpt lat="41.548195" lon="2.100384">
        <ele>190.60</ele>
        <time>1970-01-01T00:01:56Z</time>
      </trkpt>
      <trkpt lat="41.548195" lon="2.100381">
        <ele>190.60</ele>
        <time>1970-01-01T00:01:57Z</time>
      </trkpt>
      <trkpt lat="41.548196" lon="2.100378">
        <ele>190.60</ele>
        <time>1970-01-01T00:01:58Z</time>
      </trkpt>
      <trkpt lat="41.548197" lon="2.100375">
        <ele>190.60</ele>
        <time>1970-01-01T00:02:00Z</time>
      </trkpt>
      <trkpt lat="41.548198" lon="2.100372">
        <ele>190.60</ele>
        <time>1970-01-01T00:02:03Z</time>
      </trkpt>
      <trkpt lat="41.548199" lon="2.100369">
        <ele>190.60</ele>
        <time>1970-01-01T00:02:07Z</time>
      </trkpt>
      <trkpt lat="41.548200" lon="2.100366">
        <ele>190.60</ele>
        <time>1970-01-01T00:02:08Z</time>
      </trkpt>
      <trkpt lat="41.548201" lon="2.100362">
        <ele>190.60</ele>
        <time>1970-01-01T00:02:10Z</time>
      </trkpt>
      <trkpt lat="41.548201" lon="2.100359">
        <ele>190.60</ele>
        <time>1970-01-01T00:02:11Z</time>
      </trkpt>
      <trkpt lat="41.548202" lon="2.100356">
        <ele>190.60</ele>
        <time>1970-01-01T00:02:12Z</time>
      </trkpt>
      <trkpt lat="41.548203" lon="2.100353">
        <ele>190.60</ele>
        <time>1970-01-01T00:02:16Z</time>
      </trkpt>
      <trkpt lat="41.548204" lon="2.100350">
        <ele>190.60</ele>
        <time>1970-01-01T00:02:17Z</time>
      </trkpt>
      <trkpt lat="41.548174" lon="2.100493">
        <ele>190.60</ele>
        <time>1970-01-01T00:02:19Z</time>
      </trkpt>
      <trkpt lat="41.548220" lon="2.100464">
        <ele>190.60</ele>
        <time>1970-01-01T00:02:20Z</time>
      </trkpt>
      <trkpt lat="41.548275" lon="2.100403">
        <ele>190.60</ele>
        <time>1970-01-01T00:02:21Z</time>
      </trkpt>
      <trkpt lat="41.548325" lon="2.100334">
        <ele>190.70</ele>
        <time>1970-01-01T00:02:23Z</time>
      </trkpt>
      <trkpt lat="41.548376" lon="2.100243">
        <ele>190.70</ele>
        <time>1970-01-01T00:02:25Z</time>
      </trkpt>
      <trkpt lat="41.548401" lon="2.100197">
        <ele>190.70</ele>
        <time>1970-01-01T00:02:26Z</time>
      </trkpt>
      <trkpt lat="41.548481" lon="2.100017">
        <ele>190.80</ele>
        <time>1970-01-01T00:02:28Z</time>
      </trkpt>
      <trkpt lat="41.548499" lon="2.099968">
        <ele>190.80</ele>
        <time>1970-01-01T00:02:30Z</time>
      </trkpt>
      <trkpt lat="41.548541" lon="2.099911">
        <ele>190.80</ele>
        <time>1970-01-01T00:02:32Z</time>
      </trkpt>
      <trkpt lat="41.548575" lon="2.099866">
        <ele>190.90</ele>
        <time>1970-01-01T00:02:33Z</time>
      </trkpt>
      <trkpt lat="41.548635" lon="2.099803">
        <ele>190.90</ele>
        <time>1970-01-01T00:02:35Z</time>
      </trkpt>
      <trkpt lat="41.548812" lon="2.099971">
        <ele>191.10</ele>
        <time>1970-01-01T00:02:37Z</time>
      </trkpt>
      <trkpt lat="41.548858" lon="2.099979">
        <ele>191.20</ele>
        <time>1970-01-01T00:02:38Z</time>
      </trkpt>
      <trkpt lat="41.548905" lon="2.099992">
        <ele>191.30</ele>
        <time>1970-01-01T00:02:39Z</time>
      </trkpt>
      <trkpt lat="41.548948" lon="2.100007">
        <ele>191.30</ele>
        <time>1970-01-01T00:02:40Z</time>
      </trkpt>
      <trkpt lat="41.549006" lon="2.100096">
        <ele>191.40</ele>
        <time>1970-01-01T00:02:42Z</time>
      </trkpt>
      <trkpt lat="41.549034" lon="2.100228">
        <ele>191.60</ele>
        <time>1970-01-01T00:02:44Z</time>
      </trkpt>
      <trkpt lat="41.549044" lon="2.100304">
        <ele>191.60</ele>
        <time>1970-01-01T00:02:45Z</time>
      </trkpt>
      <trkpt lat="41.549062" lon="2.100421">
        <ele>191.80</ele>
        <time>1970-01-01T00:02:47Z</time>
      </trkpt>
      <trkpt lat="41.549075" lon="2.100473">
        <ele>191.80</ele>
        <time>1970-01-01T00:02:48Z</time>
      </trkpt>
      <trkpt lat="41.549096" lon="2.100550">
        <ele>191.90</ele>
        <time>1970-01-01T00:02:50Z</time>
      </trkpt>
      <trkpt lat="41.549110" lon="2.100639">
        <ele>192.00</ele>
        <time>1970-01-01T00:02:52Z</time>
      </trkpt>
      <trkpt lat="41.549131" lon="2.100723">
        <ele>192.10</ele>
        <time>1970-01-01T00:02:54Z</time>
      </trkpt>
      <trkpt lat="41.549151" lon="2.100802">
        <ele>192.20</ele>
        <time>1970-01-01T00:02:56Z</time>
      </trkpt>
      <trkpt lat="41.549152" lon="2.100825">
        <ele>192.20</ele>
        <time>1970-01-01T00:02:57Z</time>
      </trkpt>
      <trkpt lat="41.549146" lon="2.100865">
        <ele>192.20</ele>
        <time>1970-01-01T00:02:59Z</time>
      </trkpt>
      <trkpt lat="41.549162" lon="2.100930">
        <ele>192.30</ele>
        <time>1970-01-01T00:03:01Z</time>
      </trkpt>
      <trkpt lat="41.549183" lon="2.101002">
        <ele>192.40</ele>
        <time>1970-01-01T00:03:03Z</time>
      </trkpt>
      <trkpt lat="41.549205" lon="2.101093">
        <ele>192.50</ele>
        <time>1970-01-01T00:03:05Z</time>
      </trkpt>
      <trkpt lat="41.549234" lon="2.101211">
        <ele>192.50</ele>
        <time>1970-01-01T00:03:07Z</time>
      </trkpt>
      <trkpt lat="41.549244" lon="2.101259">
        <ele>192.60</ele>
        <time>1970-01-01T00:03:08Z</time>
      </trkpt>
      <trkpt lat="41.549263" lon="2.101340">
        <ele>192.70</ele>
        <time>1970-01-01T00:03:10Z</time>
      </trkpt>
      <trkpt lat="41.549272" lon="2.101390">
        <ele>192.70</ele>
        <time>1970-01-01T00:03:11Z</time>
      </trkpt>
      <trkpt lat="41.549296" lon="2.101490">
        <ele>192.80</ele>
        <time>1970-01-01T00:03:13Z</time>
      </trkpt>
      <trkpt lat="41.549310" lon="2.101541">
        <ele>192.90</ele>
        <time>1970-01-01T00:03:14Z</time>
      </trkpt>
      <trkpt lat="41.549326" lon="2.101596">
        <ele>193.00</ele>
        <time>1970-01-01T00:03:15Z</time>
      </trkpt>
      <trkpt lat="41.549352" lon="2.101687">
        <ele>193.10</ele>
        <time>1970-01-01T00:03:17Z</time>
      </trkpt>
      <trkpt lat="41.549366" lon="2.101737">
        <ele>193.20</ele>
        <time>1970-01-01T00:03:18Z</time>
      </trkpt>
      <trkpt lat="41.549392" lon="2.101822">
        <ele>193.30</ele>
        <time>1970-01-01T00:03:20Z</time>
      </trkpt>
      <trkpt lat="41.549408" lon="2.101875">
        <ele>193.40</ele>
        <time>1970-01-01T00:03:21Z</time>
      </trkpt>
      <trkpt lat="41.549418" lon="2.101927">
        <ele>193.40</ele>
        <time>1970-01-01T00:03:22Z</time>
      </trkpt>
      <trkpt lat="41.549426" lon="2.101979">
        <ele>193.40</ele>
        <time>1970-01-01T00:03:23Z</time>
      </trkpt>
      <trkpt lat="41.549452" lon="2.102115">
        <ele>193.40</ele>
        <time>1970-01-01T00:03:25Z</time>
      </trkpt>
      <trkpt lat="41.549470" lon="2.102179">
        <ele>193.40</ele>
        <time>1970-01-01T00:03:26Z</time>
      </trkpt>
      <trkpt lat="41.549491" lon="2.102244">
        <ele>193.40</ele>
        <time>1970-01-01T00:03:27Z</time>
      </trkpt>
      <trkpt lat="41.549523" lon="2.102357">
        <ele>193.40</ele>
        <time>1970-01-01T00:03:29Z</time>
      </trkpt>
      <trkpt lat="41.549554" lon="2.102464">
        <ele>193.40</ele>
        <time>1970-01-01T00:03:31Z</time>
      </trkpt>
      <trkpt lat="41.549573" lon="2.102529">
        <ele>193.40</ele>
        <time>1970-01-01T00:03:32Z</time>
      </trkpt>
      <trkpt lat="41.549613" lon="2.102662">
        <ele>193.50</ele>
        <time>1970-01-01T00:03:34Z</time>
      </trkpt>
      <trkpt lat="41.549648" lon="2.102717">
        <ele>193.50</ele>
        <time>1970-01-01T00:03:35Z</time>
      </trkpt>
      <trkpt lat="41.549681" lon="2.102801">
        <ele>193.60</ele>
        <time>1970-01-01T00:03:37Z</time>
      </trkpt>
      <trkpt lat="41.549695" lon="2.102874">
        <ele>193.60</ele>
        <time>1970-01-01T00:03:38Z</time>
      </trkpt>
      <trkpt lat="41.549724" lon="2.102980">
        <ele>193.70</ele>
        <time>1970-01-01T00:03:40Z</time>
      </trkpt>
      <trkpt lat="41.549741" lon="2.103035">
        <ele>193.70</ele>
        <time>1970-01-01T00:03:41Z</time>
      </trkpt>
      <trkpt lat="41.549765" lon="2.103112">
        <ele>193.80</ele>
        <time>1970-01-01T00:03:42Z</time>
      </trkpt>
      <trkpt lat="41.549786" lon="2.103180">
        <ele>193.90</ele>
        <time>1970-01-01T00:03:44Z</time>
      </trkpt>
      <trkpt lat="41.549803" lon="2.103242">
        <ele>194.00</ele>
        <time>1970-01-01T00:03:45Z</time>
      </trkpt>
      <trkpt lat="41.549833" lon="2.103350">
        <ele>194.10</ele>
        <time>1970-01-01T00:03:47Z</time>
      </trkpt>
      <trkpt lat="41.549851" lon="2.103385">
        <ele>194.10</ele>
        <time>1970-01-01T00:03:48Z</time>
      </trkpt>
      <trkpt lat="41.549878" lon="2.103460">
        <ele>194.20</ele>
        <time>1970-01-01T00:03:50Z</time>
      </trkpt>
      <trkpt lat="41.549899" lon="2.103559">
        <ele>194.40</ele>
        <time>1970-01-01T00:03:51Z</time>
      </trkpt>
      <trkpt lat="41.549916" lon="2.103616">
        <ele>194.50</ele>
        <time>1970-01-01T00:03:52Z</time>
      </trkpt>
      <trkpt lat="41.549947" lon="2.103675">
        <ele>194.60</ele>
        <time>1970-01-01T00:03:54Z</time>
      </trkpt>
      <trkpt lat="41.549959" lon="2.103728">
        <ele>194.70</ele>
        <time>1970-01-01T00:03:55Z</time>
      </trkpt>
      <trkpt lat="41.549977" lon="2.103796">
        <ele>194.80</ele>
        <time>1970-01-01T00:03:56Z</time>
      </trkpt>
      <trkpt lat="41.549995" lon="2.103875">
        <ele>194.90</ele>
        <time>1970-01-01T00:03:57Z</time>
      </trkpt>
      <trkpt lat="41.550019" lon="2.103958">
        <ele>195.10</ele>
        <time>1970-01-01T00:03:59Z</time>
      </trkpt>
      <trkpt lat="41.550038" lon="2.104013">
        <ele>195.20</ele>
        <time>1970-01-01T00:04:00Z</time>
      </trkpt>
      <trkpt lat="41.550058" lon="2.104084">
        <ele>195.30</ele>
        <time>1970-01-01T00:04:01Z</time>
      </trkpt>
      <trkpt lat="41.550071" lon="2.104134">
        <ele>195.40</ele>
        <time>1970-01-01T00:04:02Z</time>
      </trkpt>
      <trkpt lat="41.550081" lon="2.104180">
        <ele>195.50</ele>
        <time>1970-01-01T00:04:03Z</time>
      </trkpt>
      <trkpt lat="41.550101" lon="2.104234">
        <ele>195.60</ele>
        <time>1970-01-01T00:04:04Z</time>
      </trkpt>
      <trkpt lat="41.550142" lon="2.104267">
        <ele>195.80</ele>
        <time>1970-01-01T00:04:06Z</time>
      </trkpt>
      <trkpt lat="41.550179" lon="2.104261">
        <ele>195.80</ele>
        <time>1970-01-01T00:04:07Z</time>
      </trkpt>
      <trkpt lat="41.550241" lon="2.104211">
        <ele>195.90</ele>
        <time>1970-01-01T00:04:09Z</time>
      </trkpt>
      <trkpt lat="41.550290" lon="2.104180">
        <ele>196.00</ele>
        <time>1970-01-01T00:04:10Z</time>
      </trkpt>
      <trkpt lat="41.550342" lon="2.104158">
        <ele>196.10</ele>
        <time>1970-01-01T00:04:11Z</time>
      </trkpt>
      <trkpt lat="41.550381" lon="2.104176">
        <ele>196.10</ele>
        <time>1970-01-01T00:04:13Z</time>
      </trkpt>
      <trkpt lat="41.550439" lon="2.104150">
        <ele>196.20</ele>
        <time>1970-01-01T00:04:14Z</time>
      </trkpt>
      <trkpt lat="41.550487" lon="2.104108">
        <ele>196.20</ele>
        <time>1970-01-01T00:04:15Z</time>
      </trkpt>
      <trkpt lat="41.550560" lon="2.104049">
        <ele>196.40</ele>
        <time>1970-01-01T00:04:17Z</time>
      </trkpt>
      <trkpt lat="41.550621" lon="2.104009">
        <ele>196.50</ele>
        <time>1970-01-01T00:04:18Z</time>
      </trkpt>
      <trkpt lat="41.550692" lon="2.103961">
        <ele>196.60</ele>
        <time>1970-01-01T00:04:20Z</time>
      </trkpt>
      <trkpt lat="41.550735" lon="2.103926">
        <ele>196.70</ele>
        <time>1970-01-01T00:04:21Z</time>
      </trkpt>
      <trkpt lat="41.550785" lon="2.103875">
        <ele>196.70</ele>
        <time>1970-01-01T00:04:22Z</time>
      </trkpt>
      <trkpt lat="41.550826" lon="2.103843">
        <ele>196.70</ele>
        <time>1970-01-01T00:04:24Z</time>
      </trkpt>
      <trkpt lat="41.550870" lon="2.103821">
        <ele>196.70</ele>
        <time>1970-01-01T00:04:25Z</time>
      </trkpt>
      <trkpt lat="41.550953" lon="2.103792">
        <ele>196.60</ele>
        <time>1970-01-01T00:04:27Z</time>
      </trkpt>
      <trkpt lat="41.550990" lon="2.103776">
        <ele>196.60</ele>
        <time>1970-01-01T00:04:28Z</time>
      </trkpt>
      <trkpt lat="41.551034" lon="2.103743">
        <ele>196.60</ele>
        <time>1970-01-01T00:04:29Z</time>
      </trkpt>
      <trkpt lat="41.551091" lon="2.103696">
        <ele>196.60</ele>
        <time>1970-01-01T00:04:31Z</time>
      </trkpt>
      <trkpt lat="41.551126" lon="2.103667">
        <ele>196.60</ele>
        <time>1970-01-01T00:04:32Z</time>
      </trkpt>
      <trkpt lat="41.551162" lon="2.103639">
        <ele>196.60</ele>
        <time>1970-01-01T00:04:33Z</time>
      </trkpt>
      <trkpt lat="41.551228" lon="2.103577">
        <ele>196.60</ele>
        <time>1970-01-01T00:04:35Z</time>
      </trkpt>
      <trkpt lat="41.551291" lon="2.103528">
        <ele>196.50</ele>
        <time>1970-01-01T00:04:37Z</time>
      </trkpt>
      <trkpt lat="41.551338" lon="2.103512">
        <ele>196.50</ele>
        <time>1970-01-01T00:04:38Z</time>
      </trkpt>
      <trkpt lat="41.551379" lon="2.103510">
        <ele>196.50</ele>
        <time>1970-01-01T00:04:39Z</time>
      </trkpt>
      <trkpt lat="41.551426" lon="2.103515">
        <ele>196.50</ele>
        <time>1970-01-01T00:04:40Z</time>
      </trkpt>
      <trkpt lat="41.551493" lon="2.103513">
        <ele>196.80</ele>
        <time>1970-01-01T00:04:42Z</time>
      </trkpt>
      <trkpt lat="41.551552" lon="2.103509">
        <ele>196.90</ele>
        <time>1970-01-01T00:04:43Z</time>
      </trkpt>
      <trkpt lat="41.551616" lon="2.103480">
        <ele>197.00</ele>
        <time>1970-01-01T00:04:45Z</time>
      </trkpt>
      <trkpt lat="41.551683" lon="2.103431">
        <ele>197.20</ele>
        <time>1970-01-01T00:04:47Z</time>
      </trkpt>
      <trkpt lat="41.551734" lon="2.103389">
        <ele>197.30</ele>
        <time>1970-01-01T00:04:48Z</time>
      </trkpt>
      <trkpt lat="41.551812" lon="2.103323">
        <ele>197.40</ele>
        <time>1970-01-01T00:04:50Z</time>
      </trkpt>
      <trkpt lat="41.551879" lon="2.103271">
        <ele>197.60</ele>
        <time>1970-01-01T00:04:52Z</time>
      </trkpt>
      <trkpt lat="41.551932" lon="2.103236">
        <ele>197.70</ele>
        <time>1970-01-01T00:04:53Z</time>
      </trkpt>
      <trkpt lat="41.551974" lon="2.103210">
        <ele>197.90</ele>
        <time>1970-01-01T00:04:54Z</time>
      </trkpt>
      <trkpt lat="41.552036" lon="2.103166">
        <ele>198.00</ele>
        <time>1970-01-01T00:04:55Z</time>
      </trkpt>
      <trkpt lat="41.552082" lon="2.103128">
        <ele>198.20</ele>
        <time>1970-01-01T00:04:57Z</time>
      </trkpt>
      <trkpt lat="41.552119" lon="2.103093">
        <ele>198.30</ele>
        <time>1970-01-01T00:04:58Z</time>
      </trkpt>
      <trkpt lat="41.552155" lon="2.103057">
        <ele>198.40</ele>
        <time>1970-01-01T00:04:59Z</time>
      </trkpt>
      <trkpt lat="41.552204" lon="2.103006">
        <ele>198.50</ele>
        <time>1970-01-01T00:05:00Z</time>
      </trkpt>
      <trkpt lat="41.552255" lon="2.102954">
        <ele>198.50</ele>
        <time>1970-01-01T00:05:02Z</time>
      </trkpt>
      <trkpt lat="41.552328" lon="2.102885">
        <ele>198.70</ele>
        <time>1970-01-01T00:05:04Z</time>
      </trkpt>
      <trkpt lat="41.552360" lon="2.102854">
        <ele>198.80</ele>
        <time>1970-01-01T00:05:05Z</time>
      </trkpt>
      <trkpt lat="41.552424" lon="2.102792">
        <ele>198.90</ele>
        <time>1970-01-01T00:05:07Z</time>
      </trkpt>
      <trkpt lat="41.552490" lon="2.102743">
        <ele>199.10</ele>
        <time>1970-01-01T00:05:09Z</time>
      </trkpt>
      <trkpt lat="41.552526" lon="2.102717">
        <ele>199.10</ele>
        <time>1970-01-01T00:05:10Z</time>
      </trkpt>
      <trkpt lat="41.552593" lon="2.102667">
        <ele>199.30</ele>
        <time>1970-01-01T00:05:12Z</time>
      </trkpt>
      <trkpt lat="41.552644" lon="2.102637">
        <ele>199.40</ele>
        <time>1970-01-01T00:05:13Z</time>
      </trkpt>
      <trkpt lat="41.552692" lon="2.102592">
        <ele>199.50</ele>
        <time>1970-01-01T00:05:15Z</time>
      </trkpt>
      <trkpt lat="41.552730" lon="2.102558">
        <ele>199.60</ele>
        <time>1970-01-01T00:05:16Z</time>
      </trkpt>
      <trkpt lat="41.552779" lon="2.102518">
        <ele>199.80</ele>
        <time>1970-01-01T00:05:17Z</time>
      </trkpt>
      <trkpt lat="41.552832" lon="2.102472">
        <ele>199.90</ele>
        <time>1970-01-01T00:05:19Z</time>
      </trkpt>
      <trkpt lat="41.552891" lon="2.102410">
        <ele>200.20</ele>
        <time>1970-01-01T00:05:21Z</time>
      </trkpt>
      <trkpt lat="41.552938" lon="2.102362">
        <ele>200.30</ele>
        <time>1970-01-01T00:05:22Z</time>
      </trkpt>
      <trkpt lat="41.553005" lon="2.102293">
        <ele>200.60</ele>
        <time>1970-01-01T00:05:24Z</time>
      </trkpt>
      <trkpt lat="41.553073" lon="2.102217">
        <ele>200.90</ele>
        <time>1970-01-01T00:05:26Z</time>
      </trkpt>
      <trkpt lat="41.553140" lon="2.102141">
        <ele>201.00</ele>
        <time>1970-01-01T00:05:28Z</time>
      </trkpt>
      <trkpt lat="41.553204" lon="2.102080">
        <ele>201.10</ele>
        <time>1970-01-01T00:05:30Z</time>
      </trkpt>
      <trkpt lat="41.553244" lon="2.102043">
        <ele>201.10</ele>
        <time>1970-01-01T00:05:31Z</time>
      </trkpt>
      <trkpt lat="41.553295" lon="2.101990">
        <ele>201.20</ele>
        <time>1970-01-01T00:05:32Z</time>
      </trkpt>
      <trkpt lat="41.553340" lon="2.101939">
        <ele>201.20</ele>
        <time>1970-01-01T00:05:34Z</time>
      </trkpt>
      <trkpt lat="41.553395" lon="2.101874">
        <ele>201.30</ele>
        <time>1970-01-01T00:05:36Z</time>
      </trkpt>
      <trkpt lat="41.553429" lon="2.101827">
        <ele>201.30</ele>
        <time>1970-01-01T00:05:37Z</time>
      </trkpt>
      <trkpt lat="41.553455" lon="2.101793">
        <ele>201.40</ele>
        <time>1970-01-01T00:05:38Z</time>
      </trkpt>
      <trkpt lat="41.553490" lon="2.101741">
        <ele>201.40</ele>
        <time>1970-01-01T00:05:39Z</time>
      </trkpt>
      <trkpt lat="41.553532" lon="2.101701">
        <ele>201.40</ele>
        <time>1970-01-01T00:05:41Z</time>
      </trkpt>
      <trkpt lat="41.553581" lon="2.101663">
        <ele>201.40</ele>
        <time>1970-01-01T00:05:42Z</time>
      </trkpt>
      <trkpt lat="41.553616" lon="2.101633">
        <ele>201.40</ele>
        <time>1970-01-01T00:05:43Z</time>
      </trkpt>
      <trkpt lat="41.553663" lon="2.101590">
        <ele>201.30</ele>
        <time>1970-01-01T00:05:44Z</time>
      </trkpt>
      <trkpt lat="41.553716" lon="2.101546">
        <ele>201.30</ele>
        <time>1970-01-01T00:05:46Z</time>
      </trkpt>
      <trkpt lat="41.553784" lon="2.101482">
        <ele>201.20</ele>
        <time>1970-01-01T00:05:48Z</time>
      </trkpt>
      <trkpt lat="41.553842" lon="2.101425">
        <ele>201.10</ele>
        <time>1970-01-01T00:05:50Z</time>
      </trkpt>
      <trkpt lat="41.553878" lon="2.101391">
        <ele>201.10</ele>
        <time>1970-01-01T00:05:51Z</time>
      </trkpt>
      <trkpt lat="41.553930" lon="2.101341">
        <ele>201.10</ele>
        <time>1970-01-01T00:05:52Z</time>
      </trkpt>
      <trkpt lat="41.553989" lon="2.101289">
        <ele>201.10</ele>
        <time>1970-01-01T00:05:54Z</time>
      </trkpt>
      <trkpt lat="41.554047" lon="2.101240">
        <ele>201.10</ele>
        <time>1970-01-01T00:05:56Z</time>
      </trkpt>
      <trkpt lat="41.554092" lon="2.101192">
        <ele>201.00</ele>
        <time>1970-01-01T00:05:57Z</time>
      </trkpt>
      <trkpt lat="41.554129" lon="2.101155">
        <ele>201.00</ele>
        <time>1970-01-01T00:05:58Z</time>
      </trkpt>
      <trkpt lat="41.554169" lon="2.101110">
        <ele>200.90</ele>
        <time>1970-01-01T00:06:00Z</time>
      </trkpt>
      <trkpt lat="41.554201" lon="2.101083">
        <ele>200.90</ele>
        <time>1970-01-01T00:06:01Z</time>
      </trkpt>
      <trkpt lat="41.554235" lon="2.101055">
        <ele>200.80</ele>
        <time>1970-01-01T00:06:02Z</time>
      </trkpt>
      <trkpt lat="41.554271" lon="2.101030">
        <ele>200.80</ele>
        <time>1970-01-01T00:06:03Z</time>
      </trkpt>
      <trkpt lat="41.554331" lon="2.100995">
        <ele>200.80</ele>
        <time>1970-01-01T00:06:04Z</time>
      </trkpt>
      <trkpt lat="41.554378" lon="2.100957">
        <ele>200.80</ele>
        <time>1970-01-01T00:06:06Z</time>
      </trkpt>
      <trkpt lat="41.554443" lon="2.100915">
        <ele>200.80</ele>
        <time>1970-01-01T00:06:07Z</time>
      </trkpt>
      <trkpt lat="41.554512" lon="2.100868">
        <ele>200.80</ele>
        <time>1970-01-01T00:06:09Z</time>
      </trkpt>
      <trkpt lat="41.554598" lon="2.100795">
        <ele>200.80</ele>
        <time>1970-01-01T00:06:11Z</time>
      </trkpt>
      <trkpt lat="41.554645" lon="2.100773">
        <ele>200.90</ele>
        <time>1970-01-01T00:06:12Z</time>
      </trkpt>
      <trkpt lat="41.554695" lon="2.100730">
        <ele>200.90</ele>
        <time>1970-01-01T00:06:14Z</time>
      </trkpt>
      <trkpt lat="41.554766" lon="2.100659">
        <ele>201.00</ele>
        <time>1970-01-01T00:06:16Z</time>
      </trkpt>
      <trkpt lat="41.554839" lon="2.100595">
        <ele>201.10</ele>
        <time>1970-01-01T00:06:18Z</time>
      </trkpt>
      <trkpt lat="41.554907" lon="2.100527">
        <ele>201.20</ele>
        <time>1970-01-01T00:06:20Z</time>
      </trkpt>
      <trkpt lat="41.554970" lon="2.100478">
        <ele>201.20</ele>
        <time>1970-01-01T00:06:22Z</time>
      </trkpt>
      <trkpt lat="41.555016" lon="2.100475">
        <ele>201.20</ele>
        <time>1970-01-01T00:06:23Z</time>
      </trkpt>
      <trkpt lat="41.555071" lon="2.100533">
        <ele>201.30</ele>
        <time>1970-01-01T00:06:25Z</time>
      </trkpt>
      <trkpt lat="41.555099" lon="2.100587">
        <ele>201.40</ele>
        <time>1970-01-01T00:06:26Z</time>
      </trkpt>
      <trkpt lat="41.555140" lon="2.100673">
        <ele>201.60</ele>
        <time>1970-01-01T00:06:28Z</time>
      </trkpt>
      <trkpt lat="41.555186" lon="2.100750">
        <ele>201.80</ele>
        <time>1970-01-01T00:06:30Z</time>
      </trkpt>
      <trkpt lat="41.555233" lon="2.100829">
        <ele>202.00</ele>
        <time>1970-01-01T00:06:32Z</time>
      </trkpt>
      <trkpt lat="41.555261" lon="2.100866">
        <ele>202.10</ele>
        <time>1970-01-01T00:06:33Z</time>
      </trkpt>
      <trkpt lat="41.555310" lon="2.100944">
        <ele>202.30</ele>
        <time>1970-01-01T00:06:35Z</time>
      </trkpt>
      <trkpt lat="41.555336" lon="2.100982">
        <ele>202.40</ele>
        <time>1970-01-01T00:06:36Z</time>
      </trkpt>
      <trkpt lat="41.555363" lon="2.101020">
        <ele>202.50</ele>
        <time>1970-01-01T00:06:37Z</time>
      </trkpt>
      <trkpt lat="41.555398" lon="2.101077">
        <ele>202.60</ele>
        <time>1970-01-01T00:06:38Z</time>
      </trkpt>
      <trkpt lat="41.555420" lon="2.101122">
        <ele>202.70</ele>
        <time>1970-01-01T00:06:40Z</time>
      </trkpt>
      <trkpt lat="41.555443" lon="2.101168">
        <ele>202.80</ele>
        <time>1970-01-01T00:06:41Z</time>
      </trkpt>
      <trkpt lat="41.555463" lon="2.101205">
        <ele>202.90</ele>
        <time>1970-01-01T00:06:42Z</time>
      </trkpt>
      <trkpt lat="41.555501" lon="2.101257">
        <ele>202.90</ele>
        <time>1970-01-01T00:06:44Z</time>
      </trkpt>
      <trkpt lat="41.555511" lon="2.101306">
        <ele>203.00</ele>
        <time>1970-01-01T00:06:45Z</time>
      </trkpt>
      <trkpt lat="41.555507" lon="2.101351">
        <ele>203.00</ele>
        <time>1970-01-01T00:06:47Z</time>
      </trkpt>
      <trkpt lat="41.555497" lon="2.101391">
        <ele>203.00</ele>
        <time>1970-01-01T00:06:48Z</time>
      </trkpt>
      <trkpt lat="41.555484" lon="2.101424">
        <ele>203.10</ele>
        <time>1970-01-01T00:06:49Z</time>
      </trkpt>
      <trkpt lat="41.555441" lon="2.101503">
        <ele>203.10</ele>
        <time>1970-01-01T00:06:51Z</time>
      </trkpt>
      <trkpt lat="41.555424" lon="2.101542">
        <ele>203.20</ele>
        <time>1970-01-01T00:06:52Z</time>
      </trkpt>
      <trkpt lat="41.555401" lon="2.101608">
        <ele>203.20</ele>
        <time>1970-01-01T00:06:54Z</time>
      </trkpt>
      <trkpt lat="41.555378" lon="2.101661">
        <ele>203.30</ele>
        <time>1970-01-01T00:06:55Z</time>
      </trkpt>
      <trkpt lat="41.555358" lon="2.101701">
        <ele>203.30</ele>
        <time>1970-01-01T00:06:56Z</time>
      </trkpt>
      <trkpt lat="41.555330" lon="2.101764">
        <ele>203.40</ele>
        <time>1970-01-01T00:06:58Z</time>
      </trkpt>
      <trkpt lat="41.555310" lon="2.101840">
        <ele>203.40</ele>
        <time>1970-01-01T00:07:00Z</time>
      </trkpt>
      <trkpt lat="41.555317" lon="2.101912">
        <ele>203.50</ele>
        <time>1970-01-01T00:07:02Z</time>
      </trkpt>
      <trkpt lat="41.555336" lon="2.101951">
        <ele>203.50</ele>
        <time>1970-01-01T00:07:03Z</time>
      </trkpt>
      <trkpt lat="41.555372" lon="2.102009">
        <ele>203.60</ele>
        <time>1970-01-01T00:07:05Z</time>
      </trkpt>
      <trkpt lat="41.555404" lon="2.102015">
        <ele>203.60</ele>
        <time>1970-01-01T00:07:06Z</time>
      </trkpt>
      <trkpt lat="41.555433" lon="2.102014">
        <ele>203.60</ele>
        <time>1970-01-01T00:07:07Z</time>
      </trkpt>
      <trkpt lat="41.555459" lon="2.102000">
        <ele>203.60</ele>
        <time>1970-01-01T00:07:08Z</time>
      </trkpt>
      <trkpt lat="41.555505" lon="2.101973">
        <ele>203.70</ele>
        <time>1970-01-01T00:07:10Z</time>
      </trkpt>
      <trkpt lat="41.555533" lon="2.101960">
        <ele>203.70</ele>
        <time>1970-01-01T00:07:11Z</time>
      </trkpt>
      <trkpt lat="41.555575" lon="2.101939">
        <ele>203.70</ele>
        <time>1970-01-01T00:07:13Z</time>
      </trkpt>
      <trkpt lat="41.555594" lon="2.101925">
        <ele>203.70</ele>
        <time>1970-01-01T00:07:14Z</time>
      </trkpt>
      <trkpt lat="41.555622" lon="2.101881">
        <ele>203.80</ele>
        <time>1970-01-01T00:07:16Z</time>
      </trkpt>
      <trkpt lat="41.555632" lon="2.101848">
        <ele>203.80</ele>
        <time>1970-01-01T00:07:17Z</time>
      </trkpt>
      <trkpt lat="41.555653" lon="2.101785">
        <ele>203.80</ele>
        <time>1970-01-01T00:07:19Z</time>
      </trkpt>
      <trkpt lat="41.555676" lon="2.101744">
        <ele>204.10</ele>
        <time>1970-01-01T00:07:20Z</time>
      </trkpt>
      <trkpt lat="41.555683" lon="2.101731">
        <ele>204.10</ele>
        <time>1970-01-01T00:07:21Z</time>
      </trkpt>
      <trkpt lat="41.555712" lon="2.101699">
        <ele>204.20</ele>
        <time>1970-01-01T00:07:23Z</time>
      </trkpt>
      <trkpt lat="41.555733" lon="2.101675">
        <ele>204.20</ele>
        <time>1970-01-01T00:07:24Z</time>
      </trkpt>
      <trkpt lat="41.555766" lon="2.101658">
        <ele>204.30</ele>
        <time>1970-01-01T00:07:26Z</time>
      </trkpt>
      <trkpt lat="41.555795" lon="2.101672">
        <ele>204.40</ele>
        <time>1970-01-01T00:07:27Z</time>
      </trkpt>
      <trkpt lat="41.555819" lon="2.101739">
        <ele>204.50</ele>
        <time>1970-01-01T00:07:29Z</time>
      </trkpt>
      <trkpt lat="41.555830" lon="2.101774">
        <ele>204.60</ele>
        <time>1970-01-01T00:07:30Z</time>
      </trkpt>
      <trkpt lat="41.555852" lon="2.101812">
        <ele>204.70</ele>
        <time>1970-01-01T00:07:32Z</time>
      </trkpt>
      <trkpt lat="41.555876" lon="2.101843">
        <ele>204.80</ele>
        <time>1970-01-01T00:07:33Z</time>
      </trkpt>
      <trkpt lat="41.555905" lon="2.101890">
        <ele>204.90</ele>
        <time>1970-01-01T00:07:35Z</time>
      </trkpt>
      <trkpt lat="41.555912" lon="2.101907">
        <ele>204.90</ele>
        <time>1970-01-01T00:07:36Z</time>
      </trkpt>
      <trkpt lat="41.555918" lon="2.101923">
        <ele>204.90</ele>
        <time>1970-01-01T00:07:37Z</time>
      </trkpt>
      <trkpt lat="41.555920" lon="2.101949">
        <ele>204.90</ele>
        <time>1970-01-01T00:07:38Z</time>
      </trkpt>
      <trkpt lat="41.555919" lon="2.101970">
        <ele>204.90</ele>
        <time>1970-01-01T00:07:39Z</time>
      </trkpt>
      <trkpt lat="41.555921" lon="2.102005">
        <ele>204.90</ele>
        <time>1970-01-01T00:07:41Z</time>
      </trkpt>
      <trkpt lat="41.555924" lon="2.102017">
        <ele>204.90</ele>
        <time>1970-01-01T00:07:42Z</time>
      </trkpt>
      <trkpt lat="41.555929" lon="2.102007">
        <ele>204.90</ele>
        <time>1970-01-01T00:07:43Z</time>
      </trkpt>
      <trkpt lat="41.555927" lon="2.102011">
        <ele>204.90</ele>
        <time>1970-01-01T00:07:45Z</time>
      </trkpt>
      <trkpt lat="41.555927" lon="2.102011">
        <ele>204.90</ele>
        <time>1970-01-01T00:07:46Z</time>
      </trkpt>
      <trkpt lat="41.555927" lon="2.102009">
        <ele>204.90</ele>
        <time>1970-01-01T00:07:48Z</time>
      </trkpt>
      <trkpt lat="41.555926" lon="2.102011">
        <ele>204.90</ele>
        <time>1970-01-01T00:07:49Z</time>
      </trkpt>
      <trkpt lat="41.555923" lon="2.102012">
        <ele>204.90</ele>
        <time>1970-01-01T00:07:50Z</time>
      </trkpt>
      <trkpt lat="41.555921" lon="2.102010">
        <ele>204.90</ele>
        <time>1970-01-01T00:07:52Z</time>
      </trkpt>
      <trkpt lat="41.555915" lon="2.102005">
        <ele>204.90</ele>
        <time>1970-01-01T00:07:53Z</time>
      </trkpt>
      <trkpt lat="41.555907" lon="2.101995">
        <ele>204.90</ele>
        <time>1970-01-01T00:07:54Z</time>
      </trkpt>
      <trkpt lat="41.555900" lon="2.101981">
        <ele>204.80</ele>
        <time>1970-01-01T00:07:56Z</time>
      </trkpt>
      <trkpt lat="41.555894" lon="2.101967">
        <ele>204.80</ele>
        <time>1970-01-01T00:07:57Z</time>
      </trkpt>
      <trkpt lat="41.555891" lon="2.101957">
        <ele>204.80</ele>
        <time>1970-01-01T00:07:58Z</time>
      </trkpt>
      <trkpt lat="41.555884" lon="2.101953">
        <ele>204.80</ele>
        <time>1970-01-01T00:08:00Z</time>
      </trkpt>
      <trkpt lat="41.555879" lon="2.101952">
        <ele>204.80</ele>
        <time>1970-01-01T00:08:01Z</time>
      </trkpt>
      <trkpt lat="41.555881" lon="2.101954">
        <ele>204.80</ele>
        <time>1970-01-01T00:08:03Z</time>
      </trkpt>
      <trkpt lat="41.555881" lon="2.101955">
        <ele>204.80</ele>
        <time>1970-01-01T00:08:04Z</time>
      </trkpt>
      <trkpt lat="41.555878" lon="2.101956">
        <ele>204.80</ele>
        <time>1970-01-01T00:08:05Z</time>
      </trkpt>
      <trkpt lat="41.555878" lon="2.101956">
        <ele>204.80</ele>
        <time>1970-01-01T00:08:07Z</time>
      </trkpt>
      <trkpt lat="41.555875" lon="2.101955">
        <ele>204.80</ele>
        <time>1970-01-01T00:08:08Z</time>
      </trkpt>
      <trkpt lat="41.555874" lon="2.101957">
        <ele>204.80</ele>
        <time>1970-01-01T00:08:09Z</time>
      </trkpt>
      <trkpt lat="41.555874" lon="2.101959">
        <ele>204.80</ele>
        <time>1970-01-01T00:08:11Z</time>
      </trkpt>
      <trkpt lat="41.555874" lon="2.101960">
        <ele>204.80</ele>
        <time>1970-01-01T00:08:13Z</time>
      </trkpt>
      <trkpt lat="41.555873" lon="2.101960">
        <ele>204.80</ele>
        <time>1970-01-01T00:08:14Z</time>
      </trkpt>
      <trkpt lat="41.555873" lon="2.101967">
        <ele>204.80</ele>
        <time>1970-01-01T00:08:16Z</time>
      </trkpt>
      <trkpt lat="41.555870" lon="2.101973">
        <ele>204.80</ele>
        <time>1970-01-01T00:08:17Z</time>
      </trkpt>
      <trkpt lat="41.555869" lon="2.101978">
        <ele>204.80</ele>
        <time>1970-01-01T00:08:18Z</time>
      </trkpt>
      <trkpt lat="41.555872" lon="2.101977">
        <ele>204.80</ele>
        <time>1970-01-01T00:08:20Z</time>
      </trkpt>
      <trkpt lat="41.555874" lon="2.101976">
        <ele>204.80</ele>
        <time>1970-01-01T00:08:21Z</time>
      </trkpt>
      <trkpt lat="41.555872" lon="2.101975">
        <ele>204.80</ele>
        <time>1970-01-01T00:08:23Z</time>
      </trkpt>
      <trkpt lat="41.555871" lon="2.101975">
        <ele>204.80</ele>
        <time>1970-01-01T00:08:24Z</time>
      </trkpt>
      <trkpt lat="41.555869" lon="2.101975">
        <ele>204.80</ele>
        <time>1970-01-01T00:08:26Z</time>
      </trkpt>
      <trkpt lat="41.555867" lon="2.101975">
        <ele>204.80</ele>
        <time>1970-01-01T00:08:28Z</time>
      </trkpt>
      <trkpt lat="41.555867" lon="2.101975">
        <ele>204.80</ele>
        <time>1970-01-01T00:08:30Z</time>
      </trkpt>
      <trkpt lat="41.555867" lon="2.101974">
        <ele>204.80</ele>
        <time>1970-01-01T00:08:32Z</time>
      </trkpt>
      <trkpt lat="41.555866" lon="2.101974">
        <ele>204.80</ele>
        <time>1970-01-01T00:08:33Z</time>
      </trkpt>
      <trkpt lat="41.555866" lon="2.101975">
        <ele>204.80</ele>
        <time>1970-01-01T00:08:35Z</time>
      </trkpt>
      <trkpt lat="41.555861" lon="2.101975">
        <ele>204.80</ele>
        <time>1970-01-01T00:08:37Z</time>
      </trkpt>
      <trkpt lat="41.555855" lon="2.101979">
        <ele>204.80</ele>
        <time>1970-01-01T00:08:39Z</time>
      </trkpt>
      <trkpt lat="41.555856" lon="2.101982">
        <ele>204.80</ele>
        <time>1970-01-01T00:08:40Z</time>
      </trkpt>
      <trkpt lat="41.555858" lon="2.101984">
        <ele>204.80</ele>
        <time>1970-01-01T00:08:41Z</time>
      </trkpt>
      <trkpt lat="41.555855" lon="2.101983">
        <ele>204.80</ele>
        <time>1970-01-01T00:08:43Z</time>
      </trkpt>
      <trkpt lat="41.555854" lon="2.101982">
        <ele>204.80</ele>
        <time>1970-01-01T00:08:44Z</time>
      </trkpt>
      <trkpt lat="41.555853" lon="2.101982">
        <ele>204.80</ele>
        <time>1970-01-01T00:08:46Z</time>
      </trkpt>
      <trkpt lat="41.555853" lon="2.101982">
        <ele>204.80</ele>
        <time>1970-01-01T00:08:48Z</time>
      </trkpt>
      <trkpt lat="41.555853" lon="2.101982">
        <ele>204.80</ele>
        <time>1970-01-01T00:08:49Z</time>
      </trkpt>
      <trkpt lat="41.555853" lon="2.101982">
        <ele>204.80</ele>
        <time>1970-01-01T00:08:50Z</time>
      </trkpt>
      <trkpt lat="41.555853" lon="2.101982">
        <ele>204.80</ele>
        <time>1970-01-01T00:08:51Z</time>
      </trkpt>
      <trkpt lat="41.555853" lon="2.101982">
        <ele>204.80</ele>
        <time>1970-01-01T00:08:53Z</time>
      </trkpt>
      <trkpt lat="41.555853" lon="2.101982">
        <ele>204.80</ele>
        <time>1970-01-01T00:08:55Z</time>
      </trkpt>
      <trkpt lat="41.555853" lon="2.101982">
        <ele>204.80</ele>
        <time>1970-01-01T00:08:56Z</time>
      </trkpt>
      <trkpt lat="41.555854" lon="2.101978">
        <ele>204.80</ele>
        <time>1970-01-01T00:08:58Z</time>
      </trkpt>
      <trkpt lat="41.555855" lon="2.101972">
        <ele>204.80</ele>
        <time>1970-01-01T00:08:59Z</time>
      </trkpt>
      <trkpt lat="41.555854" lon="2.101973">
        <ele>204.80</ele>
        <time>1970-01-01T00:09:00Z</time>
      </trkpt>
      <trkpt lat="41.555859" lon="2.101976">
        <ele>204.80</ele>
        <time>1970-01-01T00:09:02Z</time>
      </trkpt>
      <trkpt lat="41.555862" lon="2.101981">
        <ele>204.80</ele>
        <time>1970-01-01T00:09:04Z</time>
      </trkpt>
      <trkpt lat="41.555860" lon="2.101978">
        <ele>204.80</ele>
        <time>1970-01-01T00:09:06Z</time>
      </trkpt>
      <trkpt lat="41.555859" lon="2.101974">
        <ele>204.80</ele>
        <time>1970-01-01T00:09:08Z</time>
      </trkpt>
      <trkpt lat="41.555859" lon="2.101972">
        <ele>204.80</ele>
        <time>1970-01-01T00:09:09Z</time>
      </trkpt>
      <trkpt lat="41.555859" lon="2.101969">
        <ele>204.80</ele>
        <time>1970-01-01T00:09:11Z</time>
      </trkpt>
      <trkpt lat="41.555859" lon="2.101967">
        <ele>204.80</ele>
        <time>1970-01-01T00:09:13Z</time>
      </trkpt>
      <trkpt lat="41.555859" lon="2.101966">
        <ele>204.80</ele>
        <time>1970-01-01T00:09:14Z</time>
      </trkpt>
      <trkpt lat="41.555860" lon="2.101964">
        <ele>204.80</ele>
        <time>1970-01-01T00:09:16Z</time>
      </trkpt>
      <trkpt lat="41.555859" lon="2.101963">
        <ele>204.80</ele>
        <time>1970-01-01T00:09:17Z</time>
      </trkpt>
      <trkpt lat="41.555858" lon="2.101962">
        <ele>204.80</ele>
        <time>1970-01-01T00:09:19Z</time>
      </trkpt>
      <trkpt lat="41.555853" lon="2.101959">
        <ele>204.80</ele>
        <time>1970-01-01T00:09:20Z</time>
      </trkpt>
      <trkpt lat="41.555850" lon="2.101957">
        <ele>204.80</ele>
        <time>1970-01-01T00:09:21Z</time>
      </trkpt>
      <trkpt lat="41.555848" lon="2.101955">
        <ele>204.80</ele>
        <time>1970-01-01T00:09:23Z</time>
      </trkpt>
      <trkpt lat="41.555848" lon="2.101953">
        <ele>204.80</ele>
        <time>1970-01-01T00:09:24Z</time>
      </trkpt>
      <trkpt lat="41.555859" lon="2.101954">
        <ele>204.70</ele>
        <time>1970-01-01T00:09:26Z</time>
      </trkpt>
      <trkpt lat="41.555864" lon="2.101958">
        <ele>204.70</ele>
        <time>1970-01-01T00:09:27Z</time>
      </trkpt>
      <trkpt lat="41.555867" lon="2.101956">
        <ele>204.70</ele>
        <time>1970-01-01T00:09:28Z</time>
      </trkpt>
      <trkpt lat="41.555868" lon="2.101954">
        <ele>204.70</ele>
        <time>1970-01-01T00:09:30Z</time>
      </trkpt>
      <trkpt lat="41.555869" lon="2.101952">
        <ele>204.70</ele>
        <time>1970-01-01T00:09:31Z</time>
      </trkpt>
      <trkpt lat="41.555871" lon="2.101949">
        <ele>204.70</ele>
        <time>1970-01-01T00:09:32Z</time>
      </trkpt>
      <trkpt lat="41.555873" lon="2.101948">
        <ele>204.70</ele>
        <time>1970-01-01T00:09:33Z</time>
      </trkpt>
      <trkpt lat="41.555874" lon="2.101950">
        <ele>204.70</ele>
        <time>1970-01-01T00:09:35Z</time>
      </trkpt>
      <trkpt lat="41.555876" lon="2.101952">
        <ele>204.70</ele>
        <time>1970-01-01T00:09:37Z</time>
      </trkpt>
      <trkpt lat="41.555877" lon="2.101952">
        <ele>204.70</ele>
        <time>1970-01-01T00:09:38Z</time>
      </trkpt>
      <trkpt lat="41.555878" lon="2.101952">
        <ele>204.70</ele>
        <time>1970-01-01T00:09:39Z</time>
      </trkpt>
      <trkpt lat="41.555879" lon="2.101952">
        <ele>204.70</ele>
        <time>1970-01-01T00:09:41Z</time>
      </trkpt>
      <trkpt lat="41.555879" lon="2.101952">
        <ele>204.70</ele>
        <time>1970-01-01T00:09:42Z</time>
      </trkpt>
      <trkpt lat="41.555880" lon="2.101953">
        <ele>204.70</ele>
        <time>1970-01-01T00:09:44Z</time>
      </trkpt>
      <trkpt lat="41.555881" lon="2.101953">
        <ele>204.70</ele>
        <time>1970-01-01T00:09:45Z</time>
      </trkpt>
      <trkpt lat="41.555885" lon="2.101948">
        <ele>204.70</ele>
        <time>1970-01-01T00:09:47Z</time>
      </trkpt>
      <trkpt lat="41.555885" lon="2.101949">
        <ele>204.70</ele>
        <time>1970-01-01T00:09:48Z</time>
      </trkpt>
      <trkpt lat="41.555885" lon="2.101949">
        <ele>204.70</ele>
        <time>1970-01-01T00:09:50Z</time>
      </trkpt>
      <trkpt lat="41.555886" lon="2.101955">
        <ele>204.70</ele>
        <time>1970-01-01T00:09:51Z</time>
      </trkpt>
      <trkpt lat="41.555885" lon="2.101960">
        <ele>204.70</ele>
        <time>1970-01-01T00:09:52Z</time>
      </trkpt>
      <trkpt lat="41.555884" lon="2.101964">
        <ele>204.70</ele>
        <time>1970-01-01T00:09:53Z</time>
      </trkpt>
      <trkpt lat="41.555883" lon="2.101965">
        <ele>204.70</ele>
        <time>1970-01-01T00:09:55Z</time>
      </trkpt>
      <trkpt lat="41.555883" lon="2.101966">
        <ele>204.70</ele>
        <time>1970-01-01T00:09:57Z</time>
      </trkpt>
      <trkpt lat="41.555883" lon="2.101966">
        <ele>204.70</ele>
        <time>1970-01-01T00:09:59Z</time>
      </trkpt>
      <trkpt lat="41.555883" lon="2.101966">
        <ele>204.70</ele>
        <time>1970-01-01T00:10:01Z</time>
      </trkpt>
      <trkpt lat="41.555883" lon="2.101966">
        <ele>204.70</ele>
        <time>1970-01-01T00:10:02Z</time>
      </trkpt>
      <trkpt lat="41.555883" lon="2.101966">
        <ele>204.70</ele>
        <time>1970-01-01T00:10:03Z</time>
      </trkpt>
      <trkpt lat="41.555883" lon="2.101966">
        <ele>204.70</ele>
        <time>1970-01-01T00:10:04Z</time>
      </trkpt>
      <trkpt lat="41.555891" lon="2.101970">
        <ele>204.70</ele>
        <time>1970-01-01T00:10:06Z</time>
      </trkpt>
      <trkpt lat="41.555903" lon="2.101978">
        <ele>204.70</ele>
        <time>1970-01-01T00:10:08Z</time>
      </trkpt>
      <trkpt lat="41.555902" lon="2.101979">
        <ele>204.70</ele>
        <time>1970-01-01T00:10:09Z</time>
      </trkpt>
      <trkpt lat="41.555902" lon="2.101979">
        <ele>204.70</ele>
        <time>1970-01-01T00:10:11Z</time>
      </trkpt>
      <trkpt lat="41.555902" lon="2.101979">
        <ele>204.70</ele>
        <time>1970-01-01T00:10:13Z</time>
      </trkpt>
      <trkpt lat="41.555902" lon="2.101978">
        <ele>204.70</ele>
        <time>1970-01-01T00:10:15Z</time>
      </trkpt>
      <trkpt lat="41.555905" lon="2.101977">
        <ele>204.70</ele>
        <time>1970-01-01T00:10:17Z</time>
      </trkpt>
      <trkpt lat="41.555904" lon="2.101976">
        <ele>204.70</ele>
        <time>1970-01-01T00:10:18Z</time>
      </trkpt>
      <trkpt lat="41.555904" lon="2.101974">
        <ele>204.70</ele>
        <time>1970-01-01T00:10:19Z</time>
      </trkpt>
      <trkpt lat="41.555908" lon="2.101959">
        <ele>204.70</ele>
        <time>1970-01-01T00:10:21Z</time>
      </trkpt>
      <trkpt lat="41.555909" lon="2.101952">
        <ele>204.70</ele>
        <time>1970-01-01T00:10:23Z</time>
      </trkpt>
      <trkpt lat="41.555908" lon="2.101954">
        <ele>204.70</ele>
        <time>1970-01-01T00:10:24Z</time>
      </trkpt>
      <trkpt lat="41.555908" lon="2.101954">
        <ele>204.70</ele>
        <time>1970-01-01T00:10:25Z</time>
      </trkpt>
      <trkpt lat="41.555908" lon="2.101955">
        <ele>204.70</ele>
        <time>1970-01-01T00:10:27Z</time>
      </trkpt>
      <trkpt lat="41.555907" lon="2.101958">
        <ele>204.70</ele>
        <time>1970-01-01T00:10:29Z</time>
      </trkpt>
      <trkpt lat="41.555907" lon="2.101956">
        <ele>204.70</ele>
        <time>1970-01-01T00:10:31Z</time>
      </trkpt>
      <trkpt lat="41.555907" lon="2.101955">
        <ele>204.70</ele>
        <time>1970-01-01T00:10:33Z</time>
      </trkpt>
      <trkpt lat="41.555906" lon="2.101954">
        <ele>204.70</ele>
        <time>1970-01-01T00:10:35Z</time>
      </trkpt>
      <trkpt lat="41.555906" lon="2.101954">
        <ele>204.70</ele>
        <time>1970-01-01T00:10:36Z</time>
      </trkpt>
      <trkpt lat="41.555905" lon="2.101951">
        <ele>204.70</ele>
        <time>1970-01-01T00:10:38Z</time>
      </trkpt>
      <trkpt lat="41.555904" lon="2.101948">
        <ele>204.70</ele>
        <time>1970-01-01T00:10:40Z</time>
      </trkpt>
      <trkpt lat="41.555903" lon="2.101947">
        <ele>204.70</ele>
        <time>1970-01-01T00:10:41Z</time>
      </trkpt>
      <trkpt lat="41.555902" lon="2.101955">
        <ele>204.70</ele>
        <time>1970-01-01T00:10:43Z</time>
      </trkpt>
      <trkpt lat="41.555902" lon="2.101960">
        <ele>204.70</ele>
        <time>1970-01-01T00:10:44Z</time>
      </trkpt>
      <trkpt lat="41.555901" lon="2.101963">
        <ele>204.70</ele>
        <time>1970-01-01T00:10:46Z</time>
      </trkpt>
      <trkpt lat="41.555902" lon="2.101963">
        <ele>204.70</ele>
        <time>1970-01-01T00:10:47Z</time>
      </trkpt>
      <trkpt lat="41.555902" lon="2.101963">
        <ele>204.70</ele>
        <time>1970-01-01T00:10:49Z</time>
      </trkpt>
      <trkpt lat="41.555897" lon="2.101970">
        <ele>204.70</ele>
        <time>1970-01-01T00:10:50Z</time>
      </trkpt>
      <trkpt lat="41.555889" lon="2.101974">
        <ele>204.70</ele>
        <time>1970-01-01T00:10:51Z</time>
      </trkpt>
      <trkpt lat="41.555883" lon="2.101976">
        <ele>204.70</ele>
        <time>1970-01-01T00:10:52Z</time>
      </trkpt>
      <trkpt lat="41.555880" lon="2.101976">
        <ele>204.70</ele>
        <time>1970-01-01T00:10:53Z</time>
      </trkpt>
      <trkpt lat="41.555881" lon="2.101976">
        <ele>204.70</ele>
        <time>1970-01-01T00:10:54Z</time>
      </trkpt>
      <trkpt lat="41.555881" lon="2.101976">
        <ele>204.70</ele>
        <time>1970-01-01T00:10:55Z</time>
      </trkpt>
      <trkpt lat="41.555881" lon="2.101976">
        <ele>204.70</ele>
        <time>1970-01-01T00:10:57Z</time>
      </trkpt>
      <trkpt lat="41.555881" lon="2.101976">
        <ele>204.70</ele>
        <time>1970-01-01T00:10:58Z</time>
      </trkpt>
      <trkpt lat="41.555878" lon="2.101979">
        <ele>204.60</ele>
        <time>1970-01-01T00:11:00Z</time>
      </trkpt>
      <trkpt lat="41.555877" lon="2.101980">
        <ele>204.60</ele>
        <time>1970-01-01T00:11:01Z</time>
      </trkpt>
      <trkpt lat="41.555877" lon="2.101980">
        <ele>204.60</ele>
        <time>1970-01-01T00:11:03Z</time>
      </trkpt>
      <trkpt lat="41.555876" lon="2.101984">
        <ele>204.60</ele>
        <time>1970-01-01T00:11:05Z</time>
      </trkpt>
      <trkpt lat="41.555874" lon="2.101995">
        <ele>204.60</ele>
        <time>1970-01-01T00:11:06Z</time>
      </trkpt>
      <trkpt lat="41.555874" lon="2.102004">
        <ele>204.60</ele>
        <time>1970-01-01T00:11:07Z</time>
      </trkpt>
      <trkpt lat="41.555893" lon="2.102012">
        <ele>204.60</ele>
        <time>1970-01-01T00:11:08Z</time>
      </trkpt>
      <trkpt lat="41.555922" lon="2.102006">
        <ele>204.60</ele>
        <time>1970-01-01T00:11:10Z</time>
      </trkpt>
      <trkpt lat="41.555930" lon="2.102003">
        <ele>204.60</ele>
        <time>1970-01-01T00:11:11Z</time>
      </trkpt>
      <trkpt lat="41.555944" lon="2.102000">
        <ele>204.60</ele>
        <time>1970-01-01T00:11:12Z</time>
      </trkpt>
      <trkpt lat="41.555979" lon="2.102004">
        <ele>204.60</ele>
        <time>1970-01-01T00:11:14Z</time>
      </trkpt>
      <trkpt lat="41.555995" lon="2.101991">
        <ele>204.60</ele>
        <time>1970-01-01T00:11:15Z</time>
      </trkpt>
      <trkpt lat="41.556007" lon="2.101921">
        <ele>204.50</ele>
        <time>1970-01-01T00:11:17Z</time>
      </trkpt>
      <trkpt lat="41.555974" lon="2.101857">
        <ele>204.50</ele>
        <time>1970-01-01T00:11:19Z</time>
      </trkpt>
      <trkpt lat="41.555951" lon="2.101810">
        <ele>204.50</ele>
        <time>1970-01-01T00:11:20Z</time>
      </trkpt>
      <trkpt lat="41.555924" lon="2.101751">
        <ele>204.40</ele>
        <time>1970-01-01T00:11:21Z</time>
      </trkpt>
      <trkpt lat="41.555886" lon="2.101671">
        <ele>204.40</ele>
        <time>1970-01-01T00:11:23Z</time>
      </trkpt>
      <trkpt lat="41.555866" lon="2.101613">
        <ele>204.10</ele>
        <time>1970-01-01T00:11:24Z</time>
      </trkpt>
      <trkpt lat="41.555863" lon="2.101532">
        <ele>204.20</ele>
        <time>1970-01-01T00:11:26Z</time>
      </trkpt>
      <trkpt lat="41.555903" lon="2.101499">
        <ele>204.30</ele>
        <time>1970-01-01T00:11:27Z</time>
      </trkpt>
      <trkpt lat="41.555954" lon="2.101465">
        <ele>204.50</ele>
        <time>1970-01-01T00:11:28Z</time>
      </trkpt>
      <trkpt lat="41.556008" lon="2.101419">
        <ele>204.60</ele>
        <time>1970-01-01T00:11:30Z</time>
      </trkpt>
      <trkpt lat="41.556043" lon="2.101389">
        <ele>204.70</ele>
        <time>1970-01-01T00:11:31Z</time>
      </trkpt>
      <trkpt lat="41.556099" lon="2.101359">
        <ele>204.80</ele>
        <time>1970-01-01T00:11:32Z</time>
      </trkpt>
      <trkpt lat="41.556146" lon="2.101349">
        <ele>204.90</ele>
        <time>1970-01-01T00:11:34Z</time>
      </trkpt>
      <trkpt lat="41.556198" lon="2.101335">
        <ele>205.00</ele>
        <time>1970-01-01T00:11:35Z</time>
      </trkpt>
      <trkpt lat="41.556260" lon="2.101312">
        <ele>205.20</ele>
        <time>1970-01-01T00:11:37Z</time>
      </trkpt>
      <trkpt lat="41.556312" lon="2.101294">
        <ele>205.30</ele>
        <time>1970-01-01T00:11:38Z</time>
      </trkpt>
      <trkpt lat="41.556347" lon="2.101275">
        <ele>205.40</ele>
        <time>1970-01-01T00:11:39Z</time>
      </trkpt>
      <trkpt lat="41.556388" lon="2.101257">
        <ele>205.40</ele>
        <time>1970-01-01T00:11:40Z</time>
      </trkpt>
      <trkpt lat="41.556463" lon="2.101222">
        <ele>205.60</ele>
        <time>1970-01-01T00:11:42Z</time>
      </trkpt>
      <trkpt lat="41.556510" lon="2.101202">
        <ele>205.70</ele>
        <time>1970-01-01T00:11:43Z</time>
      </trkpt>
      <trkpt lat="41.556571" lon="2.101175">
        <ele>205.90</ele>
        <time>1970-01-01T00:11:44Z</time>
      </trkpt>
      <trkpt lat="41.556614" lon="2.101157">
        <ele>206.00</ele>
        <time>1970-01-01T00:11:46Z</time>
      </trkpt>
      <trkpt lat="41.556671" lon="2.101138">
        <ele>206.10</ele>
        <time>1970-01-01T00:11:47Z</time>
      </trkpt>
      <trkpt lat="41.556759" lon="2.101112">
        <ele>206.30</ele>
        <time>1970-01-01T00:11:49Z</time>
      </trkpt>
      <trkpt lat="41.556805" lon="2.101100">
        <ele>206.40</ele>
        <time>1970-01-01T00:11:50Z</time>
      </trkpt>
      <trkpt lat="41.556849" lon="2.101084">
        <ele>206.40</ele>
        <time>1970-01-01T00:11:51Z</time>
      </trkpt>
      <trkpt lat="41.556891" lon="2.101069">
        <ele>206.50</ele>
        <time>1970-01-01T00:11:52Z</time>
      </trkpt>
      <trkpt lat="41.556949" lon="2.101048">
        <ele>206.50</ele>
        <time>1970-01-01T00:11:53Z</time>
      </trkpt>
      <trkpt lat="41.556999" lon="2.101029">
        <ele>206.60</ele>
        <time>1970-01-01T00:11:54Z</time>
      </trkpt>
      <trkpt lat="41.557046" lon="2.101013">
        <ele>206.60</ele>
        <time>1970-01-01T00:11:55Z</time>
      </trkpt>
      <trkpt lat="41.557114" lon="2.100996">
        <ele>206.70</ele>
        <time>1970-01-01T00:11:57Z</time>
      </trkpt>
      <trkpt lat="41.557163" lon="2.101016">
        <ele>206.80</ele>
        <time>1970-01-01T00:11:59Z</time>
      </trkpt>
      <trkpt lat="41.557226" lon="2.100995">
        <ele>206.90</ele>
        <time>1970-01-01T00:12:00Z</time>
      </trkpt>
      <trkpt lat="41.557295" lon="2.100962">
        <ele>207.00</ele>
        <time>1970-01-01T00:12:02Z</time>
      </trkpt>
      <trkpt lat="41.557341" lon="2.100939">
        <ele>207.10</ele>
        <time>1970-01-01T00:12:03Z</time>
      </trkpt>
      <trkpt lat="41.557390" lon="2.100918">
        <ele>207.10</ele>
        <time>1970-01-01T00:12:04Z</time>
      </trkpt>
      <trkpt lat="41.557433" lon="2.100901">
        <ele>207.20</ele>
        <time>1970-01-01T00:12:05Z</time>
      </trkpt>
      <trkpt lat="41.557505" lon="2.100875">
        <ele>207.20</ele>
        <time>1970-01-01T00:12:07Z</time>
      </trkpt>
      <trkpt lat="41.557558" lon="2.100848">
        <ele>207.30</ele>
        <time>1970-01-01T00:12:08Z</time>
      </trkpt>
      <trkpt lat="41.557617" lon="2.100825">
        <ele>207.40</ele>
        <time>1970-01-01T00:12:09Z</time>
      </trkpt>
      <trkpt lat="41.557673" lon="2.100804">
        <ele>207.50</ele>
        <time>1970-01-01T00:12:11Z</time>
      </trkpt>
      <trkpt lat="41.557741" lon="2.100775">
        <ele>207.60</ele>
        <time>1970-01-01T00:12:12Z</time>
      </trkpt>
      <trkpt lat="41.557786" lon="2.100759">
        <ele>207.70</ele>
        <time>1970-01-01T00:12:13Z</time>
      </trkpt>
      <trkpt lat="41.557833" lon="2.100742">
        <ele>207.80</ele>
        <time>1970-01-01T00:12:14Z</time>
      </trkpt>
      <trkpt lat="41.557894" lon="2.100712">
        <ele>208.00</ele>
        <time>1970-01-01T00:12:16Z</time>
      </trkpt>
      <trkpt lat="41.557950" lon="2.100685">
        <ele>208.10</ele>
        <time>1970-01-01T00:12:17Z</time>
      </trkpt>
      <trkpt lat="41.558017" lon="2.100657">
        <ele>208.30</ele>
        <time>1970-01-01T00:12:19Z</time>
      </trkpt>
      <trkpt lat="41.558063" lon="2.100640">
        <ele>208.40</ele>
        <time>1970-01-01T00:12:20Z</time>
      </trkpt>
      <trkpt lat="41.558106" lon="2.100625">
        <ele>208.60</ele>
        <time>1970-01-01T00:12:21Z</time>
      </trkpt>
      <trkpt lat="41.558145" lon="2.100614">
        <ele>208.70</ele>
        <time>1970-01-01T00:12:22Z</time>
      </trkpt>
      <trkpt lat="41.558187" lon="2.100600">
        <ele>208.80</ele>
        <time>1970-01-01T00:12:23Z</time>
      </trkpt>
      <trkpt lat="41.558231" lon="2.100588">
        <ele>208.90</ele>
        <time>1970-01-01T00:12:24Z</time>
      </trkpt>
      <trkpt lat="41.558286" lon="2.100578">
        <ele>209.10</ele>
        <time>1970-01-01T00:12:25Z</time>
      </trkpt>
      <trkpt lat="41.558332" lon="2.100569">
        <ele>209.30</ele>
        <time>1970-01-01T00:12:26Z</time>
      </trkpt>
      <trkpt lat="41.558403" lon="2.100558">
        <ele>209.50</ele>
        <time>1970-01-01T00:12:28Z</time>
      </trkpt>
      <trkpt lat="41.558442" lon="2.100549">
        <ele>209.70</ele>
        <time>1970-01-01T00:12:29Z</time>
      </trkpt>
      <trkpt lat="41.558495" lon="2.100537">
        <ele>209.90</ele>
        <time>1970-01-01T00:12:30Z</time>
      </trkpt>
      <trkpt lat="41.558548" lon="2.100521">
        <ele>210.00</ele>
        <time>1970-01-01T00:12:32Z</time>
      </trkpt>
      <trkpt lat="41.558585" lon="2.100513">
        <ele>210.20</ele>
        <time>1970-01-01T00:12:33Z</time>
      </trkpt>
      <trkpt lat="41.558621" lon="2.100510">
        <ele>210.30</ele>
        <time>1970-01-01T00:12:34Z</time>
      </trkpt>
      <trkpt lat="41.558671" lon="2.100508">
        <ele>210.40</ele>
        <time>1970-01-01T00:12:35Z</time>
      </trkpt>
      <trkpt lat="41.558735" lon="2.100508">
        <ele>210.50</ele>
        <time>1970-01-01T00:12:37Z</time>
      </trkpt>
      <trkpt lat="41.558818" lon="2.100505">
        <ele>210.70</ele>
        <time>1970-01-01T00:12:39Z</time>
      </trkpt>
      <trkpt lat="41.558896" lon="2.100490">
        <ele>210.90</ele>
        <time>1970-01-01T00:12:41Z</time>
      </trkpt>
      <trkpt lat="41.558933" lon="2.100480">
        <ele>211.00</ele>
        <time>1970-01-01T00:12:42Z</time>
      </trkpt>
      <trkpt lat="41.559013" lon="2.100461">
        <ele>211.30</ele>
        <time>1970-01-01T00:12:44Z</time>
      </trkpt>
      <trkpt lat="41.559068" lon="2.100446">
        <ele>211.50</ele>
        <time>1970-01-01T00:12:45Z</time>
      </trkpt>
      <trkpt lat="41.559122" lon="2.100432">
        <ele>211.60</ele>
        <time>1970-01-01T00:12:47Z</time>
      </trkpt>
      <trkpt lat="41.559160" lon="2.100421">
        <ele>211.70</ele>
        <time>1970-01-01T00:12:48Z</time>
      </trkpt>
      <trkpt lat="41.559214" lon="2.100408">
        <ele>211.90</ele>
        <time>1970-01-01T00:12:50Z</time>
      </trkpt>
      <trkpt lat="41.559246" lon="2.100399">
        <ele>211.90</ele>
        <time>1970-01-01T00:12:51Z</time>
      </trkpt>
      <trkpt lat="41.559270" lon="2.100385">
        <ele>211.80</ele>
        <time>1970-01-01T00:12:52Z</time>
      </trkpt>
      <trkpt lat="41.559304" lon="2.100340">
        <ele>211.80</ele>
        <time>1970-01-01T00:12:54Z</time>
      </trkpt>
      <trkpt lat="41.559308" lon="2.100295">
        <ele>211.80</ele>
        <time>1970-01-01T00:12:55Z</time>
      </trkpt>
      <trkpt lat="41.559287" lon="2.100235">
        <ele>211.80</ele>
        <time>1970-01-01T00:12:56Z</time>
      </trkpt>
      <trkpt lat="41.559253" lon="2.100159">
        <ele>211.70</ele>
        <time>1970-01-01T00:12:57Z</time>
      </trkpt>
      <trkpt lat="41.559234" lon="2.100014">
        <ele>211.70</ele>
        <time>1970-01-01T00:12:59Z</time>
      </trkpt>
      <trkpt lat="41.559226" lon="2.099941">
        <ele>211.60</ele>
        <time>1970-01-01T00:13:00Z</time>
      </trkpt>
      <trkpt lat="41.559211" lon="2.099816">
        <ele>211.60</ele>
        <time>1970-01-01T00:13:02Z</time>
      </trkpt>
      <trkpt lat="41.559205" lon="2.099754">
        <ele>211.60</ele>
        <time>1970-01-01T00:13:03Z</time>
      </trkpt>
      <trkpt lat="41.559195" lon="2.099629">
        <ele>211.60</ele>
        <time>1970-01-01T00:13:05Z</time>
      </trkpt>
      <trkpt lat="41.559186" lon="2.099566">
        <ele>211.50</ele>
        <time>1970-01-01T00:13:06Z</time>
      </trkpt>
      <trkpt lat="41.559161" lon="2.099440">
        <ele>211.50</ele>
        <time>1970-01-01T00:13:08Z</time>
      </trkpt>
      <trkpt lat="41.559153" lon="2.099369">
        <ele>211.50</ele>
        <time>1970-01-01T00:13:09Z</time>
      </trkpt>
      <trkpt lat="41.559141" lon="2.099220">
        <ele>211.50</ele>
        <time>1970-01-01T00:13:11Z</time>
      </trkpt>
      <trkpt lat="41.559124" lon="2.099083">
        <ele>211.40</ele>
        <time>1970-01-01T00:13:13Z</time>
      </trkpt>
      <trkpt lat="41.559118" lon="2.099015">
        <ele>211.40</ele>
        <time>1970-01-01T00:13:14Z</time>
      </trkpt>
      <trkpt lat="41.559107" lon="2.098883">
        <ele>211.40</ele>
        <time>1970-01-01T00:13:16Z</time>
      </trkpt>
      <trkpt lat="41.559102" lon="2.098750">
        <ele>211.40</ele>
        <time>1970-01-01T00:13:18Z</time>
      </trkpt>
      <trkpt lat="41.559095" lon="2.098612">
        <ele>211.30</ele>
        <time>1970-01-01T00:13:20Z</time>
      </trkpt>
      <trkpt lat="41.559091" lon="2.098465">
        <ele>211.30</ele>
        <time>1970-01-01T00:13:22Z</time>
      </trkpt>
      <trkpt lat="41.559091" lon="2.098397">
        <ele>211.30</ele>
        <time>1970-01-01T00:13:23Z</time>
      </trkpt>
      <trkpt lat="41.559087" lon="2.098275">
        <ele>211.40</ele>
        <time>1970-01-01T00:13:25Z</time>
      </trkpt>
      <trkpt lat="41.559081" lon="2.098141">
        <ele>211.40</ele>
        <time>1970-01-01T00:13:27Z</time>
      </trkpt>
      <trkpt lat="41.559076" lon="2.098080">
        <ele>211.50</ele>
        <time>1970-01-01T00:13:28Z</time>
      </trkpt>
      <trkpt lat="41.559066" lon="2.097969">
        <ele>211.60</ele>
        <time>1970-01-01T00:13:30Z</time>
      </trkpt>
      <trkpt lat="41.559060" lon="2.097921">
        <ele>211.60</ele>
        <time>1970-01-01T00:13:31Z</time>
      </trkpt>
      <trkpt lat="41.559053" lon="2.097870">
        <ele>211.70</ele>
        <time>1970-01-01T00:13:32Z</time>
      </trkpt>
      <trkpt lat="41.559038" lon="2.097753">
        <ele>211.70</ele>
        <time>1970-01-01T00:13:34Z</time>
      </trkpt>
      <trkpt lat="41.559030" lon="2.097691">
        <ele>211.70</ele>
        <time>1970-01-01T00:13:36Z</time>
      </trkpt>
      <trkpt lat="41.559059" lon="2.097630">
        <ele>211.70</ele>
        <time>1970-01-01T00:13:37Z</time>
      </trkpt>
      <trkpt lat="41.559037" lon="2.097552">
        <ele>211.70</ele>
        <time>1970-01-01T00:13:38Z</time>
      </trkpt>
      <trkpt lat="41.559014" lon="2.097493">
        <ele>211.70</ele>
        <time>1970-01-01T00:13:40Z</time>
      </trkpt>
      <trkpt lat="41.558985" lon="2.097442">
        <ele>211.70</ele>
        <time>1970-01-01T00:13:41Z</time>
      </trkpt>
      <trkpt lat="41.558968" lon="2.097396">
        <ele>211.70</ele>
        <time>1970-01-01T00:13:42Z</time>
      </trkpt>
      <trkpt lat="41.558954" lon="2.097306">
        <ele>211.70</ele>
        <time>1970-01-01T00:13:43Z</time>
      </trkpt>
      <trkpt lat="41.558959" lon="2.097215">
        <ele>211.70</ele>
        <time>1970-01-01T00:13:45Z</time>
      </trkpt>
      <trkpt lat="41.558965" lon="2.097159">
        <ele>211.70</ele>
        <time>1970-01-01T00:13:46Z</time>
      </trkpt>
      <trkpt lat="41.558973" lon="2.097098">
        <ele>211.80</ele>
        <time>1970-01-01T00:13:47Z</time>
      </trkpt>
      <trkpt lat="41.558984" lon="2.096981">
        <ele>211.70</ele>
        <time>1970-01-01T00:13:49Z</time>
      </trkpt>
      <trkpt lat="41.558992" lon="2.096914">
        <ele>211.70</ele>
        <time>1970-01-01T00:13:50Z</time>
      </trkpt>
      <trkpt lat="41.559024" lon="2.096781">
        <ele>211.90</ele>
        <time>1970-01-01T00:13:52Z</time>
      </trkpt>
      <trkpt lat="41.559068" lon="2.096672">
        <ele>211.90</ele>
        <time>1970-01-01T00:13:54Z</time>
      </trkpt>
      <trkpt lat="41.559094" lon="2.096623">
        <ele>212.00</ele>
        <time>1970-01-01T00:13:55Z</time>
      </trkpt>
      <trkpt lat="41.559124" lon="2.096573">
        <ele>212.10</ele>
        <time>1970-01-01T00:13:56Z</time>
      </trkpt>
      <trkpt lat="41.559176" lon="2.096499">
        <ele>212.20</ele>
        <time>1970-01-01T00:13:58Z</time>
      </trkpt>
      <trkpt lat="41.559215" lon="2.096440">
        <ele>212.20</ele>
        <time>1970-01-01T00:13:59Z</time>
      </trkpt>
      <trkpt lat="41.559251" lon="2.096389">
        <ele>212.30</ele>
        <time>1970-01-01T00:14:00Z</time>
      </trkpt>
      <trkpt lat="41.559299" lon="2.096323">
        <ele>212.40</ele>
        <time>1970-01-01T00:14:02Z</time>
      </trkpt>
      <trkpt lat="41.559325" lon="2.096268">
        <ele>212.50</ele>
        <time>1970-01-01T00:14:03Z</time>
      </trkpt>
      <trkpt lat="41.559392" lon="2.096258">
        <ele>212.60</ele>
        <time>1970-01-01T00:14:05Z</time>
      </trkpt>
      <trkpt lat="41.559413" lon="2.096179">
        <ele>212.70</ele>
        <time>1970-01-01T00:14:06Z</time>
      </trkpt>
      <trkpt lat="41.559439" lon="2.096057">
        <ele>212.80</ele>
        <time>1970-01-01T00:14:08Z</time>
      </trkpt>
      <trkpt lat="41.559459" lon="2.095995">
        <ele>212.90</ele>
        <time>1970-01-01T00:14:09Z</time>
      </trkpt>
      <trkpt lat="41.559488" lon="2.095917">
        <ele>213.00</ele>
        <time>1970-01-01T00:14:10Z</time>
      </trkpt>
      <trkpt lat="41.559523" lon="2.095836">
        <ele>213.10</ele>
        <time>1970-01-01T00:14:12Z</time>
      </trkpt>
      <trkpt lat="41.559534" lon="2.095779">
        <ele>213.20</ele>
        <time>1970-01-01T00:14:13Z</time>
      </trkpt>
      <trkpt lat="41.559582" lon="2.095681">
        <ele>213.30</ele>
        <time>1970-01-01T00:14:15Z</time>
      </trkpt>
      <trkpt lat="41.559607" lon="2.095634">
        <ele>213.40</ele>
        <time>1970-01-01T00:14:16Z</time>
      </trkpt>
      <trkpt lat="41.559636" lon="2.095569">
        <ele>213.60</ele>
        <time>1970-01-01T00:14:17Z</time>
      </trkpt>
      <trkpt lat="41.559669" lon="2.095499">
        <ele>213.70</ele>
        <time>1970-01-01T00:14:19Z</time>
      </trkpt>
      <trkpt lat="41.559700" lon="2.095434">
        <ele>213.80</ele>
        <time>1970-01-01T00:14:20Z</time>
      </trkpt>
      <trkpt lat="41.559735" lon="2.095367">
        <ele>214.00</ele>
        <time>1970-01-01T00:14:22Z</time>
      </trkpt>
      <trkpt lat="41.559780" lon="2.095283">
        <ele>214.10</ele>
        <time>1970-01-01T00:14:24Z</time>
      </trkpt>
      <trkpt lat="41.559803" lon="2.095236">
        <ele>214.20</ele>
        <time>1970-01-01T00:14:25Z</time>
      </trkpt>
      <trkpt lat="41.559847" lon="2.095154">
        <ele>214.40</ele>
        <time>1970-01-01T00:14:27Z</time>
      </trkpt>
      <trkpt lat="41.559873" lon="2.095106">
        <ele>214.40</ele>
        <time>1970-01-01T00:14:28Z</time>
      </trkpt>
      <trkpt lat="41.559898" lon="2.095061">
        <ele>214.50</ele>
        <time>1970-01-01T00:14:29Z</time>
      </trkpt>
      <trkpt lat="41.559945" lon="2.094989">
        <ele>214.70</ele>
        <time>1970-01-01T00:14:31Z</time>
      </trkpt>
      <trkpt lat="41.559992" lon="2.094929">
        <ele>214.90</ele>
        <time>1970-01-01T00:14:32Z</time>
      </trkpt>
      <trkpt lat="41.560022" lon="2.094892">
        <ele>215.00</ele>
        <time>1970-01-01T00:14:33Z</time>
      </trkpt>
      <trkpt lat="41.560065" lon="2.094837">
        <ele>215.20</ele>
        <time>1970-01-01T00:14:35Z</time>
      </trkpt>
      <trkpt lat="41.560098" lon="2.094800">
        <ele>215.30</ele>
        <time>1970-01-01T00:14:36Z</time>
      </trkpt>
      <trkpt lat="41.560150" lon="2.094726">
        <ele>215.40</ele>
        <time>1970-01-01T00:14:38Z</time>
      </trkpt>
      <trkpt lat="41.560186" lon="2.094690">
        <ele>215.50</ele>
        <time>1970-01-01T00:14:39Z</time>
      </trkpt>
      <trkpt lat="41.560242" lon="2.094621">
        <ele>215.60</ele>
        <time>1970-01-01T00:14:41Z</time>
      </trkpt>
      <trkpt lat="41.560277" lon="2.094566">
        <ele>215.80</ele>
        <time>1970-01-01T00:14:42Z</time>
      </trkpt>
      <trkpt lat="41.560315" lon="2.094501">
        <ele>215.90</ele>
        <time>1970-01-01T00:14:43Z</time>
      </trkpt>
      <trkpt lat="41.560344" lon="2.094446">
        <ele>216.10</ele>
        <time>1970-01-01T00:14:45Z</time>
      </trkpt>
      <trkpt lat="41.560376" lon="2.094382">
        <ele>216.30</ele>
        <time>1970-01-01T00:14:46Z</time>
      </trkpt>
      <trkpt lat="41.560404" lon="2.094334">
        <ele>216.40</ele>
        <time>1970-01-01T00:14:47Z</time>
      </trkpt>
      <trkpt lat="41.560453" lon="2.094251">
        <ele>216.60</ele>
        <time>1970-01-01T00:14:49Z</time>
      </trkpt>
      <trkpt lat="41.560500" lon="2.094158">
        <ele>216.70</ele>
        <time>1970-01-01T00:14:51Z</time>
      </trkpt>
      <trkpt lat="41.560524" lon="2.094111">
        <ele>216.80</ele>
        <time>1970-01-01T00:14:52Z</time>
      </trkpt>
      <trkpt lat="41.560564" lon="2.094034">
        <ele>216.90</ele>
        <time>1970-01-01T00:14:54Z</time>
      </trkpt>
      <trkpt lat="41.560600" lon="2.093980">
        <ele>217.00</ele>
        <time>1970-01-01T00:14:55Z</time>
      </trkpt>
      <trkpt lat="41.560646" lon="2.093897">
        <ele>217.20</ele>
        <time>1970-01-01T00:14:57Z</time>
      </trkpt>
      <trkpt lat="41.560696" lon="2.093802">
        <ele>217.40</ele>
        <time>1970-01-01T00:14:59Z</time>
      </trkpt>
      <trkpt lat="41.560746" lon="2.093713">
        <ele>217.60</ele>
        <time>1970-01-01T00:15:01Z</time>
      </trkpt>
      <trkpt lat="41.560774" lon="2.093660">
        <ele>217.70</ele>
        <time>1970-01-01T00:15:02Z</time>
      </trkpt>
      <trkpt lat="41.560805" lon="2.093596">
        <ele>217.80</ele>
        <time>1970-01-01T00:15:04Z</time>
      </trkpt>
      <trkpt lat="41.560838" lon="2.093530">
        <ele>218.00</ele>
        <time>1970-01-01T00:15:05Z</time>
      </trkpt>
      <trkpt lat="41.560864" lon="2.093483">
        <ele>218.10</ele>
        <time>1970-01-01T00:15:06Z</time>
      </trkpt>
      <trkpt lat="41.560907" lon="2.093397">
        <ele>218.40</ele>
        <time>1970-01-01T00:15:08Z</time>
      </trkpt>
      <trkpt lat="41.560934" lon="2.093359">
        <ele>218.60</ele>
        <time>1970-01-01T00:15:09Z</time>
      </trkpt>
      <trkpt lat="41.560987" lon="2.093291">
        <ele>218.90</ele>
        <time>1970-01-01T00:15:11Z</time>
      </trkpt>
      <trkpt lat="41.561033" lon="2.093227">
        <ele>219.20</ele>
        <time>1970-01-01T00:15:12Z</time>
      </trkpt>
      <trkpt lat="41.561063" lon="2.093180">
        <ele>219.50</ele>
        <time>1970-01-01T00:15:14Z</time>
      </trkpt>
      <trkpt lat="41.561100" lon="2.093122">
        <ele>219.80</ele>
        <time>1970-01-01T00:15:15Z</time>
      </trkpt>
      <trkpt lat="41.561125" lon="2.093081">
        <ele>220.00</ele>
        <time>1970-01-01T00:15:16Z</time>
      </trkpt>
      <trkpt lat="41.561160" lon="2.093020">
        <ele>220.30</ele>
        <time>1970-01-01T00:15:17Z</time>
      </trkpt>
      <trkpt lat="41.561198" lon="2.092960">
        <ele>220.60</ele>
        <time>1970-01-01T00:15:19Z</time>
      </trkpt>
      <trkpt lat="41.561222" lon="2.092915">
        <ele>220.80</ele>
        <time>1970-01-01T00:15:20Z</time>
      </trkpt>
      <trkpt lat="41.561252" lon="2.092864">
        <ele>221.00</ele>
        <time>1970-01-01T00:15:21Z</time>
      </trkpt>
      <trkpt lat="41.561290" lon="2.092796">
        <ele>221.30</ele>
        <time>1970-01-01T00:15:23Z</time>
      </trkpt>
      <trkpt lat="41.561313" lon="2.092754">
        <ele>221.40</ele>
        <time>1970-01-01T00:15:24Z</time>
      </trkpt>
      <trkpt lat="41.561350" lon="2.092690">
        <ele>221.60</ele>
        <time>1970-01-01T00:15:26Z</time>
      </trkpt>
      <trkpt lat="41.561382" lon="2.092639">
        <ele>221.70</ele>
        <time>1970-01-01T00:15:27Z</time>
      </trkpt>
      <trkpt lat="41.561424" lon="2.092559">
        <ele>221.90</ele>
        <time>1970-01-01T00:15:29Z</time>
      </trkpt>
      <trkpt lat="41.561460" lon="2.092501">
        <ele>222.20</ele>
        <time>1970-01-01T00:15:31Z</time>
      </trkpt>
      <trkpt lat="41.561491" lon="2.092456">
        <ele>222.50</ele>
        <time>1970-01-01T00:15:32Z</time>
      </trkpt>
      <trkpt lat="41.561545" lon="2.092381">
        <ele>222.90</ele>
        <time>1970-01-01T00:15:34Z</time>
      </trkpt>
      <trkpt lat="41.561573" lon="2.092345">
        <ele>223.20</ele>
        <time>1970-01-01T00:15:35Z</time>
      </trkpt>
      <trkpt lat="41.561604" lon="2.092303">
        <ele>223.40</ele>
        <time>1970-01-01T00:15:36Z</time>
      </trkpt>
      <trkpt lat="41.561633" lon="2.092267">
        <ele>223.70</ele>
        <time>1970-01-01T00:15:37Z</time>
      </trkpt>
      <trkpt lat="41.561673" lon="2.092211">
        <ele>224.00</ele>
        <time>1970-01-01T00:15:39Z</time>
      </trkpt>
      <trkpt lat="41.561714" lon="2.092152">
        <ele>224.40</ele>
        <time>1970-01-01T00:15:41Z</time>
      </trkpt>
      <trkpt lat="41.561743" lon="2.092113">
        <ele>224.70</ele>
        <time>1970-01-01T00:15:42Z</time>
      </trkpt>
      <trkpt lat="41.561778" lon="2.092068">
        <ele>225.00</ele>
        <time>1970-01-01T00:15:43Z</time>
      </trkpt>
      <trkpt lat="41.561818" lon="2.092011">
        <ele>225.40</ele>
        <time>1970-01-01T00:15:45Z</time>
      </trkpt>
      <trkpt lat="41.561848" lon="2.091968">
        <ele>225.70</ele>
        <time>1970-01-01T00:15:46Z</time>
      </trkpt>
      <trkpt lat="41.561879" lon="2.091929">
        <ele>226.00</ele>
        <time>1970-01-01T00:15:48Z</time>
      </trkpt>
      <trkpt lat="41.561907" lon="2.091889">
        <ele>226.20</ele>
        <time>1970-01-01T00:15:49Z</time>
      </trkpt>
      <trkpt lat="41.561929" lon="2.091857">
        <ele>226.40</ele>
        <time>1970-01-01T00:15:50Z</time>
      </trkpt>
      <trkpt lat="41.561967" lon="2.091793">
        <ele>226.80</ele>
        <time>1970-01-01T00:15:52Z</time>
      </trkpt>
      <trkpt lat="41.561989" lon="2.091761">
        <ele>227.00</ele>
        <time>1970-01-01T00:15:53Z</time>
      </trkpt>
      <trkpt lat="41.562023" lon="2.091704">
        <ele>227.30</ele>
        <time>1970-01-01T00:15:55Z</time>
      </trkpt>
      <trkpt lat="41.562062" lon="2.091652">
        <ele>227.60</ele>
        <time>1970-01-01T00:15:57Z</time>
      </trkpt>
      <trkpt lat="41.562088" lon="2.091615">
        <ele>227.70</ele>
        <time>1970-01-01T00:15:59Z</time>
      </trkpt>
      <trkpt lat="41.562097" lon="2.091600">
        <ele>227.80</ele>
        <time>1970-01-01T00:16:01Z</time>
      </trkpt>
      <trkpt lat="41.562105" lon="2.091584">
        <ele>227.90</ele>
        <time>1970-01-01T00:16:02Z</time>
      </trkpt>
      <trkpt lat="41.562113" lon="2.091569">
        <ele>227.90</ele>
        <time>1970-01-01T00:16:03Z</time>
      </trkpt>
      <trkpt lat="41.562151" lon="2.091513">
        <ele>228.10</ele>
        <time>1970-01-01T00:16:05Z</time>
      </trkpt>
      <trkpt lat="41.562153" lon="2.091460">
        <ele>228.10</ele>
        <time>1970-01-01T00:16:06Z</time>
      </trkpt>
      <trkpt lat="41.562137" lon="2.091369">
        <ele>228.10</ele>
        <time>1970-01-01T00:16:08Z</time>
      </trkpt>
      <trkpt lat="41.562131" lon="2.091309">
        <ele>228.20</ele>
        <time>1970-01-01T00:16:09Z</time>
      </trkpt>
      <trkpt lat="41.562135" lon="2.091231">
        <ele>228.30</ele>
        <time>1970-01-01T00:16:11Z</time>
      </trkpt>
      <trkpt lat="41.562146" lon="2.091178">
        <ele>228.20</ele>
        <time>1970-01-01T00:16:12Z</time>
      </trkpt>
      <trkpt lat="41.562158" lon="2.091135">
        <ele>228.10</ele>
        <time>1970-01-01T00:16:13Z</time>
      </trkpt>
      <trkpt lat="41.562193" lon="2.091063">
        <ele>228.00</ele>
        <time>1970-01-01T00:16:15Z</time>
      </trkpt>
      <trkpt lat="41.562203" lon="2.091020">
        <ele>227.90</ele>
        <time>1970-01-01T00:16:16Z</time>
      </trkpt>
      <trkpt lat="41.562204" lon="2.090944">
        <ele>227.80</ele>
        <time>1970-01-01T00:16:18Z</time>
      </trkpt>
      <trkpt lat="41.562204" lon="2.090889">
        <ele>227.70</ele>
        <time>1970-01-01T00:16:19Z</time>
      </trkpt>
      <trkpt lat="41.562209" lon="2.090833">
        <ele>227.60</ele>
        <time>1970-01-01T00:16:20Z</time>
      </trkpt>
      <trkpt lat="41.562213" lon="2.090783">
        <ele>227.50</ele>
        <time>1970-01-01T00:16:21Z</time>
      </trkpt>
      <trkpt lat="41.562219" lon="2.090714">
        <ele>227.30</ele>
        <time>1970-01-01T00:16:22Z</time>
      </trkpt>
      <trkpt lat="41.562225" lon="2.090655">
        <ele>227.20</ele>
        <time>1970-01-01T00:16:24Z</time>
      </trkpt>
      <trkpt lat="41.562229" lon="2.090610">
        <ele>227.20</ele>
        <time>1970-01-01T00:16:25Z</time>
      </trkpt>
      <trkpt lat="41.562235" lon="2.090563">
        <ele>227.10</ele>
        <time>1970-01-01T00:16:26Z</time>
      </trkpt>
      <trkpt lat="41.562249" lon="2.090478">
        <ele>226.90</ele>
        <time>1970-01-01T00:16:28Z</time>
      </trkpt>
      <trkpt lat="41.562264" lon="2.090417">
        <ele>226.80</ele>
        <time>1970-01-01T00:16:29Z</time>
      </trkpt>
      <trkpt lat="41.562275" lon="2.090360">
        <ele>226.70</ele>
        <time>1970-01-01T00:16:30Z</time>
      </trkpt>
      <trkpt lat="41.562283" lon="2.090316">
        <ele>226.70</ele>
        <time>1970-01-01T00:16:32Z</time>
      </trkpt>
      <trkpt lat="41.562298" lon="2.090254">
        <ele>226.60</ele>
        <time>1970-01-01T00:16:33Z</time>
      </trkpt>
      <trkpt lat="41.562309" lon="2.090201">
        <ele>226.50</ele>
        <time>1970-01-01T00:16:34Z</time>
      </trkpt>
      <trkpt lat="41.562327" lon="2.090126">
        <ele>226.40</ele>
        <time>1970-01-01T00:16:36Z</time>
      </trkpt>
      <trkpt lat="41.562340" lon="2.090069">
        <ele>226.30</ele>
        <time>1970-01-01T00:16:37Z</time>
      </trkpt>
      <trkpt lat="41.562356" lon="2.090017">
        <ele>226.30</ele>
        <time>1970-01-01T00:16:38Z</time>
      </trkpt>
      <trkpt lat="41.562372" lon="2.089962">
        <ele>226.20</ele>
        <time>1970-01-01T00:16:39Z</time>
      </trkpt>
      <trkpt lat="41.562386" lon="2.089913">
        <ele>226.10</ele>
        <time>1970-01-01T00:16:40Z</time>
      </trkpt>
      <trkpt lat="41.562402" lon="2.089850">
        <ele>226.10</ele>
        <time>1970-01-01T00:16:42Z</time>
      </trkpt>
      <trkpt lat="41.562414" lon="2.089782">
        <ele>226.00</ele>
        <time>1970-01-01T00:16:43Z</time>
      </trkpt>
      <trkpt lat="41.562423" lon="2.089734">
        <ele>225.90</ele>
        <time>1970-01-01T00:16:44Z</time>
      </trkpt>
      <trkpt lat="41.562440" lon="2.089668">
        <ele>225.90</ele>
        <time>1970-01-01T00:16:45Z</time>
      </trkpt>
      <trkpt lat="41.562451" lon="2.089607">
        <ele>225.80</ele>
        <time>1970-01-01T00:16:47Z</time>
      </trkpt>
      <trkpt lat="41.562462" lon="2.089555">
        <ele>225.80</ele>
        <time>1970-01-01T00:16:48Z</time>
      </trkpt>
      <trkpt lat="41.562472" lon="2.089495">
        <ele>225.70</ele>
        <time>1970-01-01T00:16:49Z</time>
      </trkpt>
      <trkpt lat="41.562481" lon="2.089442">
        <ele>225.70</ele>
        <time>1970-01-01T00:16:50Z</time>
      </trkpt>
      <trkpt lat="41.562491" lon="2.089387">
        <ele>225.70</ele>
        <time>1970-01-01T00:16:51Z</time>
      </trkpt>
      <trkpt lat="41.562510" lon="2.089295">
        <ele>225.70</ele>
        <time>1970-01-01T00:16:53Z</time>
      </trkpt>
      <trkpt lat="41.562533" lon="2.089216">
        <ele>225.60</ele>
        <time>1970-01-01T00:16:54Z</time>
      </trkpt>
      <trkpt lat="41.562550" lon="2.089165">
        <ele>225.60</ele>
        <time>1970-01-01T00:16:55Z</time>
      </trkpt>
      <trkpt lat="41.562568" lon="2.089102">
        <ele>225.50</ele>
        <time>1970-01-01T00:16:57Z</time>
      </trkpt>
      <trkpt lat="41.562587" lon="2.089052">
        <ele>225.50</ele>
        <time>1970-01-01T00:16:58Z</time>
      </trkpt>
      <trkpt lat="41.562608" lon="2.089001">
        <ele>225.70</ele>
        <time>1970-01-01T00:16:59Z</time>
      </trkpt>
      <trkpt lat="41.562630" lon="2.088968">
        <ele>225.60</ele>
        <time>1970-01-01T00:17:00Z</time>
      </trkpt>
      <trkpt lat="41.562667" lon="2.088906">
        <ele>225.60</ele>
        <time>1970-01-01T00:17:02Z</time>
      </trkpt>
      <trkpt lat="41.562672" lon="2.088858">
        <ele>225.50</ele>
        <time>1970-01-01T00:17:03Z</time>
      </trkpt>
      <trkpt lat="41.562685" lon="2.088785">
        <ele>225.40</ele>
        <time>1970-01-01T00:17:05Z</time>
      </trkpt>
      <trkpt lat="41.562687" lon="2.088727">
        <ele>225.30</ele>
        <time>1970-01-01T00:17:06Z</time>
      </trkpt>
      <trkpt lat="41.562674" lon="2.088647">
        <ele>225.10</ele>
        <time>1970-01-01T00:17:08Z</time>
      </trkpt>
      <trkpt lat="41.562653" lon="2.088587">
        <ele>225.00</ele>
        <time>1970-01-01T00:17:09Z</time>
      </trkpt>
      <trkpt lat="41.562630" lon="2.088518">
        <ele>224.80</ele>
        <time>1970-01-01T00:17:10Z</time>
      </trkpt>
      <trkpt lat="41.562609" lon="2.088426">
        <ele>224.60</ele>
        <time>1970-01-01T00:17:12Z</time>
      </trkpt>
      <trkpt lat="41.562579" lon="2.088327">
        <ele>224.30</ele>
        <time>1970-01-01T00:17:13Z</time>
      </trkpt>
      <trkpt lat="41.562543" lon="2.088186">
        <ele>223.80</ele>
        <time>1970-01-01T00:17:15Z</time>
      </trkpt>
      <trkpt lat="41.562513" lon="2.088040">
        <ele>223.40</ele>
        <time>1970-01-01T00:17:17Z</time>
      </trkpt>
      <trkpt lat="41.562499" lon="2.087961">
        <ele>223.10</ele>
        <time>1970-01-01T00:17:18Z</time>
      </trkpt>
      <trkpt lat="41.562470" lon="2.087804">
        <ele>222.60</ele>
        <time>1970-01-01T00:17:20Z</time>
      </trkpt>
      <trkpt lat="41.562434" lon="2.087640">
        <ele>222.10</ele>
        <time>1970-01-01T00:17:22Z</time>
      </trkpt>
      <trkpt lat="41.562401" lon="2.087482">
        <ele>221.70</ele>
        <time>1970-01-01T00:17:24Z</time>
      </trkpt>
      <trkpt lat="41.562387" lon="2.087347">
        <ele>221.40</ele>
        <time>1970-01-01T00:17:26Z</time>
      </trkpt>
      <trkpt lat="41.562382" lon="2.087293">
        <ele>221.40</ele>
        <time>1970-01-01T00:17:27Z</time>
      </trkpt>
      <trkpt lat="41.562403" lon="2.087171">
        <ele>221.40</ele>
        <time>1970-01-01T00:17:29Z</time>
      </trkpt>
      <trkpt lat="41.562434" lon="2.087127">
        <ele>221.40</ele>
        <time>1970-01-01T00:17:30Z</time>
      </trkpt>
      <trkpt lat="41.562510" lon="2.087095">
        <ele>221.40</ele>
        <time>1970-01-01T00:17:32Z</time>
      </trkpt>
      <trkpt lat="41.562510" lon="2.087076">
        <ele>221.40</ele>
        <time>1970-01-01T00:17:33Z</time>
      </trkpt>
      <trkpt lat="41.562613" lon="2.087026">
        <ele>221.50</ele>
        <time>1970-01-01T00:17:35Z</time>
      </trkpt>
      <trkpt lat="41.562680" lon="2.086988">
        <ele>221.50</ele>
        <time>1970-01-01T00:17:36Z</time>
      </trkpt>
      <trkpt lat="41.562726" lon="2.086963">
        <ele>221.60</ele>
        <time>1970-01-01T00:17:37Z</time>
      </trkpt>
      <trkpt lat="41.562792" lon="2.086906">
        <ele>221.70</ele>
        <time>1970-01-01T00:17:39Z</time>
      </trkpt>
      <trkpt lat="41.562886" lon="2.086846">
        <ele>221.80</ele>
        <time>1970-01-01T00:17:41Z</time>
      </trkpt>
      <trkpt lat="41.562945" lon="2.086799">
        <ele>221.90</ele>
        <time>1970-01-01T00:17:43Z</time>
      </trkpt>
      <trkpt lat="41.562977" lon="2.086769">
        <ele>221.90</ele>
        <time>1970-01-01T00:17:45Z</time>
      </trkpt>
      <trkpt lat="41.563040" lon="2.086729">
        <ele>222.00</ele>
        <time>1970-01-01T00:17:46Z</time>
      </trkpt>
      <trkpt lat="41.563088" lon="2.086700">
        <ele>222.10</ele>
        <time>1970-01-01T00:17:47Z</time>
      </trkpt>
      <trkpt lat="41.563151" lon="2.086670">
        <ele>222.20</ele>
        <time>1970-01-01T00:17:48Z</time>
      </trkpt>
      <trkpt lat="41.563246" lon="2.086618">
        <ele>222.40</ele>
        <time>1970-01-01T00:17:50Z</time>
      </trkpt>
      <trkpt lat="41.563289" lon="2.086608">
        <ele>222.40</ele>
        <time>1970-01-01T00:17:51Z</time>
      </trkpt>
      <trkpt lat="41.563379" lon="2.086574">
        <ele>222.60</ele>
        <time>1970-01-01T00:17:53Z</time>
      </trkpt>
      <trkpt lat="41.563448" lon="2.086536">
        <ele>222.70</ele>
        <time>1970-01-01T00:17:54Z</time>
      </trkpt>
      <trkpt lat="41.563507" lon="2.086507">
        <ele>222.90</ele>
        <time>1970-01-01T00:17:56Z</time>
      </trkpt>
      <trkpt lat="41.563552" lon="2.086484">
        <ele>223.00</ele>
        <time>1970-01-01T00:17:57Z</time>
      </trkpt>
      <trkpt lat="41.563598" lon="2.086459">
        <ele>223.10</ele>
        <time>1970-01-01T00:17:58Z</time>
      </trkpt>
      <trkpt lat="41.563688" lon="2.086403">
        <ele>223.30</ele>
        <time>1970-01-01T00:18:00Z</time>
      </trkpt>
      <trkpt lat="41.563727" lon="2.086397">
        <ele>223.30</ele>
        <time>1970-01-01T00:18:01Z</time>
      </trkpt>
      <trkpt lat="41.563786" lon="2.086374">
        <ele>223.50</ele>
        <time>1970-01-01T00:18:02Z</time>
      </trkpt>
      <trkpt lat="41.563859" lon="2.086317">
        <ele>223.60</ele>
        <time>1970-01-01T00:18:04Z</time>
      </trkpt>
      <trkpt lat="41.563880" lon="2.086303">
        <ele>223.70</ele>
        <time>1970-01-01T00:18:06Z</time>
      </trkpt>
      <trkpt lat="41.563909" lon="2.086285">
        <ele>223.80</ele>
        <time>1970-01-01T00:18:07Z</time>
      </trkpt>
      <trkpt lat="41.564007" lon="2.086218">
        <ele>224.10</ele>
        <time>1970-01-01T00:18:09Z</time>
      </trkpt>
      <trkpt lat="41.564063" lon="2.086184">
        <ele>224.30</ele>
        <time>1970-01-01T00:18:10Z</time>
      </trkpt>
      <trkpt lat="41.564126" lon="2.086146">
        <ele>224.50</ele>
        <time>1970-01-01T00:18:11Z</time>
      </trkpt>
      <trkpt lat="41.564191" lon="2.086103">
        <ele>224.70</ele>
        <time>1970-01-01T00:18:13Z</time>
      </trkpt>
      <trkpt lat="41.564231" lon="2.086072">
        <ele>224.90</ele>
        <time>1970-01-01T00:18:14Z</time>
      </trkpt>
      <trkpt lat="41.564270" lon="2.086045">
        <ele>225.10</ele>
        <time>1970-01-01T00:18:15Z</time>
      </trkpt>
      <trkpt lat="41.564346" lon="2.086000">
        <ele>225.40</ele>
        <time>1970-01-01T00:18:17Z</time>
      </trkpt>
      <trkpt lat="41.564425" lon="2.085960">
        <ele>225.70</ele>
        <time>1970-01-01T00:18:19Z</time>
      </trkpt>
      <trkpt lat="41.564465" lon="2.085939">
        <ele>225.80</ele>
        <time>1970-01-01T00:18:20Z</time>
      </trkpt>
      <trkpt lat="41.564521" lon="2.085913">
        <ele>226.10</ele>
        <time>1970-01-01T00:18:21Z</time>
      </trkpt>
      <trkpt lat="41.564584" lon="2.085883">
        <ele>226.30</ele>
        <time>1970-01-01T00:18:23Z</time>
      </trkpt>
      <trkpt lat="41.564626" lon="2.085860">
        <ele>226.50</ele>
        <time>1970-01-01T00:18:24Z</time>
      </trkpt>
      <trkpt lat="41.564705" lon="2.085813">
        <ele>226.80</ele>
        <time>1970-01-01T00:18:26Z</time>
      </trkpt>
      <trkpt lat="41.564742" lon="2.085792">
        <ele>226.90</ele>
        <time>1970-01-01T00:18:27Z</time>
      </trkpt>
      <trkpt lat="41.564799" lon="2.085762">
        <ele>227.10</ele>
        <time>1970-01-01T00:18:29Z</time>
      </trkpt>
      <trkpt lat="41.564840" lon="2.085729">
        <ele>227.20</ele>
        <time>1970-01-01T00:18:30Z</time>
      </trkpt>
      <trkpt lat="41.564869" lon="2.085702">
        <ele>227.20</ele>
        <time>1970-01-01T00:18:31Z</time>
      </trkpt>
      <trkpt lat="41.564900" lon="2.085674">
        <ele>227.30</ele>
        <time>1970-01-01T00:18:32Z</time>
      </trkpt>
      <trkpt lat="41.564968" lon="2.085623">
        <ele>227.50</ele>
        <time>1970-01-01T00:18:34Z</time>
      </trkpt>
      <trkpt lat="41.565027" lon="2.085592">
        <ele>227.70</ele>
        <time>1970-01-01T00:18:36Z</time>
      </trkpt>
      <trkpt lat="41.565071" lon="2.085573">
        <ele>227.90</ele>
        <time>1970-01-01T00:18:37Z</time>
      </trkpt>
      <trkpt lat="41.565124" lon="2.085542">
        <ele>228.10</ele>
        <time>1970-01-01T00:18:38Z</time>
      </trkpt>
      <trkpt lat="41.565168" lon="2.085520">
        <ele>228.20</ele>
        <time>1970-01-01T00:18:40Z</time>
      </trkpt>
      <trkpt lat="41.565211" lon="2.085495">
        <ele>228.40</ele>
        <time>1970-01-01T00:18:41Z</time>
      </trkpt>
      <trkpt lat="41.565243" lon="2.085470">
        <ele>228.50</ele>
        <time>1970-01-01T00:18:42Z</time>
      </trkpt>
      <trkpt lat="41.565299" lon="2.085430">
        <ele>228.80</ele>
        <time>1970-01-01T00:18:44Z</time>
      </trkpt>
      <trkpt lat="41.565356" lon="2.085384">
        <ele>229.00</ele>
        <time>1970-01-01T00:18:45Z</time>
      </trkpt>
      <trkpt lat="41.565403" lon="2.085339">
        <ele>229.20</ele>
        <time>1970-01-01T00:18:47Z</time>
      </trkpt>
      <trkpt lat="41.565451" lon="2.085295">
        <ele>229.40</ele>
        <time>1970-01-01T00:18:48Z</time>
      </trkpt>
      <trkpt lat="41.565488" lon="2.085259">
        <ele>229.60</ele>
        <time>1970-01-01T00:18:50Z</time>
      </trkpt>
      <trkpt lat="41.565527" lon="2.085220">
        <ele>229.80</ele>
        <time>1970-01-01T00:18:51Z</time>
      </trkpt>
      <trkpt lat="41.565589" lon="2.085160">
        <ele>230.10</ele>
        <time>1970-01-01T00:18:53Z</time>
      </trkpt>
      <trkpt lat="41.565632" lon="2.085118">
        <ele>230.30</ele>
        <time>1970-01-01T00:18:54Z</time>
      </trkpt>
      <trkpt lat="41.565670" lon="2.085080">
        <ele>230.40</ele>
        <time>1970-01-01T00:18:55Z</time>
      </trkpt>
      <trkpt lat="41.565707" lon="2.085042">
        <ele>230.60</ele>
        <time>1970-01-01T00:18:56Z</time>
      </trkpt>
      <trkpt lat="41.565750" lon="2.084991">
        <ele>230.90</ele>
        <time>1970-01-01T00:18:58Z</time>
      </trkpt>
      <trkpt lat="41.565795" lon="2.084935">
        <ele>231.10</ele>
        <time>1970-01-01T00:18:59Z</time>
      </trkpt>
      <trkpt lat="41.565830" lon="2.084889">
        <ele>231.30</ele>
        <time>1970-01-01T00:19:00Z</time>
      </trkpt>
      <trkpt lat="41.565866" lon="2.084844">
        <ele>231.60</ele>
        <time>1970-01-01T00:19:01Z</time>
      </trkpt>
      <trkpt lat="41.565900" lon="2.084796">
        <ele>231.80</ele>
        <time>1970-01-01T00:19:03Z</time>
      </trkpt>
      <trkpt lat="41.565928" lon="2.084748">
        <ele>232.00</ele>
        <time>1970-01-01T00:19:04Z</time>
      </trkpt>
      <trkpt lat="41.565958" lon="2.084705">
        <ele>232.20</ele>
        <time>1970-01-01T00:19:05Z</time>
      </trkpt>
      <trkpt lat="41.565995" lon="2.084645">
        <ele>232.50</ele>
        <time>1970-01-01T00:19:06Z</time>
      </trkpt>
      <trkpt lat="41.566023" lon="2.084604">
        <ele>232.70</ele>
        <time>1970-01-01T00:19:08Z</time>
      </trkpt>
      <trkpt lat="41.566051" lon="2.084557">
        <ele>233.00</ele>
        <time>1970-01-01T00:19:09Z</time>
      </trkpt>
      <trkpt lat="41.566081" lon="2.084501">
        <ele>233.30</ele>
        <time>1970-01-01T00:19:10Z</time>
      </trkpt>
      <trkpt lat="41.566107" lon="2.084460">
        <ele>233.50</ele>
        <time>1970-01-01T00:19:12Z</time>
      </trkpt>
      <trkpt lat="41.566135" lon="2.084411">
        <ele>233.70</ele>
        <time>1970-01-01T00:19:13Z</time>
      </trkpt>
      <trkpt lat="41.566152" lon="2.084368">
        <ele>233.90</ele>
        <time>1970-01-01T00:19:14Z</time>
      </trkpt>
      <trkpt lat="41.566178" lon="2.084312">
        <ele>234.20</ele>
        <time>1970-01-01T00:19:15Z</time>
      </trkpt>
      <trkpt lat="41.566204" lon="2.084252">
        <ele>234.50</ele>
        <time>1970-01-01T00:19:17Z</time>
      </trkpt>
      <trkpt lat="41.566224" lon="2.084212">
        <ele>234.60</ele>
        <time>1970-01-01T00:19:18Z</time>
      </trkpt>
      <trkpt lat="41.566255" lon="2.084139">
        <ele>234.90</ele>
        <time>1970-01-01T00:19:20Z</time>
      </trkpt>
      <trkpt lat="41.566279" lon="2.084080">
        <ele>235.20</ele>
        <time>1970-01-01T00:19:21Z</time>
      </trkpt>
      <trkpt lat="41.566294" lon="2.084020">
        <ele>235.40</ele>
        <time>1970-01-01T00:19:23Z</time>
      </trkpt>
      <trkpt lat="41.566295" lon="2.083970">
        <ele>235.60</ele>
        <time>1970-01-01T00:19:24Z</time>
      </trkpt>
      <trkpt lat="41.566285" lon="2.083926">
        <ele>235.60</ele>
        <time>1970-01-01T00:19:25Z</time>
      </trkpt>
      <trkpt lat="41.566278" lon="2.083846">
        <ele>235.60</ele>
        <time>1970-01-01T00:19:27Z</time>
      </trkpt>
      <trkpt lat="41.566277" lon="2.083787">
        <ele>235.60</ele>
        <time>1970-01-01T00:19:28Z</time>
      </trkpt>
      <trkpt lat="41.566274" lon="2.083715">
        <ele>235.60</ele>
        <time>1970-01-01T00:19:29Z</time>
      </trkpt>
      <trkpt lat="41.566253" lon="2.083667">
        <ele>235.70</ele>
        <time>1970-01-01T00:19:31Z</time>
      </trkpt>
      <trkpt lat="41.566210" lon="2.083637">
        <ele>235.70</ele>
        <time>1970-01-01T00:19:32Z</time>
      </trkpt>
      <trkpt lat="41.566148" lon="2.083650">
        <ele>235.80</ele>
        <time>1970-01-01T00:19:33Z</time>
      </trkpt>
      <trkpt lat="41.566103" lon="2.083637">
        <ele>235.80</ele>
        <time>1970-01-01T00:19:35Z</time>
      </trkpt>
      <trkpt lat="41.566057" lon="2.083611">
        <ele>235.80</ele>
        <time>1970-01-01T00:19:36Z</time>
      </trkpt>
      <trkpt lat="41.566023" lon="2.083588">
        <ele>235.80</ele>
        <time>1970-01-01T00:19:37Z</time>
      </trkpt>
      <trkpt lat="41.565986" lon="2.083567">
        <ele>235.90</ele>
        <time>1970-01-01T00:19:38Z</time>
      </trkpt>
      <trkpt lat="41.565950" lon="2.083549">
        <ele>235.90</ele>
        <time>1970-01-01T00:19:39Z</time>
      </trkpt>
      <trkpt lat="41.565894" lon="2.083526">
        <ele>235.90</ele>
        <time>1970-01-01T00:19:40Z</time>
      </trkpt>
      <trkpt lat="41.565836" lon="2.083500">
        <ele>236.00</ele>
        <time>1970-01-01T00:19:42Z</time>
      </trkpt>
      <trkpt lat="41.565760" lon="2.083456">
        <ele>236.10</ele>
        <time>1970-01-01T00:19:44Z</time>
      </trkpt>
      <trkpt lat="41.565708" lon="2.083431">
        <ele>236.20</ele>
        <time>1970-01-01T00:19:45Z</time>
      </trkpt>
      <trkpt lat="41.565657" lon="2.083404">
        <ele>236.20</ele>
        <time>1970-01-01T00:19:46Z</time>
      </trkpt>
      <trkpt lat="41.565605" lon="2.083369">
        <ele>236.30</ele>
        <time>1970-01-01T00:19:48Z</time>
      </trkpt>
      <trkpt lat="41.565542" lon="2.083331">
        <ele>236.40</ele>
        <time>1970-01-01T00:19:49Z</time>
      </trkpt>
      <trkpt lat="41.565485" lon="2.083295">
        <ele>236.50</ele>
        <time>1970-01-01T00:19:51Z</time>
      </trkpt>
      <trkpt lat="41.565435" lon="2.083254">
        <ele>236.60</ele>
        <time>1970-01-01T00:19:52Z</time>
      </trkpt>
      <trkpt lat="41.565391" lon="2.083218">
        <ele>236.80</ele>
        <time>1970-01-01T00:19:53Z</time>
      </trkpt>
      <trkpt lat="41.565337" lon="2.083178">
        <ele>236.90</ele>
        <time>1970-01-01T00:19:54Z</time>
      </trkpt>
      <trkpt lat="41.565299" lon="2.083141">
        <ele>237.00</ele>
        <time>1970-01-01T00:19:56Z</time>
      </trkpt>
      <trkpt lat="41.565265" lon="2.083057">
        <ele>237.20</ele>
        <time>1970-01-01T00:19:57Z</time>
      </trkpt>
      <trkpt lat="41.565250" lon="2.082997">
        <ele>237.20</ele>
        <time>1970-01-01T00:19:58Z</time>
      </trkpt>
      <trkpt lat="41.565236" lon="2.082936">
        <ele>237.20</ele>
        <time>1970-01-01T00:19:59Z</time>
      </trkpt>
      <trkpt lat="41.565225" lon="2.082887">
        <ele>237.20</ele>
        <time>1970-01-01T00:20:00Z</time>
      </trkpt>
      <trkpt lat="41.565219" lon="2.082826">
        <ele>237.30</ele>
        <time>1970-01-01T00:20:01Z</time>
      </trkpt>
      <trkpt lat="41.565231" lon="2.082773">
        <ele>237.30</ele>
        <time>1970-01-01T00:20:03Z</time>
      </trkpt>
      <trkpt lat="41.565250" lon="2.082716">
        <ele>237.40</ele>
        <time>1970-01-01T00:20:04Z</time>
      </trkpt>
      <trkpt lat="41.565288" lon="2.082640">
        <ele>237.60</ele>
        <time>1970-01-01T00:20:06Z</time>
      </trkpt>
      <trkpt lat="41.565309" lon="2.082593">
        <ele>237.60</ele>
        <time>1970-01-01T00:20:07Z</time>
      </trkpt>
      <trkpt lat="41.565324" lon="2.082547">
        <ele>237.70</ele>
        <time>1970-01-01T00:20:08Z</time>
      </trkpt>
      <trkpt lat="41.565338" lon="2.082495">
        <ele>237.80</ele>
        <time>1970-01-01T00:20:09Z</time>
      </trkpt>
      <trkpt lat="41.565360" lon="2.082428">
        <ele>237.90</ele>
        <time>1970-01-01T00:20:11Z</time>
      </trkpt>
      <trkpt lat="41.565379" lon="2.082367">
        <ele>238.00</ele>
        <time>1970-01-01T00:20:12Z</time>
      </trkpt>
      <trkpt lat="41.565403" lon="2.082290">
        <ele>238.10</ele>
        <time>1970-01-01T00:20:14Z</time>
      </trkpt>
      <trkpt lat="41.565416" lon="2.082242">
        <ele>238.20</ele>
        <time>1970-01-01T00:20:15Z</time>
      </trkpt>
      <trkpt lat="41.565427" lon="2.082180">
        <ele>238.30</ele>
        <time>1970-01-01T00:20:16Z</time>
      </trkpt>
      <trkpt lat="41.565435" lon="2.082130">
        <ele>238.40</ele>
        <time>1970-01-01T00:20:17Z</time>
      </trkpt>
      <trkpt lat="41.565447" lon="2.082086">
        <ele>238.40</ele>
        <time>1970-01-01T00:20:18Z</time>
      </trkpt>
      <trkpt lat="41.565476" lon="2.082024">
        <ele>238.60</ele>
        <time>1970-01-01T00:20:19Z</time>
      </trkpt>
      <trkpt lat="41.565501" lon="2.081962">
        <ele>238.70</ele>
        <time>1970-01-01T00:20:21Z</time>
      </trkpt>
      <trkpt lat="41.565518" lon="2.081915">
        <ele>238.80</ele>
        <time>1970-01-01T00:20:22Z</time>
      </trkpt>
      <trkpt lat="41.565540" lon="2.081845">
        <ele>238.90</ele>
        <time>1970-01-01T00:20:23Z</time>
      </trkpt>
      <trkpt lat="41.565556" lon="2.081775">
        <ele>239.10</ele>
        <time>1970-01-01T00:20:25Z</time>
      </trkpt>
      <trkpt lat="41.565567" lon="2.081729">
        <ele>239.10</ele>
        <time>1970-01-01T00:20:26Z</time>
      </trkpt>
      <trkpt lat="41.565586" lon="2.081658">
        <ele>239.30</ele>
        <time>1970-01-01T00:20:28Z</time>
      </trkpt>
      <trkpt lat="41.565600" lon="2.081607">
        <ele>239.40</ele>
        <time>1970-01-01T00:20:29Z</time>
      </trkpt>
      <trkpt lat="41.565614" lon="2.081556">
        <ele>239.50</ele>
        <time>1970-01-01T00:20:30Z</time>
      </trkpt>
      <trkpt lat="41.565628" lon="2.081495">
        <ele>239.60</ele>
        <time>1970-01-01T00:20:32Z</time>
      </trkpt>
      <trkpt lat="41.565638" lon="2.081448">
        <ele>239.70</ele>
        <time>1970-01-01T00:20:33Z</time>
      </trkpt>
      <trkpt lat="41.565644" lon="2.081411">
        <ele>239.80</ele>
        <time>1970-01-01T00:20:34Z</time>
      </trkpt>
      <trkpt lat="41.565654" lon="2.081366">
        <ele>239.90</ele>
        <time>1970-01-01T00:20:35Z</time>
      </trkpt>
      <trkpt lat="41.565667" lon="2.081268">
        <ele>240.00</ele>
        <time>1970-01-01T00:20:37Z</time>
      </trkpt>
      <trkpt lat="41.565671" lon="2.081222">
        <ele>240.10</ele>
        <time>1970-01-01T00:20:38Z</time>
      </trkpt>
      <trkpt lat="41.565674" lon="2.081174">
        <ele>240.20</ele>
        <time>1970-01-01T00:20:39Z</time>
      </trkpt>
      <trkpt lat="41.565680" lon="2.081108">
        <ele>240.30</ele>
        <time>1970-01-01T00:20:40Z</time>
      </trkpt>
      <trkpt lat="41.565680" lon="2.081038">
        <ele>240.50</ele>
        <time>1970-01-01T00:20:42Z</time>
      </trkpt>
      <trkpt lat="41.565674" lon="2.080947">
        <ele>240.70</ele>
        <time>1970-01-01T00:20:44Z</time>
      </trkpt>
      <trkpt lat="41.565669" lon="2.080900">
        <ele>240.80</ele>
        <time>1970-01-01T00:20:45Z</time>
      </trkpt>
      <trkpt lat="41.565665" lon="2.080844">
        <ele>240.90</ele>
        <time>1970-01-01T00:20:46Z</time>
      </trkpt>
      <trkpt lat="41.565658" lon="2.080799">
        <ele>241.00</ele>
        <time>1970-01-01T00:20:47Z</time>
      </trkpt>
      <trkpt lat="41.565646" lon="2.080744">
        <ele>241.10</ele>
        <time>1970-01-01T00:20:48Z</time>
      </trkpt>
      <trkpt lat="41.565627" lon="2.080684">
        <ele>241.20</ele>
        <time>1970-01-01T00:20:50Z</time>
      </trkpt>
      <trkpt lat="41.565612" lon="2.080638">
        <ele>241.30</ele>
        <time>1970-01-01T00:20:51Z</time>
      </trkpt>
      <trkpt lat="41.565597" lon="2.080595">
        <ele>241.40</ele>
        <time>1970-01-01T00:20:52Z</time>
      </trkpt>
      <trkpt lat="41.565573" lon="2.080526">
        <ele>241.50</ele>
        <time>1970-01-01T00:20:54Z</time>
      </trkpt>
      <trkpt lat="41.565568" lon="2.080444">
        <ele>241.70</ele>
        <time>1970-01-01T00:20:56Z</time>
      </trkpt>
      <trkpt lat="41.565560" lon="2.080390">
        <ele>241.80</ele>
        <time>1970-01-01T00:20:57Z</time>
      </trkpt>
      <trkpt lat="41.565541" lon="2.080328">
        <ele>241.90</ele>
        <time>1970-01-01T00:20:58Z</time>
      </trkpt>
      <trkpt lat="41.565532" lon="2.080271">
        <ele>242.00</ele>
        <time>1970-01-01T00:21:00Z</time>
      </trkpt>
      <trkpt lat="41.565529" lon="2.080230">
        <ele>242.10</ele>
        <time>1970-01-01T00:21:01Z</time>
      </trkpt>
      <trkpt lat="41.565529" lon="2.080176">
        <ele>242.20</ele>
        <time>1970-01-01T00:21:02Z</time>
      </trkpt>
      <trkpt lat="41.565531" lon="2.080138">
        <ele>242.30</ele>
        <time>1970-01-01T00:21:03Z</time>
      </trkpt>
      <trkpt lat="41.565539" lon="2.080076">
        <ele>242.50</ele>
        <time>1970-01-01T00:21:04Z</time>
      </trkpt>
      <trkpt lat="41.565552" lon="2.080021">
        <ele>242.60</ele>
        <time>1970-01-01T00:21:06Z</time>
      </trkpt>
      <trkpt lat="41.565566" lon="2.079979">
        <ele>242.70</ele>
        <time>1970-01-01T00:21:07Z</time>
      </trkpt>
      <trkpt lat="41.565583" lon="2.079916">
        <ele>242.90</ele>
        <time>1970-01-01T00:21:08Z</time>
      </trkpt>
      <trkpt lat="41.565601" lon="2.079874">
        <ele>243.00</ele>
        <time>1970-01-01T00:21:10Z</time>
      </trkpt>
      <trkpt lat="41.565616" lon="2.079831">
        <ele>243.10</ele>
        <time>1970-01-01T00:21:11Z</time>
      </trkpt>
      <trkpt lat="41.565631" lon="2.079785">
        <ele>243.20</ele>
        <time>1970-01-01T00:21:12Z</time>
      </trkpt>
      <trkpt lat="41.565656" lon="2.079710">
        <ele>243.30</ele>
        <time>1970-01-01T00:21:14Z</time>
      </trkpt>
      <trkpt lat="41.565684" lon="2.079618">
        <ele>243.50</ele>
        <time>1970-01-01T00:21:16Z</time>
      </trkpt>
      <trkpt lat="41.565703" lon="2.079569">
        <ele>243.60</ele>
        <time>1970-01-01T00:21:17Z</time>
      </trkpt>
      <trkpt lat="41.565720" lon="2.079503">
        <ele>243.70</ele>
        <time>1970-01-01T00:21:18Z</time>
      </trkpt>
      <trkpt lat="41.565753" lon="2.079451">
        <ele>243.90</ele>
        <time>1970-01-01T00:21:20Z</time>
      </trkpt>
      <trkpt lat="41.565796" lon="2.079396">
        <ele>244.00</ele>
        <time>1970-01-01T00:21:22Z</time>
      </trkpt>
      <trkpt lat="41.565829" lon="2.079355">
        <ele>244.10</ele>
        <time>1970-01-01T00:21:23Z</time>
      </trkpt>
      <trkpt lat="41.565853" lon="2.079320">
        <ele>244.20</ele>
        <time>1970-01-01T00:21:24Z</time>
      </trkpt>
      <trkpt lat="41.565901" lon="2.079240">
        <ele>244.40</ele>
        <time>1970-01-01T00:21:26Z</time>
      </trkpt>
      <trkpt lat="41.565932" lon="2.079193">
        <ele>244.60</ele>
        <time>1970-01-01T00:21:27Z</time>
      </trkpt>
      <trkpt lat="41.565954" lon="2.079157">
        <ele>244.70</ele>
        <time>1970-01-01T00:21:28Z</time>
      </trkpt>
      <trkpt lat="41.565977" lon="2.079123">
        <ele>244.70</ele>
        <time>1970-01-01T00:21:29Z</time>
      </trkpt>
      <trkpt lat="41.566014" lon="2.079067">
        <ele>244.90</ele>
        <time>1970-01-01T00:21:31Z</time>
      </trkpt>
      <trkpt lat="41.566041" lon="2.079030">
        <ele>245.00</ele>
        <time>1970-01-01T00:21:32Z</time>
      </trkpt>
      <trkpt lat="41.566075" lon="2.078985">
        <ele>245.10</ele>
        <time>1970-01-01T00:21:34Z</time>
      </trkpt>
      <trkpt lat="41.566103" lon="2.078947">
        <ele>245.20</ele>
        <time>1970-01-01T00:21:35Z</time>
      </trkpt>
      <trkpt lat="41.566134" lon="2.078907">
        <ele>245.30</ele>
        <time>1970-01-01T00:21:36Z</time>
      </trkpt>
      <trkpt lat="41.566175" lon="2.078864">
        <ele>245.40</ele>
        <time>1970-01-01T00:21:37Z</time>
      </trkpt>
      <trkpt lat="41.566206" lon="2.078833">
        <ele>245.50</ele>
        <time>1970-01-01T00:21:39Z</time>
      </trkpt>
      <trkpt lat="41.566234" lon="2.078802">
        <ele>245.60</ele>
        <time>1970-01-01T00:21:40Z</time>
      </trkpt>
      <trkpt lat="41.566275" lon="2.078748">
        <ele>245.70</ele>
        <time>1970-01-01T00:21:42Z</time>
      </trkpt>
      <trkpt lat="41.566310" lon="2.078697">
        <ele>245.80</ele>
        <time>1970-01-01T00:21:43Z</time>
      </trkpt>
      <trkpt lat="41.566348" lon="2.078640">
        <ele>246.00</ele>
        <time>1970-01-01T00:21:45Z</time>
      </trkpt>
      <trkpt lat="41.566375" lon="2.078600">
        <ele>246.10</ele>
        <time>1970-01-01T00:21:46Z</time>
      </trkpt>
      <trkpt lat="41.566399" lon="2.078565">
        <ele>246.10</ele>
        <time>1970-01-01T00:21:47Z</time>
      </trkpt>
      <trkpt lat="41.566421" lon="2.078532">
        <ele>246.20</ele>
        <time>1970-01-01T00:21:48Z</time>
      </trkpt>
      <trkpt lat="41.566463" lon="2.078484">
        <ele>246.30</ele>
        <time>1970-01-01T00:21:50Z</time>
      </trkpt>
      <trkpt lat="41.566494" lon="2.078447">
        <ele>246.40</ele>
        <time>1970-01-01T00:21:51Z</time>
      </trkpt>
      <trkpt lat="41.566527" lon="2.078394">
        <ele>246.50</ele>
        <time>1970-01-01T00:21:52Z</time>
      </trkpt>
      <trkpt lat="41.566546" lon="2.078358">
        <ele>246.60</ele>
        <time>1970-01-01T00:21:54Z</time>
      </trkpt>
      <trkpt lat="41.566563" lon="2.078323">
        <ele>246.70</ele>
        <time>1970-01-01T00:21:55Z</time>
      </trkpt>
      <trkpt lat="41.566589" lon="2.078285">
        <ele>246.90</ele>
        <time>1970-01-01T00:21:56Z</time>
      </trkpt>
      <trkpt lat="41.566617" lon="2.078235">
        <ele>247.00</ele>
        <time>1970-01-01T00:21:58Z</time>
      </trkpt>
      <trkpt lat="41.566631" lon="2.078196">
        <ele>247.10</ele>
        <time>1970-01-01T00:21:59Z</time>
      </trkpt>
      <trkpt lat="41.566649" lon="2.078132">
        <ele>247.30</ele>
        <time>1970-01-01T00:22:00Z</time>
      </trkpt>
      <trkpt lat="41.566666" lon="2.078084">
        <ele>247.50</ele>
        <time>1970-01-01T00:22:02Z</time>
      </trkpt>
      <trkpt lat="41.566693" lon="2.078038">
        <ele>247.70</ele>
        <time>1970-01-01T00:22:03Z</time>
      </trkpt>
      <trkpt lat="41.566708" lon="2.077998">
        <ele>247.80</ele>
        <time>1970-01-01T00:22:04Z</time>
      </trkpt>
      <trkpt lat="41.566733" lon="2.077928">
        <ele>248.00</ele>
        <time>1970-01-01T00:22:06Z</time>
      </trkpt>
      <trkpt lat="41.566756" lon="2.077862">
        <ele>248.20</ele>
        <time>1970-01-01T00:22:08Z</time>
      </trkpt>
      <trkpt lat="41.566762" lon="2.077822">
        <ele>248.30</ele>
        <time>1970-01-01T00:22:09Z</time>
      </trkpt>
      <trkpt lat="41.566764" lon="2.077784">
        <ele>248.40</ele>
        <time>1970-01-01T00:22:10Z</time>
      </trkpt>
      <trkpt lat="41.566786" lon="2.077727">
        <ele>248.50</ele>
        <time>1970-01-01T00:22:11Z</time>
      </trkpt>
      <trkpt lat="41.566799" lon="2.077701">
        <ele>248.60</ele>
        <time>1970-01-01T00:22:12Z</time>
      </trkpt>
      <trkpt lat="41.566813" lon="2.077645">
        <ele>248.70</ele>
        <time>1970-01-01T00:22:14Z</time>
      </trkpt>
      <trkpt lat="41.566816" lon="2.077555">
        <ele>249.00</ele>
        <time>1970-01-01T00:22:16Z</time>
      </trkpt>
      <trkpt lat="41.566799" lon="2.077480">
        <ele>249.20</ele>
        <time>1970-01-01T00:22:18Z</time>
      </trkpt>
      <trkpt lat="41.566787" lon="2.077433">
        <ele>249.30</ele>
        <time>1970-01-01T00:22:19Z</time>
      </trkpt>
      <trkpt lat="41.566760" lon="2.077373">
        <ele>249.50</ele>
        <time>1970-01-01T00:22:21Z</time>
      </trkpt>
      <trkpt lat="41.566727" lon="2.077319">
        <ele>249.70</ele>
        <time>1970-01-01T00:22:22Z</time>
      </trkpt>
      <trkpt lat="41.566674" lon="2.077264">
        <ele>249.90</ele>
        <time>1970-01-01T00:22:24Z</time>
      </trkpt>
      <trkpt lat="41.566623" lon="2.077245">
        <ele>250.10</ele>
        <time>1970-01-01T00:22:26Z</time>
      </trkpt>
      <trkpt lat="41.566585" lon="2.077218">
        <ele>250.20</ele>
        <time>1970-01-01T00:22:27Z</time>
      </trkpt>
      <trkpt lat="41.566557" lon="2.077196">
        <ele>250.40</ele>
        <time>1970-01-01T00:22:28Z</time>
      </trkpt>
      <trkpt lat="41.566503" lon="2.077168">
        <ele>250.60</ele>
        <time>1970-01-01T00:22:30Z</time>
      </trkpt>
      <trkpt lat="41.566459" lon="2.077144">
        <ele>250.80</ele>
        <time>1970-01-01T00:22:31Z</time>
      </trkpt>
      <trkpt lat="41.566396" lon="2.077108">
        <ele>251.10</ele>
        <time>1970-01-01T00:22:33Z</time>
      </trkpt>
      <trkpt lat="41.566363" lon="2.077089">
        <ele>251.30</ele>
        <time>1970-01-01T00:22:34Z</time>
      </trkpt>
      <trkpt lat="41.566320" lon="2.077057">
        <ele>251.50</ele>
        <time>1970-01-01T00:22:35Z</time>
      </trkpt>
      <trkpt lat="41.566287" lon="2.077012">
        <ele>251.80</ele>
        <time>1970-01-01T00:22:36Z</time>
      </trkpt>
      <trkpt lat="41.566272" lon="2.076958">
        <ele>251.80</ele>
        <time>1970-01-01T00:22:38Z</time>
      </trkpt>
      <trkpt lat="41.566266" lon="2.076906">
        <ele>251.80</ele>
        <time>1970-01-01T00:22:39Z</time>
      </trkpt>
      <trkpt lat="41.566262" lon="2.076802">
        <ele>251.90</ele>
        <time>1970-01-01T00:22:41Z</time>
      </trkpt>
      <trkpt lat="41.566257" lon="2.076747">
        <ele>251.90</ele>
        <time>1970-01-01T00:22:42Z</time>
      </trkpt>
      <trkpt lat="41.566249" lon="2.076682">
        <ele>251.90</ele>
        <time>1970-01-01T00:22:43Z</time>
      </trkpt>
      <trkpt lat="41.566242" lon="2.076583">
        <ele>251.80</ele>
        <time>1970-01-01T00:22:45Z</time>
      </trkpt>
      <trkpt lat="41.566235" lon="2.076524">
        <ele>251.80</ele>
        <time>1970-01-01T00:22:46Z</time>
      </trkpt>
      <trkpt lat="41.566227" lon="2.076398">
        <ele>251.70</ele>
        <time>1970-01-01T00:22:48Z</time>
      </trkpt>
      <trkpt lat="41.566230" lon="2.076330">
        <ele>251.70</ele>
        <time>1970-01-01T00:22:49Z</time>
      </trkpt>
      <trkpt lat="41.566256" lon="2.076186">
        <ele>251.60</ele>
        <time>1970-01-01T00:22:51Z</time>
      </trkpt>
      <trkpt lat="41.566310" lon="2.076060">
        <ele>251.60</ele>
        <time>1970-01-01T00:22:53Z</time>
      </trkpt>
      <trkpt lat="41.566342" lon="2.076007">
        <ele>251.70</ele>
        <time>1970-01-01T00:22:54Z</time>
      </trkpt>
      <trkpt lat="41.566376" lon="2.075959">
        <ele>251.70</ele>
        <time>1970-01-01T00:22:55Z</time>
      </trkpt>
      <trkpt lat="41.566436" lon="2.075854">
        <ele>251.80</ele>
        <time>1970-01-01T00:22:57Z</time>
      </trkpt>
      <trkpt lat="41.566485" lon="2.075746">
        <ele>251.80</ele>
        <time>1970-01-01T00:22:59Z</time>
      </trkpt>
      <trkpt lat="41.566505" lon="2.075688">
        <ele>251.90</ele>
        <time>1970-01-01T00:23:00Z</time>
      </trkpt>
      <trkpt lat="41.566540" lon="2.075575">
        <ele>252.00</ele>
        <time>1970-01-01T00:23:02Z</time>
      </trkpt>
      <trkpt lat="41.566569" lon="2.075457">
        <ele>252.10</ele>
        <time>1970-01-01T00:23:04Z</time>
      </trkpt>
      <trkpt lat="41.566591" lon="2.075338">
        <ele>252.20</ele>
        <time>1970-01-01T00:23:06Z</time>
      </trkpt>
      <trkpt lat="41.566606" lon="2.075218">
        <ele>252.40</ele>
        <time>1970-01-01T00:23:08Z</time>
      </trkpt>
      <trkpt lat="41.566619" lon="2.075098">
        <ele>252.60</ele>
        <time>1970-01-01T00:23:10Z</time>
      </trkpt>
      <trkpt lat="41.566624" lon="2.075036">
        <ele>252.70</ele>
        <time>1970-01-01T00:23:11Z</time>
      </trkpt>
      <trkpt lat="41.566634" lon="2.074914">
        <ele>252.80</ele>
        <time>1970-01-01T00:23:13Z</time>
      </trkpt>
      <trkpt lat="41.566641" lon="2.074791">
        <ele>253.00</ele>
        <time>1970-01-01T00:23:15Z</time>
      </trkpt>
      <trkpt lat="41.566645" lon="2.074731">
        <ele>253.10</ele>
        <time>1970-01-01T00:23:16Z</time>
      </trkpt>
      <trkpt lat="41.566654" lon="2.074610">
        <ele>253.30</ele>
        <time>1970-01-01T00:23:18Z</time>
      </trkpt>
      <trkpt lat="41.566659" lon="2.074549">
        <ele>253.50</ele>
        <time>1970-01-01T00:23:19Z</time>
      </trkpt>
      <trkpt lat="41.566666" lon="2.074485">
        <ele>253.60</ele>
        <time>1970-01-01T00:23:20Z</time>
      </trkpt>
      <trkpt lat="41.566676" lon="2.074358">
        <ele>253.80</ele>
        <time>1970-01-01T00:23:22Z</time>
      </trkpt>
      <trkpt lat="41.566685" lon="2.074293">
        <ele>254.00</ele>
        <time>1970-01-01T00:23:23Z</time>
      </trkpt>
      <trkpt lat="41.566696" lon="2.074232">
        <ele>254.10</ele>
        <time>1970-01-01T00:23:24Z</time>
      </trkpt>
      <trkpt lat="41.566706" lon="2.074171">
        <ele>254.30</ele>
        <time>1970-01-01T00:23:25Z</time>
      </trkpt>
      <trkpt lat="41.566726" lon="2.074050">
        <ele>254.60</ele>
        <time>1970-01-01T00:23:27Z</time>
      </trkpt>
      <trkpt lat="41.566750" lon="2.073921">
        <ele>254.90</ele>
        <time>1970-01-01T00:23:29Z</time>
      </trkpt>
      <trkpt lat="41.566779" lon="2.073802">
        <ele>255.30</ele>
        <time>1970-01-01T00:23:31Z</time>
      </trkpt>
      <trkpt lat="41.566814" lon="2.073685">
        <ele>255.70</ele>
        <time>1970-01-01T00:23:33Z</time>
      </trkpt>
      <trkpt lat="41.566840" lon="2.073567">
        <ele>256.10</ele>
        <time>1970-01-01T00:23:35Z</time>
      </trkpt>
      <trkpt lat="41.566849" lon="2.073532">
        <ele>256.20</ele>
        <time>1970-01-01T00:23:36Z</time>
      </trkpt>
      <trkpt lat="41.566866" lon="2.073471">
        <ele>256.40</ele>
        <time>1970-01-01T00:23:37Z</time>
      </trkpt>
      <trkpt lat="41.566899" lon="2.073351">
        <ele>256.70</ele>
        <time>1970-01-01T00:23:39Z</time>
      </trkpt>
      <trkpt lat="41.566928" lon="2.073252">
        <ele>257.10</ele>
        <time>1970-01-01T00:23:41Z</time>
      </trkpt>
      <trkpt lat="41.566967" lon="2.073165">
        <ele>257.40</ele>
        <time>1970-01-01T00:23:43Z</time>
      </trkpt>
      <trkpt lat="41.566985" lon="2.073094">
        <ele>257.60</ele>
        <time>1970-01-01T00:23:44Z</time>
      </trkpt>
      <trkpt lat="41.566996" lon="2.073032">
        <ele>257.80</ele>
        <time>1970-01-01T00:23:45Z</time>
      </trkpt>
      <trkpt lat="41.567021" lon="2.072936">
        <ele>258.20</ele>
        <time>1970-01-01T00:23:47Z</time>
      </trkpt>
      <trkpt lat="41.567039" lon="2.072871">
        <ele>258.40</ele>
        <time>1970-01-01T00:23:48Z</time>
      </trkpt>
      <trkpt lat="41.567053" lon="2.072813">
        <ele>258.70</ele>
        <time>1970-01-01T00:23:49Z</time>
      </trkpt>
      <trkpt lat="41.567065" lon="2.072759">
        <ele>258.90</ele>
        <time>1970-01-01T00:23:50Z</time>
      </trkpt>
      <trkpt lat="41.567078" lon="2.072705">
        <ele>259.10</ele>
        <time>1970-01-01T00:23:51Z</time>
      </trkpt>
      <trkpt lat="41.567102" lon="2.072609">
        <ele>259.50</ele>
        <time>1970-01-01T00:23:53Z</time>
      </trkpt>
      <trkpt lat="41.567128" lon="2.072525">
        <ele>259.90</ele>
        <time>1970-01-01T00:23:55Z</time>
      </trkpt>
      <trkpt lat="41.567145" lon="2.072477">
        <ele>260.10</ele>
        <time>1970-01-01T00:23:56Z</time>
      </trkpt>
      <trkpt lat="41.567167" lon="2.072411">
        <ele>260.50</ele>
        <time>1970-01-01T00:23:57Z</time>
      </trkpt>
      <trkpt lat="41.567185" lon="2.072363">
        <ele>260.70</ele>
        <time>1970-01-01T00:23:58Z</time>
      </trkpt>
      <trkpt lat="41.567209" lon="2.072297">
        <ele>261.00</ele>
        <time>1970-01-01T00:23:59Z</time>
      </trkpt>
      <trkpt lat="41.567236" lon="2.072221">
        <ele>261.40</ele>
        <time>1970-01-01T00:24:01Z</time>
      </trkpt>
      <trkpt lat="41.567268" lon="2.072150">
        <ele>261.70</ele>
        <time>1970-01-01T00:24:02Z</time>
      </trkpt>
      <trkpt lat="41.567300" lon="2.072087">
        <ele>261.90</ele>
        <time>1970-01-01T00:24:04Z</time>
      </trkpt>
      <trkpt lat="41.567319" lon="2.072044">
        <ele>262.00</ele>
        <time>1970-01-01T00:24:05Z</time>
      </trkpt>
      <trkpt lat="41.567339" lon="2.072000">
        <ele>262.20</ele>
        <time>1970-01-01T00:24:06Z</time>
      </trkpt>
      <trkpt lat="41.567365" lon="2.071941">
        <ele>262.30</ele>
        <time>1970-01-01T00:24:07Z</time>
      </trkpt>
      <trkpt lat="41.567393" lon="2.071885">
        <ele>262.50</ele>
        <time>1970-01-01T00:24:09Z</time>
      </trkpt>
      <trkpt lat="41.567427" lon="2.071825">
        <ele>262.60</ele>
        <time>1970-01-01T00:24:10Z</time>
      </trkpt>
      <trkpt lat="41.567456" lon="2.071762">
        <ele>262.80</ele>
        <time>1970-01-01T00:24:11Z</time>
      </trkpt>
      <trkpt lat="41.567489" lon="2.071693">
        <ele>263.00</ele>
        <time>1970-01-01T00:24:13Z</time>
      </trkpt>
      <trkpt lat="41.567522" lon="2.071620">
        <ele>263.20</ele>
        <time>1970-01-01T00:24:15Z</time>
      </trkpt>
      <trkpt lat="41.567545" lon="2.071572">
        <ele>263.30</ele>
        <time>1970-01-01T00:24:16Z</time>
      </trkpt>
      <trkpt lat="41.567574" lon="2.071514">
        <ele>263.50</ele>
        <time>1970-01-01T00:24:17Z</time>
      </trkpt>
      <trkpt lat="41.567605" lon="2.071445">
        <ele>263.60</ele>
        <time>1970-01-01T00:24:18Z</time>
      </trkpt>
      <trkpt lat="41.567631" lon="2.071385">
        <ele>263.80</ele>
        <time>1970-01-01T00:24:20Z</time>
      </trkpt>
      <trkpt lat="41.567651" lon="2.071325">
        <ele>263.90</ele>
        <time>1970-01-01T00:24:21Z</time>
      </trkpt>
      <trkpt lat="41.567667" lon="2.071266">
        <ele>263.90</ele>
        <time>1970-01-01T00:24:22Z</time>
      </trkpt>
      <trkpt lat="41.567681" lon="2.071212">
        <ele>264.00</ele>
        <time>1970-01-01T00:24:23Z</time>
      </trkpt>
      <trkpt lat="41.567707" lon="2.071117">
        <ele>264.20</ele>
        <time>1970-01-01T00:24:25Z</time>
      </trkpt>
      <trkpt lat="41.567720" lon="2.071054">
        <ele>264.30</ele>
        <time>1970-01-01T00:24:26Z</time>
      </trkpt>
      <trkpt lat="41.567742" lon="2.070968">
        <ele>264.40</ele>
        <time>1970-01-01T00:24:27Z</time>
      </trkpt>
      <trkpt lat="41.567757" lon="2.070913">
        <ele>264.50</ele>
        <time>1970-01-01T00:24:29Z</time>
      </trkpt>
      <trkpt lat="41.567775" lon="2.070846">
        <ele>264.60</ele>
        <time>1970-01-01T00:24:30Z</time>
      </trkpt>
      <trkpt lat="41.567800" lon="2.070759">
        <ele>264.70</ele>
        <time>1970-01-01T00:24:32Z</time>
      </trkpt>
      <trkpt lat="41.567815" lon="2.070702">
        <ele>264.80</ele>
        <time>1970-01-01T00:24:33Z</time>
      </trkpt>
      <trkpt lat="41.567834" lon="2.070637">
        <ele>264.90</ele>
        <time>1970-01-01T00:24:34Z</time>
      </trkpt>
      <trkpt lat="41.567848" lon="2.070580">
        <ele>265.00</ele>
        <time>1970-01-01T00:24:35Z</time>
      </trkpt>
      <trkpt lat="41.567867" lon="2.070485">
        <ele>265.10</ele>
        <time>1970-01-01T00:24:37Z</time>
      </trkpt>
      <trkpt lat="41.567883" lon="2.070404">
        <ele>265.20</ele>
        <time>1970-01-01T00:24:38Z</time>
      </trkpt>
      <trkpt lat="41.567896" lon="2.070346">
        <ele>265.30</ele>
        <time>1970-01-01T00:24:39Z</time>
      </trkpt>
      <trkpt lat="41.567906" lon="2.070282">
        <ele>265.40</ele>
        <time>1970-01-01T00:24:40Z</time>
      </trkpt>
      <trkpt lat="41.567915" lon="2.070219">
        <ele>265.50</ele>
        <time>1970-01-01T00:24:41Z</time>
      </trkpt>
      <trkpt lat="41.567925" lon="2.070137">
        <ele>265.70</ele>
        <time>1970-01-01T00:24:43Z</time>
      </trkpt>
      <trkpt lat="41.567936" lon="2.070068">
        <ele>265.80</ele>
        <time>1970-01-01T00:24:44Z</time>
      </trkpt>
      <trkpt lat="41.567944" lon="2.070005">
        <ele>265.80</ele>
        <time>1970-01-01T00:24:45Z</time>
      </trkpt>
      <trkpt lat="41.567952" lon="2.069921">
        <ele>266.00</ele>
        <time>1970-01-01T00:24:46Z</time>
      </trkpt>
      <trkpt lat="41.567965" lon="2.069844">
        <ele>266.10</ele>
        <time>1970-01-01T00:24:48Z</time>
      </trkpt>
      <trkpt lat="41.567975" lon="2.069787">
        <ele>266.20</ele>
        <time>1970-01-01T00:24:49Z</time>
      </trkpt>
      <trkpt lat="41.567986" lon="2.069729">
        <ele>266.20</ele>
        <time>1970-01-01T00:24:50Z</time>
      </trkpt>
      <trkpt lat="41.567995" lon="2.069669">
        <ele>266.30</ele>
        <time>1970-01-01T00:24:51Z</time>
      </trkpt>
      <trkpt lat="41.568006" lon="2.069600">
        <ele>266.40</ele>
        <time>1970-01-01T00:24:52Z</time>
      </trkpt>
      <trkpt lat="41.568023" lon="2.069524">
        <ele>266.50</ele>
        <time>1970-01-01T00:24:54Z</time>
      </trkpt>
      <trkpt lat="41.568036" lon="2.069465">
        <ele>266.70</ele>
        <time>1970-01-01T00:24:55Z</time>
      </trkpt>
      <trkpt lat="41.568049" lon="2.069393">
        <ele>266.80</ele>
        <time>1970-01-01T00:24:56Z</time>
      </trkpt>
      <trkpt lat="41.568063" lon="2.069333">
        <ele>266.90</ele>
        <time>1970-01-01T00:24:57Z</time>
      </trkpt>
      <trkpt lat="41.568083" lon="2.069248">
        <ele>267.00</ele>
        <time>1970-01-01T00:24:59Z</time>
      </trkpt>
      <trkpt lat="41.568097" lon="2.069194">
        <ele>267.10</ele>
        <time>1970-01-01T00:25:00Z</time>
      </trkpt>
      <trkpt lat="41.568122" lon="2.069124">
        <ele>267.30</ele>
        <time>1970-01-01T00:25:01Z</time>
      </trkpt>
      <trkpt lat="41.568141" lon="2.069062">
        <ele>267.40</ele>
        <time>1970-01-01T00:25:02Z</time>
      </trkpt>
      <trkpt lat="41.568159" lon="2.068993">
        <ele>267.50</ele>
        <time>1970-01-01T00:25:04Z</time>
      </trkpt>
      <trkpt lat="41.568185" lon="2.068908">
        <ele>267.60</ele>
        <time>1970-01-01T00:25:05Z</time>
      </trkpt>
      <trkpt lat="41.568202" lon="2.068854">
        <ele>267.70</ele>
        <time>1970-01-01T00:25:06Z</time>
      </trkpt>
      <trkpt lat="41.568223" lon="2.068794">
        <ele>267.90</ele>
        <time>1970-01-01T00:25:07Z</time>
      </trkpt>
      <trkpt lat="41.568250" lon="2.068735">
        <ele>268.00</ele>
        <time>1970-01-01T00:25:09Z</time>
      </trkpt>
      <trkpt lat="41.568269" lon="2.068682">
        <ele>268.20</ele>
        <time>1970-01-01T00:25:10Z</time>
      </trkpt>
      <trkpt lat="41.568293" lon="2.068625">
        <ele>268.30</ele>
        <time>1970-01-01T00:25:11Z</time>
      </trkpt>
      <trkpt lat="41.568316" lon="2.068578">
        <ele>268.50</ele>
        <time>1970-01-01T00:25:12Z</time>
      </trkpt>
      <trkpt lat="41.568361" lon="2.068490">
        <ele>268.80</ele>
        <time>1970-01-01T00:25:14Z</time>
      </trkpt>
      <trkpt lat="41.568386" lon="2.068436">
        <ele>269.00</ele>
        <time>1970-01-01T00:25:15Z</time>
      </trkpt>
      <trkpt lat="41.568421" lon="2.068358">
        <ele>269.20</ele>
        <time>1970-01-01T00:25:16Z</time>
      </trkpt>
      <trkpt lat="41.568458" lon="2.068285">
        <ele>269.40</ele>
        <time>1970-01-01T00:25:18Z</time>
      </trkpt>
      <trkpt lat="41.568483" lon="2.068232">
        <ele>269.60</ele>
        <time>1970-01-01T00:25:19Z</time>
      </trkpt>
      <trkpt lat="41.568496" lon="2.068183">
        <ele>269.70</ele>
        <time>1970-01-01T00:25:20Z</time>
      </trkpt>
      <trkpt lat="41.568499" lon="2.068134">
        <ele>269.90</ele>
        <time>1970-01-01T00:25:21Z</time>
      </trkpt>
      <trkpt lat="41.568535" lon="2.068141">
        <ele>270.00</ele>
        <time>1970-01-01T00:25:23Z</time>
      </trkpt>
      <trkpt lat="41.568579" lon="2.068054">
        <ele>270.30</ele>
        <time>1970-01-01T00:25:24Z</time>
      </trkpt>
      <trkpt lat="41.568633" lon="2.067946">
        <ele>270.60</ele>
        <time>1970-01-01T00:25:26Z</time>
      </trkpt>
      <trkpt lat="41.568669" lon="2.067858">
        <ele>270.90</ele>
        <time>1970-01-01T00:25:27Z</time>
      </trkpt>
      <trkpt lat="41.568692" lon="2.067801">
        <ele>271.00</ele>
        <time>1970-01-01T00:25:28Z</time>
      </trkpt>
      <trkpt lat="41.568727" lon="2.067721">
        <ele>271.20</ele>
        <time>1970-01-01T00:25:30Z</time>
      </trkpt>
      <trkpt lat="41.568764" lon="2.067633">
        <ele>271.40</ele>
        <time>1970-01-01T00:25:31Z</time>
      </trkpt>
      <trkpt lat="41.568791" lon="2.067572">
        <ele>271.50</ele>
        <time>1970-01-01T00:25:32Z</time>
      </trkpt>
      <trkpt lat="41.568815" lon="2.067519">
        <ele>271.60</ele>
        <time>1970-01-01T00:25:33Z</time>
      </trkpt>
      <trkpt lat="41.568838" lon="2.067457">
        <ele>271.80</ele>
        <time>1970-01-01T00:25:34Z</time>
      </trkpt>
      <trkpt lat="41.568852" lon="2.067424">
        <ele>271.90</ele>
        <time>1970-01-01T00:25:35Z</time>
      </trkpt>
      <trkpt lat="41.568893" lon="2.067325">
        <ele>272.20</ele>
        <time>1970-01-01T00:25:37Z</time>
      </trkpt>
      <trkpt lat="41.568931" lon="2.067249">
        <ele>272.40</ele>
        <time>1970-01-01T00:25:38Z</time>
      </trkpt>
      <trkpt lat="41.568948" lon="2.067193">
        <ele>272.60</ele>
        <time>1970-01-01T00:25:39Z</time>
      </trkpt>
      <trkpt lat="41.568971" lon="2.067105">
        <ele>272.80</ele>
        <time>1970-01-01T00:25:41Z</time>
      </trkpt>
      <trkpt lat="41.568985" lon="2.067051">
        <ele>272.90</ele>
        <time>1970-01-01T00:25:42Z</time>
      </trkpt>
      <trkpt lat="41.569002" lon="2.066996">
        <ele>273.00</ele>
        <time>1970-01-01T00:25:43Z</time>
      </trkpt>
      <trkpt lat="41.569014" lon="2.066934">
        <ele>273.20</ele>
        <time>1970-01-01T00:25:44Z</time>
      </trkpt>
      <trkpt lat="41.569028" lon="2.066875">
        <ele>273.30</ele>
        <time>1970-01-01T00:25:45Z</time>
      </trkpt>
      <trkpt lat="41.569062" lon="2.066776">
        <ele>273.50</ele>
        <time>1970-01-01T00:25:47Z</time>
      </trkpt>
      <trkpt lat="41.569087" lon="2.066728">
        <ele>273.70</ele>
        <time>1970-01-01T00:25:48Z</time>
      </trkpt>
      <trkpt lat="41.569102" lon="2.066645">
        <ele>273.90</ele>
        <time>1970-01-01T00:25:49Z</time>
      </trkpt>
      <trkpt lat="41.569112" lon="2.066571">
        <ele>274.00</ele>
        <time>1970-01-01T00:25:50Z</time>
      </trkpt>
      <trkpt lat="41.569116" lon="2.066512">
        <ele>274.10</ele>
        <time>1970-01-01T00:25:52Z</time>
      </trkpt>
      <trkpt lat="41.569127" lon="2.066447">
        <ele>274.30</ele>
        <time>1970-01-01T00:25:53Z</time>
      </trkpt>
      <trkpt lat="41.569139" lon="2.066347">
        <ele>274.50</ele>
        <time>1970-01-01T00:25:55Z</time>
      </trkpt>
      <trkpt lat="41.569154" lon="2.066267">
        <ele>274.70</ele>
        <time>1970-01-01T00:25:56Z</time>
      </trkpt>
      <trkpt lat="41.569180" lon="2.066174">
        <ele>275.00</ele>
        <time>1970-01-01T00:25:58Z</time>
      </trkpt>
      <trkpt lat="41.569195" lon="2.066108">
        <ele>275.10</ele>
        <time>1970-01-01T00:25:59Z</time>
      </trkpt>
      <trkpt lat="41.569200" lon="2.066051">
        <ele>275.30</ele>
        <time>1970-01-01T00:26:00Z</time>
      </trkpt>
      <trkpt lat="41.569200" lon="2.065959">
        <ele>275.50</ele>
        <time>1970-01-01T00:26:02Z</time>
      </trkpt>
      <trkpt lat="41.569212" lon="2.065897">
        <ele>275.60</ele>
        <time>1970-01-01T00:26:03Z</time>
      </trkpt>
      <trkpt lat="41.569228" lon="2.065834">
        <ele>275.80</ele>
        <time>1970-01-01T00:26:04Z</time>
      </trkpt>
      <trkpt lat="41.569237" lon="2.065759">
        <ele>276.00</ele>
        <time>1970-01-01T00:26:05Z</time>
      </trkpt>
      <trkpt lat="41.569239" lon="2.065701">
        <ele>276.10</ele>
        <time>1970-01-01T00:26:06Z</time>
      </trkpt>
      <trkpt lat="41.569238" lon="2.065627">
        <ele>276.30</ele>
        <time>1970-01-01T00:26:08Z</time>
      </trkpt>
      <trkpt lat="41.569238" lon="2.065569">
        <ele>276.50</ele>
        <time>1970-01-01T00:26:09Z</time>
      </trkpt>
      <trkpt lat="41.569244" lon="2.065477">
        <ele>276.70</ele>
        <time>1970-01-01T00:26:11Z</time>
      </trkpt>
      <trkpt lat="41.569245" lon="2.065404">
        <ele>276.90</ele>
        <time>1970-01-01T00:26:12Z</time>
      </trkpt>
      <trkpt lat="41.569248" lon="2.065343">
        <ele>277.10</ele>
        <time>1970-01-01T00:26:13Z</time>
      </trkpt>
      <trkpt lat="41.569253" lon="2.065250">
        <ele>277.30</ele>
        <time>1970-01-01T00:26:15Z</time>
      </trkpt>
      <trkpt lat="41.569257" lon="2.065170">
        <ele>277.60</ele>
        <time>1970-01-01T00:26:16Z</time>
      </trkpt>
      <trkpt lat="41.569258" lon="2.065103">
        <ele>277.80</ele>
        <time>1970-01-01T00:26:18Z</time>
      </trkpt>
      <trkpt lat="41.569263" lon="2.065038">
        <ele>278.00</ele>
        <time>1970-01-01T00:26:19Z</time>
      </trkpt>
      <trkpt lat="41.569267" lon="2.064985">
        <ele>278.20</ele>
        <time>1970-01-01T00:26:20Z</time>
      </trkpt>
      <trkpt lat="41.569271" lon="2.064931">
        <ele>278.30</ele>
        <time>1970-01-01T00:26:21Z</time>
      </trkpt>
      <trkpt lat="41.569275" lon="2.064843">
        <ele>278.60</ele>
        <time>1970-01-01T00:26:23Z</time>
      </trkpt>
      <trkpt lat="41.569277" lon="2.064782">
        <ele>278.90</ele>
        <time>1970-01-01T00:26:24Z</time>
      </trkpt>
      <trkpt lat="41.569287" lon="2.064695">
        <ele>279.20</ele>
        <time>1970-01-01T00:26:26Z</time>
      </trkpt>
      <trkpt lat="41.569291" lon="2.064634">
        <ele>279.50</ele>
        <time>1970-01-01T00:26:27Z</time>
      </trkpt>
      <trkpt lat="41.569293" lon="2.064570">
        <ele>279.80</ele>
        <time>1970-01-01T00:26:28Z</time>
      </trkpt>
      <trkpt lat="41.569292" lon="2.064508">
        <ele>280.10</ele>
        <time>1970-01-01T00:26:29Z</time>
      </trkpt>
      <trkpt lat="41.569296" lon="2.064443">
        <ele>280.50</ele>
        <time>1970-01-01T00:26:31Z</time>
      </trkpt>
      <trkpt lat="41.569304" lon="2.064390">
        <ele>280.80</ele>
        <time>1970-01-01T00:26:32Z</time>
      </trkpt>
      <trkpt lat="41.569308" lon="2.064350">
        <ele>281.00</ele>
        <time>1970-01-01T00:26:33Z</time>
      </trkpt>
      <trkpt lat="41.569311" lon="2.064307">
        <ele>281.20</ele>
        <time>1970-01-01T00:26:34Z</time>
      </trkpt>
      <trkpt lat="41.569316" lon="2.064239">
        <ele>281.60</ele>
        <time>1970-01-01T00:26:36Z</time>
      </trkpt>
      <trkpt lat="41.569319" lon="2.064183">
        <ele>281.90</ele>
        <time>1970-01-01T00:26:37Z</time>
      </trkpt>
      <trkpt lat="41.569322" lon="2.064123">
        <ele>282.20</ele>
        <time>1970-01-01T00:26:38Z</time>
      </trkpt>
      <trkpt lat="41.569326" lon="2.064078">
        <ele>282.50</ele>
        <time>1970-01-01T00:26:40Z</time>
      </trkpt>
      <trkpt lat="41.569328" lon="2.064023">
        <ele>282.80</ele>
        <time>1970-01-01T00:26:41Z</time>
      </trkpt>
      <trkpt lat="41.569331" lon="2.063985">
        <ele>283.00</ele>
        <time>1970-01-01T00:26:42Z</time>
      </trkpt>
      <trkpt lat="41.569335" lon="2.063944">
        <ele>283.20</ele>
        <time>1970-01-01T00:26:43Z</time>
      </trkpt>
      <trkpt lat="41.569338" lon="2.063892">
        <ele>283.50</ele>
        <time>1970-01-01T00:26:44Z</time>
      </trkpt>
      <trkpt lat="41.569345" lon="2.063821">
        <ele>283.80</ele>
        <time>1970-01-01T00:26:46Z</time>
      </trkpt>
      <trkpt lat="41.569354" lon="2.063752">
        <ele>284.20</ele>
        <time>1970-01-01T00:26:48Z</time>
      </trkpt>
      <trkpt lat="41.569363" lon="2.063707">
        <ele>284.40</ele>
        <time>1970-01-01T00:26:49Z</time>
      </trkpt>
      <trkpt lat="41.569373" lon="2.063661">
        <ele>284.60</ele>
        <time>1970-01-01T00:26:50Z</time>
      </trkpt>
      <trkpt lat="41.569384" lon="2.063614">
        <ele>284.80</ele>
        <time>1970-01-01T00:26:51Z</time>
      </trkpt>
      <trkpt lat="41.569393" lon="2.063570">
        <ele>285.00</ele>
        <time>1970-01-01T00:26:52Z</time>
      </trkpt>
      <trkpt lat="41.569405" lon="2.063514">
        <ele>285.20</ele>
        <time>1970-01-01T00:26:53Z</time>
      </trkpt>
      <trkpt lat="41.569419" lon="2.063455">
        <ele>285.50</ele>
        <time>1970-01-01T00:26:55Z</time>
      </trkpt>
      <trkpt lat="41.569428" lon="2.063409">
        <ele>285.70</ele>
        <time>1970-01-01T00:26:56Z</time>
      </trkpt>
      <trkpt lat="41.569435" lon="2.063361">
        <ele>285.90</ele>
        <time>1970-01-01T00:26:57Z</time>
      </trkpt>
      <trkpt lat="41.569443" lon="2.063319">
        <ele>286.10</ele>
        <time>1970-01-01T00:26:58Z</time>
      </trkpt>
      <trkpt lat="41.569453" lon="2.063276">
        <ele>286.30</ele>
        <time>1970-01-01T00:26:59Z</time>
      </trkpt>
      <trkpt lat="41.569462" lon="2.063237">
        <ele>286.50</ele>
        <time>1970-01-01T00:27:00Z</time>
      </trkpt>
      <trkpt lat="41.569481" lon="2.063156">
        <ele>286.90</ele>
        <time>1970-01-01T00:27:02Z</time>
      </trkpt>
      <trkpt lat="41.569490" lon="2.063114">
        <ele>287.10</ele>
        <time>1970-01-01T00:27:03Z</time>
      </trkpt>
      <trkpt lat="41.569501" lon="2.063063">
        <ele>287.30</ele>
        <time>1970-01-01T00:27:04Z</time>
      </trkpt>
      <trkpt lat="41.569510" lon="2.063011">
        <ele>287.50</ele>
        <time>1970-01-01T00:27:06Z</time>
      </trkpt>
      <trkpt lat="41.569522" lon="2.062950">
        <ele>287.80</ele>
        <time>1970-01-01T00:27:07Z</time>
      </trkpt>
      <trkpt lat="41.569532" lon="2.062897">
        <ele>288.00</ele>
        <time>1970-01-01T00:27:08Z</time>
      </trkpt>
      <trkpt lat="41.569548" lon="2.062835">
        <ele>288.20</ele>
        <time>1970-01-01T00:27:10Z</time>
      </trkpt>
      <trkpt lat="41.569560" lon="2.062785">
        <ele>288.40</ele>
        <time>1970-01-01T00:27:11Z</time>
      </trkpt>
      <trkpt lat="41.569576" lon="2.062702">
        <ele>288.70</ele>
        <time>1970-01-01T00:27:13Z</time>
      </trkpt>
      <trkpt lat="41.569594" lon="2.062645">
        <ele>288.90</ele>
        <time>1970-01-01T00:27:14Z</time>
      </trkpt>
      <trkpt lat="41.569620" lon="2.062575">
        <ele>289.20</ele>
        <time>1970-01-01T00:27:16Z</time>
      </trkpt>
      <trkpt lat="41.569640" lon="2.062511">
        <ele>289.40</ele>
        <time>1970-01-01T00:27:17Z</time>
      </trkpt>
      <trkpt lat="41.569658" lon="2.062459">
        <ele>289.60</ele>
        <time>1970-01-01T00:27:19Z</time>
      </trkpt>
      <trkpt lat="41.569671" lon="2.062415">
        <ele>289.70</ele>
        <time>1970-01-01T00:27:20Z</time>
      </trkpt>
      <trkpt lat="41.569681" lon="2.062374">
        <ele>289.80</ele>
        <time>1970-01-01T00:27:21Z</time>
      </trkpt>
      <trkpt lat="41.569700" lon="2.062305">
        <ele>290.00</ele>
        <time>1970-01-01T00:27:23Z</time>
      </trkpt>
      <trkpt lat="41.569723" lon="2.062245">
        <ele>290.10</ele>
        <time>1970-01-01T00:27:25Z</time>
      </trkpt>
      <trkpt lat="41.569742" lon="2.062196">
        <ele>290.10</ele>
        <time>1970-01-01T00:27:26Z</time>
      </trkpt>
      <trkpt lat="41.569767" lon="2.062131">
        <ele>290.20</ele>
        <time>1970-01-01T00:27:27Z</time>
      </trkpt>
      <trkpt lat="41.569787" lon="2.062083">
        <ele>290.10</ele>
        <time>1970-01-01T00:27:29Z</time>
      </trkpt>
      <trkpt lat="41.569819" lon="2.062027">
        <ele>290.10</ele>
        <time>1970-01-01T00:27:30Z</time>
      </trkpt>
      <trkpt lat="41.569867" lon="2.061940">
        <ele>290.10</ele>
        <time>1970-01-01T00:27:32Z</time>
      </trkpt>
      <trkpt lat="41.569909" lon="2.061884">
        <ele>290.10</ele>
        <time>1970-01-01T00:27:33Z</time>
      </trkpt>
      <trkpt lat="41.569972" lon="2.061776">
        <ele>290.10</ele>
        <time>1970-01-01T00:27:35Z</time>
      </trkpt>
      <trkpt lat="41.570040" lon="2.061671">
        <ele>290.20</ele>
        <time>1970-01-01T00:27:37Z</time>
      </trkpt>
      <trkpt lat="41.570070" lon="2.061619">
        <ele>290.20</ele>
        <time>1970-01-01T00:27:38Z</time>
      </trkpt>
      <trkpt lat="41.570097" lon="2.061559">
        <ele>290.30</ele>
        <time>1970-01-01T00:27:39Z</time>
      </trkpt>
      <trkpt lat="41.570156" lon="2.061459">
        <ele>290.40</ele>
        <time>1970-01-01T00:27:41Z</time>
      </trkpt>
      <trkpt lat="41.570210" lon="2.061380">
        <ele>290.50</ele>
        <time>1970-01-01T00:27:43Z</time>
      </trkpt>
      <trkpt lat="41.570234" lon="2.061349">
        <ele>290.50</ele>
        <time>1970-01-01T00:27:44Z</time>
      </trkpt>
      <trkpt lat="41.570306" lon="2.061274">
        <ele>290.50</ele>
        <time>1970-01-01T00:27:46Z</time>
      </trkpt>
      <trkpt lat="41.570393" lon="2.061190">
        <ele>290.60</ele>
        <time>1970-01-01T00:27:48Z</time>
      </trkpt>
      <trkpt lat="41.570444" lon="2.061163">
        <ele>290.60</ele>
        <time>1970-01-01T00:27:49Z</time>
      </trkpt>
      <trkpt lat="41.570534" lon="2.061115">
        <ele>290.70</ele>
        <time>1970-01-01T00:27:51Z</time>
      </trkpt>
      <trkpt lat="41.570576" lon="2.061089">
        <ele>290.70</ele>
        <time>1970-01-01T00:27:52Z</time>
      </trkpt>
      <trkpt lat="41.570663" lon="2.061039">
        <ele>290.70</ele>
        <time>1970-01-01T00:27:54Z</time>
      </trkpt>
      <trkpt lat="41.570707" lon="2.061015">
        <ele>290.80</ele>
        <time>1970-01-01T00:27:55Z</time>
      </trkpt>
      <trkpt lat="41.570793" lon="2.060971">
        <ele>290.90</ele>
        <time>1970-01-01T00:27:57Z</time>
      </trkpt>
      <trkpt lat="41.570878" lon="2.060926">
        <ele>291.00</ele>
        <time>1970-01-01T00:27:59Z</time>
      </trkpt>
      <trkpt lat="41.570920" lon="2.060904">
        <ele>291.00</ele>
        <time>1970-01-01T00:28:00Z</time>
      </trkpt>
      <trkpt lat="41.570965" lon="2.060883">
        <ele>291.10</ele>
        <time>1970-01-01T00:28:01Z</time>
      </trkpt>
      <trkpt lat="41.571057" lon="2.060840">
        <ele>291.20</ele>
        <time>1970-01-01T00:28:03Z</time>
      </trkpt>
      <trkpt lat="41.571104" lon="2.060817">
        <ele>291.20</ele>
        <time>1970-01-01T00:28:04Z</time>
      </trkpt>
      <trkpt lat="41.571149" lon="2.060797">
        <ele>291.30</ele>
        <time>1970-01-01T00:28:05Z</time>
      </trkpt>
      <trkpt lat="41.571192" lon="2.060774">
        <ele>291.30</ele>
        <time>1970-01-01T00:28:06Z</time>
      </trkpt>
      <trkpt lat="41.571237" lon="2.060756">
        <ele>291.40</ele>
        <time>1970-01-01T00:28:07Z</time>
      </trkpt>
      <trkpt lat="41.571282" lon="2.060742">
        <ele>291.40</ele>
        <time>1970-01-01T00:28:08Z</time>
      </trkpt>
      <trkpt lat="41.571380" lon="2.060717">
        <ele>291.40</ele>
        <time>1970-01-01T00:28:10Z</time>
      </trkpt>
      <trkpt lat="41.571430" lon="2.060708">
        <ele>291.40</ele>
        <time>1970-01-01T00:28:11Z</time>
      </trkpt>
      <trkpt lat="41.571476" lon="2.060710">
        <ele>291.30</ele>
        <time>1970-01-01T00:28:12Z</time>
      </trkpt>
      <trkpt lat="41.571571" lon="2.060727">
        <ele>291.20</ele>
        <time>1970-01-01T00:28:14Z</time>
      </trkpt>
      <trkpt lat="41.571670" lon="2.060771">
        <ele>291.10</ele>
        <time>1970-01-01T00:28:16Z</time>
      </trkpt>
      <trkpt lat="41.571785" lon="2.060850">
        <ele>290.80</ele>
        <time>1970-01-01T00:28:18Z</time>
      </trkpt>
      <trkpt lat="41.571892" lon="2.060933">
        <ele>290.50</ele>
        <time>1970-01-01T00:28:20Z</time>
      </trkpt>
      <trkpt lat="41.571944" lon="2.060975">
        <ele>290.30</ele>
        <time>1970-01-01T00:28:21Z</time>
      </trkpt>
      <trkpt lat="41.571997" lon="2.061015">
        <ele>290.00</ele>
        <time>1970-01-01T00:28:22Z</time>
      </trkpt>
      <trkpt lat="41.572112" lon="2.061099">
        <ele>289.30</ele>
        <time>1970-01-01T00:28:24Z</time>
      </trkpt>
      <trkpt lat="41.572174" lon="2.061140">
        <ele>288.80</ele>
        <time>1970-01-01T00:28:25Z</time>
      </trkpt>
      <trkpt lat="41.572241" lon="2.061177">
        <ele>288.10</ele>
        <time>1970-01-01T00:28:26Z</time>
      </trkpt>
      <trkpt lat="41.572317" lon="2.061211">
        <ele>287.40</ele>
        <time>1970-01-01T00:28:27Z</time>
      </trkpt>
      <trkpt lat="41.572489" lon="2.061289">
        <ele>285.80</ele>
        <time>1970-01-01T00:28:29Z</time>
      </trkpt>
      <trkpt lat="41.572578" lon="2.061331">
        <ele>285.10</ele>
        <time>1970-01-01T00:28:30Z</time>
      </trkpt>
      <trkpt lat="41.572751" lon="2.061414">
        <ele>284.30</ele>
        <time>1970-01-01T00:28:32Z</time>
      </trkpt>
      <trkpt lat="41.572833" lon="2.061455">
        <ele>284.10</ele>
        <time>1970-01-01T00:28:33Z</time>
      </trkpt>
      <trkpt lat="41.572913" lon="2.061493">
        <ele>284.00</ele>
        <time>1970-01-01T00:28:34Z</time>
      </trkpt>
      <trkpt lat="41.573064" lon="2.061562">
        <ele>283.90</ele>
        <time>1970-01-01T00:28:36Z</time>
      </trkpt>
      <trkpt lat="41.573202" lon="2.061634">
        <ele>283.80</ele>
        <time>1970-01-01T00:28:38Z</time>
      </trkpt>
      <trkpt lat="41.573267" lon="2.061663">
        <ele>283.80</ele>
        <time>1970-01-01T00:28:39Z</time>
      </trkpt>
      <trkpt lat="41.573384" lon="2.061719">
        <ele>283.90</ele>
        <time>1970-01-01T00:28:41Z</time>
      </trkpt>
      <trkpt lat="41.573438" lon="2.061745">
        <ele>283.90</ele>
        <time>1970-01-01T00:28:42Z</time>
      </trkpt>
      <trkpt lat="41.573490" lon="2.061773">
        <ele>284.00</ele>
        <time>1970-01-01T00:28:43Z</time>
      </trkpt>
      <trkpt lat="41.573590" lon="2.061831">
        <ele>284.10</ele>
        <time>1970-01-01T00:28:45Z</time>
      </trkpt>
      <trkpt lat="41.573697" lon="2.061879">
        <ele>284.30</ele>
        <time>1970-01-01T00:28:47Z</time>
      </trkpt>
      <trkpt lat="41.573754" lon="2.061897">
        <ele>284.50</ele>
        <time>1970-01-01T00:28:48Z</time>
      </trkpt>
      <trkpt lat="41.573854" lon="2.061929">
        <ele>284.90</ele>
        <time>1970-01-01T00:28:50Z</time>
      </trkpt>
      <trkpt lat="41.573945" lon="2.061946">
        <ele>285.40</ele>
        <time>1970-01-01T00:28:52Z</time>
      </trkpt>
      <trkpt lat="41.574029" lon="2.061942">
        <ele>286.00</ele>
        <time>1970-01-01T00:28:54Z</time>
      </trkpt>
      <trkpt lat="41.574058" lon="2.061933">
        <ele>286.30</ele>
        <time>1970-01-01T00:28:55Z</time>
      </trkpt>
      <trkpt lat="41.574131" lon="2.061905">
        <ele>287.00</ele>
        <time>1970-01-01T00:28:57Z</time>
      </trkpt>
      <trkpt lat="41.574198" lon="2.061880">
        <ele>287.60</ele>
        <time>1970-01-01T00:28:59Z</time>
      </trkpt>
      <trkpt lat="41.574245" lon="2.061872">
        <ele>288.10</ele>
        <time>1970-01-01T00:29:01Z</time>
      </trkpt>
      <trkpt lat="41.574303" lon="2.061926">
        <ele>289.30</ele>
        <time>1970-01-01T00:29:03Z</time>
      </trkpt>
      <trkpt lat="41.574339" lon="2.061875">
        <ele>289.80</ele>
        <time>1970-01-01T00:29:04Z</time>
      </trkpt>
      <trkpt lat="41.574387" lon="2.061823">
        <ele>290.30</ele>
        <time>1970-01-01T00:29:06Z</time>
      </trkpt>
      <trkpt lat="41.574395" lon="2.061776">
        <ele>290.60</ele>
        <time>1970-01-01T00:29:08Z</time>
      </trkpt>
      <trkpt lat="41.574374" lon="2.061758">
        <ele>290.80</ele>
        <time>1970-01-01T00:29:09Z</time>
      </trkpt>
      <trkpt lat="41.574324" lon="2.061791">
        <ele>291.20</ele>
        <time>1970-01-01T00:29:11Z</time>
      </trkpt>
      <trkpt lat="41.574322" lon="2.061818">
        <ele>291.40</ele>
        <time>1970-01-01T00:29:12Z</time>
      </trkpt>
      <trkpt lat="41.574334" lon="2.061828">
        <ele>291.50</ele>
        <time>1970-01-01T00:29:13Z</time>
      </trkpt>
      <trkpt lat="41.574371" lon="2.061872">
        <ele>291.90</ele>
        <time>1970-01-01T00:29:15Z</time>
      </trkpt>
      <trkpt lat="41.574381" lon="2.061902">
        <ele>292.10</ele>
        <time>1970-01-01T00:29:16Z</time>
      </trkpt>
      <trkpt lat="41.574390" lon="2.061933">
        <ele>292.30</ele>
        <time>1970-01-01T00:29:17Z</time>
      </trkpt>
      <trkpt lat="41.574419" lon="2.061965">
        <ele>292.60</ele>
        <time>1970-01-01T00:29:19Z</time>
      </trkpt>
      <trkpt lat="41.574457" lon="2.061959">
        <ele>292.90</ele>
        <time>1970-01-01T00:29:20Z</time>
      </trkpt>
      <trkpt lat="41.574492" lon="2.061968">
        <ele>293.20</ele>
        <time>1970-01-01T00:29:21Z</time>
      </trkpt>
      <trkpt lat="41.574532" lon="2.061985">
        <ele>293.50</ele>
        <time>1970-01-01T00:29:22Z</time>
      </trkpt>
      <trkpt lat="41.574565" lon="2.062006">
        <ele>293.80</ele>
        <time>1970-01-01T00:29:23Z</time>
      </trkpt>
      <trkpt lat="41.574605" lon="2.062023">
        <ele>294.10</ele>
        <time>1970-01-01T00:29:25Z</time>
      </trkpt>
      <trkpt lat="41.574638" lon="2.062063">
        <ele>294.40</ele>
        <time>1970-01-01T00:29:26Z</time>
      </trkpt>
      <trkpt lat="41.574671" lon="2.062109">
        <ele>294.70</ele>
        <time>1970-01-01T00:29:27Z</time>
      </trkpt>
      <trkpt lat="41.574721" lon="2.062156">
        <ele>295.20</ele>
        <time>1970-01-01T00:29:28Z</time>
      </trkpt>
      <trkpt lat="41.574770" lon="2.062165">
        <ele>295.90</ele>
        <time>1970-01-01T00:29:30Z</time>
      </trkpt>
      <trkpt lat="41.574828" lon="2.062172">
        <ele>296.00</ele>
        <time>1970-01-01T00:29:32Z</time>
      </trkpt>
      <trkpt lat="41.574877" lon="2.062184">
        <ele>296.20</ele>
        <time>1970-01-01T00:29:33Z</time>
      </trkpt>
      <trkpt lat="41.574939" lon="2.062206">
        <ele>296.40</ele>
        <time>1970-01-01T00:29:35Z</time>
      </trkpt>
      <trkpt lat="41.574976" lon="2.062225">
        <ele>296.60</ele>
        <time>1970-01-01T00:29:36Z</time>
      </trkpt>
      <trkpt lat="41.575012" lon="2.062248">
        <ele>296.70</ele>
        <time>1970-01-01T00:29:37Z</time>
      </trkpt>
      <trkpt lat="41.575044" lon="2.062279">
        <ele>296.80</ele>
        <time>1970-01-01T00:29:38Z</time>
      </trkpt>
      <trkpt lat="41.575090" lon="2.062312">
        <ele>297.00</ele>
        <time>1970-01-01T00:29:39Z</time>
      </trkpt>
      <trkpt lat="41.575132" lon="2.062343">
        <ele>297.20</ele>
        <time>1970-01-01T00:29:41Z</time>
      </trkpt>
      <trkpt lat="41.575177" lon="2.062371">
        <ele>297.40</ele>
        <time>1970-01-01T00:29:42Z</time>
      </trkpt>
      <trkpt lat="41.575206" lon="2.062398">
        <ele>297.50</ele>
        <time>1970-01-01T00:29:43Z</time>
      </trkpt>
      <trkpt lat="41.575264" lon="2.062447">
        <ele>297.80</ele>
        <time>1970-01-01T00:29:45Z</time>
      </trkpt>
      <trkpt lat="41.575302" lon="2.062482">
        <ele>297.90</ele>
        <time>1970-01-01T00:29:46Z</time>
      </trkpt>
      <trkpt lat="41.575355" lon="2.062542">
        <ele>298.10</ele>
        <time>1970-01-01T00:29:48Z</time>
      </trkpt>
      <trkpt lat="41.575390" lon="2.062583">
        <ele>298.30</ele>
        <time>1970-01-01T00:29:49Z</time>
      </trkpt>
      <trkpt lat="41.575418" lon="2.062627">
        <ele>298.40</ele>
        <time>1970-01-01T00:29:50Z</time>
      </trkpt>
      <trkpt lat="41.575455" lon="2.062702">
        <ele>298.60</ele>
        <time>1970-01-01T00:29:52Z</time>
      </trkpt>
      <trkpt lat="41.575476" lon="2.062753">
        <ele>298.70</ele>
        <time>1970-01-01T00:29:53Z</time>
      </trkpt>
      <trkpt lat="41.575497" lon="2.062801">
        <ele>298.80</ele>
        <time>1970-01-01T00:29:54Z</time>
      </trkpt>
      <trkpt lat="41.575529" lon="2.062874">
        <ele>299.00</ele>
        <time>1970-01-01T00:29:56Z</time>
      </trkpt>
      <trkpt lat="41.575559" lon="2.062926">
        <ele>299.20</ele>
        <time>1970-01-01T00:29:57Z</time>
      </trkpt>
      <trkpt lat="41.575586" lon="2.062971">
        <ele>299.40</ele>
        <time>1970-01-01T00:29:58Z</time>
      </trkpt>
      <trkpt lat="41.575604" lon="2.063014">
        <ele>299.60</ele>
        <time>1970-01-01T00:29:59Z</time>
      </trkpt>
      <trkpt lat="41.575627" lon="2.063080">
        <ele>300.00</ele>
        <time>1970-01-01T00:30:00Z</time>
      </trkpt>
      <trkpt lat="41.575645" lon="2.063140">
        <ele>300.30</ele>
        <time>1970-01-01T00:30:02Z</time>
      </trkpt>
      <trkpt lat="41.575655" lon="2.063204">
        <ele>300.70</ele>
        <time>1970-01-01T00:30:03Z</time>
      </trkpt>
      <trkpt lat="41.575668" lon="2.063302">
        <ele>301.50</ele>
        <time>1970-01-01T00:30:05Z</time>
      </trkpt>
      <trkpt lat="41.575672" lon="2.063357">
        <ele>302.00</ele>
        <time>1970-01-01T00:30:06Z</time>
      </trkpt>
      <trkpt lat="41.575683" lon="2.063439">
        <ele>302.90</ele>
        <time>1970-01-01T00:30:08Z</time>
      </trkpt>
      <trkpt lat="41.575699" lon="2.063493">
        <ele>303.60</ele>
        <time>1970-01-01T00:30:09Z</time>
      </trkpt>
      <trkpt lat="41.575725" lon="2.063537">
        <ele>304.30</ele>
        <time>1970-01-01T00:30:10Z</time>
      </trkpt>
      <trkpt lat="41.575784" lon="2.063583">
        <ele>305.40</ele>
        <time>1970-01-01T00:30:12Z</time>
      </trkpt>
      <trkpt lat="41.575820" lon="2.063612">
        <ele>306.10</ele>
        <time>1970-01-01T00:30:13Z</time>
      </trkpt>
      <trkpt lat="41.575894" lon="2.063667">
        <ele>307.10</ele>
        <time>1970-01-01T00:30:15Z</time>
      </trkpt>
      <trkpt lat="41.575949" lon="2.063702">
        <ele>307.70</ele>
        <time>1970-01-01T00:30:17Z</time>
      </trkpt>
      <trkpt lat="41.575995" lon="2.063710">
        <ele>308.10</ele>
        <time>1970-01-01T00:30:18Z</time>
      </trkpt>
      <trkpt lat="41.576032" lon="2.063719">
        <ele>308.50</ele>
        <time>1970-01-01T00:30:19Z</time>
      </trkpt>
      <trkpt lat="41.576067" lon="2.063734">
        <ele>308.70</ele>
        <time>1970-01-01T00:30:20Z</time>
      </trkpt>
      <trkpt lat="41.576116" lon="2.063777">
        <ele>309.10</ele>
        <time>1970-01-01T00:30:21Z</time>
      </trkpt>
      <trkpt lat="41.576153" lon="2.063816">
        <ele>309.30</ele>
        <time>1970-01-01T00:30:23Z</time>
      </trkpt>
      <trkpt lat="41.576194" lon="2.063851">
        <ele>309.40</ele>
        <time>1970-01-01T00:30:24Z</time>
      </trkpt>
      <trkpt lat="41.576244" lon="2.063883">
        <ele>309.50</ele>
        <time>1970-01-01T00:30:26Z</time>
      </trkpt>
      <trkpt lat="41.576293" lon="2.063911">
        <ele>309.50</ele>
        <time>1970-01-01T00:30:27Z</time>
      </trkpt>
      <trkpt lat="41.576338" lon="2.063930">
        <ele>309.50</ele>
        <time>1970-01-01T00:30:29Z</time>
      </trkpt>
      <trkpt lat="41.576394" lon="2.063940">
        <ele>309.40</ele>
        <time>1970-01-01T00:30:30Z</time>
      </trkpt>
      <trkpt lat="41.576441" lon="2.063923">
        <ele>309.30</ele>
        <time>1970-01-01T00:30:31Z</time>
      </trkpt>
      <trkpt lat="41.576483" lon="2.063882">
        <ele>309.30</ele>
        <time>1970-01-01T00:30:32Z</time>
      </trkpt>
      <trkpt lat="41.576534" lon="2.063811">
        <ele>309.40</ele>
        <time>1970-01-01T00:30:34Z</time>
      </trkpt>
      <trkpt lat="41.576553" lon="2.063793">
        <ele>309.40</ele>
        <time>1970-01-01T00:30:35Z</time>
      </trkpt>
      <trkpt lat="41.576600" lon="2.063707">
        <ele>309.50</ele>
        <time>1970-01-01T00:30:37Z</time>
      </trkpt>
      <trkpt lat="41.576639" lon="2.063623">
        <ele>309.60</ele>
        <time>1970-01-01T00:30:38Z</time>
      </trkpt>
      <trkpt lat="41.576670" lon="2.063537">
        <ele>309.60</ele>
        <time>1970-01-01T00:30:39Z</time>
      </trkpt>
      <trkpt lat="41.576693" lon="2.063470">
        <ele>309.60</ele>
        <time>1970-01-01T00:30:40Z</time>
      </trkpt>
      <trkpt lat="41.576731" lon="2.063341">
        <ele>309.80</ele>
        <time>1970-01-01T00:30:42Z</time>
      </trkpt>
      <trkpt lat="41.576771" lon="2.063222">
        <ele>309.80</ele>
        <time>1970-01-01T00:30:44Z</time>
      </trkpt>
      <trkpt lat="41.576792" lon="2.063164">
        <ele>309.90</ele>
        <time>1970-01-01T00:30:45Z</time>
      </trkpt>
      <trkpt lat="41.576814" lon="2.063108">
        <ele>309.90</ele>
        <time>1970-01-01T00:30:46Z</time>
      </trkpt>
      <trkpt lat="41.576859" lon="2.063001">
        <ele>310.00</ele>
        <time>1970-01-01T00:30:48Z</time>
      </trkpt>
      <trkpt lat="41.576896" lon="2.062882">
        <ele>310.10</ele>
        <time>1970-01-01T00:30:50Z</time>
      </trkpt>
      <trkpt lat="41.576921" lon="2.062828">
        <ele>310.20</ele>
        <time>1970-01-01T00:30:51Z</time>
      </trkpt>
      <trkpt lat="41.576974" lon="2.062725">
        <ele>310.50</ele>
        <time>1970-01-01T00:30:53Z</time>
      </trkpt>
      <trkpt lat="41.577000" lon="2.062677">
        <ele>310.60</ele>
        <time>1970-01-01T00:30:54Z</time>
      </trkpt>
      <trkpt lat="41.577047" lon="2.062600">
        <ele>310.80</ele>
        <time>1970-01-01T00:30:56Z</time>
      </trkpt>
      <trkpt lat="41.577075" lon="2.062557">
        <ele>310.90</ele>
        <time>1970-01-01T00:30:57Z</time>
      </trkpt>
      <trkpt lat="41.577120" lon="2.062460">
        <ele>311.20</ele>
        <time>1970-01-01T00:30:59Z</time>
      </trkpt>
      <trkpt lat="41.577141" lon="2.062403">
        <ele>311.30</ele>
        <time>1970-01-01T00:31:00Z</time>
      </trkpt>
      <trkpt lat="41.577163" lon="2.062329">
        <ele>311.40</ele>
        <time>1970-01-01T00:31:01Z</time>
      </trkpt>
      <trkpt lat="41.577190" lon="2.062262">
        <ele>311.60</ele>
        <time>1970-01-01T00:31:02Z</time>
      </trkpt>
      <trkpt lat="41.577238" lon="2.062146">
        <ele>312.10</ele>
        <time>1970-01-01T00:31:04Z</time>
      </trkpt>
      <trkpt lat="41.577273" lon="2.062114">
        <ele>312.40</ele>
        <time>1970-01-01T00:31:05Z</time>
      </trkpt>
      <trkpt lat="41.577315" lon="2.062040">
        <ele>313.00</ele>
        <time>1970-01-01T00:31:07Z</time>
      </trkpt>
      <trkpt lat="41.577338" lon="2.061988">
        <ele>313.40</ele>
        <time>1970-01-01T00:31:08Z</time>
      </trkpt>
      <trkpt lat="41.577355" lon="2.061932">
        <ele>313.80</ele>
        <time>1970-01-01T00:31:09Z</time>
      </trkpt>
      <trkpt lat="41.577368" lon="2.061879">
        <ele>314.10</ele>
        <time>1970-01-01T00:31:10Z</time>
      </trkpt>
      <trkpt lat="41.577384" lon="2.061809">
        <ele>314.60</ele>
        <time>1970-01-01T00:31:11Z</time>
      </trkpt>
      <trkpt lat="41.577412" lon="2.061746">
        <ele>315.00</ele>
        <time>1970-01-01T00:31:13Z</time>
      </trkpt>
      <trkpt lat="41.577440" lon="2.061685">
        <ele>315.40</ele>
        <time>1970-01-01T00:31:14Z</time>
      </trkpt>
      <trkpt lat="41.577472" lon="2.061616">
        <ele>315.80</ele>
        <time>1970-01-01T00:31:16Z</time>
      </trkpt>
      <trkpt lat="41.577493" lon="2.061569">
        <ele>316.00</ele>
        <time>1970-01-01T00:31:17Z</time>
      </trkpt>
      <trkpt lat="41.577515" lon="2.061523">
        <ele>316.20</ele>
        <time>1970-01-01T00:31:18Z</time>
      </trkpt>
      <trkpt lat="41.577549" lon="2.061465">
        <ele>316.30</ele>
        <time>1970-01-01T00:31:19Z</time>
      </trkpt>
      <trkpt lat="41.577581" lon="2.061409">
        <ele>316.40</ele>
        <time>1970-01-01T00:31:20Z</time>
      </trkpt>
      <trkpt lat="41.577605" lon="2.061359">
        <ele>316.50</ele>
        <time>1970-01-01T00:31:21Z</time>
      </trkpt>
      <trkpt lat="41.577628" lon="2.061314">
        <ele>316.50</ele>
        <time>1970-01-01T00:31:23Z</time>
      </trkpt>
      <trkpt lat="41.577662" lon="2.061251">
        <ele>316.50</ele>
        <time>1970-01-01T00:31:24Z</time>
      </trkpt>
      <trkpt lat="41.577711" lon="2.061150">
        <ele>316.50</ele>
        <time>1970-01-01T00:31:26Z</time>
      </trkpt>
      <trkpt lat="41.577733" lon="2.061100">
        <ele>316.50</ele>
        <time>1970-01-01T00:31:27Z</time>
      </trkpt>
      <trkpt lat="41.577770" lon="2.061069">
        <ele>316.60</ele>
        <time>1970-01-01T00:31:29Z</time>
      </trkpt>
      <trkpt lat="41.577797" lon="2.061005">
        <ele>316.70</ele>
        <time>1970-01-01T00:31:30Z</time>
      </trkpt>
      <trkpt lat="41.577830" lon="2.060913">
        <ele>317.00</ele>
        <time>1970-01-01T00:31:31Z</time>
      </trkpt>
      <trkpt lat="41.577852" lon="2.060848">
        <ele>317.30</ele>
        <time>1970-01-01T00:31:33Z</time>
      </trkpt>
      <trkpt lat="41.577873" lon="2.060791">
        <ele>317.50</ele>
        <time>1970-01-01T00:31:34Z</time>
      </trkpt>
      <trkpt lat="41.577901" lon="2.060733">
        <ele>317.80</ele>
        <time>1970-01-01T00:31:35Z</time>
      </trkpt>
      <trkpt lat="41.577950" lon="2.060648">
        <ele>318.40</ele>
        <time>1970-01-01T00:31:37Z</time>
      </trkpt>
      <trkpt lat="41.577981" lon="2.060586">
        <ele>318.90</ele>
        <time>1970-01-01T00:31:38Z</time>
      </trkpt>
      <trkpt lat="41.578010" lon="2.060505">
        <ele>319.50</ele>
        <time>1970-01-01T00:31:40Z</time>
      </trkpt>
      <trkpt lat="41.578026" lon="2.060456">
        <ele>319.80</ele>
        <time>1970-01-01T00:31:41Z</time>
      </trkpt>
      <trkpt lat="41.578048" lon="2.060405">
        <ele>320.20</ele>
        <time>1970-01-01T00:31:42Z</time>
      </trkpt>
      <trkpt lat="41.578076" lon="2.060363">
        <ele>320.60</ele>
        <time>1970-01-01T00:31:43Z</time>
      </trkpt>
      <trkpt lat="41.578102" lon="2.060323">
        <ele>320.90</ele>
        <time>1970-01-01T00:31:44Z</time>
      </trkpt>
      <trkpt lat="41.578122" lon="2.060282">
        <ele>321.10</ele>
        <time>1970-01-01T00:31:45Z</time>
      </trkpt>
      <trkpt lat="41.578140" lon="2.060230">
        <ele>321.30</ele>
        <time>1970-01-01T00:31:47Z</time>
      </trkpt>
      <trkpt lat="41.578151" lon="2.060195">
        <ele>321.20</ele>
        <time>1970-01-01T00:31:48Z</time>
      </trkpt>
      <trkpt lat="41.578183" lon="2.060155">
        <ele>321.10</ele>
        <time>1970-01-01T00:31:49Z</time>
      </trkpt>
      <trkpt lat="41.578237" lon="2.060156">
        <ele>320.90</ele>
        <time>1970-01-01T00:31:51Z</time>
      </trkpt>
      <trkpt lat="41.578335" lon="2.060141">
        <ele>320.50</ele>
        <time>1970-01-01T00:31:53Z</time>
      </trkpt>
      <trkpt lat="41.578374" lon="2.060113">
        <ele>320.40</ele>
        <time>1970-01-01T00:31:54Z</time>
      </trkpt>
      <trkpt lat="41.578440" lon="2.060031">
        <ele>320.40</ele>
        <time>1970-01-01T00:31:56Z</time>
      </trkpt>
      <trkpt lat="41.578491" lon="2.059925">
        <ele>320.70</ele>
        <time>1970-01-01T00:31:58Z</time>
      </trkpt>
      <trkpt lat="41.578521" lon="2.059883">
        <ele>321.00</ele>
        <time>1970-01-01T00:31:59Z</time>
      </trkpt>
      <trkpt lat="41.578548" lon="2.059840">
        <ele>321.20</ele>
        <time>1970-01-01T00:32:00Z</time>
      </trkpt>
      <trkpt lat="41.578573" lon="2.059795">
        <ele>321.50</ele>
        <time>1970-01-01T00:32:01Z</time>
      </trkpt>
      <trkpt lat="41.578608" lon="2.059712">
        <ele>321.90</ele>
        <time>1970-01-01T00:32:03Z</time>
      </trkpt>
      <trkpt lat="41.578628" lon="2.059654">
        <ele>322.10</ele>
        <time>1970-01-01T00:32:04Z</time>
      </trkpt>
      <trkpt lat="41.578644" lon="2.059588">
        <ele>322.30</ele>
        <time>1970-01-01T00:32:05Z</time>
      </trkpt>
      <trkpt lat="41.578657" lon="2.059504">
        <ele>322.40</ele>
        <time>1970-01-01T00:32:07Z</time>
      </trkpt>
      <trkpt lat="41.578676" lon="2.059420">
        <ele>322.50</ele>
        <time>1970-01-01T00:32:08Z</time>
      </trkpt>
      <trkpt lat="41.578688" lon="2.059369">
        <ele>322.60</ele>
        <time>1970-01-01T00:32:09Z</time>
      </trkpt>
      <trkpt lat="41.578700" lon="2.059317">
        <ele>322.70</ele>
        <time>1970-01-01T00:32:10Z</time>
      </trkpt>
      <trkpt lat="41.578715" lon="2.059227">
        <ele>322.80</ele>
        <time>1970-01-01T00:32:12Z</time>
      </trkpt>
      <trkpt lat="41.578726" lon="2.059173">
        <ele>322.90</ele>
        <time>1970-01-01T00:32:13Z</time>
      </trkpt>
      <trkpt lat="41.578739" lon="2.059116">
        <ele>322.90</ele>
        <time>1970-01-01T00:32:14Z</time>
      </trkpt>
      <trkpt lat="41.578759" lon="2.059061">
        <ele>323.00</ele>
        <time>1970-01-01T00:32:15Z</time>
      </trkpt>
      <trkpt lat="41.578799" lon="2.058995">
        <ele>323.20</ele>
        <time>1970-01-01T00:32:17Z</time>
      </trkpt>
      <trkpt lat="41.578839" lon="2.058927">
        <ele>323.40</ele>
        <time>1970-01-01T00:32:18Z</time>
      </trkpt>
      <trkpt lat="41.578877" lon="2.058861">
        <ele>323.60</ele>
        <time>1970-01-01T00:32:19Z</time>
      </trkpt>
      <trkpt lat="41.578906" lon="2.058794">
        <ele>323.80</ele>
        <time>1970-01-01T00:32:21Z</time>
      </trkpt>
      <trkpt lat="41.578929" lon="2.058737">
        <ele>324.10</ele>
        <time>1970-01-01T00:32:22Z</time>
      </trkpt>
      <trkpt lat="41.578954" lon="2.058680">
        <ele>324.30</ele>
        <time>1970-01-01T00:32:23Z</time>
      </trkpt>
      <trkpt lat="41.578992" lon="2.058602">
        <ele>324.60</ele>
        <time>1970-01-01T00:32:25Z</time>
      </trkpt>
      <trkpt lat="41.579015" lon="2.058549">
        <ele>324.80</ele>
        <time>1970-01-01T00:32:26Z</time>
      </trkpt>
      <trkpt lat="41.579033" lon="2.058506">
        <ele>324.90</ele>
        <time>1970-01-01T00:32:27Z</time>
      </trkpt>
      <trkpt lat="41.579065" lon="2.058415">
        <ele>325.20</ele>
        <time>1970-01-01T00:32:29Z</time>
      </trkpt>
      <trkpt lat="41.579082" lon="2.058360">
        <ele>325.20</ele>
        <time>1970-01-01T00:32:30Z</time>
      </trkpt>
      <trkpt lat="41.579107" lon="2.058289">
        <ele>325.30</ele>
        <time>1970-01-01T00:32:31Z</time>
      </trkpt>
      <trkpt lat="41.579135" lon="2.058205">
        <ele>325.30</ele>
        <time>1970-01-01T00:32:33Z</time>
      </trkpt>
      <trkpt lat="41.579153" lon="2.058152">
        <ele>325.30</ele>
        <time>1970-01-01T00:32:34Z</time>
      </trkpt>
      <trkpt lat="41.579171" lon="2.058095">
        <ele>325.30</ele>
        <time>1970-01-01T00:32:35Z</time>
      </trkpt>
      <trkpt lat="41.579201" lon="2.058006">
        <ele>325.30</ele>
        <time>1970-01-01T00:32:37Z</time>
      </trkpt>
      <trkpt lat="41.579217" lon="2.057948">
        <ele>325.30</ele>
        <time>1970-01-01T00:32:38Z</time>
      </trkpt>
      <trkpt lat="41.579237" lon="2.057884">
        <ele>325.20</ele>
        <time>1970-01-01T00:32:39Z</time>
      </trkpt>
      <trkpt lat="41.579266" lon="2.057790">
        <ele>325.10</ele>
        <time>1970-01-01T00:32:41Z</time>
      </trkpt>
      <trkpt lat="41.579288" lon="2.057705">
        <ele>324.90</ele>
        <time>1970-01-01T00:32:42Z</time>
      </trkpt>
      <trkpt lat="41.579308" lon="2.057624">
        <ele>324.80</ele>
        <time>1970-01-01T00:32:44Z</time>
      </trkpt>
      <trkpt lat="41.579327" lon="2.057555">
        <ele>324.70</ele>
        <time>1970-01-01T00:32:46Z</time>
      </trkpt>
      <trkpt lat="41.579361" lon="2.057433">
        <ele>324.50</ele>
        <time>1970-01-01T00:32:48Z</time>
      </trkpt>
      <trkpt lat="41.579404" lon="2.057283">
        <ele>324.00</ele>
        <time>1970-01-01T00:32:50Z</time>
      </trkpt>
      <trkpt lat="41.579435" lon="2.057211">
        <ele>323.80</ele>
        <time>1970-01-01T00:32:51Z</time>
      </trkpt>
      <trkpt lat="41.579477" lon="2.057151">
        <ele>323.60</ele>
        <time>1970-01-01T00:32:52Z</time>
      </trkpt>
      <trkpt lat="41.579525" lon="2.057100">
        <ele>323.50</ele>
        <time>1970-01-01T00:32:53Z</time>
      </trkpt>
      <trkpt lat="41.579618" lon="2.057008">
        <ele>323.30</ele>
        <time>1970-01-01T00:32:55Z</time>
      </trkpt>
      <trkpt lat="41.579695" lon="2.056912">
        <ele>322.80</ele>
        <time>1970-01-01T00:32:57Z</time>
      </trkpt>
      <trkpt lat="41.579756" lon="2.056787">
        <ele>322.10</ele>
        <time>1970-01-01T00:32:59Z</time>
      </trkpt>
      <trkpt lat="41.579821" lon="2.056633">
        <ele>321.10</ele>
        <time>1970-01-01T00:33:01Z</time>
      </trkpt>
      <trkpt lat="41.579921" lon="2.056488">
        <ele>320.30</ele>
        <time>1970-01-01T00:33:03Z</time>
      </trkpt>
      <trkpt lat="41.580038" lon="2.056362">
        <ele>320.00</ele>
        <time>1970-01-01T00:33:05Z</time>
      </trkpt>
      <trkpt lat="41.580130" lon="2.056217">
        <ele>320.00</ele>
        <time>1970-01-01T00:33:07Z</time>
      </trkpt>
      <trkpt lat="41.580156" lon="2.056137">
        <ele>320.20</ele>
        <time>1970-01-01T00:33:08Z</time>
      </trkpt>
      <trkpt lat="41.580171" lon="2.055987">
        <ele>320.80</ele>
        <time>1970-01-01T00:33:10Z</time>
      </trkpt>
      <trkpt lat="41.580174" lon="2.055918">
        <ele>321.20</ele>
        <time>1970-01-01T00:33:11Z</time>
      </trkpt>
      <trkpt lat="41.580183" lon="2.055786">
        <ele>321.90</ele>
        <time>1970-01-01T00:33:13Z</time>
      </trkpt>
      <trkpt lat="41.580193" lon="2.055700">
        <ele>322.30</ele>
        <time>1970-01-01T00:33:15Z</time>
      </trkpt>
      <trkpt lat="41.580201" lon="2.055632">
        <ele>322.60</ele>
        <time>1970-01-01T00:33:16Z</time>
      </trkpt>
      <trkpt lat="41.580210" lon="2.055574">
        <ele>322.80</ele>
        <time>1970-01-01T00:33:17Z</time>
      </trkpt>
      <trkpt lat="41.580217" lon="2.055536">
        <ele>323.00</ele>
        <time>1970-01-01T00:33:18Z</time>
      </trkpt>
      <trkpt lat="41.580233" lon="2.055415">
        <ele>323.40</ele>
        <time>1970-01-01T00:33:20Z</time>
      </trkpt>
      <trkpt lat="41.580222" lon="2.055335">
        <ele>323.60</ele>
        <time>1970-01-01T00:33:21Z</time>
      </trkpt>
      <trkpt lat="41.580232" lon="2.055282">
        <ele>323.80</ele>
        <time>1970-01-01T00:33:22Z</time>
      </trkpt>
      <trkpt lat="41.580249" lon="2.055211">
        <ele>324.00</ele>
        <time>1970-01-01T00:33:24Z</time>
      </trkpt>
      <trkpt lat="41.580285" lon="2.055119">
        <ele>324.30</ele>
        <time>1970-01-01T00:33:25Z</time>
      </trkpt>
      <trkpt lat="41.580302" lon="2.055056">
        <ele>324.60</ele>
        <time>1970-01-01T00:33:26Z</time>
      </trkpt>
      <trkpt lat="41.580321" lon="2.054994">
        <ele>324.80</ele>
        <time>1970-01-01T00:33:27Z</time>
      </trkpt>
      <trkpt lat="41.580336" lon="2.054932">
        <ele>325.00</ele>
        <time>1970-01-01T00:33:28Z</time>
      </trkpt>
      <trkpt lat="41.580358" lon="2.054827">
        <ele>325.30</ele>
        <time>1970-01-01T00:33:30Z</time>
      </trkpt>
      <trkpt lat="41.580365" lon="2.054771">
        <ele>325.40</ele>
        <time>1970-01-01T00:33:31Z</time>
      </trkpt>
      <trkpt lat="41.580381" lon="2.054687">
        <ele>325.60</ele>
        <time>1970-01-01T00:33:32Z</time>
      </trkpt>
      <trkpt lat="41.580392" lon="2.054610">
        <ele>325.60</ele>
        <time>1970-01-01T00:33:34Z</time>
      </trkpt>
      <trkpt lat="41.580403" lon="2.054544">
        <ele>325.70</ele>
        <time>1970-01-01T00:33:35Z</time>
      </trkpt>
      <trkpt lat="41.580415" lon="2.054474">
        <ele>325.70</ele>
        <time>1970-01-01T00:33:36Z</time>
      </trkpt>
      <trkpt lat="41.580436" lon="2.054345">
        <ele>325.80</ele>
        <time>1970-01-01T00:33:38Z</time>
      </trkpt>
      <trkpt lat="41.580444" lon="2.054222">
        <ele>326.00</ele>
        <time>1970-01-01T00:33:40Z</time>
      </trkpt>
      <trkpt lat="41.580444" lon="2.054161">
        <ele>326.20</ele>
        <time>1970-01-01T00:33:41Z</time>
      </trkpt>
      <trkpt lat="41.580450" lon="2.054034">
        <ele>326.60</ele>
        <time>1970-01-01T00:33:43Z</time>
      </trkpt>
      <trkpt lat="41.580469" lon="2.053909">
        <ele>327.20</ele>
        <time>1970-01-01T00:33:45Z</time>
      </trkpt>
      <trkpt lat="41.580495" lon="2.053841">
        <ele>327.40</ele>
        <time>1970-01-01T00:33:47Z</time>
      </trkpt>
      <trkpt lat="41.580519" lon="2.053764">
        <ele>327.70</ele>
        <time>1970-01-01T00:33:48Z</time>
      </trkpt>
      <trkpt lat="41.580548" lon="2.053654">
        <ele>328.00</ele>
        <time>1970-01-01T00:33:50Z</time>
      </trkpt>
      <trkpt lat="41.580569" lon="2.053576">
        <ele>328.30</ele>
        <time>1970-01-01T00:33:51Z</time>
      </trkpt>
      <trkpt lat="41.580591" lon="2.053496">
        <ele>328.70</ele>
        <time>1970-01-01T00:33:53Z</time>
      </trkpt>
      <trkpt lat="41.580607" lon="2.053444">
        <ele>329.00</ele>
        <time>1970-01-01T00:33:54Z</time>
      </trkpt>
      <trkpt lat="41.580625" lon="2.053384">
        <ele>329.30</ele>
        <time>1970-01-01T00:33:55Z</time>
      </trkpt>
      <trkpt lat="41.580641" lon="2.053302">
        <ele>329.80</ele>
        <time>1970-01-01T00:33:57Z</time>
      </trkpt>
      <trkpt lat="41.580647" lon="2.053248">
        <ele>330.10</ele>
        <time>1970-01-01T00:33:58Z</time>
      </trkpt>
      <trkpt lat="41.580655" lon="2.053198">
        <ele>330.40</ele>
        <time>1970-01-01T00:33:59Z</time>
      </trkpt>
      <trkpt lat="41.580671" lon="2.053136">
        <ele>330.80</ele>
        <time>1970-01-01T00:34:00Z</time>
      </trkpt>
      <trkpt lat="41.580696" lon="2.053089">
        <ele>331.20</ele>
        <time>1970-01-01T00:34:02Z</time>
      </trkpt>
      <trkpt lat="41.580720" lon="2.053032">
        <ele>331.70</ele>
        <time>1970-01-01T00:34:03Z</time>
      </trkpt>
      <trkpt lat="41.580750" lon="2.052959">
        <ele>332.30</ele>
        <time>1970-01-01T00:34:05Z</time>
      </trkpt>
      <trkpt lat="41.580764" lon="2.052919">
        <ele>332.70</ele>
        <time>1970-01-01T00:34:06Z</time>
      </trkpt>
      <trkpt lat="41.580777" lon="2.052882">
        <ele>333.10</ele>
        <time>1970-01-01T00:34:07Z</time>
      </trkpt>
      <trkpt lat="41.580788" lon="2.052846">
        <ele>333.50</ele>
        <time>1970-01-01T00:34:08Z</time>
      </trkpt>
      <trkpt lat="41.580801" lon="2.052806">
        <ele>333.90</ele>
        <time>1970-01-01T00:34:09Z</time>
      </trkpt>
      <trkpt lat="41.580814" lon="2.052759">
        <ele>334.40</ele>
        <time>1970-01-01T00:34:11Z</time>
      </trkpt>
      <trkpt lat="41.580825" lon="2.052721">
        <ele>334.80</ele>
        <time>1970-01-01T00:34:12Z</time>
      </trkpt>
      <trkpt lat="41.580845" lon="2.052663">
        <ele>335.30</ele>
        <time>1970-01-01T00:34:13Z</time>
      </trkpt>
      <trkpt lat="41.580864" lon="2.052613">
        <ele>335.80</ele>
        <time>1970-01-01T00:34:15Z</time>
      </trkpt>
      <trkpt lat="41.580879" lon="2.052548">
        <ele>336.30</ele>
        <time>1970-01-01T00:34:16Z</time>
      </trkpt>
      <trkpt lat="41.580886" lon="2.052484">
        <ele>336.80</ele>
        <time>1970-01-01T00:34:18Z</time>
      </trkpt>
      <trkpt lat="41.580902" lon="2.052431">
        <ele>337.10</ele>
        <time>1970-01-01T00:34:19Z</time>
      </trkpt>
      <trkpt lat="41.580923" lon="2.052385">
        <ele>337.40</ele>
        <time>1970-01-01T00:34:21Z</time>
      </trkpt>
      <trkpt lat="41.580943" lon="2.052344">
        <ele>337.60</ele>
        <time>1970-01-01T00:34:22Z</time>
      </trkpt>
      <trkpt lat="41.580968" lon="2.052278">
        <ele>337.80</ele>
        <time>1970-01-01T00:34:24Z</time>
      </trkpt>
      <trkpt lat="41.580979" lon="2.052236">
        <ele>338.00</ele>
        <time>1970-01-01T00:34:25Z</time>
      </trkpt>
      <trkpt lat="41.580991" lon="2.052190">
        <ele>338.10</ele>
        <time>1970-01-01T00:34:26Z</time>
      </trkpt>
      <trkpt lat="41.581009" lon="2.052143">
        <ele>338.10</ele>
        <time>1970-01-01T00:34:27Z</time>
      </trkpt>
      <trkpt lat="41.581044" lon="2.052071">
        <ele>338.20</ele>
        <time>1970-01-01T00:34:29Z</time>
      </trkpt>
      <trkpt lat="41.581083" lon="2.052001">
        <ele>338.20</ele>
        <time>1970-01-01T00:34:30Z</time>
      </trkpt>
      <trkpt lat="41.581120" lon="2.051945">
        <ele>338.20</ele>
        <time>1970-01-01T00:34:32Z</time>
      </trkpt>
      <trkpt lat="41.581151" lon="2.051906">
        <ele>338.20</ele>
        <time>1970-01-01T00:34:33Z</time>
      </trkpt>
      <trkpt lat="41.581184" lon="2.051861">
        <ele>338.20</ele>
        <time>1970-01-01T00:34:34Z</time>
      </trkpt>
      <trkpt lat="41.581225" lon="2.051807">
        <ele>338.20</ele>
        <time>1970-01-01T00:34:35Z</time>
      </trkpt>
      <trkpt lat="41.581269" lon="2.051753">
        <ele>338.20</ele>
        <time>1970-01-01T00:34:37Z</time>
      </trkpt>
      <trkpt lat="41.581305" lon="2.051716">
        <ele>338.20</ele>
        <time>1970-01-01T00:34:38Z</time>
      </trkpt>
      <trkpt lat="41.581351" lon="2.051672">
        <ele>338.30</ele>
        <time>1970-01-01T00:34:39Z</time>
      </trkpt>
      <trkpt lat="41.581389" lon="2.051639">
        <ele>338.30</ele>
        <time>1970-01-01T00:34:40Z</time>
      </trkpt>
      <trkpt lat="41.581432" lon="2.051609">
        <ele>338.30</ele>
        <time>1970-01-01T00:34:41Z</time>
      </trkpt>
      <trkpt lat="41.581494" lon="2.051571">
        <ele>338.40</ele>
        <time>1970-01-01T00:34:43Z</time>
      </trkpt>
      <trkpt lat="41.581542" lon="2.051531">
        <ele>338.40</ele>
        <time>1970-01-01T00:34:44Z</time>
      </trkpt>
      <trkpt lat="41.581595" lon="2.051482">
        <ele>338.50</ele>
        <time>1970-01-01T00:34:45Z</time>
      </trkpt>
      <trkpt lat="41.581630" lon="2.051449">
        <ele>338.60</ele>
        <time>1970-01-01T00:34:47Z</time>
      </trkpt>
      <trkpt lat="41.581675" lon="2.051403">
        <ele>338.70</ele>
        <time>1970-01-01T00:34:48Z</time>
      </trkpt>
      <trkpt lat="41.581716" lon="2.051355">
        <ele>338.80</ele>
        <time>1970-01-01T00:34:49Z</time>
      </trkpt>
      <trkpt lat="41.581749" lon="2.051313">
        <ele>338.90</ele>
        <time>1970-01-01T00:34:50Z</time>
      </trkpt>
      <trkpt lat="41.581788" lon="2.051267">
        <ele>339.00</ele>
        <time>1970-01-01T00:34:52Z</time>
      </trkpt>
      <trkpt lat="41.581823" lon="2.051220">
        <ele>339.10</ele>
        <time>1970-01-01T00:34:53Z</time>
      </trkpt>
      <trkpt lat="41.581859" lon="2.051173">
        <ele>339.30</ele>
        <time>1970-01-01T00:34:54Z</time>
      </trkpt>
      <trkpt lat="41.581888" lon="2.051135">
        <ele>339.40</ele>
        <time>1970-01-01T00:34:55Z</time>
      </trkpt>
      <trkpt lat="41.581936" lon="2.051049">
        <ele>339.70</ele>
        <time>1970-01-01T00:34:57Z</time>
      </trkpt>
      <trkpt lat="41.581962" lon="2.050995">
        <ele>339.90</ele>
        <time>1970-01-01T00:34:58Z</time>
      </trkpt>
      <trkpt lat="41.581987" lon="2.050939">
        <ele>340.10</ele>
        <time>1970-01-01T00:34:59Z</time>
      </trkpt>
      <trkpt lat="41.582011" lon="2.050883">
        <ele>340.30</ele>
        <time>1970-01-01T00:35:00Z</time>
      </trkpt>
      <trkpt lat="41.582030" lon="2.050828">
        <ele>340.50</ele>
        <time>1970-01-01T00:35:02Z</time>
      </trkpt>
      <trkpt lat="41.582052" lon="2.050771">
        <ele>340.70</ele>
        <time>1970-01-01T00:35:03Z</time>
      </trkpt>
      <trkpt lat="41.582073" lon="2.050730">
        <ele>340.90</ele>
        <time>1970-01-01T00:35:04Z</time>
      </trkpt>
      <trkpt lat="41.582110" lon="2.050667">
        <ele>341.10</ele>
        <time>1970-01-01T00:35:05Z</time>
      </trkpt>
      <trkpt lat="41.582151" lon="2.050591">
        <ele>341.40</ele>
        <time>1970-01-01T00:35:07Z</time>
      </trkpt>
      <trkpt lat="41.582176" lon="2.050541">
        <ele>341.50</ele>
        <time>1970-01-01T00:35:08Z</time>
      </trkpt>
      <trkpt lat="41.582200" lon="2.050497">
        <ele>341.70</ele>
        <time>1970-01-01T00:35:09Z</time>
      </trkpt>
      <trkpt lat="41.582243" lon="2.050428">
        <ele>341.90</ele>
        <time>1970-01-01T00:35:11Z</time>
      </trkpt>
      <trkpt lat="41.582279" lon="2.050374">
        <ele>342.10</ele>
        <time>1970-01-01T00:35:12Z</time>
      </trkpt>
      <trkpt lat="41.582307" lon="2.050327">
        <ele>342.30</ele>
        <time>1970-01-01T00:35:13Z</time>
      </trkpt>
      <trkpt lat="41.582341" lon="2.050273">
        <ele>342.50</ele>
        <time>1970-01-01T00:35:14Z</time>
      </trkpt>
      <trkpt lat="41.582380" lon="2.050215">
        <ele>342.80</ele>
        <time>1970-01-01T00:35:15Z</time>
      </trkpt>
      <trkpt lat="41.582406" lon="2.050183">
        <ele>342.90</ele>
        <time>1970-01-01T00:35:16Z</time>
      </trkpt>
      <trkpt lat="41.582432" lon="2.050150">
        <ele>343.10</ele>
        <time>1970-01-01T00:35:18Z</time>
      </trkpt>
      <trkpt lat="41.582460" lon="2.050108">
        <ele>343.30</ele>
        <time>1970-01-01T00:35:19Z</time>
      </trkpt>
      <trkpt lat="41.582503" lon="2.050031">
        <ele>343.70</ele>
        <time>1970-01-01T00:35:21Z</time>
      </trkpt>
      <trkpt lat="41.582527" lon="2.049986">
        <ele>343.80</ele>
        <time>1970-01-01T00:35:22Z</time>
      </trkpt>
      <trkpt lat="41.582560" lon="2.049917">
        <ele>344.10</ele>
        <time>1970-01-01T00:35:24Z</time>
      </trkpt>
      <trkpt lat="41.582586" lon="2.049870">
        <ele>344.30</ele>
        <time>1970-01-01T00:35:25Z</time>
      </trkpt>
      <trkpt lat="41.582620" lon="2.049826">
        <ele>344.50</ele>
        <time>1970-01-01T00:35:26Z</time>
      </trkpt>
      <trkpt lat="41.582656" lon="2.049780">
        <ele>344.80</ele>
        <time>1970-01-01T00:35:28Z</time>
      </trkpt>
      <trkpt lat="41.582708" lon="2.049725">
        <ele>345.10</ele>
        <time>1970-01-01T00:35:30Z</time>
      </trkpt>
      <trkpt lat="41.582752" lon="2.049681">
        <ele>345.30</ele>
        <time>1970-01-01T00:35:32Z</time>
      </trkpt>
      <trkpt lat="41.582781" lon="2.049647">
        <ele>345.50</ele>
        <time>1970-01-01T00:35:33Z</time>
      </trkpt>
      <trkpt lat="41.582814" lon="2.049605">
        <ele>345.70</ele>
        <time>1970-01-01T00:35:34Z</time>
      </trkpt>
      <trkpt lat="41.582846" lon="2.049565">
        <ele>345.90</ele>
        <time>1970-01-01T00:35:35Z</time>
      </trkpt>
      <trkpt lat="41.582875" lon="2.049529">
        <ele>346.10</ele>
        <time>1970-01-01T00:35:36Z</time>
      </trkpt>
      <trkpt lat="41.582911" lon="2.049482">
        <ele>346.30</ele>
        <time>1970-01-01T00:35:38Z</time>
      </trkpt>
      <trkpt lat="41.582966" lon="2.049412">
        <ele>346.60</ele>
        <time>1970-01-01T00:35:40Z</time>
      </trkpt>
      <trkpt lat="41.582993" lon="2.049369">
        <ele>346.80</ele>
        <time>1970-01-01T00:35:41Z</time>
      </trkpt>
      <trkpt lat="41.583017" lon="2.049333">
        <ele>346.90</ele>
        <time>1970-01-01T00:35:42Z</time>
      </trkpt>
      <trkpt lat="41.583062" lon="2.049274">
        <ele>347.20</ele>
        <time>1970-01-01T00:35:44Z</time>
      </trkpt>
      <trkpt lat="41.583083" lon="2.049238">
        <ele>347.30</ele>
        <time>1970-01-01T00:35:45Z</time>
      </trkpt>
      <trkpt lat="41.583114" lon="2.049199">
        <ele>347.50</ele>
        <time>1970-01-01T00:35:46Z</time>
      </trkpt>
      <trkpt lat="41.583142" lon="2.049166">
        <ele>347.60</ele>
        <time>1970-01-01T00:35:47Z</time>
      </trkpt>
      <trkpt lat="41.583192" lon="2.049097">
        <ele>347.90</ele>
        <time>1970-01-01T00:35:49Z</time>
      </trkpt>
      <trkpt lat="41.583236" lon="2.049040">
        <ele>348.10</ele>
        <time>1970-01-01T00:35:50Z</time>
      </trkpt>
      <trkpt lat="41.583272" lon="2.048993">
        <ele>348.30</ele>
        <time>1970-01-01T00:35:52Z</time>
      </trkpt>
      <trkpt lat="41.583302" lon="2.048958">
        <ele>348.40</ele>
        <time>1970-01-01T00:35:53Z</time>
      </trkpt>
      <trkpt lat="41.583333" lon="2.048920">
        <ele>348.60</ele>
        <time>1970-01-01T00:35:54Z</time>
      </trkpt>
      <trkpt lat="41.583378" lon="2.048870">
        <ele>348.80</ele>
        <time>1970-01-01T00:35:55Z</time>
      </trkpt>
      <trkpt lat="41.583424" lon="2.048821">
        <ele>349.00</ele>
        <time>1970-01-01T00:35:57Z</time>
      </trkpt>
      <trkpt lat="41.583460" lon="2.048790">
        <ele>349.20</ele>
        <time>1970-01-01T00:35:58Z</time>
      </trkpt>
      <trkpt lat="41.583492" lon="2.048759">
        <ele>349.30</ele>
        <time>1970-01-01T00:35:59Z</time>
      </trkpt>
      <trkpt lat="41.583542" lon="2.048714">
        <ele>349.60</ele>
        <time>1970-01-01T00:36:00Z</time>
      </trkpt>
      <trkpt lat="41.583584" lon="2.048676">
        <ele>349.70</ele>
        <time>1970-01-01T00:36:02Z</time>
      </trkpt>
      <trkpt lat="41.583622" lon="2.048644">
        <ele>349.90</ele>
        <time>1970-01-01T00:36:03Z</time>
      </trkpt>
      <trkpt lat="41.583659" lon="2.048615">
        <ele>350.00</ele>
        <time>1970-01-01T00:36:04Z</time>
      </trkpt>
      <trkpt lat="41.583706" lon="2.048575">
        <ele>350.20</ele>
        <time>1970-01-01T00:36:05Z</time>
      </trkpt>
      <trkpt lat="41.583737" lon="2.048549">
        <ele>350.30</ele>
        <time>1970-01-01T00:36:06Z</time>
      </trkpt>
      <trkpt lat="41.583783" lon="2.048509">
        <ele>350.50</ele>
        <time>1970-01-01T00:36:08Z</time>
      </trkpt>
      <trkpt lat="41.583816" lon="2.048481">
        <ele>350.70</ele>
        <time>1970-01-01T00:36:09Z</time>
      </trkpt>
      <trkpt lat="41.583850" lon="2.048449">
        <ele>350.80</ele>
        <time>1970-01-01T00:36:10Z</time>
      </trkpt>
      <trkpt lat="41.583894" lon="2.048413">
        <ele>350.90</ele>
        <time>1970-01-01T00:36:11Z</time>
      </trkpt>
      <trkpt lat="41.583931" lon="2.048383">
        <ele>351.00</ele>
        <time>1970-01-01T00:36:12Z</time>
      </trkpt>
      <trkpt lat="41.583971" lon="2.048343">
        <ele>351.20</ele>
        <time>1970-01-01T00:36:14Z</time>
      </trkpt>
      <trkpt lat="41.584010" lon="2.048303">
        <ele>351.30</ele>
        <time>1970-01-01T00:36:15Z</time>
      </trkpt>
      <trkpt lat="41.584043" lon="2.048273">
        <ele>351.40</ele>
        <time>1970-01-01T00:36:16Z</time>
      </trkpt>
      <trkpt lat="41.584076" lon="2.048246">
        <ele>351.50</ele>
        <time>1970-01-01T00:36:17Z</time>
      </trkpt>
      <trkpt lat="41.584128" lon="2.048204">
        <ele>351.60</ele>
        <time>1970-01-01T00:36:18Z</time>
      </trkpt>
      <trkpt lat="41.584169" lon="2.048166">
        <ele>351.70</ele>
        <time>1970-01-01T00:36:20Z</time>
      </trkpt>
      <trkpt lat="41.584213" lon="2.048126">
        <ele>351.80</ele>
        <time>1970-01-01T00:36:21Z</time>
      </trkpt>
      <trkpt lat="41.584249" lon="2.048096">
        <ele>351.90</ele>
        <time>1970-01-01T00:36:22Z</time>
      </trkpt>
      <trkpt lat="41.584288" lon="2.048062">
        <ele>352.00</ele>
        <time>1970-01-01T00:36:23Z</time>
      </trkpt>
      <trkpt lat="41.584344" lon="2.048011">
        <ele>352.10</ele>
        <time>1970-01-01T00:36:24Z</time>
      </trkpt>
      <trkpt lat="41.584381" lon="2.047976">
        <ele>352.20</ele>
        <time>1970-01-01T00:36:26Z</time>
      </trkpt>
      <trkpt lat="41.584417" lon="2.047940">
        <ele>352.30</ele>
        <time>1970-01-01T00:36:27Z</time>
      </trkpt>
      <trkpt lat="41.584462" lon="2.047899">
        <ele>352.40</ele>
        <time>1970-01-01T00:36:28Z</time>
      </trkpt>
      <trkpt lat="41.584507" lon="2.047852">
        <ele>352.50</ele>
        <time>1970-01-01T00:36:30Z</time>
      </trkpt>
      <trkpt lat="41.584539" lon="2.047820">
        <ele>352.60</ele>
        <time>1970-01-01T00:36:31Z</time>
      </trkpt>
      <trkpt lat="41.584569" lon="2.047787">
        <ele>352.70</ele>
        <time>1970-01-01T00:36:32Z</time>
      </trkpt>
      <trkpt lat="41.584611" lon="2.047747">
        <ele>352.90</ele>
        <time>1970-01-01T00:36:33Z</time>
      </trkpt>
      <trkpt lat="41.584645" lon="2.047718">
        <ele>353.00</ele>
        <time>1970-01-01T00:36:34Z</time>
      </trkpt>
      <trkpt lat="41.584688" lon="2.047685">
        <ele>353.10</ele>
        <time>1970-01-01T00:36:36Z</time>
      </trkpt>
      <trkpt lat="41.584734" lon="2.047651">
        <ele>353.30</ele>
        <time>1970-01-01T00:36:37Z</time>
      </trkpt>
      <trkpt lat="41.584774" lon="2.047624">
        <ele>353.50</ele>
        <time>1970-01-01T00:36:39Z</time>
      </trkpt>
      <trkpt lat="41.584804" lon="2.047608">
        <ele>353.60</ele>
        <time>1970-01-01T00:36:40Z</time>
      </trkpt>
      <trkpt lat="41.584841" lon="2.047591">
        <ele>353.70</ele>
        <time>1970-01-01T00:36:41Z</time>
      </trkpt>
      <trkpt lat="41.584879" lon="2.047576">
        <ele>353.90</ele>
        <time>1970-01-01T00:36:43Z</time>
      </trkpt>
      <trkpt lat="41.584908" lon="2.047562">
        <ele>354.00</ele>
        <time>1970-01-01T00:36:44Z</time>
      </trkpt>
      <trkpt lat="41.584942" lon="2.047543">
        <ele>354.20</ele>
        <time>1970-01-01T00:36:45Z</time>
      </trkpt>
      <trkpt lat="41.584982" lon="2.047521">
        <ele>354.40</ele>
        <time>1970-01-01T00:36:47Z</time>
      </trkpt>
      <trkpt lat="41.585017" lon="2.047514">
        <ele>354.50</ele>
        <time>1970-01-01T00:36:48Z</time>
      </trkpt>
      <trkpt lat="41.585024" lon="2.047512">
        <ele>354.60</ele>
        <time>1970-01-01T00:36:49Z</time>
      </trkpt>
      <trkpt lat="41.585037" lon="2.047509">
        <ele>354.60</ele>
        <time>1970-01-01T00:36:50Z</time>
      </trkpt>
      <trkpt lat="41.585056" lon="2.047493">
        <ele>354.70</ele>
        <time>1970-01-01T00:36:51Z</time>
      </trkpt>
      <trkpt lat="41.585068" lon="2.047458">
        <ele>354.90</ele>
        <time>1970-01-01T00:36:53Z</time>
      </trkpt>
      <trkpt lat="41.585065" lon="2.047429">
        <ele>355.00</ele>
        <time>1970-01-01T00:36:54Z</time>
      </trkpt>
      <trkpt lat="41.585048" lon="2.047402">
        <ele>355.10</ele>
        <time>1970-01-01T00:36:56Z</time>
      </trkpt>
      <trkpt lat="41.585038" lon="2.047390">
        <ele>355.20</ele>
        <time>1970-01-01T00:36:57Z</time>
      </trkpt>
      <trkpt lat="41.585030" lon="2.047385">
        <ele>355.30</ele>
        <time>1970-01-01T00:36:58Z</time>
      </trkpt>
      <trkpt lat="41.585027" lon="2.047385">
        <ele>355.30</ele>
        <time>1970-01-01T00:37:00Z</time>
      </trkpt>
      <trkpt lat="41.585034" lon="2.047389">
        <ele>355.20</ele>
        <time>1970-01-01T00:37:01Z</time>
      </trkpt>
      <trkpt lat="41.585038" lon="2.047390">
        <ele>355.20</ele>
        <time>1970-01-01T00:37:02Z</time>
      </trkpt>
      <trkpt lat="41.585042" lon="2.047392">
        <ele>355.20</ele>
        <time>1970-01-01T00:37:03Z</time>
      </trkpt>
      <trkpt lat="41.585051" lon="2.047404">
        <ele>355.20</ele>
        <time>1970-01-01T00:37:05Z</time>
      </trkpt>
      <trkpt lat="41.585057" lon="2.047414">
        <ele>355.20</ele>
        <time>1970-01-01T00:37:06Z</time>
      </trkpt>
      <trkpt lat="41.585059" lon="2.047415">
        <ele>355.20</ele>
        <time>1970-01-01T00:37:08Z</time>
      </trkpt>
      <trkpt lat="41.585060" lon="2.047415">
        <ele>355.20</ele>
        <time>1970-01-01T00:37:09Z</time>
      </trkpt>
      <trkpt lat="41.585062" lon="2.047413">
        <ele>355.20</ele>
        <time>1970-01-01T00:37:11Z</time>
      </trkpt>
      <trkpt lat="41.585065" lon="2.047414">
        <ele>355.20</ele>
        <time>1970-01-01T00:37:13Z</time>
      </trkpt>
      <trkpt lat="41.585066" lon="2.047414">
        <ele>355.20</ele>
        <time>1970-01-01T00:37:14Z</time>
      </trkpt>
      <trkpt lat="41.585066" lon="2.047414">
        <ele>355.20</ele>
        <time>1970-01-01T00:37:16Z</time>
      </trkpt>
      <trkpt lat="41.585066" lon="2.047414">
        <ele>355.20</ele>
        <time>1970-01-01T00:37:17Z</time>
      </trkpt>
      <trkpt lat="41.585066" lon="2.047415">
        <ele>355.20</ele>
        <time>1970-01-01T00:37:19Z</time>
      </trkpt>
      <trkpt lat="41.585065" lon="2.047416">
        <ele>355.20</ele>
        <time>1970-01-01T00:37:20Z</time>
      </trkpt>
      <trkpt lat="41.585063" lon="2.047416">
        <ele>355.20</ele>
        <time>1970-01-01T00:37:22Z</time>
      </trkpt>
      <trkpt lat="41.585059" lon="2.047420">
        <ele>355.20</ele>
        <time>1970-01-01T00:37:24Z</time>
      </trkpt>
      <trkpt lat="41.585059" lon="2.047429">
        <ele>355.20</ele>
        <time>1970-01-01T00:37:25Z</time>
      </trkpt>
      <trkpt lat="41.585067" lon="2.047437">
        <ele>355.20</ele>
        <time>1970-01-01T00:37:27Z</time>
      </trkpt>
      <trkpt lat="41.585066" lon="2.047438">
        <ele>355.20</ele>
        <time>1970-01-01T00:37:28Z</time>
      </trkpt>
      <trkpt lat="41.585066" lon="2.047440">
        <ele>355.20</ele>
        <time>1970-01-01T00:37:29Z</time>
      </trkpt>
      <trkpt lat="41.585064" lon="2.047440">
        <ele>355.20</ele>
        <time>1970-01-01T00:37:30Z</time>
      </trkpt>
      <trkpt lat="41.585061" lon="2.047442">
        <ele>355.20</ele>
        <time>1970-01-01T00:37:32Z</time>
      </trkpt>
      <trkpt lat="41.585058" lon="2.047443">
        <ele>355.20</ele>
        <time>1970-01-01T00:37:34Z</time>
      </trkpt>
      <trkpt lat="41.585056" lon="2.047445">
        <ele>355.20</ele>
        <time>1970-01-01T00:37:35Z</time>
      </trkpt>
      <trkpt lat="41.585055" lon="2.047454">
        <ele>355.20</ele>
        <time>1970-01-01T00:37:37Z</time>
      </trkpt>
      <trkpt lat="41.585053" lon="2.047466">
        <ele>355.20</ele>
        <time>1970-01-01T00:37:38Z</time>
      </trkpt>
      <trkpt lat="41.585049" lon="2.047472">
        <ele>355.20</ele>
        <time>1970-01-01T00:37:39Z</time>
      </trkpt>
      <trkpt lat="41.585044" lon="2.047473">
        <ele>355.20</ele>
        <time>1970-01-01T00:37:41Z</time>
      </trkpt>
      <trkpt lat="41.585042" lon="2.047474">
        <ele>355.20</ele>
        <time>1970-01-01T00:37:42Z</time>
      </trkpt>
      <trkpt lat="41.585039" lon="2.047475">
        <ele>355.20</ele>
        <time>1970-01-01T00:37:44Z</time>
      </trkpt>
      <trkpt lat="41.585037" lon="2.047477">
        <ele>355.20</ele>
        <time>1970-01-01T00:37:46Z</time>
      </trkpt>
      <trkpt lat="41.585036" lon="2.047478">
        <ele>355.20</ele>
        <time>1970-01-01T00:37:47Z</time>
      </trkpt>
      <trkpt lat="41.585030" lon="2.047472">
        <ele>355.20</ele>
        <time>1970-01-01T00:37:49Z</time>
      </trkpt>
      <trkpt lat="41.585031" lon="2.047468">
        <ele>355.20</ele>
        <time>1970-01-01T00:37:50Z</time>
      </trkpt>
      <trkpt lat="41.585031" lon="2.047465">
        <ele>355.20</ele>
        <time>1970-01-01T00:37:51Z</time>
      </trkpt>
      <trkpt lat="41.585032" lon="2.047460">
        <ele>355.20</ele>
        <time>1970-01-01T00:37:52Z</time>
      </trkpt>
      <trkpt lat="41.585032" lon="2.047457">
        <ele>355.20</ele>
        <time>1970-01-01T00:37:54Z</time>
      </trkpt>
      <trkpt lat="41.585031" lon="2.047455">
        <ele>355.20</ele>
        <time>1970-01-01T00:37:55Z</time>
      </trkpt>
      <trkpt lat="41.585031" lon="2.047453">
        <ele>355.20</ele>
        <time>1970-01-01T00:37:57Z</time>
      </trkpt>
      <trkpt lat="41.585034" lon="2.047452">
        <ele>355.20</ele>
        <time>1970-01-01T00:37:58Z</time>
      </trkpt>
      <trkpt lat="41.585035" lon="2.047453">
        <ele>355.20</ele>
        <time>1970-01-01T00:37:59Z</time>
      </trkpt>
      <trkpt lat="41.585035" lon="2.047461">
        <ele>355.20</ele>
        <time>1970-01-01T00:38:00Z</time>
      </trkpt>
      <trkpt lat="41.585034" lon="2.047473">
        <ele>355.10</ele>
        <time>1970-01-01T00:38:02Z</time>
      </trkpt>
      <trkpt lat="41.585037" lon="2.047478">
        <ele>355.10</ele>
        <time>1970-01-01T00:38:03Z</time>
      </trkpt>
      <trkpt lat="41.585031" lon="2.047471">
        <ele>355.10</ele>
        <time>1970-01-01T00:38:05Z</time>
      </trkpt>
      <trkpt lat="41.585028" lon="2.047469">
        <ele>355.10</ele>
        <time>1970-01-01T00:38:06Z</time>
      </trkpt>
      <trkpt lat="41.585023" lon="2.047468">
        <ele>355.10</ele>
        <time>1970-01-01T00:38:08Z</time>
      </trkpt>
      <trkpt lat="41.585020" lon="2.047468">
        <ele>355.10</ele>
        <time>1970-01-01T00:38:10Z</time>
      </trkpt>
      <trkpt lat="41.585017" lon="2.047469">
        <ele>355.10</ele>
        <time>1970-01-01T00:38:12Z</time>
      </trkpt>
      <trkpt lat="41.585016" lon="2.047469">
        <ele>355.10</ele>
        <time>1970-01-01T00:38:13Z</time>
      </trkpt>
      <trkpt lat="41.585017" lon="2.047466">
        <ele>355.10</ele>
        <time>1970-01-01T00:38:14Z</time>
      </trkpt>
      <trkpt lat="41.585020" lon="2.047456">
        <ele>355.10</ele>
        <time>1970-01-01T00:38:15Z</time>
      </trkpt>
      <trkpt lat="41.585022" lon="2.047446">
        <ele>355.10</ele>
        <time>1970-01-01T00:38:16Z</time>
      </trkpt>
      <trkpt lat="41.585025" lon="2.047429">
        <ele>355.10</ele>
        <time>1970-01-01T00:38:17Z</time>
      </trkpt>
      <trkpt lat="41.585019" lon="2.047429">
        <ele>355.10</ele>
        <time>1970-01-01T00:38:18Z</time>
      </trkpt>
      <trkpt lat="41.585015" lon="2.047430">
        <ele>355.10</ele>
        <time>1970-01-01T00:38:19Z</time>
      </trkpt>
      <trkpt lat="41.585014" lon="2.047433">
        <ele>355.10</ele>
        <time>1970-01-01T00:38:21Z</time>
      </trkpt>
      <trkpt lat="41.585011" lon="2.047446">
        <ele>355.00</ele>
        <time>1970-01-01T00:38:22Z</time>
      </trkpt>
      <trkpt lat="41.585011" lon="2.047458">
        <ele>355.00</ele>
        <time>1970-01-01T00:38:23Z</time>
      </trkpt>
      <trkpt lat="41.585012" lon="2.047472">
        <ele>355.00</ele>
        <time>1970-01-01T00:38:24Z</time>
      </trkpt>
      <trkpt lat="41.585015" lon="2.047484">
        <ele>355.00</ele>
        <time>1970-01-01T00:38:26Z</time>
      </trkpt>
      <trkpt lat="41.585017" lon="2.047487">
        <ele>355.00</ele>
        <time>1970-01-01T00:38:27Z</time>
      </trkpt>
      <trkpt lat="41.585019" lon="2.047489">
        <ele>355.00</ele>
        <time>1970-01-01T00:38:28Z</time>
      </trkpt>
      <trkpt lat="41.585021" lon="2.047493">
        <ele>355.00</ele>
        <time>1970-01-01T00:38:30Z</time>
      </trkpt>
      <trkpt lat="41.585022" lon="2.047495">
        <ele>355.00</ele>
        <time>1970-01-01T00:38:31Z</time>
      </trkpt>
      <trkpt lat="41.585022" lon="2.047496">
        <ele>355.00</ele>
        <time>1970-01-01T00:38:33Z</time>
      </trkpt>
      <trkpt lat="41.585023" lon="2.047496">
        <ele>355.00</ele>
        <time>1970-01-01T00:38:34Z</time>
      </trkpt>
      <trkpt lat="41.585023" lon="2.047497">
        <ele>355.00</ele>
        <time>1970-01-01T00:38:36Z</time>
      </trkpt>
      <trkpt lat="41.585023" lon="2.047498">
        <ele>355.00</ele>
        <time>1970-01-01T00:38:38Z</time>
      </trkpt>
      <trkpt lat="41.585024" lon="2.047498">
        <ele>355.00</ele>
        <time>1970-01-01T00:38:39Z</time>
      </trkpt>
      <trkpt lat="41.585026" lon="2.047499">
        <ele>355.00</ele>
        <time>1970-01-01T00:38:41Z</time>
      </trkpt>
      <trkpt lat="41.585027" lon="2.047498">
        <ele>355.00</ele>
        <time>1970-01-01T00:38:43Z</time>
      </trkpt>
      <trkpt lat="41.585028" lon="2.047496">
        <ele>355.00</ele>
        <time>1970-01-01T00:38:45Z</time>
      </trkpt>
      <trkpt lat="41.585024" lon="2.047491">
        <ele>355.00</ele>
        <time>1970-01-01T00:38:47Z</time>
      </trkpt>
      <trkpt lat="41.585023" lon="2.047490">
        <ele>355.00</ele>
        <time>1970-01-01T00:38:48Z</time>
      </trkpt>
      <trkpt lat="41.585023" lon="2.047492">
        <ele>355.00</ele>
        <time>1970-01-01T00:38:49Z</time>
      </trkpt>
      <trkpt lat="41.585037" lon="2.047499">
        <ele>354.90</ele>
        <time>1970-01-01T00:38:50Z</time>
      </trkpt>
      <trkpt lat="41.585043" lon="2.047524">
        <ele>354.90</ele>
        <time>1970-01-01T00:38:51Z</time>
      </trkpt>
      <trkpt lat="41.585047" lon="2.047554">
        <ele>354.90</ele>
        <time>1970-01-01T00:38:53Z</time>
      </trkpt>
      <trkpt lat="41.585060" lon="2.047581">
        <ele>354.80</ele>
        <time>1970-01-01T00:38:54Z</time>
      </trkpt>
      <trkpt lat="41.585082" lon="2.047619">
        <ele>354.80</ele>
        <time>1970-01-01T00:38:56Z</time>
      </trkpt>
      <trkpt lat="41.585107" lon="2.047675">
        <ele>354.70</ele>
        <time>1970-01-01T00:38:58Z</time>
      </trkpt>
      <trkpt lat="41.585122" lon="2.047719">
        <ele>354.60</ele>
        <time>1970-01-01T00:38:59Z</time>
      </trkpt>
      <trkpt lat="41.585139" lon="2.047781">
        <ele>354.50</ele>
        <time>1970-01-01T00:39:00Z</time>
      </trkpt>
      <trkpt lat="41.585156" lon="2.047856">
        <ele>354.50</ele>
        <time>1970-01-01T00:39:02Z</time>
      </trkpt>
      <trkpt lat="41.585173" lon="2.047909">
        <ele>354.40</ele>
        <time>1970-01-01T00:39:03Z</time>
      </trkpt>
      <trkpt lat="41.585189" lon="2.047971">
        <ele>354.40</ele>
        <time>1970-01-01T00:39:04Z</time>
      </trkpt>
      <trkpt lat="41.585206" lon="2.048030">
        <ele>354.30</ele>
        <time>1970-01-01T00:39:05Z</time>
      </trkpt>
      <trkpt lat="41.585228" lon="2.048092">
        <ele>354.30</ele>
        <time>1970-01-01T00:39:07Z</time>
      </trkpt>
      <trkpt lat="41.585250" lon="2.048164">
        <ele>354.30</ele>
        <time>1970-01-01T00:39:08Z</time>
      </trkpt>
      <trkpt lat="41.585265" lon="2.048216">
        <ele>354.40</ele>
        <time>1970-01-01T00:39:09Z</time>
      </trkpt>
      <trkpt lat="41.585280" lon="2.048279">
        <ele>354.40</ele>
        <time>1970-01-01T00:39:10Z</time>
      </trkpt>
      <trkpt lat="41.585307" lon="2.048384">
        <ele>354.40</ele>
        <time>1970-01-01T00:39:12Z</time>
      </trkpt>
      <trkpt lat="41.585318" lon="2.048478">
        <ele>354.40</ele>
        <time>1970-01-01T00:39:14Z</time>
      </trkpt>
      <trkpt lat="41.585332" lon="2.048561">
        <ele>354.50</ele>
        <time>1970-01-01T00:39:15Z</time>
      </trkpt>
      <trkpt lat="41.585339" lon="2.048628">
        <ele>354.50</ele>
        <time>1970-01-01T00:39:16Z</time>
      </trkpt>
      <trkpt lat="41.585348" lon="2.048688">
        <ele>354.60</ele>
        <time>1970-01-01T00:39:18Z</time>
      </trkpt>
      <trkpt lat="41.585356" lon="2.048749">
        <ele>354.60</ele>
        <time>1970-01-01T00:39:19Z</time>
      </trkpt>
      <trkpt lat="41.585367" lon="2.048826">
        <ele>354.60</ele>
        <time>1970-01-01T00:39:20Z</time>
      </trkpt>
      <trkpt lat="41.585386" lon="2.048916">
        <ele>354.70</ele>
        <time>1970-01-01T00:39:22Z</time>
      </trkpt>
      <trkpt lat="41.585398" lon="2.049008">
        <ele>354.60</ele>
        <time>1970-01-01T00:39:24Z</time>
      </trkpt>
      <trkpt lat="41.585420" lon="2.049065">
        <ele>354.60</ele>
        <time>1970-01-01T00:39:25Z</time>
      </trkpt>
      <trkpt lat="41.585445" lon="2.049105">
        <ele>354.50</ele>
        <time>1970-01-01T00:39:26Z</time>
      </trkpt>
      <trkpt lat="41.585477" lon="2.049135">
        <ele>354.40</ele>
        <time>1970-01-01T00:39:27Z</time>
      </trkpt>
      <trkpt lat="41.585525" lon="2.049177">
        <ele>354.10</ele>
        <time>1970-01-01T00:39:28Z</time>
      </trkpt>
      <trkpt lat="41.585567" lon="2.049214">
        <ele>353.90</ele>
        <time>1970-01-01T00:39:30Z</time>
      </trkpt>
      <trkpt lat="41.585626" lon="2.049270">
        <ele>353.50</ele>
        <time>1970-01-01T00:39:31Z</time>
      </trkpt>
      <trkpt lat="41.585702" lon="2.049355">
        <ele>352.70</ele>
        <time>1970-01-01T00:39:33Z</time>
      </trkpt>
      <trkpt lat="41.585813" lon="2.049443">
        <ele>351.50</ele>
        <time>1970-01-01T00:39:35Z</time>
      </trkpt>
      <trkpt lat="41.585888" lon="2.049469">
        <ele>350.90</ele>
        <time>1970-01-01T00:39:36Z</time>
      </trkpt>
      <trkpt lat="41.585967" lon="2.049484">
        <ele>350.30</ele>
        <time>1970-01-01T00:39:37Z</time>
      </trkpt>
      <trkpt lat="41.586141" lon="2.049521">
        <ele>349.20</ele>
        <time>1970-01-01T00:39:39Z</time>
      </trkpt>
      <trkpt lat="41.586303" lon="2.049570">
        <ele>348.60</ele>
        <time>1970-01-01T00:39:41Z</time>
      </trkpt>
      <trkpt lat="41.586384" lon="2.049595">
        <ele>348.40</ele>
        <time>1970-01-01T00:39:42Z</time>
      </trkpt>
      <trkpt lat="41.586530" lon="2.049670">
        <ele>348.10</ele>
        <time>1970-01-01T00:39:44Z</time>
      </trkpt>
      <trkpt lat="41.586647" lon="2.049804">
        <ele>348.10</ele>
        <time>1970-01-01T00:39:46Z</time>
      </trkpt>
      <trkpt lat="41.586685" lon="2.049886">
        <ele>348.10</ele>
        <time>1970-01-01T00:39:47Z</time>
      </trkpt>
      <trkpt lat="41.586715" lon="2.050038">
        <ele>348.40</ele>
        <time>1970-01-01T00:39:49Z</time>
      </trkpt>
      <trkpt lat="41.586724" lon="2.050104">
        <ele>348.50</ele>
        <time>1970-01-01T00:39:50Z</time>
      </trkpt>
      <trkpt lat="41.586732" lon="2.050161">
        <ele>348.60</ele>
        <time>1970-01-01T00:39:51Z</time>
      </trkpt>
      <trkpt lat="41.586751" lon="2.050247">
        <ele>348.80</ele>
        <time>1970-01-01T00:39:53Z</time>
      </trkpt>
      <trkpt lat="41.586773" lon="2.050329">
        <ele>349.00</ele>
        <time>1970-01-01T00:39:55Z</time>
      </trkpt>
      <trkpt lat="41.586765" lon="2.050442">
        <ele>348.40</ele>
        <time>1970-01-01T00:39:57Z</time>
      </trkpt>
      <trkpt lat="41.586686" lon="2.050581">
        <ele>347.70</ele>
        <time>1970-01-01T00:39:59Z</time>
      </trkpt>
      <trkpt lat="41.586637" lon="2.050641">
        <ele>347.40</ele>
        <time>1970-01-01T00:40:00Z</time>
      </trkpt>
      <trkpt lat="41.586597" lon="2.050698">
        <ele>347.20</ele>
        <time>1970-01-01T00:40:01Z</time>
      </trkpt>
      <trkpt lat="41.586512" lon="2.050804">
        <ele>346.80</ele>
        <time>1970-01-01T00:40:03Z</time>
      </trkpt>
      <trkpt lat="41.586426" lon="2.050921">
        <ele>346.40</ele>
        <time>1970-01-01T00:40:05Z</time>
      </trkpt>
      <trkpt lat="41.586359" lon="2.051057">
        <ele>346.00</ele>
        <time>1970-01-01T00:40:07Z</time>
      </trkpt>
      <trkpt lat="41.586303" lon="2.051189">
        <ele>345.70</ele>
        <time>1970-01-01T00:40:09Z</time>
      </trkpt>
      <trkpt lat="41.586239" lon="2.051305">
        <ele>345.30</ele>
        <time>1970-01-01T00:40:11Z</time>
      </trkpt>
      <trkpt lat="41.586172" lon="2.051422">
        <ele>344.90</ele>
        <time>1970-01-01T00:40:13Z</time>
      </trkpt>
      <trkpt lat="41.586140" lon="2.051481">
        <ele>344.60</ele>
        <time>1970-01-01T00:40:14Z</time>
      </trkpt>
      <trkpt lat="41.586112" lon="2.051543">
        <ele>344.40</ele>
        <time>1970-01-01T00:40:15Z</time>
      </trkpt>
      <trkpt lat="41.586069" lon="2.051673">
        <ele>343.80</ele>
        <time>1970-01-01T00:40:17Z</time>
      </trkpt>
      <trkpt lat="41.586023" lon="2.051806">
        <ele>343.30</ele>
        <time>1970-01-01T00:40:19Z</time>
      </trkpt>
      <trkpt lat="41.585997" lon="2.051877">
        <ele>343.00</ele>
        <time>1970-01-01T00:40:20Z</time>
      </trkpt>
      <trkpt lat="41.585972" lon="2.051950">
        <ele>342.70</ele>
        <time>1970-01-01T00:40:21Z</time>
      </trkpt>
      <trkpt lat="41.585913" lon="2.052088">
        <ele>342.00</ele>
        <time>1970-01-01T00:40:23Z</time>
      </trkpt>
      <trkpt lat="41.585878" lon="2.052158">
        <ele>341.70</ele>
        <time>1970-01-01T00:40:24Z</time>
      </trkpt>
      <trkpt lat="41.585840" lon="2.052226">
        <ele>341.40</ele>
        <time>1970-01-01T00:40:25Z</time>
      </trkpt>
      <trkpt lat="41.585802" lon="2.052294">
        <ele>341.10</ele>
        <time>1970-01-01T00:40:26Z</time>
      </trkpt>
      <trkpt lat="41.585726" lon="2.052431">
        <ele>340.50</ele>
        <time>1970-01-01T00:40:28Z</time>
      </trkpt>
      <trkpt lat="41.585639" lon="2.052574">
        <ele>340.00</ele>
        <time>1970-01-01T00:40:30Z</time>
      </trkpt>
      <trkpt lat="41.585601" lon="2.052651">
        <ele>339.70</ele>
        <time>1970-01-01T00:40:31Z</time>
      </trkpt>
      <trkpt lat="41.585560" lon="2.052813">
        <ele>339.20</ele>
        <time>1970-01-01T00:40:33Z</time>
      </trkpt>
      <trkpt lat="41.585559" lon="2.052979">
        <ele>338.80</ele>
        <time>1970-01-01T00:40:35Z</time>
      </trkpt>
      <trkpt lat="41.585556" lon="2.053053">
        <ele>338.60</ele>
        <time>1970-01-01T00:40:36Z</time>
      </trkpt>
      <trkpt lat="41.585489" lon="2.053169">
        <ele>338.20</ele>
        <time>1970-01-01T00:40:38Z</time>
      </trkpt>
      <trkpt lat="41.585444" lon="2.053226">
        <ele>338.00</ele>
        <time>1970-01-01T00:40:39Z</time>
      </trkpt>
      <trkpt lat="41.585406" lon="2.053287">
        <ele>337.80</ele>
        <time>1970-01-01T00:40:40Z</time>
      </trkpt>
      <trkpt lat="41.585351" lon="2.053415">
        <ele>337.40</ele>
        <time>1970-01-01T00:40:42Z</time>
      </trkpt>
      <trkpt lat="41.585295" lon="2.053555">
        <ele>337.00</ele>
        <time>1970-01-01T00:40:44Z</time>
      </trkpt>
      <trkpt lat="41.585276" lon="2.053636">
        <ele>336.70</ele>
        <time>1970-01-01T00:40:45Z</time>
      </trkpt>
      <trkpt lat="41.585250" lon="2.053798">
        <ele>336.30</ele>
        <time>1970-01-01T00:40:47Z</time>
      </trkpt>
      <trkpt lat="41.585239" lon="2.053874">
        <ele>336.20</ele>
        <time>1970-01-01T00:40:48Z</time>
      </trkpt>
      <trkpt lat="41.585198" lon="2.054025">
        <ele>335.90</ele>
        <time>1970-01-01T00:40:50Z</time>
      </trkpt>
      <trkpt lat="41.585164" lon="2.054201">
        <ele>335.60</ele>
        <time>1970-01-01T00:40:52Z</time>
      </trkpt>
      <trkpt lat="41.585148" lon="2.054292">
        <ele>335.60</ele>
        <time>1970-01-01T00:40:53Z</time>
      </trkpt>
      <trkpt lat="41.585120" lon="2.054470">
        <ele>335.60</ele>
        <time>1970-01-01T00:40:55Z</time>
      </trkpt>
      <trkpt lat="41.585111" lon="2.054549">
        <ele>335.60</ele>
        <time>1970-01-01T00:40:56Z</time>
      </trkpt>
      <trkpt lat="41.585095" lon="2.054703">
        <ele>335.70</ele>
        <time>1970-01-01T00:40:58Z</time>
      </trkpt>
      <trkpt lat="41.585096" lon="2.054771">
        <ele>335.70</ele>
        <time>1970-01-01T00:40:59Z</time>
      </trkpt>
      <trkpt lat="41.585107" lon="2.054826">
        <ele>335.70</ele>
        <time>1970-01-01T00:41:00Z</time>
      </trkpt>
      <trkpt lat="41.585116" lon="2.054865">
        <ele>335.70</ele>
        <time>1970-01-01T00:41:01Z</time>
      </trkpt>
      <trkpt lat="41.585119" lon="2.054906">
        <ele>335.70</ele>
        <time>1970-01-01T00:41:02Z</time>
      </trkpt>
      <trkpt lat="41.585106" lon="2.054980">
        <ele>335.70</ele>
        <time>1970-01-01T00:41:04Z</time>
      </trkpt>
      <trkpt lat="41.585090" lon="2.055028">
        <ele>335.60</ele>
        <time>1970-01-01T00:41:05Z</time>
      </trkpt>
      <trkpt lat="41.585071" lon="2.055079">
        <ele>335.60</ele>
        <time>1970-01-01T00:41:06Z</time>
      </trkpt>
      <trkpt lat="41.585004" lon="2.055240">
        <ele>335.50</ele>
        <time>1970-01-01T00:41:08Z</time>
      </trkpt>
      <trkpt lat="41.585003" lon="2.055287">
        <ele>335.40</ele>
        <time>1970-01-01T00:41:09Z</time>
      </trkpt>
      <trkpt lat="41.585002" lon="2.055337">
        <ele>335.40</ele>
        <time>1970-01-01T00:41:10Z</time>
      </trkpt>
      <trkpt lat="41.585001" lon="2.055385">
        <ele>335.40</ele>
        <time>1970-01-01T00:41:11Z</time>
      </trkpt>
      <trkpt lat="41.585012" lon="2.055487">
        <ele>335.50</ele>
        <time>1970-01-01T00:41:13Z</time>
      </trkpt>
      <trkpt lat="41.585020" lon="2.055547">
        <ele>335.50</ele>
        <time>1970-01-01T00:41:14Z</time>
      </trkpt>
      <trkpt lat="41.585023" lon="2.055593">
        <ele>335.50</ele>
        <time>1970-01-01T00:41:16Z</time>
      </trkpt>
      <trkpt lat="41.585024" lon="2.055641">
        <ele>335.50</ele>
        <time>1970-01-01T00:41:17Z</time>
      </trkpt>
      <trkpt lat="41.585020" lon="2.055742">
        <ele>335.60</ele>
        <time>1970-01-01T00:41:19Z</time>
      </trkpt>
      <trkpt lat="41.585021" lon="2.055815">
        <ele>335.60</ele>
        <time>1970-01-01T00:41:20Z</time>
      </trkpt>
      <trkpt lat="41.585016" lon="2.055881">
        <ele>335.60</ele>
        <time>1970-01-01T00:41:21Z</time>
      </trkpt>
      <trkpt lat="41.585016" lon="2.055935">
        <ele>335.50</ele>
        <time>1970-01-01T00:41:23Z</time>
      </trkpt>
      <trkpt lat="41.585021" lon="2.056003">
        <ele>335.50</ele>
        <time>1970-01-01T00:41:24Z</time>
      </trkpt>
      <trkpt lat="41.585024" lon="2.056054">
        <ele>335.50</ele>
        <time>1970-01-01T00:41:25Z</time>
      </trkpt>
      <trkpt lat="41.585023" lon="2.056130">
        <ele>335.40</ele>
        <time>1970-01-01T00:41:26Z</time>
      </trkpt>
      <trkpt lat="41.585015" lon="2.056212">
        <ele>335.40</ele>
        <time>1970-01-01T00:41:28Z</time>
      </trkpt>
      <trkpt lat="41.585007" lon="2.056274">
        <ele>335.40</ele>
        <time>1970-01-01T00:41:29Z</time>
      </trkpt>
      <trkpt lat="41.584998" lon="2.056377">
        <ele>335.30</ele>
        <time>1970-01-01T00:41:31Z</time>
      </trkpt>
      <trkpt lat="41.585000" lon="2.056463">
        <ele>335.30</ele>
        <time>1970-01-01T00:41:33Z</time>
      </trkpt>
      <trkpt lat="41.585012" lon="2.056498">
        <ele>335.30</ele>
        <time>1970-01-01T00:41:35Z</time>
      </trkpt>
      <trkpt lat="41.585023" lon="2.056511">
        <ele>335.30</ele>
        <time>1970-01-01T00:41:36Z</time>
      </trkpt>
      <trkpt lat="41.585044" lon="2.056512">
        <ele>335.30</ele>
        <time>1970-01-01T00:41:37Z</time>
      </trkpt>
      <trkpt lat="41.585081" lon="2.056509">
        <ele>335.30</ele>
        <time>1970-01-01T00:41:38Z</time>
      </trkpt>
      <trkpt lat="41.585094" lon="2.056510">
        <ele>335.30</ele>
        <time>1970-01-01T00:41:39Z</time>
      </trkpt>
      <trkpt lat="41.585116" lon="2.056509">
        <ele>335.20</ele>
        <time>1970-01-01T00:41:40Z</time>
      </trkpt>
      <trkpt lat="41.585153" lon="2.056522">
        <ele>335.00</ele>
        <time>1970-01-01T00:41:42Z</time>
      </trkpt>
      <trkpt lat="41.585186" lon="2.056583">
        <ele>334.70</ele>
        <time>1970-01-01T00:41:44Z</time>
      </trkpt>
      <trkpt lat="41.585213" lon="2.056625">
        <ele>334.40</ele>
        <time>1970-01-01T00:41:45Z</time>
      </trkpt>
      <trkpt lat="41.585295" lon="2.056735">
        <ele>333.60</ele>
        <time>1970-01-01T00:41:47Z</time>
      </trkpt>
      <trkpt lat="41.585362" lon="2.056874">
        <ele>332.90</ele>
        <time>1970-01-01T00:41:49Z</time>
      </trkpt>
      <trkpt lat="41.585387" lon="2.056950">
        <ele>332.60</ele>
        <time>1970-01-01T00:41:50Z</time>
      </trkpt>
      <trkpt lat="41.585412" lon="2.057020">
        <ele>332.40</ele>
        <time>1970-01-01T00:41:51Z</time>
      </trkpt>
      <trkpt lat="41.585442" lon="2.057087">
        <ele>332.20</ele>
        <time>1970-01-01T00:41:52Z</time>
      </trkpt>
      <trkpt lat="41.585518" lon="2.057191">
        <ele>331.90</ele>
        <time>1970-01-01T00:41:54Z</time>
      </trkpt>
      <trkpt lat="41.585555" lon="2.057242">
        <ele>331.80</ele>
        <time>1970-01-01T00:41:55Z</time>
      </trkpt>
      <trkpt lat="41.585593" lon="2.057291">
        <ele>331.70</ele>
        <time>1970-01-01T00:41:56Z</time>
      </trkpt>
      <trkpt lat="41.585635" lon="2.057335">
        <ele>331.60</ele>
        <time>1970-01-01T00:41:57Z</time>
      </trkpt>
      <trkpt lat="41.585709" lon="2.057436">
        <ele>331.50</ele>
        <time>1970-01-01T00:41:59Z</time>
      </trkpt>
      <trkpt lat="41.585717" lon="2.057571">
        <ele>331.40</ele>
        <time>1970-01-01T00:42:01Z</time>
      </trkpt>
      <trkpt lat="41.585678" lon="2.057693">
        <ele>331.40</ele>
        <time>1970-01-01T00:42:03Z</time>
      </trkpt>
      <trkpt lat="41.585636" lon="2.057781">
        <ele>331.30</ele>
        <time>1970-01-01T00:42:05Z</time>
      </trkpt>
      <trkpt lat="41.585606" lon="2.057886">
        <ele>331.20</ele>
        <time>1970-01-01T00:42:07Z</time>
      </trkpt>
      <trkpt lat="41.585595" lon="2.057934">
        <ele>331.20</ele>
        <time>1970-01-01T00:42:08Z</time>
      </trkpt>
      <trkpt lat="41.585601" lon="2.058002">
        <ele>331.20</ele>
        <time>1970-01-01T00:42:10Z</time>
      </trkpt>
      <trkpt lat="41.585586" lon="2.058081">
        <ele>331.10</ele>
        <time>1970-01-01T00:42:11Z</time>
      </trkpt>
      <trkpt lat="41.585579" lon="2.058140">
        <ele>331.10</ele>
        <time>1970-01-01T00:42:13Z</time>
      </trkpt>
      <trkpt lat="41.585576" lon="2.058194">
        <ele>331.10</ele>
        <time>1970-01-01T00:42:14Z</time>
      </trkpt>
      <trkpt lat="41.585572" lon="2.058250">
        <ele>331.10</ele>
        <time>1970-01-01T00:42:15Z</time>
      </trkpt>
      <trkpt lat="41.585559" lon="2.058311">
        <ele>331.10</ele>
        <time>1970-01-01T00:42:16Z</time>
      </trkpt>
      <trkpt lat="41.585531" lon="2.058364">
        <ele>331.10</ele>
        <time>1970-01-01T00:42:17Z</time>
      </trkpt>
      <trkpt lat="41.585504" lon="2.058430">
        <ele>331.00</ele>
        <time>1970-01-01T00:42:19Z</time>
      </trkpt>
      <trkpt lat="41.585473" lon="2.058467">
        <ele>330.90</ele>
        <time>1970-01-01T00:42:20Z</time>
      </trkpt>
      <trkpt lat="41.585433" lon="2.058520">
        <ele>330.70</ele>
        <time>1970-01-01T00:42:22Z</time>
      </trkpt>
      <trkpt lat="41.585400" lon="2.058569">
        <ele>330.50</ele>
        <time>1970-01-01T00:42:23Z</time>
      </trkpt>
      <trkpt lat="41.585367" lon="2.058618">
        <ele>330.20</ele>
        <time>1970-01-01T00:42:24Z</time>
      </trkpt>
      <trkpt lat="41.585337" lon="2.058692">
        <ele>329.90</ele>
        <time>1970-01-01T00:42:25Z</time>
      </trkpt>
      <trkpt lat="41.585326" lon="2.058784">
        <ele>329.50</ele>
        <time>1970-01-01T00:42:27Z</time>
      </trkpt>
      <trkpt lat="41.585376" lon="2.058876">
        <ele>329.00</ele>
        <time>1970-01-01T00:42:29Z</time>
      </trkpt>
      <trkpt lat="41.585407" lon="2.058893">
        <ele>328.90</ele>
        <time>1970-01-01T00:42:30Z</time>
      </trkpt>
      <trkpt lat="41.585438" lon="2.058952">
        <ele>328.60</ele>
        <time>1970-01-01T00:42:31Z</time>
      </trkpt>
      <trkpt lat="41.585468" lon="2.059024">
        <ele>328.40</ele>
        <time>1970-01-01T00:42:32Z</time>
      </trkpt>
      <trkpt lat="41.585488" lon="2.059106">
        <ele>328.20</ele>
        <time>1970-01-01T00:42:33Z</time>
      </trkpt>
      <trkpt lat="41.585483" lon="2.059164">
        <ele>328.10</ele>
        <time>1970-01-01T00:42:35Z</time>
      </trkpt>
      <trkpt lat="41.585475" lon="2.059239">
        <ele>328.00</ele>
        <time>1970-01-01T00:42:36Z</time>
      </trkpt>
      <trkpt lat="41.585469" lon="2.059298">
        <ele>327.90</ele>
        <time>1970-01-01T00:42:37Z</time>
      </trkpt>
      <trkpt lat="41.585468" lon="2.059351">
        <ele>327.80</ele>
        <time>1970-01-01T00:42:38Z</time>
      </trkpt>
      <trkpt lat="41.585500" lon="2.059420">
        <ele>327.60</ele>
        <time>1970-01-01T00:42:40Z</time>
      </trkpt>
      <trkpt lat="41.585545" lon="2.059439">
        <ele>327.50</ele>
        <time>1970-01-01T00:42:41Z</time>
      </trkpt>
      <trkpt lat="41.585644" lon="2.059452">
        <ele>327.20</ele>
        <time>1970-01-01T00:42:43Z</time>
      </trkpt>
      <trkpt lat="41.585684" lon="2.059468">
        <ele>327.10</ele>
        <time>1970-01-01T00:42:44Z</time>
      </trkpt>
      <trkpt lat="41.585774" lon="2.059520">
        <ele>327.00</ele>
        <time>1970-01-01T00:42:46Z</time>
      </trkpt>
      <trkpt lat="41.585860" lon="2.059552">
        <ele>326.90</ele>
        <time>1970-01-01T00:42:48Z</time>
      </trkpt>
      <trkpt lat="41.585909" lon="2.059590">
        <ele>326.90</ele>
        <time>1970-01-01T00:42:49Z</time>
      </trkpt>
      <trkpt lat="41.585952" lon="2.059613">
        <ele>326.90</ele>
        <time>1970-01-01T00:42:50Z</time>
      </trkpt>
      <trkpt lat="41.585981" lon="2.059633">
        <ele>326.90</ele>
        <time>1970-01-01T00:42:51Z</time>
      </trkpt>
      <trkpt lat="41.585987" lon="2.059656">
        <ele>326.90</ele>
        <time>1970-01-01T00:42:52Z</time>
      </trkpt>
      <trkpt lat="41.586053" lon="2.059686">
        <ele>327.00</ele>
        <time>1970-01-01T00:42:54Z</time>
      </trkpt>
      <trkpt lat="41.586107" lon="2.059714">
        <ele>327.00</ele>
        <time>1970-01-01T00:42:55Z</time>
      </trkpt>
      <trkpt lat="41.586175" lon="2.059753">
        <ele>327.10</ele>
        <time>1970-01-01T00:42:57Z</time>
      </trkpt>
      <trkpt lat="41.586223" lon="2.059784">
        <ele>327.20</ele>
        <time>1970-01-01T00:42:58Z</time>
      </trkpt>
      <trkpt lat="41.586278" lon="2.059817">
        <ele>327.40</ele>
        <time>1970-01-01T00:42:59Z</time>
      </trkpt>
      <trkpt lat="41.586322" lon="2.059860">
        <ele>327.60</ele>
        <time>1970-01-01T00:43:01Z</time>
      </trkpt>
      <trkpt lat="41.586349" lon="2.059959">
        <ele>327.80</ele>
        <time>1970-01-01T00:43:03Z</time>
      </trkpt>
      <trkpt lat="41.586335" lon="2.060025">
        <ele>328.00</ele>
        <time>1970-01-01T00:43:04Z</time>
      </trkpt>
      <trkpt lat="41.586303" lon="2.060075">
        <ele>328.20</ele>
        <time>1970-01-01T00:43:05Z</time>
      </trkpt>
      <trkpt lat="41.586271" lon="2.060117">
        <ele>328.30</ele>
        <time>1970-01-01T00:43:06Z</time>
      </trkpt>
      <trkpt lat="41.586241" lon="2.060155">
        <ele>328.40</ele>
        <time>1970-01-01T00:43:07Z</time>
      </trkpt>
      <trkpt lat="41.586209" lon="2.060201">
        <ele>328.50</ele>
        <time>1970-01-01T00:43:08Z</time>
      </trkpt>
      <trkpt lat="41.586182" lon="2.060241">
        <ele>328.50</ele>
        <time>1970-01-01T00:43:10Z</time>
      </trkpt>
      <trkpt lat="41.586164" lon="2.060303">
        <ele>328.50</ele>
        <time>1970-01-01T00:43:11Z</time>
      </trkpt>
      <trkpt lat="41.586156" lon="2.060351">
        <ele>328.40</ele>
        <time>1970-01-01T00:43:12Z</time>
      </trkpt>
      <trkpt lat="41.586156" lon="2.060400">
        <ele>328.40</ele>
        <time>1970-01-01T00:43:13Z</time>
      </trkpt>
      <trkpt lat="41.586153" lon="2.060500">
        <ele>328.30</ele>
        <time>1970-01-01T00:43:15Z</time>
      </trkpt>
      <trkpt lat="41.586147" lon="2.060566">
        <ele>328.20</ele>
        <time>1970-01-01T00:43:16Z</time>
      </trkpt>
      <trkpt lat="41.586140" lon="2.060625">
        <ele>328.10</ele>
        <time>1970-01-01T00:43:17Z</time>
      </trkpt>
      <trkpt lat="41.586120" lon="2.060702">
        <ele>328.00</ele>
        <time>1970-01-01T00:43:18Z</time>
      </trkpt>
      <trkpt lat="41.586091" lon="2.060760">
        <ele>327.90</ele>
        <time>1970-01-01T00:43:20Z</time>
      </trkpt>
      <trkpt lat="41.586051" lon="2.060822">
        <ele>327.80</ele>
        <time>1970-01-01T00:43:21Z</time>
      </trkpt>
      <trkpt lat="41.586022" lon="2.060870">
        <ele>327.70</ele>
        <time>1970-01-01T00:43:22Z</time>
      </trkpt>
      <trkpt lat="41.585982" lon="2.060933">
        <ele>327.50</ele>
        <time>1970-01-01T00:43:23Z</time>
      </trkpt>
      <trkpt lat="41.585932" lon="2.061023">
        <ele>327.30</ele>
        <time>1970-01-01T00:43:25Z</time>
      </trkpt>
      <trkpt lat="41.585902" lon="2.061081">
        <ele>327.20</ele>
        <time>1970-01-01T00:43:26Z</time>
      </trkpt>
      <trkpt lat="41.585856" lon="2.061195">
        <ele>327.10</ele>
        <time>1970-01-01T00:43:28Z</time>
      </trkpt>
      <trkpt lat="41.585837" lon="2.061258">
        <ele>327.00</ele>
        <time>1970-01-01T00:43:29Z</time>
      </trkpt>
      <trkpt lat="41.585804" lon="2.061389">
        <ele>326.70</ele>
        <time>1970-01-01T00:43:31Z</time>
      </trkpt>
      <trkpt lat="41.585778" lon="2.061438">
        <ele>326.60</ele>
        <time>1970-01-01T00:43:32Z</time>
      </trkpt>
      <trkpt lat="41.585736" lon="2.061425">
        <ele>326.40</ele>
        <time>1970-01-01T00:43:34Z</time>
      </trkpt>
      <trkpt lat="41.585696" lon="2.061540">
        <ele>326.00</ele>
        <time>1970-01-01T00:43:35Z</time>
      </trkpt>
      <trkpt lat="41.585674" lon="2.061676">
        <ele>325.50</ele>
        <time>1970-01-01T00:43:37Z</time>
      </trkpt>
      <trkpt lat="41.585663" lon="2.061745">
        <ele>325.30</ele>
        <time>1970-01-01T00:43:38Z</time>
      </trkpt>
      <trkpt lat="41.585645" lon="2.061801">
        <ele>325.00</ele>
        <time>1970-01-01T00:43:39Z</time>
      </trkpt>
      <trkpt lat="41.585620" lon="2.061853">
        <ele>324.70</ele>
        <time>1970-01-01T00:43:40Z</time>
      </trkpt>
      <trkpt lat="41.585563" lon="2.061958">
        <ele>324.00</ele>
        <time>1970-01-01T00:43:42Z</time>
      </trkpt>
      <trkpt lat="41.585536" lon="2.062012">
        <ele>323.60</ele>
        <time>1970-01-01T00:43:43Z</time>
      </trkpt>
      <trkpt lat="41.585512" lon="2.062069">
        <ele>323.30</ele>
        <time>1970-01-01T00:43:44Z</time>
      </trkpt>
      <trkpt lat="41.585463" lon="2.062225">
        <ele>322.40</ele>
        <time>1970-01-01T00:43:46Z</time>
      </trkpt>
      <trkpt lat="41.585437" lon="2.062316">
        <ele>321.90</ele>
        <time>1970-01-01T00:43:47Z</time>
      </trkpt>
      <trkpt lat="41.585380" lon="2.062508">
        <ele>321.30</ele>
        <time>1970-01-01T00:43:49Z</time>
      </trkpt>
      <trkpt lat="41.585337" lon="2.062585">
        <ele>321.20</ele>
        <time>1970-01-01T00:43:50Z</time>
      </trkpt>
      <trkpt lat="41.585209" lon="2.062662">
        <ele>321.20</ele>
        <time>1970-01-01T00:43:52Z</time>
      </trkpt>
      <trkpt lat="41.585101" lon="2.062639">
        <ele>321.20</ele>
        <time>1970-01-01T00:43:54Z</time>
      </trkpt>
      <trkpt lat="41.585026" lon="2.062558">
        <ele>321.10</ele>
        <time>1970-01-01T00:43:56Z</time>
      </trkpt>
      <trkpt lat="41.584979" lon="2.062489">
        <ele>321.00</ele>
        <time>1970-01-01T00:43:58Z</time>
      </trkpt>
      <trkpt lat="41.584923" lon="2.062430">
        <ele>320.90</ele>
        <time>1970-01-01T00:44:00Z</time>
      </trkpt>
      <trkpt lat="41.584873" lon="2.062400">
        <ele>320.80</ele>
        <time>1970-01-01T00:44:01Z</time>
      </trkpt>
      <trkpt lat="41.584768" lon="2.062379">
        <ele>320.40</ele>
        <time>1970-01-01T00:44:03Z</time>
      </trkpt>
      <trkpt lat="41.584640" lon="2.062418">
        <ele>319.80</ele>
        <time>1970-01-01T00:44:05Z</time>
      </trkpt>
      <trkpt lat="41.584556" lon="2.062510">
        <ele>319.20</ele>
        <time>1970-01-01T00:44:07Z</time>
      </trkpt>
      <trkpt lat="41.584529" lon="2.062563">
        <ele>319.00</ele>
        <time>1970-01-01T00:44:08Z</time>
      </trkpt>
      <trkpt lat="41.584528" lon="2.062628">
        <ele>318.70</ele>
        <time>1970-01-01T00:44:09Z</time>
      </trkpt>
      <trkpt lat="41.584499" lon="2.062697">
        <ele>318.40</ele>
        <time>1970-01-01T00:44:11Z</time>
      </trkpt>
      <trkpt lat="41.584458" lon="2.062792">
        <ele>318.00</ele>
        <time>1970-01-01T00:44:12Z</time>
      </trkpt>
      <trkpt lat="41.584419" lon="2.062918">
        <ele>317.60</ele>
        <time>1970-01-01T00:44:14Z</time>
      </trkpt>
      <trkpt lat="41.584402" lon="2.062963">
        <ele>317.40</ele>
        <time>1970-01-01T00:44:15Z</time>
      </trkpt>
      <trkpt lat="41.584396" lon="2.063012">
        <ele>317.20</ele>
        <time>1970-01-01T00:44:16Z</time>
      </trkpt>
      <trkpt lat="41.584398" lon="2.063102">
        <ele>317.00</ele>
        <time>1970-01-01T00:44:18Z</time>
      </trkpt>
      <trkpt lat="41.584384" lon="2.063236">
        <ele>316.60</ele>
        <time>1970-01-01T00:44:20Z</time>
      </trkpt>
      <trkpt lat="41.584367" lon="2.063375">
        <ele>316.30</ele>
        <time>1970-01-01T00:44:22Z</time>
      </trkpt>
      <trkpt lat="41.584343" lon="2.063510">
        <ele>316.00</ele>
        <time>1970-01-01T00:44:24Z</time>
      </trkpt>
      <trkpt lat="41.584340" lon="2.063579">
        <ele>315.80</ele>
        <time>1970-01-01T00:44:25Z</time>
      </trkpt>
      <trkpt lat="41.584358" lon="2.063697">
        <ele>315.60</ele>
        <time>1970-01-01T00:44:27Z</time>
      </trkpt>
      <trkpt lat="41.584361" lon="2.063815">
        <ele>315.40</ele>
        <time>1970-01-01T00:44:29Z</time>
      </trkpt>
      <trkpt lat="41.584367" lon="2.063941">
        <ele>315.10</ele>
        <time>1970-01-01T00:44:31Z</time>
      </trkpt>
      <trkpt lat="41.584360" lon="2.064034">
        <ele>314.90</ele>
        <time>1970-01-01T00:44:33Z</time>
      </trkpt>
      <trkpt lat="41.584358" lon="2.064073">
        <ele>314.80</ele>
        <time>1970-01-01T00:44:34Z</time>
      </trkpt>
      <trkpt lat="41.584355" lon="2.064116">
        <ele>314.70</ele>
        <time>1970-01-01T00:44:35Z</time>
      </trkpt>
      <trkpt lat="41.584340" lon="2.064232">
        <ele>314.40</ele>
        <time>1970-01-01T00:44:37Z</time>
      </trkpt>
      <trkpt lat="41.584329" lon="2.064267">
        <ele>314.30</ele>
        <time>1970-01-01T00:44:38Z</time>
      </trkpt>
      <trkpt lat="41.584306" lon="2.064345">
        <ele>314.10</ele>
        <time>1970-01-01T00:44:39Z</time>
      </trkpt>
      <trkpt lat="41.584284" lon="2.064454">
        <ele>313.80</ele>
        <time>1970-01-01T00:44:41Z</time>
      </trkpt>
      <trkpt lat="41.584250" lon="2.064583">
        <ele>313.40</ele>
        <time>1970-01-01T00:44:43Z</time>
      </trkpt>
      <trkpt lat="41.584224" lon="2.064641">
        <ele>313.30</ele>
        <time>1970-01-01T00:44:44Z</time>
      </trkpt>
      <trkpt lat="41.584194" lon="2.064694">
        <ele>313.10</ele>
        <time>1970-01-01T00:44:45Z</time>
      </trkpt>
      <trkpt lat="41.584128" lon="2.064802">
        <ele>312.80</ele>
        <time>1970-01-01T00:44:47Z</time>
      </trkpt>
      <trkpt lat="41.584067" lon="2.064927">
        <ele>312.50</ele>
        <time>1970-01-01T00:44:49Z</time>
      </trkpt>
      <trkpt lat="41.584035" lon="2.064993">
        <ele>312.40</ele>
        <time>1970-01-01T00:44:50Z</time>
      </trkpt>
      <trkpt lat="41.583967" lon="2.065095">
        <ele>312.20</ele>
        <time>1970-01-01T00:44:52Z</time>
      </trkpt>
      <trkpt lat="41.583927" lon="2.065168">
        <ele>312.10</ele>
        <time>1970-01-01T00:44:54Z</time>
      </trkpt>
      <trkpt lat="41.583907" lon="2.065263">
        <ele>312.00</ele>
        <time>1970-01-01T00:44:56Z</time>
      </trkpt>
      <trkpt lat="41.583910" lon="2.065358">
        <ele>311.90</ele>
        <time>1970-01-01T00:44:58Z</time>
      </trkpt>
      <trkpt lat="41.583913" lon="2.065410">
        <ele>311.90</ele>
        <time>1970-01-01T00:44:59Z</time>
      </trkpt>
      <trkpt lat="41.583998" lon="2.065448">
        <ele>311.80</ele>
        <time>1970-01-01T00:45:00Z</time>
      </trkpt>
      <trkpt lat="41.583975" lon="2.065515">
        <ele>311.70</ele>
        <time>1970-01-01T00:45:02Z</time>
      </trkpt>
      <trkpt lat="41.583936" lon="2.065572">
        <ele>311.70</ele>
        <time>1970-01-01T00:45:03Z</time>
      </trkpt>
      <trkpt lat="41.583892" lon="2.065605">
        <ele>311.50</ele>
        <time>1970-01-01T00:45:04Z</time>
      </trkpt>
      <trkpt lat="41.583865" lon="2.065639">
        <ele>311.40</ele>
        <time>1970-01-01T00:45:05Z</time>
      </trkpt>
      <trkpt lat="41.583851" lon="2.065672">
        <ele>311.30</ele>
        <time>1970-01-01T00:45:07Z</time>
      </trkpt>
      <trkpt lat="41.583843" lon="2.065716">
        <ele>311.20</ele>
        <time>1970-01-01T00:45:08Z</time>
      </trkpt>
      <trkpt lat="41.583843" lon="2.065763">
        <ele>311.10</ele>
        <time>1970-01-01T00:45:09Z</time>
      </trkpt>
      <trkpt lat="41.583843" lon="2.065780">
        <ele>311.10</ele>
        <time>1970-01-01T00:45:10Z</time>
      </trkpt>
      <trkpt lat="41.583846" lon="2.065818">
        <ele>311.00</ele>
        <time>1970-01-01T00:45:12Z</time>
      </trkpt>
      <trkpt lat="41.583856" lon="2.065853">
        <ele>310.90</ele>
        <time>1970-01-01T00:45:13Z</time>
      </trkpt>
      <trkpt lat="41.583860" lon="2.065895">
        <ele>310.80</ele>
        <time>1970-01-01T00:45:14Z</time>
      </trkpt>
      <trkpt lat="41.583861" lon="2.065932">
        <ele>310.70</ele>
        <time>1970-01-01T00:45:16Z</time>
      </trkpt>
      <trkpt lat="41.583867" lon="2.065976">
        <ele>310.60</ele>
        <time>1970-01-01T00:45:17Z</time>
      </trkpt>
      <trkpt lat="41.583874" lon="2.066015">
        <ele>310.50</ele>
        <time>1970-01-01T00:45:18Z</time>
      </trkpt>
      <trkpt lat="41.583883" lon="2.066056">
        <ele>310.40</ele>
        <time>1970-01-01T00:45:19Z</time>
      </trkpt>
      <trkpt lat="41.583892" lon="2.066098">
        <ele>310.30</ele>
        <time>1970-01-01T00:45:21Z</time>
      </trkpt>
      <trkpt lat="41.583905" lon="2.066152">
        <ele>310.20</ele>
        <time>1970-01-01T00:45:22Z</time>
      </trkpt>
      <trkpt lat="41.583922" lon="2.066216">
        <ele>310.00</ele>
        <time>1970-01-01T00:45:24Z</time>
      </trkpt>
      <trkpt lat="41.583934" lon="2.066272">
        <ele>309.90</ele>
        <time>1970-01-01T00:45:25Z</time>
      </trkpt>
      <trkpt lat="41.583952" lon="2.066338">
        <ele>309.70</ele>
        <time>1970-01-01T00:45:27Z</time>
      </trkpt>
      <trkpt lat="41.583966" lon="2.066384">
        <ele>309.60</ele>
        <time>1970-01-01T00:45:28Z</time>
      </trkpt>
      <trkpt lat="41.583976" lon="2.066432">
        <ele>309.50</ele>
        <time>1970-01-01T00:45:29Z</time>
      </trkpt>
      <trkpt lat="41.583989" lon="2.066482">
        <ele>309.40</ele>
        <time>1970-01-01T00:45:30Z</time>
      </trkpt>
      <trkpt lat="41.584009" lon="2.066556">
        <ele>309.20</ele>
        <time>1970-01-01T00:45:31Z</time>
      </trkpt>
      <trkpt lat="41.584030" lon="2.066626">
        <ele>309.00</ele>
        <time>1970-01-01T00:45:33Z</time>
      </trkpt>
      <trkpt lat="41.584043" lon="2.066690">
        <ele>308.90</ele>
        <time>1970-01-01T00:45:34Z</time>
      </trkpt>
      <trkpt lat="41.584049" lon="2.066750">
        <ele>308.70</ele>
        <time>1970-01-01T00:45:35Z</time>
      </trkpt>
      <trkpt lat="41.584060" lon="2.066835">
        <ele>308.50</ele>
        <time>1970-01-01T00:45:37Z</time>
      </trkpt>
      <trkpt lat="41.584073" lon="2.066913">
        <ele>308.20</ele>
        <time>1970-01-01T00:45:38Z</time>
      </trkpt>
      <trkpt lat="41.584096" lon="2.066985">
        <ele>307.90</ele>
        <time>1970-01-01T00:45:40Z</time>
      </trkpt>
      <trkpt lat="41.584110" lon="2.067039">
        <ele>307.70</ele>
        <time>1970-01-01T00:45:41Z</time>
      </trkpt>
      <trkpt lat="41.584113" lon="2.067088">
        <ele>307.40</ele>
        <time>1970-01-01T00:45:42Z</time>
      </trkpt>
      <trkpt lat="41.584106" lon="2.067145">
        <ele>307.20</ele>
        <time>1970-01-01T00:45:43Z</time>
      </trkpt>
      <trkpt lat="41.584095" lon="2.067200">
        <ele>307.00</ele>
        <time>1970-01-01T00:45:44Z</time>
      </trkpt>
      <trkpt lat="41.584074" lon="2.067285">
        <ele>306.60</ele>
        <time>1970-01-01T00:45:46Z</time>
      </trkpt>
      <trkpt lat="41.584048" lon="2.067345">
        <ele>306.40</ele>
        <time>1970-01-01T00:45:47Z</time>
      </trkpt>
      <trkpt lat="41.583965" lon="2.067469">
        <ele>305.80</ele>
        <time>1970-01-01T00:45:49Z</time>
      </trkpt>
      <trkpt lat="41.583877" lon="2.067578">
        <ele>305.50</ele>
        <time>1970-01-01T00:45:51Z</time>
      </trkpt>
      <trkpt lat="41.583851" lon="2.067644">
        <ele>305.40</ele>
        <time>1970-01-01T00:45:52Z</time>
      </trkpt>
      <trkpt lat="41.583823" lon="2.067789">
        <ele>305.20</ele>
        <time>1970-01-01T00:45:54Z</time>
      </trkpt>
      <trkpt lat="41.583819" lon="2.067866">
        <ele>305.10</ele>
        <time>1970-01-01T00:45:55Z</time>
      </trkpt>
      <trkpt lat="41.583825" lon="2.067943">
        <ele>305.00</ele>
        <time>1970-01-01T00:45:56Z</time>
      </trkpt>
      <trkpt lat="41.583846" lon="2.068010">
        <ele>305.00</ele>
        <time>1970-01-01T00:45:57Z</time>
      </trkpt>
      <trkpt lat="41.583931" lon="2.068129">
        <ele>303.90</ele>
        <time>1970-01-01T00:45:59Z</time>
      </trkpt>
      <trkpt lat="41.583976" lon="2.068194">
        <ele>303.20</ele>
        <time>1970-01-01T00:46:00Z</time>
      </trkpt>
      <trkpt lat="41.584016" lon="2.068265">
        <ele>302.60</ele>
        <time>1970-01-01T00:46:01Z</time>
      </trkpt>
      <trkpt lat="41.584063" lon="2.068436">
        <ele>301.50</ele>
        <time>1970-01-01T00:46:03Z</time>
      </trkpt>
      <trkpt lat="41.584107" lon="2.068607">
        <ele>300.70</ele>
        <time>1970-01-01T00:46:05Z</time>
      </trkpt>
      <trkpt lat="41.584161" lon="2.068764">
        <ele>300.00</ele>
        <time>1970-01-01T00:46:07Z</time>
      </trkpt>
      <trkpt lat="41.584206" lon="2.068925">
        <ele>299.30</ele>
        <time>1970-01-01T00:46:09Z</time>
      </trkpt>
      <trkpt lat="41.584233" lon="2.069091">
        <ele>298.70</ele>
        <time>1970-01-01T00:46:11Z</time>
      </trkpt>
      <trkpt lat="41.584265" lon="2.069246">
        <ele>298.10</ele>
        <time>1970-01-01T00:46:13Z</time>
      </trkpt>
      <trkpt lat="41.584278" lon="2.069318">
        <ele>297.80</ele>
        <time>1970-01-01T00:46:14Z</time>
      </trkpt>
      <trkpt lat="41.584306" lon="2.069432">
        <ele>297.40</ele>
        <time>1970-01-01T00:46:16Z</time>
      </trkpt>
      <trkpt lat="41.584322" lon="2.069462">
        <ele>296.20</ele>
        <time>1970-01-01T00:46:17Z</time>
      </trkpt>
      <trkpt lat="41.584381" lon="2.069511">
        <ele>292.80</ele>
        <time>1970-01-01T00:46:19Z</time>
      </trkpt>
      <trkpt lat="41.584450" lon="2.069564">
        <ele>289.90</ele>
        <time>1970-01-01T00:46:21Z</time>
      </trkpt>
      <trkpt lat="41.584483" lon="2.069574">
        <ele>288.50</ele>
        <time>1970-01-01T00:46:22Z</time>
      </trkpt>
      <trkpt lat="41.584520" lon="2.069566">
        <ele>287.30</ele>
        <time>1970-01-01T00:46:23Z</time>
      </trkpt>
      <trkpt lat="41.584506" lon="2.069538">
        <ele>287.60</ele>
        <time>1970-01-01T00:46:24Z</time>
      </trkpt>
      <trkpt lat="41.584539" lon="2.069524">
        <ele>286.40</ele>
        <time>1970-01-01T00:46:26Z</time>
      </trkpt>
      <trkpt lat="41.584561" lon="2.069555">
        <ele>285.60</ele>
        <time>1970-01-01T00:46:27Z</time>
      </trkpt>
      <trkpt lat="41.584584" lon="2.069634">
        <ele>283.90</ele>
        <time>1970-01-01T00:46:28Z</time>
      </trkpt>
      <trkpt lat="41.584607" lon="2.069718">
        <ele>281.70</ele>
        <time>1970-01-01T00:46:30Z</time>
      </trkpt>
      <trkpt lat="41.584627" lon="2.069790">
        <ele>280.40</ele>
        <time>1970-01-01T00:46:32Z</time>
      </trkpt>
      <trkpt lat="41.584650" lon="2.069844">
        <ele>278.80</ele>
        <time>1970-01-01T00:46:33Z</time>
      </trkpt>
      <trkpt lat="41.584672" lon="2.069870">
        <ele>277.20</ele>
        <time>1970-01-01T00:46:34Z</time>
      </trkpt>
      <trkpt lat="41.584709" lon="2.069872">
        <ele>276.00</ele>
        <time>1970-01-01T00:46:36Z</time>
      </trkpt>
      <trkpt lat="41.584719" lon="2.069866">
        <ele>275.80</ele>
        <time>1970-01-01T00:46:37Z</time>
      </trkpt>
      <trkpt lat="41.584747" lon="2.069859">
        <ele>274.70</ele>
        <time>1970-01-01T00:46:38Z</time>
      </trkpt>
      <trkpt lat="41.584801" lon="2.069860">
        <ele>272.70</ele>
        <time>1970-01-01T00:46:40Z</time>
      </trkpt>
      <trkpt lat="41.584834" lon="2.069866">
        <ele>272.30</ele>
        <time>1970-01-01T00:46:41Z</time>
      </trkpt>
      <trkpt lat="41.584842" lon="2.069865">
        <ele>272.20</ele>
        <time>1970-01-01T00:46:42Z</time>
      </trkpt>
      <trkpt lat="41.584844" lon="2.069869">
        <ele>272.10</ele>
        <time>1970-01-01T00:46:44Z</time>
      </trkpt>
      <trkpt lat="41.584842" lon="2.069874">
        <ele>272.10</ele>
        <time>1970-01-01T00:46:46Z</time>
      </trkpt>
      <trkpt lat="41.584842" lon="2.069875">
        <ele>272.10</ele>
        <time>1970-01-01T00:46:47Z</time>
      </trkpt>
      <trkpt lat="41.584841" lon="2.069876">
        <ele>272.10</ele>
        <time>1970-01-01T00:46:48Z</time>
      </trkpt>
      <trkpt lat="41.584840" lon="2.069879">
        <ele>272.00</ele>
        <time>1970-01-01T00:46:50Z</time>
      </trkpt>
      <trkpt lat="41.584841" lon="2.069880">
        <ele>272.00</ele>
        <time>1970-01-01T00:46:51Z</time>
      </trkpt>
      <trkpt lat="41.584846" lon="2.069881">
        <ele>272.00</ele>
        <time>1970-01-01T00:46:52Z</time>
      </trkpt>
      <trkpt lat="41.584854" lon="2.069873">
        <ele>271.80</ele>
        <time>1970-01-01T00:46:54Z</time>
      </trkpt>
      <trkpt lat="41.584867" lon="2.069848">
        <ele>271.60</ele>
        <time>1970-01-01T00:46:55Z</time>
      </trkpt>
      <trkpt lat="41.584880" lon="2.069798">
        <ele>271.20</ele>
        <time>1970-01-01T00:46:56Z</time>
      </trkpt>
      <trkpt lat="41.584940" lon="2.069651">
        <ele>270.00</ele>
        <time>1970-01-01T00:46:58Z</time>
      </trkpt>
      <trkpt lat="41.585021" lon="2.069483">
        <ele>268.60</ele>
        <time>1970-01-01T00:47:00Z</time>
      </trkpt>
      <trkpt lat="41.585066" lon="2.069399">
        <ele>267.80</ele>
        <time>1970-01-01T00:47:01Z</time>
      </trkpt>
      <trkpt lat="41.585162" lon="2.069293">
        <ele>266.20</ele>
        <time>1970-01-01T00:47:03Z</time>
      </trkpt>
      <trkpt lat="41.585252" lon="2.069295">
        <ele>265.00</ele>
        <time>1970-01-01T00:47:05Z</time>
      </trkpt>
      <trkpt lat="41.585354" lon="2.069332">
        <ele>263.50</ele>
        <time>1970-01-01T00:47:07Z</time>
      </trkpt>
      <trkpt lat="41.585415" lon="2.069376">
        <ele>262.60</ele>
        <time>1970-01-01T00:47:08Z</time>
      </trkpt>
      <trkpt lat="41.585543" lon="2.069450">
        <ele>260.60</ele>
        <time>1970-01-01T00:47:10Z</time>
      </trkpt>
      <trkpt lat="41.585600" lon="2.069470">
        <ele>259.80</ele>
        <time>1970-01-01T00:47:11Z</time>
      </trkpt>
      <trkpt lat="41.585646" lon="2.069472">
        <ele>259.10</ele>
        <time>1970-01-01T00:47:12Z</time>
      </trkpt>
      <trkpt lat="41.585737" lon="2.069472">
        <ele>257.60</ele>
        <time>1970-01-01T00:47:14Z</time>
      </trkpt>
      <trkpt lat="41.585830" lon="2.069500">
        <ele>255.90</ele>
        <time>1970-01-01T00:47:16Z</time>
      </trkpt>
      <trkpt lat="41.585959" lon="2.069540">
        <ele>253.60</ele>
        <time>1970-01-01T00:47:18Z</time>
      </trkpt>
      <trkpt lat="41.586030" lon="2.069557">
        <ele>252.60</ele>
        <time>1970-01-01T00:47:19Z</time>
      </trkpt>
      <trkpt lat="41.586094" lon="2.069568">
        <ele>251.70</ele>
        <time>1970-01-01T00:47:20Z</time>
      </trkpt>
      <trkpt lat="41.586217" lon="2.069575">
        <ele>250.00</ele>
        <time>1970-01-01T00:47:22Z</time>
      </trkpt>
      <trkpt lat="41.586360" lon="2.069634">
        <ele>248.20</ele>
        <time>1970-01-01T00:47:24Z</time>
      </trkpt>
      <trkpt lat="41.586488" lon="2.069711">
        <ele>246.50</ele>
        <time>1970-01-01T00:47:26Z</time>
      </trkpt>
      <trkpt lat="41.586544" lon="2.069732">
        <ele>245.90</ele>
        <time>1970-01-01T00:47:27Z</time>
      </trkpt>
      <trkpt lat="41.586577" lon="2.069727">
        <ele>245.50</ele>
        <time>1970-01-01T00:47:28Z</time>
      </trkpt>
      <trkpt lat="41.586592" lon="2.069606">
        <ele>244.50</ele>
        <time>1970-01-01T00:47:30Z</time>
      </trkpt>
      <trkpt lat="41.586537" lon="2.069429">
        <ele>243.10</ele>
        <time>1970-01-01T00:47:32Z</time>
      </trkpt>
      <trkpt lat="41.586504" lon="2.069353">
        <ele>242.50</ele>
        <time>1970-01-01T00:47:33Z</time>
      </trkpt>
      <trkpt lat="41.586471" lon="2.069287">
        <ele>241.90</ele>
        <time>1970-01-01T00:47:34Z</time>
      </trkpt>
      <trkpt lat="41.586443" lon="2.069223">
        <ele>241.30</ele>
        <time>1970-01-01T00:47:35Z</time>
      </trkpt>
      <trkpt lat="41.586412" lon="2.069111">
        <ele>240.40</ele>
        <time>1970-01-01T00:47:37Z</time>
      </trkpt>
      <trkpt lat="41.586402" lon="2.069036">
        <ele>239.70</ele>
        <time>1970-01-01T00:47:38Z</time>
      </trkpt>
      <trkpt lat="41.586383" lon="2.068848">
        <ele>237.90</ele>
        <time>1970-01-01T00:47:40Z</time>
      </trkpt>
      <trkpt lat="41.586370" lon="2.068756">
        <ele>237.00</ele>
        <time>1970-01-01T00:47:41Z</time>
      </trkpt>
      <trkpt lat="41.586372" lon="2.068615">
        <ele>235.70</ele>
        <time>1970-01-01T00:47:43Z</time>
      </trkpt>
      <trkpt lat="41.586449" lon="2.068561">
        <ele>234.70</ele>
        <time>1970-01-01T00:47:45Z</time>
      </trkpt>
      <trkpt lat="41.586499" lon="2.068574">
        <ele>234.20</ele>
        <time>1970-01-01T00:47:46Z</time>
      </trkpt>
      <trkpt lat="41.586628" lon="2.068613">
        <ele>232.80</ele>
        <time>1970-01-01T00:47:48Z</time>
      </trkpt>
      <trkpt lat="41.586711" lon="2.068650">
        <ele>232.00</ele>
        <time>1970-01-01T00:47:49Z</time>
      </trkpt>
      <trkpt lat="41.586861" lon="2.068691">
        <ele>230.80</ele>
        <time>1970-01-01T00:47:51Z</time>
      </trkpt>
      <trkpt lat="41.586898" lon="2.068686">
        <ele>230.60</ele>
        <time>1970-01-01T00:47:52Z</time>
      </trkpt>
      <trkpt lat="41.586929" lon="2.068667">
        <ele>230.40</ele>
        <time>1970-01-01T00:47:54Z</time>
      </trkpt>
      <trkpt lat="41.586947" lon="2.068660">
        <ele>230.20</ele>
        <time>1970-01-01T00:47:55Z</time>
      </trkpt>
      <trkpt lat="41.586958" lon="2.068656">
        <ele>229.90</ele>
        <time>1970-01-01T00:47:56Z</time>
      </trkpt>
      <trkpt lat="41.586948" lon="2.068630">
        <ele>229.80</ele>
        <time>1970-01-01T00:47:58Z</time>
      </trkpt>
      <trkpt lat="41.586945" lon="2.068622">
        <ele>229.80</ele>
        <time>1970-01-01T00:48:00Z</time>
      </trkpt>
      <trkpt lat="41.586945" lon="2.068620">
        <ele>229.80</ele>
        <time>1970-01-01T00:48:01Z</time>
      </trkpt>
      <trkpt lat="41.586943" lon="2.068617">
        <ele>229.80</ele>
        <time>1970-01-01T00:48:03Z</time>
      </trkpt>
      <trkpt lat="41.586946" lon="2.068612">
        <ele>229.80</ele>
        <time>1970-01-01T00:48:04Z</time>
      </trkpt>
      <trkpt lat="41.586947" lon="2.068615">
        <ele>229.70</ele>
        <time>1970-01-01T00:48:05Z</time>
      </trkpt>
      <trkpt lat="41.586947" lon="2.068618">
        <ele>229.70</ele>
        <time>1970-01-01T00:48:07Z</time>
      </trkpt>
      <trkpt lat="41.586947" lon="2.068621">
        <ele>229.70</ele>
        <time>1970-01-01T00:48:09Z</time>
      </trkpt>
      <trkpt lat="41.586947" lon="2.068623">
        <ele>229.70</ele>
        <time>1970-01-01T00:48:11Z</time>
      </trkpt>
      <trkpt lat="41.586948" lon="2.068624">
        <ele>229.70</ele>
        <time>1970-01-01T00:48:13Z</time>
      </trkpt>
      <trkpt lat="41.586948" lon="2.068624">
        <ele>229.70</ele>
        <time>1970-01-01T00:48:14Z</time>
      </trkpt>
      <trkpt lat="41.586946" lon="2.068624">
        <ele>229.70</ele>
        <time>1970-01-01T00:48:16Z</time>
      </trkpt>
      <trkpt lat="41.586940" lon="2.068625">
        <ele>229.70</ele>
        <time>1970-01-01T00:48:17Z</time>
      </trkpt>
      <trkpt lat="41.586946" lon="2.068624">
        <ele>229.60</ele>
        <time>1970-01-01T00:48:19Z</time>
      </trkpt>
      <trkpt lat="41.586947" lon="2.068623">
        <ele>229.60</ele>
        <time>1970-01-01T00:48:20Z</time>
      </trkpt>
      <trkpt lat="41.586946" lon="2.068619">
        <ele>229.60</ele>
        <time>1970-01-01T00:48:22Z</time>
      </trkpt>
      <trkpt lat="41.586944" lon="2.068619">
        <ele>229.60</ele>
        <time>1970-01-01T00:48:25Z</time>
      </trkpt>
      <trkpt lat="41.586943" lon="2.068619">
        <ele>229.60</ele>
        <time>1970-01-01T00:48:27Z</time>
      </trkpt>
      <trkpt lat="41.586942" lon="2.068619">
        <ele>229.60</ele>
        <time>1970-01-01T00:48:29Z</time>
      </trkpt>
      <trkpt lat="41.586945" lon="2.068619">
        <ele>229.60</ele>
        <time>1970-01-01T00:48:30Z</time>
      </trkpt>
      <trkpt lat="41.586959" lon="2.068626">
        <ele>229.50</ele>
        <time>1970-01-01T00:48:31Z</time>
      </trkpt>
      <trkpt lat="41.586978" lon="2.068657">
        <ele>229.40</ele>
        <time>1970-01-01T00:48:33Z</time>
      </trkpt>
      <trkpt lat="41.586997" lon="2.068713">
        <ele>229.10</ele>
        <time>1970-01-01T00:48:35Z</time>
      </trkpt>
      <trkpt lat="41.587007" lon="2.068762">
        <ele>228.90</ele>
        <time>1970-01-01T00:48:36Z</time>
      </trkpt>
      <trkpt lat="41.587019" lon="2.068808">
        <ele>228.70</ele>
        <time>1970-01-01T00:48:37Z</time>
      </trkpt>
      <trkpt lat="41.587044" lon="2.068879">
        <ele>228.40</ele>
        <time>1970-01-01T00:48:38Z</time>
      </trkpt>
      <trkpt lat="41.587062" lon="2.068940">
        <ele>228.20</ele>
        <time>1970-01-01T00:48:40Z</time>
      </trkpt>
      <trkpt lat="41.587075" lon="2.068993">
        <ele>228.00</ele>
        <time>1970-01-01T00:48:41Z</time>
      </trkpt>
      <trkpt lat="41.587092" lon="2.069146">
        <ele>227.40</ele>
        <time>1970-01-01T00:48:43Z</time>
      </trkpt>
      <trkpt lat="41.587098" lon="2.069220">
        <ele>227.20</ele>
        <time>1970-01-01T00:48:44Z</time>
      </trkpt>
      <trkpt lat="41.587092" lon="2.069378">
        <ele>226.80</ele>
        <time>1970-01-01T00:48:46Z</time>
      </trkpt>
      <trkpt lat="41.587052" lon="2.069542">
        <ele>226.30</ele>
        <time>1970-01-01T00:48:48Z</time>
      </trkpt>
      <trkpt lat="41.587019" lon="2.069678">
        <ele>226.00</ele>
        <time>1970-01-01T00:48:50Z</time>
      </trkpt>
      <trkpt lat="41.586995" lon="2.069726">
        <ele>225.90</ele>
        <time>1970-01-01T00:48:51Z</time>
      </trkpt>
      <trkpt lat="41.586991" lon="2.069749">
        <ele>225.80</ele>
        <time>1970-01-01T00:48:52Z</time>
      </trkpt>
      <trkpt lat="41.586990" lon="2.069786">
        <ele>225.70</ele>
        <time>1970-01-01T00:48:54Z</time>
      </trkpt>
      <trkpt lat="41.586986" lon="2.069822">
        <ele>225.70</ele>
        <time>1970-01-01T00:48:55Z</time>
      </trkpt>
      <trkpt lat="41.586984" lon="2.069860">
        <ele>225.60</ele>
        <time>1970-01-01T00:48:56Z</time>
      </trkpt>
      <trkpt lat="41.586983" lon="2.069962">
        <ele>225.40</ele>
        <time>1970-01-01T00:48:58Z</time>
      </trkpt>
      <trkpt lat="41.586975" lon="2.070063">
        <ele>225.20</ele>
        <time>1970-01-01T00:48:59Z</time>
      </trkpt>
      <trkpt lat="41.586958" lon="2.070143">
        <ele>225.10</ele>
        <time>1970-01-01T00:49:01Z</time>
      </trkpt>
      <trkpt lat="41.586918" lon="2.070249">
        <ele>224.90</ele>
        <time>1970-01-01T00:49:03Z</time>
      </trkpt>
      <trkpt lat="41.586848" lon="2.070386">
        <ele>224.50</ele>
        <time>1970-01-01T00:49:05Z</time>
      </trkpt>
      <trkpt lat="41.586815" lon="2.070450">
        <ele>224.40</ele>
        <time>1970-01-01T00:49:06Z</time>
      </trkpt>
      <trkpt lat="41.586766" lon="2.070584">
        <ele>224.10</ele>
        <time>1970-01-01T00:49:08Z</time>
      </trkpt>
      <trkpt lat="41.586749" lon="2.070647">
        <ele>223.90</ele>
        <time>1970-01-01T00:49:09Z</time>
      </trkpt>
      <trkpt lat="41.586702" lon="2.070758">
        <ele>223.60</ele>
        <time>1970-01-01T00:49:11Z</time>
      </trkpt>
      <trkpt lat="41.586662" lon="2.070809">
        <ele>223.40</ele>
        <time>1970-01-01T00:49:12Z</time>
      </trkpt>
      <trkpt lat="41.586554" lon="2.070897">
        <ele>223.10</ele>
        <time>1970-01-01T00:49:14Z</time>
      </trkpt>
      <trkpt lat="41.586509" lon="2.070924">
        <ele>222.90</ele>
        <time>1970-01-01T00:49:15Z</time>
      </trkpt>
      <trkpt lat="41.586477" lon="2.070930">
        <ele>222.80</ele>
        <time>1970-01-01T00:49:16Z</time>
      </trkpt>
      <trkpt lat="41.586438" lon="2.070944">
        <ele>222.70</ele>
        <time>1970-01-01T00:49:17Z</time>
      </trkpt>
      <trkpt lat="41.586391" lon="2.070973">
        <ele>222.50</ele>
        <time>1970-01-01T00:49:19Z</time>
      </trkpt>
      <trkpt lat="41.586355" lon="2.070998">
        <ele>222.40</ele>
        <time>1970-01-01T00:49:20Z</time>
      </trkpt>
      <trkpt lat="41.586313" lon="2.071020">
        <ele>222.30</ele>
        <time>1970-01-01T00:49:21Z</time>
      </trkpt>
      <trkpt lat="41.586224" lon="2.071047">
        <ele>222.00</ele>
        <time>1970-01-01T00:49:23Z</time>
      </trkpt>
      <trkpt lat="41.586115" lon="2.071086">
        <ele>221.80</ele>
        <time>1970-01-01T00:49:25Z</time>
      </trkpt>
      <trkpt lat="41.586069" lon="2.071116">
        <ele>221.70</ele>
        <time>1970-01-01T00:49:26Z</time>
      </trkpt>
      <trkpt lat="41.586018" lon="2.071158">
        <ele>221.50</ele>
        <time>1970-01-01T00:49:28Z</time>
      </trkpt>
      <trkpt lat="41.586003" lon="2.071209">
        <ele>221.40</ele>
        <time>1970-01-01T00:49:29Z</time>
      </trkpt>
      <trkpt lat="41.585982" lon="2.071258">
        <ele>221.30</ele>
        <time>1970-01-01T00:49:30Z</time>
      </trkpt>
      <trkpt lat="41.585957" lon="2.071321">
        <ele>221.20</ele>
        <time>1970-01-01T00:49:32Z</time>
      </trkpt>
      <trkpt lat="41.585908" lon="2.071408">
        <ele>220.90</ele>
        <time>1970-01-01T00:49:34Z</time>
      </trkpt>
      <trkpt lat="41.585872" lon="2.071469">
        <ele>220.80</ele>
        <time>1970-01-01T00:49:35Z</time>
      </trkpt>
      <trkpt lat="41.585826" lon="2.071576">
        <ele>220.50</ele>
        <time>1970-01-01T00:49:37Z</time>
      </trkpt>
      <trkpt lat="41.585800" lon="2.071631">
        <ele>220.40</ele>
        <time>1970-01-01T00:49:38Z</time>
      </trkpt>
      <trkpt lat="41.585760" lon="2.071676">
        <ele>220.20</ele>
        <time>1970-01-01T00:49:40Z</time>
      </trkpt>
      <trkpt lat="41.585724" lon="2.071695">
        <ele>220.10</ele>
        <time>1970-01-01T00:49:41Z</time>
      </trkpt>
      <trkpt lat="41.585677" lon="2.071747">
        <ele>219.90</ele>
        <time>1970-01-01T00:49:43Z</time>
      </trkpt>
      <trkpt lat="41.585660" lon="2.071790">
        <ele>219.70</ele>
        <time>1970-01-01T00:49:44Z</time>
      </trkpt>
      <trkpt lat="41.585633" lon="2.071859">
        <ele>219.60</ele>
        <time>1970-01-01T00:49:45Z</time>
      </trkpt>
      <trkpt lat="41.585598" lon="2.071972">
        <ele>219.30</ele>
        <time>1970-01-01T00:49:47Z</time>
      </trkpt>
      <trkpt lat="41.585606" lon="2.072017">
        <ele>219.20</ele>
        <time>1970-01-01T00:49:48Z</time>
      </trkpt>
      <trkpt lat="41.585556" lon="2.072110">
        <ele>218.90</ele>
        <time>1970-01-01T00:49:50Z</time>
      </trkpt>
      <trkpt lat="41.585521" lon="2.072181">
        <ele>218.60</ele>
        <time>1970-01-01T00:49:51Z</time>
      </trkpt>
      <trkpt lat="41.585486" lon="2.072254">
        <ele>218.40</ele>
        <time>1970-01-01T00:49:52Z</time>
      </trkpt>
      <trkpt lat="41.585454" lon="2.072322">
        <ele>218.20</ele>
        <time>1970-01-01T00:49:53Z</time>
      </trkpt>
      <trkpt lat="41.585418" lon="2.072390">
        <ele>218.00</ele>
        <time>1970-01-01T00:49:54Z</time>
      </trkpt>
      <trkpt lat="41.585345" lon="2.072521">
        <ele>217.70</ele>
        <time>1970-01-01T00:49:56Z</time>
      </trkpt>
      <trkpt lat="41.585277" lon="2.072645">
        <ele>217.30</ele>
        <time>1970-01-01T00:49:58Z</time>
      </trkpt>
      <trkpt lat="41.585248" lon="2.072730">
        <ele>217.00</ele>
        <time>1970-01-01T00:50:00Z</time>
      </trkpt>
      <trkpt lat="41.585234" lon="2.072788">
        <ele>216.80</ele>
        <time>1970-01-01T00:50:01Z</time>
      </trkpt>
      <trkpt lat="41.585229" lon="2.072842">
        <ele>216.70</ele>
        <time>1970-01-01T00:50:03Z</time>
      </trkpt>
      <trkpt lat="41.585228" lon="2.072905">
        <ele>216.50</ele>
        <time>1970-01-01T00:50:05Z</time>
      </trkpt>
      <trkpt lat="41.585237" lon="2.072941">
        <ele>216.30</ele>
        <time>1970-01-01T00:50:06Z</time>
      </trkpt>
      <trkpt lat="41.585241" lon="2.072995">
        <ele>216.20</ele>
        <time>1970-01-01T00:50:07Z</time>
      </trkpt>
      <trkpt lat="41.585233" lon="2.073032">
        <ele>216.10</ele>
        <time>1970-01-01T00:50:08Z</time>
      </trkpt>
      <trkpt lat="41.585219" lon="2.073087">
        <ele>215.90</ele>
        <time>1970-01-01T00:50:10Z</time>
      </trkpt>
      <trkpt lat="41.585207" lon="2.073169">
        <ele>215.70</ele>
        <time>1970-01-01T00:50:12Z</time>
      </trkpt>
      <trkpt lat="41.585218" lon="2.073207">
        <ele>215.70</ele>
        <time>1970-01-01T00:50:13Z</time>
      </trkpt>
      <trkpt lat="41.585256" lon="2.073271">
        <ele>215.50</ele>
        <time>1970-01-01T00:50:15Z</time>
      </trkpt>
      <trkpt lat="41.585291" lon="2.073316">
        <ele>215.40</ele>
        <time>1970-01-01T00:50:16Z</time>
      </trkpt>
      <trkpt lat="41.585330" lon="2.073370">
        <ele>215.20</ele>
        <time>1970-01-01T00:50:17Z</time>
      </trkpt>
      <trkpt lat="41.585358" lon="2.073421">
        <ele>215.10</ele>
        <time>1970-01-01T00:50:18Z</time>
      </trkpt>
      <trkpt lat="41.585387" lon="2.073477">
        <ele>215.00</ele>
        <time>1970-01-01T00:50:20Z</time>
      </trkpt>
      <trkpt lat="41.585414" lon="2.073544">
        <ele>214.90</ele>
        <time>1970-01-01T00:50:21Z</time>
      </trkpt>
      <trkpt lat="41.585442" lon="2.073614">
        <ele>214.70</ele>
        <time>1970-01-01T00:50:22Z</time>
      </trkpt>
      <trkpt lat="41.585470" lon="2.073680">
        <ele>214.60</ele>
        <time>1970-01-01T00:50:24Z</time>
      </trkpt>
      <trkpt lat="41.585494" lon="2.073754">
        <ele>214.40</ele>
        <time>1970-01-01T00:50:25Z</time>
      </trkpt>
      <trkpt lat="41.585499" lon="2.073820">
        <ele>214.30</ele>
        <time>1970-01-01T00:50:26Z</time>
      </trkpt>
      <trkpt lat="41.585496" lon="2.073874">
        <ele>214.20</ele>
        <time>1970-01-01T00:50:27Z</time>
      </trkpt>
      <trkpt lat="41.585482" lon="2.073937">
        <ele>214.00</ele>
        <time>1970-01-01T00:50:29Z</time>
      </trkpt>
      <trkpt lat="41.585442" lon="2.074039">
        <ele>213.80</ele>
        <time>1970-01-01T00:50:30Z</time>
      </trkpt>
      <trkpt lat="41.585416" lon="2.074146">
        <ele>213.50</ele>
        <time>1970-01-01T00:50:32Z</time>
      </trkpt>
      <trkpt lat="41.585417" lon="2.074278">
        <ele>213.30</ele>
        <time>1970-01-01T00:50:34Z</time>
      </trkpt>
      <trkpt lat="41.585416" lon="2.074342">
        <ele>213.10</ele>
        <time>1970-01-01T00:50:35Z</time>
      </trkpt>
      <trkpt lat="41.585415" lon="2.074406">
        <ele>213.00</ele>
        <time>1970-01-01T00:50:36Z</time>
      </trkpt>
      <trkpt lat="41.585408" lon="2.074472">
        <ele>212.80</ele>
        <time>1970-01-01T00:50:37Z</time>
      </trkpt>
      <trkpt lat="41.585392" lon="2.074612">
        <ele>212.50</ele>
        <time>1970-01-01T00:50:39Z</time>
      </trkpt>
      <trkpt lat="41.585382" lon="2.074690">
        <ele>212.20</ele>
        <time>1970-01-01T00:50:40Z</time>
      </trkpt>
      <trkpt lat="41.585360" lon="2.074837">
        <ele>211.80</ele>
        <time>1970-01-01T00:50:42Z</time>
      </trkpt>
      <trkpt lat="41.585307" lon="2.074983">
        <ele>211.30</ele>
        <time>1970-01-01T00:50:44Z</time>
      </trkpt>
      <trkpt lat="41.585265" lon="2.075152">
        <ele>210.70</ele>
        <time>1970-01-01T00:50:46Z</time>
      </trkpt>
      <trkpt lat="41.585258" lon="2.075320">
        <ele>210.30</ele>
        <time>1970-01-01T00:50:48Z</time>
      </trkpt>
      <trkpt lat="41.585238" lon="2.075491">
        <ele>209.90</ele>
        <time>1970-01-01T00:50:50Z</time>
      </trkpt>
      <trkpt lat="41.585214" lon="2.075649">
        <ele>209.60</ele>
        <time>1970-01-01T00:50:52Z</time>
      </trkpt>
      <trkpt lat="41.585209" lon="2.075735">
        <ele>209.50</ele>
        <time>1970-01-01T00:50:53Z</time>
      </trkpt>
      <trkpt lat="41.585191" lon="2.075899">
        <ele>209.20</ele>
        <time>1970-01-01T00:50:55Z</time>
      </trkpt>
      <trkpt lat="41.585176" lon="2.075982">
        <ele>209.10</ele>
        <time>1970-01-01T00:50:56Z</time>
      </trkpt>
      <trkpt lat="41.585149" lon="2.076150">
        <ele>208.80</ele>
        <time>1970-01-01T00:50:58Z</time>
      </trkpt>
      <trkpt lat="41.585116" lon="2.076318">
        <ele>208.50</ele>
        <time>1970-01-01T00:51:00Z</time>
      </trkpt>
      <trkpt lat="41.585100" lon="2.076399">
        <ele>208.30</ele>
        <time>1970-01-01T00:51:01Z</time>
      </trkpt>
      <trkpt lat="41.585089" lon="2.076480">
        <ele>208.20</ele>
        <time>1970-01-01T00:51:02Z</time>
      </trkpt>
      <trkpt lat="41.585085" lon="2.076641">
        <ele>207.90</ele>
        <time>1970-01-01T00:51:04Z</time>
      </trkpt>
      <trkpt lat="41.585081" lon="2.076821">
        <ele>207.50</ele>
        <time>1970-01-01T00:51:06Z</time>
      </trkpt>
      <trkpt lat="41.585066" lon="2.076987">
        <ele>207.20</ele>
        <time>1970-01-01T00:51:08Z</time>
      </trkpt>
      <trkpt lat="41.585057" lon="2.077071">
        <ele>207.10</ele>
        <time>1970-01-01T00:51:09Z</time>
      </trkpt>
      <trkpt lat="41.585051" lon="2.077154">
        <ele>206.90</ele>
        <time>1970-01-01T00:51:10Z</time>
      </trkpt>
      <trkpt lat="41.585046" lon="2.077236">
        <ele>206.80</ele>
        <time>1970-01-01T00:51:11Z</time>
      </trkpt>
      <trkpt lat="41.585048" lon="2.077397">
        <ele>206.60</ele>
        <time>1970-01-01T00:51:13Z</time>
      </trkpt>
      <trkpt lat="41.585050" lon="2.077481">
        <ele>206.40</ele>
        <time>1970-01-01T00:51:14Z</time>
      </trkpt>
      <trkpt lat="41.585050" lon="2.077568">
        <ele>206.30</ele>
        <time>1970-01-01T00:51:15Z</time>
      </trkpt>
      <trkpt lat="41.585043" lon="2.077655">
        <ele>206.20</ele>
        <time>1970-01-01T00:51:16Z</time>
      </trkpt>
      <trkpt lat="41.585042" lon="2.077825">
        <ele>206.00</ele>
        <time>1970-01-01T00:51:18Z</time>
      </trkpt>
      <trkpt lat="41.585045" lon="2.077983">
        <ele>205.80</ele>
        <time>1970-01-01T00:51:20Z</time>
      </trkpt>
      <trkpt lat="41.585008" lon="2.078119">
        <ele>205.60</ele>
        <time>1970-01-01T00:51:22Z</time>
      </trkpt>
      <trkpt lat="41.584983" lon="2.078149">
        <ele>205.60</ele>
        <time>1970-01-01T00:51:23Z</time>
      </trkpt>
      <trkpt lat="41.584933" lon="2.078192">
        <ele>205.50</ele>
        <time>1970-01-01T00:51:25Z</time>
      </trkpt>
      <trkpt lat="41.584932" lon="2.078231">
        <ele>205.50</ele>
        <time>1970-01-01T00:51:26Z</time>
      </trkpt>
      <trkpt lat="41.584985" lon="2.078299">
        <ele>205.40</ele>
        <time>1970-01-01T00:51:28Z</time>
      </trkpt>
      <trkpt lat="41.584999" lon="2.078324">
        <ele>205.40</ele>
        <time>1970-01-01T00:51:29Z</time>
      </trkpt>
      <trkpt lat="41.585015" lon="2.078339">
        <ele>205.30</ele>
        <time>1970-01-01T00:51:30Z</time>
      </trkpt>
      <trkpt lat="41.585032" lon="2.078354">
        <ele>205.30</ele>
        <time>1970-01-01T00:51:31Z</time>
      </trkpt>
      <trkpt lat="41.585097" lon="2.078405">
        <ele>205.30</ele>
        <time>1970-01-01T00:51:33Z</time>
      </trkpt>
      <trkpt lat="41.585147" lon="2.078448">
        <ele>205.30</ele>
        <time>1970-01-01T00:51:34Z</time>
      </trkpt>
      <trkpt lat="41.585184" lon="2.078491">
        <ele>205.30</ele>
        <time>1970-01-01T00:51:35Z</time>
      </trkpt>
      <trkpt lat="41.585217" lon="2.078546">
        <ele>205.30</ele>
        <time>1970-01-01T00:51:36Z</time>
      </trkpt>
      <trkpt lat="41.585263" lon="2.078619">
        <ele>205.40</ele>
        <time>1970-01-01T00:51:38Z</time>
      </trkpt>
      <trkpt lat="41.585292" lon="2.078670">
        <ele>205.40</ele>
        <time>1970-01-01T00:51:39Z</time>
      </trkpt>
      <trkpt lat="41.585336" lon="2.078743">
        <ele>205.40</ele>
        <time>1970-01-01T00:51:41Z</time>
      </trkpt>
      <trkpt lat="41.585370" lon="2.078801">
        <ele>205.40</ele>
        <time>1970-01-01T00:51:42Z</time>
      </trkpt>
      <trkpt lat="41.585407" lon="2.078849">
        <ele>205.50</ele>
        <time>1970-01-01T00:51:43Z</time>
      </trkpt>
      <trkpt lat="41.585456" lon="2.078914">
        <ele>205.50</ele>
        <time>1970-01-01T00:51:44Z</time>
      </trkpt>
      <trkpt lat="41.585513" lon="2.078994">
        <ele>205.50</ele>
        <time>1970-01-01T00:51:46Z</time>
      </trkpt>
      <trkpt lat="41.585548" lon="2.079039">
        <ele>205.60</ele>
        <time>1970-01-01T00:51:47Z</time>
      </trkpt>
      <trkpt lat="41.585587" lon="2.079088">
        <ele>205.60</ele>
        <time>1970-01-01T00:51:48Z</time>
      </trkpt>
      <trkpt lat="41.585653" lon="2.079191">
        <ele>205.70</ele>
        <time>1970-01-01T00:51:50Z</time>
      </trkpt>
      <trkpt lat="41.585718" lon="2.079276">
        <ele>205.80</ele>
        <time>1970-01-01T00:51:52Z</time>
      </trkpt>
      <trkpt lat="41.585752" lon="2.079320">
        <ele>205.80</ele>
        <time>1970-01-01T00:51:53Z</time>
      </trkpt>
      <trkpt lat="41.585820" lon="2.079407">
        <ele>205.90</ele>
        <time>1970-01-01T00:51:55Z</time>
      </trkpt>
      <trkpt lat="41.585854" lon="2.079452">
        <ele>205.90</ele>
        <time>1970-01-01T00:51:56Z</time>
      </trkpt>
      <trkpt lat="41.585889" lon="2.079497">
        <ele>205.90</ele>
        <time>1970-01-01T00:51:57Z</time>
      </trkpt>
      <trkpt lat="41.585964" lon="2.079586">
        <ele>205.90</ele>
        <time>1970-01-01T00:51:59Z</time>
      </trkpt>
      <trkpt lat="41.586001" lon="2.079631">
        <ele>206.00</ele>
        <time>1970-01-01T00:52:00Z</time>
      </trkpt>
      <trkpt lat="41.586037" lon="2.079675">
        <ele>206.00</ele>
        <time>1970-01-01T00:52:01Z</time>
      </trkpt>
      <trkpt lat="41.586102" lon="2.079757">
        <ele>206.00</ele>
        <time>1970-01-01T00:52:03Z</time>
      </trkpt>
      <trkpt lat="41.586166" lon="2.079839">
        <ele>206.10</ele>
        <time>1970-01-01T00:52:05Z</time>
      </trkpt>
      <trkpt lat="41.586236" lon="2.079917">
        <ele>206.10</ele>
        <time>1970-01-01T00:52:07Z</time>
      </trkpt>
      <trkpt lat="41.586306" lon="2.079995">
        <ele>206.10</ele>
        <time>1970-01-01T00:52:09Z</time>
      </trkpt>
      <trkpt lat="41.586341" lon="2.080034">
        <ele>206.20</ele>
        <time>1970-01-01T00:52:10Z</time>
      </trkpt>
      <trkpt lat="41.586414" lon="2.080124">
        <ele>206.20</ele>
        <time>1970-01-01T00:52:12Z</time>
      </trkpt>
      <trkpt lat="41.586491" lon="2.080216">
        <ele>206.20</ele>
        <time>1970-01-01T00:52:14Z</time>
      </trkpt>
      <trkpt lat="41.586529" lon="2.080260">
        <ele>206.30</ele>
        <time>1970-01-01T00:52:15Z</time>
      </trkpt>
      <trkpt lat="41.586567" lon="2.080302">
        <ele>206.30</ele>
        <time>1970-01-01T00:52:16Z</time>
      </trkpt>
      <trkpt lat="41.586639" lon="2.080388">
        <ele>206.40</ele>
        <time>1970-01-01T00:52:18Z</time>
      </trkpt>
      <trkpt lat="41.586701" lon="2.080472">
        <ele>206.50</ele>
        <time>1970-01-01T00:52:20Z</time>
      </trkpt>
      <trkpt lat="41.586764" lon="2.080558">
        <ele>206.60</ele>
        <time>1970-01-01T00:52:22Z</time>
      </trkpt>
      <trkpt lat="41.586830" lon="2.080648">
        <ele>206.70</ele>
        <time>1970-01-01T00:52:24Z</time>
      </trkpt>
      <trkpt lat="41.586895" lon="2.080729">
        <ele>206.80</ele>
        <time>1970-01-01T00:52:26Z</time>
      </trkpt>
      <trkpt lat="41.586945" lon="2.080809">
        <ele>206.90</ele>
        <time>1970-01-01T00:52:28Z</time>
      </trkpt>
      <trkpt lat="41.587011" lon="2.080901">
        <ele>207.00</ele>
        <time>1970-01-01T00:52:30Z</time>
      </trkpt>
      <trkpt lat="41.587049" lon="2.080942">
        <ele>207.10</ele>
        <time>1970-01-01T00:52:31Z</time>
      </trkpt>
      <trkpt lat="41.587112" lon="2.081001">
        <ele>207.30</ele>
        <time>1970-01-01T00:52:33Z</time>
      </trkpt>
      <trkpt lat="41.587153" lon="2.081046">
        <ele>207.40</ele>
        <time>1970-01-01T00:52:34Z</time>
      </trkpt>
      <trkpt lat="41.587186" lon="2.081095">
        <ele>207.50</ele>
        <time>1970-01-01T00:52:35Z</time>
      </trkpt>
      <trkpt lat="41.587221" lon="2.081148">
        <ele>207.60</ele>
        <time>1970-01-01T00:52:36Z</time>
      </trkpt>
      <trkpt lat="41.587257" lon="2.081218">
        <ele>207.70</ele>
        <time>1970-01-01T00:52:38Z</time>
      </trkpt>
      <trkpt lat="41.587288" lon="2.081266">
        <ele>207.80</ele>
        <time>1970-01-01T00:52:39Z</time>
      </trkpt>
      <trkpt lat="41.587352" lon="2.081337">
        <ele>207.90</ele>
        <time>1970-01-01T00:52:41Z</time>
      </trkpt>
      <trkpt lat="41.587387" lon="2.081377">
        <ele>207.90</ele>
        <time>1970-01-01T00:52:42Z</time>
      </trkpt>
      <trkpt lat="41.587434" lon="2.081338">
        <ele>208.00</ele>
        <time>1970-01-01T00:52:44Z</time>
      </trkpt>
      <trkpt lat="41.587488" lon="2.081435">
        <ele>208.10</ele>
        <time>1970-01-01T00:52:45Z</time>
      </trkpt>
      <trkpt lat="41.587491" lon="2.081489">
        <ele>208.20</ele>
        <time>1970-01-01T00:52:47Z</time>
      </trkpt>
      <trkpt lat="41.587543" lon="2.081549">
        <ele>208.30</ele>
        <time>1970-01-01T00:52:48Z</time>
      </trkpt>
      <trkpt lat="41.587607" lon="2.081622">
        <ele>208.40</ele>
        <time>1970-01-01T00:52:49Z</time>
      </trkpt>
      <trkpt lat="41.587665" lon="2.081682">
        <ele>208.50</ele>
        <time>1970-01-01T00:52:51Z</time>
      </trkpt>
      <trkpt lat="41.587705" lon="2.081725">
        <ele>208.60</ele>
        <time>1970-01-01T00:52:52Z</time>
      </trkpt>
      <trkpt lat="41.587762" lon="2.081783">
        <ele>208.60</ele>
        <time>1970-01-01T00:52:53Z</time>
      </trkpt>
      <trkpt lat="41.587820" lon="2.081841">
        <ele>208.70</ele>
        <time>1970-01-01T00:52:55Z</time>
      </trkpt>
      <trkpt lat="41.587875" lon="2.081890">
        <ele>208.80</ele>
        <time>1970-01-01T00:52:56Z</time>
      </trkpt>
      <trkpt lat="41.587922" lon="2.081936">
        <ele>208.90</ele>
        <time>1970-01-01T00:52:58Z</time>
      </trkpt>
      <trkpt lat="41.587963" lon="2.081975">
        <ele>208.90</ele>
        <time>1970-01-01T00:52:59Z</time>
      </trkpt>
      <trkpt lat="41.588013" lon="2.082020">
        <ele>209.00</ele>
        <time>1970-01-01T00:53:00Z</time>
      </trkpt>
      <trkpt lat="41.588072" lon="2.082058">
        <ele>209.00</ele>
        <time>1970-01-01T00:53:01Z</time>
      </trkpt>
      <trkpt lat="41.588120" lon="2.082083">
        <ele>209.10</ele>
        <time>1970-01-01T00:53:02Z</time>
      </trkpt>
      <trkpt lat="41.588170" lon="2.082107">
        <ele>209.10</ele>
        <time>1970-01-01T00:53:03Z</time>
      </trkpt>
      <trkpt lat="41.588232" lon="2.082125">
        <ele>209.20</ele>
        <time>1970-01-01T00:53:05Z</time>
      </trkpt>
      <trkpt lat="41.588294" lon="2.082132">
        <ele>209.30</ele>
        <time>1970-01-01T00:53:06Z</time>
      </trkpt>
      <trkpt lat="41.588383" lon="2.082111">
        <ele>209.30</ele>
        <time>1970-01-01T00:53:08Z</time>
      </trkpt>
      <trkpt lat="41.588428" lon="2.082110">
        <ele>209.40</ele>
        <time>1970-01-01T00:53:09Z</time>
      </trkpt>
      <trkpt lat="41.588466" lon="2.082096">
        <ele>209.40</ele>
        <time>1970-01-01T00:53:10Z</time>
      </trkpt>
      <trkpt lat="41.588523" lon="2.082084">
        <ele>209.50</ele>
        <time>1970-01-01T00:53:12Z</time>
      </trkpt>
      <trkpt lat="41.588572" lon="2.082081">
        <ele>209.50</ele>
        <time>1970-01-01T00:53:13Z</time>
      </trkpt>
      <trkpt lat="41.588625" lon="2.082077">
        <ele>209.60</ele>
        <time>1970-01-01T00:53:14Z</time>
      </trkpt>
      <trkpt lat="41.588667" lon="2.082073">
        <ele>209.70</ele>
        <time>1970-01-01T00:53:15Z</time>
      </trkpt>
      <trkpt lat="41.588737" lon="2.082069">
        <ele>209.70</ele>
        <time>1970-01-01T00:53:16Z</time>
      </trkpt>
      <trkpt lat="41.588803" lon="2.082066">
        <ele>209.80</ele>
        <time>1970-01-01T00:53:18Z</time>
      </trkpt>
      <trkpt lat="41.588861" lon="2.082062">
        <ele>209.90</ele>
        <time>1970-01-01T00:53:19Z</time>
      </trkpt>
      <trkpt lat="41.588909" lon="2.082058">
        <ele>210.00</ele>
        <time>1970-01-01T00:53:20Z</time>
      </trkpt>
      <trkpt lat="41.588981" lon="2.082040">
        <ele>210.10</ele>
        <time>1970-01-01T00:53:22Z</time>
      </trkpt>
      <trkpt lat="41.589019" lon="2.082011">
        <ele>210.10</ele>
        <time>1970-01-01T00:53:23Z</time>
      </trkpt>
      <trkpt lat="41.589064" lon="2.082007">
        <ele>210.20</ele>
        <time>1970-01-01T00:53:24Z</time>
      </trkpt>
      <trkpt lat="41.589112" lon="2.082007">
        <ele>210.20</ele>
        <time>1970-01-01T00:53:25Z</time>
      </trkpt>
      <trkpt lat="41.589185" lon="2.082011">
        <ele>210.30</ele>
        <time>1970-01-01T00:53:27Z</time>
      </trkpt>
      <trkpt lat="41.589229" lon="2.082014">
        <ele>210.40</ele>
        <time>1970-01-01T00:53:28Z</time>
      </trkpt>
      <trkpt lat="41.589282" lon="2.082016">
        <ele>210.40</ele>
        <time>1970-01-01T00:53:29Z</time>
      </trkpt>
      <trkpt lat="41.589327" lon="2.082021">
        <ele>210.50</ele>
        <time>1970-01-01T00:53:30Z</time>
      </trkpt>
      <trkpt lat="41.589393" lon="2.082034">
        <ele>210.60</ele>
        <time>1970-01-01T00:53:31Z</time>
      </trkpt>
      <trkpt lat="41.589439" lon="2.082046">
        <ele>210.70</ele>
        <time>1970-01-01T00:53:33Z</time>
      </trkpt>
      <trkpt lat="41.589500" lon="2.082064">
        <ele>210.80</ele>
        <time>1970-01-01T00:53:34Z</time>
      </trkpt>
      <trkpt lat="41.589540" lon="2.082078">
        <ele>210.90</ele>
        <time>1970-01-01T00:53:35Z</time>
      </trkpt>
      <trkpt lat="41.589584" lon="2.082096">
        <ele>211.00</ele>
        <time>1970-01-01T00:53:36Z</time>
      </trkpt>
      <trkpt lat="41.589633" lon="2.082124">
        <ele>211.10</ele>
        <time>1970-01-01T00:53:37Z</time>
      </trkpt>
      <trkpt lat="41.589708" lon="2.082160">
        <ele>211.20</ele>
        <time>1970-01-01T00:53:39Z</time>
      </trkpt>
      <trkpt lat="41.589792" lon="2.082190">
        <ele>211.40</ele>
        <time>1970-01-01T00:53:41Z</time>
      </trkpt>
      <trkpt lat="41.589894" lon="2.082207">
        <ele>211.60</ele>
        <time>1970-01-01T00:53:43Z</time>
      </trkpt>
      <trkpt lat="41.589943" lon="2.082205">
        <ele>211.60</ele>
        <time>1970-01-01T00:53:44Z</time>
      </trkpt>
      <trkpt lat="41.590034" lon="2.082189">
        <ele>211.80</ele>
        <time>1970-01-01T00:53:46Z</time>
      </trkpt>
      <trkpt lat="41.590081" lon="2.082176">
        <ele>211.90</ele>
        <time>1970-01-01T00:53:47Z</time>
      </trkpt>
      <trkpt lat="41.590125" lon="2.082163">
        <ele>212.00</ele>
        <time>1970-01-01T00:53:48Z</time>
      </trkpt>
      <trkpt lat="41.590175" lon="2.082135">
        <ele>212.10</ele>
        <time>1970-01-01T00:53:49Z</time>
      </trkpt>
      <trkpt lat="41.590225" lon="2.082118">
        <ele>212.20</ele>
        <time>1970-01-01T00:53:51Z</time>
      </trkpt>
      <trkpt lat="41.590276" lon="2.082110">
        <ele>212.30</ele>
        <time>1970-01-01T00:53:52Z</time>
      </trkpt>
      <trkpt lat="41.590346" lon="2.082109">
        <ele>212.50</ele>
        <time>1970-01-01T00:53:53Z</time>
      </trkpt>
      <trkpt lat="41.590403" lon="2.082118">
        <ele>212.50</ele>
        <time>1970-01-01T00:53:55Z</time>
      </trkpt>
      <trkpt lat="41.590471" lon="2.082144">
        <ele>212.60</ele>
        <time>1970-01-01T00:53:57Z</time>
      </trkpt>
      <trkpt lat="41.590529" lon="2.082183">
        <ele>212.70</ele>
        <time>1970-01-01T00:53:58Z</time>
      </trkpt>
      <trkpt lat="41.590619" lon="2.082221">
        <ele>212.80</ele>
        <time>1970-01-01T00:54:00Z</time>
      </trkpt>
      <trkpt lat="41.590662" lon="2.082239">
        <ele>212.80</ele>
        <time>1970-01-01T00:54:01Z</time>
      </trkpt>
      <trkpt lat="41.590699" lon="2.082259">
        <ele>212.90</ele>
        <time>1970-01-01T00:54:02Z</time>
      </trkpt>
      <trkpt lat="41.590750" lon="2.082279">
        <ele>212.90</ele>
        <time>1970-01-01T00:54:03Z</time>
      </trkpt>
      <trkpt lat="41.590797" lon="2.082300">
        <ele>212.90</ele>
        <time>1970-01-01T00:54:04Z</time>
      </trkpt>
      <trkpt lat="41.590851" lon="2.082315">
        <ele>213.00</ele>
        <time>1970-01-01T00:54:06Z</time>
      </trkpt>
      <trkpt lat="41.590918" lon="2.082328">
        <ele>213.00</ele>
        <time>1970-01-01T00:54:07Z</time>
      </trkpt>
      <trkpt lat="41.590974" lon="2.082342">
        <ele>213.00</ele>
        <time>1970-01-01T00:54:09Z</time>
      </trkpt>
      <trkpt lat="41.591021" lon="2.082360">
        <ele>212.90</ele>
        <time>1970-01-01T00:54:10Z</time>
      </trkpt>
      <trkpt lat="41.591066" lon="2.082373">
        <ele>212.90</ele>
        <time>1970-01-01T00:54:11Z</time>
      </trkpt>
      <trkpt lat="41.591119" lon="2.082393">
        <ele>212.90</ele>
        <time>1970-01-01T00:54:12Z</time>
      </trkpt>
      <trkpt lat="41.591180" lon="2.082433">
        <ele>212.90</ele>
        <time>1970-01-01T00:54:14Z</time>
      </trkpt>
      <trkpt lat="41.591222" lon="2.082463">
        <ele>212.90</ele>
        <time>1970-01-01T00:54:15Z</time>
      </trkpt>
      <trkpt lat="41.591264" lon="2.082488">
        <ele>212.90</ele>
        <time>1970-01-01T00:54:16Z</time>
      </trkpt>
      <trkpt lat="41.591342" lon="2.082536">
        <ele>212.90</ele>
        <time>1970-01-01T00:54:18Z</time>
      </trkpt>
      <trkpt lat="41.591401" lon="2.082573">
        <ele>212.90</ele>
        <time>1970-01-01T00:54:19Z</time>
      </trkpt>
      <trkpt lat="41.591467" lon="2.082610">
        <ele>213.00</ele>
        <time>1970-01-01T00:54:21Z</time>
      </trkpt>
      <trkpt lat="41.591507" lon="2.082628">
        <ele>213.00</ele>
        <time>1970-01-01T00:54:22Z</time>
      </trkpt>
      <trkpt lat="41.591549" lon="2.082648">
        <ele>213.10</ele>
        <time>1970-01-01T00:54:23Z</time>
      </trkpt>
      <trkpt lat="41.591645" lon="2.082669">
        <ele>213.20</ele>
        <time>1970-01-01T00:54:25Z</time>
      </trkpt>
      <trkpt lat="41.591729" lon="2.082662">
        <ele>213.30</ele>
        <time>1970-01-01T00:54:27Z</time>
      </trkpt>
      <trkpt lat="41.591800" lon="2.082650">
        <ele>213.40</ele>
        <time>1970-01-01T00:54:29Z</time>
      </trkpt>
      <trkpt lat="41.591844" lon="2.082646">
        <ele>213.50</ele>
        <time>1970-01-01T00:54:30Z</time>
      </trkpt>
      <trkpt lat="41.591893" lon="2.082641">
        <ele>213.60</ele>
        <time>1970-01-01T00:54:31Z</time>
      </trkpt>
      <trkpt lat="41.591944" lon="2.082635">
        <ele>213.60</ele>
        <time>1970-01-01T00:54:32Z</time>
      </trkpt>
      <trkpt lat="41.592000" lon="2.082630">
        <ele>213.70</ele>
        <time>1970-01-01T00:54:33Z</time>
      </trkpt>
      <trkpt lat="41.592049" lon="2.082626">
        <ele>213.80</ele>
        <time>1970-01-01T00:54:35Z</time>
      </trkpt>
      <trkpt lat="41.592097" lon="2.082626">
        <ele>213.90</ele>
        <time>1970-01-01T00:54:36Z</time>
      </trkpt>
      <trkpt lat="41.592156" lon="2.082621">
        <ele>213.90</ele>
        <time>1970-01-01T00:54:37Z</time>
      </trkpt>
      <trkpt lat="41.592220" lon="2.082617">
        <ele>214.00</ele>
        <time>1970-01-01T00:54:39Z</time>
      </trkpt>
      <trkpt lat="41.592310" lon="2.082618">
        <ele>214.00</ele>
        <time>1970-01-01T00:54:41Z</time>
      </trkpt>
      <trkpt lat="41.592365" lon="2.082617">
        <ele>214.00</ele>
        <time>1970-01-01T00:54:42Z</time>
      </trkpt>
      <trkpt lat="41.592457" lon="2.082625">
        <ele>214.10</ele>
        <time>1970-01-01T00:54:44Z</time>
      </trkpt>
      <trkpt lat="41.592503" lon="2.082623">
        <ele>214.10</ele>
        <time>1970-01-01T00:54:45Z</time>
      </trkpt>
      <trkpt lat="41.592590" lon="2.082617">
        <ele>214.10</ele>
        <time>1970-01-01T00:54:47Z</time>
      </trkpt>
      <trkpt lat="41.592657" lon="2.082617">
        <ele>214.20</ele>
        <time>1970-01-01T00:54:48Z</time>
      </trkpt>
      <trkpt lat="41.592720" lon="2.082617">
        <ele>214.20</ele>
        <time>1970-01-01T00:54:50Z</time>
      </trkpt>
      <trkpt lat="41.592806" lon="2.082607">
        <ele>214.30</ele>
        <time>1970-01-01T00:54:52Z</time>
      </trkpt>
      <trkpt lat="41.592856" lon="2.082611">
        <ele>214.40</ele>
        <time>1970-01-01T00:54:53Z</time>
      </trkpt>
      <trkpt lat="41.592906" lon="2.082605">
        <ele>214.40</ele>
        <time>1970-01-01T00:54:54Z</time>
      </trkpt>
      <trkpt lat="41.592953" lon="2.082599">
        <ele>214.50</ele>
        <time>1970-01-01T00:54:55Z</time>
      </trkpt>
      <trkpt lat="41.593014" lon="2.082588">
        <ele>214.60</ele>
        <time>1970-01-01T00:54:56Z</time>
      </trkpt>
      <trkpt lat="41.593074" lon="2.082583">
        <ele>214.60</ele>
        <time>1970-01-01T00:54:58Z</time>
      </trkpt>
      <trkpt lat="41.593130" lon="2.082581">
        <ele>214.70</ele>
        <time>1970-01-01T00:54:59Z</time>
      </trkpt>
      <trkpt lat="41.593183" lon="2.082577">
        <ele>214.80</ele>
        <time>1970-01-01T00:55:00Z</time>
      </trkpt>
      <trkpt lat="41.593243" lon="2.082576">
        <ele>214.80</ele>
        <time>1970-01-01T00:55:02Z</time>
      </trkpt>
      <trkpt lat="41.593283" lon="2.082579">
        <ele>214.90</ele>
        <time>1970-01-01T00:55:03Z</time>
      </trkpt>
      <trkpt lat="41.593363" lon="2.082580">
        <ele>215.00</ele>
        <time>1970-01-01T00:55:05Z</time>
      </trkpt>
      <trkpt lat="41.593402" lon="2.082579">
        <ele>215.00</ele>
        <time>1970-01-01T00:55:06Z</time>
      </trkpt>
      <trkpt lat="41.593467" lon="2.082589">
        <ele>215.10</ele>
        <time>1970-01-01T00:55:08Z</time>
      </trkpt>
      <trkpt lat="41.593518" lon="2.082592">
        <ele>215.20</ele>
        <time>1970-01-01T00:55:09Z</time>
      </trkpt>
      <trkpt lat="41.593564" lon="2.082605">
        <ele>215.30</ele>
        <time>1970-01-01T00:55:10Z</time>
      </trkpt>
      <trkpt lat="41.593626" lon="2.082615">
        <ele>215.40</ele>
        <time>1970-01-01T00:55:12Z</time>
      </trkpt>
      <trkpt lat="41.593666" lon="2.082617">
        <ele>215.40</ele>
        <time>1970-01-01T00:55:13Z</time>
      </trkpt>
      <trkpt lat="41.593727" lon="2.082605">
        <ele>215.50</ele>
        <time>1970-01-01T00:55:14Z</time>
      </trkpt>
      <trkpt lat="41.593779" lon="2.082605">
        <ele>215.50</ele>
        <time>1970-01-01T00:55:16Z</time>
      </trkpt>
      <trkpt lat="41.593833" lon="2.082602">
        <ele>215.60</ele>
        <time>1970-01-01T00:55:17Z</time>
      </trkpt>
      <trkpt lat="41.593884" lon="2.082601">
        <ele>215.70</ele>
        <time>1970-01-01T00:55:18Z</time>
      </trkpt>
      <trkpt lat="41.593948" lon="2.082590">
        <ele>215.80</ele>
        <time>1970-01-01T00:55:19Z</time>
      </trkpt>
      <trkpt lat="41.593992" lon="2.082576">
        <ele>215.80</ele>
        <time>1970-01-01T00:55:20Z</time>
      </trkpt>
      <trkpt lat="41.594052" lon="2.082547">
        <ele>215.90</ele>
        <time>1970-01-01T00:55:22Z</time>
      </trkpt>
      <trkpt lat="41.594093" lon="2.082525">
        <ele>215.90</ele>
        <time>1970-01-01T00:55:23Z</time>
      </trkpt>
      <trkpt lat="41.594144" lon="2.082498">
        <ele>216.00</ele>
        <time>1970-01-01T00:55:24Z</time>
      </trkpt>
      <trkpt lat="41.594197" lon="2.082469">
        <ele>216.00</ele>
        <time>1970-01-01T00:55:26Z</time>
      </trkpt>
      <trkpt lat="41.594245" lon="2.082441">
        <ele>215.90</ele>
        <time>1970-01-01T00:55:27Z</time>
      </trkpt>
      <trkpt lat="41.594285" lon="2.082418">
        <ele>215.80</ele>
        <time>1970-01-01T00:55:28Z</time>
      </trkpt>
      <trkpt lat="41.594330" lon="2.082397">
        <ele>215.70</ele>
        <time>1970-01-01T00:55:29Z</time>
      </trkpt>
      <trkpt lat="41.594379" lon="2.082372">
        <ele>215.50</ele>
        <time>1970-01-01T00:55:30Z</time>
      </trkpt>
      <trkpt lat="41.594423" lon="2.082350">
        <ele>215.20</ele>
        <time>1970-01-01T00:55:31Z</time>
      </trkpt>
      <trkpt lat="41.594483" lon="2.082325">
        <ele>214.90</ele>
        <time>1970-01-01T00:55:33Z</time>
      </trkpt>
      <trkpt lat="41.594530" lon="2.082318">
        <ele>214.60</ele>
        <time>1970-01-01T00:55:34Z</time>
      </trkpt>
      <trkpt lat="41.594583" lon="2.082309">
        <ele>214.30</ele>
        <time>1970-01-01T00:55:36Z</time>
      </trkpt>
      <trkpt lat="41.594621" lon="2.082292">
        <ele>214.10</ele>
        <time>1970-01-01T00:55:37Z</time>
      </trkpt>
      <trkpt lat="41.594654" lon="2.082244">
        <ele>213.80</ele>
        <time>1970-01-01T00:55:38Z</time>
      </trkpt>
      <trkpt lat="41.594634" lon="2.082107">
        <ele>213.10</ele>
        <time>1970-01-01T00:55:40Z</time>
      </trkpt>
      <trkpt lat="41.594571" lon="2.081965">
        <ele>212.40</ele>
        <time>1970-01-01T00:55:42Z</time>
      </trkpt>
      <trkpt lat="41.594543" lon="2.081889">
        <ele>212.10</ele>
        <time>1970-01-01T00:55:44Z</time>
      </trkpt>
      <trkpt lat="41.594532" lon="2.081845">
        <ele>212.00</ele>
        <time>1970-01-01T00:55:45Z</time>
      </trkpt>
      <trkpt lat="41.594525" lon="2.081797">
        <ele>212.00</ele>
        <time>1970-01-01T00:55:46Z</time>
      </trkpt>
      <trkpt lat="41.594522" lon="2.081758">
        <ele>211.90</ele>
        <time>1970-01-01T00:55:47Z</time>
      </trkpt>
      <trkpt lat="41.594542" lon="2.081720">
        <ele>212.00</ele>
        <time>1970-01-01T00:55:48Z</time>
      </trkpt>
      <trkpt lat="41.594566" lon="2.081702">
        <ele>212.00</ele>
        <time>1970-01-01T00:55:49Z</time>
      </trkpt>
      <trkpt lat="41.594596" lon="2.081686">
        <ele>212.00</ele>
        <time>1970-01-01T00:55:51Z</time>
      </trkpt>
      <trkpt lat="41.594637" lon="2.081667">
        <ele>212.10</ele>
        <time>1970-01-01T00:55:53Z</time>
      </trkpt>
      <trkpt lat="41.594675" lon="2.081650">
        <ele>212.20</ele>
        <time>1970-01-01T00:55:54Z</time>
      </trkpt>
      <trkpt lat="41.594687" lon="2.081642">
        <ele>212.20</ele>
        <time>1970-01-01T00:55:55Z</time>
      </trkpt>
      <trkpt lat="41.594726" lon="2.081618">
        <ele>212.20</ele>
        <time>1970-01-01T00:55:56Z</time>
      </trkpt>
      <trkpt lat="41.594740" lon="2.081608">
        <ele>212.20</ele>
        <time>1970-01-01T00:55:57Z</time>
      </trkpt>
      <trkpt lat="41.594768" lon="2.081578">
        <ele>212.30</ele>
        <time>1970-01-01T00:55:59Z</time>
      </trkpt>
      <trkpt lat="41.594783" lon="2.081547">
        <ele>212.30</ele>
        <time>1970-01-01T00:56:00Z</time>
      </trkpt>
      <trkpt lat="41.594797" lon="2.081506">
        <ele>212.40</ele>
        <time>1970-01-01T00:56:01Z</time>
      </trkpt>
      <trkpt lat="41.594809" lon="2.081445">
        <ele>212.40</ele>
        <time>1970-01-01T00:56:03Z</time>
      </trkpt>
      <trkpt lat="41.594827" lon="2.081386">
        <ele>212.50</ele>
        <time>1970-01-01T00:56:04Z</time>
      </trkpt>
      <trkpt lat="41.594842" lon="2.081340">
        <ele>212.50</ele>
        <time>1970-01-01T00:56:05Z</time>
      </trkpt>
      <trkpt lat="41.594861" lon="2.081287">
        <ele>212.80</ele>
        <time>1970-01-01T00:56:06Z</time>
      </trkpt>
      <trkpt lat="41.594884" lon="2.081199">
        <ele>213.20</ele>
        <time>1970-01-01T00:56:08Z</time>
      </trkpt>
      <trkpt lat="41.594890" lon="2.081142">
        <ele>213.40</ele>
        <time>1970-01-01T00:56:09Z</time>
      </trkpt>
      <trkpt lat="41.594883" lon="2.081086">
        <ele>213.70</ele>
        <time>1970-01-01T00:56:10Z</time>
      </trkpt>
      <trkpt lat="41.594875" lon="2.081041">
        <ele>213.90</ele>
        <time>1970-01-01T00:56:11Z</time>
      </trkpt>
      <trkpt lat="41.594871" lon="2.080981">
        <ele>214.20</ele>
        <time>1970-01-01T00:56:13Z</time>
      </trkpt>
      <trkpt lat="41.594881" lon="2.080929">
        <ele>214.40</ele>
        <time>1970-01-01T00:56:14Z</time>
      </trkpt>
      <trkpt lat="41.594917" lon="2.080894">
        <ele>214.60</ele>
        <time>1970-01-01T00:56:15Z</time>
      </trkpt>
      <trkpt lat="41.594948" lon="2.080867">
        <ele>214.70</ele>
        <time>1970-01-01T00:56:16Z</time>
      </trkpt>
      <trkpt lat="41.594995" lon="2.080825">
        <ele>214.90</ele>
        <time>1970-01-01T00:56:18Z</time>
      </trkpt>
      <trkpt lat="41.595027" lon="2.080786">
        <ele>215.10</ele>
        <time>1970-01-01T00:56:19Z</time>
      </trkpt>
      <trkpt lat="41.595055" lon="2.080751">
        <ele>215.30</ele>
        <time>1970-01-01T00:56:20Z</time>
      </trkpt>
      <trkpt lat="41.595105" lon="2.080695">
        <ele>215.50</ele>
        <time>1970-01-01T00:56:22Z</time>
      </trkpt>
      <trkpt lat="41.595142" lon="2.080658">
        <ele>215.60</ele>
        <time>1970-01-01T00:56:23Z</time>
      </trkpt>
      <trkpt lat="41.595174" lon="2.080624">
        <ele>215.70</ele>
        <time>1970-01-01T00:56:24Z</time>
      </trkpt>
      <trkpt lat="41.595235" lon="2.080570">
        <ele>216.00</ele>
        <time>1970-01-01T00:56:26Z</time>
      </trkpt>
      <trkpt lat="41.595279" lon="2.080540">
        <ele>216.10</ele>
        <time>1970-01-01T00:56:27Z</time>
      </trkpt>
      <trkpt lat="41.595345" lon="2.080479">
        <ele>216.30</ele>
        <time>1970-01-01T00:56:29Z</time>
      </trkpt>
      <trkpt lat="41.595376" lon="2.080448">
        <ele>216.50</ele>
        <time>1970-01-01T00:56:30Z</time>
      </trkpt>
      <trkpt lat="41.595420" lon="2.080417">
        <ele>216.60</ele>
        <time>1970-01-01T00:56:31Z</time>
      </trkpt>
      <trkpt lat="41.595458" lon="2.080386">
        <ele>216.80</ele>
        <time>1970-01-01T00:56:33Z</time>
      </trkpt>
      <trkpt lat="41.595499" lon="2.080353">
        <ele>216.90</ele>
        <time>1970-01-01T00:56:34Z</time>
      </trkpt>
      <trkpt lat="41.595553" lon="2.080312">
        <ele>217.10</ele>
        <time>1970-01-01T00:56:36Z</time>
      </trkpt>
      <trkpt lat="41.595607" lon="2.080272">
        <ele>217.30</ele>
        <time>1970-01-01T00:56:37Z</time>
      </trkpt>
      <trkpt lat="41.595640" lon="2.080249">
        <ele>217.40</ele>
        <time>1970-01-01T00:56:38Z</time>
      </trkpt>
      <trkpt lat="41.595697" lon="2.080214">
        <ele>217.60</ele>
        <time>1970-01-01T00:56:40Z</time>
      </trkpt>
      <trkpt lat="41.595754" lon="2.080176">
        <ele>217.80</ele>
        <time>1970-01-01T00:56:42Z</time>
      </trkpt>
      <trkpt lat="41.595799" lon="2.080154">
        <ele>217.90</ele>
        <time>1970-01-01T00:56:43Z</time>
      </trkpt>
      <trkpt lat="41.595840" lon="2.080132">
        <ele>218.10</ele>
        <time>1970-01-01T00:56:44Z</time>
      </trkpt>
      <trkpt lat="41.595878" lon="2.080116">
        <ele>218.20</ele>
        <time>1970-01-01T00:56:45Z</time>
      </trkpt>
      <trkpt lat="41.595921" lon="2.080100">
        <ele>218.30</ele>
        <time>1970-01-01T00:56:46Z</time>
      </trkpt>
      <trkpt lat="41.595973" lon="2.080078">
        <ele>218.40</ele>
        <time>1970-01-01T00:56:47Z</time>
      </trkpt>
      <trkpt lat="41.596030" lon="2.080052">
        <ele>218.60</ele>
        <time>1970-01-01T00:56:49Z</time>
      </trkpt>
      <trkpt lat="41.596068" lon="2.080034">
        <ele>218.70</ele>
        <time>1970-01-01T00:56:50Z</time>
      </trkpt>
      <trkpt lat="41.596111" lon="2.080019">
        <ele>218.80</ele>
        <time>1970-01-01T00:56:51Z</time>
      </trkpt>
      <trkpt lat="41.596160" lon="2.080001">
        <ele>218.90</ele>
        <time>1970-01-01T00:56:52Z</time>
      </trkpt>
      <trkpt lat="41.596199" lon="2.079979">
        <ele>219.00</ele>
        <time>1970-01-01T00:56:53Z</time>
      </trkpt>
      <trkpt lat="41.596238" lon="2.079956">
        <ele>219.10</ele>
        <time>1970-01-01T00:56:54Z</time>
      </trkpt>
      <trkpt lat="41.596294" lon="2.079930">
        <ele>219.20</ele>
        <time>1970-01-01T00:56:56Z</time>
      </trkpt>
      <trkpt lat="41.596353" lon="2.079897">
        <ele>219.30</ele>
        <time>1970-01-01T00:56:57Z</time>
      </trkpt>
      <trkpt lat="41.596402" lon="2.079868">
        <ele>219.50</ele>
        <time>1970-01-01T00:56:59Z</time>
      </trkpt>
      <trkpt lat="41.596451" lon="2.079841">
        <ele>219.60</ele>
        <time>1970-01-01T00:57:00Z</time>
      </trkpt>
      <trkpt lat="41.596496" lon="2.079819">
        <ele>219.70</ele>
        <time>1970-01-01T00:57:01Z</time>
      </trkpt>
      <trkpt lat="41.596551" lon="2.079795">
        <ele>219.80</ele>
        <time>1970-01-01T00:57:02Z</time>
      </trkpt>
      <trkpt lat="41.596604" lon="2.079775">
        <ele>219.90</ele>
        <time>1970-01-01T00:57:04Z</time>
      </trkpt>
      <trkpt lat="41.596655" lon="2.079758">
        <ele>220.00</ele>
        <time>1970-01-01T00:57:05Z</time>
      </trkpt>
      <trkpt lat="41.596695" lon="2.079750">
        <ele>220.20</ele>
        <time>1970-01-01T00:57:06Z</time>
      </trkpt>
      <trkpt lat="41.596746" lon="2.079738">
        <ele>220.30</ele>
        <time>1970-01-01T00:57:07Z</time>
      </trkpt>
      <trkpt lat="41.596795" lon="2.079727">
        <ele>220.40</ele>
        <time>1970-01-01T00:57:08Z</time>
      </trkpt>
      <trkpt lat="41.596836" lon="2.079720">
        <ele>220.60</ele>
        <time>1970-01-01T00:57:10Z</time>
      </trkpt>
      <trkpt lat="41.596892" lon="2.079708">
        <ele>220.80</ele>
        <time>1970-01-01T00:57:11Z</time>
      </trkpt>
      <trkpt lat="41.596950" lon="2.079691">
        <ele>221.00</ele>
        <time>1970-01-01T00:57:12Z</time>
      </trkpt>
      <trkpt lat="41.597002" lon="2.079680">
        <ele>221.20</ele>
        <time>1970-01-01T00:57:14Z</time>
      </trkpt>
      <trkpt lat="41.597046" lon="2.079675">
        <ele>221.40</ele>
        <time>1970-01-01T00:57:15Z</time>
      </trkpt>
      <trkpt lat="41.597088" lon="2.079668">
        <ele>221.60</ele>
        <time>1970-01-01T00:57:16Z</time>
      </trkpt>
      <trkpt lat="41.597138" lon="2.079669">
        <ele>221.80</ele>
        <time>1970-01-01T00:57:17Z</time>
      </trkpt>
      <trkpt lat="41.597187" lon="2.079670">
        <ele>222.10</ele>
        <time>1970-01-01T00:57:18Z</time>
      </trkpt>
      <trkpt lat="41.597226" lon="2.079667">
        <ele>222.30</ele>
        <time>1970-01-01T00:57:19Z</time>
      </trkpt>
      <trkpt lat="41.597273" lon="2.079663">
        <ele>222.50</ele>
        <time>1970-01-01T00:57:21Z</time>
      </trkpt>
      <trkpt lat="41.597330" lon="2.079650">
        <ele>222.80</ele>
        <time>1970-01-01T00:57:22Z</time>
      </trkpt>
      <trkpt lat="41.597392" lon="2.079635">
        <ele>223.20</ele>
        <time>1970-01-01T00:57:24Z</time>
      </trkpt>
      <trkpt lat="41.597457" lon="2.079630">
        <ele>223.60</ele>
        <time>1970-01-01T00:57:26Z</time>
      </trkpt>
      <trkpt lat="41.597505" lon="2.079612">
        <ele>224.00</ele>
        <time>1970-01-01T00:57:27Z</time>
      </trkpt>
      <trkpt lat="41.597552" lon="2.079594">
        <ele>224.30</ele>
        <time>1970-01-01T00:57:28Z</time>
      </trkpt>
      <trkpt lat="41.597587" lon="2.079584">
        <ele>224.50</ele>
        <time>1970-01-01T00:57:30Z</time>
      </trkpt>
      <trkpt lat="41.597631" lon="2.079578">
        <ele>224.80</ele>
        <time>1970-01-01T00:57:31Z</time>
      </trkpt>
      <trkpt lat="41.597684" lon="2.079568">
        <ele>225.20</ele>
        <time>1970-01-01T00:57:32Z</time>
      </trkpt>
      <trkpt lat="41.597719" lon="2.079562">
        <ele>225.50</ele>
        <time>1970-01-01T00:57:33Z</time>
      </trkpt>
      <trkpt lat="41.597767" lon="2.079556">
        <ele>225.80</ele>
        <time>1970-01-01T00:57:35Z</time>
      </trkpt>
      <trkpt lat="41.597822" lon="2.079555">
        <ele>226.20</ele>
        <time>1970-01-01T00:57:37Z</time>
      </trkpt>
      <trkpt lat="41.597858" lon="2.079555">
        <ele>226.50</ele>
        <time>1970-01-01T00:57:38Z</time>
      </trkpt>
      <trkpt lat="41.597888" lon="2.079556">
        <ele>226.70</ele>
        <time>1970-01-01T00:57:39Z</time>
      </trkpt>
      <trkpt lat="41.597940" lon="2.079560">
        <ele>227.10</ele>
        <time>1970-01-01T00:57:40Z</time>
      </trkpt>
      <trkpt lat="41.597981" lon="2.079568">
        <ele>227.40</ele>
        <time>1970-01-01T00:57:42Z</time>
      </trkpt>
      <trkpt lat="41.598013" lon="2.079571">
        <ele>227.60</ele>
        <time>1970-01-01T00:57:43Z</time>
      </trkpt>
      <trkpt lat="41.598056" lon="2.079582">
        <ele>227.90</ele>
        <time>1970-01-01T00:57:44Z</time>
      </trkpt>
      <trkpt lat="41.598083" lon="2.079589">
        <ele>228.10</ele>
        <time>1970-01-01T00:57:45Z</time>
      </trkpt>
      <trkpt lat="41.598133" lon="2.079598">
        <ele>228.50</ele>
        <time>1970-01-01T00:57:47Z</time>
      </trkpt>
      <trkpt lat="41.598152" lon="2.079600">
        <ele>228.60</ele>
        <time>1970-01-01T00:57:48Z</time>
      </trkpt>
      <trkpt lat="41.598171" lon="2.079602">
        <ele>228.70</ele>
        <time>1970-01-01T00:57:49Z</time>
      </trkpt>
      <trkpt lat="41.598232" lon="2.079618">
        <ele>229.20</ele>
        <time>1970-01-01T00:57:51Z</time>
      </trkpt>
      <trkpt lat="41.598288" lon="2.079638">
        <ele>229.60</ele>
        <time>1970-01-01T00:57:53Z</time>
      </trkpt>
      <trkpt lat="41.598330" lon="2.079657">
        <ele>229.90</ele>
        <time>1970-01-01T00:57:54Z</time>
      </trkpt>
      <trkpt lat="41.598375" lon="2.079680">
        <ele>230.30</ele>
        <time>1970-01-01T00:57:56Z</time>
      </trkpt>
      <trkpt lat="41.598428" lon="2.079726">
        <ele>230.80</ele>
        <time>1970-01-01T00:57:58Z</time>
      </trkpt>
      <trkpt lat="41.598456" lon="2.079752">
        <ele>231.10</ele>
        <time>1970-01-01T00:57:59Z</time>
      </trkpt>
      <trkpt lat="41.598498" lon="2.079786">
        <ele>231.50</ele>
        <time>1970-01-01T00:58:00Z</time>
      </trkpt>
      <trkpt lat="41.598527" lon="2.079809">
        <ele>231.80</ele>
        <time>1970-01-01T00:58:01Z</time>
      </trkpt>
      <trkpt lat="41.598562" lon="2.079838">
        <ele>232.20</ele>
        <time>1970-01-01T00:58:03Z</time>
      </trkpt>
      <trkpt lat="41.598601" lon="2.079871">
        <ele>232.70</ele>
        <time>1970-01-01T00:58:04Z</time>
      </trkpt>
      <trkpt lat="41.598636" lon="2.079899">
        <ele>233.00</ele>
        <time>1970-01-01T00:58:06Z</time>
      </trkpt>
      <trkpt lat="41.598669" lon="2.079926">
        <ele>233.20</ele>
        <time>1970-01-01T00:58:07Z</time>
      </trkpt>
      <trkpt lat="41.598679" lon="2.079934">
        <ele>233.20</ele>
        <time>1970-01-01T00:58:08Z</time>
      </trkpt>
      <trkpt lat="41.598702" lon="2.079957">
        <ele>233.40</ele>
        <time>1970-01-01T00:58:09Z</time>
      </trkpt>
      <trkpt lat="41.598717" lon="2.080009">
        <ele>233.60</ele>
        <time>1970-01-01T00:58:11Z</time>
      </trkpt>
      <trkpt lat="41.598703" lon="2.080061">
        <ele>233.70</ele>
        <time>1970-01-01T00:58:12Z</time>
      </trkpt>
      <trkpt lat="41.598677" lon="2.080119">
        <ele>234.00</ele>
        <time>1970-01-01T00:58:13Z</time>
      </trkpt>
      <trkpt lat="41.598656" lon="2.080161">
        <ele>234.10</ele>
        <time>1970-01-01T00:58:15Z</time>
      </trkpt>
      <trkpt lat="41.598631" lon="2.080208">
        <ele>234.30</ele>
        <time>1970-01-01T00:58:16Z</time>
      </trkpt>
      <trkpt lat="41.598612" lon="2.080244">
        <ele>234.50</ele>
        <time>1970-01-01T00:58:17Z</time>
      </trkpt>
      <trkpt lat="41.598598" lon="2.080280">
        <ele>234.70</ele>
        <time>1970-01-01T00:58:18Z</time>
      </trkpt>
      <trkpt lat="41.598568" lon="2.080341">
        <ele>235.10</ele>
        <time>1970-01-01T00:58:20Z</time>
      </trkpt>
      <trkpt lat="41.598547" lon="2.080391">
        <ele>235.50</ele>
        <time>1970-01-01T00:58:21Z</time>
      </trkpt>
      <trkpt lat="41.598539" lon="2.080429">
        <ele>235.70</ele>
        <time>1970-01-01T00:58:22Z</time>
      </trkpt>
      <trkpt lat="41.598549" lon="2.080481">
        <ele>236.10</ele>
        <time>1970-01-01T00:58:24Z</time>
      </trkpt>
      <trkpt lat="41.598577" lon="2.080502">
        <ele>236.40</ele>
        <time>1970-01-01T00:58:25Z</time>
      </trkpt>
      <trkpt lat="41.598619" lon="2.080501">
        <ele>236.80</ele>
        <time>1970-01-01T00:58:26Z</time>
      </trkpt>
      <trkpt lat="41.598670" lon="2.080490">
        <ele>237.20</ele>
        <time>1970-01-01T00:58:28Z</time>
      </trkpt>
      <trkpt lat="41.598706" lon="2.080483">
        <ele>237.60</ele>
        <time>1970-01-01T00:58:29Z</time>
      </trkpt>
      <trkpt lat="41.598739" lon="2.080480">
        <ele>237.90</ele>
        <time>1970-01-01T00:58:30Z</time>
      </trkpt>
      <trkpt lat="41.598782" lon="2.080476">
        <ele>238.30</ele>
        <time>1970-01-01T00:58:31Z</time>
      </trkpt>
      <trkpt lat="41.598815" lon="2.080472">
        <ele>238.60</ele>
        <time>1970-01-01T00:58:33Z</time>
      </trkpt>
      <trkpt lat="41.598844" lon="2.080470">
        <ele>238.90</ele>
        <time>1970-01-01T00:58:34Z</time>
      </trkpt>
      <trkpt lat="41.598887" lon="2.080475">
        <ele>239.30</ele>
        <time>1970-01-01T00:58:35Z</time>
      </trkpt>
      <trkpt lat="41.598918" lon="2.080475">
        <ele>239.60</ele>
        <time>1970-01-01T00:58:36Z</time>
      </trkpt>
      <trkpt lat="41.598949" lon="2.080475">
        <ele>239.90</ele>
        <time>1970-01-01T00:58:38Z</time>
      </trkpt>
      <trkpt lat="41.598978" lon="2.080474">
        <ele>240.20</ele>
        <time>1970-01-01T00:58:39Z</time>
      </trkpt>
      <trkpt lat="41.599008" lon="2.080477">
        <ele>240.50</ele>
        <time>1970-01-01T00:58:40Z</time>
      </trkpt>
      <trkpt lat="41.599056" lon="2.080477">
        <ele>241.00</ele>
        <time>1970-01-01T00:58:42Z</time>
      </trkpt>
      <trkpt lat="41.599087" lon="2.080475">
        <ele>241.30</ele>
        <time>1970-01-01T00:58:43Z</time>
      </trkpt>
      <trkpt lat="41.599141" lon="2.080470">
        <ele>241.80</ele>
        <time>1970-01-01T00:58:45Z</time>
      </trkpt>
      <trkpt lat="41.599190" lon="2.080472">
        <ele>242.40</ele>
        <time>1970-01-01T00:58:47Z</time>
      </trkpt>
      <trkpt lat="41.599235" lon="2.080470">
        <ele>242.80</ele>
        <time>1970-01-01T00:58:48Z</time>
      </trkpt>
      <trkpt lat="41.599254" lon="2.080470">
        <ele>243.00</ele>
        <time>1970-01-01T00:58:49Z</time>
      </trkpt>
      <trkpt lat="41.599296" lon="2.080470">
        <ele>243.50</ele>
        <time>1970-01-01T00:58:51Z</time>
      </trkpt>
      <trkpt lat="41.599336" lon="2.080474">
        <ele>243.90</ele>
        <time>1970-01-01T00:58:52Z</time>
      </trkpt>
      <trkpt lat="41.599378" lon="2.080473">
        <ele>244.40</ele>
        <time>1970-01-01T00:58:54Z</time>
      </trkpt>
      <trkpt lat="41.599426" lon="2.080468">
        <ele>244.90</ele>
        <time>1970-01-01T00:58:55Z</time>
      </trkpt>
      <trkpt lat="41.599467" lon="2.080466">
        <ele>245.40</ele>
        <time>1970-01-01T00:58:57Z</time>
      </trkpt>
      <trkpt lat="41.599510" lon="2.080470">
        <ele>245.80</ele>
        <time>1970-01-01T00:58:58Z</time>
      </trkpt>
      <trkpt lat="41.599528" lon="2.080473">
        <ele>246.00</ele>
        <time>1970-01-01T00:58:59Z</time>
      </trkpt>
      <trkpt lat="41.599565" lon="2.080479">
        <ele>246.40</ele>
        <time>1970-01-01T00:59:01Z</time>
      </trkpt>
      <trkpt lat="41.599605" lon="2.080487">
        <ele>246.90</ele>
        <time>1970-01-01T00:59:02Z</time>
      </trkpt>
      <trkpt lat="41.599618" lon="2.080489">
        <ele>247.00</ele>
        <time>1970-01-01T00:59:03Z</time>
      </trkpt>
      <trkpt lat="41.599672" lon="2.080499">
        <ele>247.60</ele>
        <time>1970-01-01T00:59:05Z</time>
      </trkpt>
      <trkpt lat="41.599726" lon="2.080493">
        <ele>248.20</ele>
        <time>1970-01-01T00:59:07Z</time>
      </trkpt>
      <trkpt lat="41.599786" lon="2.080471">
        <ele>248.90</ele>
        <time>1970-01-01T00:59:09Z</time>
      </trkpt>
      <trkpt lat="41.599832" lon="2.080461">
        <ele>249.50</ele>
        <time>1970-01-01T00:59:11Z</time>
      </trkpt>
      <trkpt lat="41.599867" lon="2.080459">
        <ele>249.90</ele>
        <time>1970-01-01T00:59:12Z</time>
      </trkpt>
      <trkpt lat="41.599903" lon="2.080458">
        <ele>250.30</ele>
        <time>1970-01-01T00:59:13Z</time>
      </trkpt>
      <trkpt lat="41.599950" lon="2.080456">
        <ele>250.80</ele>
        <time>1970-01-01T00:59:15Z</time>
      </trkpt>
      <trkpt lat="41.599982" lon="2.080453">
        <ele>251.20</ele>
        <time>1970-01-01T00:59:16Z</time>
      </trkpt>
      <trkpt lat="41.600036" lon="2.080448">
        <ele>251.80</ele>
        <time>1970-01-01T00:59:18Z</time>
      </trkpt>
      <trkpt lat="41.600078" lon="2.080445">
        <ele>252.30</ele>
        <time>1970-01-01T00:59:19Z</time>
      </trkpt>
      <trkpt lat="41.600118" lon="2.080438">
        <ele>252.80</ele>
        <time>1970-01-01T00:59:21Z</time>
      </trkpt>
      <trkpt lat="41.600159" lon="2.080438">
        <ele>253.20</ele>
        <time>1970-01-01T00:59:22Z</time>
      </trkpt>
      <trkpt lat="41.600193" lon="2.080441">
        <ele>253.60</ele>
        <time>1970-01-01T00:59:23Z</time>
      </trkpt>
      <trkpt lat="41.600222" lon="2.080443">
        <ele>254.00</ele>
        <time>1970-01-01T00:59:24Z</time>
      </trkpt>
      <trkpt lat="41.600251" lon="2.080446">
        <ele>254.30</ele>
        <time>1970-01-01T00:59:26Z</time>
      </trkpt>
      <trkpt lat="41.600277" lon="2.080456">
        <ele>254.50</ele>
        <time>1970-01-01T00:59:27Z</time>
      </trkpt>
      <trkpt lat="41.600307" lon="2.080468">
        <ele>254.90</ele>
        <time>1970-01-01T00:59:28Z</time>
      </trkpt>
      <trkpt lat="41.600333" lon="2.080479">
        <ele>255.10</ele>
        <time>1970-01-01T00:59:29Z</time>
      </trkpt>
      <trkpt lat="41.600374" lon="2.080496">
        <ele>255.60</ele>
        <time>1970-01-01T00:59:30Z</time>
      </trkpt>
      <trkpt lat="41.600407" lon="2.080517">
        <ele>255.90</ele>
        <time>1970-01-01T00:59:32Z</time>
      </trkpt>
      <trkpt lat="41.600436" lon="2.080543">
        <ele>256.30</ele>
        <time>1970-01-01T00:59:33Z</time>
      </trkpt>
      <trkpt lat="41.600465" lon="2.080564">
        <ele>256.60</ele>
        <time>1970-01-01T00:59:34Z</time>
      </trkpt>
      <trkpt lat="41.600501" lon="2.080586">
        <ele>256.90</ele>
        <time>1970-01-01T00:59:36Z</time>
      </trkpt>
      <trkpt lat="41.600527" lon="2.080605">
        <ele>257.20</ele>
        <time>1970-01-01T00:59:37Z</time>
      </trkpt>
      <trkpt lat="41.600562" lon="2.080631">
        <ele>257.60</ele>
        <time>1970-01-01T00:59:39Z</time>
      </trkpt>
      <trkpt lat="41.600590" lon="2.080653">
        <ele>257.90</ele>
        <time>1970-01-01T00:59:40Z</time>
      </trkpt>
      <trkpt lat="41.600614" lon="2.080673">
        <ele>258.10</ele>
        <time>1970-01-01T00:59:41Z</time>
      </trkpt>
      <trkpt lat="41.600653" lon="2.080708">
        <ele>258.60</ele>
        <time>1970-01-01T00:59:43Z</time>
      </trkpt>
      <trkpt lat="41.600683" lon="2.080733">
        <ele>258.90</ele>
        <time>1970-01-01T00:59:44Z</time>
      </trkpt>
      <trkpt lat="41.600706" lon="2.080751">
        <ele>259.10</ele>
        <time>1970-01-01T00:59:45Z</time>
      </trkpt>
      <trkpt lat="41.600751" lon="2.080782">
        <ele>259.60</ele>
        <time>1970-01-01T00:59:47Z</time>
      </trkpt>
      <trkpt lat="41.600783" lon="2.080800">
        <ele>259.90</ele>
        <time>1970-01-01T00:59:48Z</time>
      </trkpt>
      <trkpt lat="41.600811" lon="2.080822">
        <ele>260.20</ele>
        <time>1970-01-01T00:59:49Z</time>
      </trkpt>
      <trkpt lat="41.600846" lon="2.080851">
        <ele>260.50</ele>
        <time>1970-01-01T00:59:51Z</time>
      </trkpt>
      <trkpt lat="41.600871" lon="2.080874">
        <ele>260.80</ele>
        <time>1970-01-01T00:59:52Z</time>
      </trkpt>
      <trkpt lat="41.600901" lon="2.080897">
        <ele>261.00</ele>
        <time>1970-01-01T00:59:53Z</time>
      </trkpt>
      <trkpt lat="41.600936" lon="2.080918">
        <ele>261.40</ele>
        <time>1970-01-01T00:59:54Z</time>
      </trkpt>
      <trkpt lat="41.600972" lon="2.080939">
        <ele>261.70</ele>
        <time>1970-01-01T00:59:56Z</time>
      </trkpt>
      <trkpt lat="41.601002" lon="2.080953">
        <ele>261.90</ele>
        <time>1970-01-01T00:59:57Z</time>
      </trkpt>
      <trkpt lat="41.601040" lon="2.080973">
        <ele>262.20</ele>
        <time>1970-01-01T00:59:59Z</time>
      </trkpt>
      <trkpt lat="41.601069" lon="2.080992">
        <ele>262.50</ele>
        <time>1970-01-01T01:00:00Z</time>
      </trkpt>
      <trkpt lat="41.601113" lon="2.081018">
        <ele>262.80</ele>
        <time>1970-01-01T01:00:02Z</time>
      </trkpt>
      <trkpt lat="41.601136" lon="2.081032">
        <ele>263.00</ele>
        <time>1970-01-01T01:00:03Z</time>
      </trkpt>
      <trkpt lat="41.601190" lon="2.081056">
        <ele>263.40</ele>
        <time>1970-01-01T01:00:05Z</time>
      </trkpt>
      <trkpt lat="41.601229" lon="2.081071">
        <ele>263.70</ele>
        <time>1970-01-01T01:00:06Z</time>
      </trkpt>
      <trkpt lat="41.601291" lon="2.081095">
        <ele>264.10</ele>
        <time>1970-01-01T01:00:08Z</time>
      </trkpt>
      <trkpt lat="41.601351" lon="2.081124">
        <ele>264.60</ele>
        <time>1970-01-01T01:00:10Z</time>
      </trkpt>
      <trkpt lat="41.601402" lon="2.081148">
        <ele>265.00</ele>
        <time>1970-01-01T01:00:12Z</time>
      </trkpt>
      <trkpt lat="41.601433" lon="2.081160">
        <ele>265.20</ele>
        <time>1970-01-01T01:00:13Z</time>
      </trkpt>
      <trkpt lat="41.601483" lon="2.081184">
        <ele>265.60</ele>
        <time>1970-01-01T01:00:15Z</time>
      </trkpt>
      <trkpt lat="41.601518" lon="2.081201">
        <ele>265.90</ele>
        <time>1970-01-01T01:00:16Z</time>
      </trkpt>
      <trkpt lat="41.601555" lon="2.081220">
        <ele>266.20</ele>
        <time>1970-01-01T01:00:17Z</time>
      </trkpt>
      <trkpt lat="41.601602" lon="2.081240">
        <ele>266.60</ele>
        <time>1970-01-01T01:00:19Z</time>
      </trkpt>
      <trkpt lat="41.601641" lon="2.081257">
        <ele>266.90</ele>
        <time>1970-01-01T01:00:20Z</time>
      </trkpt>
      <trkpt lat="41.601674" lon="2.081268">
        <ele>267.20</ele>
        <time>1970-01-01T01:00:21Z</time>
      </trkpt>
      <trkpt lat="41.601711" lon="2.081280">
        <ele>267.50</ele>
        <time>1970-01-01T01:00:22Z</time>
      </trkpt>
      <trkpt lat="41.601749" lon="2.081294">
        <ele>267.80</ele>
        <time>1970-01-01T01:00:23Z</time>
      </trkpt>
      <trkpt lat="41.601790" lon="2.081311">
        <ele>268.10</ele>
        <time>1970-01-01T01:00:25Z</time>
      </trkpt>
      <trkpt lat="41.601819" lon="2.081323">
        <ele>268.30</ele>
        <time>1970-01-01T01:00:26Z</time>
      </trkpt>
      <trkpt lat="41.601856" lon="2.081344">
        <ele>268.70</ele>
        <time>1970-01-01T01:00:27Z</time>
      </trkpt>
      <trkpt lat="41.601896" lon="2.081366">
        <ele>269.00</ele>
        <time>1970-01-01T01:00:29Z</time>
      </trkpt>
      <trkpt lat="41.601936" lon="2.081383">
        <ele>269.30</ele>
        <time>1970-01-01T01:00:30Z</time>
      </trkpt>
      <trkpt lat="41.601988" lon="2.081404">
        <ele>269.80</ele>
        <time>1970-01-01T01:00:32Z</time>
      </trkpt>
      <trkpt lat="41.602019" lon="2.081415">
        <ele>270.00</ele>
        <time>1970-01-01T01:00:33Z</time>
      </trkpt>
      <trkpt lat="41.602073" lon="2.081435">
        <ele>270.50</ele>
        <time>1970-01-01T01:00:35Z</time>
      </trkpt>
      <trkpt lat="41.602104" lon="2.081442">
        <ele>270.70</ele>
        <time>1970-01-01T01:00:36Z</time>
      </trkpt>
      <trkpt lat="41.602145" lon="2.081448">
        <ele>271.00</ele>
        <time>1970-01-01T01:00:37Z</time>
      </trkpt>
      <trkpt lat="41.602195" lon="2.081461">
        <ele>271.50</ele>
        <time>1970-01-01T01:00:39Z</time>
      </trkpt>
      <trkpt lat="41.602247" lon="2.081465">
        <ele>271.90</ele>
        <time>1970-01-01T01:00:41Z</time>
      </trkpt>
      <trkpt lat="41.602312" lon="2.081478">
        <ele>272.40</ele>
        <time>1970-01-01T01:00:43Z</time>
      </trkpt>
      <trkpt lat="41.602356" lon="2.081482">
        <ele>272.80</ele>
        <time>1970-01-01T01:00:44Z</time>
      </trkpt>
      <trkpt lat="41.602391" lon="2.081483">
        <ele>273.00</ele>
        <time>1970-01-01T01:00:46Z</time>
      </trkpt>
      <trkpt lat="41.602428" lon="2.081481">
        <ele>273.30</ele>
        <time>1970-01-01T01:00:47Z</time>
      </trkpt>
      <trkpt lat="41.602461" lon="2.081480">
        <ele>273.60</ele>
        <time>1970-01-01T01:00:48Z</time>
      </trkpt>
      <trkpt lat="41.602508" lon="2.081478">
        <ele>274.00</ele>
        <time>1970-01-01T01:00:50Z</time>
      </trkpt>
      <trkpt lat="41.602547" lon="2.081475">
        <ele>274.30</ele>
        <time>1970-01-01T01:00:51Z</time>
      </trkpt>
      <trkpt lat="41.602573" lon="2.081469">
        <ele>274.50</ele>
        <time>1970-01-01T01:00:52Z</time>
      </trkpt>
      <trkpt lat="41.602608" lon="2.081466">
        <ele>274.80</ele>
        <time>1970-01-01T01:00:53Z</time>
      </trkpt>
      <trkpt lat="41.602640" lon="2.081464">
        <ele>275.10</ele>
        <time>1970-01-01T01:00:54Z</time>
      </trkpt>
      <trkpt lat="41.602680" lon="2.081467">
        <ele>275.40</ele>
        <time>1970-01-01T01:00:56Z</time>
      </trkpt>
      <trkpt lat="41.602713" lon="2.081472">
        <ele>275.70</ele>
        <time>1970-01-01T01:00:57Z</time>
      </trkpt>
      <trkpt lat="41.602761" lon="2.081477">
        <ele>276.20</ele>
        <time>1970-01-01T01:00:59Z</time>
      </trkpt>
      <trkpt lat="41.602809" lon="2.081481">
        <ele>276.60</ele>
        <time>1970-01-01T01:01:00Z</time>
      </trkpt>
      <trkpt lat="41.602850" lon="2.081490">
        <ele>277.00</ele>
        <time>1970-01-01T01:01:02Z</time>
      </trkpt>
      <trkpt lat="41.602891" lon="2.081499">
        <ele>277.40</ele>
        <time>1970-01-01T01:01:03Z</time>
      </trkpt>
      <trkpt lat="41.602940" lon="2.081516">
        <ele>277.80</ele>
        <time>1970-01-01T01:01:05Z</time>
      </trkpt>
      <trkpt lat="41.602987" lon="2.081548">
        <ele>278.30</ele>
        <time>1970-01-01T01:01:07Z</time>
      </trkpt>
      <trkpt lat="41.603018" lon="2.081578">
        <ele>278.60</ele>
        <time>1970-01-01T01:01:08Z</time>
      </trkpt>
      <trkpt lat="41.603058" lon="2.081621">
        <ele>279.00</ele>
        <time>1970-01-01T01:01:10Z</time>
      </trkpt>
      <trkpt lat="41.603087" lon="2.081662">
        <ele>279.40</ele>
        <time>1970-01-01T01:01:11Z</time>
      </trkpt>
      <trkpt lat="41.603106" lon="2.081701">
        <ele>279.60</ele>
        <time>1970-01-01T01:01:12Z</time>
      </trkpt>
      <trkpt lat="41.603129" lon="2.081777">
        <ele>280.10</ele>
        <time>1970-01-01T01:01:14Z</time>
      </trkpt>
      <trkpt lat="41.603136" lon="2.081823">
        <ele>280.40</ele>
        <time>1970-01-01T01:01:15Z</time>
      </trkpt>
      <trkpt lat="41.603142" lon="2.081907">
        <ele>280.90</ele>
        <time>1970-01-01T01:01:17Z</time>
      </trkpt>
      <trkpt lat="41.603144" lon="2.081974">
        <ele>281.30</ele>
        <time>1970-01-01T01:01:18Z</time>
      </trkpt>
      <trkpt lat="41.603136" lon="2.082036">
        <ele>281.60</ele>
        <time>1970-01-01T01:01:20Z</time>
      </trkpt>
      <trkpt lat="41.603117" lon="2.082119">
        <ele>282.10</ele>
        <time>1970-01-01T01:01:22Z</time>
      </trkpt>
      <trkpt lat="41.603105" lon="2.082161">
        <ele>282.40</ele>
        <time>1970-01-01T01:01:23Z</time>
      </trkpt>
      <trkpt lat="41.603093" lon="2.082199">
        <ele>282.60</ele>
        <time>1970-01-01T01:01:24Z</time>
      </trkpt>
      <trkpt lat="41.603073" lon="2.082251">
        <ele>283.00</ele>
        <time>1970-01-01T01:01:25Z</time>
      </trkpt>
      <trkpt lat="41.603049" lon="2.082305">
        <ele>283.30</ele>
        <time>1970-01-01T01:01:27Z</time>
      </trkpt>
      <trkpt lat="41.603025" lon="2.082357">
        <ele>283.60</ele>
        <time>1970-01-01T01:01:28Z</time>
      </trkpt>
      <trkpt lat="41.602999" lon="2.082417">
        <ele>284.00</ele>
        <time>1970-01-01T01:01:30Z</time>
      </trkpt>
      <trkpt lat="41.602979" lon="2.082481">
        <ele>284.30</ele>
        <time>1970-01-01T01:01:32Z</time>
      </trkpt>
      <trkpt lat="41.602971" lon="2.082523">
        <ele>284.50</ele>
        <time>1970-01-01T01:01:33Z</time>
      </trkpt>
      <trkpt lat="41.602965" lon="2.082572">
        <ele>284.80</ele>
        <time>1970-01-01T01:01:34Z</time>
      </trkpt>
      <trkpt lat="41.602961" lon="2.082645">
        <ele>285.10</ele>
        <time>1970-01-01T01:01:36Z</time>
      </trkpt>
      <trkpt lat="41.602966" lon="2.082696">
        <ele>285.40</ele>
        <time>1970-01-01T01:01:37Z</time>
      </trkpt>
      <trkpt lat="41.602972" lon="2.082749">
        <ele>285.60</ele>
        <time>1970-01-01T01:01:38Z</time>
      </trkpt>
      <trkpt lat="41.602979" lon="2.082807">
        <ele>285.90</ele>
        <time>1970-01-01T01:01:40Z</time>
      </trkpt>
      <trkpt lat="41.602992" lon="2.082861">
        <ele>286.20</ele>
        <time>1970-01-01T01:01:41Z</time>
      </trkpt>
      <trkpt lat="41.603006" lon="2.082900">
        <ele>286.40</ele>
        <time>1970-01-01T01:01:42Z</time>
      </trkpt>
      <trkpt lat="41.603027" lon="2.082951">
        <ele>286.70</ele>
        <time>1970-01-01T01:01:43Z</time>
      </trkpt>
      <trkpt lat="41.603052" lon="2.082993">
        <ele>286.90</ele>
        <time>1970-01-01T01:01:45Z</time>
      </trkpt>
      <trkpt lat="41.603072" lon="2.083028">
        <ele>287.20</ele>
        <time>1970-01-01T01:01:46Z</time>
      </trkpt>
      <trkpt lat="41.603118" lon="2.083084">
        <ele>287.60</ele>
        <time>1970-01-01T01:01:48Z</time>
      </trkpt>
      <trkpt lat="41.603144" lon="2.083111">
        <ele>287.80</ele>
        <time>1970-01-01T01:01:49Z</time>
      </trkpt>
      <trkpt lat="41.603175" lon="2.083141">
        <ele>288.00</ele>
        <time>1970-01-01T01:01:50Z</time>
      </trkpt>
      <trkpt lat="41.603203" lon="2.083163">
        <ele>288.20</ele>
        <time>1970-01-01T01:01:51Z</time>
      </trkpt>
      <trkpt lat="41.603237" lon="2.083186">
        <ele>288.50</ele>
        <time>1970-01-01T01:01:53Z</time>
      </trkpt>
      <trkpt lat="41.603275" lon="2.083204">
        <ele>288.70</ele>
        <time>1970-01-01T01:01:54Z</time>
      </trkpt>
      <trkpt lat="41.603321" lon="2.083220">
        <ele>289.00</ele>
        <time>1970-01-01T01:01:55Z</time>
      </trkpt>
      <trkpt lat="41.603365" lon="2.083233">
        <ele>289.30</ele>
        <time>1970-01-01T01:01:57Z</time>
      </trkpt>
      <trkpt lat="41.603410" lon="2.083242">
        <ele>289.50</ele>
        <time>1970-01-01T01:01:58Z</time>
      </trkpt>
      <trkpt lat="41.603465" lon="2.083256">
        <ele>289.90</ele>
        <time>1970-01-01T01:02:00Z</time>
      </trkpt>
      <trkpt lat="41.603496" lon="2.083265">
        <ele>290.00</ele>
        <time>1970-01-01T01:02:01Z</time>
      </trkpt>
      <trkpt lat="41.603559" lon="2.083265">
        <ele>290.40</ele>
        <time>1970-01-01T01:02:03Z</time>
      </trkpt>
      <trkpt lat="41.603622" lon="2.083270">
        <ele>290.40</ele>
        <time>1970-01-01T01:02:05Z</time>
      </trkpt>
      <trkpt lat="41.603661" lon="2.083288">
        <ele>290.60</ele>
        <time>1970-01-01T01:02:06Z</time>
      </trkpt>
      <trkpt lat="41.603692" lon="2.083304">
        <ele>290.70</ele>
        <time>1970-01-01T01:02:07Z</time>
      </trkpt>
      <trkpt lat="41.603726" lon="2.083321">
        <ele>290.70</ele>
        <time>1970-01-01T01:02:08Z</time>
      </trkpt>
      <trkpt lat="41.603768" lon="2.083345">
        <ele>290.90</ele>
        <time>1970-01-01T01:02:10Z</time>
      </trkpt>
      <trkpt lat="41.603804" lon="2.083356">
        <ele>291.00</ele>
        <time>1970-01-01T01:02:11Z</time>
      </trkpt>
      <trkpt lat="41.603844" lon="2.083376">
        <ele>291.10</ele>
        <time>1970-01-01T01:02:12Z</time>
      </trkpt>
      <trkpt lat="41.603875" lon="2.083410">
        <ele>291.20</ele>
        <time>1970-01-01T01:02:14Z</time>
      </trkpt>
      <trkpt lat="41.603892" lon="2.083448">
        <ele>291.40</ele>
        <time>1970-01-01T01:02:15Z</time>
      </trkpt>
      <trkpt lat="41.603909" lon="2.083483">
        <ele>291.60</ele>
        <time>1970-01-01T01:02:16Z</time>
      </trkpt>
      <trkpt lat="41.603934" lon="2.083505">
        <ele>291.80</ele>
        <time>1970-01-01T01:02:17Z</time>
      </trkpt>
      <trkpt lat="41.603966" lon="2.083511">
        <ele>292.00</ele>
        <time>1970-01-01T01:02:18Z</time>
      </trkpt>
      <trkpt lat="41.604034" lon="2.083529">
        <ele>292.10</ele>
        <time>1970-01-01T01:02:20Z</time>
      </trkpt>
      <trkpt lat="41.604079" lon="2.083546">
        <ele>292.40</ele>
        <time>1970-01-01T01:02:21Z</time>
      </trkpt>
      <trkpt lat="41.604144" lon="2.083573">
        <ele>292.70</ele>
        <time>1970-01-01T01:02:22Z</time>
      </trkpt>
      <trkpt lat="41.604195" lon="2.083595">
        <ele>293.10</ele>
        <time>1970-01-01T01:02:24Z</time>
      </trkpt>
      <trkpt lat="41.604260" lon="2.083616">
        <ele>293.40</ele>
        <time>1970-01-01T01:02:26Z</time>
      </trkpt>
      <trkpt lat="41.604303" lon="2.083634">
        <ele>293.80</ele>
        <time>1970-01-01T01:02:27Z</time>
      </trkpt>
      <trkpt lat="41.604347" lon="2.083645">
        <ele>294.10</ele>
        <time>1970-01-01T01:02:28Z</time>
      </trkpt>
      <trkpt lat="41.604416" lon="2.083662">
        <ele>294.30</ele>
        <time>1970-01-01T01:02:30Z</time>
      </trkpt>
      <trkpt lat="41.604456" lon="2.083661">
        <ele>294.40</ele>
        <time>1970-01-01T01:02:31Z</time>
      </trkpt>
      <trkpt lat="41.604494" lon="2.083655">
        <ele>294.50</ele>
        <time>1970-01-01T01:02:32Z</time>
      </trkpt>
      <trkpt lat="41.604541" lon="2.083639">
        <ele>294.60</ele>
        <time>1970-01-01T01:02:33Z</time>
      </trkpt>
      <trkpt lat="41.604592" lon="2.083621">
        <ele>294.70</ele>
        <time>1970-01-01T01:02:35Z</time>
      </trkpt>
      <trkpt lat="41.604643" lon="2.083608">
        <ele>294.80</ele>
        <time>1970-01-01T01:02:36Z</time>
      </trkpt>
      <trkpt lat="41.604680" lon="2.083607">
        <ele>294.80</ele>
        <time>1970-01-01T01:02:37Z</time>
      </trkpt>
      <trkpt lat="41.604735" lon="2.083616">
        <ele>294.90</ele>
        <time>1970-01-01T01:02:38Z</time>
      </trkpt>
      <trkpt lat="41.604773" lon="2.083631">
        <ele>295.00</ele>
        <time>1970-01-01T01:02:40Z</time>
      </trkpt>
      <trkpt lat="41.604805" lon="2.083659">
        <ele>295.10</ele>
        <time>1970-01-01T01:02:41Z</time>
      </trkpt>
      <trkpt lat="41.604830" lon="2.083685">
        <ele>295.20</ele>
        <time>1970-01-01T01:02:42Z</time>
      </trkpt>
      <trkpt lat="41.604867" lon="2.083712">
        <ele>295.30</ele>
        <time>1970-01-01T01:02:43Z</time>
      </trkpt>
      <trkpt lat="41.604903" lon="2.083728">
        <ele>295.40</ele>
        <time>1970-01-01T01:02:45Z</time>
      </trkpt>
      <trkpt lat="41.604948" lon="2.083742">
        <ele>295.50</ele>
        <time>1970-01-01T01:02:46Z</time>
      </trkpt>
      <trkpt lat="41.604984" lon="2.083752">
        <ele>295.60</ele>
        <time>1970-01-01T01:02:47Z</time>
      </trkpt>
      <trkpt lat="41.605021" lon="2.083757">
        <ele>295.70</ele>
        <time>1970-01-01T01:02:48Z</time>
      </trkpt>
      <trkpt lat="41.605059" lon="2.083760">
        <ele>295.70</ele>
        <time>1970-01-01T01:02:49Z</time>
      </trkpt>
      <trkpt lat="41.605114" lon="2.083767">
        <ele>295.90</ele>
        <time>1970-01-01T01:02:50Z</time>
      </trkpt>
      <trkpt lat="41.605168" lon="2.083769">
        <ele>296.00</ele>
        <time>1970-01-01T01:02:52Z</time>
      </trkpt>
      <trkpt lat="41.605241" lon="2.083766">
        <ele>296.10</ele>
        <time>1970-01-01T01:02:54Z</time>
      </trkpt>
      <trkpt lat="41.605289" lon="2.083766">
        <ele>296.20</ele>
        <time>1970-01-01T01:02:55Z</time>
      </trkpt>
      <trkpt lat="41.605328" lon="2.083774">
        <ele>296.30</ele>
        <time>1970-01-01T01:02:56Z</time>
      </trkpt>
      <trkpt lat="41.605367" lon="2.083780">
        <ele>296.40</ele>
        <time>1970-01-01T01:02:57Z</time>
      </trkpt>
      <trkpt lat="41.605413" lon="2.083780">
        <ele>296.50</ele>
        <time>1970-01-01T01:02:58Z</time>
      </trkpt>
      <trkpt lat="41.605464" lon="2.083776">
        <ele>296.60</ele>
        <time>1970-01-01T01:02:59Z</time>
      </trkpt>
      <trkpt lat="41.605505" lon="2.083768">
        <ele>296.70</ele>
        <time>1970-01-01T01:03:01Z</time>
      </trkpt>
      <trkpt lat="41.605558" lon="2.083758">
        <ele>296.80</ele>
        <time>1970-01-01T01:03:02Z</time>
      </trkpt>
      <trkpt lat="41.605606" lon="2.083756">
        <ele>296.90</ele>
        <time>1970-01-01T01:03:03Z</time>
      </trkpt>
      <trkpt lat="41.605649" lon="2.083756">
        <ele>297.00</ele>
        <time>1970-01-01T01:03:04Z</time>
      </trkpt>
      <trkpt lat="41.605704" lon="2.083752">
        <ele>297.20</ele>
        <time>1970-01-01T01:03:06Z</time>
      </trkpt>
      <trkpt lat="41.605764" lon="2.083751">
        <ele>297.30</ele>
        <time>1970-01-01T01:03:07Z</time>
      </trkpt>
      <trkpt lat="41.605821" lon="2.083747">
        <ele>297.50</ele>
        <time>1970-01-01T01:03:09Z</time>
      </trkpt>
      <trkpt lat="41.605859" lon="2.083743">
        <ele>297.60</ele>
        <time>1970-01-01T01:03:10Z</time>
      </trkpt>
      <trkpt lat="41.605936" lon="2.083750">
        <ele>297.80</ele>
        <time>1970-01-01T01:03:12Z</time>
      </trkpt>
      <trkpt lat="41.606010" lon="2.083759">
        <ele>298.00</ele>
        <time>1970-01-01T01:03:14Z</time>
      </trkpt>
      <trkpt lat="41.606062" lon="2.083757">
        <ele>298.10</ele>
        <time>1970-01-01T01:03:15Z</time>
      </trkpt>
      <trkpt lat="41.606124" lon="2.083757">
        <ele>298.20</ele>
        <time>1970-01-01T01:03:17Z</time>
      </trkpt>
      <trkpt lat="41.606165" lon="2.083758">
        <ele>298.30</ele>
        <time>1970-01-01T01:03:18Z</time>
      </trkpt>
      <trkpt lat="41.606208" lon="2.083759">
        <ele>298.40</ele>
        <time>1970-01-01T01:03:19Z</time>
      </trkpt>
      <trkpt lat="41.606251" lon="2.083755">
        <ele>298.50</ele>
        <time>1970-01-01T01:03:20Z</time>
      </trkpt>
      <trkpt lat="41.606320" lon="2.083750">
        <ele>298.60</ele>
        <time>1970-01-01T01:03:22Z</time>
      </trkpt>
      <trkpt lat="41.606361" lon="2.083748">
        <ele>298.70</ele>
        <time>1970-01-01T01:03:23Z</time>
      </trkpt>
      <trkpt lat="41.606430" lon="2.083744">
        <ele>298.80</ele>
        <time>1970-01-01T01:03:25Z</time>
      </trkpt>
      <trkpt lat="41.606482" lon="2.083735">
        <ele>298.90</ele>
        <time>1970-01-01T01:03:26Z</time>
      </trkpt>
      <trkpt lat="41.606524" lon="2.083729">
        <ele>299.00</ele>
        <time>1970-01-01T01:03:27Z</time>
      </trkpt>
      <trkpt lat="41.606582" lon="2.083718">
        <ele>299.10</ele>
        <time>1970-01-01T01:03:28Z</time>
      </trkpt>
      <trkpt lat="41.606621" lon="2.083712">
        <ele>299.10</ele>
        <time>1970-01-01T01:03:29Z</time>
      </trkpt>
      <trkpt lat="41.606673" lon="2.083698">
        <ele>299.20</ele>
        <time>1970-01-01T01:03:31Z</time>
      </trkpt>
      <trkpt lat="41.606717" lon="2.083689">
        <ele>299.20</ele>
        <time>1970-01-01T01:03:32Z</time>
      </trkpt>
      <trkpt lat="41.606759" lon="2.083673">
        <ele>299.30</ele>
        <time>1970-01-01T01:03:33Z</time>
      </trkpt>
      <trkpt lat="41.606829" lon="2.083631">
        <ele>299.40</ele>
        <time>1970-01-01T01:03:35Z</time>
      </trkpt>
      <trkpt lat="41.606868" lon="2.083605">
        <ele>299.50</ele>
        <time>1970-01-01T01:03:36Z</time>
      </trkpt>
      <trkpt lat="41.606916" lon="2.083576">
        <ele>299.60</ele>
        <time>1970-01-01T01:03:37Z</time>
      </trkpt>
      <trkpt lat="41.606986" lon="2.083549">
        <ele>299.70</ele>
        <time>1970-01-01T01:03:38Z</time>
      </trkpt>
      <trkpt lat="41.607044" lon="2.083526">
        <ele>299.80</ele>
        <time>1970-01-01T01:03:40Z</time>
      </trkpt>
      <trkpt lat="41.607085" lon="2.083508">
        <ele>299.90</ele>
        <time>1970-01-01T01:03:41Z</time>
      </trkpt>
      <trkpt lat="41.607159" lon="2.083473">
        <ele>300.00</ele>
        <time>1970-01-01T01:03:43Z</time>
      </trkpt>
      <trkpt lat="41.607208" lon="2.083459">
        <ele>300.10</ele>
        <time>1970-01-01T01:03:44Z</time>
      </trkpt>
      <trkpt lat="41.607291" lon="2.083427">
        <ele>300.20</ele>
        <time>1970-01-01T01:03:46Z</time>
      </trkpt>
      <trkpt lat="41.607338" lon="2.083415">
        <ele>300.30</ele>
        <time>1970-01-01T01:03:47Z</time>
      </trkpt>
      <trkpt lat="41.607381" lon="2.083401">
        <ele>300.40</ele>
        <time>1970-01-01T01:03:48Z</time>
      </trkpt>
      <trkpt lat="41.607461" lon="2.083377">
        <ele>300.50</ele>
        <time>1970-01-01T01:03:50Z</time>
      </trkpt>
      <trkpt lat="41.607548" lon="2.083359">
        <ele>300.70</ele>
        <time>1970-01-01T01:03:52Z</time>
      </trkpt>
      <trkpt lat="41.607597" lon="2.083363">
        <ele>300.70</ele>
        <time>1970-01-01T01:03:53Z</time>
      </trkpt>
      <trkpt lat="41.607645" lon="2.083369">
        <ele>300.80</ele>
        <time>1970-01-01T01:03:54Z</time>
      </trkpt>
      <trkpt lat="41.607723" lon="2.083355">
        <ele>300.90</ele>
        <time>1970-01-01T01:03:56Z</time>
      </trkpt>
      <trkpt lat="41.607757" lon="2.083350">
        <ele>301.00</ele>
        <time>1970-01-01T01:03:57Z</time>
      </trkpt>
      <trkpt lat="41.607784" lon="2.083348">
        <ele>301.00</ele>
        <time>1970-01-01T01:03:58Z</time>
      </trkpt>
      <trkpt lat="41.607874" lon="2.083340">
        <ele>301.20</ele>
        <time>1970-01-01T01:04:00Z</time>
      </trkpt>
      <trkpt lat="41.607932" lon="2.083325">
        <ele>301.30</ele>
        <time>1970-01-01T01:04:01Z</time>
      </trkpt>
      <trkpt lat="41.607992" lon="2.083309">
        <ele>301.30</ele>
        <time>1970-01-01T01:04:02Z</time>
      </trkpt>
      <trkpt lat="41.608080" lon="2.083296">
        <ele>301.50</ele>
        <time>1970-01-01T01:04:04Z</time>
      </trkpt>
      <trkpt lat="41.608152" lon="2.083279">
        <ele>301.60</ele>
        <time>1970-01-01T01:04:05Z</time>
      </trkpt>
      <trkpt lat="41.608210" lon="2.083263">
        <ele>301.70</ele>
        <time>1970-01-01T01:04:07Z</time>
      </trkpt>
      <trkpt lat="41.608275" lon="2.083235">
        <ele>301.80</ele>
        <time>1970-01-01T01:04:08Z</time>
      </trkpt>
      <trkpt lat="41.608326" lon="2.083197">
        <ele>301.90</ele>
        <time>1970-01-01T01:04:10Z</time>
      </trkpt>
      <trkpt lat="41.608361" lon="2.083162">
        <ele>302.00</ele>
        <time>1970-01-01T01:04:11Z</time>
      </trkpt>
      <trkpt lat="41.608403" lon="2.083118">
        <ele>302.10</ele>
        <time>1970-01-01T01:04:12Z</time>
      </trkpt>
      <trkpt lat="41.608447" lon="2.083073">
        <ele>302.20</ele>
        <time>1970-01-01T01:04:13Z</time>
      </trkpt>
      <trkpt lat="41.608500" lon="2.083024">
        <ele>302.30</ele>
        <time>1970-01-01T01:04:15Z</time>
      </trkpt>
      <trkpt lat="41.608575" lon="2.082971">
        <ele>302.50</ele>
        <time>1970-01-01T01:04:17Z</time>
      </trkpt>
      <trkpt lat="41.608617" lon="2.082948">
        <ele>302.60</ele>
        <time>1970-01-01T01:04:18Z</time>
      </trkpt>
      <trkpt lat="41.608700" lon="2.082907">
        <ele>302.70</ele>
        <time>1970-01-01T01:04:20Z</time>
      </trkpt>
      <trkpt lat="41.608744" lon="2.082890">
        <ele>302.80</ele>
        <time>1970-01-01T01:04:21Z</time>
      </trkpt>
      <trkpt lat="41.608801" lon="2.082877">
        <ele>302.90</ele>
        <time>1970-01-01T01:04:22Z</time>
      </trkpt>
      <trkpt lat="41.608866" lon="2.082869">
        <ele>303.00</ele>
        <time>1970-01-01T01:04:24Z</time>
      </trkpt>
      <trkpt lat="41.608921" lon="2.082866">
        <ele>303.20</ele>
        <time>1970-01-01T01:04:25Z</time>
      </trkpt>
      <trkpt lat="41.609005" lon="2.082871">
        <ele>303.40</ele>
        <time>1970-01-01T01:04:27Z</time>
      </trkpt>
      <trkpt lat="41.609074" lon="2.082880">
        <ele>303.50</ele>
        <time>1970-01-01T01:04:28Z</time>
      </trkpt>
      <trkpt lat="41.609139" lon="2.082884">
        <ele>303.70</ele>
        <time>1970-01-01T01:04:30Z</time>
      </trkpt>
      <trkpt lat="41.609181" lon="2.082892">
        <ele>303.80</ele>
        <time>1970-01-01T01:04:31Z</time>
      </trkpt>
      <trkpt lat="41.609257" lon="2.082914">
        <ele>303.90</ele>
        <time>1970-01-01T01:04:33Z</time>
      </trkpt>
      <trkpt lat="41.609302" lon="2.082937">
        <ele>304.00</ele>
        <time>1970-01-01T01:04:34Z</time>
      </trkpt>
      <trkpt lat="41.609345" lon="2.082965">
        <ele>304.10</ele>
        <time>1970-01-01T01:04:35Z</time>
      </trkpt>
      <trkpt lat="41.609385" lon="2.082990">
        <ele>304.20</ele>
        <time>1970-01-01T01:04:36Z</time>
      </trkpt>
      <trkpt lat="41.609423" lon="2.083011">
        <ele>304.30</ele>
        <time>1970-01-01T01:04:37Z</time>
      </trkpt>
      <trkpt lat="41.609481" lon="2.083043">
        <ele>304.40</ele>
        <time>1970-01-01T01:04:38Z</time>
      </trkpt>
      <trkpt lat="41.609531" lon="2.083071">
        <ele>304.50</ele>
        <time>1970-01-01T01:04:40Z</time>
      </trkpt>
      <trkpt lat="41.609571" lon="2.083090">
        <ele>304.50</ele>
        <time>1970-01-01T01:04:41Z</time>
      </trkpt>
      <trkpt lat="41.609616" lon="2.083112">
        <ele>304.60</ele>
        <time>1970-01-01T01:04:42Z</time>
      </trkpt>
      <trkpt lat="41.609680" lon="2.083142">
        <ele>304.80</ele>
        <time>1970-01-01T01:04:44Z</time>
      </trkpt>
      <trkpt lat="41.609736" lon="2.083172">
        <ele>304.90</ele>
        <time>1970-01-01T01:04:45Z</time>
      </trkpt>
      <trkpt lat="41.609774" lon="2.083193">
        <ele>305.00</ele>
        <time>1970-01-01T01:04:46Z</time>
      </trkpt>
      <trkpt lat="41.609815" lon="2.083219">
        <ele>305.10</ele>
        <time>1970-01-01T01:04:47Z</time>
      </trkpt>
      <trkpt lat="41.609870" lon="2.083253">
        <ele>305.20</ele>
        <time>1970-01-01T01:04:48Z</time>
      </trkpt>
      <trkpt lat="41.609908" lon="2.083275">
        <ele>305.30</ele>
        <time>1970-01-01T01:04:49Z</time>
      </trkpt>
      <trkpt lat="41.609958" lon="2.083306">
        <ele>305.40</ele>
        <time>1970-01-01T01:04:51Z</time>
      </trkpt>
      <trkpt lat="41.610004" lon="2.083330">
        <ele>305.50</ele>
        <time>1970-01-01T01:04:52Z</time>
      </trkpt>
      <trkpt lat="41.610075" lon="2.083371">
        <ele>305.70</ele>
        <time>1970-01-01T01:04:54Z</time>
      </trkpt>
      <trkpt lat="41.610134" lon="2.083401">
        <ele>305.80</ele>
        <time>1970-01-01T01:04:55Z</time>
      </trkpt>
      <trkpt lat="41.610190" lon="2.083434">
        <ele>305.90</ele>
        <time>1970-01-01T01:04:57Z</time>
      </trkpt>
      <trkpt lat="41.610234" lon="2.083461">
        <ele>306.00</ele>
        <time>1970-01-01T01:04:58Z</time>
      </trkpt>
      <trkpt lat="41.610292" lon="2.083505">
        <ele>306.10</ele>
        <time>1970-01-01T01:05:00Z</time>
      </trkpt>
      <trkpt lat="41.610322" lon="2.083535">
        <ele>306.10</ele>
        <time>1970-01-01T01:05:01Z</time>
      </trkpt>
      <trkpt lat="41.610340" lon="2.083565">
        <ele>306.20</ele>
        <time>1970-01-01T01:05:02Z</time>
      </trkpt>
      <trkpt lat="41.610377" lon="2.083624">
        <ele>306.30</ele>
        <time>1970-01-01T01:05:04Z</time>
      </trkpt>
      <trkpt lat="41.610402" lon="2.083666">
        <ele>306.30</ele>
        <time>1970-01-01T01:05:05Z</time>
      </trkpt>
      <trkpt lat="41.610410" lon="2.083681">
        <ele>306.40</ele>
        <time>1970-01-01T01:05:06Z</time>
      </trkpt>
      <trkpt lat="41.610417" lon="2.083696">
        <ele>306.40</ele>
        <time>1970-01-01T01:05:08Z</time>
      </trkpt>
      <trkpt lat="41.610427" lon="2.083710">
        <ele>306.40</ele>
        <time>1970-01-01T01:05:10Z</time>
      </trkpt>
      <trkpt lat="41.610427" lon="2.083718">
        <ele>306.40</ele>
        <time>1970-01-01T01:05:11Z</time>
      </trkpt>
      <trkpt lat="41.610431" lon="2.083745">
        <ele>306.40</ele>
        <time>1970-01-01T01:05:12Z</time>
      </trkpt>
      <trkpt lat="41.610462" lon="2.083812">
        <ele>306.40</ele>
        <time>1970-01-01T01:05:14Z</time>
      </trkpt>
      <trkpt lat="41.610511" lon="2.083843">
        <ele>306.50</ele>
        <time>1970-01-01T01:05:15Z</time>
      </trkpt>
      <trkpt lat="41.610550" lon="2.083874">
        <ele>306.50</ele>
        <time>1970-01-01T01:05:16Z</time>
      </trkpt>
      <trkpt lat="41.610603" lon="2.083949">
        <ele>306.60</ele>
        <time>1970-01-01T01:05:18Z</time>
      </trkpt>
      <trkpt lat="41.610677" lon="2.084164">
        <ele>306.80</ele>
        <time>1970-01-01T01:05:21Z</time>
      </trkpt>
      <trkpt lat="41.610695" lon="2.084281">
        <ele>306.90</ele>
        <time>1970-01-01T01:05:23Z</time>
      </trkpt>
      <trkpt lat="41.610709" lon="2.084363">
        <ele>306.90</ele>
        <time>1970-01-01T01:05:24Z</time>
      </trkpt>
      <trkpt lat="41.610721" lon="2.084435">
        <ele>306.90</ele>
        <time>1970-01-01T01:05:25Z</time>
      </trkpt>
      <trkpt lat="41.610736" lon="2.084522">
        <ele>307.00</ele>
        <time>1970-01-01T01:05:27Z</time>
      </trkpt>
      <trkpt lat="41.610749" lon="2.084591">
        <ele>307.00</ele>
        <time>1970-01-01T01:05:28Z</time>
      </trkpt>
      <trkpt lat="41.610774" lon="2.084687">
        <ele>307.10</ele>
        <time>1970-01-01T01:05:30Z</time>
      </trkpt>
      <trkpt lat="41.610796" lon="2.084735">
        <ele>307.30</ele>
        <time>1970-01-01T01:05:31Z</time>
      </trkpt>
      <trkpt lat="41.610865" lon="2.084779">
        <ele>307.60</ele>
        <time>1970-01-01T01:05:33Z</time>
      </trkpt>
      <trkpt lat="41.610914" lon="2.084792">
        <ele>307.70</ele>
        <time>1970-01-01T01:05:34Z</time>
      </trkpt>
      <trkpt lat="41.610970" lon="2.084808">
        <ele>307.90</ele>
        <time>1970-01-01T01:05:35Z</time>
      </trkpt>
      <trkpt lat="41.611025" lon="2.084829">
        <ele>308.20</ele>
        <time>1970-01-01T01:05:37Z</time>
      </trkpt>
      <trkpt lat="41.611091" lon="2.084859">
        <ele>308.50</ele>
        <time>1970-01-01T01:05:39Z</time>
      </trkpt>
      <trkpt lat="41.611142" lon="2.084882">
        <ele>308.70</ele>
        <time>1970-01-01T01:05:41Z</time>
      </trkpt>
      <trkpt lat="41.611186" lon="2.084907">
        <ele>309.00</ele>
        <time>1970-01-01T01:05:42Z</time>
      </trkpt>
      <trkpt lat="41.611233" lon="2.084934">
        <ele>309.20</ele>
        <time>1970-01-01T01:05:43Z</time>
      </trkpt>
      <trkpt lat="41.611267" lon="2.084949">
        <ele>309.40</ele>
        <time>1970-01-01T01:05:45Z</time>
      </trkpt>
      <trkpt lat="41.611312" lon="2.084971">
        <ele>309.60</ele>
        <time>1970-01-01T01:05:46Z</time>
      </trkpt>
      <trkpt lat="41.611347" lon="2.084996">
        <ele>309.70</ele>
        <time>1970-01-01T01:05:47Z</time>
      </trkpt>
      <trkpt lat="41.611381" lon="2.085024">
        <ele>309.90</ele>
        <time>1970-01-01T01:05:48Z</time>
      </trkpt>
      <trkpt lat="41.611447" lon="2.085056">
        <ele>310.10</ele>
        <time>1970-01-01T01:05:50Z</time>
      </trkpt>
      <trkpt lat="41.611487" lon="2.085072">
        <ele>310.30</ele>
        <time>1970-01-01T01:05:51Z</time>
      </trkpt>
      <trkpt lat="41.611530" lon="2.085092">
        <ele>310.40</ele>
        <time>1970-01-01T01:05:52Z</time>
      </trkpt>
      <trkpt lat="41.611569" lon="2.085111">
        <ele>310.60</ele>
        <time>1970-01-01T01:05:53Z</time>
      </trkpt>
      <trkpt lat="41.611634" lon="2.085137">
        <ele>310.90</ele>
        <time>1970-01-01T01:05:55Z</time>
      </trkpt>
      <trkpt lat="41.611676" lon="2.085151">
        <ele>311.10</ele>
        <time>1970-01-01T01:05:56Z</time>
      </trkpt>
      <trkpt lat="41.611712" lon="2.085166">
        <ele>311.20</ele>
        <time>1970-01-01T01:05:57Z</time>
      </trkpt>
      <trkpt lat="41.611783" lon="2.085192">
        <ele>311.50</ele>
        <time>1970-01-01T01:05:59Z</time>
      </trkpt>
      <trkpt lat="41.611823" lon="2.085202">
        <ele>311.70</ele>
        <time>1970-01-01T01:06:00Z</time>
      </trkpt>
      <trkpt lat="41.611901" lon="2.085233">
        <ele>312.00</ele>
        <time>1970-01-01T01:06:02Z</time>
      </trkpt>
      <trkpt lat="41.611948" lon="2.085254">
        <ele>312.20</ele>
        <time>1970-01-01T01:06:03Z</time>
      </trkpt>
      <trkpt lat="41.611993" lon="2.085272">
        <ele>312.30</ele>
        <time>1970-01-01T01:06:04Z</time>
      </trkpt>
      <trkpt lat="41.612054" lon="2.085298">
        <ele>312.60</ele>
        <time>1970-01-01T01:06:05Z</time>
      </trkpt>
      <trkpt lat="41.612112" lon="2.085321">
        <ele>312.80</ele>
        <time>1970-01-01T01:06:07Z</time>
      </trkpt>
      <trkpt lat="41.612156" lon="2.085336">
        <ele>312.90</ele>
        <time>1970-01-01T01:06:08Z</time>
      </trkpt>
      <trkpt lat="41.612195" lon="2.085350">
        <ele>313.00</ele>
        <time>1970-01-01T01:06:09Z</time>
      </trkpt>
      <trkpt lat="41.612238" lon="2.085366">
        <ele>313.10</ele>
        <time>1970-01-01T01:06:10Z</time>
      </trkpt>
      <trkpt lat="41.612281" lon="2.085387">
        <ele>313.20</ele>
        <time>1970-01-01T01:06:11Z</time>
      </trkpt>
      <trkpt lat="41.612349" lon="2.085419">
        <ele>313.30</ele>
        <time>1970-01-01T01:06:13Z</time>
      </trkpt>
      <trkpt lat="41.612419" lon="2.085448">
        <ele>313.40</ele>
        <time>1970-01-01T01:06:15Z</time>
      </trkpt>
      <trkpt lat="41.612492" lon="2.085476">
        <ele>313.60</ele>
        <time>1970-01-01T01:06:17Z</time>
      </trkpt>
      <trkpt lat="41.612563" lon="2.085505">
        <ele>313.80</ele>
        <time>1970-01-01T01:06:19Z</time>
      </trkpt>
      <trkpt lat="41.612599" lon="2.085522">
        <ele>313.90</ele>
        <time>1970-01-01T01:06:20Z</time>
      </trkpt>
      <trkpt lat="41.612667" lon="2.085553">
        <ele>314.10</ele>
        <time>1970-01-01T01:06:22Z</time>
      </trkpt>
      <trkpt lat="41.612704" lon="2.085571">
        <ele>314.20</ele>
        <time>1970-01-01T01:06:23Z</time>
      </trkpt>
      <trkpt lat="41.612741" lon="2.085587">
        <ele>314.30</ele>
        <time>1970-01-01T01:06:24Z</time>
      </trkpt>
      <trkpt lat="41.612807" lon="2.085619">
        <ele>314.50</ele>
        <time>1970-01-01T01:06:26Z</time>
      </trkpt>
      <trkpt lat="41.612876" lon="2.085652">
        <ele>314.80</ele>
        <time>1970-01-01T01:06:28Z</time>
      </trkpt>
      <trkpt lat="41.612946" lon="2.085686">
        <ele>315.00</ele>
        <time>1970-01-01T01:06:30Z</time>
      </trkpt>
      <trkpt lat="41.612983" lon="2.085700">
        <ele>315.10</ele>
        <time>1970-01-01T01:06:31Z</time>
      </trkpt>
      <trkpt lat="41.613015" lon="2.085722">
        <ele>315.30</ele>
        <time>1970-01-01T01:06:32Z</time>
      </trkpt>
      <trkpt lat="41.613080" lon="2.085758">
        <ele>315.60</ele>
        <time>1970-01-01T01:06:34Z</time>
      </trkpt>
      <trkpt lat="41.613116" lon="2.085780">
        <ele>315.80</ele>
        <time>1970-01-01T01:06:35Z</time>
      </trkpt>
      <trkpt lat="41.613151" lon="2.085799">
        <ele>316.10</ele>
        <time>1970-01-01T01:06:36Z</time>
      </trkpt>
      <trkpt lat="41.613218" lon="2.085838">
        <ele>316.50</ele>
        <time>1970-01-01T01:06:38Z</time>
      </trkpt>
      <trkpt lat="41.613256" lon="2.085859">
        <ele>316.80</ele>
        <time>1970-01-01T01:06:39Z</time>
      </trkpt>
      <trkpt lat="41.613292" lon="2.085880">
        <ele>317.00</ele>
        <time>1970-01-01T01:06:40Z</time>
      </trkpt>
      <trkpt lat="41.613361" lon="2.085915">
        <ele>317.50</ele>
        <time>1970-01-01T01:06:42Z</time>
      </trkpt>
      <trkpt lat="41.613438" lon="2.085952">
        <ele>318.00</ele>
        <time>1970-01-01T01:06:44Z</time>
      </trkpt>
      <trkpt lat="41.613472" lon="2.085968">
        <ele>318.30</ele>
        <time>1970-01-01T01:06:45Z</time>
      </trkpt>
      <trkpt lat="41.613525" lon="2.085989">
        <ele>318.50</ele>
        <time>1970-01-01T01:06:47Z</time>
      </trkpt>
      <trkpt lat="41.613563" lon="2.085999">
        <ele>318.70</ele>
        <time>1970-01-01T01:06:48Z</time>
      </trkpt>
      <trkpt lat="41.613630" lon="2.086026">
        <ele>318.90</ele>
        <time>1970-01-01T01:06:50Z</time>
      </trkpt>
      <trkpt lat="41.613693" lon="2.086057">
        <ele>319.20</ele>
        <time>1970-01-01T01:06:52Z</time>
      </trkpt>
      <trkpt lat="41.613757" lon="2.086091">
        <ele>319.40</ele>
        <time>1970-01-01T01:06:54Z</time>
      </trkpt>
      <trkpt lat="41.613792" lon="2.086109">
        <ele>319.50</ele>
        <time>1970-01-01T01:06:55Z</time>
      </trkpt>
      <trkpt lat="41.613829" lon="2.086123">
        <ele>319.70</ele>
        <time>1970-01-01T01:06:56Z</time>
      </trkpt>
      <trkpt lat="41.613863" lon="2.086140">
        <ele>319.80</ele>
        <time>1970-01-01T01:06:57Z</time>
      </trkpt>
      <trkpt lat="41.613934" lon="2.086168">
        <ele>320.10</ele>
        <time>1970-01-01T01:06:59Z</time>
      </trkpt>
      <trkpt lat="41.613971" lon="2.086182">
        <ele>320.30</ele>
        <time>1970-01-01T01:07:00Z</time>
      </trkpt>
      <trkpt lat="41.614031" lon="2.086206">
        <ele>320.50</ele>
        <time>1970-01-01T01:07:02Z</time>
      </trkpt>
      <trkpt lat="41.614084" lon="2.086223">
        <ele>320.70</ele>
        <time>1970-01-01T01:07:03Z</time>
      </trkpt>
      <trkpt lat="41.614123" lon="2.086236">
        <ele>320.90</ele>
        <time>1970-01-01T01:07:04Z</time>
      </trkpt>
      <trkpt lat="41.614177" lon="2.086254">
        <ele>321.20</ele>
        <time>1970-01-01T01:07:06Z</time>
      </trkpt>
      <trkpt lat="41.614213" lon="2.086268">
        <ele>321.40</ele>
        <time>1970-01-01T01:07:07Z</time>
      </trkpt>
      <trkpt lat="41.614285" lon="2.086307">
        <ele>321.90</ele>
        <time>1970-01-01T01:07:09Z</time>
      </trkpt>
      <trkpt lat="41.614319" lon="2.086325">
        <ele>322.10</ele>
        <time>1970-01-01T01:07:10Z</time>
      </trkpt>
      <trkpt lat="41.614352" lon="2.086343">
        <ele>322.40</ele>
        <time>1970-01-01T01:07:11Z</time>
      </trkpt>
      <trkpt lat="41.614414" lon="2.086372">
        <ele>322.80</ele>
        <time>1970-01-01T01:07:13Z</time>
      </trkpt>
      <trkpt lat="41.614465" lon="2.086394">
        <ele>323.10</ele>
        <time>1970-01-01T01:07:14Z</time>
      </trkpt>
      <trkpt lat="41.614534" lon="2.086430">
        <ele>323.60</ele>
        <time>1970-01-01T01:07:16Z</time>
      </trkpt>
      <trkpt lat="41.614568" lon="2.086444">
        <ele>323.90</ele>
        <time>1970-01-01T01:07:17Z</time>
      </trkpt>
      <trkpt lat="41.614602" lon="2.086460">
        <ele>324.10</ele>
        <time>1970-01-01T01:07:18Z</time>
      </trkpt>
      <trkpt lat="41.614666" lon="2.086487">
        <ele>324.50</ele>
        <time>1970-01-01T01:07:20Z</time>
      </trkpt>
      <trkpt lat="41.614718" lon="2.086508">
        <ele>324.80</ele>
        <time>1970-01-01T01:07:22Z</time>
      </trkpt>
      <trkpt lat="41.614753" lon="2.086523">
        <ele>324.90</ele>
        <time>1970-01-01T01:07:23Z</time>
      </trkpt>
      <trkpt lat="41.614787" lon="2.086536">
        <ele>325.10</ele>
        <time>1970-01-01T01:07:24Z</time>
      </trkpt>
      <trkpt lat="41.614830" lon="2.086547">
        <ele>325.20</ele>
        <time>1970-01-01T01:07:25Z</time>
      </trkpt>
      <trkpt lat="41.614870" lon="2.086555">
        <ele>325.40</ele>
        <time>1970-01-01T01:07:26Z</time>
      </trkpt>
      <trkpt lat="41.614903" lon="2.086565">
        <ele>325.60</ele>
        <time>1970-01-01T01:07:27Z</time>
      </trkpt>
      <trkpt lat="41.614950" lon="2.086584">
        <ele>325.80</ele>
        <time>1970-01-01T01:07:29Z</time>
      </trkpt>
      <trkpt lat="41.614977" lon="2.086599">
        <ele>325.90</ele>
        <time>1970-01-01T01:07:30Z</time>
      </trkpt>
      <trkpt lat="41.615030" lon="2.086641">
        <ele>326.20</ele>
        <time>1970-01-01T01:07:32Z</time>
      </trkpt>
      <trkpt lat="41.615092" lon="2.086675">
        <ele>326.50</ele>
        <time>1970-01-01T01:07:34Z</time>
      </trkpt>
      <trkpt lat="41.615133" lon="2.086692">
        <ele>326.70</ele>
        <time>1970-01-01T01:07:35Z</time>
      </trkpt>
      <trkpt lat="41.615181" lon="2.086720">
        <ele>326.90</ele>
        <time>1970-01-01T01:07:37Z</time>
      </trkpt>
      <trkpt lat="41.615214" lon="2.086735">
        <ele>327.10</ele>
        <time>1970-01-01T01:07:38Z</time>
      </trkpt>
      <trkpt lat="41.615274" lon="2.086762">
        <ele>327.40</ele>
        <time>1970-01-01T01:07:40Z</time>
      </trkpt>
      <trkpt lat="41.615305" lon="2.086777">
        <ele>327.60</ele>
        <time>1970-01-01T01:07:41Z</time>
      </trkpt>
      <trkpt lat="41.615348" lon="2.086803">
        <ele>327.80</ele>
        <time>1970-01-01T01:07:42Z</time>
      </trkpt>
      <trkpt lat="41.615398" lon="2.086827">
        <ele>328.10</ele>
        <time>1970-01-01T01:07:44Z</time>
      </trkpt>
      <trkpt lat="41.615435" lon="2.086847">
        <ele>328.20</ele>
        <time>1970-01-01T01:07:45Z</time>
      </trkpt>
      <trkpt lat="41.615496" lon="2.086875">
        <ele>328.50</ele>
        <time>1970-01-01T01:07:47Z</time>
      </trkpt>
      <trkpt lat="41.615558" lon="2.086901">
        <ele>328.80</ele>
        <time>1970-01-01T01:07:49Z</time>
      </trkpt>
      <trkpt lat="41.615615" lon="2.086921">
        <ele>329.10</ele>
        <time>1970-01-01T01:07:51Z</time>
      </trkpt>
      <trkpt lat="41.615643" lon="2.086933">
        <ele>329.20</ele>
        <time>1970-01-01T01:07:52Z</time>
      </trkpt>
      <trkpt lat="41.615683" lon="2.086935">
        <ele>329.40</ele>
        <time>1970-01-01T01:07:53Z</time>
      </trkpt>
      <trkpt lat="41.615733" lon="2.086949">
        <ele>329.60</ele>
        <time>1970-01-01T01:07:55Z</time>
      </trkpt>
      <trkpt lat="41.615750" lon="2.086957">
        <ele>329.60</ele>
        <time>1970-01-01T01:07:56Z</time>
      </trkpt>
      <trkpt lat="41.615768" lon="2.086966">
        <ele>329.70</ele>
        <time>1970-01-01T01:07:57Z</time>
      </trkpt>
      <trkpt lat="41.615789" lon="2.087019">
        <ele>329.90</ele>
        <time>1970-01-01T01:07:59Z</time>
      </trkpt>
      <trkpt lat="41.615799" lon="2.087067">
        <ele>330.10</ele>
        <time>1970-01-01T01:08:00Z</time>
      </trkpt>
      <trkpt lat="41.615816" lon="2.087152">
        <ele>330.40</ele>
        <time>1970-01-01T01:08:02Z</time>
      </trkpt>
      <trkpt lat="41.615824" lon="2.087200">
        <ele>330.60</ele>
        <time>1970-01-01T01:08:03Z</time>
      </trkpt>
      <trkpt lat="41.615833" lon="2.087271">
        <ele>330.90</ele>
        <time>1970-01-01T01:08:04Z</time>
      </trkpt>
      <trkpt lat="41.615843" lon="2.087323">
        <ele>331.10</ele>
        <time>1970-01-01T01:08:06Z</time>
      </trkpt>
      <trkpt lat="41.615852" lon="2.087363">
        <ele>331.30</ele>
        <time>1970-01-01T01:08:07Z</time>
      </trkpt>
      <trkpt lat="41.615862" lon="2.087412">
        <ele>331.50</ele>
        <time>1970-01-01T01:08:08Z</time>
      </trkpt>
      <trkpt lat="41.615879" lon="2.087495">
        <ele>331.80</ele>
        <time>1970-01-01T01:08:10Z</time>
      </trkpt>
      <trkpt lat="41.615891" lon="2.087541">
        <ele>332.00</ele>
        <time>1970-01-01T01:08:11Z</time>
      </trkpt>
      <trkpt lat="41.615900" lon="2.087602">
        <ele>332.30</ele>
        <time>1970-01-01T01:08:12Z</time>
      </trkpt>
      <trkpt lat="41.615912" lon="2.087662">
        <ele>332.50</ele>
        <time>1970-01-01T01:08:13Z</time>
      </trkpt>
      <trkpt lat="41.615929" lon="2.087712">
        <ele>332.70</ele>
        <time>1970-01-01T01:08:14Z</time>
      </trkpt>
      <trkpt lat="41.615955" lon="2.087774">
        <ele>333.00</ele>
        <time>1970-01-01T01:08:16Z</time>
      </trkpt>
      <trkpt lat="41.615970" lon="2.087823">
        <ele>333.20</ele>
        <time>1970-01-01T01:08:17Z</time>
      </trkpt>
      <trkpt lat="41.615993" lon="2.087895">
        <ele>333.50</ele>
        <time>1970-01-01T01:08:18Z</time>
      </trkpt>
      <trkpt lat="41.616015" lon="2.087974">
        <ele>333.80</ele>
        <time>1970-01-01T01:08:20Z</time>
      </trkpt>
      <trkpt lat="41.616026" lon="2.088029">
        <ele>334.00</ele>
        <time>1970-01-01T01:08:21Z</time>
      </trkpt>
      <trkpt lat="41.616037" lon="2.088080">
        <ele>334.10</ele>
        <time>1970-01-01T01:08:22Z</time>
      </trkpt>
      <trkpt lat="41.616052" lon="2.088131">
        <ele>334.30</ele>
        <time>1970-01-01T01:08:23Z</time>
      </trkpt>
      <trkpt lat="41.616065" lon="2.088184">
        <ele>334.50</ele>
        <time>1970-01-01T01:08:24Z</time>
      </trkpt>
      <trkpt lat="41.616078" lon="2.088234">
        <ele>334.60</ele>
        <time>1970-01-01T01:08:25Z</time>
      </trkpt>
      <trkpt lat="41.616101" lon="2.088310">
        <ele>334.90</ele>
        <time>1970-01-01T01:08:27Z</time>
      </trkpt>
      <trkpt lat="41.616122" lon="2.088335">
        <ele>335.00</ele>
        <time>1970-01-01T01:08:28Z</time>
      </trkpt>
      <trkpt lat="41.616181" lon="2.088330">
        <ele>335.20</ele>
        <time>1970-01-01T01:08:30Z</time>
      </trkpt>
      <trkpt lat="41.616228" lon="2.088308">
        <ele>335.50</ele>
        <time>1970-01-01T01:08:31Z</time>
      </trkpt>
      <trkpt lat="41.616261" lon="2.088287">
        <ele>335.60</ele>
        <time>1970-01-01T01:08:32Z</time>
      </trkpt>
      <trkpt lat="41.616294" lon="2.088258">
        <ele>335.80</ele>
        <time>1970-01-01T01:08:33Z</time>
      </trkpt>
      <trkpt lat="41.616328" lon="2.088228">
        <ele>335.90</ele>
        <time>1970-01-01T01:08:34Z</time>
      </trkpt>
      <trkpt lat="41.616371" lon="2.088194">
        <ele>336.10</ele>
        <time>1970-01-01T01:08:36Z</time>
      </trkpt>
      <trkpt lat="41.616401" lon="2.088177">
        <ele>336.20</ele>
        <time>1970-01-01T01:08:37Z</time>
      </trkpt>
      <trkpt lat="41.616465" lon="2.088134">
        <ele>336.40</ele>
        <time>1970-01-01T01:08:39Z</time>
      </trkpt>
      <trkpt lat="41.616515" lon="2.088099">
        <ele>336.50</ele>
        <time>1970-01-01T01:08:40Z</time>
      </trkpt>
      <trkpt lat="41.616555" lon="2.088065">
        <ele>336.60</ele>
        <time>1970-01-01T01:08:42Z</time>
      </trkpt>
      <trkpt lat="41.616600" lon="2.088037">
        <ele>336.80</ele>
        <time>1970-01-01T01:08:43Z</time>
      </trkpt>
      <trkpt lat="41.616646" lon="2.088008">
        <ele>336.90</ele>
        <time>1970-01-01T01:08:45Z</time>
      </trkpt>
      <trkpt lat="41.616679" lon="2.087984">
        <ele>337.00</ele>
        <time>1970-01-01T01:08:46Z</time>
      </trkpt>
      <trkpt lat="41.616713" lon="2.087954">
        <ele>337.00</ele>
        <time>1970-01-01T01:08:47Z</time>
      </trkpt>
      <trkpt lat="41.616769" lon="2.087901">
        <ele>337.20</ele>
        <time>1970-01-01T01:08:49Z</time>
      </trkpt>
      <trkpt lat="41.616815" lon="2.087857">
        <ele>337.50</ele>
        <time>1970-01-01T01:08:50Z</time>
      </trkpt>
      <trkpt lat="41.616848" lon="2.087820">
        <ele>337.50</ele>
        <time>1970-01-01T01:08:52Z</time>
      </trkpt>
      <trkpt lat="41.616873" lon="2.087788">
        <ele>337.50</ele>
        <time>1970-01-01T01:08:53Z</time>
      </trkpt>
      <trkpt lat="41.616918" lon="2.087718">
        <ele>337.60</ele>
        <time>1970-01-01T01:08:55Z</time>
      </trkpt>
      <trkpt lat="41.616963" lon="2.087655">
        <ele>337.60</ele>
        <time>1970-01-01T01:08:57Z</time>
      </trkpt>
      <trkpt lat="41.616996" lon="2.087612">
        <ele>337.60</ele>
        <time>1970-01-01T01:08:58Z</time>
      </trkpt>
      <trkpt lat="41.617049" lon="2.087540">
        <ele>337.70</ele>
        <time>1970-01-01T01:09:00Z</time>
      </trkpt>
      <trkpt lat="41.617082" lon="2.087499">
        <ele>337.80</ele>
        <time>1970-01-01T01:09:01Z</time>
      </trkpt>
      <trkpt lat="41.617118" lon="2.087464">
        <ele>337.80</ele>
        <time>1970-01-01T01:09:03Z</time>
      </trkpt>
      <trkpt lat="41.617164" lon="2.087430">
        <ele>337.90</ele>
        <time>1970-01-01T01:09:04Z</time>
      </trkpt>
      <trkpt lat="41.617201" lon="2.087402">
        <ele>337.90</ele>
        <time>1970-01-01T01:09:05Z</time>
      </trkpt>
      <trkpt lat="41.617234" lon="2.087379">
        <ele>338.00</ele>
        <time>1970-01-01T01:09:06Z</time>
      </trkpt>
      <trkpt lat="41.617283" lon="2.087354">
        <ele>338.10</ele>
        <time>1970-01-01T01:09:08Z</time>
      </trkpt>
      <trkpt lat="41.617323" lon="2.087346">
        <ele>338.10</ele>
        <time>1970-01-01T01:09:09Z</time>
      </trkpt>
      <trkpt lat="41.617360" lon="2.087350">
        <ele>338.20</ele>
        <time>1970-01-01T01:09:10Z</time>
      </trkpt>
      <trkpt lat="41.617405" lon="2.087386">
        <ele>338.30</ele>
        <time>1970-01-01T01:09:11Z</time>
      </trkpt>
      <trkpt lat="41.617427" lon="2.087445">
        <ele>338.40</ele>
        <time>1970-01-01T01:09:13Z</time>
      </trkpt>
      <trkpt lat="41.617440" lon="2.087507">
        <ele>338.60</ele>
        <time>1970-01-01T01:09:14Z</time>
      </trkpt>
      <trkpt lat="41.617452" lon="2.087550">
        <ele>338.70</ele>
        <time>1970-01-01T01:09:15Z</time>
      </trkpt>
      <trkpt lat="41.617478" lon="2.087605">
        <ele>339.20</ele>
        <time>1970-01-01T01:09:16Z</time>
      </trkpt>
      <trkpt lat="41.617500" lon="2.087650">
        <ele>339.40</ele>
        <time>1970-01-01T01:09:18Z</time>
      </trkpt>
      <trkpt lat="41.617521" lon="2.087696">
        <ele>339.60</ele>
        <time>1970-01-01T01:09:19Z</time>
      </trkpt>
      <trkpt lat="41.617537" lon="2.087742">
        <ele>339.70</ele>
        <time>1970-01-01T01:09:20Z</time>
      </trkpt>
      <trkpt lat="41.617559" lon="2.087789">
        <ele>339.90</ele>
        <time>1970-01-01T01:09:21Z</time>
      </trkpt>
      <trkpt lat="41.617594" lon="2.087858">
        <ele>340.20</ele>
        <time>1970-01-01T01:09:23Z</time>
      </trkpt>
      <trkpt lat="41.617613" lon="2.087902">
        <ele>340.40</ele>
        <time>1970-01-01T01:09:24Z</time>
      </trkpt>
      <trkpt lat="41.617637" lon="2.087970">
        <ele>340.70</ele>
        <time>1970-01-01T01:09:25Z</time>
      </trkpt>
      <trkpt lat="41.617662" lon="2.088030">
        <ele>340.90</ele>
        <time>1970-01-01T01:09:27Z</time>
      </trkpt>
      <trkpt lat="41.617683" lon="2.088084">
        <ele>341.10</ele>
        <time>1970-01-01T01:09:28Z</time>
      </trkpt>
      <trkpt lat="41.617709" lon="2.088141">
        <ele>341.20</ele>
        <time>1970-01-01T01:09:30Z</time>
      </trkpt>
      <trkpt lat="41.617739" lon="2.088167">
        <ele>341.50</ele>
        <time>1970-01-01T01:09:31Z</time>
      </trkpt>
      <trkpt lat="41.617752" lon="2.088176">
        <ele>341.60</ele>
        <time>1970-01-01T01:09:32Z</time>
      </trkpt>
      <trkpt lat="41.617790" lon="2.088167">
        <ele>341.70</ele>
        <time>1970-01-01T01:09:34Z</time>
      </trkpt>
      <trkpt lat="41.617816" lon="2.088142">
        <ele>341.80</ele>
        <time>1970-01-01T01:09:35Z</time>
      </trkpt>
      <trkpt lat="41.617839" lon="2.088104">
        <ele>341.90</ele>
        <time>1970-01-01T01:09:36Z</time>
      </trkpt>
      <trkpt lat="41.617882" lon="2.088047">
        <ele>342.10</ele>
        <time>1970-01-01T01:09:38Z</time>
      </trkpt>
      <trkpt lat="41.617914" lon="2.088010">
        <ele>342.20</ele>
        <time>1970-01-01T01:09:39Z</time>
      </trkpt>
      <trkpt lat="41.617940" lon="2.087977">
        <ele>342.30</ele>
        <time>1970-01-01T01:09:40Z</time>
      </trkpt>
      <trkpt lat="41.617990" lon="2.087922">
        <ele>342.40</ele>
        <time>1970-01-01T01:09:42Z</time>
      </trkpt>
      <trkpt lat="41.618019" lon="2.087893">
        <ele>342.50</ele>
        <time>1970-01-01T01:09:43Z</time>
      </trkpt>
      <trkpt lat="41.618079" lon="2.087837">
        <ele>342.60</ele>
        <time>1970-01-01T01:09:45Z</time>
      </trkpt>
      <trkpt lat="41.618111" lon="2.087808">
        <ele>342.70</ele>
        <time>1970-01-01T01:09:46Z</time>
      </trkpt>
      <trkpt lat="41.618138" lon="2.087779">
        <ele>342.80</ele>
        <time>1970-01-01T01:09:47Z</time>
      </trkpt>
      <trkpt lat="41.618196" lon="2.087718">
        <ele>342.90</ele>
        <time>1970-01-01T01:09:49Z</time>
      </trkpt>
      <trkpt lat="41.618249" lon="2.087663">
        <ele>342.90</ele>
        <time>1970-01-01T01:09:51Z</time>
      </trkpt>
      <trkpt lat="41.618278" lon="2.087636">
        <ele>342.90</ele>
        <time>1970-01-01T01:09:52Z</time>
      </trkpt>
      <trkpt lat="41.618307" lon="2.087608">
        <ele>343.00</ele>
        <time>1970-01-01T01:09:53Z</time>
      </trkpt>
      <trkpt lat="41.618364" lon="2.087546">
        <ele>343.00</ele>
        <time>1970-01-01T01:09:55Z</time>
      </trkpt>
      <trkpt lat="41.618390" lon="2.087518">
        <ele>343.10</ele>
        <time>1970-01-01T01:09:56Z</time>
      </trkpt>
      <trkpt lat="41.618418" lon="2.087493">
        <ele>343.10</ele>
        <time>1970-01-01T01:09:57Z</time>
      </trkpt>
      <trkpt lat="41.618465" lon="2.087453">
        <ele>343.20</ele>
        <time>1970-01-01T01:09:58Z</time>
      </trkpt>
      <trkpt lat="41.618507" lon="2.087431">
        <ele>343.30</ele>
        <time>1970-01-01T01:10:00Z</time>
      </trkpt>
      <trkpt lat="41.618568" lon="2.087431">
        <ele>343.60</ele>
        <time>1970-01-01T01:10:01Z</time>
      </trkpt>
      <trkpt lat="41.618629" lon="2.087447">
        <ele>343.90</ele>
        <time>1970-01-01T01:10:02Z</time>
      </trkpt>
      <trkpt lat="41.618679" lon="2.087464">
        <ele>344.10</ele>
        <time>1970-01-01T01:10:04Z</time>
      </trkpt>
      <trkpt lat="41.618713" lon="2.087471">
        <ele>344.20</ele>
        <time>1970-01-01T01:10:05Z</time>
      </trkpt>
      <trkpt lat="41.618747" lon="2.087471">
        <ele>344.40</ele>
        <time>1970-01-01T01:10:06Z</time>
      </trkpt>
      <trkpt lat="41.618778" lon="2.087467">
        <ele>344.50</ele>
        <time>1970-01-01T01:10:07Z</time>
      </trkpt>
      <trkpt lat="41.618811" lon="2.087462">
        <ele>344.60</ele>
        <time>1970-01-01T01:10:08Z</time>
      </trkpt>
      <trkpt lat="41.618870" lon="2.087455">
        <ele>344.70</ele>
        <time>1970-01-01T01:10:10Z</time>
      </trkpt>
      <trkpt lat="41.618938" lon="2.087442">
        <ele>344.80</ele>
        <time>1970-01-01T01:10:12Z</time>
      </trkpt>
      <trkpt lat="41.618991" lon="2.087425">
        <ele>345.00</ele>
        <time>1970-01-01T01:10:14Z</time>
      </trkpt>
      <trkpt lat="41.619030" lon="2.087414">
        <ele>345.10</ele>
        <time>1970-01-01T01:10:15Z</time>
      </trkpt>
      <trkpt lat="41.619090" lon="2.087411">
        <ele>345.30</ele>
        <time>1970-01-01T01:10:17Z</time>
      </trkpt>
      <trkpt lat="41.619136" lon="2.087431">
        <ele>345.40</ele>
        <time>1970-01-01T01:10:18Z</time>
      </trkpt>
      <trkpt lat="41.619175" lon="2.087453">
        <ele>345.50</ele>
        <time>1970-01-01T01:10:19Z</time>
      </trkpt>
      <trkpt lat="41.619235" lon="2.087478">
        <ele>345.60</ele>
        <time>1970-01-01T01:10:20Z</time>
      </trkpt>
      <trkpt lat="41.619294" lon="2.087498">
        <ele>345.80</ele>
        <time>1970-01-01T01:10:22Z</time>
      </trkpt>
      <trkpt lat="41.619372" lon="2.087533">
        <ele>345.90</ele>
        <time>1970-01-01T01:10:24Z</time>
      </trkpt>
      <trkpt lat="41.619410" lon="2.087558">
        <ele>346.00</ele>
        <time>1970-01-01T01:10:25Z</time>
      </trkpt>
      <trkpt lat="41.619452" lon="2.087586">
        <ele>346.10</ele>
        <time>1970-01-01T01:10:26Z</time>
      </trkpt>
      <trkpt lat="41.619492" lon="2.087611">
        <ele>346.20</ele>
        <time>1970-01-01T01:10:27Z</time>
      </trkpt>
      <trkpt lat="41.619542" lon="2.087637">
        <ele>346.30</ele>
        <time>1970-01-01T01:10:28Z</time>
      </trkpt>
      <trkpt lat="41.619583" lon="2.087657">
        <ele>346.40</ele>
        <time>1970-01-01T01:10:30Z</time>
      </trkpt>
      <trkpt lat="41.619626" lon="2.087679">
        <ele>346.50</ele>
        <time>1970-01-01T01:10:31Z</time>
      </trkpt>
      <trkpt lat="41.619667" lon="2.087698">
        <ele>346.60</ele>
        <time>1970-01-01T01:10:32Z</time>
      </trkpt>
      <trkpt lat="41.619705" lon="2.087718">
        <ele>346.70</ele>
        <time>1970-01-01T01:10:33Z</time>
      </trkpt>
      <trkpt lat="41.619741" lon="2.087736">
        <ele>346.80</ele>
        <time>1970-01-01T01:10:34Z</time>
      </trkpt>
      <trkpt lat="41.619810" lon="2.087763">
        <ele>347.10</ele>
        <time>1970-01-01T01:10:36Z</time>
      </trkpt>
      <trkpt lat="41.619844" lon="2.087780">
        <ele>347.20</ele>
        <time>1970-01-01T01:10:37Z</time>
      </trkpt>
      <trkpt lat="41.619908" lon="2.087805">
        <ele>347.50</ele>
        <time>1970-01-01T01:10:39Z</time>
      </trkpt>
      <trkpt lat="41.619952" lon="2.087820">
        <ele>347.70</ele>
        <time>1970-01-01T01:10:40Z</time>
      </trkpt>
      <trkpt lat="41.620020" lon="2.087853">
        <ele>348.10</ele>
        <time>1970-01-01T01:10:42Z</time>
      </trkpt>
      <trkpt lat="41.620089" lon="2.087892">
        <ele>348.60</ele>
        <time>1970-01-01T01:10:44Z</time>
      </trkpt>
      <trkpt lat="41.620123" lon="2.087913">
        <ele>348.80</ele>
        <time>1970-01-01T01:10:45Z</time>
      </trkpt>
      <trkpt lat="41.620189" lon="2.087949">
        <ele>349.30</ele>
        <time>1970-01-01T01:10:47Z</time>
      </trkpt>
      <trkpt lat="41.620222" lon="2.087973">
        <ele>349.60</ele>
        <time>1970-01-01T01:10:48Z</time>
      </trkpt>
      <trkpt lat="41.620286" lon="2.088019">
        <ele>350.20</ele>
        <time>1970-01-01T01:10:50Z</time>
      </trkpt>
      <trkpt lat="41.620326" lon="2.088060">
        <ele>350.60</ele>
        <time>1970-01-01T01:10:51Z</time>
      </trkpt>
      <trkpt lat="41.620361" lon="2.088111">
        <ele>350.90</ele>
        <time>1970-01-01T01:10:53Z</time>
      </trkpt>
      <trkpt lat="41.620372" lon="2.088163">
        <ele>351.40</ele>
        <time>1970-01-01T01:10:54Z</time>
      </trkpt>
      <trkpt lat="41.620381" lon="2.088208">
        <ele>351.80</ele>
        <time>1970-01-01T01:10:55Z</time>
      </trkpt>
      <trkpt lat="41.620389" lon="2.088249">
        <ele>352.20</ele>
        <time>1970-01-01T01:10:56Z</time>
      </trkpt>
      <trkpt lat="41.620396" lon="2.088312">
        <ele>352.80</ele>
        <time>1970-01-01T01:10:57Z</time>
      </trkpt>
      <trkpt lat="41.620388" lon="2.088376">
        <ele>353.50</ele>
        <time>1970-01-01T01:10:59Z</time>
      </trkpt>
      <trkpt lat="41.620385" lon="2.088418">
        <ele>353.70</ele>
        <time>1970-01-01T01:11:00Z</time>
      </trkpt>
      <trkpt lat="41.620385" lon="2.088488">
        <ele>354.20</ele>
        <time>1970-01-01T01:11:02Z</time>
      </trkpt>
      <trkpt lat="41.620389" lon="2.088528">
        <ele>354.40</ele>
        <time>1970-01-01T01:11:03Z</time>
      </trkpt>
      <trkpt lat="41.620395" lon="2.088571">
        <ele>354.70</ele>
        <time>1970-01-01T01:11:04Z</time>
      </trkpt>
      <trkpt lat="41.620402" lon="2.088651">
        <ele>355.20</ele>
        <time>1970-01-01T01:11:06Z</time>
      </trkpt>
      <trkpt lat="41.620406" lon="2.088689">
        <ele>355.40</ele>
        <time>1970-01-01T01:11:07Z</time>
      </trkpt>
      <trkpt lat="41.620416" lon="2.088763">
        <ele>355.90</ele>
        <time>1970-01-01T01:11:09Z</time>
      </trkpt>
      <trkpt lat="41.620416" lon="2.088808">
        <ele>356.20</ele>
        <time>1970-01-01T01:11:10Z</time>
      </trkpt>
      <trkpt lat="41.620424" lon="2.088879">
        <ele>356.70</ele>
        <time>1970-01-01T01:11:12Z</time>
      </trkpt>
      <trkpt lat="41.620425" lon="2.088950">
        <ele>357.20</ele>
        <time>1970-01-01T01:11:14Z</time>
      </trkpt>
      <trkpt lat="41.620427" lon="2.089018">
        <ele>357.60</ele>
        <time>1970-01-01T01:11:16Z</time>
      </trkpt>
      <trkpt lat="41.620430" lon="2.089062">
        <ele>357.90</ele>
        <time>1970-01-01T01:11:17Z</time>
      </trkpt>
      <trkpt lat="41.620434" lon="2.089121">
        <ele>358.30</ele>
        <time>1970-01-01T01:11:19Z</time>
      </trkpt>
      <trkpt lat="41.620439" lon="2.089180">
        <ele>358.60</ele>
        <time>1970-01-01T01:11:21Z</time>
      </trkpt>
      <trkpt lat="41.620442" lon="2.089223">
        <ele>358.80</ele>
        <time>1970-01-01T01:11:22Z</time>
      </trkpt>
      <trkpt lat="41.620440" lon="2.089301">
        <ele>359.20</ele>
        <time>1970-01-01T01:11:24Z</time>
      </trkpt>
      <trkpt lat="41.620438" lon="2.089376">
        <ele>359.40</ele>
        <time>1970-01-01T01:11:26Z</time>
      </trkpt>
      <trkpt lat="41.620440" lon="2.089434">
        <ele>359.50</ele>
        <time>1970-01-01T01:11:27Z</time>
      </trkpt>
      <trkpt lat="41.620440" lon="2.089488">
        <ele>359.60</ele>
        <time>1970-01-01T01:11:29Z</time>
      </trkpt>
      <trkpt lat="41.620439" lon="2.089554">
        <ele>360.00</ele>
        <time>1970-01-01T01:11:30Z</time>
      </trkpt>
      <trkpt lat="41.620438" lon="2.089611">
        <ele>360.70</ele>
        <time>1970-01-01T01:11:32Z</time>
      </trkpt>
      <trkpt lat="41.620436" lon="2.089669">
        <ele>361.40</ele>
        <time>1970-01-01T01:11:33Z</time>
      </trkpt>
      <trkpt lat="41.620433" lon="2.089708">
        <ele>361.90</ele>
        <time>1970-01-01T01:11:34Z</time>
      </trkpt>
      <trkpt lat="41.620427" lon="2.089753">
        <ele>362.40</ele>
        <time>1970-01-01T01:11:35Z</time>
      </trkpt>
      <trkpt lat="41.620416" lon="2.089799">
        <ele>362.90</ele>
        <time>1970-01-01T01:11:37Z</time>
      </trkpt>
      <trkpt lat="41.620405" lon="2.089833">
        <ele>363.30</ele>
        <time>1970-01-01T01:11:38Z</time>
      </trkpt>
      <trkpt lat="41.620390" lon="2.089865">
        <ele>363.60</ele>
        <time>1970-01-01T01:11:39Z</time>
      </trkpt>
      <trkpt lat="41.620356" lon="2.089907">
        <ele>364.10</ele>
        <time>1970-01-01T01:11:40Z</time>
      </trkpt>
      <trkpt lat="41.620319" lon="2.089934">
        <ele>364.50</ele>
        <time>1970-01-01T01:11:42Z</time>
      </trkpt>
      <trkpt lat="41.620258" lon="2.089964">
        <ele>365.10</ele>
        <time>1970-01-01T01:11:44Z</time>
      </trkpt>
      <trkpt lat="41.620225" lon="2.089982">
        <ele>365.40</ele>
        <time>1970-01-01T01:11:45Z</time>
      </trkpt>
      <trkpt lat="41.620196" lon="2.090002">
        <ele>365.70</ele>
        <time>1970-01-01T01:11:46Z</time>
      </trkpt>
      <trkpt lat="41.620162" lon="2.090026">
        <ele>366.00</ele>
        <time>1970-01-01T01:11:47Z</time>
      </trkpt>
      <trkpt lat="41.620129" lon="2.090048">
        <ele>366.40</ele>
        <time>1970-01-01T01:11:48Z</time>
      </trkpt>
      <trkpt lat="41.620085" lon="2.090074">
        <ele>366.90</ele>
        <time>1970-01-01T01:11:50Z</time>
      </trkpt>
      <trkpt lat="41.620043" lon="2.090103">
        <ele>367.60</ele>
        <time>1970-01-01T01:11:52Z</time>
      </trkpt>
      <trkpt lat="41.620011" lon="2.090137">
        <ele>368.30</ele>
        <time>1970-01-01T01:11:53Z</time>
      </trkpt>
      <trkpt lat="41.619968" lon="2.090182">
        <ele>369.10</ele>
        <time>1970-01-01T01:11:55Z</time>
      </trkpt>
      <trkpt lat="41.619942" lon="2.090210">
        <ele>369.50</ele>
        <time>1970-01-01T01:11:56Z</time>
      </trkpt>
      <trkpt lat="41.619918" lon="2.090235">
        <ele>369.80</ele>
        <time>1970-01-01T01:11:57Z</time>
      </trkpt>
      <trkpt lat="41.619891" lon="2.090267">
        <ele>370.10</ele>
        <time>1970-01-01T01:11:58Z</time>
      </trkpt>
      <trkpt lat="41.619847" lon="2.090327">
        <ele>370.80</ele>
        <time>1970-01-01T01:12:00Z</time>
      </trkpt>
      <trkpt lat="41.619817" lon="2.090369">
        <ele>371.20</ele>
        <time>1970-01-01T01:12:01Z</time>
      </trkpt>
      <trkpt lat="41.619797" lon="2.090399">
        <ele>371.40</ele>
        <time>1970-01-01T01:12:02Z</time>
      </trkpt>
      <trkpt lat="41.619767" lon="2.090446">
        <ele>371.80</ele>
        <time>1970-01-01T01:12:04Z</time>
      </trkpt>
      <trkpt lat="41.619734" lon="2.090504">
        <ele>372.20</ele>
        <time>1970-01-01T01:12:06Z</time>
      </trkpt>
      <trkpt lat="41.619720" lon="2.090541">
        <ele>372.90</ele>
        <time>1970-01-01T01:12:07Z</time>
      </trkpt>
      <trkpt lat="41.619718" lon="2.090605">
        <ele>373.10</ele>
        <time>1970-01-01T01:12:09Z</time>
      </trkpt>
      <trkpt lat="41.619754" lon="2.090666">
        <ele>373.30</ele>
        <time>1970-01-01T01:12:11Z</time>
      </trkpt>
      <trkpt lat="41.619775" lon="2.090701">
        <ele>373.50</ele>
        <time>1970-01-01T01:12:12Z</time>
      </trkpt>
      <trkpt lat="41.619815" lon="2.090754">
        <ele>373.60</ele>
        <time>1970-01-01T01:12:13Z</time>
      </trkpt>
      <trkpt lat="41.619853" lon="2.090802">
        <ele>373.80</ele>
        <time>1970-01-01T01:12:15Z</time>
      </trkpt>
      <trkpt lat="41.619877" lon="2.090833">
        <ele>373.90</ele>
        <time>1970-01-01T01:12:16Z</time>
      </trkpt>
      <trkpt lat="41.619923" lon="2.090900">
        <ele>374.10</ele>
        <time>1970-01-01T01:12:18Z</time>
      </trkpt>
      <trkpt lat="41.619948" lon="2.090937">
        <ele>374.20</ele>
        <time>1970-01-01T01:12:19Z</time>
      </trkpt>
      <trkpt lat="41.619973" lon="2.090976">
        <ele>374.30</ele>
        <time>1970-01-01T01:12:20Z</time>
      </trkpt>
      <trkpt lat="41.619995" lon="2.091006">
        <ele>374.30</ele>
        <time>1970-01-01T01:12:21Z</time>
      </trkpt>
      <trkpt lat="41.620018" lon="2.091037">
        <ele>374.40</ele>
        <time>1970-01-01T01:12:22Z</time>
      </trkpt>
      <trkpt lat="41.620066" lon="2.091101">
        <ele>374.60</ele>
        <time>1970-01-01T01:12:24Z</time>
      </trkpt>
      <trkpt lat="41.620091" lon="2.091136">
        <ele>374.70</ele>
        <time>1970-01-01T01:12:25Z</time>
      </trkpt>
      <trkpt lat="41.620116" lon="2.091171">
        <ele>374.80</ele>
        <time>1970-01-01T01:12:26Z</time>
      </trkpt>
      <trkpt lat="41.620160" lon="2.091237">
        <ele>375.10</ele>
        <time>1970-01-01T01:12:28Z</time>
      </trkpt>
      <trkpt lat="41.620204" lon="2.091297">
        <ele>375.30</ele>
        <time>1970-01-01T01:12:30Z</time>
      </trkpt>
      <trkpt lat="41.620220" lon="2.091327">
        <ele>375.40</ele>
        <time>1970-01-01T01:12:31Z</time>
      </trkpt>
      <trkpt lat="41.620233" lon="2.091370">
        <ele>375.60</ele>
        <time>1970-01-01T01:12:32Z</time>
      </trkpt>
      <trkpt lat="41.620240" lon="2.091399">
        <ele>375.60</ele>
        <time>1970-01-01T01:12:33Z</time>
      </trkpt>
      <trkpt lat="41.620252" lon="2.091441">
        <ele>376.00</ele>
        <time>1970-01-01T01:12:35Z</time>
      </trkpt>
      <trkpt lat="41.620260" lon="2.091483">
        <ele>376.30</ele>
        <time>1970-01-01T01:12:36Z</time>
      </trkpt>
      <trkpt lat="41.620262" lon="2.091496">
        <ele>376.40</ele>
        <time>1970-01-01T01:12:37Z</time>
      </trkpt>
      <trkpt lat="41.620281" lon="2.091524">
        <ele>376.80</ele>
        <time>1970-01-01T01:12:38Z</time>
      </trkpt>
      <trkpt lat="41.620320" lon="2.091540">
        <ele>377.30</ele>
        <time>1970-01-01T01:12:40Z</time>
      </trkpt>
      <trkpt lat="41.620333" lon="2.091547">
        <ele>377.50</ele>
        <time>1970-01-01T01:12:41Z</time>
      </trkpt>
      <trkpt lat="41.620369" lon="2.091565">
        <ele>378.10</ele>
        <time>1970-01-01T01:12:43Z</time>
      </trkpt>
      <trkpt lat="41.620415" lon="2.091587">
        <ele>378.80</ele>
        <time>1970-01-01T01:12:44Z</time>
      </trkpt>
      <trkpt lat="41.620454" lon="2.091612">
        <ele>379.30</ele>
        <time>1970-01-01T01:12:46Z</time>
      </trkpt>
      <trkpt lat="41.620482" lon="2.091634">
        <ele>379.70</ele>
        <time>1970-01-01T01:12:47Z</time>
      </trkpt>
      <trkpt lat="41.620516" lon="2.091671">
        <ele>380.10</ele>
        <time>1970-01-01T01:12:48Z</time>
      </trkpt>
      <trkpt lat="41.620546" lon="2.091704">
        <ele>380.60</ele>
        <time>1970-01-01T01:12:50Z</time>
      </trkpt>
      <trkpt lat="41.620574" lon="2.091721">
        <ele>380.90</ele>
        <time>1970-01-01T01:12:51Z</time>
      </trkpt>
      <trkpt lat="41.620602" lon="2.091734">
        <ele>381.30</ele>
        <time>1970-01-01T01:12:53Z</time>
      </trkpt>
      <trkpt lat="41.620625" lon="2.091755">
        <ele>381.60</ele>
        <time>1970-01-01T01:12:54Z</time>
      </trkpt>
      <trkpt lat="41.620642" lon="2.091800">
        <ele>382.10</ele>
        <time>1970-01-01T01:12:55Z</time>
      </trkpt>
      <trkpt lat="41.620646" lon="2.091820">
        <ele>382.40</ele>
        <time>1970-01-01T01:12:56Z</time>
      </trkpt>
      <trkpt lat="41.620654" lon="2.091860">
        <ele>382.80</ele>
        <time>1970-01-01T01:12:58Z</time>
      </trkpt>
      <trkpt lat="41.620672" lon="2.091888">
        <ele>383.30</ele>
        <time>1970-01-01T01:12:59Z</time>
      </trkpt>
      <trkpt lat="41.620704" lon="2.091921">
        <ele>384.00</ele>
        <time>1970-01-01T01:13:00Z</time>
      </trkpt>
      <trkpt lat="41.620723" lon="2.091947">
        <ele>384.50</ele>
        <time>1970-01-01T01:13:02Z</time>
      </trkpt>
      <trkpt lat="41.620743" lon="2.091976">
        <ele>385.00</ele>
        <time>1970-01-01T01:13:03Z</time>
      </trkpt>
      <trkpt lat="41.620767" lon="2.092018">
        <ele>385.70</ele>
        <time>1970-01-01T01:13:05Z</time>
      </trkpt>
      <trkpt lat="41.620786" lon="2.092058">
        <ele>386.30</ele>
        <time>1970-01-01T01:13:06Z</time>
      </trkpt>
      <trkpt lat="41.620792" lon="2.092070">
        <ele>386.50</ele>
        <time>1970-01-01T01:13:07Z</time>
      </trkpt>
      <trkpt lat="41.620813" lon="2.092108">
        <ele>387.20</ele>
        <time>1970-01-01T01:13:08Z</time>
      </trkpt>
      <trkpt lat="41.620819" lon="2.092121">
        <ele>387.40</ele>
        <time>1970-01-01T01:13:09Z</time>
      </trkpt>
      <trkpt lat="41.620826" lon="2.092152">
        <ele>387.80</ele>
        <time>1970-01-01T01:13:10Z</time>
      </trkpt>
      <trkpt lat="41.620829" lon="2.092198">
        <ele>388.50</ele>
        <time>1970-01-01T01:13:12Z</time>
      </trkpt>
      <trkpt lat="41.620850" lon="2.092241">
        <ele>389.20</ele>
        <time>1970-01-01T01:13:13Z</time>
      </trkpt>
      <trkpt lat="41.620857" lon="2.092255">
        <ele>389.40</ele>
        <time>1970-01-01T01:13:14Z</time>
      </trkpt>
      <trkpt lat="41.620879" lon="2.092293">
        <ele>390.10</ele>
        <time>1970-01-01T01:13:16Z</time>
      </trkpt>
      <trkpt lat="41.620885" lon="2.092304">
        <ele>390.30</ele>
        <time>1970-01-01T01:13:17Z</time>
      </trkpt>
      <trkpt lat="41.620913" lon="2.092321">
        <ele>389.90</ele>
        <time>1970-01-01T01:13:18Z</time>
      </trkpt>
      <trkpt lat="41.620924" lon="2.092327">
        <ele>389.40</ele>
        <time>1970-01-01T01:13:19Z</time>
      </trkpt>
      <trkpt lat="41.620945" lon="2.092326">
        <ele>389.00</ele>
        <time>1970-01-01T01:13:20Z</time>
      </trkpt>
      <trkpt lat="41.620968" lon="2.092316">
        <ele>388.60</ele>
        <time>1970-01-01T01:13:22Z</time>
      </trkpt>
      <trkpt lat="41.620980" lon="2.092311">
        <ele>388.10</ele>
        <time>1970-01-01T01:13:23Z</time>
      </trkpt>
      <trkpt lat="41.620995" lon="2.092307">
        <ele>387.70</ele>
        <time>1970-01-01T01:13:24Z</time>
      </trkpt>
      <trkpt lat="41.621046" lon="2.092317">
        <ele>387.40</ele>
        <time>1970-01-01T01:13:26Z</time>
      </trkpt>
      <trkpt lat="41.621066" lon="2.092324">
        <ele>387.10</ele>
        <time>1970-01-01T01:13:27Z</time>
      </trkpt>
      <trkpt lat="41.621085" lon="2.092330">
        <ele>386.60</ele>
        <time>1970-01-01T01:13:28Z</time>
      </trkpt>
      <trkpt lat="41.621113" lon="2.092379">
        <ele>386.90</ele>
        <time>1970-01-01T01:13:30Z</time>
      </trkpt>
      <trkpt lat="41.621119" lon="2.092395">
        <ele>386.90</ele>
        <time>1970-01-01T01:13:31Z</time>
      </trkpt>
      <trkpt lat="41.621125" lon="2.092411">
        <ele>386.70</ele>
        <time>1970-01-01T01:13:32Z</time>
      </trkpt>
      <trkpt lat="41.621130" lon="2.092432">
        <ele>386.70</ele>
        <time>1970-01-01T01:13:33Z</time>
      </trkpt>
      <trkpt lat="41.621152" lon="2.092476">
        <ele>386.80</ele>
        <time>1970-01-01T01:13:35Z</time>
      </trkpt>
      <trkpt lat="41.621167" lon="2.092492">
        <ele>387.10</ele>
        <time>1970-01-01T01:13:36Z</time>
      </trkpt>
      <trkpt lat="41.621177" lon="2.092503">
        <ele>387.20</ele>
        <time>1970-01-01T01:13:37Z</time>
      </trkpt>
      <trkpt lat="41.621197" lon="2.092518">
        <ele>387.50</ele>
        <time>1970-01-01T01:13:38Z</time>
      </trkpt>
      <trkpt lat="41.621216" lon="2.092533">
        <ele>387.70</ele>
        <time>1970-01-01T01:13:40Z</time>
      </trkpt>
      <trkpt lat="41.621231" lon="2.092552">
        <ele>387.90</ele>
        <time>1970-01-01T01:13:41Z</time>
      </trkpt>
      <trkpt lat="41.621259" lon="2.092575">
        <ele>388.30</ele>
        <time>1970-01-01T01:13:43Z</time>
      </trkpt>
      <trkpt lat="41.621295" lon="2.092603">
        <ele>388.80</ele>
        <time>1970-01-01T01:13:44Z</time>
      </trkpt>
      <trkpt lat="41.621310" lon="2.092614">
        <ele>389.00</ele>
        <time>1970-01-01T01:13:45Z</time>
      </trkpt>
      <trkpt lat="41.621347" lon="2.092635">
        <ele>389.40</ele>
        <time>1970-01-01T01:13:47Z</time>
      </trkpt>
      <trkpt lat="41.621361" lon="2.092642">
        <ele>389.60</ele>
        <time>1970-01-01T01:13:48Z</time>
      </trkpt>
      <trkpt lat="41.621394" lon="2.092663">
        <ele>390.00</ele>
        <time>1970-01-01T01:13:49Z</time>
      </trkpt>
      <trkpt lat="41.621415" lon="2.092679">
        <ele>390.30</ele>
        <time>1970-01-01T01:13:50Z</time>
      </trkpt>
      <trkpt lat="41.621432" lon="2.092696">
        <ele>390.50</ele>
        <time>1970-01-01T01:13:52Z</time>
      </trkpt>
      <trkpt lat="41.621456" lon="2.092711">
        <ele>390.80</ele>
        <time>1970-01-01T01:13:53Z</time>
      </trkpt>
      <trkpt lat="41.621465" lon="2.092719">
        <ele>390.90</ele>
        <time>1970-01-01T01:13:54Z</time>
      </trkpt>
      <trkpt lat="41.621488" lon="2.092743">
        <ele>391.30</ele>
        <time>1970-01-01T01:13:55Z</time>
      </trkpt>
      <trkpt lat="41.621496" lon="2.092750">
        <ele>391.40</ele>
        <time>1970-01-01T01:13:56Z</time>
      </trkpt>
      <trkpt lat="41.621520" lon="2.092756">
        <ele>391.70</ele>
        <time>1970-01-01T01:13:57Z</time>
      </trkpt>
      <trkpt lat="41.621549" lon="2.092755">
        <ele>392.00</ele>
        <time>1970-01-01T01:13:59Z</time>
      </trkpt>
      <trkpt lat="41.621565" lon="2.092754">
        <ele>392.20</ele>
        <time>1970-01-01T01:14:00Z</time>
      </trkpt>
      <trkpt lat="41.621593" lon="2.092745">
        <ele>392.50</ele>
        <time>1970-01-01T01:14:02Z</time>
      </trkpt>
      <trkpt lat="41.621624" lon="2.092742">
        <ele>392.80</ele>
        <time>1970-01-01T01:14:03Z</time>
      </trkpt>
      <trkpt lat="41.621669" lon="2.092748">
        <ele>393.40</ele>
        <time>1970-01-01T01:14:04Z</time>
      </trkpt>
      <trkpt lat="41.621718" lon="2.092763">
        <ele>393.90</ele>
        <time>1970-01-01T01:14:06Z</time>
      </trkpt>
      <trkpt lat="41.621736" lon="2.092766">
        <ele>394.10</ele>
        <time>1970-01-01T01:14:07Z</time>
      </trkpt>
      <trkpt lat="41.621755" lon="2.092770">
        <ele>394.30</ele>
        <time>1970-01-01T01:14:08Z</time>
      </trkpt>
      <trkpt lat="41.621788" lon="2.092776">
        <ele>394.70</ele>
        <time>1970-01-01T01:14:10Z</time>
      </trkpt>
      <trkpt lat="41.621841" lon="2.092788">
        <ele>395.30</ele>
        <time>1970-01-01T01:14:12Z</time>
      </trkpt>
      <trkpt lat="41.621891" lon="2.092806">
        <ele>395.90</ele>
        <time>1970-01-01T01:14:13Z</time>
      </trkpt>
      <trkpt lat="41.621921" lon="2.092821">
        <ele>396.30</ele>
        <time>1970-01-01T01:14:14Z</time>
      </trkpt>
      <trkpt lat="41.621962" lon="2.092842">
        <ele>396.80</ele>
        <time>1970-01-01T01:14:16Z</time>
      </trkpt>
      <trkpt lat="41.622008" lon="2.092868">
        <ele>397.30</ele>
        <time>1970-01-01T01:14:17Z</time>
      </trkpt>
      <trkpt lat="41.622040" lon="2.092886">
        <ele>397.70</ele>
        <time>1970-01-01T01:14:19Z</time>
      </trkpt>
      <trkpt lat="41.622076" lon="2.092895">
        <ele>398.10</ele>
        <time>1970-01-01T01:14:20Z</time>
      </trkpt>
      <trkpt lat="41.622117" lon="2.092901">
        <ele>398.60</ele>
        <time>1970-01-01T01:14:21Z</time>
      </trkpt>
      <trkpt lat="41.622131" lon="2.092902">
        <ele>398.80</ele>
        <time>1970-01-01T01:14:22Z</time>
      </trkpt>
      <trkpt lat="41.622169" lon="2.092918">
        <ele>399.20</ele>
        <time>1970-01-01T01:14:24Z</time>
      </trkpt>
      <trkpt lat="41.622197" lon="2.092933">
        <ele>399.50</ele>
        <time>1970-01-01T01:14:25Z</time>
      </trkpt>
      <trkpt lat="41.622226" lon="2.092942">
        <ele>399.90</ele>
        <time>1970-01-01T01:14:26Z</time>
      </trkpt>
      <trkpt lat="41.622254" lon="2.092950">
        <ele>400.20</ele>
        <time>1970-01-01T01:14:27Z</time>
      </trkpt>
      <trkpt lat="41.622279" lon="2.092958">
        <ele>400.50</ele>
        <time>1970-01-01T01:14:28Z</time>
      </trkpt>
      <trkpt lat="41.622313" lon="2.092973">
        <ele>400.90</ele>
        <time>1970-01-01T01:14:30Z</time>
      </trkpt>
      <trkpt lat="41.622357" lon="2.092988">
        <ele>401.40</ele>
        <time>1970-01-01T01:14:32Z</time>
      </trkpt>
      <trkpt lat="41.622386" lon="2.092994">
        <ele>401.70</ele>
        <time>1970-01-01T01:14:33Z</time>
      </trkpt>
      <trkpt lat="41.622411" lon="2.093000">
        <ele>402.00</ele>
        <time>1970-01-01T01:14:34Z</time>
      </trkpt>
      <trkpt lat="41.622465" lon="2.093010">
        <ele>402.60</ele>
        <time>1970-01-01T01:14:36Z</time>
      </trkpt>
      <trkpt lat="41.622496" lon="2.093023">
        <ele>403.00</ele>
        <time>1970-01-01T01:14:37Z</time>
      </trkpt>
      <trkpt lat="41.622540" lon="2.093046">
        <ele>403.50</ele>
        <time>1970-01-01T01:14:39Z</time>
      </trkpt>
      <trkpt lat="41.622568" lon="2.093056">
        <ele>403.90</ele>
        <time>1970-01-01T01:14:40Z</time>
      </trkpt>
      <trkpt lat="41.622610" lon="2.093067">
        <ele>404.30</ele>
        <time>1970-01-01T01:14:42Z</time>
      </trkpt>
      <trkpt lat="41.622642" lon="2.093068">
        <ele>404.70</ele>
        <time>1970-01-01T01:14:43Z</time>
      </trkpt>
      <trkpt lat="41.622687" lon="2.093062">
        <ele>405.20</ele>
        <time>1970-01-01T01:14:45Z</time>
      </trkpt>
      <trkpt lat="41.622702" lon="2.093061">
        <ele>405.40</ele>
        <time>1970-01-01T01:14:46Z</time>
      </trkpt>
      <trkpt lat="41.622717" lon="2.093059">
        <ele>405.60</ele>
        <time>1970-01-01T01:14:47Z</time>
      </trkpt>
      <trkpt lat="41.622736" lon="2.093053">
        <ele>405.80</ele>
        <time>1970-01-01T01:14:48Z</time>
      </trkpt>
      <trkpt lat="41.622743" lon="2.093051">
        <ele>405.90</ele>
        <time>1970-01-01T01:14:49Z</time>
      </trkpt>
      <trkpt lat="41.622751" lon="2.093045">
        <ele>406.00</ele>
        <time>1970-01-01T01:14:50Z</time>
      </trkpt>
      <trkpt lat="41.622779" lon="2.093023">
        <ele>406.30</ele>
        <time>1970-01-01T01:14:52Z</time>
      </trkpt>
      <trkpt lat="41.622802" lon="2.093010">
        <ele>406.60</ele>
        <time>1970-01-01T01:14:53Z</time>
      </trkpt>
      <trkpt lat="41.622836" lon="2.092995">
        <ele>407.00</ele>
        <time>1970-01-01T01:14:55Z</time>
      </trkpt>
      <trkpt lat="41.622871" lon="2.092981">
        <ele>407.40</ele>
        <time>1970-01-01T01:14:56Z</time>
      </trkpt>
      <trkpt lat="41.622880" lon="2.092976">
        <ele>407.50</ele>
        <time>1970-01-01T01:14:57Z</time>
      </trkpt>
      <trkpt lat="41.622902" lon="2.092972">
        <ele>407.80</ele>
        <time>1970-01-01T01:14:58Z</time>
      </trkpt>
      <trkpt lat="41.622920" lon="2.092969">
        <ele>408.00</ele>
        <time>1970-01-01T01:15:00Z</time>
      </trkpt>
      <trkpt lat="41.622955" lon="2.092965">
        <ele>408.40</ele>
        <time>1970-01-01T01:15:01Z</time>
      </trkpt>
      <trkpt lat="41.622964" lon="2.092967">
        <ele>408.50</ele>
        <time>1970-01-01T01:15:02Z</time>
      </trkpt>
      <trkpt lat="41.622991" lon="2.092963">
        <ele>408.80</ele>
        <time>1970-01-01T01:15:03Z</time>
      </trkpt>
      <trkpt lat="41.623001" lon="2.092963">
        <ele>408.90</ele>
        <time>1970-01-01T01:15:04Z</time>
      </trkpt>
      <trkpt lat="41.623035" lon="2.092973">
        <ele>409.30</ele>
        <time>1970-01-01T01:15:06Z</time>
      </trkpt>
      <trkpt lat="41.623046" lon="2.092981">
        <ele>409.40</ele>
        <time>1970-01-01T01:15:07Z</time>
      </trkpt>
      <trkpt lat="41.623070" lon="2.093001">
        <ele>409.80</ele>
        <time>1970-01-01T01:15:08Z</time>
      </trkpt>
      <trkpt lat="41.623078" lon="2.093010">
        <ele>409.90</ele>
        <time>1970-01-01T01:15:09Z</time>
      </trkpt>
      <trkpt lat="41.623120" lon="2.093039">
        <ele>410.40</ele>
        <time>1970-01-01T01:15:11Z</time>
      </trkpt>
      <trkpt lat="41.623134" lon="2.093043">
        <ele>410.60</ele>
        <time>1970-01-01T01:15:12Z</time>
      </trkpt>
      <trkpt lat="41.623149" lon="2.093047">
        <ele>410.70</ele>
        <time>1970-01-01T01:15:13Z</time>
      </trkpt>
      <trkpt lat="41.623170" lon="2.093056">
        <ele>411.00</ele>
        <time>1970-01-01T01:15:14Z</time>
      </trkpt>
      <trkpt lat="41.623191" lon="2.093074">
        <ele>411.30</ele>
        <time>1970-01-01T01:15:16Z</time>
      </trkpt>
      <trkpt lat="41.623222" lon="2.093091">
        <ele>411.70</ele>
        <time>1970-01-01T01:15:17Z</time>
      </trkpt>
      <trkpt lat="41.623231" lon="2.093096">
        <ele>411.80</ele>
        <time>1970-01-01T01:15:18Z</time>
      </trkpt>
      <trkpt lat="41.623258" lon="2.093108">
        <ele>412.10</ele>
        <time>1970-01-01T01:15:19Z</time>
      </trkpt>
      <trkpt lat="41.623288" lon="2.093122">
        <ele>412.40</ele>
        <time>1970-01-01T01:15:21Z</time>
      </trkpt>
      <trkpt lat="41.623297" lon="2.093129">
        <ele>412.60</ele>
        <time>1970-01-01T01:15:22Z</time>
      </trkpt>
      <trkpt lat="41.623308" lon="2.093144">
        <ele>412.70</ele>
        <time>1970-01-01T01:15:23Z</time>
      </trkpt>
      <trkpt lat="41.623325" lon="2.093186">
        <ele>413.10</ele>
        <time>1970-01-01T01:15:25Z</time>
      </trkpt>
      <trkpt lat="41.623334" lon="2.093221">
        <ele>413.50</ele>
        <time>1970-01-01T01:15:26Z</time>
      </trkpt>
      <trkpt lat="41.623345" lon="2.093270">
        <ele>413.90</ele>
        <time>1970-01-01T01:15:27Z</time>
      </trkpt>
      <trkpt lat="41.623352" lon="2.093285">
        <ele>414.00</ele>
        <time>1970-01-01T01:15:28Z</time>
      </trkpt>
      <trkpt lat="41.623355" lon="2.093312">
        <ele>414.30</ele>
        <time>1970-01-01T01:15:29Z</time>
      </trkpt>
      <trkpt lat="41.623359" lon="2.093345">
        <ele>414.50</ele>
        <time>1970-01-01T01:15:31Z</time>
      </trkpt>
      <trkpt lat="41.623366" lon="2.093382">
        <ele>414.90</ele>
        <time>1970-01-01T01:15:32Z</time>
      </trkpt>
      <trkpt lat="41.623380" lon="2.093422">
        <ele>415.20</ele>
        <time>1970-01-01T01:15:33Z</time>
      </trkpt>
      <trkpt lat="41.623387" lon="2.093444">
        <ele>415.40</ele>
        <time>1970-01-01T01:15:34Z</time>
      </trkpt>
      <trkpt lat="41.623391" lon="2.093474">
        <ele>415.70</ele>
        <time>1970-01-01T01:15:36Z</time>
      </trkpt>
      <trkpt lat="41.623402" lon="2.093516">
        <ele>416.10</ele>
        <time>1970-01-01T01:15:37Z</time>
      </trkpt>
      <trkpt lat="41.623420" lon="2.093563">
        <ele>416.50</ele>
        <time>1970-01-01T01:15:39Z</time>
      </trkpt>
      <trkpt lat="41.623425" lon="2.093580">
        <ele>416.70</ele>
        <time>1970-01-01T01:15:40Z</time>
      </trkpt>
      <trkpt lat="41.623441" lon="2.093613">
        <ele>417.00</ele>
        <time>1970-01-01T01:15:41Z</time>
      </trkpt>
      <trkpt lat="41.623447" lon="2.093624">
        <ele>417.10</ele>
        <time>1970-01-01T01:15:42Z</time>
      </trkpt>
      <trkpt lat="41.623464" lon="2.093648">
        <ele>417.40</ele>
        <time>1970-01-01T01:15:43Z</time>
      </trkpt>
      <trkpt lat="41.623485" lon="2.093685">
        <ele>417.80</ele>
        <time>1970-01-01T01:15:45Z</time>
      </trkpt>
      <trkpt lat="41.623501" lon="2.093729">
        <ele>418.20</ele>
        <time>1970-01-01T01:15:46Z</time>
      </trkpt>
      <trkpt lat="41.623506" lon="2.093746">
        <ele>418.40</ele>
        <time>1970-01-01T01:15:47Z</time>
      </trkpt>
      <trkpt lat="41.623520" lon="2.093790">
        <ele>418.80</ele>
        <time>1970-01-01T01:15:48Z</time>
      </trkpt>
      <trkpt lat="41.623525" lon="2.093806">
        <ele>418.90</ele>
        <time>1970-01-01T01:15:49Z</time>
      </trkpt>
      <trkpt lat="41.623538" lon="2.093853">
        <ele>419.30</ele>
        <time>1970-01-01T01:15:51Z</time>
      </trkpt>
      <trkpt lat="41.623540" lon="2.093869">
        <ele>419.50</ele>
        <time>1970-01-01T01:15:52Z</time>
      </trkpt>
      <trkpt lat="41.623545" lon="2.093912">
        <ele>419.80</ele>
        <time>1970-01-01T01:15:53Z</time>
      </trkpt>
      <trkpt lat="41.623546" lon="2.093927">
        <ele>420.00</ele>
        <time>1970-01-01T01:15:54Z</time>
      </trkpt>
      <trkpt lat="41.623549" lon="2.093964">
        <ele>420.30</ele>
        <time>1970-01-01T01:15:56Z</time>
      </trkpt>
      <trkpt lat="41.623549" lon="2.093976">
        <ele>420.40</ele>
        <time>1970-01-01T01:15:57Z</time>
      </trkpt>
      <trkpt lat="41.623558" lon="2.094016">
        <ele>420.70</ele>
        <time>1970-01-01T01:15:58Z</time>
      </trkpt>
      <trkpt lat="41.623562" lon="2.094034">
        <ele>420.90</ele>
        <time>1970-01-01T01:15:59Z</time>
      </trkpt>
      <trkpt lat="41.623570" lon="2.094071">
        <ele>421.20</ele>
        <time>1970-01-01T01:16:01Z</time>
      </trkpt>
      <trkpt lat="41.623574" lon="2.094083">
        <ele>421.30</ele>
        <time>1970-01-01T01:16:02Z</time>
      </trkpt>
      <trkpt lat="41.623582" lon="2.094101">
        <ele>421.50</ele>
        <time>1970-01-01T01:16:03Z</time>
      </trkpt>
      <trkpt lat="41.623594" lon="2.094113">
        <ele>421.70</ele>
        <time>1970-01-01T01:16:04Z</time>
      </trkpt>
      <trkpt lat="41.623630" lon="2.094105">
        <ele>422.10</ele>
        <time>1970-01-01T01:16:06Z</time>
      </trkpt>
      <trkpt lat="41.623643" lon="2.094097">
        <ele>422.20</ele>
        <time>1970-01-01T01:16:07Z</time>
      </trkpt>
      <trkpt lat="41.623679" lon="2.094090">
        <ele>422.60</ele>
        <time>1970-01-01T01:16:09Z</time>
      </trkpt>
      <trkpt lat="41.623701" lon="2.094068">
        <ele>423.00</ele>
        <time>1970-01-01T01:16:10Z</time>
      </trkpt>
      <trkpt lat="41.623707" lon="2.094056">
        <ele>423.10</ele>
        <time>1970-01-01T01:16:11Z</time>
      </trkpt>
      <trkpt lat="41.623721" lon="2.094029">
        <ele>423.40</ele>
        <time>1970-01-01T01:16:12Z</time>
      </trkpt>
      <trkpt lat="41.623739" lon="2.094003">
        <ele>423.70</ele>
        <time>1970-01-01T01:16:14Z</time>
      </trkpt>
      <trkpt lat="41.623742" lon="2.093981">
        <ele>423.80</ele>
        <time>1970-01-01T01:16:15Z</time>
      </trkpt>
      <trkpt lat="41.623745" lon="2.093964">
        <ele>424.00</ele>
        <time>1970-01-01T01:16:16Z</time>
      </trkpt>
      <trkpt lat="41.623767" lon="2.093940">
        <ele>424.30</ele>
        <time>1970-01-01T01:16:17Z</time>
      </trkpt>
      <trkpt lat="41.623775" lon="2.093933">
        <ele>424.40</ele>
        <time>1970-01-01T01:16:18Z</time>
      </trkpt>
      <trkpt lat="41.623792" lon="2.093922">
        <ele>424.60</ele>
        <time>1970-01-01T01:16:20Z</time>
      </trkpt>
      <trkpt lat="41.623804" lon="2.093904">
        <ele>424.80</ele>
        <time>1970-01-01T01:16:21Z</time>
      </trkpt>
      <trkpt lat="41.623813" lon="2.093868">
        <ele>425.20</ele>
        <time>1970-01-01T01:16:22Z</time>
      </trkpt>
      <trkpt lat="41.623816" lon="2.093852">
        <ele>425.30</ele>
        <time>1970-01-01T01:16:23Z</time>
      </trkpt>
      <trkpt lat="41.623823" lon="2.093826">
        <ele>425.50</ele>
        <time>1970-01-01T01:16:24Z</time>
      </trkpt>
      <trkpt lat="41.623831" lon="2.093797">
        <ele>425.80</ele>
        <time>1970-01-01T01:16:26Z</time>
      </trkpt>
      <trkpt lat="41.623840" lon="2.093760">
        <ele>426.10</ele>
        <time>1970-01-01T01:16:27Z</time>
      </trkpt>
      <trkpt lat="41.623845" lon="2.093735">
        <ele>426.30</ele>
        <time>1970-01-01T01:16:28Z</time>
      </trkpt>
      <trkpt lat="41.623849" lon="2.093709">
        <ele>426.60</ele>
        <time>1970-01-01T01:16:30Z</time>
      </trkpt>
      <trkpt lat="41.623847" lon="2.093665">
        <ele>426.90</ele>
        <time>1970-01-01T01:16:31Z</time>
      </trkpt>
      <trkpt lat="41.623847" lon="2.093653">
        <ele>427.00</ele>
        <time>1970-01-01T01:16:32Z</time>
      </trkpt>
      <trkpt lat="41.623849" lon="2.093627">
        <ele>427.20</ele>
        <time>1970-01-01T01:16:33Z</time>
      </trkpt>
      <trkpt lat="41.623850" lon="2.093598">
        <ele>427.50</ele>
        <time>1970-01-01T01:16:35Z</time>
      </trkpt>
      <trkpt lat="41.623852" lon="2.093555">
        <ele>427.90</ele>
        <time>1970-01-01T01:16:36Z</time>
      </trkpt>
      <trkpt lat="41.623853" lon="2.093541">
        <ele>428.00</ele>
        <time>1970-01-01T01:16:37Z</time>
      </trkpt>
      <trkpt lat="41.623855" lon="2.093496">
        <ele>428.40</ele>
        <time>1970-01-01T01:16:38Z</time>
      </trkpt>
      <trkpt lat="41.623854" lon="2.093482">
        <ele>428.50</ele>
        <time>1970-01-01T01:16:39Z</time>
      </trkpt>
      <trkpt lat="41.623851" lon="2.093427">
        <ele>428.90</ele>
        <time>1970-01-01T01:16:41Z</time>
      </trkpt>
      <trkpt lat="41.623851" lon="2.093408">
        <ele>429.10</ele>
        <time>1970-01-01T01:16:42Z</time>
      </trkpt>
      <trkpt lat="41.623850" lon="2.093389">
        <ele>429.30</ele>
        <time>1970-01-01T01:16:43Z</time>
      </trkpt>
      <trkpt lat="41.623853" lon="2.093344">
        <ele>429.60</ele>
        <time>1970-01-01T01:16:45Z</time>
      </trkpt>
      <trkpt lat="41.623853" lon="2.093330">
        <ele>429.80</ele>
        <time>1970-01-01T01:16:46Z</time>
      </trkpt>
      <trkpt lat="41.623853" lon="2.093287">
        <ele>430.10</ele>
        <time>1970-01-01T01:16:47Z</time>
      </trkpt>
      <trkpt lat="41.623854" lon="2.093275">
        <ele>430.20</ele>
        <time>1970-01-01T01:16:48Z</time>
      </trkpt>
      <trkpt lat="41.623857" lon="2.093232">
        <ele>430.60</ele>
        <time>1970-01-01T01:16:50Z</time>
      </trkpt>
      <trkpt lat="41.623859" lon="2.093219">
        <ele>430.70</ele>
        <time>1970-01-01T01:16:51Z</time>
      </trkpt>
      <trkpt lat="41.623865" lon="2.093162">
        <ele>431.20</ele>
        <time>1970-01-01T01:16:53Z</time>
      </trkpt>
      <trkpt lat="41.623869" lon="2.093145">
        <ele>431.30</ele>
        <time>1970-01-01T01:16:54Z</time>
      </trkpt>
      <trkpt lat="41.623872" lon="2.093129">
        <ele>431.50</ele>
        <time>1970-01-01T01:16:55Z</time>
      </trkpt>
      <trkpt lat="41.623892" lon="2.093097">
        <ele>431.80</ele>
        <time>1970-01-01T01:16:56Z</time>
      </trkpt>
      <trkpt lat="41.623903" lon="2.093085">
        <ele>432.00</ele>
        <time>1970-01-01T01:16:57Z</time>
      </trkpt>
      <trkpt lat="41.623922" lon="2.093066">
        <ele>432.30</ele>
        <time>1970-01-01T01:16:59Z</time>
      </trkpt>
      <trkpt lat="41.623954" lon="2.093044">
        <ele>432.70</ele>
        <time>1970-01-01T01:17:01Z</time>
      </trkpt>
      <trkpt lat="41.623999" lon="2.093051">
        <ele>433.20</ele>
        <time>1970-01-01T01:17:03Z</time>
      </trkpt>
      <trkpt lat="41.624012" lon="2.093055">
        <ele>433.30</ele>
        <time>1970-01-01T01:17:04Z</time>
      </trkpt>
      <trkpt lat="41.624025" lon="2.093059">
        <ele>433.50</ele>
        <time>1970-01-01T01:17:05Z</time>
      </trkpt>
      <trkpt lat="41.624043" lon="2.093070">
        <ele>433.70</ele>
        <time>1970-01-01T01:17:06Z</time>
      </trkpt>
      <trkpt lat="41.624066" lon="2.093100">
        <ele>434.10</ele>
        <time>1970-01-01T01:17:08Z</time>
      </trkpt>
      <trkpt lat="41.624077" lon="2.093138">
        <ele>434.40</ele>
        <time>1970-01-01T01:17:09Z</time>
      </trkpt>
      <trkpt lat="41.624082" lon="2.093150">
        <ele>434.50</ele>
        <time>1970-01-01T01:17:10Z</time>
      </trkpt>
      <trkpt lat="41.624097" lon="2.093183">
        <ele>434.80</ele>
        <time>1970-01-01T01:17:11Z</time>
      </trkpt>
      <trkpt lat="41.624101" lon="2.093197">
        <ele>435.00</ele>
        <time>1970-01-01T01:17:12Z</time>
      </trkpt>
      <trkpt lat="41.624110" lon="2.093215">
        <ele>435.10</ele>
        <time>1970-01-01T01:17:13Z</time>
      </trkpt>
      <trkpt lat="41.624119" lon="2.093236">
        <ele>435.40</ele>
        <time>1970-01-01T01:17:14Z</time>
      </trkpt>
      <trkpt lat="41.624131" lon="2.093267">
        <ele>435.60</ele>
        <time>1970-01-01T01:17:16Z</time>
      </trkpt>
      <trkpt lat="41.624146" lon="2.093309">
        <ele>436.00</ele>
        <time>1970-01-01T01:17:18Z</time>
      </trkpt>
      <trkpt lat="41.624157" lon="2.093339">
        <ele>436.30</ele>
        <time>1970-01-01T01:17:19Z</time>
      </trkpt>
      <trkpt lat="41.624171" lon="2.093385">
        <ele>436.70</ele>
        <time>1970-01-01T01:17:21Z</time>
      </trkpt>
      <trkpt lat="41.624187" lon="2.093429">
        <ele>437.20</ele>
        <time>1970-01-01T01:17:23Z</time>
      </trkpt>
      <trkpt lat="41.624197" lon="2.093467">
        <ele>437.50</ele>
        <time>1970-01-01T01:17:24Z</time>
      </trkpt>
      <trkpt lat="41.624210" lon="2.093500">
        <ele>437.80</ele>
        <time>1970-01-01T01:17:26Z</time>
      </trkpt>
      <trkpt lat="41.624216" lon="2.093528">
        <ele>438.10</ele>
        <time>1970-01-01T01:17:27Z</time>
      </trkpt>
      <trkpt lat="41.624230" lon="2.093576">
        <ele>438.50</ele>
        <time>1970-01-01T01:17:29Z</time>
      </trkpt>
      <trkpt lat="41.624240" lon="2.093618">
        <ele>438.90</ele>
        <time>1970-01-01T01:17:30Z</time>
      </trkpt>
      <trkpt lat="41.624243" lon="2.093631">
        <ele>439.00</ele>
        <time>1970-01-01T01:17:31Z</time>
      </trkpt>
      <trkpt lat="41.624256" lon="2.093669">
        <ele>439.30</ele>
        <time>1970-01-01T01:17:32Z</time>
      </trkpt>
      <trkpt lat="41.624269" lon="2.093707">
        <ele>439.70</ele>
        <time>1970-01-01T01:17:34Z</time>
      </trkpt>
      <trkpt lat="41.624275" lon="2.093735">
        <ele>439.90</ele>
        <time>1970-01-01T01:17:35Z</time>
      </trkpt>
      <trkpt lat="41.624287" lon="2.093781">
        <ele>440.30</ele>
        <time>1970-01-01T01:17:37Z</time>
      </trkpt>
      <trkpt lat="41.624296" lon="2.093827">
        <ele>440.70</ele>
        <time>1970-01-01T01:17:38Z</time>
      </trkpt>
      <trkpt lat="41.624299" lon="2.093843">
        <ele>440.90</ele>
        <time>1970-01-01T01:17:39Z</time>
      </trkpt>
      <trkpt lat="41.624304" lon="2.093883">
        <ele>441.20</ele>
        <time>1970-01-01T01:17:40Z</time>
      </trkpt>
      <trkpt lat="41.624304" lon="2.093896">
        <ele>441.30</ele>
        <time>1970-01-01T01:17:41Z</time>
      </trkpt>
      <trkpt lat="41.624306" lon="2.093933">
        <ele>441.60</ele>
        <time>1970-01-01T01:17:42Z</time>
      </trkpt>
      <trkpt lat="41.624311" lon="2.093979">
        <ele>442.00</ele>
        <time>1970-01-01T01:17:44Z</time>
      </trkpt>
      <trkpt lat="41.624316" lon="2.094015">
        <ele>442.30</ele>
        <time>1970-01-01T01:17:45Z</time>
      </trkpt>
      <trkpt lat="41.624327" lon="2.094065">
        <ele>442.80</ele>
        <time>1970-01-01T01:17:46Z</time>
      </trkpt>
      <trkpt lat="41.624330" lon="2.094084">
        <ele>442.90</ele>
        <time>1970-01-01T01:17:47Z</time>
      </trkpt>
      <trkpt lat="41.624336" lon="2.094116">
        <ele>443.20</ele>
        <time>1970-01-01T01:17:48Z</time>
      </trkpt>
      <trkpt lat="41.624345" lon="2.094156">
        <ele>443.60</ele>
        <time>1970-01-01T01:17:50Z</time>
      </trkpt>
      <trkpt lat="41.624354" lon="2.094212">
        <ele>444.10</ele>
        <time>1970-01-01T01:17:51Z</time>
      </trkpt>
      <trkpt lat="41.624358" lon="2.094235">
        <ele>444.30</ele>
        <time>1970-01-01T01:17:52Z</time>
      </trkpt>
      <trkpt lat="41.624387" lon="2.094283">
        <ele>444.80</ele>
        <time>1970-01-01T01:17:54Z</time>
      </trkpt>
      <trkpt lat="41.624400" lon="2.094298">
        <ele>445.00</ele>
        <time>1970-01-01T01:17:55Z</time>
      </trkpt>
      <trkpt lat="41.624413" lon="2.094313">
        <ele>445.20</ele>
        <time>1970-01-01T01:17:56Z</time>
      </trkpt>
      <trkpt lat="41.624438" lon="2.094322">
        <ele>445.50</ele>
        <time>1970-01-01T01:17:57Z</time>
      </trkpt>
      <trkpt lat="41.624470" lon="2.094317">
        <ele>445.80</ele>
        <time>1970-01-01T01:17:59Z</time>
      </trkpt>
      <trkpt lat="41.624506" lon="2.094300">
        <ele>446.20</ele>
        <time>1970-01-01T01:18:00Z</time>
      </trkpt>
      <trkpt lat="41.624516" lon="2.094292">
        <ele>446.40</ele>
        <time>1970-01-01T01:18:01Z</time>
      </trkpt>
      <trkpt lat="41.624542" lon="2.094265">
        <ele>446.70</ele>
        <time>1970-01-01T01:18:02Z</time>
      </trkpt>
      <trkpt lat="41.624551" lon="2.094250">
        <ele>446.90</ele>
        <time>1970-01-01T01:18:03Z</time>
      </trkpt>
      <trkpt lat="41.624562" lon="2.094189">
        <ele>447.40</ele>
        <time>1970-01-01T01:18:05Z</time>
      </trkpt>
      <trkpt lat="41.624561" lon="2.094168">
        <ele>447.60</ele>
        <time>1970-01-01T01:18:06Z</time>
      </trkpt>
      <trkpt lat="41.624560" lon="2.094147">
        <ele>447.80</ele>
        <time>1970-01-01T01:18:07Z</time>
      </trkpt>
      <trkpt lat="41.624555" lon="2.094090">
        <ele>448.30</ele>
        <time>1970-01-01T01:18:09Z</time>
      </trkpt>
      <trkpt lat="41.624551" lon="2.094067">
        <ele>448.50</ele>
        <time>1970-01-01T01:18:10Z</time>
      </trkpt>
      <trkpt lat="41.624541" lon="2.094025">
        <ele>448.80</ele>
        <time>1970-01-01T01:18:11Z</time>
      </trkpt>
      <trkpt lat="41.624535" lon="2.094001">
        <ele>449.10</ele>
        <time>1970-01-01T01:18:12Z</time>
      </trkpt>
      <trkpt lat="41.624535" lon="2.093970">
        <ele>449.30</ele>
        <time>1970-01-01T01:18:14Z</time>
      </trkpt>
      <trkpt lat="41.624536" lon="2.093941">
        <ele>449.60</ele>
        <time>1970-01-01T01:18:15Z</time>
      </trkpt>
      <trkpt lat="41.624531" lon="2.093897">
        <ele>449.90</ele>
        <time>1970-01-01T01:18:17Z</time>
      </trkpt>
      <trkpt lat="41.624529" lon="2.093855">
        <ele>450.30</ele>
        <time>1970-01-01T01:18:18Z</time>
      </trkpt>
      <trkpt lat="41.624528" lon="2.093841">
        <ele>450.40</ele>
        <time>1970-01-01T01:18:19Z</time>
      </trkpt>
      <trkpt lat="41.624527" lon="2.093801">
        <ele>450.80</ele>
        <time>1970-01-01T01:18:20Z</time>
      </trkpt>
      <trkpt lat="41.624524" lon="2.093750">
        <ele>451.20</ele>
        <time>1970-01-01T01:18:22Z</time>
      </trkpt>
      <trkpt lat="41.624522" lon="2.093734">
        <ele>451.30</ele>
        <time>1970-01-01T01:18:23Z</time>
      </trkpt>
      <trkpt lat="41.624516" lon="2.093696">
        <ele>451.60</ele>
        <time>1970-01-01T01:18:24Z</time>
      </trkpt>
      <trkpt lat="41.624514" lon="2.093683">
        <ele>451.80</ele>
        <time>1970-01-01T01:18:25Z</time>
      </trkpt>
      <trkpt lat="41.624520" lon="2.093619">
        <ele>452.30</ele>
        <time>1970-01-01T01:18:27Z</time>
      </trkpt>
      <trkpt lat="41.624519" lon="2.093602">
        <ele>452.40</ele>
        <time>1970-01-01T01:18:28Z</time>
      </trkpt>
      <trkpt lat="41.624519" lon="2.093584">
        <ele>452.60</ele>
        <time>1970-01-01T01:18:29Z</time>
      </trkpt>
      <trkpt lat="41.624516" lon="2.093520">
        <ele>453.10</ele>
        <time>1970-01-01T01:18:31Z</time>
      </trkpt>
      <trkpt lat="41.624516" lon="2.093500">
        <ele>453.30</ele>
        <time>1970-01-01T01:18:32Z</time>
      </trkpt>
      <trkpt lat="41.624515" lon="2.093479">
        <ele>453.50</ele>
        <time>1970-01-01T01:18:33Z</time>
      </trkpt>
      <trkpt lat="41.624511" lon="2.093430">
        <ele>453.90</ele>
        <time>1970-01-01T01:18:35Z</time>
      </trkpt>
      <trkpt lat="41.624504" lon="2.093385">
        <ele>454.30</ele>
        <time>1970-01-01T01:18:36Z</time>
      </trkpt>
      <trkpt lat="41.624501" lon="2.093371">
        <ele>454.40</ele>
        <time>1970-01-01T01:18:37Z</time>
      </trkpt>
      <trkpt lat="41.624493" lon="2.093324">
        <ele>454.80</ele>
        <time>1970-01-01T01:18:39Z</time>
      </trkpt>
      <trkpt lat="41.624490" lon="2.093295">
        <ele>455.10</ele>
        <time>1970-01-01T01:18:40Z</time>
      </trkpt>
      <trkpt lat="41.624486" lon="2.093249">
        <ele>455.50</ele>
        <time>1970-01-01T01:18:42Z</time>
      </trkpt>
      <trkpt lat="41.624484" lon="2.093199">
        <ele>455.90</ele>
        <time>1970-01-01T01:18:43Z</time>
      </trkpt>
      <trkpt lat="41.624483" lon="2.093185">
        <ele>456.00</ele>
        <time>1970-01-01T01:18:44Z</time>
      </trkpt>
      <trkpt lat="41.624489" lon="2.093140">
        <ele>456.40</ele>
        <time>1970-01-01T01:18:45Z</time>
      </trkpt>
      <trkpt lat="41.624492" lon="2.093122">
        <ele>456.50</ele>
        <time>1970-01-01T01:18:46Z</time>
      </trkpt>
      <trkpt lat="41.624507" lon="2.093082">
        <ele>456.90</ele>
        <time>1970-01-01T01:18:48Z</time>
      </trkpt>
      <trkpt lat="41.624522" lon="2.093043">
        <ele>457.30</ele>
        <time>1970-01-01T01:18:49Z</time>
      </trkpt>
      <trkpt lat="41.624541" lon="2.093006">
        <ele>457.70</ele>
        <time>1970-01-01T01:18:51Z</time>
      </trkpt>
      <trkpt lat="41.624548" lon="2.092992">
        <ele>457.80</ele>
        <time>1970-01-01T01:18:52Z</time>
      </trkpt>
      <trkpt lat="41.624582" lon="2.092962">
        <ele>458.30</ele>
        <time>1970-01-01T01:18:53Z</time>
      </trkpt>
      <trkpt lat="41.624598" lon="2.092955">
        <ele>458.50</ele>
        <time>1970-01-01T01:18:54Z</time>
      </trkpt>
      <trkpt lat="41.624634" lon="2.092969">
        <ele>458.90</ele>
        <time>1970-01-01T01:18:56Z</time>
      </trkpt>
      <trkpt lat="41.624646" lon="2.092975">
        <ele>459.00</ele>
        <time>1970-01-01T01:18:57Z</time>
      </trkpt>
      <trkpt lat="41.624678" lon="2.092987">
        <ele>459.40</ele>
        <time>1970-01-01T01:18:58Z</time>
      </trkpt>
      <trkpt lat="41.624689" lon="2.092992">
        <ele>459.50</ele>
        <time>1970-01-01T01:18:59Z</time>
      </trkpt>
      <trkpt lat="41.624725" lon="2.092998">
        <ele>459.80</ele>
        <time>1970-01-01T01:19:00Z</time>
      </trkpt>
      <trkpt lat="41.624737" lon="2.092999">
        <ele>459.90</ele>
        <time>1970-01-01T01:19:01Z</time>
      </trkpt>
      <trkpt lat="41.624787" lon="2.092992">
        <ele>460.20</ele>
        <time>1970-01-01T01:19:03Z</time>
      </trkpt>
      <trkpt lat="41.624804" lon="2.092988">
        <ele>460.30</ele>
        <time>1970-01-01T01:19:04Z</time>
      </trkpt>
      <trkpt lat="41.624822" lon="2.092984">
        <ele>460.40</ele>
        <time>1970-01-01T01:19:05Z</time>
      </trkpt>
      <trkpt lat="41.624856" lon="2.092972">
        <ele>460.50</ele>
        <time>1970-01-01T01:19:07Z</time>
      </trkpt>
      <trkpt lat="41.624887" lon="2.092959">
        <ele>460.70</ele>
        <time>1970-01-01T01:19:08Z</time>
      </trkpt>
      <trkpt lat="41.624925" lon="2.092945">
        <ele>460.80</ele>
        <time>1970-01-01T01:19:09Z</time>
      </trkpt>
      <trkpt lat="41.624938" lon="2.092946">
        <ele>460.90</ele>
        <time>1970-01-01T01:19:10Z</time>
      </trkpt>
      <trkpt lat="41.624970" lon="2.092959">
        <ele>461.00</ele>
        <time>1970-01-01T01:19:11Z</time>
      </trkpt>
      <trkpt lat="41.625004" lon="2.092991">
        <ele>461.10</ele>
        <time>1970-01-01T01:19:12Z</time>
      </trkpt>
      <trkpt lat="41.625015" lon="2.093003">
        <ele>461.10</ele>
        <time>1970-01-01T01:19:13Z</time>
      </trkpt>
      <trkpt lat="41.625040" lon="2.093040">
        <ele>461.30</ele>
        <time>1970-01-01T01:19:15Z</time>
      </trkpt>
      <trkpt lat="41.625061" lon="2.093063">
        <ele>461.40</ele>
        <time>1970-01-01T01:19:16Z</time>
      </trkpt>
      <trkpt lat="41.625092" lon="2.093108">
        <ele>461.50</ele>
        <time>1970-01-01T01:19:18Z</time>
      </trkpt>
      <trkpt lat="41.625114" lon="2.093141">
        <ele>461.60</ele>
        <time>1970-01-01T01:19:19Z</time>
      </trkpt>
      <trkpt lat="41.625141" lon="2.093188">
        <ele>461.80</ele>
        <time>1970-01-01T01:19:20Z</time>
      </trkpt>
      <trkpt lat="41.625152" lon="2.093206">
        <ele>461.90</ele>
        <time>1970-01-01T01:19:21Z</time>
      </trkpt>
      <trkpt lat="41.625172" lon="2.093230">
        <ele>461.90</ele>
        <time>1970-01-01T01:19:22Z</time>
      </trkpt>
      <trkpt lat="41.625195" lon="2.093267">
        <ele>462.10</ele>
        <time>1970-01-01T01:19:24Z</time>
      </trkpt>
      <trkpt lat="41.625213" lon="2.093300">
        <ele>462.20</ele>
        <time>1970-01-01T01:19:25Z</time>
      </trkpt>
      <trkpt lat="41.625240" lon="2.093337">
        <ele>462.30</ele>
        <time>1970-01-01T01:19:26Z</time>
      </trkpt>
      <trkpt lat="41.625249" lon="2.093348">
        <ele>462.40</ele>
        <time>1970-01-01T01:19:27Z</time>
      </trkpt>
      <trkpt lat="41.625277" lon="2.093376">
        <ele>462.50</ele>
        <time>1970-01-01T01:19:28Z</time>
      </trkpt>
      <trkpt lat="41.625286" lon="2.093386">
        <ele>462.60</ele>
        <time>1970-01-01T01:19:29Z</time>
      </trkpt>
      <trkpt lat="41.625310" lon="2.093416">
        <ele>462.70</ele>
        <time>1970-01-01T01:19:31Z</time>
      </trkpt>
      <trkpt lat="41.625318" lon="2.093426">
        <ele>462.80</ele>
        <time>1970-01-01T01:19:32Z</time>
      </trkpt>
      <trkpt lat="41.625337" lon="2.093452">
        <ele>462.90</ele>
        <time>1970-01-01T01:19:33Z</time>
      </trkpt>
      <trkpt lat="41.625344" lon="2.093461">
        <ele>463.00</ele>
        <time>1970-01-01T01:19:34Z</time>
      </trkpt>
      <trkpt lat="41.625356" lon="2.093472">
        <ele>463.10</ele>
        <time>1970-01-01T01:19:35Z</time>
      </trkpt>
      <trkpt lat="41.625367" lon="2.093480">
        <ele>463.20</ele>
        <time>1970-01-01T01:19:36Z</time>
      </trkpt>
      <trkpt lat="41.625386" lon="2.093481">
        <ele>463.30</ele>
        <time>1970-01-01T01:19:38Z</time>
      </trkpt>
      <trkpt lat="41.625400" lon="2.093469">
        <ele>463.40</ele>
        <time>1970-01-01T01:19:39Z</time>
      </trkpt>
      <trkpt lat="41.625413" lon="2.093458">
        <ele>463.50</ele>
        <time>1970-01-01T01:19:40Z</time>
      </trkpt>
      <trkpt lat="41.625427" lon="2.093447">
        <ele>463.60</ele>
        <time>1970-01-01T01:19:41Z</time>
      </trkpt>
      <trkpt lat="41.625446" lon="2.093434">
        <ele>463.80</ele>
        <time>1970-01-01T01:19:42Z</time>
      </trkpt>
      <trkpt lat="41.625462" lon="2.093423">
        <ele>464.00</ele>
        <time>1970-01-01T01:19:44Z</time>
      </trkpt>
      <trkpt lat="41.625472" lon="2.093415">
        <ele>464.10</ele>
        <time>1970-01-01T01:19:45Z</time>
      </trkpt>
      <trkpt lat="41.625482" lon="2.093410">
        <ele>464.20</ele>
        <time>1970-01-01T01:19:46Z</time>
      </trkpt>
      <trkpt lat="41.625488" lon="2.093408">
        <ele>464.30</ele>
        <time>1970-01-01T01:19:47Z</time>
      </trkpt>
      <trkpt lat="41.625492" lon="2.093406">
        <ele>464.40</ele>
        <time>1970-01-01T01:19:48Z</time>
      </trkpt>
      <trkpt lat="41.625489" lon="2.093402">
        <ele>464.40</ele>
        <time>1970-01-01T01:19:50Z</time>
      </trkpt>
      <trkpt lat="41.625486" lon="2.093397">
        <ele>464.50</ele>
        <time>1970-01-01T01:19:52Z</time>
      </trkpt>
      <trkpt lat="41.625487" lon="2.093396">
        <ele>464.50</ele>
        <time>1970-01-01T01:19:54Z</time>
      </trkpt>
      <trkpt lat="41.625487" lon="2.093396">
        <ele>464.50</ele>
        <time>1970-01-01T01:19:56Z</time>
      </trkpt>
      <trkpt lat="41.625488" lon="2.093397">
        <ele>464.50</ele>
        <time>1970-01-01T01:19:57Z</time>
      </trkpt>
      <trkpt lat="41.625488" lon="2.093400">
        <ele>464.50</ele>
        <time>1970-01-01T01:19:59Z</time>
      </trkpt>
      <trkpt lat="41.625488" lon="2.093402">
        <ele>464.50</ele>
        <time>1970-01-01T01:20:00Z</time>
      </trkpt>
      <trkpt lat="41.625490" lon="2.093403">
        <ele>464.60</ele>
        <time>1970-01-01T01:20:01Z</time>
      </trkpt>
      <trkpt lat="41.625501" lon="2.093406">
        <ele>464.70</ele>
        <time>1970-01-01T01:20:02Z</time>
      </trkpt>
      <trkpt lat="41.625511" lon="2.093412">
        <ele>464.90</ele>
        <time>1970-01-01T01:20:04Z</time>
      </trkpt>
      <trkpt lat="41.625518" lon="2.093412">
        <ele>465.00</ele>
        <time>1970-01-01T01:20:06Z</time>
      </trkpt>
      <trkpt lat="41.625522" lon="2.093411">
        <ele>465.00</ele>
        <time>1970-01-01T01:20:07Z</time>
      </trkpt>
      <trkpt lat="41.625524" lon="2.093409">
        <ele>465.10</ele>
        <time>1970-01-01T01:20:08Z</time>
      </trkpt>
      <trkpt lat="41.625528" lon="2.093411">
        <ele>465.10</ele>
        <time>1970-01-01T01:20:10Z</time>
      </trkpt>
      <trkpt lat="41.625529" lon="2.093412">
        <ele>465.10</ele>
        <time>1970-01-01T01:20:11Z</time>
      </trkpt>
      <trkpt lat="41.625528" lon="2.093412">
        <ele>465.20</ele>
        <time>1970-01-01T01:20:12Z</time>
      </trkpt>
      <trkpt lat="41.625530" lon="2.093416">
        <ele>465.20</ele>
        <time>1970-01-01T01:20:13Z</time>
      </trkpt>
      <trkpt lat="41.625531" lon="2.093417">
        <ele>465.20</ele>
        <time>1970-01-01T01:20:15Z</time>
      </trkpt>
      <trkpt lat="41.625533" lon="2.093418">
        <ele>465.30</ele>
        <time>1970-01-01T01:20:16Z</time>
      </trkpt>
      <trkpt lat="41.625535" lon="2.093419">
        <ele>465.30</ele>
        <time>1970-01-01T01:20:17Z</time>
      </trkpt>
      <trkpt lat="41.625537" lon="2.093420">
        <ele>465.30</ele>
        <time>1970-01-01T01:20:18Z</time>
      </trkpt>
      <trkpt lat="41.625539" lon="2.093421">
        <ele>465.40</ele>
        <time>1970-01-01T01:20:20Z</time>
      </trkpt>
      <trkpt lat="41.625540" lon="2.093420">
        <ele>465.40</ele>
        <time>1970-01-01T01:20:21Z</time>
      </trkpt>
      <trkpt lat="41.625542" lon="2.093419">
        <ele>465.40</ele>
        <time>1970-01-01T01:20:23Z</time>
      </trkpt>
      <trkpt lat="41.625547" lon="2.093421">
        <ele>465.50</ele>
        <time>1970-01-01T01:20:24Z</time>
      </trkpt>
      <trkpt lat="41.625556" lon="2.093434">
        <ele>465.70</ele>
        <time>1970-01-01T01:20:25Z</time>
      </trkpt>
      <trkpt lat="41.625564" lon="2.093448">
        <ele>466.00</ele>
        <time>1970-01-01T01:20:27Z</time>
      </trkpt>
      <trkpt lat="41.625572" lon="2.093462">
        <ele>466.20</ele>
        <time>1970-01-01T01:20:28Z</time>
      </trkpt>
      <trkpt lat="41.625580" lon="2.093476">
        <ele>466.50</ele>
        <time>1970-01-01T01:20:30Z</time>
      </trkpt>
      <trkpt lat="41.625588" lon="2.093490">
        <ele>466.80</ele>
        <time>1970-01-01T01:20:31Z</time>
      </trkpt>
      <trkpt lat="41.625600" lon="2.093511">
        <ele>467.20</ele>
        <time>1970-01-01T01:20:32Z</time>
      </trkpt>
      <trkpt lat="41.625620" lon="2.093543">
        <ele>467.90</ele>
        <time>1970-01-01T01:20:34Z</time>
      </trkpt>
      <trkpt lat="41.625649" lon="2.093548">
        <ele>468.60</ele>
        <time>1970-01-01T01:20:35Z</time>
      </trkpt>
      <trkpt lat="41.625659" lon="2.093546">
        <ele>468.90</ele>
        <time>1970-01-01T01:20:36Z</time>
      </trkpt>
      <trkpt lat="41.625684" lon="2.093549">
        <ele>469.50</ele>
        <time>1970-01-01T01:20:38Z</time>
      </trkpt>
      <trkpt lat="41.625704" lon="2.093566">
        <ele>470.10</ele>
        <time>1970-01-01T01:20:40Z</time>
      </trkpt>
      <trkpt lat="41.625731" lon="2.093603">
        <ele>471.20</ele>
        <time>1970-01-01T01:20:42Z</time>
      </trkpt>
      <trkpt lat="41.625739" lon="2.093609">
        <ele>471.40</ele>
        <time>1970-01-01T01:20:43Z</time>
      </trkpt>
      <trkpt lat="41.625747" lon="2.093615">
        <ele>471.70</ele>
        <time>1970-01-01T01:20:45Z</time>
      </trkpt>
      <trkpt lat="41.625755" lon="2.093621">
        <ele>471.90</ele>
        <time>1970-01-01T01:20:46Z</time>
      </trkpt>
      <trkpt lat="41.625763" lon="2.093627">
        <ele>472.10</ele>
        <time>1970-01-01T01:20:47Z</time>
      </trkpt>
      <trkpt lat="41.625772" lon="2.093632">
        <ele>472.40</ele>
        <time>1970-01-01T01:20:49Z</time>
      </trkpt>
      <trkpt lat="41.625780" lon="2.093638">
        <ele>472.60</ele>
        <time>1970-01-01T01:20:50Z</time>
      </trkpt>
      <trkpt lat="41.625788" lon="2.093644">
        <ele>472.90</ele>
        <time>1970-01-01T01:20:51Z</time>
      </trkpt>
      <trkpt lat="41.625796" lon="2.093650">
        <ele>473.10</ele>
        <time>1970-01-01T01:20:53Z</time>
      </trkpt>
      <trkpt lat="41.625804" lon="2.093656">
        <ele>474.80</ele>
        <time>1970-01-01T01:20:55Z</time>
      </trkpt>
      <trkpt lat="41.625812" lon="2.093662">
        <ele>474.90</ele>
        <time>1970-01-01T01:20:56Z</time>
      </trkpt>
      <trkpt lat="41.625820" lon="2.093668">
        <ele>474.90</ele>
        <time>1970-01-01T01:20:57Z</time>
      </trkpt>
      <trkpt lat="41.625839" lon="2.093696">
        <ele>475.00</ele>
        <time>1970-01-01T01:20:58Z</time>
      </trkpt>
      <trkpt lat="41.625864" lon="2.093721">
        <ele>475.20</ele>
        <time>1970-01-01T01:21:00Z</time>
      </trkpt>
      <trkpt lat="41.625878" lon="2.093736">
        <ele>475.30</ele>
        <time>1970-01-01T01:21:01Z</time>
      </trkpt>
      <trkpt lat="41.625892" lon="2.093746">
        <ele>475.40</ele>
        <time>1970-01-01T01:21:02Z</time>
      </trkpt>
      <trkpt lat="41.625910" lon="2.093766">
        <ele>475.50</ele>
        <time>1970-01-01T01:21:03Z</time>
      </trkpt>
      <trkpt lat="41.625926" lon="2.093802">
        <ele>475.70</ele>
        <time>1970-01-01T01:21:05Z</time>
      </trkpt>
      <trkpt lat="41.625931" lon="2.093826">
        <ele>475.80</ele>
        <time>1970-01-01T01:21:06Z</time>
      </trkpt>
      <trkpt lat="41.625927" lon="2.093845">
        <ele>475.90</ele>
        <time>1970-01-01T01:21:07Z</time>
      </trkpt>
      <trkpt lat="41.625916" lon="2.093868">
        <ele>476.10</ele>
        <time>1970-01-01T01:21:08Z</time>
      </trkpt>
      <trkpt lat="41.625909" lon="2.093892">
        <ele>476.20</ele>
        <time>1970-01-01T01:21:10Z</time>
      </trkpt>
      <trkpt lat="41.625904" lon="2.093912">
        <ele>476.30</ele>
        <time>1970-01-01T01:21:11Z</time>
      </trkpt>
      <trkpt lat="41.625900" lon="2.093936">
        <ele>476.50</ele>
        <time>1970-01-01T01:21:12Z</time>
      </trkpt>
      <trkpt lat="41.625905" lon="2.093966">
        <ele>476.70</ele>
        <time>1970-01-01T01:21:14Z</time>
      </trkpt>
      <trkpt lat="41.625909" lon="2.093977">
        <ele>476.80</ele>
        <time>1970-01-01T01:21:15Z</time>
      </trkpt>
      <trkpt lat="41.625912" lon="2.093988">
        <ele>476.80</ele>
        <time>1970-01-01T01:21:16Z</time>
      </trkpt>
      <trkpt lat="41.625923" lon="2.094011">
        <ele>477.00</ele>
        <time>1970-01-01T01:21:18Z</time>
      </trkpt>
      <trkpt lat="41.625943" lon="2.094011">
        <ele>477.20</ele>
        <time>1970-01-01T01:21:19Z</time>
      </trkpt>
      <trkpt lat="41.625954" lon="2.093967">
        <ele>477.50</ele>
        <time>1970-01-01T01:21:21Z</time>
      </trkpt>
      <trkpt lat="41.625952" lon="2.093951">
        <ele>477.60</ele>
        <time>1970-01-01T01:21:22Z</time>
      </trkpt>
      <trkpt lat="41.625941" lon="2.093921">
        <ele>477.80</ele>
        <time>1970-01-01T01:21:23Z</time>
      </trkpt>
      <trkpt lat="41.625923" lon="2.093874">
        <ele>478.20</ele>
        <time>1970-01-01T01:21:25Z</time>
      </trkpt>
      <trkpt lat="41.625910" lon="2.093840">
        <ele>478.40</ele>
        <time>1970-01-01T01:21:26Z</time>
      </trkpt>
      <trkpt lat="41.625898" lon="2.093818">
        <ele>478.60</ele>
        <time>1970-01-01T01:21:28Z</time>
      </trkpt>
      <trkpt lat="41.625886" lon="2.093824">
        <ele>478.70</ele>
        <time>1970-01-01T01:21:30Z</time>
      </trkpt>
      <trkpt lat="41.625884" lon="2.093826">
        <ele>478.70</ele>
        <time>1970-01-01T01:21:31Z</time>
      </trkpt>
      <trkpt lat="41.625882" lon="2.093829">
        <ele>478.70</ele>
        <time>1970-01-01T01:21:33Z</time>
      </trkpt>
      <trkpt lat="41.625881" lon="2.093830">
        <ele>478.70</ele>
        <time>1970-01-01T01:21:34Z</time>
      </trkpt>
      <trkpt lat="41.625879" lon="2.093831">
        <ele>478.80</ele>
        <time>1970-01-01T01:21:36Z</time>
      </trkpt>
      <trkpt lat="41.625879" lon="2.093831">
        <ele>478.80</ele>
        <time>1970-01-01T01:21:37Z</time>
      </trkpt>
      <trkpt lat="41.625878" lon="2.093833">
        <ele>478.80</ele>
        <time>1970-01-01T01:21:39Z</time>
      </trkpt>
      <trkpt lat="41.625878" lon="2.093833">
        <ele>478.80</ele>
        <time>1970-01-01T01:21:40Z</time>
      </trkpt>
      <trkpt lat="41.625878" lon="2.093833">
        <ele>478.80</ele>
        <time>1970-01-01T01:21:41Z</time>
      </trkpt>
      <trkpt lat="41.625878" lon="2.093833">
        <ele>478.80</ele>
        <time>1970-01-01T01:21:42Z</time>
      </trkpt>
      <trkpt lat="41.625879" lon="2.093833">
        <ele>478.80</ele>
        <time>1970-01-01T01:21:44Z</time>
      </trkpt>
      <trkpt lat="41.625883" lon="2.093834">
        <ele>478.80</ele>
        <time>1970-01-01T01:21:45Z</time>
      </trkpt>
      <trkpt lat="41.625890" lon="2.093839">
        <ele>478.90</ele>
        <time>1970-01-01T01:21:47Z</time>
      </trkpt>
      <trkpt lat="41.625893" lon="2.093841">
        <ele>478.90</ele>
        <time>1970-01-01T01:21:49Z</time>
      </trkpt>
      <trkpt lat="41.625895" lon="2.093843">
        <ele>478.90</ele>
        <time>1970-01-01T01:21:51Z</time>
      </trkpt>
      <trkpt lat="41.625895" lon="2.093843">
        <ele>478.90</ele>
        <time>1970-01-01T01:21:52Z</time>
      </trkpt>
      <trkpt lat="41.625895" lon="2.093843">
        <ele>478.90</ele>
        <time>1970-01-01T01:21:54Z</time>
      </trkpt>
      <trkpt lat="41.625895" lon="2.093843">
        <ele>478.90</ele>
        <time>1970-01-01T01:21:55Z</time>
      </trkpt>
      <trkpt lat="41.625895" lon="2.093843">
        <ele>478.90</ele>
        <time>1970-01-01T01:21:57Z</time>
      </trkpt>
      <trkpt lat="41.625895" lon="2.093843">
        <ele>478.90</ele>
        <time>1970-01-01T01:21:59Z</time>
      </trkpt>
      <trkpt lat="41.625895" lon="2.093843">
        <ele>478.90</ele>
        <time>1970-01-01T01:22:01Z</time>
      </trkpt>
      <trkpt lat="41.625895" lon="2.093843">
        <ele>478.90</ele>
        <time>1970-01-01T01:22:02Z</time>
      </trkpt>
      <trkpt lat="41.625895" lon="2.093843">
        <ele>478.90</ele>
        <time>1970-01-01T01:22:04Z</time>
      </trkpt>
      <trkpt lat="41.625895" lon="2.093843">
        <ele>478.90</ele>
        <time>1970-01-01T01:22:05Z</time>
      </trkpt>
      <trkpt lat="41.625894" lon="2.093843">
        <ele>478.90</ele>
        <time>1970-01-01T01:22:06Z</time>
      </trkpt>
      <trkpt lat="41.625892" lon="2.093842">
        <ele>479.00</ele>
        <time>1970-01-01T01:22:07Z</time>
      </trkpt>
      <trkpt lat="41.625884" lon="2.093840">
        <ele>479.00</ele>
        <time>1970-01-01T01:22:09Z</time>
      </trkpt>
      <trkpt lat="41.625883" lon="2.093842">
        <ele>479.10</ele>
        <time>1970-01-01T01:22:10Z</time>
      </trkpt>
      <trkpt lat="41.625884" lon="2.093845">
        <ele>479.10</ele>
        <time>1970-01-01T01:22:12Z</time>
      </trkpt>
      <trkpt lat="41.625883" lon="2.093846">
        <ele>479.10</ele>
        <time>1970-01-01T01:22:13Z</time>
      </trkpt>
      <trkpt lat="41.625883" lon="2.093847">
        <ele>479.10</ele>
        <time>1970-01-01T01:22:15Z</time>
      </trkpt>
      <trkpt lat="41.625884" lon="2.093848">
        <ele>479.10</ele>
        <time>1970-01-01T01:22:16Z</time>
      </trkpt>
      <trkpt lat="41.625884" lon="2.093849">
        <ele>479.10</ele>
        <time>1970-01-01T01:22:18Z</time>
      </trkpt>
      <trkpt lat="41.625885" lon="2.093849">
        <ele>479.10</ele>
        <time>1970-01-01T01:22:19Z</time>
      </trkpt>
      <trkpt lat="41.625884" lon="2.093849">
        <ele>479.10</ele>
        <time>1970-01-01T01:22:21Z</time>
      </trkpt>
      <trkpt lat="41.625884" lon="2.093850">
        <ele>479.10</ele>
        <time>1970-01-01T01:22:22Z</time>
      </trkpt>
      <trkpt lat="41.625884" lon="2.093850">
        <ele>479.10</ele>
        <time>1970-01-01T01:22:23Z</time>
      </trkpt>
      <trkpt lat="41.625884" lon="2.093851">
        <ele>479.10</ele>
        <time>1970-01-01T01:22:24Z</time>
      </trkpt>
      <trkpt lat="41.625885" lon="2.093852">
        <ele>479.10</ele>
        <time>1970-01-01T01:22:26Z</time>
      </trkpt>
      <trkpt lat="41.625884" lon="2.093853">
        <ele>479.20</ele>
        <time>1970-01-01T01:22:27Z</time>
      </trkpt>
      <trkpt lat="41.625884" lon="2.093853">
        <ele>479.20</ele>
        <time>1970-01-01T01:22:29Z</time>
      </trkpt>
      <trkpt lat="41.625886" lon="2.093852">
        <ele>479.20</ele>
        <time>1970-01-01T01:22:31Z</time>
      </trkpt>
      <trkpt lat="41.625887" lon="2.093851">
        <ele>479.20</ele>
        <time>1970-01-01T01:22:33Z</time>
      </trkpt>
      <trkpt lat="41.625887" lon="2.093851">
        <ele>479.20</ele>
        <time>1970-01-01T01:22:34Z</time>
      </trkpt>
      <trkpt lat="41.625888" lon="2.093851">
        <ele>479.20</ele>
        <time>1970-01-01T01:22:36Z</time>
      </trkpt>
      <trkpt lat="41.625888" lon="2.093851">
        <ele>479.20</ele>
        <time>1970-01-01T01:22:37Z</time>
      </trkpt>
      <trkpt lat="41.625887" lon="2.093854">
        <ele>479.20</ele>
        <time>1970-01-01T01:22:39Z</time>
      </trkpt>
      <trkpt lat="41.625887" lon="2.093857">
        <ele>479.20</ele>
        <time>1970-01-01T01:22:40Z</time>
      </trkpt>
      <trkpt lat="41.625891" lon="2.093862">
        <ele>479.30</ele>
        <time>1970-01-01T01:22:41Z</time>
      </trkpt>
      <trkpt lat="41.625899" lon="2.093867">
        <ele>479.40</ele>
        <time>1970-01-01T01:22:43Z</time>
      </trkpt>
      <trkpt lat="41.625908" lon="2.093872">
        <ele>479.40</ele>
        <time>1970-01-01T01:22:44Z</time>
      </trkpt>
      <trkpt lat="41.625914" lon="2.093899">
        <ele>479.60</ele>
        <time>1970-01-01T01:22:45Z</time>
      </trkpt>
      <trkpt lat="41.625923" lon="2.093953">
        <ele>480.00</ele>
        <time>1970-01-01T01:22:47Z</time>
      </trkpt>
      <trkpt lat="41.625928" lon="2.093972">
        <ele>480.10</ele>
        <time>1970-01-01T01:22:48Z</time>
      </trkpt>
      <trkpt lat="41.625933" lon="2.093990">
        <ele>480.30</ele>
        <time>1970-01-01T01:22:49Z</time>
      </trkpt>
      <trkpt lat="41.625956" lon="2.094025">
        <ele>480.60</ele>
        <time>1970-01-01T01:22:51Z</time>
      </trkpt>
      <trkpt lat="41.625963" lon="2.094034">
        <ele>480.70</ele>
        <time>1970-01-01T01:22:52Z</time>
      </trkpt>
      <trkpt lat="41.625991" lon="2.094066">
        <ele>481.00</ele>
        <time>1970-01-01T01:22:54Z</time>
      </trkpt>
      <trkpt lat="41.626021" lon="2.094090">
        <ele>481.40</ele>
        <time>1970-01-01T01:22:55Z</time>
      </trkpt>
      <trkpt lat="41.626032" lon="2.094100">
        <ele>481.60</ele>
        <time>1970-01-01T01:22:56Z</time>
      </trkpt>
      <trkpt lat="41.626053" lon="2.094122">
        <ele>481.90</ele>
        <time>1970-01-01T01:22:58Z</time>
      </trkpt>
      <trkpt lat="41.626083" lon="2.094137">
        <ele>482.20</ele>
        <time>1970-01-01T01:22:59Z</time>
      </trkpt>
      <trkpt lat="41.626113" lon="2.094154">
        <ele>482.60</ele>
        <time>1970-01-01T01:23:00Z</time>
      </trkpt>
      <trkpt lat="41.626124" lon="2.094159">
        <ele>482.70</ele>
        <time>1970-01-01T01:23:01Z</time>
      </trkpt>
      <trkpt lat="41.626149" lon="2.094166">
        <ele>483.10</ele>
        <time>1970-01-01T01:23:02Z</time>
      </trkpt>
      <trkpt lat="41.626175" lon="2.094170">
        <ele>483.40</ele>
        <time>1970-01-01T01:23:04Z</time>
      </trkpt>
      <trkpt lat="41.626204" lon="2.094173">
        <ele>483.70</ele>
        <time>1970-01-01T01:23:05Z</time>
      </trkpt>
      <trkpt lat="41.626234" lon="2.094174">
        <ele>484.10</ele>
        <time>1970-01-01T01:23:07Z</time>
      </trkpt>
      <trkpt lat="41.626264" lon="2.094173">
        <ele>484.50</ele>
        <time>1970-01-01T01:23:08Z</time>
      </trkpt>
      <trkpt lat="41.626285" lon="2.094172">
        <ele>484.80</ele>
        <time>1970-01-01T01:23:09Z</time>
      </trkpt>
      <trkpt lat="41.626320" lon="2.094170">
        <ele>485.30</ele>
        <time>1970-01-01T01:23:11Z</time>
      </trkpt>
      <trkpt lat="41.626354" lon="2.094166">
        <ele>485.70</ele>
        <time>1970-01-01T01:23:12Z</time>
      </trkpt>
      <trkpt lat="41.626365" lon="2.094165">
        <ele>485.90</ele>
        <time>1970-01-01T01:23:13Z</time>
      </trkpt>
      <trkpt lat="41.626401" lon="2.094166">
        <ele>486.40</ele>
        <time>1970-01-01T01:23:14Z</time>
      </trkpt>
      <trkpt lat="41.626413" lon="2.094168">
        <ele>486.50</ele>
        <time>1970-01-01T01:23:15Z</time>
      </trkpt>
      <trkpt lat="41.626439" lon="2.094175">
        <ele>486.90</ele>
        <time>1970-01-01T01:23:16Z</time>
      </trkpt>
      <trkpt lat="41.626464" lon="2.094189">
        <ele>487.30</ele>
        <time>1970-01-01T01:23:18Z</time>
      </trkpt>
      <trkpt lat="41.626481" lon="2.094202">
        <ele>487.50</ele>
        <time>1970-01-01T01:23:19Z</time>
      </trkpt>
      <trkpt lat="41.626511" lon="2.094228">
        <ele>488.00</ele>
        <time>1970-01-01T01:23:21Z</time>
      </trkpt>
      <trkpt lat="41.626529" lon="2.094240">
        <ele>488.30</ele>
        <time>1970-01-01T01:23:22Z</time>
      </trkpt>
      <trkpt lat="41.626563" lon="2.094262">
        <ele>488.80</ele>
        <time>1970-01-01T01:23:24Z</time>
      </trkpt>
      <trkpt lat="41.626585" lon="2.094285">
        <ele>489.20</ele>
        <time>1970-01-01T01:23:25Z</time>
      </trkpt>
      <trkpt lat="41.626612" lon="2.094313">
        <ele>489.70</ele>
        <time>1970-01-01T01:23:26Z</time>
      </trkpt>
      <trkpt lat="41.626621" lon="2.094323">
        <ele>489.80</ele>
        <time>1970-01-01T01:23:27Z</time>
      </trkpt>
      <trkpt lat="41.626643" lon="2.094344">
        <ele>490.20</ele>
        <time>1970-01-01T01:23:29Z</time>
      </trkpt>
      <trkpt lat="41.626669" lon="2.094367">
        <ele>490.70</ele>
        <time>1970-01-01T01:23:30Z</time>
      </trkpt>
      <trkpt lat="41.626705" lon="2.094410">
        <ele>491.30</ele>
        <time>1970-01-01T01:23:32Z</time>
      </trkpt>
      <trkpt lat="41.626715" lon="2.094428">
        <ele>491.60</ele>
        <time>1970-01-01T01:23:33Z</time>
      </trkpt>
      <trkpt lat="41.626726" lon="2.094445">
        <ele>491.80</ele>
        <time>1970-01-01T01:23:34Z</time>
      </trkpt>
      <trkpt lat="41.626755" lon="2.094478">
        <ele>492.40</ele>
        <time>1970-01-01T01:23:35Z</time>
      </trkpt>
      <trkpt lat="41.626765" lon="2.094490">
        <ele>492.60</ele>
        <time>1970-01-01T01:23:36Z</time>
      </trkpt>
      <trkpt lat="41.626782" lon="2.094510">
        <ele>492.90</ele>
        <time>1970-01-01T01:23:37Z</time>
      </trkpt>
      <trkpt lat="41.626811" lon="2.094536">
        <ele>493.30</ele>
        <time>1970-01-01T01:23:39Z</time>
      </trkpt>
      <trkpt lat="41.626845" lon="2.094573">
        <ele>493.90</ele>
        <time>1970-01-01T01:23:41Z</time>
      </trkpt>
      <trkpt lat="41.626864" lon="2.094594">
        <ele>494.20</ele>
        <time>1970-01-01T01:23:42Z</time>
      </trkpt>
      <trkpt lat="41.626886" lon="2.094618">
        <ele>494.60</ele>
        <time>1970-01-01T01:23:44Z</time>
      </trkpt>
      <trkpt lat="41.626916" lon="2.094650">
        <ele>495.00</ele>
        <time>1970-01-01T01:23:45Z</time>
      </trkpt>
      <trkpt lat="41.626925" lon="2.094661">
        <ele>495.20</ele>
        <time>1970-01-01T01:23:46Z</time>
      </trkpt>
      <trkpt lat="41.626951" lon="2.094707">
        <ele>495.70</ele>
        <time>1970-01-01T01:23:48Z</time>
      </trkpt>
      <trkpt lat="41.626958" lon="2.094723">
        <ele>495.90</ele>
        <time>1970-01-01T01:23:49Z</time>
      </trkpt>
      <trkpt lat="41.626966" lon="2.094738">
        <ele>496.00</ele>
        <time>1970-01-01T01:23:50Z</time>
      </trkpt>
      <trkpt lat="41.626983" lon="2.094773">
        <ele>496.40</ele>
        <time>1970-01-01T01:23:51Z</time>
      </trkpt>
      <trkpt lat="41.627006" lon="2.094812">
        <ele>496.90</ele>
        <time>1970-01-01T01:23:53Z</time>
      </trkpt>
      <trkpt lat="41.627021" lon="2.094849">
        <ele>497.30</ele>
        <time>1970-01-01T01:23:54Z</time>
      </trkpt>
      <trkpt lat="41.627025" lon="2.094862">
        <ele>497.50</ele>
        <time>1970-01-01T01:23:55Z</time>
      </trkpt>
      <trkpt lat="41.627041" lon="2.094913">
        <ele>498.20</ele>
        <time>1970-01-01T01:23:57Z</time>
      </trkpt>
      <trkpt lat="41.627062" lon="2.094948">
        <ele>498.80</ele>
        <time>1970-01-01T01:23:58Z</time>
      </trkpt>
      <trkpt lat="41.627069" lon="2.094959">
        <ele>499.00</ele>
        <time>1970-01-01T01:23:59Z</time>
      </trkpt>
      <trkpt lat="41.627094" lon="2.094999">
        <ele>499.70</ele>
        <time>1970-01-01T01:24:01Z</time>
      </trkpt>
      <trkpt lat="41.627107" lon="2.095018">
        <ele>500.10</ele>
        <time>1970-01-01T01:24:02Z</time>
      </trkpt>
      <trkpt lat="41.627125" lon="2.095050">
        <ele>500.60</ele>
        <time>1970-01-01T01:24:04Z</time>
      </trkpt>
      <trkpt lat="41.627147" lon="2.095091">
        <ele>501.40</ele>
        <time>1970-01-01T01:24:05Z</time>
      </trkpt>
      <trkpt lat="41.627155" lon="2.095106">
        <ele>501.60</ele>
        <time>1970-01-01T01:24:06Z</time>
      </trkpt>
      <trkpt lat="41.627170" lon="2.095143">
        <ele>502.20</ele>
        <time>1970-01-01T01:24:08Z</time>
      </trkpt>
      <trkpt lat="41.627173" lon="2.095155">
        <ele>502.40</ele>
        <time>1970-01-01T01:24:09Z</time>
      </trkpt>
      <trkpt lat="41.627179" lon="2.095186">
        <ele>502.90</ele>
        <time>1970-01-01T01:24:10Z</time>
      </trkpt>
      <trkpt lat="41.627189" lon="2.095230">
        <ele>503.50</ele>
        <time>1970-01-01T01:24:12Z</time>
      </trkpt>
      <trkpt lat="41.627194" lon="2.095260">
        <ele>504.00</ele>
        <time>1970-01-01T01:24:13Z</time>
      </trkpt>
      <trkpt lat="41.627201" lon="2.095291">
        <ele>504.40</ele>
        <time>1970-01-01T01:24:15Z</time>
      </trkpt>
      <trkpt lat="41.627205" lon="2.095320">
        <ele>504.80</ele>
        <time>1970-01-01T01:24:16Z</time>
      </trkpt>
      <trkpt lat="41.627213" lon="2.095370">
        <ele>505.50</ele>
        <time>1970-01-01T01:24:18Z</time>
      </trkpt>
      <trkpt lat="41.627218" lon="2.095419">
        <ele>506.20</ele>
        <time>1970-01-01T01:24:20Z</time>
      </trkpt>
      <trkpt lat="41.627222" lon="2.095461">
        <ele>506.70</ele>
        <time>1970-01-01T01:24:21Z</time>
      </trkpt>
      <trkpt lat="41.627223" lon="2.095476">
        <ele>506.90</ele>
        <time>1970-01-01T01:24:22Z</time>
      </trkpt>
      <trkpt lat="41.627220" lon="2.095528">
        <ele>507.60</ele>
        <time>1970-01-01T01:24:24Z</time>
      </trkpt>
      <trkpt lat="41.627197" lon="2.095566">
        <ele>508.30</ele>
        <time>1970-01-01T01:24:26Z</time>
      </trkpt>
      <trkpt lat="41.627149" lon="2.095583">
        <ele>509.10</ele>
        <time>1970-01-01T01:24:28Z</time>
      </trkpt>
      <trkpt lat="41.627132" lon="2.095580">
        <ele>509.40</ele>
        <time>1970-01-01T01:24:29Z</time>
      </trkpt>
      <trkpt lat="41.627116" lon="2.095578">
        <ele>509.80</ele>
        <time>1970-01-01T01:24:30Z</time>
      </trkpt>
      <trkpt lat="41.627083" lon="2.095557">
        <ele>510.20</ele>
        <time>1970-01-01T01:24:31Z</time>
      </trkpt>
      <trkpt lat="41.627069" lon="2.095548">
        <ele>510.30</ele>
        <time>1970-01-01T01:24:32Z</time>
      </trkpt>
      <trkpt lat="41.627037" lon="2.095517">
        <ele>510.70</ele>
        <time>1970-01-01T01:24:34Z</time>
      </trkpt>
      <trkpt lat="41.627004" lon="2.095482">
        <ele>511.10</ele>
        <time>1970-01-01T01:24:36Z</time>
      </trkpt>
      <trkpt lat="41.626973" lon="2.095444">
        <ele>511.40</ele>
        <time>1970-01-01T01:24:37Z</time>
      </trkpt>
      <trkpt lat="41.626962" lon="2.095431">
        <ele>511.50</ele>
        <time>1970-01-01T01:24:38Z</time>
      </trkpt>
      <trkpt lat="41.626935" lon="2.095402">
        <ele>511.70</ele>
        <time>1970-01-01T01:24:39Z</time>
      </trkpt>
      <trkpt lat="41.626914" lon="2.095379">
        <ele>511.90</ele>
        <time>1970-01-01T01:24:40Z</time>
      </trkpt>
      <trkpt lat="41.626890" lon="2.095359">
        <ele>512.10</ele>
        <time>1970-01-01T01:24:42Z</time>
      </trkpt>
      <trkpt lat="41.626858" lon="2.095334">
        <ele>512.30</ele>
        <time>1970-01-01T01:24:43Z</time>
      </trkpt>
      <trkpt lat="41.626846" lon="2.095326">
        <ele>512.30</ele>
        <time>1970-01-01T01:24:44Z</time>
      </trkpt>
      <trkpt lat="41.626821" lon="2.095308">
        <ele>512.50</ele>
        <time>1970-01-01T01:24:45Z</time>
      </trkpt>
      <trkpt lat="41.626797" lon="2.095287">
        <ele>512.60</ele>
        <time>1970-01-01T01:24:46Z</time>
      </trkpt>
      <trkpt lat="41.626754" lon="2.095260">
        <ele>512.80</ele>
        <time>1970-01-01T01:24:48Z</time>
      </trkpt>
      <trkpt lat="41.626728" lon="2.095245">
        <ele>512.80</ele>
        <time>1970-01-01T01:24:49Z</time>
      </trkpt>
      <trkpt lat="41.626702" lon="2.095234">
        <ele>512.90</ele>
        <time>1970-01-01T01:24:50Z</time>
      </trkpt>
      <trkpt lat="41.626659" lon="2.095211">
        <ele>513.00</ele>
        <time>1970-01-01T01:24:51Z</time>
      </trkpt>
      <trkpt lat="41.626616" lon="2.095190">
        <ele>513.00</ele>
        <time>1970-01-01T01:24:53Z</time>
      </trkpt>
      <trkpt lat="41.626557" lon="2.095167">
        <ele>513.10</ele>
        <time>1970-01-01T01:24:55Z</time>
      </trkpt>
      <trkpt lat="41.626520" lon="2.095165">
        <ele>513.10</ele>
        <time>1970-01-01T01:24:56Z</time>
      </trkpt>
      <trkpt lat="41.626488" lon="2.095167">
        <ele>513.20</ele>
        <time>1970-01-01T01:24:57Z</time>
      </trkpt>
      <trkpt lat="41.626443" lon="2.095173">
        <ele>513.20</ele>
        <time>1970-01-01T01:24:58Z</time>
      </trkpt>
      <trkpt lat="41.626400" lon="2.095187">
        <ele>513.20</ele>
        <time>1970-01-01T01:25:00Z</time>
      </trkpt>
      <trkpt lat="41.626365" lon="2.095201">
        <ele>513.30</ele>
        <time>1970-01-01T01:25:01Z</time>
      </trkpt>
      <trkpt lat="41.626325" lon="2.095221">
        <ele>513.40</ele>
        <time>1970-01-01T01:25:02Z</time>
      </trkpt>
      <trkpt lat="41.626281" lon="2.095248">
        <ele>513.60</ele>
        <time>1970-01-01T01:25:04Z</time>
      </trkpt>
      <trkpt lat="41.626245" lon="2.095266">
        <ele>513.80</ele>
        <time>1970-01-01T01:25:05Z</time>
      </trkpt>
      <trkpt lat="41.626208" lon="2.095288">
        <ele>514.00</ele>
        <time>1970-01-01T01:25:06Z</time>
      </trkpt>
      <trkpt lat="41.626177" lon="2.095310">
        <ele>514.20</ele>
        <time>1970-01-01T01:25:07Z</time>
      </trkpt>
      <trkpt lat="41.626137" lon="2.095347">
        <ele>514.50</ele>
        <time>1970-01-01T01:25:09Z</time>
      </trkpt>
      <trkpt lat="41.626100" lon="2.095382">
        <ele>514.90</ele>
        <time>1970-01-01T01:25:10Z</time>
      </trkpt>
      <trkpt lat="41.626075" lon="2.095406">
        <ele>515.10</ele>
        <time>1970-01-01T01:25:12Z</time>
      </trkpt>
      <trkpt lat="41.626050" lon="2.095431">
        <ele>515.30</ele>
        <time>1970-01-01T01:25:13Z</time>
      </trkpt>
      <trkpt lat="41.626017" lon="2.095461">
        <ele>515.60</ele>
        <time>1970-01-01T01:25:14Z</time>
      </trkpt>
      <trkpt lat="41.626007" lon="2.095471">
        <ele>515.70</ele>
        <time>1970-01-01T01:25:15Z</time>
      </trkpt>
      <trkpt lat="41.625984" lon="2.095494">
        <ele>515.80</ele>
        <time>1970-01-01T01:25:16Z</time>
      </trkpt>
      <trkpt lat="41.625959" lon="2.095521">
        <ele>516.00</ele>
        <time>1970-01-01T01:25:17Z</time>
      </trkpt>
      <trkpt lat="41.625935" lon="2.095549">
        <ele>516.20</ele>
        <time>1970-01-01T01:25:19Z</time>
      </trkpt>
      <trkpt lat="41.625912" lon="2.095576">
        <ele>516.40</ele>
        <time>1970-01-01T01:25:20Z</time>
      </trkpt>
      <trkpt lat="41.625885" lon="2.095599">
        <ele>516.50</ele>
        <time>1970-01-01T01:25:21Z</time>
      </trkpt>
      <trkpt lat="41.625857" lon="2.095619">
        <ele>516.70</ele>
        <time>1970-01-01T01:25:22Z</time>
      </trkpt>
      <trkpt lat="41.625830" lon="2.095638">
        <ele>516.80</ele>
        <time>1970-01-01T01:25:23Z</time>
      </trkpt>
      <trkpt lat="41.625804" lon="2.095656">
        <ele>517.00</ele>
        <time>1970-01-01T01:25:24Z</time>
      </trkpt>
      <trkpt lat="41.625771" lon="2.095678">
        <ele>517.10</ele>
        <time>1970-01-01T01:25:25Z</time>
      </trkpt>
      <trkpt lat="41.625738" lon="2.095696">
        <ele>517.30</ele>
        <time>1970-01-01T01:25:27Z</time>
      </trkpt>
      <trkpt lat="41.625702" lon="2.095715">
        <ele>517.60</ele>
        <time>1970-01-01T01:25:28Z</time>
      </trkpt>
      <trkpt lat="41.625647" lon="2.095724">
        <ele>517.90</ele>
        <time>1970-01-01T01:25:30Z</time>
      </trkpt>
      <trkpt lat="41.625612" lon="2.095723">
        <ele>518.20</ele>
        <time>1970-01-01T01:25:31Z</time>
      </trkpt>
      <trkpt lat="41.625577" lon="2.095717">
        <ele>518.50</ele>
        <time>1970-01-01T01:25:32Z</time>
      </trkpt>
      <trkpt lat="41.625538" lon="2.095714">
        <ele>518.90</ele>
        <time>1970-01-01T01:25:33Z</time>
      </trkpt>
      <trkpt lat="41.625509" lon="2.095710">
        <ele>519.30</ele>
        <time>1970-01-01T01:25:34Z</time>
      </trkpt>
      <trkpt lat="41.625483" lon="2.095706">
        <ele>519.60</ele>
        <time>1970-01-01T01:25:35Z</time>
      </trkpt>
      <trkpt lat="41.625445" lon="2.095703">
        <ele>520.10</ele>
        <time>1970-01-01T01:25:37Z</time>
      </trkpt>
      <trkpt lat="41.625414" lon="2.095701">
        <ele>520.60</ele>
        <time>1970-01-01T01:25:38Z</time>
      </trkpt>
      <trkpt lat="41.625367" lon="2.095693">
        <ele>521.30</ele>
        <time>1970-01-01T01:25:40Z</time>
      </trkpt>
      <trkpt lat="41.625353" lon="2.095690">
        <ele>521.60</ele>
        <time>1970-01-01T01:25:41Z</time>
      </trkpt>
      <trkpt lat="41.625338" lon="2.095687">
        <ele>521.80</ele>
        <time>1970-01-01T01:25:42Z</time>
      </trkpt>
      <trkpt lat="41.625290" lon="2.095686">
        <ele>522.60</ele>
        <time>1970-01-01T01:25:44Z</time>
      </trkpt>
      <trkpt lat="41.625275" lon="2.095690">
        <ele>522.80</ele>
        <time>1970-01-01T01:25:45Z</time>
      </trkpt>
      <trkpt lat="41.625261" lon="2.095693">
        <ele>523.10</ele>
        <time>1970-01-01T01:25:46Z</time>
      </trkpt>
      <trkpt lat="41.625234" lon="2.095708">
        <ele>523.60</ele>
        <time>1970-01-01T01:25:48Z</time>
      </trkpt>
      <trkpt lat="41.625208" lon="2.095724">
        <ele>524.10</ele>
        <time>1970-01-01T01:25:49Z</time>
      </trkpt>
      <trkpt lat="41.625175" lon="2.095753">
        <ele>524.80</ele>
        <time>1970-01-01T01:25:50Z</time>
      </trkpt>
      <trkpt lat="41.625161" lon="2.095764">
        <ele>525.10</ele>
        <time>1970-01-01T01:25:51Z</time>
      </trkpt>
      <trkpt lat="41.625132" lon="2.095795">
        <ele>525.70</ele>
        <time>1970-01-01T01:25:53Z</time>
      </trkpt>
      <trkpt lat="41.625114" lon="2.095832">
        <ele>526.30</ele>
        <time>1970-01-01T01:25:54Z</time>
      </trkpt>
      <trkpt lat="41.625108" lon="2.095847">
        <ele>526.50</ele>
        <time>1970-01-01T01:25:55Z</time>
      </trkpt>
      <trkpt lat="41.625101" lon="2.095877">
        <ele>526.90</ele>
        <time>1970-01-01T01:25:56Z</time>
      </trkpt>
      <trkpt lat="41.625098" lon="2.095915">
        <ele>527.40</ele>
        <time>1970-01-01T01:25:58Z</time>
      </trkpt>
      <trkpt lat="41.625102" lon="2.095964">
        <ele>528.00</ele>
        <time>1970-01-01T01:25:59Z</time>
      </trkpt>
      <trkpt lat="41.625105" lon="2.095984">
        <ele>528.30</ele>
        <time>1970-01-01T01:26:00Z</time>
      </trkpt>
      <trkpt lat="41.625113" lon="2.096018">
        <ele>528.80</ele>
        <time>1970-01-01T01:26:02Z</time>
      </trkpt>
      <trkpt lat="41.625128" lon="2.096065">
        <ele>529.40</ele>
        <time>1970-01-01T01:26:04Z</time>
      </trkpt>
      <trkpt lat="41.625137" lon="2.096113">
        <ele>530.00</ele>
        <time>1970-01-01T01:26:05Z</time>
      </trkpt>
      <trkpt lat="41.625139" lon="2.096127">
        <ele>530.20</ele>
        <time>1970-01-01T01:26:06Z</time>
      </trkpt>
      <trkpt lat="41.625144" lon="2.096185">
        <ele>530.90</ele>
        <time>1970-01-01T01:26:08Z</time>
      </trkpt>
      <trkpt lat="41.625145" lon="2.096205">
        <ele>531.20</ele>
        <time>1970-01-01T01:26:09Z</time>
      </trkpt>
      <trkpt lat="41.625147" lon="2.096226">
        <ele>531.40</ele>
        <time>1970-01-01T01:26:10Z</time>
      </trkpt>
      <trkpt lat="41.625154" lon="2.096274">
        <ele>532.10</ele>
        <time>1970-01-01T01:26:11Z</time>
      </trkpt>
      <trkpt lat="41.625156" lon="2.096288">
        <ele>532.20</ele>
        <time>1970-01-01T01:26:12Z</time>
      </trkpt>
      <trkpt lat="41.625166" lon="2.096353">
        <ele>533.10</ele>
        <time>1970-01-01T01:26:14Z</time>
      </trkpt>
      <trkpt lat="41.625169" lon="2.096378">
        <ele>533.40</ele>
        <time>1970-01-01T01:26:15Z</time>
      </trkpt>
      <trkpt lat="41.625172" lon="2.096404">
        <ele>533.70</ele>
        <time>1970-01-01T01:26:16Z</time>
      </trkpt>
      <trkpt lat="41.625184" lon="2.096463">
        <ele>534.40</ele>
        <time>1970-01-01T01:26:18Z</time>
      </trkpt>
      <trkpt lat="41.625187" lon="2.096482">
        <ele>534.60</ele>
        <time>1970-01-01T01:26:19Z</time>
      </trkpt>
      <trkpt lat="41.625191" lon="2.096500">
        <ele>534.80</ele>
        <time>1970-01-01T01:26:20Z</time>
      </trkpt>
      <trkpt lat="41.625201" lon="2.096547">
        <ele>535.30</ele>
        <time>1970-01-01T01:26:21Z</time>
      </trkpt>
      <trkpt lat="41.625204" lon="2.096563">
        <ele>535.50</ele>
        <time>1970-01-01T01:26:22Z</time>
      </trkpt>
      <trkpt lat="41.625209" lon="2.096595">
        <ele>535.90</ele>
        <time>1970-01-01T01:26:23Z</time>
      </trkpt>
      <trkpt lat="41.625215" lon="2.096624">
        <ele>536.20</ele>
        <time>1970-01-01T01:26:25Z</time>
      </trkpt>
      <trkpt lat="41.625224" lon="2.096665">
        <ele>536.70</ele>
        <time>1970-01-01T01:26:26Z</time>
      </trkpt>
      <trkpt lat="41.625227" lon="2.096676">
        <ele>536.80</ele>
        <time>1970-01-01T01:26:27Z</time>
      </trkpt>
      <trkpt lat="41.625238" lon="2.096736">
        <ele>537.40</ele>
        <time>1970-01-01T01:26:29Z</time>
      </trkpt>
      <trkpt lat="41.625240" lon="2.096757">
        <ele>537.60</ele>
        <time>1970-01-01T01:26:30Z</time>
      </trkpt>
      <trkpt lat="41.625242" lon="2.096777">
        <ele>537.80</ele>
        <time>1970-01-01T01:26:31Z</time>
      </trkpt>
      <trkpt lat="41.625248" lon="2.096823">
        <ele>538.30</ele>
        <time>1970-01-01T01:26:33Z</time>
      </trkpt>
      <trkpt lat="41.625258" lon="2.096862">
        <ele>538.70</ele>
        <time>1970-01-01T01:26:34Z</time>
      </trkpt>
      <trkpt lat="41.625271" lon="2.096911">
        <ele>539.30</ele>
        <time>1970-01-01T01:26:36Z</time>
      </trkpt>
      <trkpt lat="41.625273" lon="2.096928">
        <ele>539.50</ele>
        <time>1970-01-01T01:26:37Z</time>
      </trkpt>
      <trkpt lat="41.625281" lon="2.096974">
        <ele>539.90</ele>
        <time>1970-01-01T01:26:38Z</time>
      </trkpt>
      <trkpt lat="41.625283" lon="2.096989">
        <ele>540.10</ele>
        <time>1970-01-01T01:26:39Z</time>
      </trkpt>
      <trkpt lat="41.625289" lon="2.097016">
        <ele>540.40</ele>
        <time>1970-01-01T01:26:40Z</time>
      </trkpt>
      <trkpt lat="41.625290" lon="2.097058">
        <ele>540.90</ele>
        <time>1970-01-01T01:26:42Z</time>
      </trkpt>
      <trkpt lat="41.625296" lon="2.097102">
        <ele>541.30</ele>
        <time>1970-01-01T01:26:43Z</time>
      </trkpt>
      <trkpt lat="41.625299" lon="2.097114">
        <ele>541.50</ele>
        <time>1970-01-01T01:26:44Z</time>
      </trkpt>
      <trkpt lat="41.625312" lon="2.097161">
        <ele>542.10</ele>
        <time>1970-01-01T01:26:46Z</time>
      </trkpt>
      <trkpt lat="41.625332" lon="2.097181">
        <ele>542.50</ele>
        <time>1970-01-01T01:26:47Z</time>
      </trkpt>
      <trkpt lat="41.625356" lon="2.097191">
        <ele>542.80</ele>
        <time>1970-01-01T01:26:49Z</time>
      </trkpt>
      <trkpt lat="41.625389" lon="2.097182">
        <ele>543.40</ele>
        <time>1970-01-01T01:26:50Z</time>
      </trkpt>
      <trkpt lat="41.625401" lon="2.097176">
        <ele>543.60</ele>
        <time>1970-01-01T01:26:51Z</time>
      </trkpt>
      <trkpt lat="41.625429" lon="2.097147">
        <ele>544.10</ele>
        <time>1970-01-01T01:26:52Z</time>
      </trkpt>
      <trkpt lat="41.625436" lon="2.097135">
        <ele>544.30</ele>
        <time>1970-01-01T01:26:53Z</time>
      </trkpt>
      <trkpt lat="41.625447" lon="2.097112">
        <ele>544.60</ele>
        <time>1970-01-01T01:26:54Z</time>
      </trkpt>
      <trkpt lat="41.625463" lon="2.097071">
        <ele>545.40</ele>
        <time>1970-01-01T01:26:56Z</time>
      </trkpt>
      <trkpt lat="41.625481" lon="2.097029">
        <ele>546.10</ele>
        <time>1970-01-01T01:26:57Z</time>
      </trkpt>
      <trkpt lat="41.625486" lon="2.097017">
        <ele>546.30</ele>
        <time>1970-01-01T01:26:58Z</time>
      </trkpt>
      <trkpt lat="41.625497" lon="2.096994">
        <ele>546.70</ele>
        <time>1970-01-01T01:26:59Z</time>
      </trkpt>
      <trkpt lat="41.625510" lon="2.096962">
        <ele>547.20</ele>
        <time>1970-01-01T01:27:01Z</time>
      </trkpt>
      <trkpt lat="41.625520" lon="2.096937">
        <ele>547.60</ele>
        <time>1970-01-01T01:27:02Z</time>
      </trkpt>
      <trkpt lat="41.625534" lon="2.096908">
        <ele>548.10</ele>
        <time>1970-01-01T01:27:04Z</time>
      </trkpt>
      <trkpt lat="41.625552" lon="2.096870">
        <ele>548.70</ele>
        <time>1970-01-01T01:27:05Z</time>
      </trkpt>
      <trkpt lat="41.625555" lon="2.096860">
        <ele>548.90</ele>
        <time>1970-01-01T01:27:06Z</time>
      </trkpt>
      <trkpt lat="41.625570" lon="2.096826">
        <ele>549.50</ele>
        <time>1970-01-01T01:27:07Z</time>
      </trkpt>
      <trkpt lat="41.625575" lon="2.096814">
        <ele>549.70</ele>
        <time>1970-01-01T01:27:08Z</time>
      </trkpt>
      <trkpt lat="41.625591" lon="2.096787">
        <ele>550.20</ele>
        <time>1970-01-01T01:27:09Z</time>
      </trkpt>
      <trkpt lat="41.625613" lon="2.096761">
        <ele>550.80</ele>
        <time>1970-01-01T01:27:11Z</time>
      </trkpt>
      <trkpt lat="41.625638" lon="2.096727">
        <ele>551.50</ele>
        <time>1970-01-01T01:27:12Z</time>
      </trkpt>
      <trkpt lat="41.625647" lon="2.096714">
        <ele>551.70</ele>
        <time>1970-01-01T01:27:13Z</time>
      </trkpt>
      <trkpt lat="41.625681" lon="2.096696">
        <ele>552.50</ele>
        <time>1970-01-01T01:27:15Z</time>
      </trkpt>
      <trkpt lat="41.625692" lon="2.096691">
        <ele>552.70</ele>
        <time>1970-01-01T01:27:16Z</time>
      </trkpt>
      <trkpt lat="41.625726" lon="2.096689">
        <ele>553.40</ele>
        <time>1970-01-01T01:27:17Z</time>
      </trkpt>
      <trkpt lat="41.625734" lon="2.096692">
        <ele>553.50</ele>
        <time>1970-01-01T01:27:18Z</time>
      </trkpt>
      <trkpt lat="41.625766" lon="2.096725">
        <ele>554.20</ele>
        <time>1970-01-01T01:27:20Z</time>
      </trkpt>
      <trkpt lat="41.625775" lon="2.096739">
        <ele>554.40</ele>
        <time>1970-01-01T01:27:21Z</time>
      </trkpt>
      <trkpt lat="41.625784" lon="2.096752">
        <ele>554.70</ele>
        <time>1970-01-01T01:27:22Z</time>
      </trkpt>
      <trkpt lat="41.625803" lon="2.096774">
        <ele>555.10</ele>
        <time>1970-01-01T01:27:23Z</time>
      </trkpt>
      <trkpt lat="41.625827" lon="2.096801">
        <ele>555.60</ele>
        <time>1970-01-01T01:27:25Z</time>
      </trkpt>
      <trkpt lat="41.625849" lon="2.096825">
        <ele>556.10</ele>
        <time>1970-01-01T01:27:26Z</time>
      </trkpt>
      <trkpt lat="41.625877" lon="2.096857">
        <ele>556.60</ele>
        <time>1970-01-01T01:27:27Z</time>
      </trkpt>
      <trkpt lat="41.625886" lon="2.096869">
        <ele>556.80</ele>
        <time>1970-01-01T01:27:28Z</time>
      </trkpt>
      <trkpt lat="41.625903" lon="2.096890">
        <ele>557.20</ele>
        <time>1970-01-01T01:27:29Z</time>
      </trkpt>
      <trkpt lat="41.625932" lon="2.096921">
        <ele>557.80</ele>
        <time>1970-01-01T01:27:31Z</time>
      </trkpt>
      <trkpt lat="41.625962" lon="2.096951">
        <ele>558.40</ele>
        <time>1970-01-01T01:27:32Z</time>
      </trkpt>
      <trkpt lat="41.625989" lon="2.096980">
        <ele>558.90</ele>
        <time>1970-01-01T01:27:34Z</time>
      </trkpt>
      <trkpt lat="41.625998" lon="2.096990">
        <ele>559.10</ele>
        <time>1970-01-01T01:27:35Z</time>
      </trkpt>
      <trkpt lat="41.626014" lon="2.097005">
        <ele>559.40</ele>
        <time>1970-01-01T01:27:36Z</time>
      </trkpt>
      <trkpt lat="41.626028" lon="2.097019">
        <ele>559.60</ele>
        <time>1970-01-01T01:27:37Z</time>
      </trkpt>
      <trkpt lat="41.626050" lon="2.097039">
        <ele>560.00</ele>
        <time>1970-01-01T01:27:38Z</time>
      </trkpt>
      <trkpt lat="41.626067" lon="2.097060">
        <ele>560.40</ele>
        <time>1970-01-01T01:27:40Z</time>
      </trkpt>
      <trkpt lat="41.626083" lon="2.097078">
        <ele>560.70</ele>
        <time>1970-01-01T01:27:41Z</time>
      </trkpt>
      <trkpt lat="41.626096" lon="2.097098">
        <ele>561.00</ele>
        <time>1970-01-01T01:27:43Z</time>
      </trkpt>
      <trkpt lat="41.626114" lon="2.097137">
        <ele>561.40</ele>
        <time>1970-01-01T01:27:44Z</time>
      </trkpt>
      <trkpt lat="41.626118" lon="2.097152">
        <ele>561.60</ele>
        <time>1970-01-01T01:27:45Z</time>
      </trkpt>
      <trkpt lat="41.626123" lon="2.097180">
        <ele>561.90</ele>
        <time>1970-01-01T01:27:46Z</time>
      </trkpt>
      <trkpt lat="41.626124" lon="2.097211">
        <ele>562.20</ele>
        <time>1970-01-01T01:27:48Z</time>
      </trkpt>
      <trkpt lat="41.626120" lon="2.097264">
        <ele>562.60</ele>
        <time>1970-01-01T01:27:49Z</time>
      </trkpt>
      <trkpt lat="41.626116" lon="2.097283">
        <ele>562.80</ele>
        <time>1970-01-01T01:27:50Z</time>
      </trkpt>
      <trkpt lat="41.626109" lon="2.097334">
        <ele>563.30</ele>
        <time>1970-01-01T01:27:52Z</time>
      </trkpt>
      <trkpt lat="41.626107" lon="2.097354">
        <ele>563.50</ele>
        <time>1970-01-01T01:27:53Z</time>
      </trkpt>
      <trkpt lat="41.626105" lon="2.097390">
        <ele>563.80</ele>
        <time>1970-01-01T01:27:54Z</time>
      </trkpt>
      <trkpt lat="41.626103" lon="2.097439">
        <ele>564.20</ele>
        <time>1970-01-01T01:27:56Z</time>
      </trkpt>
      <trkpt lat="41.626098" lon="2.097472">
        <ele>564.50</ele>
        <time>1970-01-01T01:27:57Z</time>
      </trkpt>
      <trkpt lat="41.626085" lon="2.097528">
        <ele>565.10</ele>
        <time>1970-01-01T01:27:59Z</time>
      </trkpt>
      <trkpt lat="41.626077" lon="2.097567">
        <ele>565.50</ele>
        <time>1970-01-01T01:28:00Z</time>
      </trkpt>
      <trkpt lat="41.626064" lon="2.097616">
        <ele>566.00</ele>
        <time>1970-01-01T01:28:02Z</time>
      </trkpt>
      <trkpt lat="41.626060" lon="2.097654">
        <ele>566.40</ele>
        <time>1970-01-01T01:28:03Z</time>
      </trkpt>
      <trkpt lat="41.626066" lon="2.097707">
        <ele>567.80</ele>
        <time>1970-01-01T01:28:05Z</time>
      </trkpt>
      <trkpt lat="41.626078" lon="2.097748">
        <ele>568.40</ele>
        <time>1970-01-01T01:28:06Z</time>
      </trkpt>
      <trkpt lat="41.626081" lon="2.097761">
        <ele>568.60</ele>
        <time>1970-01-01T01:28:07Z</time>
      </trkpt>
      <trkpt lat="41.626098" lon="2.097805">
        <ele>569.30</ele>
        <time>1970-01-01T01:28:09Z</time>
      </trkpt>
      <trkpt lat="41.626120" lon="2.097844">
        <ele>570.10</ele>
        <time>1970-01-01T01:28:11Z</time>
      </trkpt>
      <trkpt lat="41.626141" lon="2.097872">
        <ele>570.70</ele>
        <time>1970-01-01T01:28:12Z</time>
      </trkpt>
      <trkpt lat="41.626166" lon="2.097900">
        <ele>571.40</ele>
        <time>1970-01-01T01:28:14Z</time>
      </trkpt>
      <trkpt lat="41.626184" lon="2.097923">
        <ele>571.90</ele>
        <time>1970-01-01T01:28:15Z</time>
      </trkpt>
      <trkpt lat="41.626197" lon="2.097944">
        <ele>572.30</ele>
        <time>1970-01-01T01:28:17Z</time>
      </trkpt>
      <trkpt lat="41.626207" lon="2.097962">
        <ele>572.60</ele>
        <time>1970-01-01T01:28:18Z</time>
      </trkpt>
      <trkpt lat="41.626216" lon="2.097978">
        <ele>572.90</ele>
        <time>1970-01-01T01:28:19Z</time>
      </trkpt>
      <trkpt lat="41.626233" lon="2.098001">
        <ele>573.40</ele>
        <time>1970-01-01T01:28:20Z</time>
      </trkpt>
      <trkpt lat="41.626248" lon="2.098020">
        <ele>573.90</ele>
        <time>1970-01-01T01:28:22Z</time>
      </trkpt>
      <trkpt lat="41.626272" lon="2.098053">
        <ele>574.60</ele>
        <time>1970-01-01T01:28:23Z</time>
      </trkpt>
      <trkpt lat="41.626279" lon="2.098061">
        <ele>574.70</ele>
        <time>1970-01-01T01:28:24Z</time>
      </trkpt>
      <trkpt lat="41.626304" lon="2.098092">
        <ele>575.40</ele>
        <time>1970-01-01T01:28:26Z</time>
      </trkpt>
      <trkpt lat="41.626313" lon="2.098103">
        <ele>575.70</ele>
        <time>1970-01-01T01:28:27Z</time>
      </trkpt>
      <trkpt lat="41.626336" lon="2.098129">
        <ele>576.30</ele>
        <time>1970-01-01T01:28:28Z</time>
      </trkpt>
      <trkpt lat="41.626356" lon="2.098157">
        <ele>576.90</ele>
        <time>1970-01-01T01:28:30Z</time>
      </trkpt>
      <trkpt lat="41.626370" lon="2.098175">
        <ele>577.30</ele>
        <time>1970-01-01T01:28:31Z</time>
      </trkpt>
      <trkpt lat="41.626383" lon="2.098191">
        <ele>577.70</ele>
        <time>1970-01-01T01:28:32Z</time>
      </trkpt>
      <trkpt lat="41.626393" lon="2.098208">
        <ele>578.00</ele>
        <time>1970-01-01T01:28:34Z</time>
      </trkpt>
      <trkpt lat="41.626409" lon="2.098223">
        <ele>578.40</ele>
        <time>1970-01-01T01:28:35Z</time>
      </trkpt>
      <trkpt lat="41.626420" lon="2.098234">
        <ele>578.70</ele>
        <time>1970-01-01T01:28:36Z</time>
      </trkpt>
      <trkpt lat="41.626445" lon="2.098254">
        <ele>579.30</ele>
        <time>1970-01-01T01:28:38Z</time>
      </trkpt>
      <trkpt lat="41.626468" lon="2.098278">
        <ele>579.90</ele>
        <time>1970-01-01T01:28:39Z</time>
      </trkpt>
      <trkpt lat="41.626475" lon="2.098287">
        <ele>580.10</ele>
        <time>1970-01-01T01:28:40Z</time>
      </trkpt>
      <trkpt lat="41.626489" lon="2.098305">
        <ele>580.40</ele>
        <time>1970-01-01T01:28:41Z</time>
      </trkpt>
      <trkpt lat="41.626499" lon="2.098322">
        <ele>580.80</ele>
        <time>1970-01-01T01:28:42Z</time>
      </trkpt>
      <trkpt lat="41.626510" lon="2.098340">
        <ele>581.10</ele>
        <time>1970-01-01T01:28:43Z</time>
      </trkpt>
      <trkpt lat="41.626531" lon="2.098367">
        <ele>581.70</ele>
        <time>1970-01-01T01:28:45Z</time>
      </trkpt>
      <trkpt lat="41.626542" lon="2.098388">
        <ele>582.10</ele>
        <time>1970-01-01T01:28:46Z</time>
      </trkpt>
      <trkpt lat="41.626557" lon="2.098412">
        <ele>582.50</ele>
        <time>1970-01-01T01:28:48Z</time>
      </trkpt>
      <trkpt lat="41.626574" lon="2.098441">
        <ele>583.10</ele>
        <time>1970-01-01T01:28:49Z</time>
      </trkpt>
      <trkpt lat="41.626580" lon="2.098450">
        <ele>583.30</ele>
        <time>1970-01-01T01:28:50Z</time>
      </trkpt>
      <trkpt lat="41.626597" lon="2.098479">
        <ele>583.80</ele>
        <time>1970-01-01T01:28:51Z</time>
      </trkpt>
      <trkpt lat="41.626603" lon="2.098490">
        <ele>584.00</ele>
        <time>1970-01-01T01:28:52Z</time>
      </trkpt>
      <trkpt lat="41.626617" lon="2.098512">
        <ele>584.50</ele>
        <time>1970-01-01T01:28:53Z</time>
      </trkpt>
      <trkpt lat="41.626631" lon="2.098534">
        <ele>584.90</ele>
        <time>1970-01-01T01:28:55Z</time>
      </trkpt>
      <trkpt lat="41.626641" lon="2.098555">
        <ele>585.20</ele>
        <time>1970-01-01T01:28:56Z</time>
      </trkpt>
      <trkpt lat="41.626652" lon="2.098574">
        <ele>585.60</ele>
        <time>1970-01-01T01:28:57Z</time>
      </trkpt>
      <trkpt lat="41.626673" lon="2.098608">
        <ele>586.20</ele>
        <time>1970-01-01T01:28:58Z</time>
      </trkpt>
      <trkpt lat="41.626681" lon="2.098621">
        <ele>586.50</ele>
        <time>1970-01-01T01:28:59Z</time>
      </trkpt>
      <trkpt lat="41.626705" lon="2.098656">
        <ele>587.20</ele>
        <time>1970-01-01T01:29:01Z</time>
      </trkpt>
      <trkpt lat="41.626715" lon="2.098676">
        <ele>587.50</ele>
        <time>1970-01-01T01:29:02Z</time>
      </trkpt>
      <trkpt lat="41.626723" lon="2.098697">
        <ele>587.80</ele>
        <time>1970-01-01T01:29:03Z</time>
      </trkpt>
      <trkpt lat="41.626730" lon="2.098717">
        <ele>588.10</ele>
        <time>1970-01-01T01:29:04Z</time>
      </trkpt>
      <trkpt lat="41.626743" lon="2.098756">
        <ele>588.70</ele>
        <time>1970-01-01T01:29:06Z</time>
      </trkpt>
      <trkpt lat="41.626757" lon="2.098795">
        <ele>589.20</ele>
        <time>1970-01-01T01:29:07Z</time>
      </trkpt>
      <trkpt lat="41.626761" lon="2.098805">
        <ele>589.30</ele>
        <time>1970-01-01T01:29:08Z</time>
      </trkpt>
      <trkpt lat="41.626772" lon="2.098826">
        <ele>589.70</ele>
        <time>1970-01-01T01:29:10Z</time>
      </trkpt>
      <trkpt lat="41.626786" lon="2.098857">
        <ele>590.10</ele>
        <time>1970-01-01T01:29:12Z</time>
      </trkpt>
      <trkpt lat="41.626808" lon="2.098891">
        <ele>590.60</ele>
        <time>1970-01-01T01:29:13Z</time>
      </trkpt>
      <trkpt lat="41.626815" lon="2.098900">
        <ele>590.80</ele>
        <time>1970-01-01T01:29:14Z</time>
      </trkpt>
      <trkpt lat="41.626839" lon="2.098932">
        <ele>591.30</ele>
        <time>1970-01-01T01:29:15Z</time>
      </trkpt>
      <trkpt lat="41.626847" lon="2.098945">
        <ele>591.50</ele>
        <time>1970-01-01T01:29:16Z</time>
      </trkpt>
      <trkpt lat="41.626871" lon="2.098984">
        <ele>592.10</ele>
        <time>1970-01-01T01:29:18Z</time>
      </trkpt>
      <trkpt lat="41.626879" lon="2.098998">
        <ele>592.30</ele>
        <time>1970-01-01T01:29:19Z</time>
      </trkpt>
      <trkpt lat="41.626897" lon="2.099030">
        <ele>592.70</ele>
        <time>1970-01-01T01:29:20Z</time>
      </trkpt>
      <trkpt lat="41.626902" lon="2.099041">
        <ele>592.90</ele>
        <time>1970-01-01T01:29:21Z</time>
      </trkpt>
      <trkpt lat="41.626918" lon="2.099078">
        <ele>593.40</ele>
        <time>1970-01-01T01:29:22Z</time>
      </trkpt>
      <trkpt lat="41.626924" lon="2.099090">
        <ele>593.50</ele>
        <time>1970-01-01T01:29:23Z</time>
      </trkpt>
      <trkpt lat="41.626936" lon="2.099112">
        <ele>593.80</ele>
        <time>1970-01-01T01:29:24Z</time>
      </trkpt>
      <trkpt lat="41.626945" lon="2.099130">
        <ele>594.10</ele>
        <time>1970-01-01T01:29:26Z</time>
      </trkpt>
      <trkpt lat="41.626953" lon="2.099148">
        <ele>594.30</ele>
        <time>1970-01-01T01:29:27Z</time>
      </trkpt>
      <trkpt lat="41.626962" lon="2.099170">
        <ele>594.60</ele>
        <time>1970-01-01T01:29:28Z</time>
      </trkpt>
      <trkpt lat="41.626983" lon="2.099208">
        <ele>595.10</ele>
        <time>1970-01-01T01:29:30Z</time>
      </trkpt>
      <trkpt lat="41.626998" lon="2.099233">
        <ele>595.40</ele>
        <time>1970-01-01T01:29:31Z</time>
      </trkpt>
      <trkpt lat="41.627018" lon="2.099267">
        <ele>595.80</ele>
        <time>1970-01-01T01:29:33Z</time>
      </trkpt>
      <trkpt lat="41.627031" lon="2.099291">
        <ele>596.10</ele>
        <time>1970-01-01T01:29:34Z</time>
      </trkpt>
      <trkpt lat="41.627054" lon="2.099336">
        <ele>596.70</ele>
        <time>1970-01-01T01:29:36Z</time>
      </trkpt>
      <trkpt lat="41.627076" lon="2.099371">
        <ele>597.20</ele>
        <time>1970-01-01T01:29:37Z</time>
      </trkpt>
      <trkpt lat="41.627083" lon="2.099382">
        <ele>597.40</ele>
        <time>1970-01-01T01:29:38Z</time>
      </trkpt>
      <trkpt lat="41.627096" lon="2.099403">
        <ele>597.70</ele>
        <time>1970-01-01T01:29:39Z</time>
      </trkpt>
      <trkpt lat="41.627111" lon="2.099444">
        <ele>598.20</ele>
        <time>1970-01-01T01:29:41Z</time>
      </trkpt>
      <trkpt lat="41.627123" lon="2.099484">
        <ele>598.70</ele>
        <time>1970-01-01T01:29:42Z</time>
      </trkpt>
      <trkpt lat="41.627126" lon="2.099496">
        <ele>598.90</ele>
        <time>1970-01-01T01:29:43Z</time>
      </trkpt>
      <trkpt lat="41.627129" lon="2.099518">
        <ele>599.10</ele>
        <time>1970-01-01T01:29:44Z</time>
      </trkpt>
      <trkpt lat="41.627132" lon="2.099541">
        <ele>599.40</ele>
        <time>1970-01-01T01:29:45Z</time>
      </trkpt>
      <trkpt lat="41.627138" lon="2.099578">
        <ele>599.90</ele>
        <time>1970-01-01T01:29:46Z</time>
      </trkpt>
      <trkpt lat="41.627140" lon="2.099591">
        <ele>600.00</ele>
        <time>1970-01-01T01:29:47Z</time>
      </trkpt>
      <trkpt lat="41.627148" lon="2.099628">
        <ele>600.40</ele>
        <time>1970-01-01T01:29:48Z</time>
      </trkpt>
      <trkpt lat="41.627151" lon="2.099641">
        <ele>600.60</ele>
        <time>1970-01-01T01:29:49Z</time>
      </trkpt>
      <trkpt lat="41.627169" lon="2.099686">
        <ele>601.10</ele>
        <time>1970-01-01T01:29:51Z</time>
      </trkpt>
      <trkpt lat="41.627177" lon="2.099701">
        <ele>601.30</ele>
        <time>1970-01-01T01:29:52Z</time>
      </trkpt>
      <trkpt lat="41.627192" lon="2.099731">
        <ele>601.60</ele>
        <time>1970-01-01T01:29:54Z</time>
      </trkpt>
      <trkpt lat="41.627196" lon="2.099743">
        <ele>601.70</ele>
        <time>1970-01-01T01:29:55Z</time>
      </trkpt>
      <trkpt lat="41.627213" lon="2.099766">
        <ele>601.90</ele>
        <time>1970-01-01T01:29:56Z</time>
      </trkpt>
      <trkpt lat="41.627237" lon="2.099794">
        <ele>602.20</ele>
        <time>1970-01-01T01:29:58Z</time>
      </trkpt>
      <trkpt lat="41.627260" lon="2.099815">
        <ele>602.40</ele>
        <time>1970-01-01T01:29:59Z</time>
      </trkpt>
      <trkpt lat="41.627300" lon="2.099855">
        <ele>602.80</ele>
        <time>1970-01-01T01:30:01Z</time>
      </trkpt>
      <trkpt lat="41.627330" lon="2.099887">
        <ele>603.00</ele>
        <time>1970-01-01T01:30:02Z</time>
      </trkpt>
      <trkpt lat="41.627363" lon="2.099919">
        <ele>603.20</ele>
        <time>1970-01-01T01:30:04Z</time>
      </trkpt>
      <trkpt lat="41.627387" lon="2.099939">
        <ele>603.40</ele>
        <time>1970-01-01T01:30:05Z</time>
      </trkpt>
      <trkpt lat="41.627414" lon="2.099964">
        <ele>603.60</ele>
        <time>1970-01-01T01:30:06Z</time>
      </trkpt>
      <trkpt lat="41.627445" lon="2.099993">
        <ele>603.80</ele>
        <time>1970-01-01T01:30:08Z</time>
      </trkpt>
      <trkpt lat="41.627467" lon="2.100017">
        <ele>603.90</ele>
        <time>1970-01-01T01:30:09Z</time>
      </trkpt>
      <trkpt lat="41.627505" lon="2.100052">
        <ele>604.20</ele>
        <time>1970-01-01T01:30:11Z</time>
      </trkpt>
      <trkpt lat="41.627521" lon="2.100067">
        <ele>604.30</ele>
        <time>1970-01-01T01:30:12Z</time>
      </trkpt>
      <trkpt lat="41.627545" lon="2.100083">
        <ele>604.50</ele>
        <time>1970-01-01T01:30:14Z</time>
      </trkpt>
      <trkpt lat="41.627558" lon="2.100090">
        <ele>604.60</ele>
        <time>1970-01-01T01:30:15Z</time>
      </trkpt>
      <trkpt lat="41.627569" lon="2.100103">
        <ele>604.70</ele>
        <time>1970-01-01T01:30:16Z</time>
      </trkpt>
      <trkpt lat="41.627573" lon="2.100118">
        <ele>604.80</ele>
        <time>1970-01-01T01:30:18Z</time>
      </trkpt>
      <trkpt lat="41.627578" lon="2.100130">
        <ele>604.90</ele>
        <time>1970-01-01T01:30:19Z</time>
      </trkpt>
      <trkpt lat="41.627573" lon="2.100126">
        <ele>604.90</ele>
        <time>1970-01-01T01:30:20Z</time>
      </trkpt>
      <trkpt lat="41.627568" lon="2.100124">
        <ele>605.00</ele>
        <time>1970-01-01T01:30:22Z</time>
      </trkpt>
      <trkpt lat="41.627566" lon="2.100122">
        <ele>605.00</ele>
        <time>1970-01-01T01:30:23Z</time>
      </trkpt>
      <trkpt lat="41.627564" lon="2.100120">
        <ele>605.00</ele>
        <time>1970-01-01T01:30:25Z</time>
      </trkpt>
      <trkpt lat="41.627564" lon="2.100117">
        <ele>605.10</ele>
        <time>1970-01-01T01:30:27Z</time>
      </trkpt>
      <trkpt lat="41.627564" lon="2.100117">
        <ele>605.10</ele>
        <time>1970-01-01T01:30:28Z</time>
      </trkpt>
      <trkpt lat="41.627564" lon="2.100117">
        <ele>605.10</ele>
        <time>1970-01-01T01:30:29Z</time>
      </trkpt>
      <trkpt lat="41.627564" lon="2.100117">
        <ele>605.10</ele>
        <time>1970-01-01T01:30:30Z</time>
      </trkpt>
      <trkpt lat="41.627565" lon="2.100116">
        <ele>605.10</ele>
        <time>1970-01-01T01:30:32Z</time>
      </trkpt>
      <trkpt lat="41.627565" lon="2.100116">
        <ele>605.10</ele>
        <time>1970-01-01T01:30:33Z</time>
      </trkpt>
      <trkpt lat="41.627565" lon="2.100118">
        <ele>605.10</ele>
        <time>1970-01-01T01:30:35Z</time>
      </trkpt>
      <trkpt lat="41.627565" lon="2.100120">
        <ele>605.10</ele>
        <time>1970-01-01T01:30:37Z</time>
      </trkpt>
      <trkpt lat="41.627565" lon="2.100121">
        <ele>605.10</ele>
        <time>1970-01-01T01:30:38Z</time>
      </trkpt>
      <trkpt lat="41.627564" lon="2.100120">
        <ele>605.10</ele>
        <time>1970-01-01T01:30:39Z</time>
      </trkpt>
      <trkpt lat="41.627563" lon="2.100120">
        <ele>605.10</ele>
        <time>1970-01-01T01:30:41Z</time>
      </trkpt>
      <trkpt lat="41.627563" lon="2.100120">
        <ele>605.10</ele>
        <time>1970-01-01T01:30:42Z</time>
      </trkpt>
      <trkpt lat="41.627563" lon="2.100120">
        <ele>605.10</ele>
        <time>1970-01-01T01:30:44Z</time>
      </trkpt>
      <trkpt lat="41.627561" lon="2.100125">
        <ele>605.20</ele>
        <time>1970-01-01T01:30:46Z</time>
      </trkpt>
      <trkpt lat="41.627559" lon="2.100130">
        <ele>605.20</ele>
        <time>1970-01-01T01:30:48Z</time>
      </trkpt>
      <trkpt lat="41.627559" lon="2.100131">
        <ele>605.20</ele>
        <time>1970-01-01T01:30:49Z</time>
      </trkpt>
      <trkpt lat="41.627558" lon="2.100130">
        <ele>605.20</ele>
        <time>1970-01-01T01:30:50Z</time>
      </trkpt>
      <trkpt lat="41.627557" lon="2.100127">
        <ele>605.20</ele>
        <time>1970-01-01T01:30:52Z</time>
      </trkpt>
      <trkpt lat="41.627561" lon="2.100126">
        <ele>605.30</ele>
        <time>1970-01-01T01:30:54Z</time>
      </trkpt>
      <trkpt lat="41.627566" lon="2.100127">
        <ele>605.30</ele>
        <time>1970-01-01T01:30:55Z</time>
      </trkpt>
      <trkpt lat="41.627577" lon="2.100118">
        <ele>605.40</ele>
        <time>1970-01-01T01:30:57Z</time>
      </trkpt>
      <trkpt lat="41.627593" lon="2.100109">
        <ele>605.60</ele>
        <time>1970-01-01T01:30:58Z</time>
      </trkpt>
      <trkpt lat="41.627624" lon="2.100104">
        <ele>605.90</ele>
        <time>1970-01-01T01:31:00Z</time>
      </trkpt>
      <trkpt lat="41.627646" lon="2.100095">
        <ele>606.10</ele>
        <time>1970-01-01T01:31:01Z</time>
      </trkpt>
      <trkpt lat="41.627666" lon="2.100085">
        <ele>606.30</ele>
        <time>1970-01-01T01:31:03Z</time>
      </trkpt>
      <trkpt lat="41.627697" lon="2.100067">
        <ele>606.60</ele>
        <time>1970-01-01T01:31:04Z</time>
      </trkpt>
      <trkpt lat="41.627708" lon="2.100058">
        <ele>606.70</ele>
        <time>1970-01-01T01:31:05Z</time>
      </trkpt>
      <trkpt lat="41.627731" lon="2.100038">
        <ele>607.00</ele>
        <time>1970-01-01T01:31:06Z</time>
      </trkpt>
      <trkpt lat="41.627769" lon="2.100041">
        <ele>607.40</ele>
        <time>1970-01-01T01:31:08Z</time>
      </trkpt>
      <trkpt lat="41.627802" lon="2.100059">
        <ele>607.70</ele>
        <time>1970-01-01T01:31:09Z</time>
      </trkpt>
      <trkpt lat="41.627833" lon="2.100091">
        <ele>608.20</ele>
        <time>1970-01-01T01:31:10Z</time>
      </trkpt>
      <trkpt lat="41.627842" lon="2.100103">
        <ele>608.30</ele>
        <time>1970-01-01T01:31:11Z</time>
      </trkpt>
      <trkpt lat="41.627858" lon="2.100127">
        <ele>608.60</ele>
        <time>1970-01-01T01:31:12Z</time>
      </trkpt>
      <trkpt lat="41.627873" lon="2.100162">
        <ele>609.00</ele>
        <time>1970-01-01T01:31:14Z</time>
      </trkpt>
      <trkpt lat="41.627889" lon="2.100194">
        <ele>609.40</ele>
        <time>1970-01-01T01:31:15Z</time>
      </trkpt>
      <trkpt lat="41.627911" lon="2.100240">
        <ele>609.90</ele>
        <time>1970-01-01T01:31:17Z</time>
      </trkpt>
      <trkpt lat="41.627932" lon="2.100263">
        <ele>610.30</ele>
        <time>1970-01-01T01:31:18Z</time>
      </trkpt>
      <trkpt lat="41.627953" lon="2.100287">
        <ele>610.70</ele>
        <time>1970-01-01T01:31:19Z</time>
      </trkpt>
      <trkpt lat="41.627977" lon="2.100339">
        <ele>611.30</ele>
        <time>1970-01-01T01:31:21Z</time>
      </trkpt>
      <trkpt lat="41.627983" lon="2.100358">
        <ele>611.50</ele>
        <time>1970-01-01T01:31:22Z</time>
      </trkpt>
      <trkpt lat="41.627990" lon="2.100378">
        <ele>611.80</ele>
        <time>1970-01-01T01:31:23Z</time>
      </trkpt>
      <trkpt lat="41.627993" lon="2.100412">
        <ele>612.10</ele>
        <time>1970-01-01T01:31:24Z</time>
      </trkpt>
      <trkpt lat="41.628009" lon="2.100440">
        <ele>612.50</ele>
        <time>1970-01-01T01:31:26Z</time>
      </trkpt>
      <trkpt lat="41.628034" lon="2.100472">
        <ele>613.00</ele>
        <time>1970-01-01T01:31:27Z</time>
      </trkpt>
      <trkpt lat="41.628041" lon="2.100478">
        <ele>613.10</ele>
        <time>1970-01-01T01:31:28Z</time>
      </trkpt>
      <trkpt lat="41.628063" lon="2.100499">
        <ele>613.50</ele>
        <time>1970-01-01T01:31:30Z</time>
      </trkpt>
      <trkpt lat="41.628075" lon="2.100516">
        <ele>613.70</ele>
        <time>1970-01-01T01:31:31Z</time>
      </trkpt>
      <trkpt lat="41.628087" lon="2.100536">
        <ele>613.90</ele>
        <time>1970-01-01T01:31:32Z</time>
      </trkpt>
      <trkpt lat="41.628092" lon="2.100564">
        <ele>614.20</ele>
        <time>1970-01-01T01:31:33Z</time>
      </trkpt>
      <trkpt lat="41.628090" lon="2.100575">
        <ele>614.30</ele>
        <time>1970-01-01T01:31:35Z</time>
      </trkpt>
      <trkpt lat="41.628091" lon="2.100571">
        <ele>614.40</ele>
        <time>1970-01-01T01:31:36Z</time>
      </trkpt>
      <trkpt lat="41.628084" lon="2.100566">
        <ele>614.40</ele>
        <time>1970-01-01T01:31:37Z</time>
      </trkpt>
      <trkpt lat="41.628079" lon="2.100566">
        <ele>614.50</ele>
        <time>1970-01-01T01:31:39Z</time>
      </trkpt>
      <trkpt lat="41.628078" lon="2.100566">
        <ele>614.50</ele>
        <time>1970-01-01T01:31:40Z</time>
      </trkpt>
      <trkpt lat="41.628077" lon="2.100565">
        <ele>614.50</ele>
        <time>1970-01-01T01:31:41Z</time>
      </trkpt>
      <trkpt lat="41.628077" lon="2.100565">
        <ele>614.50</ele>
        <time>1970-01-01T01:31:42Z</time>
      </trkpt>
      <trkpt lat="41.628076" lon="2.100563">
        <ele>614.60</ele>
        <time>1970-01-01T01:31:44Z</time>
      </trkpt>
      <trkpt lat="41.628076" lon="2.100559">
        <ele>614.60</ele>
        <time>1970-01-01T01:31:46Z</time>
      </trkpt>
      <trkpt lat="41.628078" lon="2.100551">
        <ele>614.70</ele>
        <time>1970-01-01T01:31:48Z</time>
      </trkpt>
      <trkpt lat="41.628091" lon="2.100558">
        <ele>614.80</ele>
        <time>1970-01-01T01:31:50Z</time>
      </trkpt>
      <trkpt lat="41.628099" lon="2.100568">
        <ele>615.00</ele>
        <time>1970-01-01T01:31:51Z</time>
      </trkpt>
      <trkpt lat="41.628101" lon="2.100571">
        <ele>615.00</ele>
        <time>1970-01-01T01:31:52Z</time>
      </trkpt>
      <trkpt lat="41.628101" lon="2.100570">
        <ele>615.00</ele>
        <time>1970-01-01T01:31:54Z</time>
      </trkpt>
      <trkpt lat="41.628101" lon="2.100570">
        <ele>615.00</ele>
        <time>1970-01-01T01:31:55Z</time>
      </trkpt>
      <trkpt lat="41.628102" lon="2.100570">
        <ele>615.00</ele>
        <time>1970-01-01T01:31:56Z</time>
      </trkpt>
      <trkpt lat="41.628103" lon="2.100570">
        <ele>615.00</ele>
        <time>1970-01-01T01:31:57Z</time>
      </trkpt>
      <trkpt lat="41.628106" lon="2.100570">
        <ele>615.10</ele>
        <time>1970-01-01T01:31:59Z</time>
      </trkpt>
      <trkpt lat="41.628110" lon="2.100569">
        <ele>615.10</ele>
        <time>1970-01-01T01:32:00Z</time>
      </trkpt>
      <trkpt lat="41.628111" lon="2.100569">
        <ele>615.10</ele>
        <time>1970-01-01T01:32:01Z</time>
      </trkpt>
      <trkpt lat="41.628113" lon="2.100570">
        <ele>615.10</ele>
        <time>1970-01-01T01:32:03Z</time>
      </trkpt>
      <trkpt lat="41.628114" lon="2.100569">
        <ele>615.20</ele>
        <time>1970-01-01T01:32:04Z</time>
      </trkpt>
      <trkpt lat="41.628116" lon="2.100568">
        <ele>615.20</ele>
        <time>1970-01-01T01:32:06Z</time>
      </trkpt>
      <trkpt lat="41.628118" lon="2.100567">
        <ele>615.20</ele>
        <time>1970-01-01T01:32:07Z</time>
      </trkpt>
      <trkpt lat="41.628121" lon="2.100576">
        <ele>615.30</ele>
        <time>1970-01-01T01:32:08Z</time>
      </trkpt>
      <trkpt lat="41.628122" lon="2.100585">
        <ele>615.40</ele>
        <time>1970-01-01T01:32:09Z</time>
      </trkpt>
      <trkpt lat="41.628124" lon="2.100595">
        <ele>615.50</ele>
        <time>1970-01-01T01:32:10Z</time>
      </trkpt>
      <trkpt lat="41.628125" lon="2.100604">
        <ele>615.50</ele>
        <time>1970-01-01T01:32:11Z</time>
      </trkpt>
      <trkpt lat="41.628127" lon="2.100614">
        <ele>615.60</ele>
        <time>1970-01-01T01:32:12Z</time>
      </trkpt>
      <trkpt lat="41.628118" lon="2.100629">
        <ele>615.80</ele>
        <time>1970-01-01T01:32:14Z</time>
      </trkpt>
      <trkpt lat="41.628111" lon="2.100635">
        <ele>615.90</ele>
        <time>1970-01-01T01:32:15Z</time>
      </trkpt>
      <trkpt lat="41.628105" lon="2.100637">
        <ele>615.90</ele>
        <time>1970-01-01T01:32:16Z</time>
      </trkpt>
      <trkpt lat="41.628101" lon="2.100640">
        <ele>616.00</ele>
        <time>1970-01-01T01:32:18Z</time>
      </trkpt>
      <trkpt lat="41.628093" lon="2.100646">
        <ele>616.10</ele>
        <time>1970-01-01T01:32:19Z</time>
      </trkpt>
      <trkpt lat="41.628089" lon="2.100649">
        <ele>616.10</ele>
        <time>1970-01-01T01:32:20Z</time>
      </trkpt>
      <trkpt lat="41.628085" lon="2.100648">
        <ele>616.20</ele>
        <time>1970-01-01T01:32:22Z</time>
      </trkpt>
      <trkpt lat="41.628081" lon="2.100646">
        <ele>616.20</ele>
        <time>1970-01-01T01:32:23Z</time>
      </trkpt>
      <trkpt lat="41.628075" lon="2.100646">
        <ele>616.30</ele>
        <time>1970-01-01T01:32:25Z</time>
      </trkpt>
      <trkpt lat="41.628072" lon="2.100653">
        <ele>616.30</ele>
        <time>1970-01-01T01:32:26Z</time>
      </trkpt>
      <trkpt lat="41.628071" lon="2.100656">
        <ele>616.40</ele>
        <time>1970-01-01T01:32:27Z</time>
      </trkpt>
      <trkpt lat="41.628068" lon="2.100657">
        <ele>616.40</ele>
        <time>1970-01-01T01:32:29Z</time>
      </trkpt>
      <trkpt lat="41.628061" lon="2.100659">
        <ele>616.50</ele>
        <time>1970-01-01T01:32:31Z</time>
      </trkpt>
      <trkpt lat="41.628058" lon="2.100659">
        <ele>616.50</ele>
        <time>1970-01-01T01:32:32Z</time>
      </trkpt>
      <trkpt lat="41.628055" lon="2.100658">
        <ele>616.50</ele>
        <time>1970-01-01T01:32:33Z</time>
      </trkpt>
      <trkpt lat="41.628053" lon="2.100657">
        <ele>616.60</ele>
        <time>1970-01-01T01:32:35Z</time>
      </trkpt>
      <trkpt lat="41.628052" lon="2.100658">
        <ele>616.60</ele>
        <time>1970-01-01T01:32:36Z</time>
      </trkpt>
      <trkpt lat="41.628051" lon="2.100658">
        <ele>616.60</ele>
        <time>1970-01-01T01:32:37Z</time>
      </trkpt>
      <trkpt lat="41.628051" lon="2.100658">
        <ele>616.60</ele>
        <time>1970-01-01T01:32:38Z</time>
      </trkpt>
      <trkpt lat="41.628050" lon="2.100659">
        <ele>616.60</ele>
        <time>1970-01-01T01:32:40Z</time>
      </trkpt>
      <trkpt lat="41.628049" lon="2.100659">
        <ele>616.60</ele>
        <time>1970-01-01T01:32:41Z</time>
      </trkpt>
      <trkpt lat="41.628045" lon="2.100660">
        <ele>616.60</ele>
        <time>1970-01-01T01:32:42Z</time>
      </trkpt>
      <trkpt lat="41.628045" lon="2.100660">
        <ele>616.60</ele>
        <time>1970-01-01T01:32:43Z</time>
      </trkpt>
      <trkpt lat="41.628038" lon="2.100667">
        <ele>616.70</ele>
        <time>1970-01-01T01:32:45Z</time>
      </trkpt>
      <trkpt lat="41.628035" lon="2.100679">
        <ele>616.80</ele>
        <time>1970-01-01T01:32:46Z</time>
      </trkpt>
      <trkpt lat="41.628035" lon="2.100682">
        <ele>616.90</ele>
        <time>1970-01-01T01:32:48Z</time>
      </trkpt>
      <trkpt lat="41.628035" lon="2.100687">
        <ele>616.90</ele>
        <time>1970-01-01T01:32:49Z</time>
      </trkpt>
      <trkpt lat="41.628035" lon="2.100691">
        <ele>616.90</ele>
        <time>1970-01-01T01:32:51Z</time>
      </trkpt>
      <trkpt lat="41.628038" lon="2.100703">
        <ele>617.00</ele>
        <time>1970-01-01T01:32:52Z</time>
      </trkpt>
      <trkpt lat="41.628041" lon="2.100726">
        <ele>617.20</ele>
        <time>1970-01-01T01:32:54Z</time>
      </trkpt>
      <trkpt lat="41.628047" lon="2.100733">
        <ele>617.20</ele>
        <time>1970-01-01T01:32:55Z</time>
      </trkpt>
      <trkpt lat="41.628050" lon="2.100739">
        <ele>617.30</ele>
        <time>1970-01-01T01:32:57Z</time>
      </trkpt>
      <trkpt lat="41.628053" lon="2.100744">
        <ele>617.30</ele>
        <time>1970-01-01T01:32:59Z</time>
      </trkpt>
      <trkpt lat="41.628056" lon="2.100749">
        <ele>617.40</ele>
        <time>1970-01-01T01:33:00Z</time>
      </trkpt>
      <trkpt lat="41.628057" lon="2.100754">
        <ele>617.40</ele>
        <time>1970-01-01T01:33:02Z</time>
      </trkpt>
      <trkpt lat="41.628057" lon="2.100767">
        <ele>617.50</ele>
        <time>1970-01-01T01:33:03Z</time>
      </trkpt>
      <trkpt lat="41.628057" lon="2.100772">
        <ele>617.50</ele>
        <time>1970-01-01T01:33:04Z</time>
      </trkpt>
      <trkpt lat="41.628059" lon="2.100787">
        <ele>617.60</ele>
        <time>1970-01-01T01:33:05Z</time>
      </trkpt>
      <trkpt lat="41.628060" lon="2.100797">
        <ele>617.70</ele>
        <time>1970-01-01T01:33:06Z</time>
      </trkpt>
      <trkpt lat="41.628060" lon="2.100806">
        <ele>617.80</ele>
        <time>1970-01-01T01:33:08Z</time>
      </trkpt>
      <trkpt lat="41.628061" lon="2.100816">
        <ele>617.90</ele>
        <time>1970-01-01T01:33:09Z</time>
      </trkpt>
      <trkpt lat="41.628062" lon="2.100825">
        <ele>617.90</ele>
        <time>1970-01-01T01:33:10Z</time>
      </trkpt>
      <trkpt lat="41.628053" lon="2.100846">
        <ele>618.10</ele>
        <time>1970-01-01T01:33:11Z</time>
      </trkpt>
      <trkpt lat="41.628045" lon="2.100869">
        <ele>618.20</ele>
        <time>1970-01-01T01:33:13Z</time>
      </trkpt>
      <trkpt lat="41.628019" lon="2.100891">
        <ele>618.50</ele>
        <time>1970-01-01T01:33:14Z</time>
      </trkpt>
      <trkpt lat="41.628011" lon="2.100897">
        <ele>618.60</ele>
        <time>1970-01-01T01:33:15Z</time>
      </trkpt>
      <trkpt lat="41.628000" lon="2.100922">
        <ele>618.80</ele>
        <time>1970-01-01T01:33:17Z</time>
      </trkpt>
      <trkpt lat="41.627997" lon="2.100940">
        <ele>618.90</ele>
        <time>1970-01-01T01:33:18Z</time>
      </trkpt>
      <trkpt lat="41.627984" lon="2.100949">
        <ele>619.10</ele>
        <time>1970-01-01T01:33:20Z</time>
      </trkpt>
      <trkpt lat="41.627978" lon="2.100950">
        <ele>619.10</ele>
        <time>1970-01-01T01:33:21Z</time>
      </trkpt>
      <trkpt lat="41.627972" lon="2.100951">
        <ele>619.20</ele>
        <time>1970-01-01T01:33:23Z</time>
      </trkpt>
      <trkpt lat="41.627970" lon="2.100954">
        <ele>619.20</ele>
        <time>1970-01-01T01:33:24Z</time>
      </trkpt>
      <trkpt lat="41.627966" lon="2.100959">
        <ele>619.20</ele>
        <time>1970-01-01T01:33:25Z</time>
      </trkpt>
      <trkpt lat="41.627952" lon="2.100977">
        <ele>619.40</ele>
        <time>1970-01-01T01:33:26Z</time>
      </trkpt>
      <trkpt lat="41.627943" lon="2.100999">
        <ele>619.60</ele>
        <time>1970-01-01T01:33:28Z</time>
      </trkpt>
      <trkpt lat="41.627935" lon="2.101027">
        <ele>619.80</ele>
        <time>1970-01-01T01:33:29Z</time>
      </trkpt>
      <trkpt lat="41.627932" lon="2.101040">
        <ele>619.90</ele>
        <time>1970-01-01T01:33:30Z</time>
      </trkpt>
      <trkpt lat="41.627941" lon="2.101066">
        <ele>620.10</ele>
        <time>1970-01-01T01:33:31Z</time>
      </trkpt>
      <trkpt lat="41.627946" lon="2.101079">
        <ele>620.30</ele>
        <time>1970-01-01T01:33:33Z</time>
      </trkpt>
      <trkpt lat="41.627952" lon="2.101091">
        <ele>620.40</ele>
        <time>1970-01-01T01:33:34Z</time>
      </trkpt>
      <trkpt lat="41.627971" lon="2.101130">
        <ele>620.70</ele>
        <time>1970-01-01T01:33:35Z</time>
      </trkpt>
      <trkpt lat="41.627979" lon="2.101145">
        <ele>620.90</ele>
        <time>1970-01-01T01:33:36Z</time>
      </trkpt>
      <trkpt lat="41.627993" lon="2.101184">
        <ele>621.30</ele>
        <time>1970-01-01T01:33:37Z</time>
      </trkpt>
      <trkpt lat="41.627996" lon="2.101198">
        <ele>621.40</ele>
        <time>1970-01-01T01:33:38Z</time>
      </trkpt>
      <trkpt lat="41.628016" lon="2.101258">
        <ele>622.00</ele>
        <time>1970-01-01T01:33:40Z</time>
      </trkpt>
      <trkpt lat="41.628025" lon="2.101276">
        <ele>622.20</ele>
        <time>1970-01-01T01:33:41Z</time>
      </trkpt>
      <trkpt lat="41.628035" lon="2.101295">
        <ele>622.40</ele>
        <time>1970-01-01T01:33:42Z</time>
      </trkpt>
      <trkpt lat="41.628051" lon="2.101331">
        <ele>622.80</ele>
        <time>1970-01-01T01:33:43Z</time>
      </trkpt>
      <trkpt lat="41.628056" lon="2.101344">
        <ele>622.90</ele>
        <time>1970-01-01T01:33:44Z</time>
      </trkpt>
      <trkpt lat="41.628069" lon="2.101375">
        <ele>623.30</ele>
        <time>1970-01-01T01:33:45Z</time>
      </trkpt>
      <trkpt lat="41.628089" lon="2.101415">
        <ele>623.80</ele>
        <time>1970-01-01T01:33:47Z</time>
      </trkpt>
      <trkpt lat="41.628110" lon="2.101458">
        <ele>624.30</ele>
        <time>1970-01-01T01:33:49Z</time>
      </trkpt>
      <trkpt lat="41.628133" lon="2.101499">
        <ele>624.90</ele>
        <time>1970-01-01T01:33:50Z</time>
      </trkpt>
      <trkpt lat="41.628142" lon="2.101514">
        <ele>625.10</ele>
        <time>1970-01-01T01:33:51Z</time>
      </trkpt>
      <trkpt lat="41.628173" lon="2.101565">
        <ele>625.80</ele>
        <time>1970-01-01T01:33:53Z</time>
      </trkpt>
      <trkpt lat="41.628183" lon="2.101582">
        <ele>626.00</ele>
        <time>1970-01-01T01:33:54Z</time>
      </trkpt>
      <trkpt lat="41.628194" lon="2.101599">
        <ele>626.30</ele>
        <time>1970-01-01T01:33:55Z</time>
      </trkpt>
      <trkpt lat="41.628211" lon="2.101630">
        <ele>626.70</ele>
        <time>1970-01-01T01:33:57Z</time>
      </trkpt>
      <trkpt lat="41.628229" lon="2.101665">
        <ele>627.20</ele>
        <time>1970-01-01T01:33:58Z</time>
      </trkpt>
      <trkpt lat="41.628243" lon="2.101690">
        <ele>627.50</ele>
        <time>1970-01-01T01:33:59Z</time>
      </trkpt>
      <trkpt lat="41.628267" lon="2.101730">
        <ele>628.10</ele>
        <time>1970-01-01T01:34:01Z</time>
      </trkpt>
      <trkpt lat="41.628288" lon="2.101764">
        <ele>628.60</ele>
        <time>1970-01-01T01:34:02Z</time>
      </trkpt>
      <trkpt lat="41.628295" lon="2.101776">
        <ele>628.70</ele>
        <time>1970-01-01T01:34:03Z</time>
      </trkpt>
      <trkpt lat="41.628319" lon="2.101824">
        <ele>629.40</ele>
        <time>1970-01-01T01:34:05Z</time>
      </trkpt>
      <trkpt lat="41.628334" lon="2.101865">
        <ele>629.80</ele>
        <time>1970-01-01T01:34:06Z</time>
      </trkpt>
      <trkpt lat="41.628340" lon="2.101879">
        <ele>630.00</ele>
        <time>1970-01-01T01:34:07Z</time>
      </trkpt>
      <trkpt lat="41.628350" lon="2.101911">
        <ele>630.40</ele>
        <time>1970-01-01T01:34:09Z</time>
      </trkpt>
      <trkpt lat="41.628375" lon="2.101967">
        <ele>631.10</ele>
        <time>1970-01-01T01:34:11Z</time>
      </trkpt>
      <trkpt lat="41.628392" lon="2.101994">
        <ele>631.50</ele>
        <time>1970-01-01T01:34:13Z</time>
      </trkpt>
      <trkpt lat="41.628411" lon="2.102028">
        <ele>631.90</ele>
        <time>1970-01-01T01:34:14Z</time>
      </trkpt>
      <trkpt lat="41.628417" lon="2.102041">
        <ele>632.10</ele>
        <time>1970-01-01T01:34:15Z</time>
      </trkpt>
      <trkpt lat="41.628439" lon="2.102082">
        <ele>632.70</ele>
        <time>1970-01-01T01:34:16Z</time>
      </trkpt>
      <trkpt lat="41.628447" lon="2.102096">
        <ele>632.90</ele>
        <time>1970-01-01T01:34:17Z</time>
      </trkpt>
      <trkpt lat="41.628472" lon="2.102132">
        <ele>633.50</ele>
        <time>1970-01-01T01:34:19Z</time>
      </trkpt>
      <trkpt lat="41.628511" lon="2.102178">
        <ele>634.30</ele>
        <time>1970-01-01T01:34:21Z</time>
      </trkpt>
      <trkpt lat="41.628525" lon="2.102192">
        <ele>634.50</ele>
        <time>1970-01-01T01:34:22Z</time>
      </trkpt>
      <trkpt lat="41.628540" lon="2.102206">
        <ele>634.80</ele>
        <time>1970-01-01T01:34:23Z</time>
      </trkpt>
      <trkpt lat="41.628567" lon="2.102218">
        <ele>635.30</ele>
        <time>1970-01-01T01:34:25Z</time>
      </trkpt>
      <trkpt lat="41.628594" lon="2.102206">
        <ele>635.70</ele>
        <time>1970-01-01T01:34:26Z</time>
      </trkpt>
      <trkpt lat="41.628611" lon="2.102163">
        <ele>636.30</ele>
        <time>1970-01-01T01:34:28Z</time>
      </trkpt>
      <trkpt lat="41.628613" lon="2.102147">
        <ele>636.50</ele>
        <time>1970-01-01T01:34:29Z</time>
      </trkpt>
      <trkpt lat="41.628614" lon="2.102106">
        <ele>637.00</ele>
        <time>1970-01-01T01:34:30Z</time>
      </trkpt>
      <trkpt lat="41.628622" lon="2.102049">
        <ele>637.70</ele>
        <time>1970-01-01T01:34:32Z</time>
      </trkpt>
      <trkpt lat="41.628629" lon="2.102001">
        <ele>638.30</ele>
        <time>1970-01-01T01:34:34Z</time>
      </trkpt>
      <trkpt lat="41.628629" lon="2.101976">
        <ele>638.60</ele>
        <time>1970-01-01T01:34:35Z</time>
      </trkpt>
      <trkpt lat="41.628629" lon="2.101940">
        <ele>639.00</ele>
        <time>1970-01-01T01:34:37Z</time>
      </trkpt>
      <trkpt lat="41.628634" lon="2.101920">
        <ele>639.30</ele>
        <time>1970-01-01T01:34:38Z</time>
      </trkpt>
      <trkpt lat="41.628635" lon="2.101899">
        <ele>639.50</ele>
        <time>1970-01-01T01:34:39Z</time>
      </trkpt>
      <trkpt lat="41.628638" lon="2.101878">
        <ele>639.80</ele>
        <time>1970-01-01T01:34:41Z</time>
      </trkpt>
      <trkpt lat="41.628650" lon="2.101859">
        <ele>640.10</ele>
        <time>1970-01-01T01:34:42Z</time>
      </trkpt>
      <trkpt lat="41.628669" lon="2.101830">
        <ele>640.50</ele>
        <time>1970-01-01T01:34:43Z</time>
      </trkpt>
      <trkpt lat="41.628675" lon="2.101821">
        <ele>640.70</ele>
        <time>1970-01-01T01:34:44Z</time>
      </trkpt>
      <trkpt lat="41.628699" lon="2.101793">
        <ele>641.20</ele>
        <time>1970-01-01T01:34:45Z</time>
      </trkpt>
      <trkpt lat="41.628707" lon="2.101786">
        <ele>641.30</ele>
        <time>1970-01-01T01:34:46Z</time>
      </trkpt>
      <trkpt lat="41.628727" lon="2.101778">
        <ele>641.60</ele>
        <time>1970-01-01T01:34:47Z</time>
      </trkpt>
      <trkpt lat="41.628758" lon="2.101788">
        <ele>642.10</ele>
        <time>1970-01-01T01:34:49Z</time>
      </trkpt>
      <trkpt lat="41.628791" lon="2.101805">
        <ele>642.60</ele>
        <time>1970-01-01T01:34:50Z</time>
      </trkpt>
      <trkpt lat="41.628802" lon="2.101811">
        <ele>642.70</ele>
        <time>1970-01-01T01:34:51Z</time>
      </trkpt>
      <trkpt lat="41.628819" lon="2.101818">
        <ele>642.90</ele>
        <time>1970-01-01T01:34:52Z</time>
      </trkpt>
      <trkpt lat="41.628834" lon="2.101827">
        <ele>643.20</ele>
        <time>1970-01-01T01:34:53Z</time>
      </trkpt>
      <trkpt lat="41.628852" lon="2.101838">
        <ele>643.40</ele>
        <time>1970-01-01T01:34:54Z</time>
      </trkpt>
      <trkpt lat="41.628869" lon="2.101848">
        <ele>643.60</ele>
        <time>1970-01-01T01:34:56Z</time>
      </trkpt>
      <trkpt lat="41.628899" lon="2.101855">
        <ele>644.00</ele>
        <time>1970-01-01T01:34:57Z</time>
      </trkpt>
      <trkpt lat="41.628909" lon="2.101856">
        <ele>644.10</ele>
        <time>1970-01-01T01:34:58Z</time>
      </trkpt>
      <trkpt lat="41.628950" lon="2.101856">
        <ele>644.60</ele>
        <time>1970-01-01T01:34:59Z</time>
      </trkpt>
      <trkpt lat="41.628966" lon="2.101854">
        <ele>644.80</ele>
        <time>1970-01-01T01:35:00Z</time>
      </trkpt>
      <trkpt lat="41.629001" lon="2.101851">
        <ele>645.30</ele>
        <time>1970-01-01T01:35:02Z</time>
      </trkpt>
      <trkpt lat="41.629012" lon="2.101850">
        <ele>645.40</ele>
        <time>1970-01-01T01:35:03Z</time>
      </trkpt>
      <trkpt lat="41.629042" lon="2.101843">
        <ele>645.90</ele>
        <time>1970-01-01T01:35:04Z</time>
      </trkpt>
      <trkpt lat="41.629074" lon="2.101826">
        <ele>646.30</ele>
        <time>1970-01-01T01:35:06Z</time>
      </trkpt>
      <trkpt lat="41.629083" lon="2.101822">
        <ele>646.50</ele>
        <time>1970-01-01T01:35:07Z</time>
      </trkpt>
      <trkpt lat="41.629100" lon="2.101818">
        <ele>646.70</ele>
        <time>1970-01-01T01:35:08Z</time>
      </trkpt>
      <trkpt lat="41.629118" lon="2.101814">
        <ele>647.00</ele>
        <time>1970-01-01T01:35:09Z</time>
      </trkpt>
      <trkpt lat="41.629150" lon="2.101806">
        <ele>647.40</ele>
        <time>1970-01-01T01:35:11Z</time>
      </trkpt>
      <trkpt lat="41.629160" lon="2.101804">
        <ele>647.50</ele>
        <time>1970-01-01T01:35:12Z</time>
      </trkpt>
      <trkpt lat="41.629179" lon="2.101797">
        <ele>647.80</ele>
        <time>1970-01-01T01:35:13Z</time>
      </trkpt>
      <trkpt lat="41.629199" lon="2.101784">
        <ele>648.10</ele>
        <time>1970-01-01T01:35:15Z</time>
      </trkpt>
      <trkpt lat="41.629226" lon="2.101760">
        <ele>648.50</ele>
        <time>1970-01-01T01:35:16Z</time>
      </trkpt>
      <trkpt lat="41.629234" lon="2.101755">
        <ele>648.70</ele>
        <time>1970-01-01T01:35:17Z</time>
      </trkpt>
      <trkpt lat="41.629252" lon="2.101749">
        <ele>648.90</ele>
        <time>1970-01-01T01:35:18Z</time>
      </trkpt>
      <trkpt lat="41.629282" lon="2.101740">
        <ele>649.30</ele>
        <time>1970-01-01T01:35:20Z</time>
      </trkpt>
      <trkpt lat="41.629313" lon="2.101727">
        <ele>649.70</ele>
        <time>1970-01-01T01:35:21Z</time>
      </trkpt>
      <trkpt lat="41.629322" lon="2.101722">
        <ele>649.80</ele>
        <time>1970-01-01T01:35:22Z</time>
      </trkpt>
      <trkpt lat="41.629339" lon="2.101717">
        <ele>650.00</ele>
        <time>1970-01-01T01:35:23Z</time>
      </trkpt>
      <trkpt lat="41.629373" lon="2.101705">
        <ele>650.40</ele>
        <time>1970-01-01T01:35:25Z</time>
      </trkpt>
      <trkpt lat="41.629396" lon="2.101697">
        <ele>650.60</ele>
        <time>1970-01-01T01:35:26Z</time>
      </trkpt>
      <trkpt lat="41.629424" lon="2.101688">
        <ele>650.90</ele>
        <time>1970-01-01T01:35:28Z</time>
      </trkpt>
      <trkpt lat="41.629459" lon="2.101673">
        <ele>651.20</ele>
        <time>1970-01-01T01:35:30Z</time>
      </trkpt>
      <trkpt lat="41.629510" lon="2.101666">
        <ele>651.60</ele>
        <time>1970-01-01T01:35:32Z</time>
      </trkpt>
      <trkpt lat="41.629526" lon="2.101663">
        <ele>651.70</ele>
        <time>1970-01-01T01:35:33Z</time>
      </trkpt>
      <trkpt lat="41.629543" lon="2.101659">
        <ele>651.80</ele>
        <time>1970-01-01T01:35:34Z</time>
      </trkpt>
      <trkpt lat="41.629569" lon="2.101647">
        <ele>652.00</ele>
        <time>1970-01-01T01:35:36Z</time>
      </trkpt>
      <trkpt lat="41.629597" lon="2.101635">
        <ele>652.10</ele>
        <time>1970-01-01T01:35:37Z</time>
      </trkpt>
      <trkpt lat="41.629637" lon="2.101620">
        <ele>652.30</ele>
        <time>1970-01-01T01:35:39Z</time>
      </trkpt>
      <trkpt lat="41.629674" lon="2.101599">
        <ele>652.50</ele>
        <time>1970-01-01T01:35:40Z</time>
      </trkpt>
      <trkpt lat="41.629697" lon="2.101580">
        <ele>652.60</ele>
        <time>1970-01-01T01:35:41Z</time>
      </trkpt>
      <trkpt lat="41.629716" lon="2.101551">
        <ele>652.80</ele>
        <time>1970-01-01T01:35:43Z</time>
      </trkpt>
      <trkpt lat="41.629732" lon="2.101507">
        <ele>653.10</ele>
        <time>1970-01-01T01:35:44Z</time>
      </trkpt>
      <trkpt lat="41.629739" lon="2.101458">
        <ele>653.40</ele>
        <time>1970-01-01T01:35:46Z</time>
      </trkpt>
      <trkpt lat="41.629741" lon="2.101416">
        <ele>653.60</ele>
        <time>1970-01-01T01:35:47Z</time>
      </trkpt>
      <trkpt lat="41.629745" lon="2.101380">
        <ele>653.90</ele>
        <time>1970-01-01T01:35:48Z</time>
      </trkpt>
      <trkpt lat="41.629750" lon="2.101344">
        <ele>654.10</ele>
        <time>1970-01-01T01:35:49Z</time>
      </trkpt>
      <trkpt lat="41.629756" lon="2.101304">
        <ele>654.40</ele>
        <time>1970-01-01T01:35:50Z</time>
      </trkpt>
      <trkpt lat="41.629764" lon="2.101259">
        <ele>654.80</ele>
        <time>1970-01-01T01:35:52Z</time>
      </trkpt>
      <trkpt lat="41.629769" lon="2.101229">
        <ele>655.00</ele>
        <time>1970-01-01T01:35:53Z</time>
      </trkpt>
      <trkpt lat="41.629775" lon="2.101169">
        <ele>655.60</ele>
        <time>1970-01-01T01:35:55Z</time>
      </trkpt>
      <trkpt lat="41.629776" lon="2.101129">
        <ele>656.00</ele>
        <time>1970-01-01T01:35:56Z</time>
      </trkpt>
      <trkpt lat="41.629770" lon="2.101083">
        <ele>656.60</ele>
        <time>1970-01-01T01:35:58Z</time>
      </trkpt>
      <trkpt lat="41.629755" lon="2.101033">
        <ele>657.20</ele>
        <time>1970-01-01T01:36:00Z</time>
      </trkpt>
      <trkpt lat="41.629736" lon="2.100989">
        <ele>658.10</ele>
        <time>1970-01-01T01:36:01Z</time>
      </trkpt>
      <trkpt lat="41.629711" lon="2.100942">
        <ele>657.80</ele>
        <time>1970-01-01T01:36:03Z</time>
      </trkpt>
      <trkpt lat="41.629703" lon="2.100923">
        <ele>657.70</ele>
        <time>1970-01-01T01:36:04Z</time>
      </trkpt>
      <trkpt lat="41.629695" lon="2.100904">
        <ele>657.60</ele>
        <time>1970-01-01T01:36:05Z</time>
      </trkpt>
      <trkpt lat="41.629693" lon="2.100872">
        <ele>657.50</ele>
        <time>1970-01-01T01:36:07Z</time>
      </trkpt>
      <trkpt lat="41.629695" lon="2.100846">
        <ele>657.30</ele>
        <time>1970-01-01T01:36:09Z</time>
      </trkpt>
      <trkpt lat="41.629691" lon="2.100857">
        <ele>657.30</ele>
        <time>1970-01-01T01:36:11Z</time>
      </trkpt>
      <trkpt lat="41.629691" lon="2.100860">
        <ele>657.30</ele>
        <time>1970-01-01T01:36:13Z</time>
      </trkpt>
      <trkpt lat="41.629692" lon="2.100861">
        <ele>657.30</ele>
        <time>1970-01-01T01:36:15Z</time>
      </trkpt>
      <trkpt lat="41.629691" lon="2.100862">
        <ele>657.30</ele>
        <time>1970-01-01T01:36:17Z</time>
      </trkpt>
      <trkpt lat="41.629691" lon="2.100863">
        <ele>657.20</ele>
        <time>1970-01-01T01:36:19Z</time>
      </trkpt>
      <trkpt lat="41.629689" lon="2.100864">
        <ele>657.20</ele>
        <time>1970-01-01T01:36:21Z</time>
      </trkpt>
      <trkpt lat="41.629688" lon="2.100864">
        <ele>657.20</ele>
        <time>1970-01-01T01:36:22Z</time>
      </trkpt>
      <trkpt lat="41.629687" lon="2.100866">
        <ele>657.20</ele>
        <time>1970-01-01T01:36:24Z</time>
      </trkpt>
      <trkpt lat="41.629687" lon="2.100866">
        <ele>657.20</ele>
        <time>1970-01-01T01:36:25Z</time>
      </trkpt>
      <trkpt lat="41.629686" lon="2.100866">
        <ele>657.20</ele>
        <time>1970-01-01T01:36:26Z</time>
      </trkpt>
      <trkpt lat="41.629686" lon="2.100871">
        <ele>657.20</ele>
        <time>1970-01-01T01:36:28Z</time>
      </trkpt>
      <trkpt lat="41.629687" lon="2.100875">
        <ele>657.20</ele>
        <time>1970-01-01T01:36:29Z</time>
      </trkpt>
      <trkpt lat="41.629686" lon="2.100876">
        <ele>657.20</ele>
        <time>1970-01-01T01:36:31Z</time>
      </trkpt>
      <trkpt lat="41.629686" lon="2.100876">
        <ele>657.20</ele>
        <time>1970-01-01T01:36:32Z</time>
      </trkpt>
      <trkpt lat="41.629686" lon="2.100877">
        <ele>657.20</ele>
        <time>1970-01-01T01:36:33Z</time>
      </trkpt>
      <trkpt lat="41.629686" lon="2.100877">
        <ele>657.20</ele>
        <time>1970-01-01T01:36:35Z</time>
      </trkpt>
      <trkpt lat="41.629686" lon="2.100877">
        <ele>657.20</ele>
        <time>1970-01-01T01:36:37Z</time>
      </trkpt>
      <trkpt lat="41.629686" lon="2.100877">
        <ele>657.20</ele>
        <time>1970-01-01T01:36:38Z</time>
      </trkpt>
      <trkpt lat="41.629686" lon="2.100877">
        <ele>657.20</ele>
        <time>1970-01-01T01:36:40Z</time>
      </trkpt>
      <trkpt lat="41.629686" lon="2.100877">
        <ele>657.20</ele>
        <time>1970-01-01T01:36:41Z</time>
      </trkpt>
      <trkpt lat="41.629686" lon="2.100877">
        <ele>657.20</ele>
        <time>1970-01-01T01:36:43Z</time>
      </trkpt>
      <trkpt lat="41.629686" lon="2.100877">
        <ele>657.20</ele>
        <time>1970-01-01T01:36:44Z</time>
      </trkpt>
      <trkpt lat="41.629686" lon="2.100877">
        <ele>657.20</ele>
        <time>1970-01-01T01:36:46Z</time>
      </trkpt>
      <trkpt lat="41.629686" lon="2.100877">
        <ele>657.20</ele>
        <time>1970-01-01T01:36:48Z</time>
      </trkpt>
      <trkpt lat="41.629686" lon="2.100877">
        <ele>657.20</ele>
        <time>1970-01-01T01:36:50Z</time>
      </trkpt>
      <trkpt lat="41.629686" lon="2.100877">
        <ele>657.20</ele>
        <time>1970-01-01T01:36:51Z</time>
      </trkpt>
      <trkpt lat="41.629686" lon="2.100877">
        <ele>657.20</ele>
        <time>1970-01-01T01:36:53Z</time>
      </trkpt>
      <trkpt lat="41.629686" lon="2.100877">
        <ele>657.20</ele>
        <time>1970-01-01T01:36:55Z</time>
      </trkpt>
      <trkpt lat="41.629686" lon="2.100877">
        <ele>657.20</ele>
        <time>1970-01-01T01:36:57Z</time>
      </trkpt>
      <trkpt lat="41.629686" lon="2.100877">
        <ele>657.20</ele>
        <time>1970-01-01T01:36:59Z</time>
      </trkpt>
      <trkpt lat="41.629686" lon="2.100877">
        <ele>657.20</ele>
        <time>1970-01-01T01:37:00Z</time>
      </trkpt>
      <trkpt lat="41.629686" lon="2.100877">
        <ele>657.20</ele>
        <time>1970-01-01T01:37:02Z</time>
      </trkpt>
      <trkpt lat="41.629686" lon="2.100877">
        <ele>657.20</ele>
        <time>1970-01-01T01:37:04Z</time>
      </trkpt>
      <trkpt lat="41.629686" lon="2.100877">
        <ele>657.20</ele>
        <time>1970-01-01T01:37:06Z</time>
      </trkpt>
      <trkpt lat="41.629686" lon="2.100877">
        <ele>657.20</ele>
        <time>1970-01-01T01:37:07Z</time>
      </trkpt>
      <trkpt lat="41.629686" lon="2.100877">
        <ele>657.20</ele>
        <time>1970-01-01T01:37:08Z</time>
      </trkpt>
      <trkpt lat="41.629686" lon="2.100877">
        <ele>657.20</ele>
        <time>1970-01-01T01:37:10Z</time>
      </trkpt>
      <trkpt lat="41.629685" lon="2.100880">
        <ele>657.10</ele>
        <time>1970-01-01T01:37:11Z</time>
      </trkpt>
      <trkpt lat="41.629684" lon="2.100882">
        <ele>657.10</ele>
        <time>1970-01-01T01:37:12Z</time>
      </trkpt>
      <trkpt lat="41.629684" lon="2.100884">
        <ele>657.10</ele>
        <time>1970-01-01T01:37:14Z</time>
      </trkpt>
      <trkpt lat="41.629684" lon="2.100885">
        <ele>657.10</ele>
        <time>1970-01-01T01:37:16Z</time>
      </trkpt>
      <trkpt lat="41.629684" lon="2.100885">
        <ele>657.10</ele>
        <time>1970-01-01T01:37:17Z</time>
      </trkpt>
      <trkpt lat="41.629684" lon="2.100885">
        <ele>657.10</ele>
        <time>1970-01-01T01:37:19Z</time>
      </trkpt>
      <trkpt lat="41.629685" lon="2.100887">
        <ele>657.10</ele>
        <time>1970-01-01T01:37:21Z</time>
      </trkpt>
      <trkpt lat="41.629675" lon="2.100862">
        <ele>657.00</ele>
        <time>1970-01-01T01:37:23Z</time>
      </trkpt>
      <trkpt lat="41.629668" lon="2.100851">
        <ele>656.90</ele>
        <time>1970-01-01T01:37:24Z</time>
      </trkpt>
      <trkpt lat="41.629663" lon="2.100834">
        <ele>656.80</ele>
        <time>1970-01-01T01:37:25Z</time>
      </trkpt>
      <trkpt lat="41.629664" lon="2.100792">
        <ele>656.60</ele>
        <time>1970-01-01T01:37:27Z</time>
      </trkpt>
      <trkpt lat="41.629683" lon="2.100753">
        <ele>656.40</ele>
        <time>1970-01-01T01:37:28Z</time>
      </trkpt>
      <trkpt lat="41.629699" lon="2.100723">
        <ele>656.10</ele>
        <time>1970-01-01T01:37:29Z</time>
      </trkpt>
      <trkpt lat="41.629714" lon="2.100694">
        <ele>655.80</ele>
        <time>1970-01-01T01:37:30Z</time>
      </trkpt>
      <trkpt lat="41.629731" lon="2.100618">
        <ele>655.20</ele>
        <time>1970-01-01T01:37:32Z</time>
      </trkpt>
      <trkpt lat="41.629766" lon="2.100527">
        <ele>654.50</ele>
        <time>1970-01-01T01:37:33Z</time>
      </trkpt>
      <trkpt lat="41.629801" lon="2.100478">
        <ele>654.00</ele>
        <time>1970-01-01T01:37:34Z</time>
      </trkpt>
      <trkpt lat="41.629853" lon="2.100436">
        <ele>653.40</ele>
        <time>1970-01-01T01:37:36Z</time>
      </trkpt>
      <trkpt lat="41.629897" lon="2.100403">
        <ele>652.90</ele>
        <time>1970-01-01T01:37:37Z</time>
      </trkpt>
      <trkpt lat="41.629919" lon="2.100352">
        <ele>652.50</ele>
        <time>1970-01-01T01:37:38Z</time>
      </trkpt>
      <trkpt lat="41.629925" lon="2.100299">
        <ele>652.10</ele>
        <time>1970-01-01T01:37:39Z</time>
      </trkpt>
      <trkpt lat="41.629915" lon="2.100214">
        <ele>651.50</ele>
        <time>1970-01-01T01:37:40Z</time>
      </trkpt>
      <trkpt lat="41.629909" lon="2.100143">
        <ele>650.90</ele>
        <time>1970-01-01T01:37:42Z</time>
      </trkpt>
      <trkpt lat="41.629917" lon="2.100104">
        <ele>650.60</ele>
        <time>1970-01-01T01:37:43Z</time>
      </trkpt>
      <trkpt lat="41.629921" lon="2.100091">
        <ele>650.60</ele>
        <time>1970-01-01T01:37:44Z</time>
      </trkpt>
      <trkpt lat="41.629928" lon="2.100075">
        <ele>650.40</ele>
        <time>1970-01-01T01:37:46Z</time>
      </trkpt>
      <trkpt lat="41.629941" lon="2.100065">
        <ele>650.30</ele>
        <time>1970-01-01T01:37:47Z</time>
      </trkpt>
      <trkpt lat="41.629953" lon="2.100055">
        <ele>650.20</ele>
        <time>1970-01-01T01:37:48Z</time>
      </trkpt>
      <trkpt lat="41.629969" lon="2.100044">
        <ele>650.00</ele>
        <time>1970-01-01T01:37:49Z</time>
      </trkpt>
      <trkpt lat="41.629992" lon="2.100045">
        <ele>649.90</ele>
        <time>1970-01-01T01:37:50Z</time>
      </trkpt>
      <trkpt lat="41.630035" lon="2.100074">
        <ele>649.50</ele>
        <time>1970-01-01T01:37:52Z</time>
      </trkpt>
      <trkpt lat="41.630061" lon="2.100093">
        <ele>649.30</ele>
        <time>1970-01-01T01:37:53Z</time>
      </trkpt>
      <trkpt lat="41.630113" lon="2.100107">
        <ele>649.00</ele>
        <time>1970-01-01T01:37:55Z</time>
      </trkpt>
      <trkpt lat="41.630142" lon="2.100105">
        <ele>648.90</ele>
        <time>1970-01-01T01:37:56Z</time>
      </trkpt>
      <trkpt lat="41.630188" lon="2.100092">
        <ele>648.70</ele>
        <time>1970-01-01T01:37:57Z</time>
      </trkpt>
      <trkpt lat="41.630239" lon="2.100059">
        <ele>648.40</ele>
        <time>1970-01-01T01:37:59Z</time>
      </trkpt>
      <trkpt lat="41.630257" lon="2.100044">
        <ele>648.30</ele>
        <time>1970-01-01T01:38:01Z</time>
      </trkpt>
      <trkpt lat="41.630276" lon="2.100028">
        <ele>648.10</ele>
        <time>1970-01-01T01:38:02Z</time>
      </trkpt>
      <trkpt lat="41.630294" lon="2.100012">
        <ele>648.00</ele>
        <time>1970-01-01T01:38:03Z</time>
      </trkpt>
      <trkpt lat="41.630332" lon="2.099984">
        <ele>647.70</ele>
        <time>1970-01-01T01:38:04Z</time>
      </trkpt>
      <trkpt lat="41.630378" lon="2.099942">
        <ele>647.20</ele>
        <time>1970-01-01T01:38:06Z</time>
      </trkpt>
      <trkpt lat="41.630449" lon="2.099895">
        <ele>646.60</ele>
        <time>1970-01-01T01:38:07Z</time>
      </trkpt>
      <trkpt lat="41.630533" lon="2.099822">
        <ele>645.90</ele>
        <time>1970-01-01T01:38:09Z</time>
      </trkpt>
      <trkpt lat="41.630595" lon="2.099765">
        <ele>645.30</ele>
        <time>1970-01-01T01:38:11Z</time>
      </trkpt>
      <trkpt lat="41.630660" lon="2.099713">
        <ele>644.70</ele>
        <time>1970-01-01T01:38:12Z</time>
      </trkpt>
      <trkpt lat="41.630776" lon="2.099642">
        <ele>643.70</ele>
        <time>1970-01-01T01:38:14Z</time>
      </trkpt>
      <trkpt lat="41.630843" lon="2.099590">
        <ele>643.10</ele>
        <time>1970-01-01T01:38:15Z</time>
      </trkpt>
      <trkpt lat="41.630974" lon="2.099460">
        <ele>642.00</ele>
        <time>1970-01-01T01:38:17Z</time>
      </trkpt>
      <trkpt lat="41.631106" lon="2.099341">
        <ele>641.20</ele>
        <time>1970-01-01T01:38:19Z</time>
      </trkpt>
      <trkpt lat="41.631170" lon="2.099285">
        <ele>640.90</ele>
        <time>1970-01-01T01:38:20Z</time>
      </trkpt>
      <trkpt lat="41.631289" lon="2.099178">
        <ele>640.50</ele>
        <time>1970-01-01T01:38:22Z</time>
      </trkpt>
      <trkpt lat="41.631395" lon="2.099085">
        <ele>640.20</ele>
        <time>1970-01-01T01:38:24Z</time>
      </trkpt>
      <trkpt lat="41.631486" lon="2.099006">
        <ele>639.90</ele>
        <time>1970-01-01T01:38:26Z</time>
      </trkpt>
      <trkpt lat="41.631521" lon="2.098980">
        <ele>639.80</ele>
        <time>1970-01-01T01:38:27Z</time>
      </trkpt>
      <trkpt lat="41.631556" lon="2.098934">
        <ele>639.60</ele>
        <time>1970-01-01T01:38:29Z</time>
      </trkpt>
      <trkpt lat="41.631631" lon="2.098879">
        <ele>639.30</ele>
        <time>1970-01-01T01:38:31Z</time>
      </trkpt>
      <trkpt lat="41.631694" lon="2.098861">
        <ele>639.10</ele>
        <time>1970-01-01T01:38:32Z</time>
      </trkpt>
      <trkpt lat="41.631817" lon="2.098855">
        <ele>638.80</ele>
        <time>1970-01-01T01:38:34Z</time>
      </trkpt>
      <trkpt lat="41.631882" lon="2.098855">
        <ele>638.60</ele>
        <time>1970-01-01T01:38:35Z</time>
      </trkpt>
      <trkpt lat="41.631941" lon="2.098848">
        <ele>638.50</ele>
        <time>1970-01-01T01:38:36Z</time>
      </trkpt>
      <trkpt lat="41.632048" lon="2.098822">
        <ele>638.20</ele>
        <time>1970-01-01T01:38:38Z</time>
      </trkpt>
      <trkpt lat="41.632156" lon="2.098781">
        <ele>637.90</ele>
        <time>1970-01-01T01:38:40Z</time>
      </trkpt>
      <trkpt lat="41.632211" lon="2.098754">
        <ele>637.70</ele>
        <time>1970-01-01T01:38:41Z</time>
      </trkpt>
      <trkpt lat="41.632315" lon="2.098667">
        <ele>637.20</ele>
        <time>1970-01-01T01:38:43Z</time>
      </trkpt>
      <trkpt lat="41.632410" lon="2.098556">
        <ele>636.50</ele>
        <time>1970-01-01T01:38:45Z</time>
      </trkpt>
      <trkpt lat="41.632507" lon="2.098443">
        <ele>635.80</ele>
        <time>1970-01-01T01:38:47Z</time>
      </trkpt>
      <trkpt lat="41.632557" lon="2.098383">
        <ele>635.50</ele>
        <time>1970-01-01T01:38:48Z</time>
      </trkpt>
      <trkpt lat="41.632605" lon="2.098311">
        <ele>635.10</ele>
        <time>1970-01-01T01:38:49Z</time>
      </trkpt>
      <trkpt lat="41.632699" lon="2.098168">
        <ele>634.40</ele>
        <time>1970-01-01T01:38:51Z</time>
      </trkpt>
      <trkpt lat="41.632823" lon="2.098052">
        <ele>633.70</ele>
        <time>1970-01-01T01:38:53Z</time>
      </trkpt>
      <trkpt lat="41.632883" lon="2.098012">
        <ele>633.40</ele>
        <time>1970-01-01T01:38:54Z</time>
      </trkpt>
      <trkpt lat="41.633004" lon="2.097966">
        <ele>633.10</ele>
        <time>1970-01-01T01:38:56Z</time>
      </trkpt>
      <trkpt lat="41.633069" lon="2.097954">
        <ele>633.00</ele>
        <time>1970-01-01T01:38:57Z</time>
      </trkpt>
      <trkpt lat="41.633133" lon="2.097940">
        <ele>632.80</ele>
        <time>1970-01-01T01:38:58Z</time>
      </trkpt>
      <trkpt lat="41.633251" lon="2.097919">
        <ele>632.60</ele>
        <time>1970-01-01T01:39:00Z</time>
      </trkpt>
      <trkpt lat="41.633308" lon="2.097913">
        <ele>632.40</ele>
        <time>1970-01-01T01:39:01Z</time>
      </trkpt>
      <trkpt lat="41.633422" lon="2.097904">
        <ele>632.20</ele>
        <time>1970-01-01T01:39:03Z</time>
      </trkpt>
      <trkpt lat="41.633540" lon="2.097898">
        <ele>631.80</ele>
        <time>1970-01-01T01:39:05Z</time>
      </trkpt>
      <trkpt lat="41.633594" lon="2.097898">
        <ele>631.60</ele>
        <time>1970-01-01T01:39:06Z</time>
      </trkpt>
      <trkpt lat="41.633704" lon="2.097887">
        <ele>631.10</ele>
        <time>1970-01-01T01:39:08Z</time>
      </trkpt>
      <trkpt lat="41.633772" lon="2.097890">
        <ele>630.80</ele>
        <time>1970-01-01T01:39:09Z</time>
      </trkpt>
      <trkpt lat="41.633839" lon="2.097903">
        <ele>630.50</ele>
        <time>1970-01-01T01:39:10Z</time>
      </trkpt>
      <trkpt lat="41.633899" lon="2.097927">
        <ele>630.20</ele>
        <time>1970-01-01T01:39:11Z</time>
      </trkpt>
      <trkpt lat="41.633958" lon="2.097959">
        <ele>629.90</ele>
        <time>1970-01-01T01:39:12Z</time>
      </trkpt>
      <trkpt lat="41.634095" lon="2.098005">
        <ele>629.20</ele>
        <time>1970-01-01T01:39:14Z</time>
      </trkpt>
      <trkpt lat="41.634219" lon="2.098012">
        <ele>628.50</ele>
        <time>1970-01-01T01:39:16Z</time>
      </trkpt>
      <trkpt lat="41.634286" lon="2.097999">
        <ele>628.10</ele>
        <time>1970-01-01T01:39:17Z</time>
      </trkpt>
      <trkpt lat="41.634409" lon="2.097928">
        <ele>627.30</ele>
        <time>1970-01-01T01:39:19Z</time>
      </trkpt>
      <trkpt lat="41.634550" lon="2.097816">
        <ele>626.20</ele>
        <time>1970-01-01T01:39:21Z</time>
      </trkpt>
      <trkpt lat="41.634703" lon="2.097723">
        <ele>624.80</ele>
        <time>1970-01-01T01:39:23Z</time>
      </trkpt>
      <trkpt lat="41.634851" lon="2.097660">
        <ele>623.80</ele>
        <time>1970-01-01T01:39:25Z</time>
      </trkpt>
      <trkpt lat="41.634927" lon="2.097632">
        <ele>623.60</ele>
        <time>1970-01-01T01:39:26Z</time>
      </trkpt>
      <trkpt lat="41.635004" lon="2.097598">
        <ele>623.50</ele>
        <time>1970-01-01T01:39:27Z</time>
      </trkpt>
      <trkpt lat="41.635123" lon="2.097467">
        <ele>623.40</ele>
        <time>1970-01-01T01:39:29Z</time>
      </trkpt>
      <trkpt lat="41.635156" lon="2.097393">
        <ele>623.60</ele>
        <time>1970-01-01T01:39:30Z</time>
      </trkpt>
      <trkpt lat="41.635222" lon="2.097268">
        <ele>623.80</ele>
        <time>1970-01-01T01:39:32Z</time>
      </trkpt>
      <trkpt lat="41.635302" lon="2.097175">
        <ele>624.00</ele>
        <time>1970-01-01T01:39:34Z</time>
      </trkpt>
      <trkpt lat="41.635343" lon="2.097133">
        <ele>624.10</ele>
        <time>1970-01-01T01:39:35Z</time>
      </trkpt>
      <trkpt lat="41.635434" lon="2.097067">
        <ele>624.20</ele>
        <time>1970-01-01T01:39:37Z</time>
      </trkpt>
      <trkpt lat="41.635526" lon="2.097000">
        <ele>624.20</ele>
        <time>1970-01-01T01:39:39Z</time>
      </trkpt>
      <trkpt lat="41.635623" lon="2.096912">
        <ele>624.20</ele>
        <time>1970-01-01T01:39:41Z</time>
      </trkpt>
      <trkpt lat="41.635662" lon="2.096866">
        <ele>624.20</ele>
        <time>1970-01-01T01:39:42Z</time>
      </trkpt>
      <trkpt lat="41.635714" lon="2.096808">
        <ele>624.20</ele>
        <time>1970-01-01T01:39:44Z</time>
      </trkpt>
      <trkpt lat="41.635754" lon="2.096758">
        <ele>624.20</ele>
        <time>1970-01-01T01:39:45Z</time>
      </trkpt>
      <trkpt lat="41.635787" lon="2.096702">
        <ele>624.10</ele>
        <time>1970-01-01T01:39:46Z</time>
      </trkpt>
      <trkpt lat="41.635834" lon="2.096586">
        <ele>623.90</ele>
        <time>1970-01-01T01:39:48Z</time>
      </trkpt>
      <trkpt lat="41.635859" lon="2.096528">
        <ele>623.80</ele>
        <time>1970-01-01T01:39:49Z</time>
      </trkpt>
      <trkpt lat="41.635881" lon="2.096472">
        <ele>623.60</ele>
        <time>1970-01-01T01:39:50Z</time>
      </trkpt>
      <trkpt lat="41.635924" lon="2.096348">
        <ele>623.20</ele>
        <time>1970-01-01T01:39:52Z</time>
      </trkpt>
      <trkpt lat="41.635963" lon="2.096306">
        <ele>623.00</ele>
        <time>1970-01-01T01:39:53Z</time>
      </trkpt>
      <trkpt lat="41.636051" lon="2.096259">
        <ele>622.50</ele>
        <time>1970-01-01T01:39:55Z</time>
      </trkpt>
      <trkpt lat="41.636151" lon="2.096284">
        <ele>621.90</ele>
        <time>1970-01-01T01:39:57Z</time>
      </trkpt>
      <trkpt lat="41.636200" lon="2.096311">
        <ele>621.50</ele>
        <time>1970-01-01T01:39:58Z</time>
      </trkpt>
      <trkpt lat="41.636299" lon="2.096387">
        <ele>620.60</ele>
        <time>1970-01-01T01:40:00Z</time>
      </trkpt>
      <trkpt lat="41.636400" lon="2.096486">
        <ele>619.60</ele>
        <time>1970-01-01T01:40:02Z</time>
      </trkpt>
      <trkpt lat="41.636451" lon="2.096537">
        <ele>619.00</ele>
        <time>1970-01-01T01:40:03Z</time>
      </trkpt>
      <trkpt lat="41.636585" lon="2.096630">
        <ele>617.80</ele>
        <time>1970-01-01T01:40:05Z</time>
      </trkpt>
      <trkpt lat="41.636659" lon="2.096651">
        <ele>617.20</ele>
        <time>1970-01-01T01:40:06Z</time>
      </trkpt>
      <trkpt lat="41.636813" lon="2.096664">
        <ele>616.00</ele>
        <time>1970-01-01T01:40:08Z</time>
      </trkpt>
      <trkpt lat="41.636961" lon="2.096642">
        <ele>614.80</ele>
        <time>1970-01-01T01:40:10Z</time>
      </trkpt>
      <trkpt lat="41.637038" lon="2.096622">
        <ele>614.20</ele>
        <time>1970-01-01T01:40:11Z</time>
      </trkpt>
      <trkpt lat="41.637157" lon="2.096578">
        <ele>613.00</ele>
        <time>1970-01-01T01:40:13Z</time>
      </trkpt>
      <trkpt lat="41.637205" lon="2.096589">
        <ele>612.50</ele>
        <time>1970-01-01T01:40:14Z</time>
      </trkpt>
      <trkpt lat="41.637292" lon="2.096681">
        <ele>611.40</ele>
        <time>1970-01-01T01:40:16Z</time>
      </trkpt>
      <trkpt lat="41.637316" lon="2.096764">
        <ele>610.70</ele>
        <time>1970-01-01T01:40:17Z</time>
      </trkpt>
      <trkpt lat="41.637331" lon="2.096937">
        <ele>609.40</ele>
        <time>1970-01-01T01:40:19Z</time>
      </trkpt>
      <trkpt lat="41.637351" lon="2.097108">
        <ele>607.90</ele>
        <time>1970-01-01T01:40:21Z</time>
      </trkpt>
      <trkpt lat="41.637373" lon="2.097211">
        <ele>606.90</ele>
        <time>1970-01-01T01:40:22Z</time>
      </trkpt>
      <trkpt lat="41.637425" lon="2.097432">
        <ele>604.90</ele>
        <time>1970-01-01T01:40:24Z</time>
      </trkpt>
      <trkpt lat="41.637512" lon="2.097653">
        <ele>602.90</ele>
        <time>1970-01-01T01:40:26Z</time>
      </trkpt>
      <trkpt lat="41.637573" lon="2.097757">
        <ele>602.00</ele>
        <time>1970-01-01T01:40:27Z</time>
      </trkpt>
      <trkpt lat="41.637648" lon="2.097854">
        <ele>601.00</ele>
        <time>1970-01-01T01:40:28Z</time>
      </trkpt>
      <trkpt lat="41.637842" lon="2.098009">
        <ele>599.10</ele>
        <time>1970-01-01T01:40:30Z</time>
      </trkpt>
      <trkpt lat="41.638071" lon="2.098062">
        <ele>598.80</ele>
        <time>1970-01-01T01:40:32Z</time>
      </trkpt>
      <trkpt lat="41.638175" lon="2.098055">
        <ele>599.10</ele>
        <time>1970-01-01T01:40:33Z</time>
      </trkpt>
      <trkpt lat="41.638271" lon="2.098032">
        <ele>599.60</ele>
        <time>1970-01-01T01:40:34Z</time>
      </trkpt>
      <trkpt lat="41.638432" lon="2.097981">
        <ele>600.70</ele>
        <time>1970-01-01T01:40:36Z</time>
      </trkpt>
      <trkpt lat="41.638546" lon="2.097934">
        <ele>601.40</ele>
        <time>1970-01-01T01:40:38Z</time>
      </trkpt>
      <trkpt lat="41.638644" lon="2.097910">
        <ele>602.10</ele>
        <time>1970-01-01T01:40:40Z</time>
      </trkpt>
      <trkpt lat="41.638704" lon="2.097893">
        <ele>602.40</ele>
        <time>1970-01-01T01:40:42Z</time>
      </trkpt>
      <trkpt lat="41.638745" lon="2.097887">
        <ele>602.60</ele>
        <time>1970-01-01T01:40:43Z</time>
      </trkpt>
      <trkpt lat="41.638826" lon="2.097883">
        <ele>603.10</ele>
        <time>1970-01-01T01:40:45Z</time>
      </trkpt>
      <trkpt lat="41.638877" lon="2.097890">
        <ele>603.30</ele>
        <time>1970-01-01T01:40:46Z</time>
      </trkpt>
      <trkpt lat="41.638885" lon="2.097940">
        <ele>603.50</ele>
        <time>1970-01-01T01:40:47Z</time>
      </trkpt>
      <trkpt lat="41.638883" lon="2.097976">
        <ele>603.60</ele>
        <time>1970-01-01T01:40:48Z</time>
      </trkpt>
      <trkpt lat="41.638978" lon="2.097980">
        <ele>604.00</ele>
        <time>1970-01-01T01:40:50Z</time>
      </trkpt>
      <trkpt lat="41.639050" lon="2.097955">
        <ele>604.30</ele>
        <time>1970-01-01T01:40:51Z</time>
      </trkpt>
      <trkpt lat="41.639108" lon="2.097931">
        <ele>604.60</ele>
        <time>1970-01-01T01:40:52Z</time>
      </trkpt>
      <trkpt lat="41.639159" lon="2.097911">
        <ele>604.80</ele>
        <time>1970-01-01T01:40:53Z</time>
      </trkpt>
      <trkpt lat="41.639205" lon="2.097893">
        <ele>605.00</ele>
        <time>1970-01-01T01:40:54Z</time>
      </trkpt>
      <trkpt lat="41.639256" lon="2.097878">
        <ele>605.30</ele>
        <time>1970-01-01T01:40:55Z</time>
      </trkpt>
      <trkpt lat="41.639314" lon="2.097852">
        <ele>605.60</ele>
        <time>1970-01-01T01:40:57Z</time>
      </trkpt>
      <trkpt lat="41.639354" lon="2.097830">
        <ele>605.90</ele>
        <time>1970-01-01T01:40:58Z</time>
      </trkpt>
      <trkpt lat="41.639405" lon="2.097792">
        <ele>606.20</ele>
        <time>1970-01-01T01:40:59Z</time>
      </trkpt>
      <trkpt lat="41.639450" lon="2.097761">
        <ele>606.60</ele>
        <time>1970-01-01T01:41:01Z</time>
      </trkpt>
      <trkpt lat="41.639504" lon="2.097720">
        <ele>607.00</ele>
        <time>1970-01-01T01:41:02Z</time>
      </trkpt>
      <trkpt lat="41.639568" lon="2.097671">
        <ele>607.50</ele>
        <time>1970-01-01T01:41:04Z</time>
      </trkpt>
      <trkpt lat="41.639606" lon="2.097642">
        <ele>607.80</ele>
        <time>1970-01-01T01:41:05Z</time>
      </trkpt>
      <trkpt lat="41.639640" lon="2.097614">
        <ele>608.10</ele>
        <time>1970-01-01T01:41:06Z</time>
      </trkpt>
      <trkpt lat="41.639673" lon="2.097589">
        <ele>608.50</ele>
        <time>1970-01-01T01:41:07Z</time>
      </trkpt>
      <trkpt lat="41.639734" lon="2.097548">
        <ele>609.00</ele>
        <time>1970-01-01T01:41:09Z</time>
      </trkpt>
      <trkpt lat="41.639777" lon="2.097524">
        <ele>609.40</ele>
        <time>1970-01-01T01:41:10Z</time>
      </trkpt>
      <trkpt lat="41.639817" lon="2.097500">
        <ele>609.70</ele>
        <time>1970-01-01T01:41:11Z</time>
      </trkpt>
      <trkpt lat="41.639875" lon="2.097455">
        <ele>610.10</ele>
        <time>1970-01-01T01:41:13Z</time>
      </trkpt>
      <trkpt lat="41.639920" lon="2.097424">
        <ele>610.30</ele>
        <time>1970-01-01T01:41:14Z</time>
      </trkpt>
      <trkpt lat="41.639952" lon="2.097398">
        <ele>610.50</ele>
        <time>1970-01-01T01:41:15Z</time>
      </trkpt>
      <trkpt lat="41.639987" lon="2.097375">
        <ele>610.50</ele>
        <time>1970-01-01T01:41:17Z</time>
      </trkpt>
      <trkpt lat="41.640030" lon="2.097350">
        <ele>610.60</ele>
        <time>1970-01-01T01:41:18Z</time>
      </trkpt>
      <trkpt lat="41.640065" lon="2.097334">
        <ele>610.50</ele>
        <time>1970-01-01T01:41:19Z</time>
      </trkpt>
      <trkpt lat="41.640097" lon="2.097320">
        <ele>610.40</ele>
        <time>1970-01-01T01:41:20Z</time>
      </trkpt>
      <trkpt lat="41.640136" lon="2.097308">
        <ele>610.30</ele>
        <time>1970-01-01T01:41:22Z</time>
      </trkpt>
      <trkpt lat="41.640183" lon="2.097300">
        <ele>610.10</ele>
        <time>1970-01-01T01:41:24Z</time>
      </trkpt>
      <trkpt lat="41.640222" lon="2.097296">
        <ele>609.90</ele>
        <time>1970-01-01T01:41:25Z</time>
      </trkpt>
      <trkpt lat="41.640264" lon="2.097291">
        <ele>609.60</ele>
        <time>1970-01-01T01:41:26Z</time>
      </trkpt>
      <trkpt lat="41.640340" lon="2.097286">
        <ele>609.10</ele>
        <time>1970-01-01T01:41:28Z</time>
      </trkpt>
      <trkpt lat="41.640440" lon="2.097291">
        <ele>608.50</ele>
        <time>1970-01-01T01:41:30Z</time>
      </trkpt>
      <trkpt lat="41.640516" lon="2.097294">
        <ele>608.10</ele>
        <time>1970-01-01T01:41:32Z</time>
      </trkpt>
      <trkpt lat="41.640556" lon="2.097300">
        <ele>607.80</ele>
        <time>1970-01-01T01:41:33Z</time>
      </trkpt>
      <trkpt lat="41.640648" lon="2.097284">
        <ele>607.30</ele>
        <time>1970-01-01T01:41:35Z</time>
      </trkpt>
      <trkpt lat="41.640755" lon="2.097261">
        <ele>606.60</ele>
        <time>1970-01-01T01:41:37Z</time>
      </trkpt>
      <trkpt lat="41.640870" lon="2.097224">
        <ele>605.90</ele>
        <time>1970-01-01T01:41:39Z</time>
      </trkpt>
      <trkpt lat="41.640992" lon="2.097170">
        <ele>605.00</ele>
        <time>1970-01-01T01:41:41Z</time>
      </trkpt>
      <trkpt lat="41.641055" lon="2.097138">
        <ele>604.50</ele>
        <time>1970-01-01T01:41:42Z</time>
      </trkpt>
      <trkpt lat="41.641110" lon="2.097105">
        <ele>604.00</ele>
        <time>1970-01-01T01:41:43Z</time>
      </trkpt>
      <trkpt lat="41.641233" lon="2.097029">
        <ele>602.70</ele>
        <time>1970-01-01T01:41:45Z</time>
      </trkpt>
      <trkpt lat="41.641370" lon="2.096933">
        <ele>601.00</ele>
        <time>1970-01-01T01:41:47Z</time>
      </trkpt>
      <trkpt lat="41.641437" lon="2.096875">
        <ele>600.00</ele>
        <time>1970-01-01T01:41:48Z</time>
      </trkpt>
      <trkpt lat="41.641561" lon="2.096737">
        <ele>597.80</ele>
        <time>1970-01-01T01:41:50Z</time>
      </trkpt>
      <trkpt lat="41.641676" lon="2.096579">
        <ele>595.70</ele>
        <time>1970-01-01T01:41:52Z</time>
      </trkpt>
      <trkpt lat="41.641739" lon="2.096491">
        <ele>594.50</ele>
        <time>1970-01-01T01:41:53Z</time>
      </trkpt>
      <trkpt lat="41.641886" lon="2.096368">
        <ele>592.50</ele>
        <time>1970-01-01T01:41:55Z</time>
      </trkpt>
      <trkpt lat="41.642055" lon="2.096293">
        <ele>591.00</ele>
        <time>1970-01-01T01:41:57Z</time>
      </trkpt>
      <trkpt lat="41.642152" lon="2.096270">
        <ele>590.40</ele>
        <time>1970-01-01T01:41:58Z</time>
      </trkpt>
      <trkpt lat="41.642249" lon="2.096274">
        <ele>590.00</ele>
        <time>1970-01-01T01:41:59Z</time>
      </trkpt>
      <trkpt lat="41.642433" lon="2.096327">
        <ele>589.50</ele>
        <time>1970-01-01T01:42:01Z</time>
      </trkpt>
      <trkpt lat="41.642523" lon="2.096354">
        <ele>589.30</ele>
        <time>1970-01-01T01:42:02Z</time>
      </trkpt>
      <trkpt lat="41.642610" lon="2.096368">
        <ele>589.10</ele>
        <time>1970-01-01T01:42:03Z</time>
      </trkpt>
      <trkpt lat="41.642770" lon="2.096348">
        <ele>588.70</ele>
        <time>1970-01-01T01:42:05Z</time>
      </trkpt>
      <trkpt lat="41.642845" lon="2.096321">
        <ele>588.50</ele>
        <time>1970-01-01T01:42:06Z</time>
      </trkpt>
      <trkpt lat="41.642976" lon="2.096241">
        <ele>588.10</ele>
        <time>1970-01-01T01:42:08Z</time>
      </trkpt>
      <trkpt lat="41.643089" lon="2.096177">
        <ele>587.50</ele>
        <time>1970-01-01T01:42:10Z</time>
      </trkpt>
      <trkpt lat="41.643202" lon="2.096151">
        <ele>586.70</ele>
        <time>1970-01-01T01:42:12Z</time>
      </trkpt>
      <trkpt lat="41.643264" lon="2.096152">
        <ele>586.30</ele>
        <time>1970-01-01T01:42:13Z</time>
      </trkpt>
      <trkpt lat="41.643331" lon="2.096157">
        <ele>585.90</ele>
        <time>1970-01-01T01:42:14Z</time>
      </trkpt>
      <trkpt lat="41.643395" lon="2.096148">
        <ele>585.50</ele>
        <time>1970-01-01T01:42:15Z</time>
      </trkpt>
      <trkpt lat="41.643487" lon="2.096065">
        <ele>584.70</ele>
        <time>1970-01-01T01:42:17Z</time>
      </trkpt>
      <trkpt lat="41.643521" lon="2.095957">
        <ele>584.20</ele>
        <time>1970-01-01T01:42:19Z</time>
      </trkpt>
      <trkpt lat="41.643521" lon="2.095913">
        <ele>584.00</ele>
        <time>1970-01-01T01:42:20Z</time>
      </trkpt>
      <trkpt lat="41.643526" lon="2.095807">
        <ele>583.60</ele>
        <time>1970-01-01T01:42:22Z</time>
      </trkpt>
      <trkpt lat="41.643530" lon="2.095748">
        <ele>583.30</ele>
        <time>1970-01-01T01:42:23Z</time>
      </trkpt>
      <trkpt lat="41.643530" lon="2.095718">
        <ele>583.10</ele>
        <time>1970-01-01T01:42:24Z</time>
      </trkpt>
      <trkpt lat="41.643528" lon="2.095627">
        <ele>582.70</ele>
        <time>1970-01-01T01:42:26Z</time>
      </trkpt>
      <trkpt lat="41.643562" lon="2.095617">
        <ele>582.40</ele>
        <time>1970-01-01T01:42:27Z</time>
      </trkpt>
      <trkpt lat="41.643612" lon="2.095598">
        <ele>582.00</ele>
        <time>1970-01-01T01:42:29Z</time>
      </trkpt>
      <trkpt lat="41.643663" lon="2.095580">
        <ele>581.60</ele>
        <time>1970-01-01T01:42:30Z</time>
      </trkpt>
      <trkpt lat="41.643760" lon="2.095648">
        <ele>580.80</ele>
        <time>1970-01-01T01:42:32Z</time>
      </trkpt>
      <trkpt lat="41.643852" lon="2.095727">
        <ele>580.10</ele>
        <time>1970-01-01T01:42:34Z</time>
      </trkpt>
      <trkpt lat="41.643902" lon="2.095776">
        <ele>579.70</ele>
        <time>1970-01-01T01:42:35Z</time>
      </trkpt>
      <trkpt lat="41.644000" lon="2.095873">
        <ele>579.00</ele>
        <time>1970-01-01T01:42:37Z</time>
      </trkpt>
      <trkpt lat="41.644050" lon="2.095919">
        <ele>578.70</ele>
        <time>1970-01-01T01:42:38Z</time>
      </trkpt>
      <trkpt lat="41.644106" lon="2.095961">
        <ele>578.40</ele>
        <time>1970-01-01T01:42:39Z</time>
      </trkpt>
      <trkpt lat="41.644231" lon="2.096031">
        <ele>577.90</ele>
        <time>1970-01-01T01:42:41Z</time>
      </trkpt>
      <trkpt lat="41.644346" lon="2.096061">
        <ele>577.40</ele>
        <time>1970-01-01T01:42:43Z</time>
      </trkpt>
      <trkpt lat="41.644386" lon="2.096067">
        <ele>577.10</ele>
        <time>1970-01-01T01:42:44Z</time>
      </trkpt>
      <trkpt lat="41.644399" lon="2.096070">
        <ele>577.10</ele>
        <time>1970-01-01T01:42:45Z</time>
      </trkpt>
      <trkpt lat="41.644435" lon="2.096068">
        <ele>576.80</ele>
        <time>1970-01-01T01:42:46Z</time>
      </trkpt>
      <trkpt lat="41.644446" lon="2.096065">
        <ele>576.80</ele>
        <time>1970-01-01T01:42:47Z</time>
      </trkpt>
      <trkpt lat="41.644463" lon="2.096067">
        <ele>576.60</ele>
        <time>1970-01-01T01:42:49Z</time>
      </trkpt>
      <trkpt lat="41.644517" lon="2.096060">
        <ele>576.20</ele>
        <time>1970-01-01T01:42:51Z</time>
      </trkpt>
      <trkpt lat="41.644563" lon="2.096040">
        <ele>576.00</ele>
        <time>1970-01-01T01:42:52Z</time>
      </trkpt>
      <trkpt lat="41.644611" lon="2.096010">
        <ele>576.20</ele>
        <time>1970-01-01T01:42:53Z</time>
      </trkpt>
      <trkpt lat="41.644650" lon="2.096005">
        <ele>576.30</ele>
        <time>1970-01-01T01:42:54Z</time>
      </trkpt>
      <trkpt lat="41.644689" lon="2.096019">
        <ele>576.50</ele>
        <time>1970-01-01T01:42:56Z</time>
      </trkpt>
      <trkpt lat="41.644709" lon="2.096017">
        <ele>576.50</ele>
        <time>1970-01-01T01:42:57Z</time>
      </trkpt>
      <trkpt lat="41.644748" lon="2.095986">
        <ele>576.60</ele>
        <time>1970-01-01T01:42:59Z</time>
      </trkpt>
      <trkpt lat="41.644784" lon="2.095944">
        <ele>576.70</ele>
        <time>1970-01-01T01:43:00Z</time>
      </trkpt>
      <trkpt lat="41.644821" lon="2.095913">
        <ele>576.70</ele>
        <time>1970-01-01T01:43:02Z</time>
      </trkpt>
      <trkpt lat="41.644848" lon="2.095892">
        <ele>576.70</ele>
        <time>1970-01-01T01:43:03Z</time>
      </trkpt>
      <trkpt lat="41.644888" lon="2.095878">
        <ele>576.60</ele>
        <time>1970-01-01T01:43:04Z</time>
      </trkpt>
      <trkpt lat="41.644925" lon="2.095877">
        <ele>576.40</ele>
        <time>1970-01-01T01:43:05Z</time>
      </trkpt>
      <trkpt lat="41.644969" lon="2.095874">
        <ele>576.10</ele>
        <time>1970-01-01T01:43:06Z</time>
      </trkpt>
      <trkpt lat="41.645008" lon="2.095880">
        <ele>575.80</ele>
        <time>1970-01-01T01:43:07Z</time>
      </trkpt>
      <trkpt lat="41.645038" lon="2.095913">
        <ele>575.40</ele>
        <time>1970-01-01T01:43:09Z</time>
      </trkpt>
      <trkpt lat="41.645057" lon="2.095922">
        <ele>575.20</ele>
        <time>1970-01-01T01:43:11Z</time>
      </trkpt>
      <trkpt lat="41.645068" lon="2.095922">
        <ele>575.10</ele>
        <time>1970-01-01T01:43:12Z</time>
      </trkpt>
      <trkpt lat="41.645079" lon="2.095921">
        <ele>574.90</ele>
        <time>1970-01-01T01:43:13Z</time>
      </trkpt>
      <trkpt lat="41.645117" lon="2.095917">
        <ele>574.40</ele>
        <time>1970-01-01T01:43:14Z</time>
      </trkpt>
      <trkpt lat="41.645151" lon="2.095925">
        <ele>573.90</ele>
        <time>1970-01-01T01:43:16Z</time>
      </trkpt>
      <trkpt lat="41.645183" lon="2.095927">
        <ele>573.40</ele>
        <time>1970-01-01T01:43:17Z</time>
      </trkpt>
      <trkpt lat="41.645201" lon="2.095913">
        <ele>573.10</ele>
        <time>1970-01-01T01:43:18Z</time>
      </trkpt>
      <trkpt lat="41.645225" lon="2.095877">
        <ele>572.60</ele>
        <time>1970-01-01T01:43:20Z</time>
      </trkpt>
      <trkpt lat="41.645245" lon="2.095856">
        <ele>572.30</ele>
        <time>1970-01-01T01:43:21Z</time>
      </trkpt>
      <trkpt lat="41.645283" lon="2.095817">
        <ele>571.60</ele>
        <time>1970-01-01T01:43:23Z</time>
      </trkpt>
      <trkpt lat="41.645310" lon="2.095790">
        <ele>571.20</ele>
        <time>1970-01-01T01:43:24Z</time>
      </trkpt>
      <trkpt lat="41.645355" lon="2.095767">
        <ele>570.60</ele>
        <time>1970-01-01T01:43:26Z</time>
      </trkpt>
      <trkpt lat="41.645366" lon="2.095773">
        <ele>570.50</ele>
        <time>1970-01-01T01:43:27Z</time>
      </trkpt>
      <trkpt lat="41.645370" lon="2.095779">
        <ele>570.40</ele>
        <time>1970-01-01T01:43:28Z</time>
      </trkpt>
      <trkpt lat="41.645370" lon="2.095783">
        <ele>570.40</ele>
        <time>1970-01-01T01:43:30Z</time>
      </trkpt>
      <trkpt lat="41.645374" lon="2.095786">
        <ele>570.30</ele>
        <time>1970-01-01T01:43:32Z</time>
      </trkpt>
      <trkpt lat="41.645375" lon="2.095786">
        <ele>570.30</ele>
        <time>1970-01-01T01:43:33Z</time>
      </trkpt>
      <trkpt lat="41.645380" lon="2.095784">
        <ele>570.30</ele>
        <time>1970-01-01T01:43:34Z</time>
      </trkpt>
      <trkpt lat="41.645405" lon="2.095774">
        <ele>570.00</ele>
        <time>1970-01-01T01:43:35Z</time>
      </trkpt>
      <trkpt lat="41.645420" lon="2.095766">
        <ele>569.80</ele>
        <time>1970-01-01T01:43:37Z</time>
      </trkpt>
      <trkpt lat="41.645435" lon="2.095759">
        <ele>569.70</ele>
        <time>1970-01-01T01:43:39Z</time>
      </trkpt>
      <trkpt lat="41.645450" lon="2.095751">
        <ele>569.50</ele>
        <time>1970-01-01T01:43:41Z</time>
      </trkpt>
      <trkpt lat="41.645465" lon="2.095743">
        <ele>569.40</ele>
        <time>1970-01-01T01:43:42Z</time>
      </trkpt>
      <trkpt lat="41.645508" lon="2.095718">
        <ele>569.00</ele>
        <time>1970-01-01T01:43:44Z</time>
      </trkpt>
      <trkpt lat="41.645525" lon="2.095704">
        <ele>568.90</ele>
        <time>1970-01-01T01:43:45Z</time>
      </trkpt>
      <trkpt lat="41.645532" lon="2.095698">
        <ele>568.80</ele>
        <time>1970-01-01T01:43:46Z</time>
      </trkpt>
      <trkpt lat="41.645540" lon="2.095701">
        <ele>568.80</ele>
        <time>1970-01-01T01:43:47Z</time>
      </trkpt>
      <trkpt lat="41.645546" lon="2.095702">
        <ele>568.80</ele>
        <time>1970-01-01T01:43:49Z</time>
      </trkpt>
      <trkpt lat="41.645548" lon="2.095702">
        <ele>568.70</ele>
        <time>1970-01-01T01:43:50Z</time>
      </trkpt>
      <trkpt lat="41.645547" lon="2.095694">
        <ele>568.70</ele>
        <time>1970-01-01T01:43:52Z</time>
      </trkpt>
      <trkpt lat="41.645544" lon="2.095691">
        <ele>568.70</ele>
        <time>1970-01-01T01:43:53Z</time>
      </trkpt>
      <trkpt lat="41.645536" lon="2.095687">
        <ele>568.60</ele>
        <time>1970-01-01T01:43:54Z</time>
      </trkpt>
      <trkpt lat="41.645525" lon="2.095690">
        <ele>568.60</ele>
        <time>1970-01-01T01:43:55Z</time>
      </trkpt>
      <trkpt lat="41.645512" lon="2.095691">
        <ele>568.50</ele>
        <time>1970-01-01T01:43:56Z</time>
      </trkpt>
      <trkpt lat="41.645503" lon="2.095683">
        <ele>568.50</ele>
        <time>1970-01-01T01:43:58Z</time>
      </trkpt>
      <trkpt lat="41.645498" lon="2.095675">
        <ele>568.40</ele>
        <time>1970-01-01T01:43:59Z</time>
      </trkpt>
      <trkpt lat="41.645495" lon="2.095669">
        <ele>568.40</ele>
        <time>1970-01-01T01:44:00Z</time>
      </trkpt>
      <trkpt lat="41.645494" lon="2.095668">
        <ele>568.40</ele>
        <time>1970-01-01T01:44:01Z</time>
      </trkpt>
      <trkpt lat="41.645493" lon="2.095668">
        <ele>568.40</ele>
        <time>1970-01-01T01:44:03Z</time>
      </trkpt>
      <trkpt lat="41.645492" lon="2.095669">
        <ele>568.40</ele>
        <time>1970-01-01T01:44:05Z</time>
      </trkpt>
      <trkpt lat="41.645489" lon="2.095669">
        <ele>568.40</ele>
        <time>1970-01-01T01:44:06Z</time>
      </trkpt>
      <trkpt lat="41.645489" lon="2.095669">
        <ele>568.40</ele>
        <time>1970-01-01T01:44:07Z</time>
      </trkpt>
      <trkpt lat="41.645489" lon="2.095669">
        <ele>568.40</ele>
        <time>1970-01-01T01:44:09Z</time>
      </trkpt>
      <trkpt lat="41.645489" lon="2.095675">
        <ele>568.30</ele>
        <time>1970-01-01T01:44:10Z</time>
      </trkpt>
      <trkpt lat="41.645489" lon="2.095681">
        <ele>568.30</ele>
        <time>1970-01-01T01:44:12Z</time>
      </trkpt>
      <trkpt lat="41.645490" lon="2.095686">
        <ele>568.30</ele>
        <time>1970-01-01T01:44:14Z</time>
      </trkpt>
      <trkpt lat="41.645488" lon="2.095689">
        <ele>568.30</ele>
        <time>1970-01-01T01:44:15Z</time>
      </trkpt>
      <trkpt lat="41.645489" lon="2.095694">
        <ele>568.30</ele>
        <time>1970-01-01T01:44:16Z</time>
      </trkpt>
      <trkpt lat="41.645490" lon="2.095701">
        <ele>568.30</ele>
        <time>1970-01-01T01:44:18Z</time>
      </trkpt>
      <trkpt lat="41.645496" lon="2.095715">
        <ele>568.20</ele>
        <time>1970-01-01T01:44:20Z</time>
      </trkpt>
      <trkpt lat="41.645500" lon="2.095721">
        <ele>568.20</ele>
        <time>1970-01-01T01:44:21Z</time>
      </trkpt>
      <trkpt lat="41.645503" lon="2.095724">
        <ele>568.20</ele>
        <time>1970-01-01T01:44:22Z</time>
      </trkpt>
      <trkpt lat="41.645493" lon="2.095717">
        <ele>568.20</ele>
        <time>1970-01-01T01:44:24Z</time>
      </trkpt>
      <trkpt lat="41.645491" lon="2.095716">
        <ele>568.10</ele>
        <time>1970-01-01T01:44:25Z</time>
      </trkpt>
      <trkpt lat="41.645488" lon="2.095717">
        <ele>568.10</ele>
        <time>1970-01-01T01:44:26Z</time>
      </trkpt>
      <trkpt lat="41.645488" lon="2.095720">
        <ele>568.10</ele>
        <time>1970-01-01T01:44:27Z</time>
      </trkpt>
      <trkpt lat="41.645489" lon="2.095721">
        <ele>568.10</ele>
        <time>1970-01-01T01:44:28Z</time>
      </trkpt>
      <trkpt lat="41.645496" lon="2.095728">
        <ele>568.10</ele>
        <time>1970-01-01T01:44:30Z</time>
      </trkpt>
      <trkpt lat="41.645497" lon="2.095729">
        <ele>568.10</ele>
        <time>1970-01-01T01:44:31Z</time>
      </trkpt>
      <trkpt lat="41.645487" lon="2.095717">
        <ele>568.10</ele>
        <time>1970-01-01T01:44:33Z</time>
      </trkpt>
      <trkpt lat="41.645485" lon="2.095706">
        <ele>568.00</ele>
        <time>1970-01-01T01:44:34Z</time>
      </trkpt>
      <trkpt lat="41.645509" lon="2.095697">
        <ele>568.00</ele>
        <time>1970-01-01T01:44:35Z</time>
      </trkpt>
      <trkpt lat="41.645542" lon="2.095707">
        <ele>567.90</ele>
        <time>1970-01-01T01:44:37Z</time>
      </trkpt>
      <trkpt lat="41.645579" lon="2.095708">
        <ele>567.80</ele>
        <time>1970-01-01T01:44:38Z</time>
      </trkpt>
      <trkpt lat="41.645609" lon="2.095693">
        <ele>567.80</ele>
        <time>1970-01-01T01:44:39Z</time>
      </trkpt>
      <trkpt lat="41.645651" lon="2.095669">
        <ele>568.20</ele>
        <time>1970-01-01T01:44:41Z</time>
      </trkpt>
      <trkpt lat="41.645687" lon="2.095643">
        <ele>568.50</ele>
        <time>1970-01-01T01:44:42Z</time>
      </trkpt>
      <trkpt lat="41.645716" lon="2.095619">
        <ele>568.70</ele>
        <time>1970-01-01T01:44:43Z</time>
      </trkpt>
      <trkpt lat="41.645761" lon="2.095584">
        <ele>569.10</ele>
        <time>1970-01-01T01:44:45Z</time>
      </trkpt>
      <trkpt lat="41.645801" lon="2.095563">
        <ele>569.40</ele>
        <time>1970-01-01T01:44:47Z</time>
      </trkpt>
      <trkpt lat="41.645828" lon="2.095550">
        <ele>569.70</ele>
        <time>1970-01-01T01:44:48Z</time>
      </trkpt>
      <trkpt lat="41.645857" lon="2.095542">
        <ele>569.90</ele>
        <time>1970-01-01T01:44:49Z</time>
      </trkpt>
      <trkpt lat="41.645891" lon="2.095538">
        <ele>570.30</ele>
        <time>1970-01-01T01:44:50Z</time>
      </trkpt>
      <trkpt lat="41.645904" lon="2.095537">
        <ele>570.40</ele>
        <time>1970-01-01T01:44:51Z</time>
      </trkpt>
      <trkpt lat="41.645947" lon="2.095536">
        <ele>570.80</ele>
        <time>1970-01-01T01:44:53Z</time>
      </trkpt>
      <trkpt lat="41.645975" lon="2.095526">
        <ele>571.10</ele>
        <time>1970-01-01T01:44:54Z</time>
      </trkpt>
      <trkpt lat="41.646013" lon="2.095505">
        <ele>571.60</ele>
        <time>1970-01-01T01:44:56Z</time>
      </trkpt>
      <trkpt lat="41.646026" lon="2.095497">
        <ele>571.70</ele>
        <time>1970-01-01T01:44:57Z</time>
      </trkpt>
      <trkpt lat="41.646038" lon="2.095489">
        <ele>571.80</ele>
        <time>1970-01-01T01:44:58Z</time>
      </trkpt>
      <trkpt lat="41.646062" lon="2.095483">
        <ele>572.10</ele>
        <time>1970-01-01T01:44:59Z</time>
      </trkpt>
      <trkpt lat="41.646097" lon="2.095469">
        <ele>572.40</ele>
        <time>1970-01-01T01:45:01Z</time>
      </trkpt>
      <trkpt lat="41.646132" lon="2.095455">
        <ele>572.70</ele>
        <time>1970-01-01T01:45:02Z</time>
      </trkpt>
      <trkpt lat="41.646146" lon="2.095448">
        <ele>572.80</ele>
        <time>1970-01-01T01:45:03Z</time>
      </trkpt>
      <trkpt lat="41.646172" lon="2.095433">
        <ele>573.10</ele>
        <time>1970-01-01T01:45:05Z</time>
      </trkpt>
      <trkpt lat="41.646193" lon="2.095422">
        <ele>573.10</ele>
        <time>1970-01-01T01:45:06Z</time>
      </trkpt>
      <trkpt lat="41.646237" lon="2.095395">
        <ele>573.40</ele>
        <time>1970-01-01T01:45:08Z</time>
      </trkpt>
      <trkpt lat="41.646269" lon="2.095366">
        <ele>573.70</ele>
        <time>1970-01-01T01:45:09Z</time>
      </trkpt>
      <trkpt lat="41.646281" lon="2.095352">
        <ele>573.80</ele>
        <time>1970-01-01T01:45:10Z</time>
      </trkpt>
      <trkpt lat="41.646307" lon="2.095330">
        <ele>574.00</ele>
        <time>1970-01-01T01:45:11Z</time>
      </trkpt>
      <trkpt lat="41.646339" lon="2.095294">
        <ele>574.20</ele>
        <time>1970-01-01T01:45:13Z</time>
      </trkpt>
      <trkpt lat="41.646379" lon="2.095262">
        <ele>574.50</ele>
        <time>1970-01-01T01:45:14Z</time>
      </trkpt>
      <trkpt lat="41.646415" lon="2.095237">
        <ele>574.70</ele>
        <time>1970-01-01T01:45:16Z</time>
      </trkpt>
      <trkpt lat="41.646474" lon="2.095193">
        <ele>575.10</ele>
        <time>1970-01-01T01:45:18Z</time>
      </trkpt>
      <trkpt lat="41.646503" lon="2.095159">
        <ele>575.30</ele>
        <time>1970-01-01T01:45:19Z</time>
      </trkpt>
      <trkpt lat="41.646520" lon="2.095129">
        <ele>575.50</ele>
        <time>1970-01-01T01:45:20Z</time>
      </trkpt>
      <trkpt lat="41.646553" lon="2.095090">
        <ele>575.70</ele>
        <time>1970-01-01T01:45:21Z</time>
      </trkpt>
      <trkpt lat="41.646568" lon="2.095077">
        <ele>575.80</ele>
        <time>1970-01-01T01:45:22Z</time>
      </trkpt>
      <trkpt lat="41.646599" lon="2.095058">
        <ele>575.90</ele>
        <time>1970-01-01T01:45:23Z</time>
      </trkpt>
      <trkpt lat="41.646628" lon="2.095046">
        <ele>576.00</ele>
        <time>1970-01-01T01:45:24Z</time>
      </trkpt>
      <trkpt lat="41.646656" lon="2.095041">
        <ele>576.00</ele>
        <time>1970-01-01T01:45:26Z</time>
      </trkpt>
      <trkpt lat="41.646685" lon="2.095047">
        <ele>576.10</ele>
        <time>1970-01-01T01:45:27Z</time>
      </trkpt>
      <trkpt lat="41.646715" lon="2.095054">
        <ele>576.00</ele>
        <time>1970-01-01T01:45:28Z</time>
      </trkpt>
      <trkpt lat="41.646752" lon="2.095065">
        <ele>575.90</ele>
        <time>1970-01-01T01:45:29Z</time>
      </trkpt>
      <trkpt lat="41.646783" lon="2.095074">
        <ele>575.90</ele>
        <time>1970-01-01T01:45:30Z</time>
      </trkpt>
      <trkpt lat="41.646829" lon="2.095084">
        <ele>575.70</ele>
        <time>1970-01-01T01:45:32Z</time>
      </trkpt>
      <trkpt lat="41.646866" lon="2.095088">
        <ele>575.60</ele>
        <time>1970-01-01T01:45:33Z</time>
      </trkpt>
      <trkpt lat="41.646903" lon="2.095092">
        <ele>575.40</ele>
        <time>1970-01-01T01:45:34Z</time>
      </trkpt>
      <trkpt lat="41.646964" lon="2.095085">
        <ele>575.20</ele>
        <time>1970-01-01T01:45:36Z</time>
      </trkpt>
      <trkpt lat="41.646999" lon="2.095071">
        <ele>575.10</ele>
        <time>1970-01-01T01:45:37Z</time>
      </trkpt>
      <trkpt lat="41.647037" lon="2.095055">
        <ele>574.90</ele>
        <time>1970-01-01T01:45:38Z</time>
      </trkpt>
      <trkpt lat="41.647086" lon="2.095023">
        <ele>574.80</ele>
        <time>1970-01-01T01:45:39Z</time>
      </trkpt>
      <trkpt lat="41.647136" lon="2.094974">
        <ele>574.60</ele>
        <time>1970-01-01T01:45:41Z</time>
      </trkpt>
      <trkpt lat="41.647171" lon="2.094941">
        <ele>574.40</ele>
        <time>1970-01-01T01:45:42Z</time>
      </trkpt>
      <trkpt lat="41.647210" lon="2.094908">
        <ele>574.30</ele>
        <time>1970-01-01T01:45:43Z</time>
      </trkpt>
      <trkpt lat="41.647262" lon="2.094859">
        <ele>574.10</ele>
        <time>1970-01-01T01:45:44Z</time>
      </trkpt>
      <trkpt lat="41.647332" lon="2.094811">
        <ele>573.80</ele>
        <time>1970-01-01T01:45:46Z</time>
      </trkpt>
      <trkpt lat="41.647432" lon="2.094748">
        <ele>573.40</ele>
        <time>1970-01-01T01:45:48Z</time>
      </trkpt>
      <trkpt lat="41.647550" lon="2.094688">
        <ele>572.90</ele>
        <time>1970-01-01T01:45:50Z</time>
      </trkpt>
      <trkpt lat="41.647665" lon="2.094609">
        <ele>572.60</ele>
        <time>1970-01-01T01:45:52Z</time>
      </trkpt>
      <trkpt lat="41.647761" lon="2.094496">
        <ele>572.50</ele>
        <time>1970-01-01T01:45:54Z</time>
      </trkpt>
      <trkpt lat="41.647804" lon="2.094436">
        <ele>572.60</ele>
        <time>1970-01-01T01:45:55Z</time>
      </trkpt>
      <trkpt lat="41.647865" lon="2.094317">
        <ele>572.70</ele>
        <time>1970-01-01T01:45:57Z</time>
      </trkpt>
      <trkpt lat="41.647885" lon="2.094251">
        <ele>572.90</ele>
        <time>1970-01-01T01:45:58Z</time>
      </trkpt>
      <trkpt lat="41.647901" lon="2.094191">
        <ele>573.10</ele>
        <time>1970-01-01T01:45:59Z</time>
      </trkpt>
      <trkpt lat="41.647924" lon="2.094090">
        <ele>573.60</ele>
        <time>1970-01-01T01:46:01Z</time>
      </trkpt>
      <trkpt lat="41.647932" lon="2.094037">
        <ele>573.80</ele>
        <time>1970-01-01T01:46:02Z</time>
      </trkpt>
      <trkpt lat="41.647947" lon="2.093928">
        <ele>574.50</ele>
        <time>1970-01-01T01:46:04Z</time>
      </trkpt>
      <trkpt lat="41.647966" lon="2.093840">
        <ele>575.10</ele>
        <time>1970-01-01T01:46:06Z</time>
      </trkpt>
      <trkpt lat="41.647916" lon="2.093753">
        <ele>576.00</ele>
        <time>1970-01-01T01:46:07Z</time>
      </trkpt>
      <trkpt lat="41.647938" lon="2.093721">
        <ele>576.40</ele>
        <time>1970-01-01T01:46:08Z</time>
      </trkpt>
      <trkpt lat="41.647956" lon="2.093669">
        <ele>577.00</ele>
        <time>1970-01-01T01:46:10Z</time>
      </trkpt>
      <trkpt lat="41.647969" lon="2.093620">
        <ele>577.40</ele>
        <time>1970-01-01T01:46:11Z</time>
      </trkpt>
      <trkpt lat="41.647984" lon="2.093561">
        <ele>578.00</ele>
        <time>1970-01-01T01:46:13Z</time>
      </trkpt>
      <trkpt lat="41.647997" lon="2.093511">
        <ele>578.50</ele>
        <time>1970-01-01T01:46:14Z</time>
      </trkpt>
      <trkpt lat="41.648007" lon="2.093476">
        <ele>578.80</ele>
        <time>1970-01-01T01:46:15Z</time>
      </trkpt>
      <trkpt lat="41.648018" lon="2.093422">
        <ele>579.20</ele>
        <time>1970-01-01T01:46:16Z</time>
      </trkpt>
      <trkpt lat="41.648028" lon="2.093378">
        <ele>579.60</ele>
        <time>1970-01-01T01:46:18Z</time>
      </trkpt>
      <trkpt lat="41.648043" lon="2.093324">
        <ele>580.10</ele>
        <time>1970-01-01T01:46:19Z</time>
      </trkpt>
      <trkpt lat="41.648054" lon="2.093288">
        <ele>580.40</ele>
        <time>1970-01-01T01:46:20Z</time>
      </trkpt>
      <trkpt lat="41.648071" lon="2.093227">
        <ele>580.90</ele>
        <time>1970-01-01T01:46:22Z</time>
      </trkpt>
      <trkpt lat="41.648084" lon="2.093191">
        <ele>581.30</ele>
        <time>1970-01-01T01:46:23Z</time>
      </trkpt>
      <trkpt lat="41.648096" lon="2.093157">
        <ele>581.60</ele>
        <time>1970-01-01T01:46:24Z</time>
      </trkpt>
      <trkpt lat="41.648114" lon="2.093103">
        <ele>582.10</ele>
        <time>1970-01-01T01:46:25Z</time>
      </trkpt>
      <trkpt lat="41.648128" lon="2.093064">
        <ele>582.50</ele>
        <time>1970-01-01T01:46:27Z</time>
      </trkpt>
      <trkpt lat="41.648143" lon="2.093019">
        <ele>582.90</ele>
        <time>1970-01-01T01:46:28Z</time>
      </trkpt>
      <trkpt lat="41.648164" lon="2.092955">
        <ele>583.60</ele>
        <time>1970-01-01T01:46:30Z</time>
      </trkpt>
      <trkpt lat="41.648184" lon="2.092890">
        <ele>584.20</ele>
        <time>1970-01-01T01:46:31Z</time>
      </trkpt>
      <trkpt lat="41.648196" lon="2.092854">
        <ele>584.60</ele>
        <time>1970-01-01T01:46:32Z</time>
      </trkpt>
      <trkpt lat="41.648209" lon="2.092817">
        <ele>584.90</ele>
        <time>1970-01-01T01:46:33Z</time>
      </trkpt>
      <trkpt lat="41.648226" lon="2.092776">
        <ele>585.40</ele>
        <time>1970-01-01T01:46:35Z</time>
      </trkpt>
      <trkpt lat="41.648244" lon="2.092740">
        <ele>585.80</ele>
        <time>1970-01-01T01:46:36Z</time>
      </trkpt>
      <trkpt lat="41.648262" lon="2.092709">
        <ele>586.20</ele>
        <time>1970-01-01T01:46:37Z</time>
      </trkpt>
      <trkpt lat="41.648280" lon="2.092666">
        <ele>586.70</ele>
        <time>1970-01-01T01:46:38Z</time>
      </trkpt>
      <trkpt lat="41.648285" lon="2.092652">
        <ele>586.90</ele>
        <time>1970-01-01T01:46:39Z</time>
      </trkpt>
      <trkpt lat="41.648298" lon="2.092619">
        <ele>587.30</ele>
        <time>1970-01-01T01:46:40Z</time>
      </trkpt>
      <trkpt lat="41.648315" lon="2.092579">
        <ele>587.80</ele>
        <time>1970-01-01T01:46:42Z</time>
      </trkpt>
      <trkpt lat="41.648329" lon="2.092543">
        <ele>588.30</ele>
        <time>1970-01-01T01:46:43Z</time>
      </trkpt>
      <trkpt lat="41.648344" lon="2.092507">
        <ele>588.70</ele>
        <time>1970-01-01T01:46:44Z</time>
      </trkpt>
      <trkpt lat="41.648358" lon="2.092477">
        <ele>589.10</ele>
        <time>1970-01-01T01:46:45Z</time>
      </trkpt>
      <trkpt lat="41.648380" lon="2.092433">
        <ele>589.70</ele>
        <time>1970-01-01T01:46:47Z</time>
      </trkpt>
      <trkpt lat="41.648395" lon="2.092400">
        <ele>590.10</ele>
        <time>1970-01-01T01:46:48Z</time>
      </trkpt>
      <trkpt lat="41.648409" lon="2.092367">
        <ele>590.50</ele>
        <time>1970-01-01T01:46:49Z</time>
      </trkpt>
      <trkpt lat="41.648417" lon="2.092324">
        <ele>590.90</ele>
        <time>1970-01-01T01:46:50Z</time>
      </trkpt>
      <trkpt lat="41.648426" lon="2.092284">
        <ele>591.40</ele>
        <time>1970-01-01T01:46:52Z</time>
      </trkpt>
      <trkpt lat="41.648439" lon="2.092243">
        <ele>591.80</ele>
        <time>1970-01-01T01:46:53Z</time>
      </trkpt>
      <trkpt lat="41.648459" lon="2.092180">
        <ele>592.40</ele>
        <time>1970-01-01T01:46:55Z</time>
      </trkpt>
      <trkpt lat="41.648469" lon="2.092155">
        <ele>592.70</ele>
        <time>1970-01-01T01:46:56Z</time>
      </trkpt>
      <trkpt lat="41.648478" lon="2.092129">
        <ele>592.90</ele>
        <time>1970-01-01T01:46:57Z</time>
      </trkpt>
      <trkpt lat="41.648492" lon="2.092078">
        <ele>593.40</ele>
        <time>1970-01-01T01:46:58Z</time>
      </trkpt>
      <trkpt lat="41.648497" lon="2.092058">
        <ele>593.60</ele>
        <time>1970-01-01T01:46:59Z</time>
      </trkpt>
      <trkpt lat="41.648511" lon="2.092005">
        <ele>594.10</ele>
        <time>1970-01-01T01:47:01Z</time>
      </trkpt>
      <trkpt lat="41.648515" lon="2.091985">
        <ele>594.30</ele>
        <time>1970-01-01T01:47:02Z</time>
      </trkpt>
      <trkpt lat="41.648526" lon="2.091940">
        <ele>594.70</ele>
        <time>1970-01-01T01:47:03Z</time>
      </trkpt>
      <trkpt lat="41.648530" lon="2.091922">
        <ele>594.80</ele>
        <time>1970-01-01T01:47:04Z</time>
      </trkpt>
      <trkpt lat="41.648544" lon="2.091870">
        <ele>595.30</ele>
        <time>1970-01-01T01:47:06Z</time>
      </trkpt>
      <trkpt lat="41.648556" lon="2.091820">
        <ele>595.80</ele>
        <time>1970-01-01T01:47:07Z</time>
      </trkpt>
      <trkpt lat="41.648560" lon="2.091801">
        <ele>595.90</ele>
        <time>1970-01-01T01:47:08Z</time>
      </trkpt>
      <trkpt lat="41.648566" lon="2.091771">
        <ele>596.20</ele>
        <time>1970-01-01T01:47:09Z</time>
      </trkpt>
      <trkpt lat="41.648583" lon="2.091717">
        <ele>596.60</ele>
        <time>1970-01-01T01:47:11Z</time>
      </trkpt>
      <trkpt lat="41.648598" lon="2.091680">
        <ele>596.90</ele>
        <time>1970-01-01T01:47:12Z</time>
      </trkpt>
      <trkpt lat="41.648614" lon="2.091633">
        <ele>597.20</ele>
        <time>1970-01-01T01:47:13Z</time>
      </trkpt>
      <trkpt lat="41.648634" lon="2.091587">
        <ele>597.50</ele>
        <time>1970-01-01T01:47:14Z</time>
      </trkpt>
      <trkpt lat="41.648652" lon="2.091539">
        <ele>597.90</ele>
        <time>1970-01-01T01:47:16Z</time>
      </trkpt>
      <trkpt lat="41.648672" lon="2.091491">
        <ele>598.20</ele>
        <time>1970-01-01T01:47:17Z</time>
      </trkpt>
      <trkpt lat="41.648683" lon="2.091454">
        <ele>598.50</ele>
        <time>1970-01-01T01:47:19Z</time>
      </trkpt>
      <trkpt lat="41.648698" lon="2.091418">
        <ele>598.70</ele>
        <time>1970-01-01T01:47:20Z</time>
      </trkpt>
      <trkpt lat="41.648718" lon="2.091373">
        <ele>599.00</ele>
        <time>1970-01-01T01:47:21Z</time>
      </trkpt>
      <trkpt lat="41.648737" lon="2.091334">
        <ele>599.30</ele>
        <time>1970-01-01T01:47:23Z</time>
      </trkpt>
      <trkpt lat="41.648757" lon="2.091300">
        <ele>599.50</ele>
        <time>1970-01-01T01:47:24Z</time>
      </trkpt>
      <trkpt lat="41.648778" lon="2.091269">
        <ele>599.70</ele>
        <time>1970-01-01T01:47:25Z</time>
      </trkpt>
      <trkpt lat="41.648821" lon="2.091200">
        <ele>600.10</ele>
        <time>1970-01-01T01:47:27Z</time>
      </trkpt>
      <trkpt lat="41.648867" lon="2.091131">
        <ele>600.40</ele>
        <time>1970-01-01T01:47:29Z</time>
      </trkpt>
      <trkpt lat="41.648882" lon="2.091091">
        <ele>600.50</ele>
        <time>1970-01-01T01:47:30Z</time>
      </trkpt>
      <trkpt lat="41.648895" lon="2.091036">
        <ele>600.70</ele>
        <time>1970-01-01T01:47:31Z</time>
      </trkpt>
      <trkpt lat="41.648902" lon="2.090992">
        <ele>600.90</ele>
        <time>1970-01-01T01:47:33Z</time>
      </trkpt>
      <trkpt lat="41.648903" lon="2.090943">
        <ele>601.10</ele>
        <time>1970-01-01T01:47:34Z</time>
      </trkpt>
      <trkpt lat="41.648899" lon="2.090885">
        <ele>601.40</ele>
        <time>1970-01-01T01:47:35Z</time>
      </trkpt>
      <trkpt lat="41.648898" lon="2.090826">
        <ele>601.60</ele>
        <time>1970-01-01T01:47:37Z</time>
      </trkpt>
      <trkpt lat="41.648899" lon="2.090781">
        <ele>601.90</ele>
        <time>1970-01-01T01:47:38Z</time>
      </trkpt>
      <trkpt lat="41.648895" lon="2.090703">
        <ele>602.30</ele>
        <time>1970-01-01T01:47:40Z</time>
      </trkpt>
      <trkpt lat="41.648890" lon="2.090658">
        <ele>602.50</ele>
        <time>1970-01-01T01:47:41Z</time>
      </trkpt>
      <trkpt lat="41.648876" lon="2.090598">
        <ele>602.90</ele>
        <time>1970-01-01T01:47:43Z</time>
      </trkpt>
      <trkpt lat="41.648849" lon="2.090539">
        <ele>603.30</ele>
        <time>1970-01-01T01:47:45Z</time>
      </trkpt>
      <trkpt lat="41.648827" lon="2.090497">
        <ele>603.60</ele>
        <time>1970-01-01T01:47:46Z</time>
      </trkpt>
      <trkpt lat="41.648806" lon="2.090464">
        <ele>603.90</ele>
        <time>1970-01-01T01:47:47Z</time>
      </trkpt>
      <trkpt lat="41.648780" lon="2.090435">
        <ele>604.10</ele>
        <time>1970-01-01T01:47:48Z</time>
      </trkpt>
      <trkpt lat="41.648745" lon="2.090397">
        <ele>604.50</ele>
        <time>1970-01-01T01:47:49Z</time>
      </trkpt>
      <trkpt lat="41.648712" lon="2.090363">
        <ele>604.80</ele>
        <time>1970-01-01T01:47:50Z</time>
      </trkpt>
      <trkpt lat="41.648669" lon="2.090322">
        <ele>605.20</ele>
        <time>1970-01-01T01:47:52Z</time>
      </trkpt>
      <trkpt lat="41.648639" lon="2.090284">
        <ele>605.50</ele>
        <time>1970-01-01T01:47:53Z</time>
      </trkpt>
      <trkpt lat="41.648616" lon="2.090245">
        <ele>605.70</ele>
        <time>1970-01-01T01:47:54Z</time>
      </trkpt>
      <trkpt lat="41.648597" lon="2.090192">
        <ele>606.00</ele>
        <time>1970-01-01T01:47:55Z</time>
      </trkpt>
      <trkpt lat="41.648593" lon="2.090119">
        <ele>606.40</ele>
        <time>1970-01-01T01:47:57Z</time>
      </trkpt>
      <trkpt lat="41.648611" lon="2.090058">
        <ele>606.70</ele>
        <time>1970-01-01T01:47:58Z</time>
      </trkpt>
      <trkpt lat="41.648636" lon="2.090012">
        <ele>607.00</ele>
        <time>1970-01-01T01:47:59Z</time>
      </trkpt>
      <trkpt lat="41.648677" lon="2.089963">
        <ele>607.30</ele>
        <time>1970-01-01T01:48:01Z</time>
      </trkpt>
      <trkpt lat="41.648729" lon="2.089918">
        <ele>607.70</ele>
        <time>1970-01-01T01:48:02Z</time>
      </trkpt>
      <trkpt lat="41.648767" lon="2.089879">
        <ele>607.90</ele>
        <time>1970-01-01T01:48:03Z</time>
      </trkpt>
      <trkpt lat="41.648820" lon="2.089819">
        <ele>608.30</ele>
        <time>1970-01-01T01:48:05Z</time>
      </trkpt>
      <trkpt lat="41.648854" lon="2.089764">
        <ele>608.50</ele>
        <time>1970-01-01T01:48:06Z</time>
      </trkpt>
      <trkpt lat="41.648873" lon="2.089641">
        <ele>608.90</ele>
        <time>1970-01-01T01:48:08Z</time>
      </trkpt>
      <trkpt lat="41.648873" lon="2.089573">
        <ele>609.10</ele>
        <time>1970-01-01T01:48:09Z</time>
      </trkpt>
      <trkpt lat="41.648871" lon="2.089505">
        <ele>609.30</ele>
        <time>1970-01-01T01:48:10Z</time>
      </trkpt>
      <trkpt lat="41.648871" lon="2.089446">
        <ele>609.40</ele>
        <time>1970-01-01T01:48:11Z</time>
      </trkpt>
      <trkpt lat="41.648876" lon="2.089386">
        <ele>609.50</ele>
        <time>1970-01-01T01:48:12Z</time>
      </trkpt>
      <trkpt lat="41.648898" lon="2.089319">
        <ele>609.70</ele>
        <time>1970-01-01T01:48:13Z</time>
      </trkpt>
      <trkpt lat="41.648950" lon="2.089254">
        <ele>609.80</ele>
        <time>1970-01-01T01:48:15Z</time>
      </trkpt>
      <trkpt lat="41.649027" lon="2.089221">
        <ele>610.00</ele>
        <time>1970-01-01T01:48:17Z</time>
      </trkpt>
      <trkpt lat="41.649075" lon="2.089204">
        <ele>610.10</ele>
        <time>1970-01-01T01:48:18Z</time>
      </trkpt>
      <trkpt lat="41.649126" lon="2.089190">
        <ele>610.10</ele>
        <time>1970-01-01T01:48:19Z</time>
      </trkpt>
      <trkpt lat="41.649196" lon="2.089163">
        <ele>610.20</ele>
        <time>1970-01-01T01:48:21Z</time>
      </trkpt>
      <trkpt lat="41.649284" lon="2.089139">
        <ele>610.40</ele>
        <time>1970-01-01T01:48:23Z</time>
      </trkpt>
      <trkpt lat="41.649327" lon="2.089133">
        <ele>610.40</ele>
        <time>1970-01-01T01:48:24Z</time>
      </trkpt>
      <trkpt lat="41.649375" lon="2.089144">
        <ele>610.50</ele>
        <time>1970-01-01T01:48:25Z</time>
      </trkpt>
      <trkpt lat="41.649415" lon="2.089154">
        <ele>610.50</ele>
        <time>1970-01-01T01:48:27Z</time>
      </trkpt>
      <trkpt lat="41.649455" lon="2.089156">
        <ele>610.50</ele>
        <time>1970-01-01T01:48:28Z</time>
      </trkpt>
      <trkpt lat="41.649514" lon="2.089155">
        <ele>610.60</ele>
        <time>1970-01-01T01:48:29Z</time>
      </trkpt>
      <trkpt lat="41.649577" lon="2.089155">
        <ele>610.60</ele>
        <time>1970-01-01T01:48:30Z</time>
      </trkpt>
      <trkpt lat="41.649628" lon="2.089160">
        <ele>610.60</ele>
        <time>1970-01-01T01:48:32Z</time>
      </trkpt>
      <trkpt lat="41.649668" lon="2.089166">
        <ele>610.60</ele>
        <time>1970-01-01T01:48:33Z</time>
      </trkpt>
      <trkpt lat="41.649742" lon="2.089189">
        <ele>610.60</ele>
        <time>1970-01-01T01:48:35Z</time>
      </trkpt>
      <trkpt lat="41.649786" lon="2.089206">
        <ele>610.50</ele>
        <time>1970-01-01T01:48:36Z</time>
      </trkpt>
      <trkpt lat="41.649834" lon="2.089214">
        <ele>610.50</ele>
        <time>1970-01-01T01:48:37Z</time>
      </trkpt>
      <trkpt lat="41.649882" lon="2.089211">
        <ele>610.50</ele>
        <time>1970-01-01T01:48:38Z</time>
      </trkpt>
      <trkpt lat="41.649945" lon="2.089195">
        <ele>610.40</ele>
        <time>1970-01-01T01:48:40Z</time>
      </trkpt>
      <trkpt lat="41.649996" lon="2.089168">
        <ele>610.30</ele>
        <time>1970-01-01T01:48:41Z</time>
      </trkpt>
      <trkpt lat="41.650045" lon="2.089152">
        <ele>610.20</ele>
        <time>1970-01-01T01:48:42Z</time>
      </trkpt>
      <trkpt lat="41.650149" lon="2.089126">
        <ele>610.00</ele>
        <time>1970-01-01T01:48:44Z</time>
      </trkpt>
      <trkpt lat="41.650248" lon="2.089129">
        <ele>609.70</ele>
        <time>1970-01-01T01:48:46Z</time>
      </trkpt>
      <trkpt lat="41.650294" lon="2.089141">
        <ele>609.60</ele>
        <time>1970-01-01T01:48:47Z</time>
      </trkpt>
      <trkpt lat="41.650336" lon="2.089157">
        <ele>609.40</ele>
        <time>1970-01-01T01:48:48Z</time>
      </trkpt>
      <trkpt lat="41.650382" lon="2.089175">
        <ele>609.30</ele>
        <time>1970-01-01T01:48:49Z</time>
      </trkpt>
      <trkpt lat="41.650482" lon="2.089219">
        <ele>608.80</ele>
        <time>1970-01-01T01:48:51Z</time>
      </trkpt>
      <trkpt lat="41.650585" lon="2.089239">
        <ele>608.30</ele>
        <time>1970-01-01T01:48:53Z</time>
      </trkpt>
      <trkpt lat="41.650639" lon="2.089234">
        <ele>608.10</ele>
        <time>1970-01-01T01:48:54Z</time>
      </trkpt>
      <trkpt lat="41.650746" lon="2.089178">
        <ele>607.60</ele>
        <time>1970-01-01T01:48:56Z</time>
      </trkpt>
      <trkpt lat="41.650797" lon="2.089145">
        <ele>607.30</ele>
        <time>1970-01-01T01:48:57Z</time>
      </trkpt>
      <trkpt lat="41.650882" lon="2.089086">
        <ele>606.90</ele>
        <time>1970-01-01T01:48:59Z</time>
      </trkpt>
      <trkpt lat="41.650925" lon="2.089067">
        <ele>606.70</ele>
        <time>1970-01-01T01:49:00Z</time>
      </trkpt>
      <trkpt lat="41.651024" lon="2.089037">
        <ele>606.10</ele>
        <time>1970-01-01T01:49:02Z</time>
      </trkpt>
      <trkpt lat="41.651140" lon="2.089008">
        <ele>605.40</ele>
        <time>1970-01-01T01:49:04Z</time>
      </trkpt>
      <trkpt lat="41.651202" lon="2.088998">
        <ele>605.00</ele>
        <time>1970-01-01T01:49:05Z</time>
      </trkpt>
      <trkpt lat="41.651264" lon="2.088992">
        <ele>604.60</ele>
        <time>1970-01-01T01:49:06Z</time>
      </trkpt>
      <trkpt lat="41.651389" lon="2.088961">
        <ele>603.90</ele>
        <time>1970-01-01T01:49:08Z</time>
      </trkpt>
      <trkpt lat="41.651503" lon="2.088871">
        <ele>603.20</ele>
        <time>1970-01-01T01:49:10Z</time>
      </trkpt>
      <trkpt lat="41.651545" lon="2.088806">
        <ele>603.00</ele>
        <time>1970-01-01T01:49:11Z</time>
      </trkpt>
      <trkpt lat="41.651565" lon="2.088733">
        <ele>602.90</ele>
        <time>1970-01-01T01:49:12Z</time>
      </trkpt>
      <trkpt lat="41.651548" lon="2.088577">
        <ele>602.70</ele>
        <time>1970-01-01T01:49:14Z</time>
      </trkpt>
      <trkpt lat="41.651490" lon="2.088422">
        <ele>602.60</ele>
        <time>1970-01-01T01:49:16Z</time>
      </trkpt>
      <trkpt lat="41.651471" lon="2.088343">
        <ele>602.50</ele>
        <time>1970-01-01T01:49:17Z</time>
      </trkpt>
      <trkpt lat="41.651466" lon="2.088196">
        <ele>602.50</ele>
        <time>1970-01-01T01:49:19Z</time>
      </trkpt>
      <trkpt lat="41.651481" lon="2.088132">
        <ele>602.50</ele>
        <time>1970-01-01T01:49:20Z</time>
      </trkpt>
      <trkpt lat="41.651505" lon="2.088033">
        <ele>602.50</ele>
        <time>1970-01-01T01:49:22Z</time>
      </trkpt>
      <trkpt lat="41.651520" lon="2.087932">
        <ele>602.50</ele>
        <time>1970-01-01T01:49:24Z</time>
      </trkpt>
      <trkpt lat="41.651535" lon="2.087869">
        <ele>602.50</ele>
        <time>1970-01-01T01:49:25Z</time>
      </trkpt>
      <trkpt lat="41.651554" lon="2.087809">
        <ele>602.50</ele>
        <time>1970-01-01T01:49:26Z</time>
      </trkpt>
      <trkpt lat="41.651589" lon="2.087716">
        <ele>602.50</ele>
        <time>1970-01-01T01:49:28Z</time>
      </trkpt>
      <trkpt lat="41.651647" lon="2.087607">
        <ele>602.50</ele>
        <time>1970-01-01T01:49:29Z</time>
      </trkpt>
      <trkpt lat="41.651685" lon="2.087558">
        <ele>602.50</ele>
        <time>1970-01-01T01:49:31Z</time>
      </trkpt>
      <trkpt lat="41.651725" lon="2.087517">
        <ele>602.40</ele>
        <time>1970-01-01T01:49:32Z</time>
      </trkpt>
      <trkpt lat="41.651768" lon="2.087469">
        <ele>602.40</ele>
        <time>1970-01-01T01:49:33Z</time>
      </trkpt>
      <trkpt lat="41.651837" lon="2.087375">
        <ele>602.40</ele>
        <time>1970-01-01T01:49:35Z</time>
      </trkpt>
      <trkpt lat="41.651908" lon="2.087306">
        <ele>602.40</ele>
        <time>1970-01-01T01:49:37Z</time>
      </trkpt>
      <trkpt lat="41.651985" lon="2.087252">
        <ele>602.60</ele>
        <time>1970-01-01T01:49:39Z</time>
      </trkpt>
      <trkpt lat="41.652024" lon="2.087225">
        <ele>602.70</ele>
        <time>1970-01-01T01:49:40Z</time>
      </trkpt>
      <trkpt lat="41.652081" lon="2.087184">
        <ele>602.80</ele>
        <time>1970-01-01T01:49:42Z</time>
      </trkpt>
      <trkpt lat="41.652163" lon="2.087126">
        <ele>603.10</ele>
        <time>1970-01-01T01:49:44Z</time>
      </trkpt>
      <trkpt lat="41.652198" lon="2.087092">
        <ele>603.30</ele>
        <time>1970-01-01T01:49:46Z</time>
      </trkpt>
      <trkpt lat="41.652246" lon="2.087046">
        <ele>603.50</ele>
        <time>1970-01-01T01:49:48Z</time>
      </trkpt>
      <trkpt lat="41.652286" lon="2.087029">
        <ele>603.70</ele>
        <time>1970-01-01T01:49:49Z</time>
      </trkpt>
      <trkpt lat="41.652332" lon="2.087009">
        <ele>603.90</ele>
        <time>1970-01-01T01:49:50Z</time>
      </trkpt>
      <trkpt lat="41.652406" lon="2.086976">
        <ele>604.20</ele>
        <time>1970-01-01T01:49:52Z</time>
      </trkpt>
      <trkpt lat="41.652469" lon="2.086945">
        <ele>604.50</ele>
        <time>1970-01-01T01:49:53Z</time>
      </trkpt>
      <trkpt lat="41.652530" lon="2.086913">
        <ele>604.70</ele>
        <time>1970-01-01T01:49:55Z</time>
      </trkpt>
      <trkpt lat="41.652572" lon="2.086891">
        <ele>604.90</ele>
        <time>1970-01-01T01:49:56Z</time>
      </trkpt>
      <trkpt lat="41.652630" lon="2.086844">
        <ele>605.10</ele>
        <time>1970-01-01T01:49:58Z</time>
      </trkpt>
      <trkpt lat="41.652668" lon="2.086796">
        <ele>605.20</ele>
        <time>1970-01-01T01:49:59Z</time>
      </trkpt>
      <trkpt lat="41.652711" lon="2.086748">
        <ele>605.40</ele>
        <time>1970-01-01T01:50:00Z</time>
      </trkpt>
      <trkpt lat="41.652744" lon="2.086715">
        <ele>605.50</ele>
        <time>1970-01-01T01:50:02Z</time>
      </trkpt>
      <trkpt lat="41.652772" lon="2.086703">
        <ele>605.50</ele>
        <time>1970-01-01T01:50:03Z</time>
      </trkpt>
      <trkpt lat="41.652799" lon="2.086681">
        <ele>605.60</ele>
        <time>1970-01-01T01:50:04Z</time>
      </trkpt>
      <trkpt lat="41.652812" lon="2.086648">
        <ele>605.60</ele>
        <time>1970-01-01T01:50:05Z</time>
      </trkpt>
      <trkpt lat="41.652803" lon="2.086585">
        <ele>605.70</ele>
        <time>1970-01-01T01:50:07Z</time>
      </trkpt>
      <trkpt lat="41.652793" lon="2.086566">
        <ele>605.70</ele>
        <time>1970-01-01T01:50:08Z</time>
      </trkpt>
      <trkpt lat="41.652782" lon="2.086548">
        <ele>605.80</ele>
        <time>1970-01-01T01:50:09Z</time>
      </trkpt>
      <trkpt lat="41.652759" lon="2.086526">
        <ele>606.00</ele>
        <time>1970-01-01T01:50:10Z</time>
      </trkpt>
      <trkpt lat="41.652716" lon="2.086497">
        <ele>606.30</ele>
        <time>1970-01-01T01:50:11Z</time>
      </trkpt>
      <trkpt lat="41.652691" lon="2.086483">
        <ele>606.50</ele>
        <time>1970-01-01T01:50:12Z</time>
      </trkpt>
      <trkpt lat="41.652659" lon="2.086461">
        <ele>606.70</ele>
        <time>1970-01-01T01:50:14Z</time>
      </trkpt>
      <trkpt lat="41.652634" lon="2.086456">
        <ele>606.90</ele>
        <time>1970-01-01T01:50:15Z</time>
      </trkpt>
      <trkpt lat="41.652598" lon="2.086456">
        <ele>607.10</ele>
        <time>1970-01-01T01:50:17Z</time>
      </trkpt>
      <trkpt lat="41.652566" lon="2.086476">
        <ele>607.30</ele>
        <time>1970-01-01T01:50:18Z</time>
      </trkpt>
      <trkpt lat="41.652554" lon="2.086481">
        <ele>607.40</ele>
        <time>1970-01-01T01:50:19Z</time>
      </trkpt>
      <trkpt lat="41.652524" lon="2.086486">
        <ele>607.60</ele>
        <time>1970-01-01T01:50:20Z</time>
      </trkpt>
      <trkpt lat="41.652471" lon="2.086488">
        <ele>607.90</ele>
        <time>1970-01-01T01:50:21Z</time>
      </trkpt>
      <trkpt lat="41.652427" lon="2.086490">
        <ele>608.20</ele>
        <time>1970-01-01T01:50:23Z</time>
      </trkpt>
      <trkpt lat="41.652397" lon="2.086486">
        <ele>608.40</ele>
        <time>1970-01-01T01:50:24Z</time>
      </trkpt>
      <trkpt lat="41.652339" lon="2.086476">
        <ele>608.70</ele>
        <time>1970-01-01T01:50:26Z</time>
      </trkpt>
      <trkpt lat="41.652300" lon="2.086477">
        <ele>609.00</ele>
        <time>1970-01-01T01:50:27Z</time>
      </trkpt>
      <trkpt lat="41.652265" lon="2.086472">
        <ele>609.20</ele>
        <time>1970-01-01T01:50:28Z</time>
      </trkpt>
      <trkpt lat="41.652225" lon="2.086464">
        <ele>609.40</ele>
        <time>1970-01-01T01:50:29Z</time>
      </trkpt>
      <trkpt lat="41.652193" lon="2.086459">
        <ele>609.60</ele>
        <time>1970-01-01T01:50:30Z</time>
      </trkpt>
      <trkpt lat="41.652153" lon="2.086456">
        <ele>609.80</ele>
        <time>1970-01-01T01:50:32Z</time>
      </trkpt>
      <trkpt lat="41.652113" lon="2.086445">
        <ele>610.00</ele>
        <time>1970-01-01T01:50:33Z</time>
      </trkpt>
      <trkpt lat="41.652075" lon="2.086422">
        <ele>610.20</ele>
        <time>1970-01-01T01:50:34Z</time>
      </trkpt>
      <trkpt lat="41.652042" lon="2.086390">
        <ele>610.30</ele>
        <time>1970-01-01T01:50:36Z</time>
      </trkpt>
      <trkpt lat="41.652008" lon="2.086358">
        <ele>610.50</ele>
        <time>1970-01-01T01:50:37Z</time>
      </trkpt>
      <trkpt lat="41.651950" lon="2.086313">
        <ele>610.80</ele>
        <time>1970-01-01T01:50:39Z</time>
      </trkpt>
      <trkpt lat="41.651891" lon="2.086280">
        <ele>611.00</ele>
        <time>1970-01-01T01:50:41Z</time>
      </trkpt>
      <trkpt lat="41.651867" lon="2.086264">
        <ele>611.10</ele>
        <time>1970-01-01T01:50:42Z</time>
      </trkpt>
      <trkpt lat="41.651835" lon="2.086220">
        <ele>611.20</ele>
        <time>1970-01-01T01:50:43Z</time>
      </trkpt>
      <trkpt lat="41.651807" lon="2.086175">
        <ele>611.30</ele>
        <time>1970-01-01T01:50:45Z</time>
      </trkpt>
      <trkpt lat="41.651779" lon="2.086145">
        <ele>611.40</ele>
        <time>1970-01-01T01:50:46Z</time>
      </trkpt>
      <trkpt lat="41.651733" lon="2.086106">
        <ele>611.60</ele>
        <time>1970-01-01T01:50:48Z</time>
      </trkpt>
      <trkpt lat="41.651710" lon="2.086075">
        <ele>611.60</ele>
        <time>1970-01-01T01:50:49Z</time>
      </trkpt>
      <trkpt lat="41.651698" lon="2.086028">
        <ele>611.70</ele>
        <time>1970-01-01T01:50:50Z</time>
      </trkpt>
      <trkpt lat="41.651681" lon="2.085959">
        <ele>611.80</ele>
        <time>1970-01-01T01:50:52Z</time>
      </trkpt>
      <trkpt lat="41.651660" lon="2.085906">
        <ele>611.80</ele>
        <time>1970-01-01T01:50:53Z</time>
      </trkpt>
      <trkpt lat="41.651644" lon="2.085859">
        <ele>611.80</ele>
        <time>1970-01-01T01:50:55Z</time>
      </trkpt>
      <trkpt lat="41.651631" lon="2.085807">
        <ele>611.70</ele>
        <time>1970-01-01T01:50:56Z</time>
      </trkpt>
      <trkpt lat="41.651612" lon="2.085766">
        <ele>611.60</ele>
        <time>1970-01-01T01:50:57Z</time>
      </trkpt>
      <trkpt lat="41.651587" lon="2.085712">
        <ele>611.40</ele>
        <time>1970-01-01T01:50:59Z</time>
      </trkpt>
      <trkpt lat="41.651553" lon="2.085681">
        <ele>611.20</ele>
        <time>1970-01-01T01:51:01Z</time>
      </trkpt>
      <trkpt lat="41.651513" lon="2.085637">
        <ele>611.00</ele>
        <time>1970-01-01T01:51:02Z</time>
      </trkpt>
      <trkpt lat="41.651472" lon="2.085572">
        <ele>610.50</ele>
        <time>1970-01-01T01:51:03Z</time>
      </trkpt>
      <trkpt lat="41.651435" lon="2.085486">
        <ele>610.00</ele>
        <time>1970-01-01T01:51:05Z</time>
      </trkpt>
      <trkpt lat="41.651407" lon="2.085407">
        <ele>609.50</ele>
        <time>1970-01-01T01:51:06Z</time>
      </trkpt>
      <trkpt lat="41.651368" lon="2.085272">
        <ele>608.70</ele>
        <time>1970-01-01T01:51:08Z</time>
      </trkpt>
      <trkpt lat="41.651350" lon="2.085151">
        <ele>607.90</ele>
        <time>1970-01-01T01:51:10Z</time>
      </trkpt>
      <trkpt lat="41.651338" lon="2.085094">
        <ele>607.50</ele>
        <time>1970-01-01T01:51:11Z</time>
      </trkpt>
      <trkpt lat="41.651311" lon="2.084979">
        <ele>606.70</ele>
        <time>1970-01-01T01:51:13Z</time>
      </trkpt>
      <trkpt lat="41.651290" lon="2.084916">
        <ele>606.30</ele>
        <time>1970-01-01T01:51:14Z</time>
      </trkpt>
      <trkpt lat="41.651264" lon="2.084860">
        <ele>606.00</ele>
        <time>1970-01-01T01:51:15Z</time>
      </trkpt>
      <trkpt lat="41.651176" lon="2.084805">
        <ele>605.40</ele>
        <time>1970-01-01T01:51:17Z</time>
      </trkpt>
      <trkpt lat="41.651074" lon="2.084761">
        <ele>604.90</ele>
        <time>1970-01-01T01:51:19Z</time>
      </trkpt>
      <trkpt lat="41.651026" lon="2.084724">
        <ele>604.60</ele>
        <time>1970-01-01T01:51:20Z</time>
      </trkpt>
      <trkpt lat="41.650985" lon="2.084685">
        <ele>604.40</ele>
        <time>1970-01-01T01:51:21Z</time>
      </trkpt>
      <trkpt lat="41.650941" lon="2.084623">
        <ele>604.20</ele>
        <time>1970-01-01T01:51:23Z</time>
      </trkpt>
      <trkpt lat="41.650909" lon="2.084607">
        <ele>604.10</ele>
        <time>1970-01-01T01:51:24Z</time>
      </trkpt>
      <trkpt lat="41.650795" lon="2.084574">
        <ele>603.80</ele>
        <time>1970-01-01T01:51:26Z</time>
      </trkpt>
      <trkpt lat="41.650736" lon="2.084552">
        <ele>603.70</ele>
        <time>1970-01-01T01:51:27Z</time>
      </trkpt>
      <trkpt lat="41.650664" lon="2.084551">
        <ele>603.60</ele>
        <time>1970-01-01T01:51:29Z</time>
      </trkpt>
      <trkpt lat="41.650625" lon="2.084567">
        <ele>603.60</ele>
        <time>1970-01-01T01:51:30Z</time>
      </trkpt>
      <trkpt lat="41.650586" lon="2.084538">
        <ele>603.50</ele>
        <time>1970-01-01T01:51:31Z</time>
      </trkpt>
      <trkpt lat="41.650544" lon="2.084527">
        <ele>603.50</ele>
        <time>1970-01-01T01:51:32Z</time>
      </trkpt>
      <trkpt lat="41.650449" lon="2.084529">
        <ele>603.40</ele>
        <time>1970-01-01T01:51:34Z</time>
      </trkpt>
      <trkpt lat="41.650403" lon="2.084550">
        <ele>603.30</ele>
        <time>1970-01-01T01:51:35Z</time>
      </trkpt>
      <trkpt lat="41.650359" lon="2.084571">
        <ele>603.30</ele>
        <time>1970-01-01T01:51:36Z</time>
      </trkpt>
      <trkpt lat="41.650274" lon="2.084597">
        <ele>603.10</ele>
        <time>1970-01-01T01:51:38Z</time>
      </trkpt>
      <trkpt lat="41.650194" lon="2.084592">
        <ele>602.80</ele>
        <time>1970-01-01T01:51:40Z</time>
      </trkpt>
      <trkpt lat="41.650164" lon="2.084570">
        <ele>602.70</ele>
        <time>1970-01-01T01:51:41Z</time>
      </trkpt>
      <trkpt lat="41.650131" lon="2.084500">
        <ele>602.40</ele>
        <time>1970-01-01T01:51:43Z</time>
      </trkpt>
      <trkpt lat="41.650105" lon="2.084449">
        <ele>602.20</ele>
        <time>1970-01-01T01:51:44Z</time>
      </trkpt>
      <trkpt lat="41.650054" lon="2.084400">
        <ele>601.90</ele>
        <time>1970-01-01T01:51:45Z</time>
      </trkpt>
      <trkpt lat="41.650006" lon="2.084361">
        <ele>601.70</ele>
        <time>1970-01-01T01:51:46Z</time>
      </trkpt>
      <trkpt lat="41.649901" lon="2.084266">
        <ele>601.20</ele>
        <time>1970-01-01T01:51:48Z</time>
      </trkpt>
      <trkpt lat="41.649805" lon="2.084170">
        <ele>601.00</ele>
        <time>1970-01-01T01:51:50Z</time>
      </trkpt>
      <trkpt lat="41.649758" lon="2.084126">
        <ele>600.90</ele>
        <time>1970-01-01T01:51:51Z</time>
      </trkpt>
      <trkpt lat="41.649712" lon="2.084090">
        <ele>600.90</ele>
        <time>1970-01-01T01:51:52Z</time>
      </trkpt>
      <trkpt lat="41.649665" lon="2.084061">
        <ele>600.90</ele>
        <time>1970-01-01T01:51:53Z</time>
      </trkpt>
      <trkpt lat="41.649579" lon="2.084022">
        <ele>601.00</ele>
        <time>1970-01-01T01:51:55Z</time>
      </trkpt>
      <trkpt lat="41.649546" lon="2.084038">
        <ele>601.00</ele>
        <time>1970-01-01T01:51:56Z</time>
      </trkpt>
      <trkpt lat="41.649507" lon="2.084022">
        <ele>601.00</ele>
        <time>1970-01-01T01:51:57Z</time>
      </trkpt>
      <trkpt lat="41.649460" lon="2.084017">
        <ele>601.00</ele>
        <time>1970-01-01T01:51:59Z</time>
      </trkpt>
      <trkpt lat="41.649415" lon="2.084003">
        <ele>600.80</ele>
        <time>1970-01-01T01:52:00Z</time>
      </trkpt>
      <trkpt lat="41.649374" lon="2.083945">
        <ele>600.50</ele>
        <time>1970-01-01T01:52:02Z</time>
      </trkpt>
      <trkpt lat="41.649345" lon="2.083895">
        <ele>600.10</ele>
        <time>1970-01-01T01:52:03Z</time>
      </trkpt>
      <trkpt lat="41.649281" lon="2.083816">
        <ele>599.20</ele>
        <time>1970-01-01T01:52:05Z</time>
      </trkpt>
      <trkpt lat="41.649243" lon="2.083789">
        <ele>598.70</ele>
        <time>1970-01-01T01:52:06Z</time>
      </trkpt>
      <trkpt lat="41.649216" lon="2.083717">
        <ele>598.00</ele>
        <time>1970-01-01T01:52:07Z</time>
      </trkpt>
      <trkpt lat="41.649194" lon="2.083653">
        <ele>597.30</ele>
        <time>1970-01-01T01:52:09Z</time>
      </trkpt>
      <trkpt lat="41.649181" lon="2.083607">
        <ele>596.90</ele>
        <time>1970-01-01T01:52:10Z</time>
      </trkpt>
      <trkpt lat="41.649181" lon="2.083520">
        <ele>596.20</ele>
        <time>1970-01-01T01:52:12Z</time>
      </trkpt>
      <trkpt lat="41.649181" lon="2.083471">
        <ele>595.80</ele>
        <time>1970-01-01T01:52:13Z</time>
      </trkpt>
      <trkpt lat="41.649187" lon="2.083418">
        <ele>595.50</ele>
        <time>1970-01-01T01:52:14Z</time>
      </trkpt>
      <trkpt lat="41.649182" lon="2.083358">
        <ele>595.10</ele>
        <time>1970-01-01T01:52:15Z</time>
      </trkpt>
      <trkpt lat="41.649167" lon="2.083217">
        <ele>594.60</ele>
        <time>1970-01-01T01:52:17Z</time>
      </trkpt>
      <trkpt lat="41.649153" lon="2.083140">
        <ele>594.40</ele>
        <time>1970-01-01T01:52:18Z</time>
      </trkpt>
      <trkpt lat="41.649141" lon="2.083083">
        <ele>594.20</ele>
        <time>1970-01-01T01:52:20Z</time>
      </trkpt>
      <trkpt lat="41.649127" lon="2.083027">
        <ele>594.10</ele>
        <time>1970-01-01T01:52:21Z</time>
      </trkpt>
      <trkpt lat="41.649107" lon="2.082956">
        <ele>593.90</ele>
        <time>1970-01-01T01:52:22Z</time>
      </trkpt>
      <trkpt lat="41.649086" lon="2.082884">
        <ele>593.80</ele>
        <time>1970-01-01T01:52:23Z</time>
      </trkpt>
      <trkpt lat="41.649028" lon="2.082751">
        <ele>593.70</ele>
        <time>1970-01-01T01:52:25Z</time>
      </trkpt>
      <trkpt lat="41.648992" lon="2.082694">
        <ele>593.60</ele>
        <time>1970-01-01T01:52:26Z</time>
      </trkpt>
      <trkpt lat="41.648943" lon="2.082609">
        <ele>593.60</ele>
        <time>1970-01-01T01:52:28Z</time>
      </trkpt>
      <trkpt lat="41.648910" lon="2.082551">
        <ele>593.60</ele>
        <time>1970-01-01T01:52:29Z</time>
      </trkpt>
      <trkpt lat="41.648868" lon="2.082450">
        <ele>593.50</ele>
        <time>1970-01-01T01:52:31Z</time>
      </trkpt>
      <trkpt lat="41.648842" lon="2.082386">
        <ele>593.50</ele>
        <time>1970-01-01T01:52:32Z</time>
      </trkpt>
      <trkpt lat="41.648806" lon="2.082300">
        <ele>593.60</ele>
        <time>1970-01-01T01:52:34Z</time>
      </trkpt>
      <trkpt lat="41.648784" lon="2.082238">
        <ele>593.70</ele>
        <time>1970-01-01T01:52:35Z</time>
      </trkpt>
      <trkpt lat="41.648778" lon="2.082160">
        <ele>594.00</ele>
        <time>1970-01-01T01:52:37Z</time>
      </trkpt>
      <trkpt lat="41.648774" lon="2.082096">
        <ele>594.20</ele>
        <time>1970-01-01T01:52:38Z</time>
      </trkpt>
      <trkpt lat="41.648773" lon="2.082041">
        <ele>594.50</ele>
        <time>1970-01-01T01:52:39Z</time>
      </trkpt>
      <trkpt lat="41.648772" lon="2.082003">
        <ele>594.80</ele>
        <time>1970-01-01T01:52:40Z</time>
      </trkpt>
      <trkpt lat="41.648773" lon="2.081986">
        <ele>594.60</ele>
        <time>1970-01-01T01:52:41Z</time>
      </trkpt>
      <trkpt lat="41.648767" lon="2.081957">
        <ele>594.30</ele>
        <time>1970-01-01T01:52:43Z</time>
      </trkpt>
      <trkpt lat="41.648763" lon="2.081950">
        <ele>594.30</ele>
        <time>1970-01-01T01:52:44Z</time>
      </trkpt>
      <trkpt lat="41.648748" lon="2.081936">
        <ele>594.00</ele>
        <time>1970-01-01T01:52:46Z</time>
      </trkpt>
      <trkpt lat="41.648744" lon="2.081940">
        <ele>593.90</ele>
        <time>1970-01-01T01:52:47Z</time>
      </trkpt>
      <trkpt lat="41.648745" lon="2.081954">
        <ele>593.80</ele>
        <time>1970-01-01T01:52:48Z</time>
      </trkpt>
      <trkpt lat="41.648743" lon="2.081960">
        <ele>593.70</ele>
        <time>1970-01-01T01:52:49Z</time>
      </trkpt>
      <trkpt lat="41.648742" lon="2.081971">
        <ele>593.60</ele>
        <time>1970-01-01T01:52:51Z</time>
      </trkpt>
      <trkpt lat="41.648745" lon="2.081976">
        <ele>593.60</ele>
        <time>1970-01-01T01:52:53Z</time>
      </trkpt>
      <trkpt lat="41.648745" lon="2.081978">
        <ele>593.50</ele>
        <time>1970-01-01T01:52:54Z</time>
      </trkpt>
      <trkpt lat="41.648747" lon="2.081982">
        <ele>593.50</ele>
        <time>1970-01-01T01:52:56Z</time>
      </trkpt>
      <trkpt lat="41.648749" lon="2.081984">
        <ele>593.50</ele>
        <time>1970-01-01T01:52:57Z</time>
      </trkpt>
      <trkpt lat="41.648749" lon="2.081985">
        <ele>593.40</ele>
        <time>1970-01-01T01:52:59Z</time>
      </trkpt>
      <trkpt lat="41.648750" lon="2.081985">
        <ele>593.40</ele>
        <time>1970-01-01T01:53:00Z</time>
      </trkpt>
      <trkpt lat="41.648751" lon="2.081985">
        <ele>593.40</ele>
        <time>1970-01-01T01:53:02Z</time>
      </trkpt>
      <trkpt lat="41.648751" lon="2.081985">
        <ele>593.40</ele>
        <time>1970-01-01T01:53:03Z</time>
      </trkpt>
      <trkpt lat="41.648750" lon="2.081986">
        <ele>593.40</ele>
        <time>1970-01-01T01:53:04Z</time>
      </trkpt>
      <trkpt lat="41.648748" lon="2.081984">
        <ele>593.40</ele>
        <time>1970-01-01T01:53:06Z</time>
      </trkpt>
      <trkpt lat="41.648735" lon="2.081984">
        <ele>593.20</ele>
        <time>1970-01-01T01:53:07Z</time>
      </trkpt>
      <trkpt lat="41.648706" lon="2.082004">
        <ele>592.70</ele>
        <time>1970-01-01T01:53:09Z</time>
      </trkpt>
      <trkpt lat="41.648671" lon="2.082038">
        <ele>592.10</ele>
        <time>1970-01-01T01:53:10Z</time>
      </trkpt>
      <trkpt lat="41.648599" lon="2.082069">
        <ele>591.10</ele>
        <time>1970-01-01T01:53:12Z</time>
      </trkpt>
      <trkpt lat="41.648536" lon="2.082059">
        <ele>590.20</ele>
        <time>1970-01-01T01:53:13Z</time>
      </trkpt>
      <trkpt lat="41.648446" lon="2.082078">
        <ele>589.10</ele>
        <time>1970-01-01T01:53:15Z</time>
      </trkpt>
      <trkpt lat="41.648419" lon="2.082058">
        <ele>588.70</ele>
        <time>1970-01-01T01:53:17Z</time>
      </trkpt>
      <trkpt lat="41.648390" lon="2.082046">
        <ele>588.40</ele>
        <time>1970-01-01T01:53:18Z</time>
      </trkpt>
      <trkpt lat="41.648300" lon="2.081959">
        <ele>586.90</ele>
        <time>1970-01-01T01:53:20Z</time>
      </trkpt>
      <trkpt lat="41.648270" lon="2.081923">
        <ele>586.30</ele>
        <time>1970-01-01T01:53:21Z</time>
      </trkpt>
      <trkpt lat="41.648244" lon="2.081900">
        <ele>585.80</ele>
        <time>1970-01-01T01:53:22Z</time>
      </trkpt>
      <trkpt lat="41.648202" lon="2.081881">
        <ele>585.10</ele>
        <time>1970-01-01T01:53:24Z</time>
      </trkpt>
      <trkpt lat="41.648166" lon="2.081902">
        <ele>584.50</ele>
        <time>1970-01-01T01:53:26Z</time>
      </trkpt>
      <trkpt lat="41.648154" lon="2.081974">
        <ele>583.70</ele>
        <time>1970-01-01T01:53:28Z</time>
      </trkpt>
      <trkpt lat="41.648156" lon="2.082007">
        <ele>583.30</ele>
        <time>1970-01-01T01:53:29Z</time>
      </trkpt>
      <trkpt lat="41.648158" lon="2.082040">
        <ele>582.90</ele>
        <time>1970-01-01T01:53:30Z</time>
      </trkpt>
      <trkpt lat="41.648120" lon="2.082076">
        <ele>582.30</ele>
        <time>1970-01-01T01:53:32Z</time>
      </trkpt>
      <trkpt lat="41.648075" lon="2.082120">
        <ele>581.60</ele>
        <time>1970-01-01T01:53:34Z</time>
      </trkpt>
      <trkpt lat="41.648046" lon="2.082117">
        <ele>581.20</ele>
        <time>1970-01-01T01:53:35Z</time>
      </trkpt>
      <trkpt lat="41.648001" lon="2.082120">
        <ele>580.60</ele>
        <time>1970-01-01T01:53:37Z</time>
      </trkpt>
      <trkpt lat="41.647977" lon="2.082091">
        <ele>580.30</ele>
        <time>1970-01-01T01:53:38Z</time>
      </trkpt>
      <trkpt lat="41.647954" lon="2.082058">
        <ele>579.90</ele>
        <time>1970-01-01T01:53:39Z</time>
      </trkpt>
      <trkpt lat="41.647929" lon="2.082039">
        <ele>579.50</ele>
        <time>1970-01-01T01:53:40Z</time>
      </trkpt>
      <trkpt lat="41.647884" lon="2.082041">
        <ele>579.00</ele>
        <time>1970-01-01T01:53:42Z</time>
      </trkpt>
      <trkpt lat="41.647848" lon="2.082106">
        <ele>578.40</ele>
        <time>1970-01-01T01:53:43Z</time>
      </trkpt>
      <trkpt lat="41.647821" lon="2.082145">
        <ele>578.10</ele>
        <time>1970-01-01T01:53:44Z</time>
      </trkpt>
      <trkpt lat="41.647799" lon="2.082230">
        <ele>577.60</ele>
        <time>1970-01-01T01:53:46Z</time>
      </trkpt>
      <trkpt lat="41.647775" lon="2.082296">
        <ele>577.20</ele>
        <time>1970-01-01T01:53:47Z</time>
      </trkpt>
      <trkpt lat="41.647730" lon="2.082333">
        <ele>576.80</ele>
        <time>1970-01-01T01:53:48Z</time>
      </trkpt>
      <trkpt lat="41.647629" lon="2.082365">
        <ele>576.10</ele>
        <time>1970-01-01T01:53:50Z</time>
      </trkpt>
      <trkpt lat="41.647522" lon="2.082378">
        <ele>575.30</ele>
        <time>1970-01-01T01:53:52Z</time>
      </trkpt>
      <trkpt lat="41.647426" lon="2.082396">
        <ele>574.40</ele>
        <time>1970-01-01T01:53:54Z</time>
      </trkpt>
      <trkpt lat="41.647385" lon="2.082408">
        <ele>573.80</ele>
        <time>1970-01-01T01:53:55Z</time>
      </trkpt>
      <trkpt lat="41.647291" lon="2.082382">
        <ele>572.50</ele>
        <time>1970-01-01T01:53:57Z</time>
      </trkpt>
      <trkpt lat="41.647249" lon="2.082358">
        <ele>571.90</ele>
        <time>1970-01-01T01:53:58Z</time>
      </trkpt>
      <trkpt lat="41.647198" lon="2.082339">
        <ele>571.20</ele>
        <time>1970-01-01T01:53:59Z</time>
      </trkpt>
      <trkpt lat="41.647143" lon="2.082324">
        <ele>570.50</ele>
        <time>1970-01-01T01:54:00Z</time>
      </trkpt>
      <trkpt lat="41.647046" lon="2.082352">
        <ele>569.40</ele>
        <time>1970-01-01T01:54:02Z</time>
      </trkpt>
      <trkpt lat="41.647007" lon="2.082396">
        <ele>568.90</ele>
        <time>1970-01-01T01:54:03Z</time>
      </trkpt>
      <trkpt lat="41.646935" lon="2.082486">
        <ele>568.00</ele>
        <time>1970-01-01T01:54:05Z</time>
      </trkpt>
      <trkpt lat="41.646842" lon="2.082565">
        <ele>566.80</ele>
        <time>1970-01-01T01:54:07Z</time>
      </trkpt>
      <trkpt lat="41.646796" lon="2.082598">
        <ele>566.10</ele>
        <time>1970-01-01T01:54:08Z</time>
      </trkpt>
      <trkpt lat="41.646753" lon="2.082624">
        <ele>565.40</ele>
        <time>1970-01-01T01:54:09Z</time>
      </trkpt>
      <trkpt lat="41.646711" lon="2.082646">
        <ele>564.70</ele>
        <time>1970-01-01T01:54:10Z</time>
      </trkpt>
      <trkpt lat="41.646621" lon="2.082691">
        <ele>563.40</ele>
        <time>1970-01-01T01:54:12Z</time>
      </trkpt>
      <trkpt lat="41.646568" lon="2.082712">
        <ele>562.70</ele>
        <time>1970-01-01T01:54:13Z</time>
      </trkpt>
      <trkpt lat="41.646511" lon="2.082727">
        <ele>562.10</ele>
        <time>1970-01-01T01:54:14Z</time>
      </trkpt>
      <trkpt lat="41.646449" lon="2.082742">
        <ele>561.90</ele>
        <time>1970-01-01T01:54:15Z</time>
      </trkpt>
      <trkpt lat="41.646347" lon="2.082740">
        <ele>561.80</ele>
        <time>1970-01-01T01:54:17Z</time>
      </trkpt>
      <trkpt lat="41.646291" lon="2.082721">
        <ele>561.70</ele>
        <time>1970-01-01T01:54:19Z</time>
      </trkpt>
      <trkpt lat="41.646217" lon="2.082747">
        <ele>561.60</ele>
        <time>1970-01-01T01:54:21Z</time>
      </trkpt>
      <trkpt lat="41.646145" lon="2.082867">
        <ele>561.40</ele>
        <time>1970-01-01T01:54:23Z</time>
      </trkpt>
      <trkpt lat="41.646110" lon="2.082900">
        <ele>561.30</ele>
        <time>1970-01-01T01:54:24Z</time>
      </trkpt>
      <trkpt lat="41.646067" lon="2.082950">
        <ele>561.20</ele>
        <time>1970-01-01T01:54:26Z</time>
      </trkpt>
      <trkpt lat="41.646035" lon="2.082971">
        <ele>561.10</ele>
        <time>1970-01-01T01:54:27Z</time>
      </trkpt>
      <trkpt lat="41.646026" lon="2.082975">
        <ele>561.00</ele>
        <time>1970-01-01T01:54:28Z</time>
      </trkpt>
      <trkpt lat="41.646022" lon="2.082975">
        <ele>561.00</ele>
        <time>1970-01-01T01:54:30Z</time>
      </trkpt>
      <trkpt lat="41.646027" lon="2.082975">
        <ele>561.00</ele>
        <time>1970-01-01T01:54:31Z</time>
      </trkpt>
      <trkpt lat="41.646026" lon="2.082976">
        <ele>561.00</ele>
        <time>1970-01-01T01:54:32Z</time>
      </trkpt>
      <trkpt lat="41.646028" lon="2.082979">
        <ele>561.00</ele>
        <time>1970-01-01T01:54:33Z</time>
      </trkpt>
      <trkpt lat="41.646029" lon="2.082981">
        <ele>561.00</ele>
        <time>1970-01-01T01:54:34Z</time>
      </trkpt>
      <trkpt lat="41.646030" lon="2.082982">
        <ele>561.00</ele>
        <time>1970-01-01T01:54:36Z</time>
      </trkpt>
      <trkpt lat="41.646024" lon="2.082987">
        <ele>561.00</ele>
        <time>1970-01-01T01:54:37Z</time>
      </trkpt>
      <trkpt lat="41.646008" lon="2.082996">
        <ele>560.90</ele>
        <time>1970-01-01T01:54:38Z</time>
      </trkpt>
      <trkpt lat="41.645986" lon="2.083005">
        <ele>560.80</ele>
        <time>1970-01-01T01:54:40Z</time>
      </trkpt>
      <trkpt lat="41.645941" lon="2.083020">
        <ele>560.60</ele>
        <time>1970-01-01T01:54:41Z</time>
      </trkpt>
      <trkpt lat="41.645897" lon="2.083032">
        <ele>560.30</ele>
        <time>1970-01-01T01:54:43Z</time>
      </trkpt>
      <trkpt lat="41.645850" lon="2.083039">
        <ele>559.90</ele>
        <time>1970-01-01T01:54:44Z</time>
      </trkpt>
      <trkpt lat="41.645753" lon="2.083033">
        <ele>558.90</ele>
        <time>1970-01-01T01:54:45Z</time>
      </trkpt>
      <trkpt lat="41.645687" lon="2.083041">
        <ele>558.10</ele>
        <time>1970-01-01T01:54:46Z</time>
      </trkpt>
      <trkpt lat="41.645613" lon="2.083058">
        <ele>557.30</ele>
        <time>1970-01-01T01:54:47Z</time>
      </trkpt>
      <trkpt lat="41.645536" lon="2.083064">
        <ele>556.50</ele>
        <time>1970-01-01T01:54:48Z</time>
      </trkpt>
      <trkpt lat="41.645397" lon="2.083060">
        <ele>555.20</ele>
        <time>1970-01-01T01:54:50Z</time>
      </trkpt>
      <trkpt lat="41.645270" lon="2.083077">
        <ele>554.10</ele>
        <time>1970-01-01T01:54:52Z</time>
      </trkpt>
      <trkpt lat="41.645219" lon="2.083080">
        <ele>553.70</ele>
        <time>1970-01-01T01:54:53Z</time>
      </trkpt>
      <trkpt lat="41.645095" lon="2.083070">
        <ele>552.90</ele>
        <time>1970-01-01T01:54:55Z</time>
      </trkpt>
      <trkpt lat="41.644949" lon="2.083071">
        <ele>552.10</ele>
        <time>1970-01-01T01:54:57Z</time>
      </trkpt>
      <trkpt lat="41.644878" lon="2.083060">
        <ele>551.70</ele>
        <time>1970-01-01T01:54:58Z</time>
      </trkpt>
      <trkpt lat="41.644800" lon="2.083044">
        <ele>551.00</ele>
        <time>1970-01-01T01:54:59Z</time>
      </trkpt>
      <trkpt lat="41.644721" lon="2.083039">
        <ele>550.40</ele>
        <time>1970-01-01T01:55:00Z</time>
      </trkpt>
      <trkpt lat="41.644563" lon="2.083055">
        <ele>549.50</ele>
        <time>1970-01-01T01:55:02Z</time>
      </trkpt>
      <trkpt lat="41.644484" lon="2.083062">
        <ele>549.20</ele>
        <time>1970-01-01T01:55:03Z</time>
      </trkpt>
      <trkpt lat="41.644313" lon="2.083069">
        <ele>548.50</ele>
        <time>1970-01-01T01:55:05Z</time>
      </trkpt>
      <trkpt lat="41.644230" lon="2.083080">
        <ele>548.30</ele>
        <time>1970-01-01T01:55:06Z</time>
      </trkpt>
      <trkpt lat="41.644150" lon="2.083094">
        <ele>548.10</ele>
        <time>1970-01-01T01:55:07Z</time>
      </trkpt>
      <trkpt lat="41.644002" lon="2.083115">
        <ele>548.00</ele>
        <time>1970-01-01T01:55:09Z</time>
      </trkpt>
      <trkpt lat="41.643864" lon="2.083133">
        <ele>548.10</ele>
        <time>1970-01-01T01:55:11Z</time>
      </trkpt>
      <trkpt lat="41.643737" lon="2.083144">
        <ele>548.30</ele>
        <time>1970-01-01T01:55:13Z</time>
      </trkpt>
      <trkpt lat="41.643676" lon="2.083153">
        <ele>548.50</ele>
        <time>1970-01-01T01:55:14Z</time>
      </trkpt>
      <trkpt lat="41.643575" lon="2.083167">
        <ele>548.90</ele>
        <time>1970-01-01T01:55:16Z</time>
      </trkpt>
      <trkpt lat="41.643490" lon="2.083168">
        <ele>549.20</ele>
        <time>1970-01-01T01:55:18Z</time>
      </trkpt>
      <trkpt lat="41.643450" lon="2.083176">
        <ele>549.40</ele>
        <time>1970-01-01T01:55:19Z</time>
      </trkpt>
      <trkpt lat="41.643381" lon="2.083186">
        <ele>549.80</ele>
        <time>1970-01-01T01:55:21Z</time>
      </trkpt>
      <trkpt lat="41.643300" lon="2.083188">
        <ele>550.30</ele>
        <time>1970-01-01T01:55:23Z</time>
      </trkpt>
      <trkpt lat="41.643270" lon="2.083191">
        <ele>550.60</ele>
        <time>1970-01-01T01:55:24Z</time>
      </trkpt>
      <trkpt lat="41.643190" lon="2.083208">
        <ele>551.20</ele>
        <time>1970-01-01T01:55:26Z</time>
      </trkpt>
      <trkpt lat="41.643121" lon="2.083210">
        <ele>551.70</ele>
        <time>1970-01-01T01:55:27Z</time>
      </trkpt>
      <trkpt lat="41.643151" lon="2.083218">
        <ele>552.00</ele>
        <time>1970-01-01T01:55:28Z</time>
      </trkpt>
      <trkpt lat="41.643103" lon="2.083215">
        <ele>552.40</ele>
        <time>1970-01-01T01:55:30Z</time>
      </trkpt>
      <trkpt lat="41.643062" lon="2.083214">
        <ele>552.70</ele>
        <time>1970-01-01T01:55:31Z</time>
      </trkpt>
      <trkpt lat="41.643001" lon="2.083203">
        <ele>553.10</ele>
        <time>1970-01-01T01:55:33Z</time>
      </trkpt>
      <trkpt lat="41.642936" lon="2.083196">
        <ele>553.50</ele>
        <time>1970-01-01T01:55:34Z</time>
      </trkpt>
      <trkpt lat="41.642896" lon="2.083192">
        <ele>553.80</ele>
        <time>1970-01-01T01:55:36Z</time>
      </trkpt>
      <trkpt lat="41.642856" lon="2.083188">
        <ele>554.00</ele>
        <time>1970-01-01T01:55:37Z</time>
      </trkpt>
      <trkpt lat="41.642809" lon="2.083175">
        <ele>554.20</ele>
        <time>1970-01-01T01:55:38Z</time>
      </trkpt>
      <trkpt lat="41.642776" lon="2.083166">
        <ele>554.40</ele>
        <time>1970-01-01T01:55:39Z</time>
      </trkpt>
      <trkpt lat="41.642729" lon="2.083155">
        <ele>554.60</ele>
        <time>1970-01-01T01:55:41Z</time>
      </trkpt>
      <trkpt lat="41.642671" lon="2.083147">
        <ele>554.90</ele>
        <time>1970-01-01T01:55:43Z</time>
      </trkpt>
      <trkpt lat="41.642630" lon="2.083143">
        <ele>555.10</ele>
        <time>1970-01-01T01:55:44Z</time>
      </trkpt>
      <trkpt lat="41.642567" lon="2.083131">
        <ele>555.40</ele>
        <time>1970-01-01T01:55:46Z</time>
      </trkpt>
      <trkpt lat="41.642527" lon="2.083124">
        <ele>555.60</ele>
        <time>1970-01-01T01:55:47Z</time>
      </trkpt>
      <trkpt lat="41.642492" lon="2.083121">
        <ele>555.70</ele>
        <time>1970-01-01T01:55:48Z</time>
      </trkpt>
      <trkpt lat="41.642449" lon="2.083111">
        <ele>556.00</ele>
        <time>1970-01-01T01:55:49Z</time>
      </trkpt>
      <trkpt lat="41.642404" lon="2.083103">
        <ele>556.20</ele>
        <time>1970-01-01T01:55:51Z</time>
      </trkpt>
      <trkpt lat="41.642361" lon="2.083100">
        <ele>556.50</ele>
        <time>1970-01-01T01:55:52Z</time>
      </trkpt>
      <trkpt lat="41.642321" lon="2.083095">
        <ele>556.80</ele>
        <time>1970-01-01T01:55:54Z</time>
      </trkpt>
      <trkpt lat="41.642262" lon="2.083096">
        <ele>557.30</ele>
        <time>1970-01-01T01:55:56Z</time>
      </trkpt>
      <trkpt lat="41.642225" lon="2.083097">
        <ele>557.60</ele>
        <time>1970-01-01T01:55:57Z</time>
      </trkpt>
      <trkpt lat="41.642189" lon="2.083097">
        <ele>558.00</ele>
        <time>1970-01-01T01:55:58Z</time>
      </trkpt>
      <trkpt lat="41.642152" lon="2.083097">
        <ele>558.40</ele>
        <time>1970-01-01T01:55:59Z</time>
      </trkpt>
      <trkpt lat="41.642116" lon="2.083103">
        <ele>558.80</ele>
        <time>1970-01-01T01:56:00Z</time>
      </trkpt>
      <trkpt lat="41.642075" lon="2.083111">
        <ele>559.40</ele>
        <time>1970-01-01T01:56:01Z</time>
      </trkpt>
      <trkpt lat="41.642036" lon="2.083113">
        <ele>559.90</ele>
        <time>1970-01-01T01:56:03Z</time>
      </trkpt>
      <trkpt lat="41.641979" lon="2.083117">
        <ele>560.70</ele>
        <time>1970-01-01T01:56:04Z</time>
      </trkpt>
      <trkpt lat="41.641944" lon="2.083114">
        <ele>561.20</ele>
        <time>1970-01-01T01:56:06Z</time>
      </trkpt>
      <trkpt lat="41.641909" lon="2.083108">
        <ele>561.80</ele>
        <time>1970-01-01T01:56:07Z</time>
      </trkpt>
      <trkpt lat="41.641882" lon="2.083108">
        <ele>562.20</ele>
        <time>1970-01-01T01:56:08Z</time>
      </trkpt>
      <trkpt lat="41.641852" lon="2.083111">
        <ele>562.60</ele>
        <time>1970-01-01T01:56:09Z</time>
      </trkpt>
      <trkpt lat="41.641811" lon="2.083109">
        <ele>563.10</ele>
        <time>1970-01-01T01:56:11Z</time>
      </trkpt>
      <trkpt lat="41.641780" lon="2.083105">
        <ele>563.50</ele>
        <time>1970-01-01T01:56:12Z</time>
      </trkpt>
      <trkpt lat="41.641727" lon="2.083095">
        <ele>564.10</ele>
        <time>1970-01-01T01:56:14Z</time>
      </trkpt>
      <trkpt lat="41.641682" lon="2.083070">
        <ele>564.50</ele>
        <time>1970-01-01T01:56:15Z</time>
      </trkpt>
      <trkpt lat="41.641653" lon="2.083034">
        <ele>564.80</ele>
        <time>1970-01-01T01:56:16Z</time>
      </trkpt>
      <trkpt lat="41.641620" lon="2.082992">
        <ele>565.10</ele>
        <time>1970-01-01T01:56:17Z</time>
      </trkpt>
      <trkpt lat="41.641574" lon="2.082943">
        <ele>565.40</ele>
        <time>1970-01-01T01:56:19Z</time>
      </trkpt>
      <trkpt lat="41.641523" lon="2.082886">
        <ele>565.80</ele>
        <time>1970-01-01T01:56:21Z</time>
      </trkpt>
      <trkpt lat="41.641471" lon="2.082834">
        <ele>566.30</ele>
        <time>1970-01-01T01:56:23Z</time>
      </trkpt>
      <trkpt lat="41.641441" lon="2.082806">
        <ele>566.50</ele>
        <time>1970-01-01T01:56:24Z</time>
      </trkpt>
      <trkpt lat="41.641388" lon="2.082755">
        <ele>567.10</ele>
        <time>1970-01-01T01:56:26Z</time>
      </trkpt>
      <trkpt lat="41.641343" lon="2.082707">
        <ele>567.60</ele>
        <time>1970-01-01T01:56:28Z</time>
      </trkpt>
      <trkpt lat="41.641319" lon="2.082685">
        <ele>567.80</ele>
        <time>1970-01-01T01:56:29Z</time>
      </trkpt>
      <trkpt lat="41.641289" lon="2.082656">
        <ele>568.10</ele>
        <time>1970-01-01T01:56:30Z</time>
      </trkpt>
      <trkpt lat="41.641263" lon="2.082643">
        <ele>568.30</ele>
        <time>1970-01-01T01:56:31Z</time>
      </trkpt>
      <trkpt lat="41.641220" lon="2.082620">
        <ele>568.70</ele>
        <time>1970-01-01T01:56:33Z</time>
      </trkpt>
      <trkpt lat="41.641205" lon="2.082613">
        <ele>568.80</ele>
        <time>1970-01-01T01:56:34Z</time>
      </trkpt>
      <trkpt lat="41.641190" lon="2.082605">
        <ele>568.90</ele>
        <time>1970-01-01T01:56:35Z</time>
      </trkpt>
      <trkpt lat="41.641147" lon="2.082617">
        <ele>569.00</ele>
        <time>1970-01-01T01:56:37Z</time>
      </trkpt>
      <trkpt lat="41.641132" lon="2.082631">
        <ele>569.00</ele>
        <time>1970-01-01T01:56:38Z</time>
      </trkpt>
      <trkpt lat="41.641116" lon="2.082644">
        <ele>569.00</ele>
        <time>1970-01-01T01:56:39Z</time>
      </trkpt>
      <trkpt lat="41.641094" lon="2.082668">
        <ele>569.00</ele>
        <time>1970-01-01T01:56:40Z</time>
      </trkpt>
      <trkpt lat="41.641052" lon="2.082660">
        <ele>568.90</ele>
        <time>1970-01-01T01:56:41Z</time>
      </trkpt>
      <trkpt lat="41.640998" lon="2.082643">
        <ele>568.90</ele>
        <time>1970-01-01T01:56:43Z</time>
      </trkpt>
      <trkpt lat="41.640956" lon="2.082639">
        <ele>569.00</ele>
        <time>1970-01-01T01:56:44Z</time>
      </trkpt>
      <trkpt lat="41.640913" lon="2.082648">
        <ele>569.20</ele>
        <time>1970-01-01T01:56:45Z</time>
      </trkpt>
      <trkpt lat="41.640887" lon="2.082651">
        <ele>569.30</ele>
        <time>1970-01-01T01:56:46Z</time>
      </trkpt>
      <trkpt lat="41.640857" lon="2.082657">
        <ele>569.40</ele>
        <time>1970-01-01T01:56:48Z</time>
      </trkpt>
      <trkpt lat="41.640820" lon="2.082660">
        <ele>569.70</ele>
        <time>1970-01-01T01:56:49Z</time>
      </trkpt>
      <trkpt lat="41.640792" lon="2.082666">
        <ele>569.90</ele>
        <time>1970-01-01T01:56:50Z</time>
      </trkpt>
      <trkpt lat="41.640754" lon="2.082671">
        <ele>570.30</ele>
        <time>1970-01-01T01:56:51Z</time>
      </trkpt>
      <trkpt lat="41.640740" lon="2.082673">
        <ele>570.40</ele>
        <time>1970-01-01T01:56:52Z</time>
      </trkpt>
      <trkpt lat="41.640703" lon="2.082682">
        <ele>570.80</ele>
        <time>1970-01-01T01:56:54Z</time>
      </trkpt>
      <trkpt lat="41.640674" lon="2.082683">
        <ele>571.10</ele>
        <time>1970-01-01T01:56:55Z</time>
      </trkpt>
      <trkpt lat="41.640637" lon="2.082692">
        <ele>571.50</ele>
        <time>1970-01-01T01:56:56Z</time>
      </trkpt>
      <trkpt lat="41.640602" lon="2.082696">
        <ele>572.00</ele>
        <time>1970-01-01T01:56:58Z</time>
      </trkpt>
      <trkpt lat="41.640571" lon="2.082700">
        <ele>572.40</ele>
        <time>1970-01-01T01:56:59Z</time>
      </trkpt>
      <trkpt lat="41.640537" lon="2.082709">
        <ele>572.80</ele>
        <time>1970-01-01T01:57:01Z</time>
      </trkpt>
      <trkpt lat="41.640510" lon="2.082718">
        <ele>573.10</ele>
        <time>1970-01-01T01:57:02Z</time>
      </trkpt>
      <trkpt lat="41.640483" lon="2.082728">
        <ele>573.50</ele>
        <time>1970-01-01T01:57:03Z</time>
      </trkpt>
      <trkpt lat="41.640437" lon="2.082738">
        <ele>574.00</ele>
        <time>1970-01-01T01:57:05Z</time>
      </trkpt>
      <trkpt lat="41.640396" lon="2.082743">
        <ele>574.50</ele>
        <time>1970-01-01T01:57:06Z</time>
      </trkpt>
      <trkpt lat="41.640370" lon="2.082745">
        <ele>574.70</ele>
        <time>1970-01-01T01:57:07Z</time>
      </trkpt>
      <trkpt lat="41.640341" lon="2.082749">
        <ele>575.00</ele>
        <time>1970-01-01T01:57:09Z</time>
      </trkpt>
      <trkpt lat="41.640308" lon="2.082754">
        <ele>575.20</ele>
        <time>1970-01-01T01:57:10Z</time>
      </trkpt>
      <trkpt lat="41.640298" lon="2.082754">
        <ele>575.30</ele>
        <time>1970-01-01T01:57:11Z</time>
      </trkpt>
      <trkpt lat="41.640277" lon="2.082758">
        <ele>575.40</ele>
        <time>1970-01-01T01:57:12Z</time>
      </trkpt>
      <trkpt lat="41.640242" lon="2.082772">
        <ele>575.50</ele>
        <time>1970-01-01T01:57:14Z</time>
      </trkpt>
      <trkpt lat="41.640207" lon="2.082792">
        <ele>575.50</ele>
        <time>1970-01-01T01:57:16Z</time>
      </trkpt>
      <trkpt lat="41.640160" lon="2.082822">
        <ele>575.30</ele>
        <time>1970-01-01T01:57:17Z</time>
      </trkpt>
      <trkpt lat="41.640136" lon="2.082837">
        <ele>575.20</ele>
        <time>1970-01-01T01:57:18Z</time>
      </trkpt>
      <trkpt lat="41.640056" lon="2.082882">
        <ele>574.80</ele>
        <time>1970-01-01T01:57:20Z</time>
      </trkpt>
      <trkpt lat="41.640007" lon="2.082930">
        <ele>574.40</ele>
        <time>1970-01-01T01:57:21Z</time>
      </trkpt>
      <trkpt lat="41.639949" lon="2.082967">
        <ele>574.00</ele>
        <time>1970-01-01T01:57:23Z</time>
      </trkpt>
      <trkpt lat="41.639896" lon="2.083001">
        <ele>573.60</ele>
        <time>1970-01-01T01:57:24Z</time>
      </trkpt>
      <trkpt lat="41.639875" lon="2.083026">
        <ele>573.40</ele>
        <time>1970-01-01T01:57:25Z</time>
      </trkpt>
      <trkpt lat="41.639845" lon="2.083061">
        <ele>573.00</ele>
        <time>1970-01-01T01:57:26Z</time>
      </trkpt>
      <trkpt lat="41.639831" lon="2.083072">
        <ele>572.90</ele>
        <time>1970-01-01T01:57:27Z</time>
      </trkpt>
      <trkpt lat="41.639772" lon="2.083093">
        <ele>572.40</ele>
        <time>1970-01-01T01:57:29Z</time>
      </trkpt>
      <trkpt lat="41.639737" lon="2.083091">
        <ele>572.20</ele>
        <time>1970-01-01T01:57:30Z</time>
      </trkpt>
      <trkpt lat="41.639700" lon="2.083095">
        <ele>571.90</ele>
        <time>1970-01-01T01:57:31Z</time>
      </trkpt>
      <trkpt lat="41.639658" lon="2.083104">
        <ele>571.50</ele>
        <time>1970-01-01T01:57:33Z</time>
      </trkpt>
      <trkpt lat="41.639618" lon="2.083103">
        <ele>571.10</ele>
        <time>1970-01-01T01:57:34Z</time>
      </trkpt>
      <trkpt lat="41.639563" lon="2.083107">
        <ele>570.10</ele>
        <time>1970-01-01T01:57:36Z</time>
      </trkpt>
      <trkpt lat="41.639527" lon="2.083092">
        <ele>569.40</ele>
        <time>1970-01-01T01:57:37Z</time>
      </trkpt>
      <trkpt lat="41.639512" lon="2.083086">
        <ele>569.10</ele>
        <time>1970-01-01T01:57:38Z</time>
      </trkpt>
      <trkpt lat="41.639457" lon="2.083080">
        <ele>567.80</ele>
        <time>1970-01-01T01:57:40Z</time>
      </trkpt>
      <trkpt lat="41.639425" lon="2.083072">
        <ele>567.00</ele>
        <time>1970-01-01T01:57:41Z</time>
      </trkpt>
      <trkpt lat="41.639383" lon="2.083048">
        <ele>565.80</ele>
        <time>1970-01-01T01:57:43Z</time>
      </trkpt>
      <trkpt lat="41.639371" lon="2.083040">
        <ele>565.40</ele>
        <time>1970-01-01T01:57:44Z</time>
      </trkpt>
      <trkpt lat="41.639358" lon="2.083032">
        <ele>565.00</ele>
        <time>1970-01-01T01:57:45Z</time>
      </trkpt>
      <trkpt lat="41.639330" lon="2.083025">
        <ele>564.30</ele>
        <time>1970-01-01T01:57:46Z</time>
      </trkpt>
      <trkpt lat="41.639302" lon="2.083013">
        <ele>563.50</ele>
        <time>1970-01-01T01:57:48Z</time>
      </trkpt>
      <trkpt lat="41.639259" lon="2.082988">
        <ele>562.40</ele>
        <time>1970-01-01T01:57:49Z</time>
      </trkpt>
      <trkpt lat="41.639210" lon="2.082960">
        <ele>561.50</ele>
        <time>1970-01-01T01:57:50Z</time>
      </trkpt>
      <trkpt lat="41.639182" lon="2.082926">
        <ele>561.00</ele>
        <time>1970-01-01T01:57:52Z</time>
      </trkpt>
      <trkpt lat="41.639186" lon="2.082861">
        <ele>560.50</ele>
        <time>1970-01-01T01:57:54Z</time>
      </trkpt>
      <trkpt lat="41.639198" lon="2.082820">
        <ele>560.40</ele>
        <time>1970-01-01T01:57:55Z</time>
      </trkpt>
      <trkpt lat="41.639208" lon="2.082790">
        <ele>560.30</ele>
        <time>1970-01-01T01:57:56Z</time>
      </trkpt>
      <trkpt lat="41.639215" lon="2.082752">
        <ele>560.20</ele>
        <time>1970-01-01T01:57:58Z</time>
      </trkpt>
      <trkpt lat="41.639214" lon="2.082713">
        <ele>560.10</ele>
        <time>1970-01-01T01:57:59Z</time>
      </trkpt>
      <trkpt lat="41.639198" lon="2.082681">
        <ele>560.10</ele>
        <time>1970-01-01T01:58:00Z</time>
      </trkpt>
      <trkpt lat="41.639168" lon="2.082657">
        <ele>559.90</ele>
        <time>1970-01-01T01:58:01Z</time>
      </trkpt>
      <trkpt lat="41.639130" lon="2.082656">
        <ele>559.70</ele>
        <time>1970-01-01T01:58:03Z</time>
      </trkpt>
      <trkpt lat="41.639097" lon="2.082665">
        <ele>559.50</ele>
        <time>1970-01-01T01:58:04Z</time>
      </trkpt>
      <trkpt lat="41.639052" lon="2.082664">
        <ele>559.20</ele>
        <time>1970-01-01T01:58:05Z</time>
      </trkpt>
      <trkpt lat="41.638962" lon="2.082621">
        <ele>558.30</ele>
        <time>1970-01-01T01:58:07Z</time>
      </trkpt>
      <trkpt lat="41.638925" lon="2.082595">
        <ele>558.00</ele>
        <time>1970-01-01T01:58:08Z</time>
      </trkpt>
      <trkpt lat="41.638915" lon="2.082548">
        <ele>557.80</ele>
        <time>1970-01-01T01:58:10Z</time>
      </trkpt>
      <trkpt lat="41.638848" lon="2.082521">
        <ele>557.40</ele>
        <time>1970-01-01T01:58:11Z</time>
      </trkpt>
      <trkpt lat="41.638694" lon="2.082485">
        <ele>556.50</ele>
        <time>1970-01-01T01:58:13Z</time>
      </trkpt>
      <trkpt lat="41.638648" lon="2.082486">
        <ele>556.20</ele>
        <time>1970-01-01T01:58:14Z</time>
      </trkpt>
      <trkpt lat="41.638604" lon="2.082452">
        <ele>555.90</ele>
        <time>1970-01-01T01:58:15Z</time>
      </trkpt>
      <trkpt lat="41.638532" lon="2.082465">
        <ele>555.50</ele>
        <time>1970-01-01T01:58:17Z</time>
      </trkpt>
      <trkpt lat="41.638481" lon="2.082476">
        <ele>555.20</ele>
        <time>1970-01-01T01:58:18Z</time>
      </trkpt>
      <trkpt lat="41.638409" lon="2.082462">
        <ele>554.90</ele>
        <time>1970-01-01T01:58:19Z</time>
      </trkpt>
      <trkpt lat="41.638288" lon="2.082448">
        <ele>554.40</ele>
        <time>1970-01-01T01:58:21Z</time>
      </trkpt>
      <trkpt lat="41.638226" lon="2.082458">
        <ele>554.10</ele>
        <time>1970-01-01T01:58:22Z</time>
      </trkpt>
      <trkpt lat="41.638103" lon="2.082441">
        <ele>553.40</ele>
        <time>1970-01-01T01:58:24Z</time>
      </trkpt>
      <trkpt lat="41.637983" lon="2.082419">
        <ele>552.70</ele>
        <time>1970-01-01T01:58:26Z</time>
      </trkpt>
      <trkpt lat="41.637870" lon="2.082427">
        <ele>551.80</ele>
        <time>1970-01-01T01:58:28Z</time>
      </trkpt>
      <trkpt lat="41.637746" lon="2.082475">
        <ele>550.70</ele>
        <time>1970-01-01T01:58:30Z</time>
      </trkpt>
      <trkpt lat="41.637678" lon="2.082500">
        <ele>550.20</ele>
        <time>1970-01-01T01:58:31Z</time>
      </trkpt>
      <trkpt lat="41.637556" lon="2.082537">
        <ele>549.40</ele>
        <time>1970-01-01T01:58:33Z</time>
      </trkpt>
      <trkpt lat="41.637478" lon="2.082575">
        <ele>549.10</ele>
        <time>1970-01-01T01:58:35Z</time>
      </trkpt>
      <trkpt lat="41.637359" lon="2.082637">
        <ele>548.50</ele>
        <time>1970-01-01T01:58:37Z</time>
      </trkpt>
      <trkpt lat="41.637272" lon="2.082692">
        <ele>547.90</ele>
        <time>1970-01-01T01:58:39Z</time>
      </trkpt>
      <trkpt lat="41.637218" lon="2.082724">
        <ele>547.40</ele>
        <time>1970-01-01T01:58:40Z</time>
      </trkpt>
      <trkpt lat="41.637222" lon="2.082745">
        <ele>547.20</ele>
        <time>1970-01-01T01:58:41Z</time>
      </trkpt>
      <trkpt lat="41.637220" lon="2.082729">
        <ele>547.10</ele>
        <time>1970-01-01T01:58:42Z</time>
      </trkpt>
      <trkpt lat="41.637148" lon="2.082765">
        <ele>546.10</ele>
        <time>1970-01-01T01:58:44Z</time>
      </trkpt>
      <trkpt lat="41.637055" lon="2.082831">
        <ele>544.30</ele>
        <time>1970-01-01T01:58:46Z</time>
      </trkpt>
      <trkpt lat="41.637014" lon="2.082862">
        <ele>543.40</ele>
        <time>1970-01-01T01:58:47Z</time>
      </trkpt>
      <trkpt lat="41.636964" lon="2.082913">
        <ele>542.10</ele>
        <time>1970-01-01T01:58:49Z</time>
      </trkpt>
      <trkpt lat="41.636942" lon="2.082939">
        <ele>541.40</ele>
        <time>1970-01-01T01:58:50Z</time>
      </trkpt>
      <trkpt lat="41.636918" lon="2.082960">
        <ele>540.70</ele>
        <time>1970-01-01T01:58:51Z</time>
      </trkpt>
      <trkpt lat="41.636890" lon="2.082994">
        <ele>539.80</ele>
        <time>1970-01-01T01:58:52Z</time>
      </trkpt>
      <trkpt lat="41.636868" lon="2.083050">
        <ele>538.60</ele>
        <time>1970-01-01T01:58:54Z</time>
      </trkpt>
      <trkpt lat="41.636867" lon="2.083110">
        <ele>537.50</ele>
        <time>1970-01-01T01:58:55Z</time>
      </trkpt>
      <trkpt lat="41.636854" lon="2.083203">
        <ele>535.90</ele>
        <time>1970-01-01T01:58:57Z</time>
      </trkpt>
      <trkpt lat="41.636842" lon="2.083265">
        <ele>534.80</ele>
        <time>1970-01-01T01:58:58Z</time>
      </trkpt>
      <trkpt lat="41.636827" lon="2.083311">
        <ele>534.00</ele>
        <time>1970-01-01T01:58:59Z</time>
      </trkpt>
      <trkpt lat="41.636798" lon="2.083347">
        <ele>533.20</ele>
        <time>1970-01-01T01:59:01Z</time>
      </trkpt>
      <trkpt lat="41.636762" lon="2.083393">
        <ele>532.20</ele>
        <time>1970-01-01T01:59:02Z</time>
      </trkpt>
      <trkpt lat="41.636746" lon="2.083415">
        <ele>531.80</ele>
        <time>1970-01-01T01:59:03Z</time>
      </trkpt>
      <trkpt lat="41.636729" lon="2.083458">
        <ele>531.10</ele>
        <time>1970-01-01T01:59:05Z</time>
      </trkpt>
      <trkpt lat="41.636723" lon="2.083517">
        <ele>530.20</ele>
        <time>1970-01-01T01:59:06Z</time>
      </trkpt>
      <trkpt lat="41.636725" lon="2.083580">
        <ele>529.30</ele>
        <time>1970-01-01T01:59:08Z</time>
      </trkpt>
      <trkpt lat="41.636715" lon="2.083634">
        <ele>528.60</ele>
        <time>1970-01-01T01:59:09Z</time>
      </trkpt>
      <trkpt lat="41.636707" lon="2.083652">
        <ele>528.30</ele>
        <time>1970-01-01T01:59:10Z</time>
      </trkpt>
      <trkpt lat="41.636687" lon="2.083689">
        <ele>527.80</ele>
        <time>1970-01-01T01:59:11Z</time>
      </trkpt>
      <trkpt lat="41.636661" lon="2.083715">
        <ele>527.30</ele>
        <time>1970-01-01T01:59:12Z</time>
      </trkpt>
      <trkpt lat="41.636626" lon="2.083767">
        <ele>526.50</ele>
        <time>1970-01-01T01:59:14Z</time>
      </trkpt>
      <trkpt lat="41.636622" lon="2.083813">
        <ele>526.10</ele>
        <time>1970-01-01T01:59:15Z</time>
      </trkpt>
      <trkpt lat="41.636585" lon="2.083892">
        <ele>525.30</ele>
        <time>1970-01-01T01:59:17Z</time>
      </trkpt>
      <trkpt lat="41.636540" lon="2.083938">
        <ele>524.70</ele>
        <time>1970-01-01T01:59:18Z</time>
      </trkpt>
      <trkpt lat="41.636525" lon="2.083972">
        <ele>524.30</ele>
        <time>1970-01-01T01:59:20Z</time>
      </trkpt>
      <trkpt lat="41.636541" lon="2.084005">
        <ele>524.00</ele>
        <time>1970-01-01T01:59:21Z</time>
      </trkpt>
      <trkpt lat="41.636548" lon="2.084030">
        <ele>523.80</ele>
        <time>1970-01-01T01:59:22Z</time>
      </trkpt>
      <trkpt lat="41.636525" lon="2.084045">
        <ele>523.50</ele>
        <time>1970-01-01T01:59:23Z</time>
      </trkpt>
      <trkpt lat="41.636492" lon="2.084066">
        <ele>523.10</ele>
        <time>1970-01-01T01:59:24Z</time>
      </trkpt>
      <trkpt lat="41.636458" lon="2.084106">
        <ele>522.60</ele>
        <time>1970-01-01T01:59:26Z</time>
      </trkpt>
      <trkpt lat="41.636429" lon="2.084132">
        <ele>522.20</ele>
        <time>1970-01-01T01:59:27Z</time>
      </trkpt>
      <trkpt lat="41.636395" lon="2.084157">
        <ele>521.80</ele>
        <time>1970-01-01T01:59:28Z</time>
      </trkpt>
      <trkpt lat="41.636350" lon="2.084166">
        <ele>521.40</ele>
        <time>1970-01-01T01:59:29Z</time>
      </trkpt>
      <trkpt lat="41.636306" lon="2.084193">
        <ele>521.00</ele>
        <time>1970-01-01T01:59:31Z</time>
      </trkpt>
      <trkpt lat="41.636275" lon="2.084268">
        <ele>520.60</ele>
        <time>1970-01-01T01:59:33Z</time>
      </trkpt>
      <trkpt lat="41.636260" lon="2.084330">
        <ele>520.40</ele>
        <time>1970-01-01T01:59:34Z</time>
      </trkpt>
      <trkpt lat="41.636251" lon="2.084396">
        <ele>520.10</ele>
        <time>1970-01-01T01:59:35Z</time>
      </trkpt>
      <trkpt lat="41.636226" lon="2.084443">
        <ele>519.90</ele>
        <time>1970-01-01T01:59:36Z</time>
      </trkpt>
      <trkpt lat="41.636170" lon="2.084449">
        <ele>519.60</ele>
        <time>1970-01-01T01:59:38Z</time>
      </trkpt>
      <trkpt lat="41.636135" lon="2.084439">
        <ele>519.40</ele>
        <time>1970-01-01T01:59:39Z</time>
      </trkpt>
      <trkpt lat="41.636082" lon="2.084544">
        <ele>518.90</ele>
        <time>1970-01-01T01:59:41Z</time>
      </trkpt>
      <trkpt lat="41.636047" lon="2.084598">
        <ele>518.50</ele>
        <time>1970-01-01T01:59:42Z</time>
      </trkpt>
      <trkpt lat="41.636009" lon="2.084645">
        <ele>518.30</ele>
        <time>1970-01-01T01:59:43Z</time>
      </trkpt>
      <trkpt lat="41.635925" lon="2.084734">
        <ele>517.80</ele>
        <time>1970-01-01T01:59:45Z</time>
      </trkpt>
      <trkpt lat="41.635860" lon="2.084833">
        <ele>517.40</ele>
        <time>1970-01-01T01:59:47Z</time>
      </trkpt>
      <trkpt lat="41.635777" lon="2.084916">
        <ele>517.00</ele>
        <time>1970-01-01T01:59:49Z</time>
      </trkpt>
      <trkpt lat="41.635677" lon="2.084969">
        <ele>516.50</ele>
        <time>1970-01-01T01:59:51Z</time>
      </trkpt>
      <trkpt lat="41.635607" lon="2.085015">
        <ele>516.30</ele>
        <time>1970-01-01T01:59:53Z</time>
      </trkpt>
      <trkpt lat="41.635545" lon="2.085048">
        <ele>516.10</ele>
        <time>1970-01-01T01:59:55Z</time>
      </trkpt>
      <trkpt lat="41.635500" lon="2.085060">
        <ele>516.00</ele>
        <time>1970-01-01T01:59:56Z</time>
      </trkpt>
      <trkpt lat="41.635455" lon="2.085078">
        <ele>516.00</ele>
        <time>1970-01-01T01:59:57Z</time>
      </trkpt>
      <trkpt lat="41.635413" lon="2.085110">
        <ele>516.00</ele>
        <time>1970-01-01T01:59:58Z</time>
      </trkpt>
      <trkpt lat="41.635376" lon="2.085159">
        <ele>516.00</ele>
        <time>1970-01-01T02:00:00Z</time>
      </trkpt>
      <trkpt lat="41.635338" lon="2.085181">
        <ele>516.00</ele>
        <time>1970-01-01T02:00:01Z</time>
      </trkpt>
      <trkpt lat="41.635276" lon="2.085203">
        <ele>516.10</ele>
        <time>1970-01-01T02:00:03Z</time>
      </trkpt>
      <trkpt lat="41.635224" lon="2.085203">
        <ele>516.10</ele>
        <time>1970-01-01T02:00:04Z</time>
      </trkpt>
      <trkpt lat="41.635190" lon="2.085199">
        <ele>516.20</ele>
        <time>1970-01-01T02:00:05Z</time>
      </trkpt>
      <trkpt lat="41.635122" lon="2.085212">
        <ele>516.20</ele>
        <time>1970-01-01T02:00:07Z</time>
      </trkpt>
      <trkpt lat="41.635085" lon="2.085234">
        <ele>516.10</ele>
        <time>1970-01-01T02:00:08Z</time>
      </trkpt>
      <trkpt lat="41.635048" lon="2.085260">
        <ele>516.00</ele>
        <time>1970-01-01T02:00:09Z</time>
      </trkpt>
      <trkpt lat="41.635009" lon="2.085280">
        <ele>515.90</ele>
        <time>1970-01-01T02:00:10Z</time>
      </trkpt>
      <trkpt lat="41.634947" lon="2.085311">
        <ele>515.50</ele>
        <time>1970-01-01T02:00:12Z</time>
      </trkpt>
      <trkpt lat="41.634883" lon="2.085342">
        <ele>515.00</ele>
        <time>1970-01-01T02:00:13Z</time>
      </trkpt>
      <trkpt lat="41.634837" lon="2.085364">
        <ele>514.60</ele>
        <time>1970-01-01T02:00:15Z</time>
      </trkpt>
      <trkpt lat="41.634792" lon="2.085389">
        <ele>514.20</ele>
        <time>1970-01-01T02:00:16Z</time>
      </trkpt>
      <trkpt lat="41.634749" lon="2.085420">
        <ele>513.90</ele>
        <time>1970-01-01T02:00:17Z</time>
      </trkpt>
      <trkpt lat="41.634704" lon="2.085455">
        <ele>513.50</ele>
        <time>1970-01-01T02:00:19Z</time>
      </trkpt>
      <trkpt lat="41.634647" lon="2.085494">
        <ele>513.20</ele>
        <time>1970-01-01T02:00:21Z</time>
      </trkpt>
      <trkpt lat="41.634594" lon="2.085520">
        <ele>513.00</ele>
        <time>1970-01-01T02:00:22Z</time>
      </trkpt>
      <trkpt lat="41.634548" lon="2.085551">
        <ele>512.90</ele>
        <time>1970-01-01T02:00:23Z</time>
      </trkpt>
      <trkpt lat="41.634497" lon="2.085577">
        <ele>512.80</ele>
        <time>1970-01-01T02:00:24Z</time>
      </trkpt>
      <trkpt lat="41.634448" lon="2.085600">
        <ele>512.80</ele>
        <time>1970-01-01T02:00:26Z</time>
      </trkpt>
      <trkpt lat="41.634392" lon="2.085616">
        <ele>512.80</ele>
        <time>1970-01-01T02:00:27Z</time>
      </trkpt>
      <trkpt lat="41.634325" lon="2.085628">
        <ele>512.80</ele>
        <time>1970-01-01T02:00:29Z</time>
      </trkpt>
      <trkpt lat="41.634287" lon="2.085634">
        <ele>512.80</ele>
        <time>1970-01-01T02:00:30Z</time>
      </trkpt>
      <trkpt lat="41.634229" lon="2.085640">
        <ele>512.80</ele>
        <time>1970-01-01T02:00:32Z</time>
      </trkpt>
      <trkpt lat="41.634196" lon="2.085645">
        <ele>512.70</ele>
        <time>1970-01-01T02:00:33Z</time>
      </trkpt>
      <trkpt lat="41.634160" lon="2.085642">
        <ele>512.60</ele>
        <time>1970-01-01T02:00:34Z</time>
      </trkpt>
      <trkpt lat="41.634120" lon="2.085649">
        <ele>512.40</ele>
        <time>1970-01-01T02:00:35Z</time>
      </trkpt>
      <trkpt lat="41.634068" lon="2.085666">
        <ele>512.00</ele>
        <time>1970-01-01T02:00:37Z</time>
      </trkpt>
      <trkpt lat="41.634026" lon="2.085679">
        <ele>511.60</ele>
        <time>1970-01-01T02:00:38Z</time>
      </trkpt>
      <trkpt lat="41.633935" lon="2.085658">
        <ele>510.60</ele>
        <time>1970-01-01T02:00:39Z</time>
      </trkpt>
      <trkpt lat="41.633860" lon="2.085661">
        <ele>509.80</ele>
        <time>1970-01-01T02:00:40Z</time>
      </trkpt>
      <trkpt lat="41.633784" lon="2.085673">
        <ele>509.10</ele>
        <time>1970-01-01T02:00:41Z</time>
      </trkpt>
      <trkpt lat="41.633717" lon="2.085687">
        <ele>508.50</ele>
        <time>1970-01-01T02:00:42Z</time>
      </trkpt>
      <trkpt lat="41.633657" lon="2.085696">
        <ele>508.10</ele>
        <time>1970-01-01T02:00:43Z</time>
      </trkpt>
      <trkpt lat="41.633607" lon="2.085713">
        <ele>507.80</ele>
        <time>1970-01-01T02:00:44Z</time>
      </trkpt>
      <trkpt lat="41.633536" lon="2.085723">
        <ele>507.40</ele>
        <time>1970-01-01T02:00:46Z</time>
      </trkpt>
      <trkpt lat="41.633468" lon="2.085731">
        <ele>507.00</ele>
        <time>1970-01-01T02:00:48Z</time>
      </trkpt>
      <trkpt lat="41.633420" lon="2.085747">
        <ele>506.80</ele>
        <time>1970-01-01T02:00:49Z</time>
      </trkpt>
      <trkpt lat="41.633387" lon="2.085746">
        <ele>506.60</ele>
        <time>1970-01-01T02:00:50Z</time>
      </trkpt>
      <trkpt lat="41.633347" lon="2.085752">
        <ele>506.50</ele>
        <time>1970-01-01T02:00:51Z</time>
      </trkpt>
      <trkpt lat="41.633332" lon="2.085755">
        <ele>506.40</ele>
        <time>1970-01-01T02:00:52Z</time>
      </trkpt>
      <trkpt lat="41.633302" lon="2.085770">
        <ele>506.30</ele>
        <time>1970-01-01T02:00:53Z</time>
      </trkpt>
      <trkpt lat="41.633268" lon="2.085794">
        <ele>506.20</ele>
        <time>1970-01-01T02:00:54Z</time>
      </trkpt>
      <trkpt lat="41.633222" lon="2.085824">
        <ele>506.00</ele>
        <time>1970-01-01T02:00:56Z</time>
      </trkpt>
      <trkpt lat="41.633185" lon="2.085846">
        <ele>506.00</ele>
        <time>1970-01-01T02:00:57Z</time>
      </trkpt>
      <trkpt lat="41.633131" lon="2.085872">
        <ele>505.90</ele>
        <time>1970-01-01T02:00:58Z</time>
      </trkpt>
      <trkpt lat="41.633073" lon="2.085873">
        <ele>506.00</ele>
        <time>1970-01-01T02:01:00Z</time>
      </trkpt>
      <trkpt lat="41.633003" lon="2.085869">
        <ele>506.20</ele>
        <time>1970-01-01T02:01:02Z</time>
      </trkpt>
      <trkpt lat="41.632961" lon="2.085880">
        <ele>506.40</ele>
        <time>1970-01-01T02:01:03Z</time>
      </trkpt>
      <trkpt lat="41.632904" lon="2.085890">
        <ele>506.70</ele>
        <time>1970-01-01T02:01:05Z</time>
      </trkpt>
      <trkpt lat="41.632852" lon="2.085920">
        <ele>507.10</ele>
        <time>1970-01-01T02:01:07Z</time>
      </trkpt>
      <trkpt lat="41.632801" lon="2.085915">
        <ele>507.60</ele>
        <time>1970-01-01T02:01:09Z</time>
      </trkpt>
      <trkpt lat="41.632774" lon="2.085902">
        <ele>507.80</ele>
        <time>1970-01-01T02:01:10Z</time>
      </trkpt>
      <trkpt lat="41.632743" lon="2.085892">
        <ele>508.10</ele>
        <time>1970-01-01T02:01:11Z</time>
      </trkpt>
      <trkpt lat="41.632705" lon="2.085897">
        <ele>508.40</ele>
        <time>1970-01-01T02:01:12Z</time>
      </trkpt>
      <trkpt lat="41.632663" lon="2.085906">
        <ele>508.80</ele>
        <time>1970-01-01T02:01:14Z</time>
      </trkpt>
      <trkpt lat="41.632624" lon="2.085905">
        <ele>509.10</ele>
        <time>1970-01-01T02:01:15Z</time>
      </trkpt>
      <trkpt lat="41.632610" lon="2.085905">
        <ele>509.20</ele>
        <time>1970-01-01T02:01:16Z</time>
      </trkpt>
      <trkpt lat="41.632570" lon="2.085896">
        <ele>509.50</ele>
        <time>1970-01-01T02:01:18Z</time>
      </trkpt>
      <trkpt lat="41.632557" lon="2.085890">
        <ele>509.60</ele>
        <time>1970-01-01T02:01:19Z</time>
      </trkpt>
      <trkpt lat="41.632532" lon="2.085873">
        <ele>509.70</ele>
        <time>1970-01-01T02:01:20Z</time>
      </trkpt>
      <trkpt lat="41.632503" lon="2.085844">
        <ele>509.90</ele>
        <time>1970-01-01T02:01:21Z</time>
      </trkpt>
      <trkpt lat="41.632495" lon="2.085836">
        <ele>509.90</ele>
        <time>1970-01-01T02:01:22Z</time>
      </trkpt>
      <trkpt lat="41.632465" lon="2.085816">
        <ele>510.00</ele>
        <time>1970-01-01T02:01:23Z</time>
      </trkpt>
      <trkpt lat="41.632453" lon="2.085811">
        <ele>510.00</ele>
        <time>1970-01-01T02:01:24Z</time>
      </trkpt>
      <trkpt lat="41.632417" lon="2.085789">
        <ele>510.10</ele>
        <time>1970-01-01T02:01:26Z</time>
      </trkpt>
      <trkpt lat="41.632406" lon="2.085781">
        <ele>510.10</ele>
        <time>1970-01-01T02:01:27Z</time>
      </trkpt>
      <trkpt lat="41.632400" lon="2.085750">
        <ele>510.10</ele>
        <time>1970-01-01T02:01:28Z</time>
      </trkpt>
      <trkpt lat="41.632402" lon="2.085733">
        <ele>510.10</ele>
        <time>1970-01-01T02:01:29Z</time>
      </trkpt>
      <trkpt lat="41.632407" lon="2.085701">
        <ele>510.00</ele>
        <time>1970-01-01T02:01:31Z</time>
      </trkpt>
      <trkpt lat="41.632399" lon="2.085696">
        <ele>510.00</ele>
        <time>1970-01-01T02:01:32Z</time>
      </trkpt>
      <trkpt lat="41.632393" lon="2.085681">
        <ele>510.00</ele>
        <time>1970-01-01T02:01:33Z</time>
      </trkpt>
      <trkpt lat="41.632387" lon="2.085652">
        <ele>509.90</ele>
        <time>1970-01-01T02:01:35Z</time>
      </trkpt>
      <trkpt lat="41.632338" lon="2.085629">
        <ele>509.70</ele>
        <time>1970-01-01T02:01:37Z</time>
      </trkpt>
      <trkpt lat="41.632292" lon="2.085619">
        <ele>509.60</ele>
        <time>1970-01-01T02:01:38Z</time>
      </trkpt>
      <trkpt lat="41.632246" lon="2.085607">
        <ele>509.50</ele>
        <time>1970-01-01T02:01:40Z</time>
      </trkpt>
      <trkpt lat="41.632199" lon="2.085587">
        <ele>509.50</ele>
        <time>1970-01-01T02:01:42Z</time>
      </trkpt>
      <trkpt lat="41.632172" lon="2.085568">
        <ele>509.50</ele>
        <time>1970-01-01T02:01:43Z</time>
      </trkpt>
      <trkpt lat="41.632168" lon="2.085548">
        <ele>509.60</ele>
        <time>1970-01-01T02:01:44Z</time>
      </trkpt>
      <trkpt lat="41.632163" lon="2.085524">
        <ele>509.60</ele>
        <time>1970-01-01T02:01:45Z</time>
      </trkpt>
      <trkpt lat="41.632143" lon="2.085481">
        <ele>509.80</ele>
        <time>1970-01-01T02:01:47Z</time>
      </trkpt>
      <trkpt lat="41.632132" lon="2.085471">
        <ele>509.90</ele>
        <time>1970-01-01T02:01:48Z</time>
      </trkpt>
      <trkpt lat="41.632090" lon="2.085460">
        <ele>510.10</ele>
        <time>1970-01-01T02:01:50Z</time>
      </trkpt>
      <trkpt lat="41.632054" lon="2.085446">
        <ele>510.40</ele>
        <time>1970-01-01T02:01:51Z</time>
      </trkpt>
      <trkpt lat="41.632011" lon="2.085431">
        <ele>510.70</ele>
        <time>1970-01-01T02:01:52Z</time>
      </trkpt>
      <trkpt lat="41.631993" lon="2.085425">
        <ele>510.80</ele>
        <time>1970-01-01T02:01:53Z</time>
      </trkpt>
      <trkpt lat="41.631959" lon="2.085412">
        <ele>510.90</ele>
        <time>1970-01-01T02:01:55Z</time>
      </trkpt>
      <trkpt lat="41.631939" lon="2.085400">
        <ele>511.00</ele>
        <time>1970-01-01T02:01:56Z</time>
      </trkpt>
      <trkpt lat="41.631912" lon="2.085379">
        <ele>511.10</ele>
        <time>1970-01-01T02:01:58Z</time>
      </trkpt>
      <trkpt lat="41.631898" lon="2.085365">
        <ele>511.20</ele>
        <time>1970-01-01T02:01:59Z</time>
      </trkpt>
      <trkpt lat="41.631881" lon="2.085362">
        <ele>511.20</ele>
        <time>1970-01-01T02:02:00Z</time>
      </trkpt>
      <trkpt lat="41.631861" lon="2.085363">
        <ele>511.30</ele>
        <time>1970-01-01T02:02:02Z</time>
      </trkpt>
      <trkpt lat="41.631829" lon="2.085366">
        <ele>511.00</ele>
        <time>1970-01-01T02:02:04Z</time>
      </trkpt>
      <trkpt lat="41.631808" lon="2.085369">
        <ele>510.80</ele>
        <time>1970-01-01T02:02:05Z</time>
      </trkpt>
      <trkpt lat="41.631778" lon="2.085392">
        <ele>510.50</ele>
        <time>1970-01-01T02:02:07Z</time>
      </trkpt>
      <trkpt lat="41.631747" lon="2.085387">
        <ele>510.00</ele>
        <time>1970-01-01T02:02:09Z</time>
      </trkpt>
      <trkpt lat="41.631738" lon="2.085386">
        <ele>509.90</ele>
        <time>1970-01-01T02:02:10Z</time>
      </trkpt>
      <trkpt lat="41.631715" lon="2.085395">
        <ele>509.50</ele>
        <time>1970-01-01T02:02:12Z</time>
      </trkpt>
      <trkpt lat="41.631703" lon="2.085400">
        <ele>509.20</ele>
        <time>1970-01-01T02:02:13Z</time>
      </trkpt>
      <trkpt lat="41.631672" lon="2.085406">
        <ele>508.60</ele>
        <time>1970-01-01T02:02:15Z</time>
      </trkpt>
      <trkpt lat="41.631626" lon="2.085389">
        <ele>507.50</ele>
        <time>1970-01-01T02:02:17Z</time>
      </trkpt>
      <trkpt lat="41.631604" lon="2.085356">
        <ele>506.70</ele>
        <time>1970-01-01T02:02:19Z</time>
      </trkpt>
      <trkpt lat="41.631599" lon="2.085348">
        <ele>506.50</ele>
        <time>1970-01-01T02:02:20Z</time>
      </trkpt>
      <trkpt lat="41.631563" lon="2.085368">
        <ele>505.60</ele>
        <time>1970-01-01T02:02:22Z</time>
      </trkpt>
      <trkpt lat="41.631550" lon="2.085378">
        <ele>505.20</ele>
        <time>1970-01-01T02:02:23Z</time>
      </trkpt>
      <trkpt lat="41.631509" lon="2.085396">
        <ele>504.30</ele>
        <time>1970-01-01T02:02:24Z</time>
      </trkpt>
      <trkpt lat="41.631487" lon="2.085399">
        <ele>503.80</ele>
        <time>1970-01-01T02:02:25Z</time>
      </trkpt>
      <trkpt lat="41.631445" lon="2.085408">
        <ele>503.00</ele>
        <time>1970-01-01T02:02:27Z</time>
      </trkpt>
      <trkpt lat="41.631407" lon="2.085429">
        <ele>502.30</ele>
        <time>1970-01-01T02:02:28Z</time>
      </trkpt>
      <trkpt lat="41.631391" lon="2.085440">
        <ele>502.00</ele>
        <time>1970-01-01T02:02:29Z</time>
      </trkpt>
      <trkpt lat="41.631348" lon="2.085456">
        <ele>501.30</ele>
        <time>1970-01-01T02:02:31Z</time>
      </trkpt>
      <trkpt lat="41.631298" lon="2.085473">
        <ele>500.50</ele>
        <time>1970-01-01T02:02:32Z</time>
      </trkpt>
      <trkpt lat="41.631260" lon="2.085485">
        <ele>499.90</ele>
        <time>1970-01-01T02:02:34Z</time>
      </trkpt>
      <trkpt lat="41.631231" lon="2.085491">
        <ele>499.50</ele>
        <time>1970-01-01T02:02:35Z</time>
      </trkpt>
      <trkpt lat="41.631200" lon="2.085498">
        <ele>499.10</ele>
        <time>1970-01-01T02:02:36Z</time>
      </trkpt>
      <trkpt lat="41.631172" lon="2.085503">
        <ele>498.70</ele>
        <time>1970-01-01T02:02:37Z</time>
      </trkpt>
      <trkpt lat="41.631139" lon="2.085503">
        <ele>498.30</ele>
        <time>1970-01-01T02:02:38Z</time>
      </trkpt>
      <trkpt lat="41.631130" lon="2.085502">
        <ele>498.10</ele>
        <time>1970-01-01T02:02:40Z</time>
      </trkpt>
      <trkpt lat="41.631130" lon="2.085494">
        <ele>498.10</ele>
        <time>1970-01-01T02:02:41Z</time>
      </trkpt>
      <trkpt lat="41.631127" lon="2.085490">
        <ele>498.00</ele>
        <time>1970-01-01T02:02:42Z</time>
      </trkpt>
      <trkpt lat="41.631127" lon="2.085482">
        <ele>497.90</ele>
        <time>1970-01-01T02:02:43Z</time>
      </trkpt>
      <trkpt lat="41.631129" lon="2.085480">
        <ele>497.90</ele>
        <time>1970-01-01T02:02:45Z</time>
      </trkpt>
      <trkpt lat="41.631131" lon="2.085477">
        <ele>497.80</ele>
        <time>1970-01-01T02:02:46Z</time>
      </trkpt>
      <trkpt lat="41.631132" lon="2.085474">
        <ele>497.80</ele>
        <time>1970-01-01T02:02:48Z</time>
      </trkpt>
      <trkpt lat="41.631133" lon="2.085473">
        <ele>497.80</ele>
        <time>1970-01-01T02:02:50Z</time>
      </trkpt>
      <trkpt lat="41.631133" lon="2.085470">
        <ele>497.80</ele>
        <time>1970-01-01T02:02:51Z</time>
      </trkpt>
      <trkpt lat="41.631131" lon="2.085459">
        <ele>497.60</ele>
        <time>1970-01-01T02:02:52Z</time>
      </trkpt>
      <trkpt lat="41.631128" lon="2.085450">
        <ele>497.50</ele>
        <time>1970-01-01T02:02:54Z</time>
      </trkpt>
      <trkpt lat="41.631125" lon="2.085449">
        <ele>497.50</ele>
        <time>1970-01-01T02:02:55Z</time>
      </trkpt>
      <trkpt lat="41.631123" lon="2.085445">
        <ele>497.40</ele>
        <time>1970-01-01T02:02:57Z</time>
      </trkpt>
      <trkpt lat="41.631122" lon="2.085438">
        <ele>497.40</ele>
        <time>1970-01-01T02:02:58Z</time>
      </trkpt>
      <trkpt lat="41.631121" lon="2.085428">
        <ele>497.30</ele>
        <time>1970-01-01T02:02:59Z</time>
      </trkpt>
      <trkpt lat="41.631118" lon="2.085423">
        <ele>497.20</ele>
        <time>1970-01-01T02:03:00Z</time>
      </trkpt>
      <trkpt lat="41.631094" lon="2.085435">
        <ele>496.80</ele>
        <time>1970-01-01T02:03:02Z</time>
      </trkpt>
      <trkpt lat="41.631084" lon="2.085430">
        <ele>496.70</ele>
        <time>1970-01-01T02:03:04Z</time>
      </trkpt>
      <trkpt lat="41.631061" lon="2.085425">
        <ele>496.40</ele>
        <time>1970-01-01T02:03:05Z</time>
      </trkpt>
      <trkpt lat="41.631036" lon="2.085437">
        <ele>496.00</ele>
        <time>1970-01-01T02:03:07Z</time>
      </trkpt>
      <trkpt lat="41.631013" lon="2.085448">
        <ele>495.60</ele>
        <time>1970-01-01T02:03:08Z</time>
      </trkpt>
      <trkpt lat="41.630988" lon="2.085462">
        <ele>495.20</ele>
        <time>1970-01-01T02:03:10Z</time>
      </trkpt>
      <trkpt lat="41.630971" lon="2.085461">
        <ele>495.00</ele>
        <time>1970-01-01T02:03:11Z</time>
      </trkpt>
      <trkpt lat="41.630971" lon="2.085459">
        <ele>495.00</ele>
        <time>1970-01-01T02:03:12Z</time>
      </trkpt>
      <trkpt lat="41.630974" lon="2.085455">
        <ele>495.00</ele>
        <time>1970-01-01T02:03:14Z</time>
      </trkpt>
      <trkpt lat="41.630974" lon="2.085454">
        <ele>495.00</ele>
        <time>1970-01-01T02:03:15Z</time>
      </trkpt>
      <trkpt lat="41.630976" lon="2.085452">
        <ele>494.90</ele>
        <time>1970-01-01T02:03:17Z</time>
      </trkpt>
      <trkpt lat="41.630976" lon="2.085452">
        <ele>494.90</ele>
        <time>1970-01-01T02:03:18Z</time>
      </trkpt>
      <trkpt lat="41.630976" lon="2.085452">
        <ele>494.90</ele>
        <time>1970-01-01T02:03:19Z</time>
      </trkpt>
      <trkpt lat="41.630976" lon="2.085451">
        <ele>494.90</ele>
        <time>1970-01-01T02:03:21Z</time>
      </trkpt>
      <trkpt lat="41.630976" lon="2.085451">
        <ele>494.90</ele>
        <time>1970-01-01T02:03:22Z</time>
      </trkpt>
      <trkpt lat="41.630976" lon="2.085451">
        <ele>494.90</ele>
        <time>1970-01-01T02:03:23Z</time>
      </trkpt>
      <trkpt lat="41.630976" lon="2.085450">
        <ele>494.90</ele>
        <time>1970-01-01T02:03:25Z</time>
      </trkpt>
      <trkpt lat="41.630976" lon="2.085450">
        <ele>494.90</ele>
        <time>1970-01-01T02:03:26Z</time>
      </trkpt>
      <trkpt lat="41.630975" lon="2.085450">
        <ele>494.90</ele>
        <time>1970-01-01T02:03:28Z</time>
      </trkpt>
      <trkpt lat="41.630975" lon="2.085450">
        <ele>494.90</ele>
        <time>1970-01-01T02:03:29Z</time>
      </trkpt>
      <trkpt lat="41.630975" lon="2.085450">
        <ele>494.90</ele>
        <time>1970-01-01T02:03:31Z</time>
      </trkpt>
      <trkpt lat="41.630975" lon="2.085450">
        <ele>494.90</ele>
        <time>1970-01-01T02:03:32Z</time>
      </trkpt>
      <trkpt lat="41.630975" lon="2.085452">
        <ele>494.90</ele>
        <time>1970-01-01T02:03:34Z</time>
      </trkpt>
      <trkpt lat="41.630979" lon="2.085449">
        <ele>494.80</ele>
        <time>1970-01-01T02:03:36Z</time>
      </trkpt>
      <trkpt lat="41.630983" lon="2.085447">
        <ele>494.80</ele>
        <time>1970-01-01T02:03:38Z</time>
      </trkpt>
      <trkpt lat="41.630983" lon="2.085447">
        <ele>494.80</ele>
        <time>1970-01-01T02:03:40Z</time>
      </trkpt>
      <trkpt lat="41.630974" lon="2.085449">
        <ele>494.70</ele>
        <time>1970-01-01T02:03:43Z</time>
      </trkpt>
      <trkpt lat="41.630981" lon="2.085447">
        <ele>494.60</ele>
        <time>1970-01-01T02:03:45Z</time>
      </trkpt>
      <trkpt lat="41.630983" lon="2.085447">
        <ele>494.60</ele>
        <time>1970-01-01T02:03:46Z</time>
      </trkpt>
      <trkpt lat="41.630983" lon="2.085446">
        <ele>494.60</ele>
        <time>1970-01-01T02:03:48Z</time>
      </trkpt>
      <trkpt lat="41.630983" lon="2.085446">
        <ele>494.60</ele>
        <time>1970-01-01T02:03:50Z</time>
      </trkpt>
      <trkpt lat="41.630983" lon="2.085446">
        <ele>494.60</ele>
        <time>1970-01-01T02:03:52Z</time>
      </trkpt>
      <trkpt lat="41.630983" lon="2.085446">
        <ele>494.60</ele>
        <time>1970-01-01T02:03:53Z</time>
      </trkpt>
      <trkpt lat="41.630983" lon="2.085446">
        <ele>494.60</ele>
        <time>1970-01-01T02:03:55Z</time>
      </trkpt>
      <trkpt lat="41.630982" lon="2.085438">
        <ele>494.50</ele>
        <time>1970-01-01T02:03:57Z</time>
      </trkpt>
      <trkpt lat="41.630976" lon="2.085437">
        <ele>494.40</ele>
        <time>1970-01-01T02:03:58Z</time>
      </trkpt>
      <trkpt lat="41.630969" lon="2.085436">
        <ele>494.40</ele>
        <time>1970-01-01T02:03:59Z</time>
      </trkpt>
      <trkpt lat="41.630949" lon="2.085448">
        <ele>494.10</ele>
        <time>1970-01-01T02:04:00Z</time>
      </trkpt>
      <trkpt lat="41.630938" lon="2.085455">
        <ele>494.00</ele>
        <time>1970-01-01T02:04:02Z</time>
      </trkpt>
      <trkpt lat="41.630928" lon="2.085461">
        <ele>493.80</ele>
        <time>1970-01-01T02:04:03Z</time>
      </trkpt>
      <trkpt lat="41.630897" lon="2.085478">
        <ele>493.40</ele>
        <time>1970-01-01T02:04:04Z</time>
      </trkpt>
      <trkpt lat="41.630886" lon="2.085482">
        <ele>493.30</ele>
        <time>1970-01-01T02:04:05Z</time>
      </trkpt>
      <trkpt lat="41.630855" lon="2.085498">
        <ele>492.80</ele>
        <time>1970-01-01T02:04:07Z</time>
      </trkpt>
      <trkpt lat="41.630812" lon="2.085526">
        <ele>492.10</ele>
        <time>1970-01-01T02:04:09Z</time>
      </trkpt>
      <trkpt lat="41.630764" lon="2.085577">
        <ele>491.20</ele>
        <time>1970-01-01T02:04:10Z</time>
      </trkpt>
      <trkpt lat="41.630725" lon="2.085620">
        <ele>490.50</ele>
        <time>1970-01-01T02:04:11Z</time>
      </trkpt>
      <trkpt lat="41.630689" lon="2.085653">
        <ele>489.70</ele>
        <time>1970-01-01T02:04:13Z</time>
      </trkpt>
      <trkpt lat="41.630601" lon="2.085736">
        <ele>487.90</ele>
        <time>1970-01-01T02:04:14Z</time>
      </trkpt>
      <trkpt lat="41.630503" lon="2.085811">
        <ele>485.90</ele>
        <time>1970-01-01T02:04:16Z</time>
      </trkpt>
      <trkpt lat="41.630409" lon="2.085878">
        <ele>484.00</ele>
        <time>1970-01-01T02:04:18Z</time>
      </trkpt>
      <trkpt lat="41.630344" lon="2.085921">
        <ele>482.80</ele>
        <time>1970-01-01T02:04:20Z</time>
      </trkpt>
      <trkpt lat="41.630306" lon="2.085977">
        <ele>481.90</ele>
        <time>1970-01-01T02:04:21Z</time>
      </trkpt>
      <trkpt lat="41.630252" lon="2.086070">
        <ele>480.50</ele>
        <time>1970-01-01T02:04:23Z</time>
      </trkpt>
      <trkpt lat="41.630217" lon="2.086128">
        <ele>479.70</ele>
        <time>1970-01-01T02:04:24Z</time>
      </trkpt>
      <trkpt lat="41.630181" lon="2.086194">
        <ele>478.70</ele>
        <time>1970-01-01T02:04:26Z</time>
      </trkpt>
      <trkpt lat="41.630163" lon="2.086254">
        <ele>478.00</ele>
        <time>1970-01-01T02:04:27Z</time>
      </trkpt>
      <trkpt lat="41.630146" lon="2.086285">
        <ele>477.50</ele>
        <time>1970-01-01T02:04:28Z</time>
      </trkpt>
      <trkpt lat="41.630125" lon="2.086310">
        <ele>477.00</ele>
        <time>1970-01-01T02:04:29Z</time>
      </trkpt>
      <trkpt lat="41.630100" lon="2.086349">
        <ele>476.40</ele>
        <time>1970-01-01T02:04:30Z</time>
      </trkpt>
      <trkpt lat="41.630098" lon="2.086389">
        <ele>475.80</ele>
        <time>1970-01-01T02:04:32Z</time>
      </trkpt>
      <trkpt lat="41.630096" lon="2.086446">
        <ele>475.00</ele>
        <time>1970-01-01T02:04:33Z</time>
      </trkpt>
      <trkpt lat="41.630106" lon="2.086504">
        <ele>474.20</ele>
        <time>1970-01-01T02:04:34Z</time>
      </trkpt>
      <trkpt lat="41.630125" lon="2.086537">
        <ele>473.60</ele>
        <time>1970-01-01T02:04:36Z</time>
      </trkpt>
      <trkpt lat="41.630158" lon="2.086545">
        <ele>473.00</ele>
        <time>1970-01-01T02:04:37Z</time>
      </trkpt>
      <trkpt lat="41.630192" lon="2.086519">
        <ele>472.30</ele>
        <time>1970-01-01T02:04:38Z</time>
      </trkpt>
      <trkpt lat="41.630226" lon="2.086479">
        <ele>471.40</ele>
        <time>1970-01-01T02:04:39Z</time>
      </trkpt>
      <trkpt lat="41.630259" lon="2.086433">
        <ele>470.40</ele>
        <time>1970-01-01T02:04:40Z</time>
      </trkpt>
      <trkpt lat="41.630308" lon="2.086381">
        <ele>469.10</ele>
        <time>1970-01-01T02:04:41Z</time>
      </trkpt>
      <trkpt lat="41.630350" lon="2.086354">
        <ele>468.20</ele>
        <time>1970-01-01T02:04:42Z</time>
      </trkpt>
      <trkpt lat="41.630482" lon="2.086358">
        <ele>465.60</ele>
        <time>1970-01-01T02:04:44Z</time>
      </trkpt>
      <trkpt lat="41.630526" lon="2.086357">
        <ele>464.80</ele>
        <time>1970-01-01T02:04:45Z</time>
      </trkpt>
      <trkpt lat="41.630549" lon="2.086334">
        <ele>464.20</ele>
        <time>1970-01-01T02:04:47Z</time>
      </trkpt>
      <trkpt lat="41.630597" lon="2.086347">
        <ele>463.30</ele>
        <time>1970-01-01T02:04:48Z</time>
      </trkpt>
      <trkpt lat="41.630622" lon="2.086371">
        <ele>462.80</ele>
        <time>1970-01-01T02:04:49Z</time>
      </trkpt>
      <trkpt lat="41.630597" lon="2.086399">
        <ele>462.20</ele>
        <time>1970-01-01T02:04:50Z</time>
      </trkpt>
      <trkpt lat="41.630582" lon="2.086404">
        <ele>461.90</ele>
        <time>1970-01-01T02:04:51Z</time>
      </trkpt>
      <trkpt lat="41.630495" lon="2.086441">
        <ele>460.30</ele>
        <time>1970-01-01T02:04:53Z</time>
      </trkpt>
      <trkpt lat="41.630445" lon="2.086490">
        <ele>459.20</ele>
        <time>1970-01-01T02:04:54Z</time>
      </trkpt>
      <trkpt lat="41.630407" lon="2.086539">
        <ele>458.40</ele>
        <time>1970-01-01T02:04:55Z</time>
      </trkpt>
      <trkpt lat="41.630370" lon="2.086611">
        <ele>457.30</ele>
        <time>1970-01-01T02:04:56Z</time>
      </trkpt>
      <trkpt lat="41.630339" lon="2.086666">
        <ele>456.50</ele>
        <time>1970-01-01T02:04:57Z</time>
      </trkpt>
      <trkpt lat="41.630307" lon="2.086739">
        <ele>455.60</ele>
        <time>1970-01-01T02:04:59Z</time>
      </trkpt>
      <trkpt lat="41.630295" lon="2.086788">
        <ele>455.10</ele>
        <time>1970-01-01T02:05:01Z</time>
      </trkpt>
      <trkpt lat="41.630292" lon="2.086843">
        <ele>454.50</ele>
        <time>1970-01-01T02:05:02Z</time>
      </trkpt>
      <trkpt lat="41.630291" lon="2.086866">
        <ele>454.30</ele>
        <time>1970-01-01T02:05:03Z</time>
      </trkpt>
      <trkpt lat="41.630280" lon="2.086926">
        <ele>453.70</ele>
        <time>1970-01-01T02:05:04Z</time>
      </trkpt>
      <trkpt lat="41.630254" lon="2.087004">
        <ele>453.00</ele>
        <time>1970-01-01T02:05:06Z</time>
      </trkpt>
      <trkpt lat="41.630221" lon="2.087077">
        <ele>452.20</ele>
        <time>1970-01-01T02:05:07Z</time>
      </trkpt>
      <trkpt lat="41.630173" lon="2.087165">
        <ele>451.10</ele>
        <time>1970-01-01T02:05:08Z</time>
      </trkpt>
      <trkpt lat="41.630110" lon="2.087269">
        <ele>449.80</ele>
        <time>1970-01-01T02:05:10Z</time>
      </trkpt>
      <trkpt lat="41.630088" lon="2.087273">
        <ele>449.50</ele>
        <time>1970-01-01T02:05:11Z</time>
      </trkpt>
      <trkpt lat="41.630043" lon="2.087325">
        <ele>448.70</ele>
        <time>1970-01-01T02:05:13Z</time>
      </trkpt>
      <trkpt lat="41.630012" lon="2.087389">
        <ele>447.90</ele>
        <time>1970-01-01T02:05:14Z</time>
      </trkpt>
      <trkpt lat="41.629964" lon="2.087473">
        <ele>446.80</ele>
        <time>1970-01-01T02:05:16Z</time>
      </trkpt>
      <trkpt lat="41.629935" lon="2.087506">
        <ele>446.30</ele>
        <time>1970-01-01T02:05:17Z</time>
      </trkpt>
      <trkpt lat="41.629908" lon="2.087545">
        <ele>445.80</ele>
        <time>1970-01-01T02:05:19Z</time>
      </trkpt>
      <trkpt lat="41.629877" lon="2.087597">
        <ele>445.20</ele>
        <time>1970-01-01T02:05:20Z</time>
      </trkpt>
      <trkpt lat="41.629838" lon="2.087658">
        <ele>444.60</ele>
        <time>1970-01-01T02:05:21Z</time>
      </trkpt>
      <trkpt lat="41.629803" lon="2.087687">
        <ele>444.10</ele>
        <time>1970-01-01T02:05:23Z</time>
      </trkpt>
      <trkpt lat="41.629724" lon="2.087723">
        <ele>443.10</ele>
        <time>1970-01-01T02:05:24Z</time>
      </trkpt>
      <trkpt lat="41.629614" lon="2.087757">
        <ele>441.80</ele>
        <time>1970-01-01T02:05:26Z</time>
      </trkpt>
      <trkpt lat="41.629502" lon="2.087798">
        <ele>440.30</ele>
        <time>1970-01-01T02:05:28Z</time>
      </trkpt>
      <trkpt lat="41.629445" lon="2.087824">
        <ele>439.50</ele>
        <time>1970-01-01T02:05:29Z</time>
      </trkpt>
      <trkpt lat="41.629340" lon="2.087901">
        <ele>438.00</ele>
        <time>1970-01-01T02:05:31Z</time>
      </trkpt>
      <trkpt lat="41.629239" lon="2.087966">
        <ele>436.70</ele>
        <time>1970-01-01T02:05:33Z</time>
      </trkpt>
      <trkpt lat="41.629184" lon="2.087986">
        <ele>436.10</ele>
        <time>1970-01-01T02:05:34Z</time>
      </trkpt>
      <trkpt lat="41.629078" lon="2.087978">
        <ele>435.00</ele>
        <time>1970-01-01T02:05:36Z</time>
      </trkpt>
      <trkpt lat="41.629026" lon="2.087956">
        <ele>434.50</ele>
        <time>1970-01-01T02:05:37Z</time>
      </trkpt>
      <trkpt lat="41.628934" lon="2.087861">
        <ele>433.50</ele>
        <time>1970-01-01T02:05:39Z</time>
      </trkpt>
      <trkpt lat="41.628886" lon="2.087805">
        <ele>432.90</ele>
        <time>1970-01-01T02:05:40Z</time>
      </trkpt>
      <trkpt lat="41.628791" lon="2.087719">
        <ele>432.00</ele>
        <time>1970-01-01T02:05:42Z</time>
      </trkpt>
      <trkpt lat="41.628749" lon="2.087675">
        <ele>431.70</ele>
        <time>1970-01-01T02:05:43Z</time>
      </trkpt>
      <trkpt lat="41.628667" lon="2.087582">
        <ele>430.90</ele>
        <time>1970-01-01T02:05:45Z</time>
      </trkpt>
      <trkpt lat="41.628609" lon="2.087574">
        <ele>430.50</ele>
        <time>1970-01-01T02:05:47Z</time>
      </trkpt>
      <trkpt lat="41.628579" lon="2.087589">
        <ele>430.30</ele>
        <time>1970-01-01T02:05:48Z</time>
      </trkpt>
      <trkpt lat="41.628567" lon="2.087620">
        <ele>430.10</ele>
        <time>1970-01-01T02:05:50Z</time>
      </trkpt>
      <trkpt lat="41.628566" lon="2.087629">
        <ele>430.10</ele>
        <time>1970-01-01T02:05:51Z</time>
      </trkpt>
      <trkpt lat="41.628569" lon="2.087629">
        <ele>430.00</ele>
        <time>1970-01-01T02:05:53Z</time>
      </trkpt>
      <trkpt lat="41.628570" lon="2.087628">
        <ele>430.00</ele>
        <time>1970-01-01T02:05:54Z</time>
      </trkpt>
      <trkpt lat="41.628571" lon="2.087628">
        <ele>430.00</ele>
        <time>1970-01-01T02:05:55Z</time>
      </trkpt>
      <trkpt lat="41.628574" lon="2.087628">
        <ele>430.00</ele>
        <time>1970-01-01T02:05:56Z</time>
      </trkpt>
      <trkpt lat="41.628576" lon="2.087626">
        <ele>430.00</ele>
        <time>1970-01-01T02:05:58Z</time>
      </trkpt>
      <trkpt lat="41.628578" lon="2.087625">
        <ele>430.00</ele>
        <time>1970-01-01T02:06:00Z</time>
      </trkpt>
      <trkpt lat="41.628578" lon="2.087626">
        <ele>430.00</ele>
        <time>1970-01-01T02:06:02Z</time>
      </trkpt>
      <trkpt lat="41.628579" lon="2.087626">
        <ele>430.00</ele>
        <time>1970-01-01T02:06:04Z</time>
      </trkpt>
      <trkpt lat="41.628579" lon="2.087626">
        <ele>430.00</ele>
        <time>1970-01-01T02:06:05Z</time>
      </trkpt>
      <trkpt lat="41.628579" lon="2.087625">
        <ele>430.00</ele>
        <time>1970-01-01T02:06:07Z</time>
      </trkpt>
      <trkpt lat="41.628579" lon="2.087625">
        <ele>430.00</ele>
        <time>1970-01-01T02:06:08Z</time>
      </trkpt>
      <trkpt lat="41.628576" lon="2.087626">
        <ele>429.90</ele>
        <time>1970-01-01T02:06:10Z</time>
      </trkpt>
      <trkpt lat="41.628568" lon="2.087629">
        <ele>429.90</ele>
        <time>1970-01-01T02:06:12Z</time>
      </trkpt>
      <trkpt lat="41.628527" lon="2.087662">
        <ele>429.50</ele>
        <time>1970-01-01T02:06:14Z</time>
      </trkpt>
      <trkpt lat="41.628500" lon="2.087685">
        <ele>429.30</ele>
        <time>1970-01-01T02:06:15Z</time>
      </trkpt>
      <trkpt lat="41.628471" lon="2.087702">
        <ele>429.10</ele>
        <time>1970-01-01T02:06:16Z</time>
      </trkpt>
      <trkpt lat="41.628421" lon="2.087740">
        <ele>428.70</ele>
        <time>1970-01-01T02:06:18Z</time>
      </trkpt>
      <trkpt lat="41.628382" lon="2.087760">
        <ele>428.40</ele>
        <time>1970-01-01T02:06:19Z</time>
      </trkpt>
      <trkpt lat="41.628338" lon="2.087772">
        <ele>428.00</ele>
        <time>1970-01-01T02:06:20Z</time>
      </trkpt>
      <trkpt lat="41.628293" lon="2.087786">
        <ele>427.60</ele>
        <time>1970-01-01T02:06:21Z</time>
      </trkpt>
      <trkpt lat="41.628239" lon="2.087800">
        <ele>427.20</ele>
        <time>1970-01-01T02:06:22Z</time>
      </trkpt>
      <trkpt lat="41.628201" lon="2.087808">
        <ele>426.90</ele>
        <time>1970-01-01T02:06:24Z</time>
      </trkpt>
      <trkpt lat="41.628160" lon="2.087825">
        <ele>426.50</ele>
        <time>1970-01-01T02:06:25Z</time>
      </trkpt>
      <trkpt lat="41.628133" lon="2.087837">
        <ele>426.20</ele>
        <time>1970-01-01T02:06:26Z</time>
      </trkpt>
      <trkpt lat="41.628094" lon="2.087849">
        <ele>425.90</ele>
        <time>1970-01-01T02:06:28Z</time>
      </trkpt>
      <trkpt lat="41.628054" lon="2.087856">
        <ele>425.50</ele>
        <time>1970-01-01T02:06:29Z</time>
      </trkpt>
      <trkpt lat="41.628022" lon="2.087856">
        <ele>425.20</ele>
        <time>1970-01-01T02:06:31Z</time>
      </trkpt>
      <trkpt lat="41.627991" lon="2.087859">
        <ele>424.90</ele>
        <time>1970-01-01T02:06:32Z</time>
      </trkpt>
      <trkpt lat="41.627946" lon="2.087855">
        <ele>424.60</ele>
        <time>1970-01-01T02:06:33Z</time>
      </trkpt>
      <trkpt lat="41.627915" lon="2.087841">
        <ele>424.30</ele>
        <time>1970-01-01T02:06:34Z</time>
      </trkpt>
      <trkpt lat="41.627882" lon="2.087812">
        <ele>424.00</ele>
        <time>1970-01-01T02:06:35Z</time>
      </trkpt>
      <trkpt lat="41.627833" lon="2.087776">
        <ele>423.60</ele>
        <time>1970-01-01T02:06:37Z</time>
      </trkpt>
      <trkpt lat="41.627795" lon="2.087752">
        <ele>423.40</ele>
        <time>1970-01-01T02:06:38Z</time>
      </trkpt>
      <trkpt lat="41.627744" lon="2.087739">
        <ele>423.00</ele>
        <time>1970-01-01T02:06:40Z</time>
      </trkpt>
      <trkpt lat="41.627674" lon="2.087758">
        <ele>422.60</ele>
        <time>1970-01-01T02:06:42Z</time>
      </trkpt>
      <trkpt lat="41.627646" lon="2.087781">
        <ele>422.40</ele>
        <time>1970-01-01T02:06:43Z</time>
      </trkpt>
      <trkpt lat="41.627619" lon="2.087810">
        <ele>422.20</ele>
        <time>1970-01-01T02:06:44Z</time>
      </trkpt>
      <trkpt lat="41.627590" lon="2.087864">
        <ele>421.80</ele>
        <time>1970-01-01T02:06:46Z</time>
      </trkpt>
      <trkpt lat="41.627544" lon="2.087926">
        <ele>421.40</ele>
        <time>1970-01-01T02:06:47Z</time>
      </trkpt>
      <trkpt lat="41.627467" lon="2.088012">
        <ele>420.60</ele>
        <time>1970-01-01T02:06:49Z</time>
      </trkpt>
      <trkpt lat="41.627419" lon="2.088043">
        <ele>420.20</ele>
        <time>1970-01-01T02:06:50Z</time>
      </trkpt>
      <trkpt lat="41.627343" lon="2.088077">
        <ele>419.40</ele>
        <time>1970-01-01T02:06:52Z</time>
      </trkpt>
      <trkpt lat="41.627295" lon="2.088090">
        <ele>418.80</ele>
        <time>1970-01-01T02:06:53Z</time>
      </trkpt>
      <trkpt lat="41.627253" lon="2.088105">
        <ele>418.30</ele>
        <time>1970-01-01T02:06:54Z</time>
      </trkpt>
      <trkpt lat="41.627213" lon="2.088115">
        <ele>417.70</ele>
        <time>1970-01-01T02:06:55Z</time>
      </trkpt>
      <trkpt lat="41.627147" lon="2.088132">
        <ele>416.90</ele>
        <time>1970-01-01T02:06:57Z</time>
      </trkpt>
      <trkpt lat="41.627080" lon="2.088149">
        <ele>416.00</ele>
        <time>1970-01-01T02:06:58Z</time>
      </trkpt>
      <trkpt lat="41.627006" lon="2.088163">
        <ele>415.10</ele>
        <time>1970-01-01T02:06:59Z</time>
      </trkpt>
      <trkpt lat="41.626928" lon="2.088147">
        <ele>414.00</ele>
        <time>1970-01-01T02:07:01Z</time>
      </trkpt>
      <trkpt lat="41.626871" lon="2.088109">
        <ele>413.20</ele>
        <time>1970-01-01T02:07:02Z</time>
      </trkpt>
      <trkpt lat="41.626821" lon="2.088078">
        <ele>412.50</ele>
        <time>1970-01-01T02:07:03Z</time>
      </trkpt>
      <trkpt lat="41.626748" lon="2.088022">
        <ele>411.40</ele>
        <time>1970-01-01T02:07:05Z</time>
      </trkpt>
      <trkpt lat="41.626697" lon="2.087951">
        <ele>410.60</ele>
        <time>1970-01-01T02:07:07Z</time>
      </trkpt>
      <trkpt lat="41.626652" lon="2.087932">
        <ele>410.00</ele>
        <time>1970-01-01T02:07:08Z</time>
      </trkpt>
      <trkpt lat="41.626597" lon="2.087907">
        <ele>409.40</ele>
        <time>1970-01-01T02:07:10Z</time>
      </trkpt>
      <trkpt lat="41.626550" lon="2.087890">
        <ele>408.80</ele>
        <time>1970-01-01T02:07:11Z</time>
      </trkpt>
      <trkpt lat="41.626501" lon="2.087877">
        <ele>408.30</ele>
        <time>1970-01-01T02:07:12Z</time>
      </trkpt>
      <trkpt lat="41.626451" lon="2.087856">
        <ele>407.80</ele>
        <time>1970-01-01T02:07:14Z</time>
      </trkpt>
      <trkpt lat="41.626413" lon="2.087829">
        <ele>407.30</ele>
        <time>1970-01-01T02:07:15Z</time>
      </trkpt>
      <trkpt lat="41.626383" lon="2.087792">
        <ele>406.90</ele>
        <time>1970-01-01T02:07:17Z</time>
      </trkpt>
      <trkpt lat="41.626355" lon="2.087752">
        <ele>406.60</ele>
        <time>1970-01-01T02:07:18Z</time>
      </trkpt>
      <trkpt lat="41.626337" lon="2.087693">
        <ele>406.10</ele>
        <time>1970-01-01T02:07:19Z</time>
      </trkpt>
      <trkpt lat="41.626314" lon="2.087622">
        <ele>405.60</ele>
        <time>1970-01-01T02:07:21Z</time>
      </trkpt>
      <trkpt lat="41.626296" lon="2.087527">
        <ele>404.90</ele>
        <time>1970-01-01T02:07:23Z</time>
      </trkpt>
      <trkpt lat="41.626285" lon="2.087462">
        <ele>404.50</ele>
        <time>1970-01-01T02:07:24Z</time>
      </trkpt>
      <trkpt lat="41.626271" lon="2.087380">
        <ele>404.00</ele>
        <time>1970-01-01T02:07:26Z</time>
      </trkpt>
      <trkpt lat="41.626259" lon="2.087329">
        <ele>403.70</ele>
        <time>1970-01-01T02:07:27Z</time>
      </trkpt>
      <trkpt lat="41.626243" lon="2.087236">
        <ele>403.10</ele>
        <time>1970-01-01T02:07:29Z</time>
      </trkpt>
      <trkpt lat="41.626237" lon="2.087175">
        <ele>403.60</ele>
        <time>1970-01-01T02:07:30Z</time>
      </trkpt>
      <trkpt lat="41.626228" lon="2.087089">
        <ele>404.00</ele>
        <time>1970-01-01T02:07:31Z</time>
      </trkpt>
      <trkpt lat="41.626224" lon="2.086995">
        <ele>404.30</ele>
        <time>1970-01-01T02:07:33Z</time>
      </trkpt>
      <trkpt lat="41.626231" lon="2.086936">
        <ele>404.40</ele>
        <time>1970-01-01T02:07:34Z</time>
      </trkpt>
      <trkpt lat="41.626242" lon="2.086846">
        <ele>405.00</ele>
        <time>1970-01-01T02:07:36Z</time>
      </trkpt>
      <trkpt lat="41.626246" lon="2.086780">
        <ele>405.80</ele>
        <time>1970-01-01T02:07:37Z</time>
      </trkpt>
      <trkpt lat="41.626242" lon="2.086747">
        <ele>406.00</ele>
        <time>1970-01-01T02:07:38Z</time>
      </trkpt>
      <trkpt lat="41.626225" lon="2.086712">
        <ele>406.20</ele>
        <time>1970-01-01T02:07:40Z</time>
      </trkpt>
      <trkpt lat="41.626207" lon="2.086692">
        <ele>405.00</ele>
        <time>1970-01-01T02:07:41Z</time>
      </trkpt>
      <trkpt lat="41.626184" lon="2.086695">
        <ele>403.90</ele>
        <time>1970-01-01T02:07:43Z</time>
      </trkpt>
      <trkpt lat="41.626174" lon="2.086728">
        <ele>402.80</ele>
        <time>1970-01-01T02:07:44Z</time>
      </trkpt>
      <trkpt lat="41.626172" lon="2.086740">
        <ele>402.40</ele>
        <time>1970-01-01T02:07:45Z</time>
      </trkpt>
      <trkpt lat="41.626174" lon="2.086749">
        <ele>402.00</ele>
        <time>1970-01-01T02:07:47Z</time>
      </trkpt>
      <trkpt lat="41.626173" lon="2.086755">
        <ele>401.60</ele>
        <time>1970-01-01T02:07:49Z</time>
      </trkpt>
      <trkpt lat="41.626172" lon="2.086761">
        <ele>400.60</ele>
        <time>1970-01-01T02:07:51Z</time>
      </trkpt>
      <trkpt lat="41.626171" lon="2.086767">
        <ele>400.20</ele>
        <time>1970-01-01T02:07:52Z</time>
      </trkpt>
      <trkpt lat="41.626170" lon="2.086773">
        <ele>399.80</ele>
        <time>1970-01-01T02:07:54Z</time>
      </trkpt>
      <trkpt lat="41.626168" lon="2.086778">
        <ele>399.30</ele>
        <time>1970-01-01T02:07:55Z</time>
      </trkpt>
      <trkpt lat="41.626167" lon="2.086784">
        <ele>398.90</ele>
        <time>1970-01-01T02:07:57Z</time>
      </trkpt>
      <trkpt lat="41.626166" lon="2.086790">
        <ele>398.50</ele>
        <time>1970-01-01T02:07:58Z</time>
      </trkpt>
      <trkpt lat="41.626165" lon="2.086796">
        <ele>398.10</ele>
        <time>1970-01-01T02:07:59Z</time>
      </trkpt>
      <trkpt lat="41.626164" lon="2.086802">
        <ele>397.10</ele>
        <time>1970-01-01T02:08:00Z</time>
      </trkpt>
      <trkpt lat="41.626170" lon="2.086859">
        <ele>396.70</ele>
        <time>1970-01-01T02:08:02Z</time>
      </trkpt>
      <trkpt lat="41.626174" lon="2.086908">
        <ele>396.40</ele>
        <time>1970-01-01T02:08:03Z</time>
      </trkpt>
      <trkpt lat="41.626174" lon="2.086951">
        <ele>396.10</ele>
        <time>1970-01-01T02:08:04Z</time>
      </trkpt>
      <trkpt lat="41.626175" lon="2.086991">
        <ele>395.90</ele>
        <time>1970-01-01T02:08:06Z</time>
      </trkpt>
      <trkpt lat="41.626174" lon="2.087014">
        <ele>395.70</ele>
        <time>1970-01-01T02:08:07Z</time>
      </trkpt>
      <trkpt lat="41.626170" lon="2.087055">
        <ele>395.50</ele>
        <time>1970-01-01T02:08:09Z</time>
      </trkpt>
      <trkpt lat="41.626164" lon="2.087082">
        <ele>395.30</ele>
        <time>1970-01-01T02:08:10Z</time>
      </trkpt>
      <trkpt lat="41.626158" lon="2.087126">
        <ele>395.00</ele>
        <time>1970-01-01T02:08:12Z</time>
      </trkpt>
      <trkpt lat="41.626156" lon="2.087133">
        <ele>395.00</ele>
        <time>1970-01-01T02:08:13Z</time>
      </trkpt>
      <trkpt lat="41.626162" lon="2.087137">
        <ele>394.90</ele>
        <time>1970-01-01T02:08:15Z</time>
      </trkpt>
      <trkpt lat="41.626164" lon="2.087136">
        <ele>394.90</ele>
        <time>1970-01-01T02:08:17Z</time>
      </trkpt>
      <trkpt lat="41.626165" lon="2.087136">
        <ele>394.90</ele>
        <time>1970-01-01T02:08:18Z</time>
      </trkpt>
      <trkpt lat="41.626166" lon="2.087137">
        <ele>394.90</ele>
        <time>1970-01-01T02:08:19Z</time>
      </trkpt>
      <trkpt lat="41.626166" lon="2.087137">
        <ele>394.90</ele>
        <time>1970-01-01T02:08:20Z</time>
      </trkpt>
      <trkpt lat="41.626166" lon="2.087138">
        <ele>394.90</ele>
        <time>1970-01-01T02:08:22Z</time>
      </trkpt>
      <trkpt lat="41.626166" lon="2.087139">
        <ele>394.80</ele>
        <time>1970-01-01T02:08:23Z</time>
      </trkpt>
      <trkpt lat="41.626166" lon="2.087140">
        <ele>394.80</ele>
        <time>1970-01-01T02:08:24Z</time>
      </trkpt>
      <trkpt lat="41.626166" lon="2.087140">
        <ele>394.80</ele>
        <time>1970-01-01T02:08:25Z</time>
      </trkpt>
      <trkpt lat="41.626166" lon="2.087140">
        <ele>394.80</ele>
        <time>1970-01-01T02:08:26Z</time>
      </trkpt>
      <trkpt lat="41.626167" lon="2.087145">
        <ele>394.80</ele>
        <time>1970-01-01T02:08:27Z</time>
      </trkpt>
      <trkpt lat="41.626170" lon="2.087161">
        <ele>394.70</ele>
        <time>1970-01-01T02:08:29Z</time>
      </trkpt>
      <trkpt lat="41.626174" lon="2.087203">
        <ele>394.40</ele>
        <time>1970-01-01T02:08:31Z</time>
      </trkpt>
      <trkpt lat="41.626174" lon="2.087239">
        <ele>394.20</ele>
        <time>1970-01-01T02:08:32Z</time>
      </trkpt>
      <trkpt lat="41.626174" lon="2.087279">
        <ele>393.90</ele>
        <time>1970-01-01T02:08:33Z</time>
      </trkpt>
      <trkpt lat="41.626178" lon="2.087344">
        <ele>393.50</ele>
        <time>1970-01-01T02:08:34Z</time>
      </trkpt>
      <trkpt lat="41.626179" lon="2.087402">
        <ele>393.10</ele>
        <time>1970-01-01T02:08:36Z</time>
      </trkpt>
      <trkpt lat="41.626178" lon="2.087441">
        <ele>392.80</ele>
        <time>1970-01-01T02:08:37Z</time>
      </trkpt>
      <trkpt lat="41.626175" lon="2.087478">
        <ele>392.60</ele>
        <time>1970-01-01T02:08:38Z</time>
      </trkpt>
      <trkpt lat="41.626170" lon="2.087534">
        <ele>392.20</ele>
        <time>1970-01-01T02:08:39Z</time>
      </trkpt>
      <trkpt lat="41.626158" lon="2.087588">
        <ele>391.90</ele>
        <time>1970-01-01T02:08:41Z</time>
      </trkpt>
      <trkpt lat="41.626151" lon="2.087641">
        <ele>391.60</ele>
        <time>1970-01-01T02:08:42Z</time>
      </trkpt>
      <trkpt lat="41.626141" lon="2.087704">
        <ele>391.20</ele>
        <time>1970-01-01T02:08:43Z</time>
      </trkpt>
      <trkpt lat="41.626136" lon="2.087757">
        <ele>390.90</ele>
        <time>1970-01-01T02:08:44Z</time>
      </trkpt>
      <trkpt lat="41.626127" lon="2.087842">
        <ele>390.40</ele>
        <time>1970-01-01T02:08:46Z</time>
      </trkpt>
      <trkpt lat="41.626118" lon="2.087900">
        <ele>390.10</ele>
        <time>1970-01-01T02:08:47Z</time>
      </trkpt>
      <trkpt lat="41.626113" lon="2.087965">
        <ele>389.70</ele>
        <time>1970-01-01T02:08:49Z</time>
      </trkpt>
      <trkpt lat="41.626123" lon="2.088019">
        <ele>389.30</ele>
        <time>1970-01-01T02:08:50Z</time>
      </trkpt>
      <trkpt lat="41.626143" lon="2.088067">
        <ele>388.90</ele>
        <time>1970-01-01T02:08:51Z</time>
      </trkpt>
      <trkpt lat="41.626164" lon="2.088117">
        <ele>388.50</ele>
        <time>1970-01-01T02:08:53Z</time>
      </trkpt>
      <trkpt lat="41.626192" lon="2.088160">
        <ele>388.10</ele>
        <time>1970-01-01T02:08:54Z</time>
      </trkpt>
      <trkpt lat="41.626199" lon="2.088181">
        <ele>388.00</ele>
        <time>1970-01-01T02:08:55Z</time>
      </trkpt>
      <trkpt lat="41.626191" lon="2.088218">
        <ele>387.70</ele>
        <time>1970-01-01T02:08:56Z</time>
      </trkpt>
      <trkpt lat="41.626157" lon="2.088225">
        <ele>387.40</ele>
        <time>1970-01-01T02:08:57Z</time>
      </trkpt>
      <trkpt lat="41.626118" lon="2.088201">
        <ele>387.00</ele>
        <time>1970-01-01T02:08:59Z</time>
      </trkpt>
      <trkpt lat="41.626076" lon="2.088172">
        <ele>386.50</ele>
        <time>1970-01-01T02:09:01Z</time>
      </trkpt>
      <trkpt lat="41.626059" lon="2.088155">
        <ele>386.30</ele>
        <time>1970-01-01T02:09:03Z</time>
      </trkpt>
      <trkpt lat="41.626042" lon="2.088139">
        <ele>386.10</ele>
        <time>1970-01-01T02:09:04Z</time>
      </trkpt>
      <trkpt lat="41.626025" lon="2.088123">
        <ele>385.90</ele>
        <time>1970-01-01T02:09:05Z</time>
      </trkpt>
      <trkpt lat="41.626012" lon="2.088107">
        <ele>385.80</ele>
        <time>1970-01-01T02:09:06Z</time>
      </trkpt>
      <trkpt lat="41.625991" lon="2.088111">
        <ele>385.60</ele>
        <time>1970-01-01T02:09:09Z</time>
      </trkpt>
      <trkpt lat="41.625991" lon="2.088120">
        <ele>385.50</ele>
        <time>1970-01-01T02:09:10Z</time>
      </trkpt>
      <trkpt lat="41.625987" lon="2.088137">
        <ele>385.40</ele>
        <time>1970-01-01T02:09:12Z</time>
      </trkpt>
      <trkpt lat="41.625983" lon="2.088149">
        <ele>385.30</ele>
        <time>1970-01-01T02:09:14Z</time>
      </trkpt>
      <trkpt lat="41.625977" lon="2.088161">
        <ele>385.20</ele>
        <time>1970-01-01T02:09:16Z</time>
      </trkpt>
      <trkpt lat="41.625974" lon="2.088161">
        <ele>385.20</ele>
        <time>1970-01-01T02:09:18Z</time>
      </trkpt>
      <trkpt lat="41.625972" lon="2.088156">
        <ele>385.10</ele>
        <time>1970-01-01T02:09:19Z</time>
      </trkpt>
      <trkpt lat="41.625965" lon="2.088144">
        <ele>385.00</ele>
        <time>1970-01-01T02:09:20Z</time>
      </trkpt>
      <trkpt lat="41.625946" lon="2.088106">
        <ele>384.60</ele>
        <time>1970-01-01T02:09:22Z</time>
      </trkpt>
      <trkpt lat="41.625932" lon="2.088072">
        <ele>384.40</ele>
        <time>1970-01-01T02:09:23Z</time>
      </trkpt>
      <trkpt lat="41.625905" lon="2.088038">
        <ele>384.00</ele>
        <time>1970-01-01T02:09:24Z</time>
      </trkpt>
      <trkpt lat="41.625893" lon="2.088031">
        <ele>383.80</ele>
        <time>1970-01-01T02:09:25Z</time>
      </trkpt>
      <trkpt lat="41.625867" lon="2.088059">
        <ele>383.50</ele>
        <time>1970-01-01T02:09:27Z</time>
      </trkpt>
      <trkpt lat="41.625860" lon="2.088076">
        <ele>383.40</ele>
        <time>1970-01-01T02:09:28Z</time>
      </trkpt>
      <trkpt lat="41.625854" lon="2.088115">
        <ele>383.10</ele>
        <time>1970-01-01T02:09:29Z</time>
      </trkpt>
      <trkpt lat="41.625854" lon="2.088167">
        <ele>382.70</ele>
        <time>1970-01-01T02:09:30Z</time>
      </trkpt>
      <trkpt lat="41.625867" lon="2.088208">
        <ele>382.40</ele>
        <time>1970-01-01T02:09:32Z</time>
      </trkpt>
      <trkpt lat="41.625877" lon="2.088252">
        <ele>382.00</ele>
        <time>1970-01-01T02:09:34Z</time>
      </trkpt>
      <trkpt lat="41.625890" lon="2.088321">
        <ele>381.50</ele>
        <time>1970-01-01T02:09:36Z</time>
      </trkpt>
      <trkpt lat="41.625902" lon="2.088374">
        <ele>381.10</ele>
        <time>1970-01-01T02:09:37Z</time>
      </trkpt>
      <trkpt lat="41.625914" lon="2.088428">
        <ele>380.70</ele>
        <time>1970-01-01T02:09:38Z</time>
      </trkpt>
      <trkpt lat="41.625919" lon="2.088473">
        <ele>380.40</ele>
        <time>1970-01-01T02:09:39Z</time>
      </trkpt>
      <trkpt lat="41.625902" lon="2.088507">
        <ele>379.90</ele>
        <time>1970-01-01T02:09:41Z</time>
      </trkpt>
      <trkpt lat="41.625874" lon="2.088487">
        <ele>379.60</ele>
        <time>1970-01-01T02:09:42Z</time>
      </trkpt>
      <trkpt lat="41.625840" lon="2.088456">
        <ele>379.10</ele>
        <time>1970-01-01T02:09:43Z</time>
      </trkpt>
      <trkpt lat="41.625792" lon="2.088423">
        <ele>378.60</ele>
        <time>1970-01-01T02:09:45Z</time>
      </trkpt>
      <trkpt lat="41.625749" lon="2.088380">
        <ele>378.20</ele>
        <time>1970-01-01T02:09:46Z</time>
      </trkpt>
      <trkpt lat="41.625712" lon="2.088326">
        <ele>377.80</ele>
        <time>1970-01-01T02:09:47Z</time>
      </trkpt>
      <trkpt lat="41.625675" lon="2.088256">
        <ele>377.30</ele>
        <time>1970-01-01T02:09:48Z</time>
      </trkpt>
      <trkpt lat="41.625636" lon="2.088164">
        <ele>376.80</ele>
        <time>1970-01-01T02:09:50Z</time>
      </trkpt>
      <trkpt lat="41.625618" lon="2.088098">
        <ele>376.40</ele>
        <time>1970-01-01T02:09:51Z</time>
      </trkpt>
      <trkpt lat="41.625609" lon="2.088041">
        <ele>376.10</ele>
        <time>1970-01-01T02:09:53Z</time>
      </trkpt>
      <trkpt lat="41.625602" lon="2.088013">
        <ele>376.00</ele>
        <time>1970-01-01T02:09:54Z</time>
      </trkpt>
      <trkpt lat="41.625602" lon="2.087942">
        <ele>375.70</ele>
        <time>1970-01-01T02:09:56Z</time>
      </trkpt>
      <trkpt lat="41.625612" lon="2.087877">
        <ele>375.50</ele>
        <time>1970-01-01T02:09:57Z</time>
      </trkpt>
      <trkpt lat="41.625622" lon="2.087806">
        <ele>375.40</ele>
        <time>1970-01-01T02:09:58Z</time>
      </trkpt>
      <trkpt lat="41.625623" lon="2.087733">
        <ele>375.40</ele>
        <time>1970-01-01T02:10:00Z</time>
      </trkpt>
      <trkpt lat="41.625605" lon="2.087670">
        <ele>375.50</ele>
        <time>1970-01-01T02:10:01Z</time>
      </trkpt>
      <trkpt lat="41.625578" lon="2.087634">
        <ele>375.60</ele>
        <time>1970-01-01T02:10:03Z</time>
      </trkpt>
      <trkpt lat="41.625538" lon="2.087615">
        <ele>375.80</ele>
        <time>1970-01-01T02:10:04Z</time>
      </trkpt>
      <trkpt lat="41.625522" lon="2.087611">
        <ele>375.80</ele>
        <time>1970-01-01T02:10:05Z</time>
      </trkpt>
      <trkpt lat="41.625494" lon="2.087604">
        <ele>376.00</ele>
        <time>1970-01-01T02:10:06Z</time>
      </trkpt>
      <trkpt lat="41.625453" lon="2.087603">
        <ele>376.20</ele>
        <time>1970-01-01T02:10:07Z</time>
      </trkpt>
      <trkpt lat="41.625438" lon="2.087603">
        <ele>376.30</ele>
        <time>1970-01-01T02:10:08Z</time>
      </trkpt>
      <trkpt lat="41.625394" lon="2.087603">
        <ele>376.50</ele>
        <time>1970-01-01T02:10:09Z</time>
      </trkpt>
      <trkpt lat="41.625342" lon="2.087597">
        <ele>376.70</ele>
        <time>1970-01-01T02:10:11Z</time>
      </trkpt>
      <trkpt lat="41.625293" lon="2.087593">
        <ele>376.90</ele>
        <time>1970-01-01T02:10:12Z</time>
      </trkpt>
      <trkpt lat="41.625246" lon="2.087583">
        <ele>377.10</ele>
        <time>1970-01-01T02:10:13Z</time>
      </trkpt>
      <trkpt lat="41.625206" lon="2.087558">
        <ele>377.20</ele>
        <time>1970-01-01T02:10:15Z</time>
      </trkpt>
      <trkpt lat="41.625185" lon="2.087526">
        <ele>377.30</ele>
        <time>1970-01-01T02:10:16Z</time>
      </trkpt>
      <trkpt lat="41.625160" lon="2.087492">
        <ele>377.40</ele>
        <time>1970-01-01T02:10:17Z</time>
      </trkpt>
      <trkpt lat="41.625151" lon="2.087480">
        <ele>377.40</ele>
        <time>1970-01-01T02:10:18Z</time>
      </trkpt>
      <trkpt lat="41.625132" lon="2.087468">
        <ele>377.50</ele>
        <time>1970-01-01T02:10:19Z</time>
      </trkpt>
      <trkpt lat="41.625095" lon="2.087472">
        <ele>377.60</ele>
        <time>1970-01-01T02:10:21Z</time>
      </trkpt>
      <trkpt lat="41.625070" lon="2.087486">
        <ele>377.60</ele>
        <time>1970-01-01T02:10:22Z</time>
      </trkpt>
      <trkpt lat="41.625044" lon="2.087491">
        <ele>377.60</ele>
        <time>1970-01-01T02:10:23Z</time>
      </trkpt>
      <trkpt lat="41.625008" lon="2.087490">
        <ele>377.70</ele>
        <time>1970-01-01T02:10:25Z</time>
      </trkpt>
      <trkpt lat="41.624979" lon="2.087468">
        <ele>377.70</ele>
        <time>1970-01-01T02:10:26Z</time>
      </trkpt>
      <trkpt lat="41.624968" lon="2.087460">
        <ele>377.70</ele>
        <time>1970-01-01T02:10:27Z</time>
      </trkpt>
      <trkpt lat="41.624935" lon="2.087445">
        <ele>377.70</ele>
        <time>1970-01-01T02:10:29Z</time>
      </trkpt>
      <trkpt lat="41.624926" lon="2.087441">
        <ele>377.70</ele>
        <time>1970-01-01T02:10:30Z</time>
      </trkpt>
      <trkpt lat="41.624896" lon="2.087430">
        <ele>377.70</ele>
        <time>1970-01-01T02:10:31Z</time>
      </trkpt>
      <trkpt lat="41.624881" lon="2.087424">
        <ele>377.70</ele>
        <time>1970-01-01T02:10:32Z</time>
      </trkpt>
      <trkpt lat="41.624856" lon="2.087411">
        <ele>377.70</ele>
        <time>1970-01-01T02:10:33Z</time>
      </trkpt>
      <trkpt lat="41.624818" lon="2.087392">
        <ele>377.60</ele>
        <time>1970-01-01T02:10:35Z</time>
      </trkpt>
      <trkpt lat="41.624787" lon="2.087377">
        <ele>377.60</ele>
        <time>1970-01-01T02:10:36Z</time>
      </trkpt>
      <trkpt lat="41.624761" lon="2.087364">
        <ele>377.60</ele>
        <time>1970-01-01T02:10:38Z</time>
      </trkpt>
      <trkpt lat="41.624731" lon="2.087344">
        <ele>377.50</ele>
        <time>1970-01-01T02:10:39Z</time>
      </trkpt>
      <trkpt lat="41.624683" lon="2.087322">
        <ele>377.30</ele>
        <time>1970-01-01T02:10:41Z</time>
      </trkpt>
      <trkpt lat="41.624654" lon="2.087314">
        <ele>377.30</ele>
        <time>1970-01-01T02:10:42Z</time>
      </trkpt>
      <trkpt lat="41.624614" lon="2.087309">
        <ele>377.10</ele>
        <time>1970-01-01T02:10:43Z</time>
      </trkpt>
      <trkpt lat="41.624579" lon="2.087308">
        <ele>377.00</ele>
        <time>1970-01-01T02:10:44Z</time>
      </trkpt>
      <trkpt lat="41.624539" lon="2.087308">
        <ele>376.90</ele>
        <time>1970-01-01T02:10:46Z</time>
      </trkpt>
      <trkpt lat="41.624505" lon="2.087308">
        <ele>376.80</ele>
        <time>1970-01-01T02:10:47Z</time>
      </trkpt>
      <trkpt lat="41.624464" lon="2.087310">
        <ele>376.70</ele>
        <time>1970-01-01T02:10:48Z</time>
      </trkpt>
      <trkpt lat="41.624449" lon="2.087310">
        <ele>376.70</ele>
        <time>1970-01-01T02:10:49Z</time>
      </trkpt>
      <trkpt lat="41.624415" lon="2.087305">
        <ele>376.70</ele>
        <time>1970-01-01T02:10:51Z</time>
      </trkpt>
      <trkpt lat="41.624371" lon="2.087296">
        <ele>376.70</ele>
        <time>1970-01-01T02:10:52Z</time>
      </trkpt>
      <trkpt lat="41.624341" lon="2.087284">
        <ele>376.70</ele>
        <time>1970-01-01T02:10:54Z</time>
      </trkpt>
      <trkpt lat="41.624304" lon="2.087269">
        <ele>376.80</ele>
        <time>1970-01-01T02:10:55Z</time>
      </trkpt>
      <trkpt lat="41.624246" lon="2.087254">
        <ele>376.90</ele>
        <time>1970-01-01T02:10:57Z</time>
      </trkpt>
      <trkpt lat="41.624224" lon="2.087250">
        <ele>377.00</ele>
        <time>1970-01-01T02:10:58Z</time>
      </trkpt>
      <trkpt lat="41.624177" lon="2.087239">
        <ele>377.10</ele>
        <time>1970-01-01T02:11:00Z</time>
      </trkpt>
      <trkpt lat="41.624151" lon="2.087228">
        <ele>377.20</ele>
        <time>1970-01-01T02:11:01Z</time>
      </trkpt>
      <trkpt lat="41.624117" lon="2.087221">
        <ele>377.30</ele>
        <time>1970-01-01T02:11:02Z</time>
      </trkpt>
      <trkpt lat="41.624089" lon="2.087216">
        <ele>377.40</ele>
        <time>1970-01-01T02:11:03Z</time>
      </trkpt>
      <trkpt lat="41.624064" lon="2.087212">
        <ele>377.50</ele>
        <time>1970-01-01T02:11:04Z</time>
      </trkpt>
      <trkpt lat="41.624044" lon="2.087207">
        <ele>377.60</ele>
        <time>1970-01-01T02:11:06Z</time>
      </trkpt>
      <trkpt lat="41.624012" lon="2.087194">
        <ele>377.60</ele>
        <time>1970-01-01T02:11:07Z</time>
      </trkpt>
      <trkpt lat="41.624002" lon="2.087190">
        <ele>377.60</ele>
        <time>1970-01-01T02:11:08Z</time>
      </trkpt>
      <trkpt lat="41.623964" lon="2.087173">
        <ele>377.70</ele>
        <time>1970-01-01T02:11:10Z</time>
      </trkpt>
      <trkpt lat="41.623925" lon="2.087139">
        <ele>377.70</ele>
        <time>1970-01-01T02:11:11Z</time>
      </trkpt>
      <trkpt lat="41.623888" lon="2.087110">
        <ele>377.60</ele>
        <time>1970-01-01T02:11:12Z</time>
      </trkpt>
      <trkpt lat="41.623842" lon="2.087074">
        <ele>377.50</ele>
        <time>1970-01-01T02:11:14Z</time>
      </trkpt>
      <trkpt lat="41.623801" lon="2.087016">
        <ele>377.40</ele>
        <time>1970-01-01T02:11:16Z</time>
      </trkpt>
      <trkpt lat="41.623765" lon="2.086953">
        <ele>377.20</ele>
        <time>1970-01-01T02:11:17Z</time>
      </trkpt>
      <trkpt lat="41.623742" lon="2.086908">
        <ele>377.10</ele>
        <time>1970-01-01T02:11:18Z</time>
      </trkpt>
      <trkpt lat="41.623710" lon="2.086846">
        <ele>376.90</ele>
        <time>1970-01-01T02:11:20Z</time>
      </trkpt>
      <trkpt lat="41.623689" lon="2.086808">
        <ele>376.80</ele>
        <time>1970-01-01T02:11:21Z</time>
      </trkpt>
      <trkpt lat="41.623670" lon="2.086766">
        <ele>376.70</ele>
        <time>1970-01-01T02:11:22Z</time>
      </trkpt>
      <trkpt lat="41.623644" lon="2.086694">
        <ele>376.60</ele>
        <time>1970-01-01T02:11:24Z</time>
      </trkpt>
      <trkpt lat="41.623629" lon="2.086643">
        <ele>376.50</ele>
        <time>1970-01-01T02:11:25Z</time>
      </trkpt>
      <trkpt lat="41.623612" lon="2.086589">
        <ele>376.50</ele>
        <time>1970-01-01T02:11:26Z</time>
      </trkpt>
      <trkpt lat="41.623596" lon="2.086548">
        <ele>376.40</ele>
        <time>1970-01-01T02:11:28Z</time>
      </trkpt>
      <trkpt lat="41.623591" lon="2.086535">
        <ele>376.40</ele>
        <time>1970-01-01T02:11:29Z</time>
      </trkpt>
      <trkpt lat="41.623584" lon="2.086517">
        <ele>376.40</ele>
        <time>1970-01-01T02:11:31Z</time>
      </trkpt>
      <trkpt lat="41.623565" lon="2.086474">
        <ele>376.30</ele>
        <time>1970-01-01T02:11:33Z</time>
      </trkpt>
      <trkpt lat="41.623548" lon="2.086442">
        <ele>376.30</ele>
        <time>1970-01-01T02:11:34Z</time>
      </trkpt>
      <trkpt lat="41.623523" lon="2.086403">
        <ele>376.20</ele>
        <time>1970-01-01T02:11:35Z</time>
      </trkpt>
      <trkpt lat="41.623514" lon="2.086389">
        <ele>376.20</ele>
        <time>1970-01-01T02:11:36Z</time>
      </trkpt>
      <trkpt lat="41.623501" lon="2.086358">
        <ele>376.20</ele>
        <time>1970-01-01T02:11:37Z</time>
      </trkpt>
      <trkpt lat="41.623500" lon="2.086342">
        <ele>376.20</ele>
        <time>1970-01-01T02:11:39Z</time>
      </trkpt>
      <trkpt lat="41.623502" lon="2.086327">
        <ele>376.10</ele>
        <time>1970-01-01T02:11:40Z</time>
      </trkpt>
      <trkpt lat="41.623501" lon="2.086317">
        <ele>376.00</ele>
        <time>1970-01-01T02:11:41Z</time>
      </trkpt>
      <trkpt lat="41.623480" lon="2.086308">
        <ele>374.90</ele>
        <time>1970-01-01T02:11:43Z</time>
      </trkpt>
      <trkpt lat="41.623465" lon="2.086307">
        <ele>374.80</ele>
        <time>1970-01-01T02:11:44Z</time>
      </trkpt>
      <trkpt lat="41.623450" lon="2.086307">
        <ele>373.70</ele>
        <time>1970-01-01T02:11:45Z</time>
      </trkpt>
      <trkpt lat="41.623409" lon="2.086323">
        <ele>372.60</ele>
        <time>1970-01-01T02:11:47Z</time>
      </trkpt>
      <trkpt lat="41.623395" lon="2.086332">
        <ele>371.10</ele>
        <time>1970-01-01T02:11:48Z</time>
      </trkpt>
      <trkpt lat="41.623381" lon="2.086340">
        <ele>371.00</ele>
        <time>1970-01-01T02:11:49Z</time>
      </trkpt>
      <trkpt lat="41.623351" lon="2.086359">
        <ele>369.90</ele>
        <time>1970-01-01T02:11:51Z</time>
      </trkpt>
      <trkpt lat="41.623342" lon="2.086365">
        <ele>369.70</ele>
        <time>1970-01-01T02:11:52Z</time>
      </trkpt>
      <trkpt lat="41.623331" lon="2.086374">
        <ele>368.30</ele>
        <time>1970-01-01T02:11:54Z</time>
      </trkpt>
      <trkpt lat="41.623327" lon="2.086376">
        <ele>368.20</ele>
        <time>1970-01-01T02:11:55Z</time>
      </trkpt>
      <trkpt lat="41.623317" lon="2.086381">
        <ele>368.10</ele>
        <time>1970-01-01T02:11:57Z</time>
      </trkpt>
      <trkpt lat="41.623305" lon="2.086382">
        <ele>368.00</ele>
        <time>1970-01-01T02:11:58Z</time>
      </trkpt>
      <trkpt lat="41.623300" lon="2.086381">
        <ele>366.90</ele>
        <time>1970-01-01T02:11:59Z</time>
      </trkpt>
      <trkpt lat="41.623295" lon="2.086382">
        <ele>366.80</ele>
        <time>1970-01-01T02:12:00Z</time>
      </trkpt>
      <trkpt lat="41.623284" lon="2.086380">
        <ele>366.70</ele>
        <time>1970-01-01T02:12:02Z</time>
      </trkpt>
      <trkpt lat="41.623268" lon="2.086378">
        <ele>365.70</ele>
        <time>1970-01-01T02:12:03Z</time>
      </trkpt>
      <trkpt lat="41.623248" lon="2.086370">
        <ele>365.90</ele>
        <time>1970-01-01T02:12:05Z</time>
      </trkpt>
      <trkpt lat="41.623244" lon="2.086370">
        <ele>365.80</ele>
        <time>1970-01-01T02:12:06Z</time>
      </trkpt>
      <trkpt lat="41.623224" lon="2.086368">
        <ele>364.80</ele>
        <time>1970-01-01T02:12:07Z</time>
      </trkpt>
      <trkpt lat="41.623200" lon="2.086348">
        <ele>363.80</ele>
        <time>1970-01-01T02:12:09Z</time>
      </trkpt>
      <trkpt lat="41.623169" lon="2.086319">
        <ele>363.20</ele>
        <time>1970-01-01T02:12:10Z</time>
      </trkpt>
      <trkpt lat="41.623157" lon="2.086311">
        <ele>363.10</ele>
        <time>1970-01-01T02:12:11Z</time>
      </trkpt>
      <trkpt lat="41.623125" lon="2.086296">
        <ele>362.20</ele>
        <time>1970-01-01T02:12:12Z</time>
      </trkpt>
      <trkpt lat="41.623089" lon="2.086281">
        <ele>361.60</ele>
        <time>1970-01-01T02:12:14Z</time>
      </trkpt>
      <trkpt lat="41.623060" lon="2.086279">
        <ele>360.60</ele>
        <time>1970-01-01T02:12:15Z</time>
      </trkpt>
      <trkpt lat="41.623025" lon="2.086276">
        <ele>359.60</ele>
        <time>1970-01-01T02:12:16Z</time>
      </trkpt>
      <trkpt lat="41.622976" lon="2.086265">
        <ele>357.90</ele>
        <time>1970-01-01T02:12:17Z</time>
      </trkpt>
      <trkpt lat="41.622941" lon="2.086247">
        <ele>357.10</ele>
        <time>1970-01-01T02:12:18Z</time>
      </trkpt>
      <trkpt lat="41.622908" lon="2.086223">
        <ele>356.50</ele>
        <time>1970-01-01T02:12:20Z</time>
      </trkpt>
      <trkpt lat="41.622868" lon="2.086222">
        <ele>355.80</ele>
        <time>1970-01-01T02:12:21Z</time>
      </trkpt>
      <trkpt lat="41.622825" lon="2.086226">
        <ele>355.00</ele>
        <time>1970-01-01T02:12:23Z</time>
      </trkpt>
      <trkpt lat="41.622782" lon="2.086235">
        <ele>353.30</ele>
        <time>1970-01-01T02:12:24Z</time>
      </trkpt>
      <trkpt lat="41.622773" lon="2.086249">
        <ele>353.30</ele>
        <time>1970-01-01T02:12:26Z</time>
      </trkpt>
      <trkpt lat="41.622812" lon="2.086273">
        <ele>353.30</ele>
        <time>1970-01-01T02:12:28Z</time>
      </trkpt>
      <trkpt lat="41.622826" lon="2.086274">
        <ele>353.30</ele>
        <time>1970-01-01T02:12:29Z</time>
      </trkpt>
      <trkpt lat="41.622828" lon="2.086250">
        <ele>353.30</ele>
        <time>1970-01-01T02:12:31Z</time>
      </trkpt>
      <trkpt lat="41.622836" lon="2.086243">
        <ele>353.30</ele>
        <time>1970-01-01T02:12:32Z</time>
      </trkpt>
      <trkpt lat="41.622845" lon="2.086239">
        <ele>353.20</ele>
        <time>1970-01-01T02:12:34Z</time>
      </trkpt>
      <trkpt lat="41.622846" lon="2.086245">
        <ele>353.20</ele>
        <time>1970-01-01T02:12:35Z</time>
      </trkpt>
      <trkpt lat="41.622848" lon="2.086249">
        <ele>353.20</ele>
        <time>1970-01-01T02:12:37Z</time>
      </trkpt>
      <trkpt lat="41.622850" lon="2.086250">
        <ele>353.20</ele>
        <time>1970-01-01T02:12:38Z</time>
      </trkpt>
      <trkpt lat="41.622850" lon="2.086253">
        <ele>353.20</ele>
        <time>1970-01-01T02:12:40Z</time>
      </trkpt>
      <trkpt lat="41.622850" lon="2.086254">
        <ele>353.20</ele>
        <time>1970-01-01T02:12:41Z</time>
      </trkpt>
      <trkpt lat="41.622851" lon="2.086256">
        <ele>353.20</ele>
        <time>1970-01-01T02:12:43Z</time>
      </trkpt>
      <trkpt lat="41.622852" lon="2.086257">
        <ele>353.20</ele>
        <time>1970-01-01T02:12:45Z</time>
      </trkpt>
      <trkpt lat="41.622852" lon="2.086257">
        <ele>353.20</ele>
        <time>1970-01-01T02:12:46Z</time>
      </trkpt>
      <trkpt lat="41.622853" lon="2.086258">
        <ele>353.20</ele>
        <time>1970-01-01T02:12:48Z</time>
      </trkpt>
      <trkpt lat="41.622851" lon="2.086257">
        <ele>353.20</ele>
        <time>1970-01-01T02:12:49Z</time>
      </trkpt>
      <trkpt lat="41.622849" lon="2.086257">
        <ele>353.20</ele>
        <time>1970-01-01T02:12:50Z</time>
      </trkpt>
      <trkpt lat="41.622849" lon="2.086257">
        <ele>353.20</ele>
        <time>1970-01-01T02:12:51Z</time>
      </trkpt>
      <trkpt lat="41.622848" lon="2.086257">
        <ele>353.20</ele>
        <time>1970-01-01T02:12:53Z</time>
      </trkpt>
      <trkpt lat="41.622848" lon="2.086257">
        <ele>353.20</ele>
        <time>1970-01-01T02:12:55Z</time>
      </trkpt>
      <trkpt lat="41.622848" lon="2.086257">
        <ele>353.20</ele>
        <time>1970-01-01T02:12:56Z</time>
      </trkpt>
      <trkpt lat="41.622848" lon="2.086257">
        <ele>353.20</ele>
        <time>1970-01-01T02:12:57Z</time>
      </trkpt>
      <trkpt lat="41.622848" lon="2.086257">
        <ele>353.20</ele>
        <time>1970-01-01T02:12:59Z</time>
      </trkpt>
      <trkpt lat="41.622848" lon="2.086257">
        <ele>353.20</ele>
        <time>1970-01-01T02:13:01Z</time>
      </trkpt>
      <trkpt lat="41.622848" lon="2.086257">
        <ele>353.20</ele>
        <time>1970-01-01T02:13:03Z</time>
      </trkpt>
      <trkpt lat="41.622848" lon="2.086257">
        <ele>353.20</ele>
        <time>1970-01-01T02:13:05Z</time>
      </trkpt>
      <trkpt lat="41.622848" lon="2.086257">
        <ele>353.20</ele>
        <time>1970-01-01T02:13:06Z</time>
      </trkpt>
      <trkpt lat="41.622848" lon="2.086257">
        <ele>353.20</ele>
        <time>1970-01-01T02:13:07Z</time>
      </trkpt>
      <trkpt lat="41.622847" lon="2.086254">
        <ele>353.20</ele>
        <time>1970-01-01T02:13:09Z</time>
      </trkpt>
      <trkpt lat="41.622847" lon="2.086253">
        <ele>353.20</ele>
        <time>1970-01-01T02:13:10Z</time>
      </trkpt>
      <trkpt lat="41.622847" lon="2.086251">
        <ele>353.20</ele>
        <time>1970-01-01T02:13:12Z</time>
      </trkpt>
      <trkpt lat="41.622847" lon="2.086251">
        <ele>353.20</ele>
        <time>1970-01-01T02:13:13Z</time>
      </trkpt>
      <trkpt lat="41.622847" lon="2.086251">
        <ele>353.20</ele>
        <time>1970-01-01T02:13:14Z</time>
      </trkpt>
      <trkpt lat="41.622847" lon="2.086251">
        <ele>353.20</ele>
        <time>1970-01-01T02:13:16Z</time>
      </trkpt>
      <trkpt lat="41.622847" lon="2.086251">
        <ele>353.20</ele>
        <time>1970-01-01T02:13:18Z</time>
      </trkpt>
      <trkpt lat="41.622847" lon="2.086251">
        <ele>353.20</ele>
        <time>1970-01-01T02:13:20Z</time>
      </trkpt>
      <trkpt lat="41.622847" lon="2.086251">
        <ele>353.20</ele>
        <time>1970-01-01T02:13:22Z</time>
      </trkpt>
      <trkpt lat="41.622847" lon="2.086251">
        <ele>353.20</ele>
        <time>1970-01-01T02:13:23Z</time>
      </trkpt>
      <trkpt lat="41.622847" lon="2.086251">
        <ele>353.20</ele>
        <time>1970-01-01T02:13:25Z</time>
      </trkpt>
      <trkpt lat="41.622847" lon="2.086251">
        <ele>353.20</ele>
        <time>1970-01-01T02:13:27Z</time>
      </trkpt>
      <trkpt lat="41.622847" lon="2.086251">
        <ele>353.20</ele>
        <time>1970-01-01T02:13:29Z</time>
      </trkpt>
      <trkpt lat="41.622847" lon="2.086251">
        <ele>353.20</ele>
        <time>1970-01-01T02:13:30Z</time>
      </trkpt>
      <trkpt lat="41.622847" lon="2.086251">
        <ele>353.20</ele>
        <time>1970-01-01T02:13:31Z</time>
      </trkpt>
      <trkpt lat="41.622847" lon="2.086251">
        <ele>353.20</ele>
        <time>1970-01-01T02:13:32Z</time>
      </trkpt>
      <trkpt lat="41.622847" lon="2.086251">
        <ele>353.20</ele>
        <time>1970-01-01T02:13:34Z</time>
      </trkpt>
      <trkpt lat="41.622847" lon="2.086251">
        <ele>353.20</ele>
        <time>1970-01-01T02:13:36Z</time>
      </trkpt>
      <trkpt lat="41.622847" lon="2.086251">
        <ele>353.20</ele>
        <time>1970-01-01T02:13:37Z</time>
      </trkpt>
      <trkpt lat="41.622847" lon="2.086251">
        <ele>353.20</ele>
        <time>1970-01-01T02:13:39Z</time>
      </trkpt>
      <trkpt lat="41.622847" lon="2.086251">
        <ele>353.20</ele>
        <time>1970-01-01T02:13:40Z</time>
      </trkpt>
      <trkpt lat="41.622847" lon="2.086251">
        <ele>353.20</ele>
        <time>1970-01-01T02:13:42Z</time>
      </trkpt>
      <trkpt lat="41.622847" lon="2.086251">
        <ele>353.20</ele>
        <time>1970-01-01T02:13:44Z</time>
      </trkpt>
      <trkpt lat="41.622847" lon="2.086251">
        <ele>353.20</ele>
        <time>1970-01-01T02:13:45Z</time>
      </trkpt>
      <trkpt lat="41.622847" lon="2.086251">
        <ele>353.20</ele>
        <time>1970-01-01T02:13:46Z</time>
      </trkpt>
      <trkpt lat="41.622847" lon="2.086251">
        <ele>353.20</ele>
        <time>1970-01-01T02:13:48Z</time>
      </trkpt>
      <trkpt lat="41.622847" lon="2.086251">
        <ele>353.20</ele>
        <time>1970-01-01T02:13:50Z</time>
      </trkpt>
      <trkpt lat="41.622847" lon="2.086251">
        <ele>353.20</ele>
        <time>1970-01-01T02:13:52Z</time>
      </trkpt>
      <trkpt lat="41.622847" lon="2.086251">
        <ele>353.20</ele>
        <time>1970-01-01T02:13:53Z</time>
      </trkpt>
      <trkpt lat="41.622847" lon="2.086251">
        <ele>353.20</ele>
        <time>1970-01-01T02:13:55Z</time>
      </trkpt>
      <trkpt lat="41.622847" lon="2.086251">
        <ele>353.20</ele>
        <time>1970-01-01T02:13:56Z</time>
      </trkpt>
      <trkpt lat="41.622847" lon="2.086251">
        <ele>353.20</ele>
        <time>1970-01-01T02:13:57Z</time>
      </trkpt>
      <trkpt lat="41.622847" lon="2.086251">
        <ele>353.20</ele>
        <time>1970-01-01T02:13:59Z</time>
      </trkpt>
      <trkpt lat="41.622847" lon="2.086251">
        <ele>353.20</ele>
        <time>1970-01-01T02:14:00Z</time>
      </trkpt>
      <trkpt lat="41.622847" lon="2.086251">
        <ele>353.20</ele>
        <time>1970-01-01T02:14:02Z</time>
      </trkpt>
      <trkpt lat="41.622847" lon="2.086251">
        <ele>353.20</ele>
        <time>1970-01-01T02:14:04Z</time>
      </trkpt>
      <trkpt lat="41.622847" lon="2.086251">
        <ele>353.20</ele>
        <time>1970-01-01T02:14:06Z</time>
      </trkpt>
      <trkpt lat="41.622847" lon="2.086251">
        <ele>353.20</ele>
        <time>1970-01-01T02:14:08Z</time>
      </trkpt>
      <trkpt lat="41.622847" lon="2.086251">
        <ele>353.20</ele>
        <time>1970-01-01T02:14:10Z</time>
      </trkpt>
      <trkpt lat="41.622847" lon="2.086251">
        <ele>353.20</ele>
        <time>1970-01-01T02:14:12Z</time>
      </trkpt>
      <trkpt lat="41.622847" lon="2.086251">
        <ele>353.20</ele>
        <time>1970-01-01T02:14:14Z</time>
      </trkpt>
      <trkpt lat="41.622847" lon="2.086251">
        <ele>353.20</ele>
        <time>1970-01-01T02:14:16Z</time>
      </trkpt>
      <trkpt lat="41.622847" lon="2.086251">
        <ele>353.20</ele>
        <time>1970-01-01T02:14:17Z</time>
      </trkpt>
      <trkpt lat="41.622847" lon="2.086251">
        <ele>353.20</ele>
        <time>1970-01-01T02:14:19Z</time>
      </trkpt>
      <trkpt lat="41.622847" lon="2.086251">
        <ele>353.20</ele>
        <time>1970-01-01T02:14:21Z</time>
      </trkpt>
      <trkpt lat="41.622847" lon="2.086251">
        <ele>353.20</ele>
        <time>1970-01-01T02:14:22Z</time>
      </trkpt>
      <trkpt lat="41.622847" lon="2.086251">
        <ele>353.20</ele>
        <time>1970-01-01T02:14:23Z</time>
      </trkpt>
      <trkpt lat="41.622851" lon="2.086258">
        <ele>353.20</ele>
        <time>1970-01-01T02:14:25Z</time>
      </trkpt>
      <trkpt lat="41.622862" lon="2.086277">
        <ele>353.20</ele>
        <time>1970-01-01T02:14:27Z</time>
      </trkpt>
      <trkpt lat="41.622882" lon="2.086306">
        <ele>353.20</ele>
        <time>1970-01-01T02:14:28Z</time>
      </trkpt>
      <trkpt lat="41.622896" lon="2.086324">
        <ele>353.10</ele>
        <time>1970-01-01T02:14:29Z</time>
      </trkpt>
      <trkpt lat="41.622914" lon="2.086346">
        <ele>353.10</ele>
        <time>1970-01-01T02:14:31Z</time>
      </trkpt>
      <trkpt lat="41.622940" lon="2.086386">
        <ele>353.00</ele>
        <time>1970-01-01T02:14:32Z</time>
      </trkpt>
      <trkpt lat="41.622949" lon="2.086402">
        <ele>353.00</ele>
        <time>1970-01-01T02:14:33Z</time>
      </trkpt>
      <trkpt lat="41.622983" lon="2.086438">
        <ele>352.80</ele>
        <time>1970-01-01T02:14:34Z</time>
      </trkpt>
      <trkpt lat="41.622995" lon="2.086454">
        <ele>352.80</ele>
        <time>1970-01-01T02:14:35Z</time>
      </trkpt>
      <trkpt lat="41.623020" lon="2.086494">
        <ele>352.70</ele>
        <time>1970-01-01T02:14:37Z</time>
      </trkpt>
      <trkpt lat="41.623042" lon="2.086528">
        <ele>352.60</ele>
        <time>1970-01-01T02:14:38Z</time>
      </trkpt>
      <trkpt lat="41.623061" lon="2.086571">
        <ele>352.40</ele>
        <time>1970-01-01T02:14:39Z</time>
      </trkpt>
      <trkpt lat="41.623072" lon="2.086605">
        <ele>352.30</ele>
        <time>1970-01-01T02:14:40Z</time>
      </trkpt>
      <trkpt lat="41.623093" lon="2.086659">
        <ele>352.20</ele>
        <time>1970-01-01T02:14:42Z</time>
      </trkpt>
      <trkpt lat="41.623110" lon="2.086702">
        <ele>352.00</ele>
        <time>1970-01-01T02:14:43Z</time>
      </trkpt>
      <trkpt lat="41.623130" lon="2.086774">
        <ele>351.80</ele>
        <time>1970-01-01T02:14:45Z</time>
      </trkpt>
      <trkpt lat="41.623135" lon="2.086818">
        <ele>351.70</ele>
        <time>1970-01-01T02:14:46Z</time>
      </trkpt>
      <trkpt lat="41.623142" lon="2.086871">
        <ele>351.60</ele>
        <time>1970-01-01T02:14:47Z</time>
      </trkpt>
      <trkpt lat="41.623148" lon="2.086920">
        <ele>351.50</ele>
        <time>1970-01-01T02:14:48Z</time>
      </trkpt>
      <trkpt lat="41.623156" lon="2.086974">
        <ele>351.40</ele>
        <time>1970-01-01T02:14:50Z</time>
      </trkpt>
      <trkpt lat="41.623159" lon="2.087019">
        <ele>351.30</ele>
        <time>1970-01-01T02:14:51Z</time>
      </trkpt>
      <trkpt lat="41.623163" lon="2.087075">
        <ele>351.20</ele>
        <time>1970-01-01T02:14:52Z</time>
      </trkpt>
      <trkpt lat="41.623166" lon="2.087131">
        <ele>351.20</ele>
        <time>1970-01-01T02:14:53Z</time>
      </trkpt>
      <trkpt lat="41.623173" lon="2.087182">
        <ele>351.20</ele>
        <time>1970-01-01T02:14:54Z</time>
      </trkpt>
      <trkpt lat="41.623183" lon="2.087240">
        <ele>351.20</ele>
        <time>1970-01-01T02:14:55Z</time>
      </trkpt>
      <trkpt lat="41.623193" lon="2.087286">
        <ele>351.20</ele>
        <time>1970-01-01T02:14:56Z</time>
      </trkpt>
      <trkpt lat="41.623205" lon="2.087337">
        <ele>351.30</ele>
        <time>1970-01-01T02:14:57Z</time>
      </trkpt>
      <trkpt lat="41.623223" lon="2.087399">
        <ele>351.30</ele>
        <time>1970-01-01T02:14:59Z</time>
      </trkpt>
      <trkpt lat="41.623253" lon="2.087456">
        <ele>351.40</ele>
        <time>1970-01-01T02:15:00Z</time>
      </trkpt>
      <trkpt lat="41.623285" lon="2.087490">
        <ele>351.40</ele>
        <time>1970-01-01T02:15:02Z</time>
      </trkpt>
      <trkpt lat="41.623317" lon="2.087508">
        <ele>351.50</ele>
        <time>1970-01-01T02:15:03Z</time>
      </trkpt>
      <trkpt lat="41.623341" lon="2.087520">
        <ele>351.50</ele>
        <time>1970-01-01T02:15:04Z</time>
      </trkpt>
      <trkpt lat="41.623384" lon="2.087542">
        <ele>351.40</ele>
        <time>1970-01-01T02:15:06Z</time>
      </trkpt>
      <trkpt lat="41.623420" lon="2.087555">
        <ele>351.40</ele>
        <time>1970-01-01T02:15:07Z</time>
      </trkpt>
      <trkpt lat="41.623432" lon="2.087560">
        <ele>351.30</ele>
        <time>1970-01-01T02:15:08Z</time>
      </trkpt>
      <trkpt lat="41.623472" lon="2.087568">
        <ele>351.20</ele>
        <time>1970-01-01T02:15:09Z</time>
      </trkpt>
      <trkpt lat="41.623508" lon="2.087578">
        <ele>351.10</ele>
        <time>1970-01-01T02:15:11Z</time>
      </trkpt>
      <trkpt lat="41.623519" lon="2.087584">
        <ele>351.00</ele>
        <time>1970-01-01T02:15:12Z</time>
      </trkpt>
      <trkpt lat="41.623539" lon="2.087601">
        <ele>350.90</ele>
        <time>1970-01-01T02:15:14Z</time>
      </trkpt>
      <trkpt lat="41.623540" lon="2.087600">
        <ele>350.90</ele>
        <time>1970-01-01T02:15:15Z</time>
      </trkpt>
      <trkpt lat="41.623542" lon="2.087598">
        <ele>350.90</ele>
        <time>1970-01-01T02:15:17Z</time>
      </trkpt>
      <trkpt lat="41.623543" lon="2.087597">
        <ele>350.90</ele>
        <time>1970-01-01T02:15:19Z</time>
      </trkpt>
      <trkpt lat="41.623545" lon="2.087595">
        <ele>350.80</ele>
        <time>1970-01-01T02:15:20Z</time>
      </trkpt>
      <trkpt lat="41.623547" lon="2.087593">
        <ele>350.80</ele>
        <time>1970-01-01T02:15:22Z</time>
      </trkpt>
      <trkpt lat="41.623548" lon="2.087592">
        <ele>350.80</ele>
        <time>1970-01-01T02:15:23Z</time>
      </trkpt>
      <trkpt lat="41.623550" lon="2.087590">
        <ele>350.80</ele>
        <time>1970-01-01T02:15:25Z</time>
      </trkpt>
      <trkpt lat="41.623552" lon="2.087588">
        <ele>350.80</ele>
        <time>1970-01-01T02:15:26Z</time>
      </trkpt>
      <trkpt lat="41.623553" lon="2.087587">
        <ele>350.80</ele>
        <time>1970-01-01T02:15:28Z</time>
      </trkpt>
      <trkpt lat="41.623555" lon="2.087585">
        <ele>350.80</ele>
        <time>1970-01-01T02:15:29Z</time>
      </trkpt>
      <trkpt lat="41.623556" lon="2.087584">
        <ele>350.80</ele>
        <time>1970-01-01T02:15:31Z</time>
      </trkpt>
      <trkpt lat="41.623558" lon="2.087582">
        <ele>350.80</ele>
        <time>1970-01-01T02:15:32Z</time>
      </trkpt>
      <trkpt lat="41.623597" lon="2.087587">
        <ele>350.60</ele>
        <time>1970-01-01T02:15:34Z</time>
      </trkpt>
      <trkpt lat="41.623656" lon="2.087604">
        <ele>350.30</ele>
        <time>1970-01-01T02:15:35Z</time>
      </trkpt>
      <trkpt lat="41.623695" lon="2.087627">
        <ele>350.10</ele>
        <time>1970-01-01T02:15:37Z</time>
      </trkpt>
      <trkpt lat="41.623727" lon="2.087663">
        <ele>349.90</ele>
        <time>1970-01-01T02:15:38Z</time>
      </trkpt>
      <trkpt lat="41.623760" lon="2.087738">
        <ele>349.80</ele>
        <time>1970-01-01T02:15:39Z</time>
      </trkpt>
      <trkpt lat="41.623769" lon="2.087877">
        <ele>349.60</ele>
        <time>1970-01-01T02:15:41Z</time>
      </trkpt>
      <trkpt lat="41.623737" lon="2.087949">
        <ele>349.70</ele>
        <time>1970-01-01T02:15:43Z</time>
      </trkpt>
      <trkpt lat="41.623665" lon="2.087985">
        <ele>349.70</ele>
        <time>1970-01-01T02:15:44Z</time>
      </trkpt>
      <trkpt lat="41.623611" lon="2.088003">
        <ele>349.80</ele>
        <time>1970-01-01T02:15:45Z</time>
      </trkpt>
      <trkpt lat="41.623516" lon="2.088019">
        <ele>350.10</ele>
        <time>1970-01-01T02:15:47Z</time>
      </trkpt>
      <trkpt lat="41.623446" lon="2.088035">
        <ele>350.30</ele>
        <time>1970-01-01T02:15:49Z</time>
      </trkpt>
      <trkpt lat="41.623389" lon="2.088049">
        <ele>350.60</ele>
        <time>1970-01-01T02:15:50Z</time>
      </trkpt>
      <trkpt lat="41.623347" lon="2.088058">
        <ele>350.80</ele>
        <time>1970-01-01T02:15:51Z</time>
      </trkpt>
      <trkpt lat="41.623300" lon="2.088075">
        <ele>351.10</ele>
        <time>1970-01-01T02:15:52Z</time>
      </trkpt>
      <trkpt lat="41.623262" lon="2.088091">
        <ele>351.30</ele>
        <time>1970-01-01T02:15:53Z</time>
      </trkpt>
      <trkpt lat="41.623225" lon="2.088118">
        <ele>351.50</ele>
        <time>1970-01-01T02:15:54Z</time>
      </trkpt>
      <trkpt lat="41.623189" lon="2.088142">
        <ele>351.70</ele>
        <time>1970-01-01T02:15:56Z</time>
      </trkpt>
      <trkpt lat="41.623136" lon="2.088170">
        <ele>352.10</ele>
        <time>1970-01-01T02:15:57Z</time>
      </trkpt>
      <trkpt lat="41.623104" lon="2.088175">
        <ele>352.30</ele>
        <time>1970-01-01T02:15:58Z</time>
      </trkpt>
      <trkpt lat="41.623062" lon="2.088167">
        <ele>352.60</ele>
        <time>1970-01-01T02:16:00Z</time>
      </trkpt>
      <trkpt lat="41.623010" lon="2.088153">
        <ele>352.90</ele>
        <time>1970-01-01T02:16:02Z</time>
      </trkpt>
      <trkpt lat="41.622973" lon="2.088143">
        <ele>353.20</ele>
        <time>1970-01-01T02:16:03Z</time>
      </trkpt>
      <trkpt lat="41.622953" lon="2.088137">
        <ele>320.40</ele>
        <time>1970-01-01T01:27:14Z</time>
      </trkpt>
      <trkpt lat="41.622544" lon="2.088258">
        <ele>320.19</ele>
        <time>1970-01-01T01:27:16.11Z</time>
      </trkpt>
      <trkpt lat="41.622281" lon="2.088531">
        <ele>320.00</ele>
        <time>1970-01-01T01:27:18Z</time>
      </trkpt>
      <trkpt lat="41.622055" lon="2.088748">
        <ele>319.60</ele>
        <time>1970-01-01T01:27:22Z</time>
      </trkpt>
      <trkpt lat="41.621845" lon="2.088966">
        <ele>321.40</ele>
        <time>1970-01-01T01:27:26Z</time>
      </trkpt>
      <trkpt lat="41.621658" lon="2.089146">
        <ele>322.00</ele>
        <time>1970-01-01T01:27:30Z</time>
      </trkpt>
      <trkpt lat="41.621483" lon="2.089318">
        <ele>322.00</ele>
        <time>1970-01-01T01:27:34Z</time>
      </trkpt>
      <trkpt lat="41.621301" lon="2.089498">
        <ele>322.00</ele>
        <time>1970-01-01T01:27:38Z</time>
      </trkpt>
      <trkpt lat="41.621141" lon="2.089703">
        <ele>321.80</ele>
        <time>1970-01-01T01:27:42Z</time>
      </trkpt>
      <trkpt lat="41.621076" lon="2.089951">
        <ele>321.80</ele>
        <time>1970-01-01T01:27:46Z</time>
      </trkpt>
      <trkpt lat="41.620923" lon="2.090070">
        <ele>321.80</ele>
        <time>1970-01-01T01:27:50Z</time>
      </trkpt>
      <trkpt lat="41.620725" lon="2.089963">
        <ele>321.80</ele>
        <time>1970-01-01T01:27:54Z</time>
      </trkpt>
      <trkpt lat="41.620586" lon="2.089783">
        <ele>323.60</ele>
        <time>1970-01-01T01:27:58Z</time>
      </trkpt>
      <trkpt lat="41.620480" lon="2.089625">
        <ele>324.60</ele>
        <time>1970-01-01T01:28:02Z</time>
      </trkpt>
      <trkpt lat="41.620365" lon="2.089583">
        <ele>326.00</ele>
        <time>1970-01-01T01:28:06Z</time>
      </trkpt>
      <trkpt lat="41.620330" lon="2.089676">
        <ele>327.40</ele>
        <time>1970-01-01T01:28:10Z</time>
      </trkpt>
      <trkpt lat="41.620303" lon="2.089796">
        <ele>329.00</ele>
        <time>1970-01-01T01:28:14Z</time>
      </trkpt>
      <trkpt lat="41.620265" lon="2.089873">
        <ele>330.00</ele>
        <time>1970-01-01T01:28:18Z</time>
      </trkpt>
      <trkpt lat="41.620205" lon="2.089931">
        <ele>330.80</ele>
        <time>1970-01-01T01:28:22Z</time>
      </trkpt>
      <trkpt lat="41.620151" lon="2.089976">
        <ele>332.40</ele>
        <time>1970-01-01T01:28:26Z</time>
      </trkpt>
      <trkpt lat="41.620093" lon="2.090016">
        <ele>332.80</ele>
        <time>1970-01-01T01:28:30Z</time>
      </trkpt>
      <trkpt lat="41.620023" lon="2.090050">
        <ele>334.20</ele>
        <time>1970-01-01T01:28:34Z</time>
      </trkpt>
      <trkpt lat="41.619963" lon="2.090090">
        <ele>335.20</ele>
        <time>1970-01-01T01:28:38Z</time>
      </trkpt>
      <trkpt lat="41.619908" lon="2.090131">
        <ele>336.20</ele>
        <time>1970-01-01T01:28:42Z</time>
      </trkpt>
      <trkpt lat="41.619856" lon="2.090185">
        <ele>337.20</ele>
        <time>1970-01-01T01:28:46Z</time>
      </trkpt>
      <trkpt lat="41.619811" lon="2.090225">
        <ele>338.20</ele>
        <time>1970-01-01T01:28:50Z</time>
      </trkpt>
      <trkpt lat="41.619761" lon="2.090288">
        <ele>338.80</ele>
        <time>1970-01-01T01:28:54Z</time>
      </trkpt>
      <trkpt lat="41.619696" lon="2.090360">
        <ele>339.60</ele>
        <time>1970-01-01T01:28:58Z</time>
      </trkpt>
      <trkpt lat="41.619651" lon="2.090456">
        <ele>340.00</ele>
        <time>1970-01-01T01:29:02Z</time>
      </trkpt>
      <trkpt lat="41.619643" lon="2.090576">
        <ele>340.20</ele>
        <time>1970-01-01T01:29:06Z</time>
      </trkpt>
      <trkpt lat="41.619715" lon="2.090675">
        <ele>340.80</ele>
        <time>1970-01-01T01:29:10Z</time>
      </trkpt>
      <trkpt lat="41.619796" lon="2.090791">
        <ele>341.00</ele>
        <time>1970-01-01T01:29:14Z</time>
      </trkpt>
      <trkpt lat="41.619868" lon="2.090921">
        <ele>341.40</ele>
        <time>1970-01-01T01:29:18Z</time>
      </trkpt>
      <trkpt lat="41.619958" lon="2.091050">
        <ele>341.40</ele>
        <time>1970-01-01T01:29:22Z</time>
      </trkpt>
      <trkpt lat="41.620036" lon="2.091185">
        <ele>341.40</ele>
        <time>1970-01-01T01:29:26Z</time>
      </trkpt>
      <trkpt lat="41.620118" lon="2.091311">
        <ele>342.00</ele>
        <time>1970-01-01T01:29:30Z</time>
      </trkpt>
      <trkpt lat="41.620171" lon="2.091430">
        <ele>342.40</ele>
        <time>1970-01-01T01:29:34Z</time>
      </trkpt>
      <trkpt lat="41.620146" lon="2.091590">
        <ele>342.20</ele>
        <time>1970-01-01T01:29:38Z</time>
      </trkpt>
      <trkpt lat="41.620068" lon="2.091768">
        <ele>341.80</ele>
        <time>1970-01-01T01:29:42Z</time>
      </trkpt>
      <trkpt lat="41.620000" lon="2.091983">
        <ele>341.40</ele>
        <time>1970-01-01T01:29:46Z</time>
      </trkpt>
      <trkpt lat="41.619955" lon="2.092220">
        <ele>341.40</ele>
        <time>1970-01-01T01:29:50Z</time>
      </trkpt>
      <trkpt lat="41.619958" lon="2.092448">
        <ele>340.00</ele>
        <time>1970-01-01T01:29:54Z</time>
      </trkpt>
      <trkpt lat="41.619968" lon="2.092693">
        <ele>339.00</ele>
        <time>1970-01-01T01:29:58Z</time>
      </trkpt>
      <trkpt lat="41.619963" lon="2.092976">
        <ele>337.00</ele>
        <time>1970-01-01T01:30:02Z</time>
      </trkpt>
      <trkpt lat="41.619938" lon="2.093320">
        <ele>334.40</ele>
        <time>1970-01-01T01:30:06Z</time>
      </trkpt>
      <trkpt lat="41.619855" lon="2.093700">
        <ele>331.80</ele>
        <time>1970-01-01T01:30:10Z</time>
      </trkpt>
      <trkpt lat="41.619736" lon="2.094110">
        <ele>329.60</ele>
        <time>1970-01-01T01:30:14Z</time>
      </trkpt>
      <trkpt lat="41.619626" lon="2.094551">
        <ele>326.80</ele>
        <time>1970-01-01T01:30:18Z</time>
      </trkpt>
      <trkpt lat="41.619473" lon="2.094990">
        <ele>325.20</ele>
        <time>1970-01-01T01:30:22Z</time>
      </trkpt>
      <trkpt lat="41.619360" lon="2.095245">
        <ele>325.80</ele>
        <time>1970-01-01T01:30:26Z</time>
      </trkpt>
      <trkpt lat="41.619290" lon="2.095420">
        <ele>325.40</ele>
        <time>1970-01-01T01:30:30Z</time>
      </trkpt>
      <trkpt lat="41.619183" lon="2.095623">
        <ele>325.60</ele>
        <time>1970-01-01T01:30:34Z</time>
      </trkpt>
      <trkpt lat="41.619068" lon="2.095861">
        <ele>325.40</ele>
        <time>1970-01-01T01:30:38Z</time>
      </trkpt>
      <trkpt lat="41.618946" lon="2.096093">
        <ele>323.40</ele>
        <time>1970-01-01T01:30:42Z</time>
      </trkpt>
      <trkpt lat="41.618791" lon="2.096353">
        <ele>320.20</ele>
        <time>1970-01-01T01:30:46Z</time>
      </trkpt>
      <trkpt lat="41.618585" lon="2.096708">
        <ele>313.40</ele>
        <time>1970-01-01T01:30:50Z</time>
      </trkpt>
      <trkpt lat="41.618338" lon="2.096966">
        <ele>311.00</ele>
        <time>1970-01-01T01:30:54Z</time>
      </trkpt>
      <trkpt lat="41.618043" lon="2.097150">
        <ele>310.20</ele>
        <time>1970-01-01T01:30:58Z</time>
      </trkpt>
      <trkpt lat="41.618018" lon="2.097500">
        <ele>312.40</ele>
        <time>1970-01-01T01:31:02Z</time>
      </trkpt>
      <trkpt lat="41.617990" lon="2.097733">
        <ele>314.40</ele>
        <time>1970-01-01T01:31:06Z</time>
      </trkpt>
      <trkpt lat="41.617958" lon="2.097910">
        <ele>315.00</ele>
        <time>1970-01-01T01:31:10Z</time>
      </trkpt>
      <trkpt lat="41.617911" lon="2.098095">
        <ele>317.20</ele>
        <time>1970-01-01T01:31:14Z</time>
      </trkpt>
      <trkpt lat="41.617863" lon="2.098281">
        <ele>318.20</ele>
        <time>1970-01-01T01:31:18Z</time>
      </trkpt>
      <trkpt lat="41.617831" lon="2.098468">
        <ele>319.60</ele>
        <time>1970-01-01T01:31:22Z</time>
      </trkpt>
      <trkpt lat="41.617803" lon="2.098665">
        <ele>320.60</ele>
        <time>1970-01-01T01:31:26Z</time>
      </trkpt>
      <trkpt lat="41.617823" lon="2.098850">
        <ele>321.80</ele>
        <time>1970-01-01T01:31:30Z</time>
      </trkpt>
      <trkpt lat="41.617860" lon="2.099030">
        <ele>322.60</ele>
        <time>1970-01-01T01:31:34Z</time>
      </trkpt>
      <trkpt lat="41.617890" lon="2.099213">
        <ele>323.80</ele>
        <time>1970-01-01T01:31:38Z</time>
      </trkpt>
      <trkpt lat="41.617901" lon="2.099411">
        <ele>324.80</ele>
        <time>1970-01-01T01:31:42Z</time>
      </trkpt>
      <trkpt lat="41.617886" lon="2.099615">
        <ele>325.60</ele>
        <time>1970-01-01T01:31:46Z</time>
      </trkpt>
      <trkpt lat="41.617863" lon="2.099821">
        <ele>326.60</ele>
        <time>1970-01-01T01:31:50Z</time>
      </trkpt>
      <trkpt lat="41.617846" lon="2.100023">
        <ele>327.20</ele>
        <time>1970-01-01T01:31:54Z</time>
      </trkpt>
      <trkpt lat="41.617816" lon="2.100220">
        <ele>327.80</ele>
        <time>1970-01-01T01:31:58Z</time>
      </trkpt>
      <trkpt lat="41.617766" lon="2.100410">
        <ele>329.40</ele>
        <time>1970-01-01T01:32:02Z</time>
      </trkpt>
      <trkpt lat="41.617695" lon="2.100590">
        <ele>330.40</ele>
        <time>1970-01-01T01:32:06Z</time>
      </trkpt>
      <trkpt lat="41.617625" lon="2.100751">
        <ele>331.60</ele>
        <time>1970-01-01T01:32:10Z</time>
      </trkpt>
      <trkpt lat="41.617571" lon="2.100893">
        <ele>332.20</ele>
        <time>1970-01-01T01:32:14Z</time>
      </trkpt>
      <trkpt lat="41.617513" lon="2.101021">
        <ele>333.00</ele>
        <time>1970-01-01T01:32:18Z</time>
      </trkpt>
      <trkpt lat="41.617438" lon="2.101153">
        <ele>333.80</ele>
        <time>1970-01-01T01:32:22Z</time>
      </trkpt>
      <trkpt lat="41.617371" lon="2.101291">
        <ele>334.40</ele>
        <time>1970-01-01T01:32:26Z</time>
      </trkpt>
      <trkpt lat="41.617308" lon="2.101425">
        <ele>334.80</ele>
        <time>1970-01-01T01:32:30Z</time>
      </trkpt>
      <trkpt lat="41.617213" lon="2.101538">
        <ele>335.80</ele>
        <time>1970-01-01T01:32:34Z</time>
      </trkpt>
      <trkpt lat="41.617100" lon="2.101558">
        <ele>337.40</ele>
        <time>1970-01-01T01:32:38Z</time>
      </trkpt>
      <trkpt lat="41.617018" lon="2.101471">
        <ele>338.00</ele>
        <time>1970-01-01T01:32:42Z</time>
      </trkpt>
      <trkpt lat="41.616965" lon="2.101353">
        <ele>338.20</ele>
        <time>1970-01-01T01:32:46Z</time>
      </trkpt>
      <trkpt lat="41.616920" lon="2.101230">
        <ele>339.60</ele>
        <time>1970-01-01T01:32:50Z</time>
      </trkpt>
      <trkpt lat="41.616841" lon="2.101130">
        <ele>340.60</ele>
        <time>1970-01-01T01:32:54Z</time>
      </trkpt>
      <trkpt lat="41.616745" lon="2.101060">
        <ele>341.00</ele>
        <time>1970-01-01T01:32:58Z</time>
      </trkpt>
      <trkpt lat="41.616626" lon="2.101016">
        <ele>341.60</ele>
        <time>1970-01-01T01:33:02Z</time>
      </trkpt>
      <trkpt lat="41.616521" lon="2.100920">
        <ele>342.40</ele>
        <time>1970-01-01T01:33:06Z</time>
      </trkpt>
      <trkpt lat="41.616410" lon="2.100828">
        <ele>343.00</ele>
        <time>1970-01-01T01:33:10Z</time>
      </trkpt>
      <trkpt lat="41.616323" lon="2.100696">
        <ele>343.60</ele>
        <time>1970-01-01T01:33:14Z</time>
      </trkpt>
      <trkpt lat="41.616188" lon="2.100665">
        <ele>343.00</ele>
        <time>1970-01-01T01:33:18Z</time>
      </trkpt>
      <trkpt lat="41.616011" lon="2.100743">
        <ele>341.00</ele>
        <time>1970-01-01T01:33:22Z</time>
      </trkpt>
      <trkpt lat="41.615758" lon="2.100708">
        <ele>337.60</ele>
        <time>1970-01-01T01:33:26Z</time>
      </trkpt>
      <trkpt lat="41.615491" lon="2.100613">
        <ele>335.40</ele>
        <time>1970-01-01T01:33:30Z</time>
      </trkpt>
      <trkpt lat="41.615333" lon="2.100586">
        <ele>333.60</ele>
        <time>1970-01-01T01:33:34Z</time>
      </trkpt>
      <trkpt lat="41.615163" lon="2.100518">
        <ele>331.80</ele>
        <time>1970-01-01T01:33:38Z</time>
      </trkpt>
      <trkpt lat="41.614883" lon="2.100493">
        <ele>325.80</ele>
        <time>1970-01-01T01:33:42Z</time>
      </trkpt>
      <trkpt lat="41.614490" lon="2.100390">
        <ele>319.60</ele>
        <time>1970-01-01T01:33:46Z</time>
      </trkpt>
      <trkpt lat="41.614056" lon="2.100250">
        <ele>316.00</ele>
        <time>1970-01-01T01:33:50Z</time>
      </trkpt>
      <trkpt lat="41.613635" lon="2.100121">
        <ele>314.80</ele>
        <time>1970-01-01T01:33:54Z</time>
      </trkpt>
      <trkpt lat="41.613256" lon="2.100113">
        <ele>314.80</ele>
        <time>1970-01-01T01:33:58Z</time>
      </trkpt>
      <trkpt lat="41.612921" lon="2.100171">
        <ele>315.40</ele>
        <time>1970-01-01T01:34:02Z</time>
      </trkpt>
      <trkpt lat="41.612621" lon="2.100241">
        <ele>316.20</ele>
        <time>1970-01-01T01:34:06Z</time>
      </trkpt>
      <trkpt lat="41.612355" lon="2.100298">
        <ele>319.20</ele>
        <time>1970-01-01T01:34:10Z</time>
      </trkpt>
      <trkpt lat="41.612115" lon="2.100328">
        <ele>319.00</ele>
        <time>1970-01-01T01:34:14Z</time>
      </trkpt>
      <trkpt lat="41.611876" lon="2.100366">
        <ele>319.20</ele>
        <time>1970-01-01T01:34:18Z</time>
      </trkpt>
      <trkpt lat="41.611621" lon="2.100465">
        <ele>318.00</ele>
        <time>1970-01-01T01:34:22Z</time>
      </trkpt>
      <trkpt lat="41.611331" lon="2.100566">
        <ele>315.80</ele>
        <time>1970-01-01T01:34:26Z</time>
      </trkpt>
      <trkpt lat="41.611033" lon="2.100646">
        <ele>314.80</ele>
        <time>1970-01-01T01:34:30Z</time>
      </trkpt>
      <trkpt lat="41.610733" lon="2.100731">
        <ele>312.40</ele>
        <time>1970-01-01T01:34:34Z</time>
      </trkpt>
      <trkpt lat="41.610370" lon="2.100863">
        <ele>308.40</ele>
        <time>1970-01-01T01:34:38Z</time>
      </trkpt>
      <trkpt lat="41.610008" lon="2.100878">
        <ele>308.80</ele>
        <time>1970-01-01T01:34:42Z</time>
      </trkpt>
      <trkpt lat="41.609728" lon="2.100685">
        <ele>311.80</ele>
        <time>1970-01-01T01:34:46Z</time>
      </trkpt>
      <trkpt lat="41.609486" lon="2.100630">
        <ele>311.20</ele>
        <time>1970-01-01T01:34:50Z</time>
      </trkpt>
      <trkpt lat="41.609216" lon="2.100598">
        <ele>310.40</ele>
        <time>1970-01-01T01:34:54Z</time>
      </trkpt>
      <trkpt lat="41.608926" lon="2.100498">
        <ele>309.00</ele>
        <time>1970-01-01T01:34:58Z</time>
      </trkpt>
      <trkpt lat="41.608603" lon="2.100496">
        <ele>305.00</ele>
        <time>1970-01-01T01:35:02Z</time>
      </trkpt>
      <trkpt lat="41.608253" lon="2.100433">
        <ele>303.80</ele>
        <time>1970-01-01T01:35:06Z</time>
      </trkpt>
      <trkpt lat="41.607928" lon="2.100260">
        <ele>302.20</ele>
        <time>1970-01-01T01:35:10Z</time>
      </trkpt>
      <trkpt lat="41.607603" lon="2.100306">
        <ele>303.00</ele>
        <time>1970-01-01T01:35:14Z</time>
      </trkpt>
      <trkpt lat="41.607295" lon="2.100396">
        <ele>301.40</ele>
        <time>1970-01-01T01:35:18Z</time>
      </trkpt>
      <trkpt lat="41.606956" lon="2.100373">
        <ele>298.20</ele>
        <time>1970-01-01T01:35:22Z</time>
      </trkpt>
      <trkpt lat="41.606585" lon="2.100326">
        <ele>295.40</ele>
        <time>1970-01-01T01:35:26Z</time>
      </trkpt>
      <trkpt lat="41.606211" lon="2.100305">
        <ele>294.60</ele>
        <time>1970-01-01T01:35:30Z</time>
      </trkpt>
      <trkpt lat="41.605841" lon="2.100300">
        <ele>292.40</ele>
        <time>1970-01-01T01:35:34Z</time>
      </trkpt>
      <trkpt lat="41.605471" lon="2.100193">
        <ele>290.00</ele>
        <time>1970-01-01T01:35:38Z</time>
      </trkpt>
      <trkpt lat="41.605105" lon="2.100158">
        <ele>288.40</ele>
        <time>1970-01-01T01:35:42Z</time>
      </trkpt>
      <trkpt lat="41.604796" lon="2.100175">
        <ele>289.80</ele>
        <time>1970-01-01T01:35:46Z</time>
      </trkpt>
      <trkpt lat="41.604663" lon="2.100031">
        <ele>287.80</ele>
        <time>1970-01-01T01:35:50Z</time>
      </trkpt>
      <trkpt lat="41.604631" lon="2.099638">
        <ele>282.40</ele>
        <time>1970-01-01T01:35:54Z</time>
      </trkpt>
      <trkpt lat="41.604558" lon="2.099223">
        <ele>278.20</ele>
        <time>1970-01-01T01:35:58Z</time>
      </trkpt>
      <trkpt lat="41.604373" lon="2.098791">
        <ele>270.80</ele>
        <time>1970-01-01T01:36:02Z</time>
      </trkpt>
      <trkpt lat="41.604278" lon="2.098441">
        <ele>271.60</ele>
        <time>1970-01-01T01:36:06Z</time>
      </trkpt>
      <trkpt lat="41.604195" lon="2.098373">
        <ele>271.80</ele>
        <time>1970-01-01T01:36:10Z</time>
      </trkpt>
      <trkpt lat="41.604090" lon="2.098483">
        <ele>272.20</ele>
        <time>1970-01-01T01:36:14Z</time>
      </trkpt>
      <trkpt lat="41.603943" lon="2.098601">
        <ele>272.60</ele>
        <time>1970-01-01T01:36:18Z</time>
      </trkpt>
      <trkpt lat="41.603778" lon="2.098728">
        <ele>272.80</ele>
        <time>1970-01-01T01:36:22Z</time>
      </trkpt>
      <trkpt lat="41.603610" lon="2.098843">
        <ele>273.40</ele>
        <time>1970-01-01T01:36:26Z</time>
      </trkpt>
      <trkpt lat="41.603445" lon="2.098946">
        <ele>274.00</ele>
        <time>1970-01-01T01:36:30Z</time>
      </trkpt>
      <trkpt lat="41.603280" lon="2.099040">
        <ele>274.20</ele>
        <time>1970-01-01T01:36:34Z</time>
      </trkpt>
      <trkpt lat="41.603105" lon="2.099086">
        <ele>274.60</ele>
        <time>1970-01-01T01:36:38Z</time>
      </trkpt>
      <trkpt lat="41.602900" lon="2.099060">
        <ele>274.00</ele>
        <time>1970-01-01T01:36:42Z</time>
      </trkpt>
      <trkpt lat="41.602683" lon="2.098991">
        <ele>274.00</ele>
        <time>1970-01-01T01:36:46Z</time>
      </trkpt>
      <trkpt lat="41.602475" lon="2.098930">
        <ele>272.40</ele>
        <time>1970-01-01T01:36:50Z</time>
      </trkpt>
      <trkpt lat="41.602258" lon="2.098988">
        <ele>272.60</ele>
        <time>1970-01-01T01:36:54Z</time>
      </trkpt>
      <trkpt lat="41.602041" lon="2.099121">
        <ele>271.60</ele>
        <time>1970-01-01T01:36:58Z</time>
      </trkpt>
      <trkpt lat="41.601823" lon="2.099260">
        <ele>271.00</ele>
        <time>1970-01-01T01:37:02Z</time>
      </trkpt>
      <trkpt lat="41.601608" lon="2.099418">
        <ele>267.40</ele>
        <time>1970-01-01T01:37:06Z</time>
      </trkpt>
      <trkpt lat="41.601383" lon="2.099626">
        <ele>266.40</ele>
        <time>1970-01-01T01:37:10Z</time>
      </trkpt>
      <trkpt lat="41.601143" lon="2.099808">
        <ele>266.40</ele>
        <time>1970-01-01T01:37:14Z</time>
      </trkpt>
      <trkpt lat="41.600905" lon="2.099938">
        <ele>265.60</ele>
        <time>1970-01-01T01:37:18Z</time>
      </trkpt>
      <trkpt lat="41.600675" lon="2.100035">
        <ele>265.80</ele>
        <time>1970-01-01T01:37:22Z</time>
      </trkpt>
      <trkpt lat="41.600446" lon="2.100080">
        <ele>265.40</ele>
        <time>1970-01-01T01:37:26Z</time>
      </trkpt>
      <trkpt lat="41.600226" lon="2.100131">
        <ele>267.20</ele>
        <time>1970-01-01T01:37:30Z</time>
      </trkpt>
      <trkpt lat="41.600025" lon="2.100215">
        <ele>268.00</ele>
        <time>1970-01-01T01:37:34Z</time>
      </trkpt>
      <trkpt lat="41.599843" lon="2.100323">
        <ele>268.60</ele>
        <time>1970-01-01T01:37:38Z</time>
      </trkpt>
      <trkpt lat="41.599680" lon="2.100400">
        <ele>270.80</ele>
        <time>1970-01-01T01:37:42Z</time>
      </trkpt>
      <trkpt lat="41.599545" lon="2.100460">
        <ele>272.40</ele>
        <time>1970-01-01T01:37:46Z</time>
      </trkpt>
      <trkpt lat="41.599413" lon="2.100510">
        <ele>273.40</ele>
        <time>1970-01-01T01:37:50Z</time>
      </trkpt>
      <trkpt lat="41.599290" lon="2.100541">
        <ele>275.20</ele>
        <time>1970-01-01T01:37:54Z</time>
      </trkpt>
      <trkpt lat="41.599176" lon="2.100561">
        <ele>276.20</ele>
        <time>1970-01-01T01:37:58Z</time>
      </trkpt>
      <trkpt lat="41.599070" lon="2.100585">
        <ele>278.40</ele>
        <time>1970-01-01T01:38:02Z</time>
      </trkpt>
      <trkpt lat="41.598965" lon="2.100596">
        <ele>278.60</ele>
        <time>1970-01-01T01:38:06Z</time>
      </trkpt>
      <trkpt lat="41.598851" lon="2.100605">
        <ele>279.80</ele>
        <time>1970-01-01T01:38:10Z</time>
      </trkpt>
      <trkpt lat="41.598738" lon="2.100616">
        <ele>280.20</ele>
        <time>1970-01-01T01:38:14Z</time>
      </trkpt>
      <trkpt lat="41.598628" lon="2.100635">
        <ele>280.80</ele>
        <time>1970-01-01T01:38:18Z</time>
      </trkpt>
      <trkpt lat="41.598521" lon="2.100678">
        <ele>281.20</ele>
        <time>1970-01-01T01:38:22Z</time>
      </trkpt>
      <trkpt lat="41.598411" lon="2.100701">
        <ele>281.40</ele>
        <time>1970-01-01T01:38:26Z</time>
      </trkpt>
      <trkpt lat="41.598273" lon="2.100720">
        <ele>281.60</ele>
        <time>1970-01-01T01:38:30Z</time>
      </trkpt>
      <trkpt lat="41.598106" lon="2.100756">
        <ele>281.40</ele>
        <time>1970-01-01T01:38:34Z</time>
      </trkpt>
      <trkpt lat="41.597930" lon="2.100830">
        <ele>281.40</ele>
        <time>1970-01-01T01:38:38Z</time>
      </trkpt>
      <trkpt lat="41.597741" lon="2.100920">
        <ele>279.60</ele>
        <time>1970-01-01T01:38:42Z</time>
      </trkpt>
      <trkpt lat="41.597491" lon="2.100876">
        <ele>277.00</ele>
        <time>1970-01-01T01:38:46Z</time>
      </trkpt>
      <trkpt lat="41.597228" lon="2.101013">
        <ele>273.60</ele>
        <time>1970-01-01T01:38:50Z</time>
      </trkpt>
      <trkpt lat="41.596956" lon="2.101193">
        <ele>271.60</ele>
        <time>1970-01-01T01:38:54Z</time>
      </trkpt>
      <trkpt lat="41.596675" lon="2.101383">
        <ele>270.40</ele>
        <time>1970-01-01T01:38:58Z</time>
      </trkpt>
      <trkpt lat="41.596388" lon="2.101548">
        <ele>270.80</ele>
        <time>1970-01-01T01:39:02Z</time>
      </trkpt>
      <trkpt lat="41.596101" lon="2.101688">
        <ele>270.60</ele>
        <time>1970-01-01T01:39:06Z</time>
      </trkpt>
      <trkpt lat="41.595823" lon="2.101823">
        <ele>271.60</ele>
        <time>1970-01-01T01:39:10Z</time>
      </trkpt>
      <trkpt lat="41.595550" lon="2.101953">
        <ele>273.00</ele>
        <time>1970-01-01T01:39:14Z</time>
      </trkpt>
      <trkpt lat="41.595285" lon="2.102033">
        <ele>272.80</ele>
        <time>1970-01-01T01:39:18Z</time>
      </trkpt>
      <trkpt lat="41.595038" lon="2.102113">
        <ele>273.00</ele>
        <time>1970-01-01T01:39:22Z</time>
      </trkpt>
      <trkpt lat="41.594788" lon="2.102208">
        <ele>273.80</ele>
        <time>1970-01-01T01:39:26Z</time>
      </trkpt>
      <trkpt lat="41.594551" lon="2.102296">
        <ele>273.80</ele>
        <time>1970-01-01T01:39:30Z</time>
      </trkpt>
      <trkpt lat="41.594321" lon="2.102343">
        <ele>273.00</ele>
        <time>1970-01-01T01:39:34Z</time>
      </trkpt>
      <trkpt lat="41.594098" lon="2.102446">
        <ele>272.80</ele>
        <time>1970-01-01T01:39:38Z</time>
      </trkpt>
      <trkpt lat="41.593861" lon="2.102591">
        <ele>270.80</ele>
        <time>1970-01-01T01:39:42Z</time>
      </trkpt>
      <trkpt lat="41.593573" lon="2.102670">
        <ele>267.40</ele>
        <time>1970-01-01T01:39:46Z</time>
      </trkpt>
      <trkpt lat="41.593406" lon="2.102515">
        <ele>267.20</ele>
        <time>1970-01-01T01:39:50Z</time>
      </trkpt>
      <trkpt lat="41.593170" lon="2.102460">
        <ele>264.40</ele>
        <time>1970-01-01T01:39:54Z</time>
      </trkpt>
      <trkpt lat="41.592895" lon="2.102566">
        <ele>262.40</ele>
        <time>1970-01-01T01:39:58Z</time>
      </trkpt>
      <trkpt lat="41.592643" lon="2.102740">
        <ele>262.60</ele>
        <time>1970-01-01T01:40:02Z</time>
      </trkpt>
      <trkpt lat="41.592370" lon="2.102780">
        <ele>261.60</ele>
        <time>1970-01-01T01:40:06Z</time>
      </trkpt>
      <trkpt lat="41.592120" lon="2.102850">
        <ele>259.80</ele>
        <time>1970-01-01T01:40:10Z</time>
      </trkpt>
      <trkpt lat="41.591875" lon="2.102940">
        <ele>260.60</ele>
        <time>1970-01-01T01:40:14Z</time>
      </trkpt>
      <trkpt lat="41.591660" lon="2.102970">
        <ele>261.00</ele>
        <time>1970-01-01T01:40:18Z</time>
      </trkpt>
      <trkpt lat="41.591426" lon="2.102901">
        <ele>260.40</ele>
        <time>1970-01-01T01:40:22Z</time>
      </trkpt>
      <trkpt lat="41.591198" lon="2.102728">
        <ele>260.00</ele>
        <time>1970-01-01T01:40:26Z</time>
      </trkpt>
      <trkpt lat="41.590916" lon="2.102701">
        <ele>258.80</ele>
        <time>1970-01-01T01:40:30Z</time>
      </trkpt>
      <trkpt lat="41.590626" lon="2.102891">
        <ele>257.60</ele>
        <time>1970-01-01T01:40:34Z</time>
      </trkpt>
      <trkpt lat="41.590383" lon="2.103066">
        <ele>258.60</ele>
        <time>1970-01-01T01:40:38Z</time>
      </trkpt>
      <trkpt lat="41.590133" lon="2.103151">
        <ele>257.40</ele>
        <time>1970-01-01T01:40:42Z</time>
      </trkpt>
      <trkpt lat="41.589861" lon="2.103193">
        <ele>257.20</ele>
        <time>1970-01-01T01:40:46Z</time>
      </trkpt>
      <trkpt lat="41.589573" lon="2.103231">
        <ele>256.80</ele>
        <time>1970-01-01T01:40:50Z</time>
      </trkpt>
      <trkpt lat="41.589275" lon="2.103243">
        <ele>254.20</ele>
        <time>1970-01-01T01:40:54Z</time>
      </trkpt>
      <trkpt lat="41.588936" lon="2.103236">
        <ele>253.40</ele>
        <time>1970-01-01T01:40:58Z</time>
      </trkpt>
      <trkpt lat="41.588618" lon="2.103170">
        <ele>253.00</ele>
        <time>1970-01-01T01:41:02Z</time>
      </trkpt>
      <trkpt lat="41.588303" lon="2.103115">
        <ele>252.20</ele>
        <time>1970-01-01T01:41:06Z</time>
      </trkpt>
      <trkpt lat="41.588018" lon="2.103030">
        <ele>252.80</ele>
        <time>1970-01-01T01:41:10Z</time>
      </trkpt>
      <trkpt lat="41.587736" lon="2.103018">
        <ele>253.00</ele>
        <time>1970-01-01T01:41:14Z</time>
      </trkpt>
      <trkpt lat="41.587470" lon="2.103086">
        <ele>254.00</ele>
        <time>1970-01-01T01:41:18Z</time>
      </trkpt>
      <trkpt lat="41.587228" lon="2.103165">
        <ele>254.20</ele>
        <time>1970-01-01T01:41:22Z</time>
      </trkpt>
      <trkpt lat="41.587020" lon="2.103076">
        <ele>254.80</ele>
        <time>1970-01-01T01:41:26Z</time>
      </trkpt>
      <trkpt lat="41.586793" lon="2.103018">
        <ele>253.40</ele>
        <time>1970-01-01T01:41:30Z</time>
      </trkpt>
      <trkpt lat="41.586533" lon="2.103045">
        <ele>253.00</ele>
        <time>1970-01-01T01:41:34Z</time>
      </trkpt>
      <trkpt lat="41.586280" lon="2.102908">
        <ele>247.20</ele>
        <time>1970-01-01T01:41:38Z</time>
      </trkpt>
      <trkpt lat="41.586173" lon="2.102485">
        <ele>242.80</ele>
        <time>1970-01-01T01:41:42Z</time>
      </trkpt>
      <trkpt lat="41.585983" lon="2.102120">
        <ele>240.00</ele>
        <time>1970-01-01T01:41:46Z</time>
      </trkpt>
      <trkpt lat="41.585626" lon="2.102006">
        <ele>235.20</ele>
        <time>1970-01-01T01:41:50Z</time>
      </trkpt>
      <trkpt lat="41.585260" lon="2.101968">
        <ele>234.20</ele>
        <time>1970-01-01T01:41:54Z</time>
      </trkpt>
      <trkpt lat="41.584988" lon="2.101830">
        <ele>232.60</ele>
        <time>1970-01-01T01:41:58Z</time>
      </trkpt>
      <trkpt lat="41.584633" lon="2.101860">
        <ele>231.60</ele>
        <time>1970-01-01T01:42:02Z</time>
      </trkpt>
      <trkpt lat="41.584335" lon="2.101936">
        <ele>230.80</ele>
        <time>1970-01-01T01:42:06Z</time>
      </trkpt>
      <trkpt lat="41.583990" lon="2.102036">
        <ele>230.20</ele>
        <time>1970-01-01T01:42:10Z</time>
      </trkpt>
      <trkpt lat="41.583658" lon="2.102088">
        <ele>228.60</ele>
        <time>1970-01-01T01:42:14Z</time>
      </trkpt>
      <trkpt lat="41.583311" lon="2.102135">
        <ele>226.40</ele>
        <time>1970-01-01T01:42:18Z</time>
      </trkpt>
      <trkpt lat="41.582946" lon="2.102103">
        <ele>223.60</ele>
        <time>1970-01-01T01:42:22Z</time>
      </trkpt>
      <trkpt lat="41.582578" lon="2.102033">
        <ele>222.60</ele>
        <time>1970-01-01T01:42:26Z</time>
      </trkpt>
      <trkpt lat="41.582206" lon="2.101938">
        <ele>219.80</ele>
        <time>1970-01-01T01:42:30Z</time>
      </trkpt>
      <trkpt lat="41.581821" lon="2.101900">
        <ele>219.20</ele>
        <time>1970-01-01T01:42:34Z</time>
      </trkpt>
      <trkpt lat="41.581436" lon="2.102005">
        <ele>216.40</ele>
        <time>1970-01-01T01:42:38Z</time>
      </trkpt>
      <trkpt lat="41.581058" lon="2.102021">
        <ele>217.80</ele>
        <time>1970-01-01T01:42:42Z</time>
      </trkpt>
      <trkpt lat="41.580691" lon="2.102078">
        <ele>215.20</ele>
        <time>1970-01-01T01:42:46Z</time>
      </trkpt>
      <trkpt lat="41.580330" lon="2.102020">
        <ele>214.80</ele>
        <time>1970-01-01T01:42:50Z</time>
      </trkpt>
      <trkpt lat="41.579966" lon="2.101976">
        <ele>213.00</ele>
        <time>1970-01-01T01:42:54Z</time>
      </trkpt>
      <trkpt lat="41.579621" lon="2.101988">
        <ele>213.80</ele>
        <time>1970-01-01T01:42:58Z</time>
      </trkpt>
      <trkpt lat="41.579286" lon="2.101941">
        <ele>213.00</ele>
        <time>1970-01-01T01:43:02Z</time>
      </trkpt>
      <trkpt lat="41.578956" lon="2.101898">
        <ele>212.80</ele>
        <time>1970-01-01T01:43:06Z</time>
      </trkpt>
      <trkpt lat="41.578641" lon="2.101893">
        <ele>212.80</ele>
        <time>1970-01-01T01:43:10Z</time>
      </trkpt>
      <trkpt lat="41.578341" lon="2.101871">
        <ele>213.20</ele>
        <time>1970-01-01T01:43:14Z</time>
      </trkpt>
      <trkpt lat="41.578055" lon="2.101790">
        <ele>212.60</ele>
        <time>1970-01-01T01:43:18Z</time>
      </trkpt>
      <trkpt lat="41.577800" lon="2.101848">
        <ele>212.20</ele>
        <time>1970-01-01T01:43:22Z</time>
      </trkpt>
      <trkpt lat="41.577553" lon="2.101940">
        <ele>210.60</ele>
        <time>1970-01-01T01:43:26Z</time>
      </trkpt>
      <trkpt lat="41.577270" lon="2.102118">
        <ele>209.80</ele>
        <time>1970-01-01T01:43:30Z</time>
      </trkpt>
      <trkpt lat="41.577056" lon="2.102418">
        <ele>209.40</ele>
        <time>1970-01-01T01:43:34Z</time>
      </trkpt>
      <trkpt lat="41.576828" lon="2.102708">
        <ele>208.40</ele>
        <time>1970-01-01T01:43:38Z</time>
      </trkpt>
      <trkpt lat="41.576570" lon="2.103005">
        <ele>207.80</ele>
        <time>1970-01-01T01:43:42Z</time>
      </trkpt>
      <trkpt lat="41.576333" lon="2.103271">
        <ele>207.20</ele>
        <time>1970-01-01T01:43:46Z</time>
      </trkpt>
      <trkpt lat="41.576111" lon="2.103588">
        <ele>206.20</ele>
        <time>1970-01-01T01:43:50Z</time>
      </trkpt>
      <trkpt lat="41.575885" lon="2.103836">
        <ele>206.40</ele>
        <time>1970-01-01T01:43:54Z</time>
      </trkpt>
      <trkpt lat="41.575646" lon="2.104050">
        <ele>205.40</ele>
        <time>1970-01-01T01:43:58Z</time>
      </trkpt>
      <trkpt lat="41.575438" lon="2.104281">
        <ele>205.20</ele>
        <time>1970-01-01T01:44:02Z</time>
      </trkpt>
      <trkpt lat="41.575231" lon="2.104486">
        <ele>205.00</ele>
        <time>1970-01-01T01:44:06Z</time>
      </trkpt>
      <trkpt lat="41.574965" lon="2.104688">
        <ele>204.00</ele>
        <time>1970-01-01T01:44:10Z</time>
      </trkpt>
      <trkpt lat="41.574681" lon="2.104871">
        <ele>203.00</ele>
        <time>1970-01-01T01:44:14Z</time>
      </trkpt>
      <trkpt lat="41.574405" lon="2.105003">
        <ele>202.20</ele>
        <time>1970-01-01T01:44:18Z</time>
      </trkpt>
      <trkpt lat="41.574118" lon="2.105185">
        <ele>201.80</ele>
        <time>1970-01-01T01:44:22Z</time>
      </trkpt>
      <trkpt lat="41.573821" lon="2.105428">
        <ele>201.00</ele>
        <time>1970-01-01T01:44:26Z</time>
      </trkpt>
      <trkpt lat="41.573555" lon="2.105651">
        <ele>200.60</ele>
        <time>1970-01-01T01:44:30Z</time>
      </trkpt>
      <trkpt lat="41.573291" lon="2.105836">
        <ele>200.60</ele>
        <time>1970-01-01T01:44:34Z</time>
      </trkpt>
      <trkpt lat="41.573021" lon="2.106020">
        <ele>199.20</ele>
        <time>1970-01-01T01:44:38Z</time>
      </trkpt>
      <trkpt lat="41.572738" lon="2.106215">
        <ele>198.00</ele>
        <time>1970-01-01T01:44:42Z</time>
      </trkpt>
      <trkpt lat="41.572443" lon="2.106395">
        <ele>197.20</ele>
        <time>1970-01-01T01:44:46Z</time>
      </trkpt>
      <trkpt lat="41.572156" lon="2.106586">
        <ele>194.40</ele>
        <time>1970-01-01T01:44:50Z</time>
      </trkpt>
      <trkpt lat="41.571871" lon="2.106778">
        <ele>195.60</ele>
        <time>1970-01-01T01:44:54Z</time>
      </trkpt>
      <trkpt lat="41.571580" lon="2.106946">
        <ele>194.20</ele>
        <time>1970-01-01T01:44:58Z</time>
      </trkpt>
      <trkpt lat="41.571300" lon="2.107060">
        <ele>193.20</ele>
        <time>1970-01-01T01:45:02Z</time>
      </trkpt>
      <trkpt lat="41.571120" lon="2.107340">
        <ele>192.00</ele>
        <time>1970-01-01T01:45:06Z</time>
      </trkpt>
      <trkpt lat="41.570990" lon="2.107666">
        <ele>191.60</ele>
        <time>1970-01-01T01:45:10Z</time>
      </trkpt>
      <trkpt lat="41.570908" lon="2.107988">
        <ele>191.40</ele>
        <time>1970-01-01T01:45:14Z</time>
      </trkpt>
      <trkpt lat="41.570753" lon="2.108311">
        <ele>191.00</ele>
        <time>1970-01-01T01:45:18Z</time>
      </trkpt>
      <trkpt lat="41.570593" lon="2.108638">
        <ele>190.40</ele>
        <time>1970-01-01T01:45:22Z</time>
      </trkpt>
      <trkpt lat="41.570418" lon="2.108945">
        <ele>189.20</ele>
        <time>1970-01-01T01:45:26Z</time>
      </trkpt>
      <trkpt lat="41.570235" lon="2.109168">
        <ele>189.40</ele>
        <time>1970-01-01T01:45:30Z</time>
      </trkpt>
      <trkpt lat="41.570251" lon="2.109318">
        <ele>190.40</ele>
        <time>1970-01-01T01:45:34Z</time>
      </trkpt>
      <trkpt lat="41.570405" lon="2.109376">
        <ele>191.40</ele>
        <time>1970-01-01T01:45:38Z</time>
      </trkpt>
      <trkpt lat="41.570576" lon="2.109406">
        <ele>190.40</ele>
        <time>1970-01-01T01:45:42Z</time>
      </trkpt>
      <trkpt lat="41.570776" lon="2.109453">
        <ele>190.40</ele>
        <time>1970-01-01T01:45:46Z</time>
      </trkpt>
      <trkpt lat="41.570988" lon="2.109530">
        <ele>187.40</ele>
        <time>1970-01-01T01:45:50Z</time>
      </trkpt>
      <trkpt lat="41.571173" lon="2.109671">
        <ele>188.20</ele>
        <time>1970-01-01T01:45:54Z</time>
      </trkpt>
      <trkpt lat="41.571140" lon="2.109923">
        <ele>186.80</ele>
        <time>1970-01-01T01:45:58Z</time>
      </trkpt>
      <trkpt lat="41.571036" lon="2.110171">
        <ele>185.40</ele>
        <time>1970-01-01T01:46:02Z</time>
      </trkpt>
      <trkpt lat="41.570923" lon="2.110440">
        <ele>184.00</ele>
        <time>1970-01-01T01:46:06Z</time>
      </trkpt>
      <trkpt lat="41.570830" lon="2.110741">
        <ele>183.20</ele>
        <time>1970-01-01T01:46:10Z</time>
      </trkpt>
      <trkpt lat="41.570765" lon="2.111040">
        <ele>183.80</ele>
        <time>1970-01-01T01:46:14Z</time>
      </trkpt>
      <trkpt lat="41.570578" lon="2.111376">
        <ele>181.60</ele>
        <time>1970-01-01T01:46:18Z</time>
      </trkpt>
      <trkpt lat="41.570360" lon="2.111506">
        <ele>182.40</ele>
        <time>1970-01-01T01:46:22Z</time>
      </trkpt>
      <trkpt lat="41.570120" lon="2.111505">
        <ele>182.60</ele>
        <time>1970-01-01T01:46:26Z</time>
      </trkpt>
      <trkpt lat="41.569893" lon="2.111605">
        <ele>182.80</ele>
        <time>1970-01-01T01:46:30Z</time>
      </trkpt>
      <trkpt lat="41.569686" lon="2.111743">
        <ele>182.60</ele>
        <time>1970-01-01T01:46:34Z</time>
      </trkpt>
      <trkpt lat="41.569480" lon="2.111913">
        <ele>181.20</ele>
        <time>1970-01-01T01:46:38Z</time>
      </trkpt>
      <trkpt lat="41.569261" lon="2.112146">
        <ele>179.60</ele>
        <time>1970-01-01T01:46:42Z</time>
      </trkpt>
      <trkpt lat="41.569011" lon="2.112436">
        <ele>177.20</ele>
        <time>1970-01-01T01:46:46Z</time>
      </trkpt>
      <trkpt lat="41.568790" lon="2.112766">
        <ele>173.00</ele>
        <time>1970-01-01T01:46:50Z</time>
      </trkpt>
      <trkpt lat="41.568585" lon="2.113160">
        <ele>170.00</ele>
        <time>1970-01-01T01:46:54Z</time>
      </trkpt>
      <trkpt lat="41.568295" lon="2.113246">
        <ele>165.80</ele>
        <time>1970-01-01T01:46:58Z</time>
      </trkpt>
      <trkpt lat="41.567928" lon="2.113126">
        <ele>162.60</ele>
        <time>1970-01-01T01:47:02Z</time>
      </trkpt>
      <trkpt lat="41.567645" lon="2.113201">
        <ele>161.80</ele>
        <time>1970-01-01T01:47:06Z</time>
      </trkpt>
      <trkpt lat="41.567458" lon="2.113265">
        <ele>161.00</ele>
        <time>1970-01-01T01:47:10Z</time>
      </trkpt>
      <trkpt lat="41.567335" lon="2.113338">
        <ele>160.00</ele>
        <time>1970-01-01T01:47:14Z</time>
      </trkpt>
      <trkpt lat="41.567226" lon="2.113406">
        <ele>159.20</ele>
        <time>1970-01-01T01:47:18Z</time>
      </trkpt>
      <trkpt lat="41.567133" lon="2.113476">
        <ele>158.20</ele>
        <time>1970-01-01T01:47:22Z</time>
      </trkpt>
      <trkpt lat="41.567038" lon="2.113570">
        <ele>157.20</ele>
        <time>1970-01-01T01:47:26Z</time>
      </trkpt>
      <trkpt lat="41.566956" lon="2.113678">
        <ele>156.00</ele>
        <time>1970-01-01T01:47:30Z</time>
      </trkpt>
      <trkpt lat="41.566863" lon="2.113788">
        <ele>154.80</ele>
        <time>1970-01-01T01:47:34Z</time>
      </trkpt>
      <trkpt lat="41.566771" lon="2.113891">
        <ele>154.20</ele>
        <time>1970-01-01T01:47:38Z</time>
      </trkpt>
      <trkpt lat="41.566608" lon="2.114101">
        <ele>151.20</ele>
        <time>1970-01-01T01:47:42Z</time>
      </trkpt>
      <trkpt lat="41.566445" lon="2.114380">
        <ele>147.40</ele>
        <time>1970-01-01T01:47:46Z</time>
      </trkpt>
      <trkpt lat="41.566221" lon="2.114676">
        <ele>144.00</ele>
        <time>1970-01-01T01:47:50Z</time>
      </trkpt>
      <trkpt lat="41.565881" lon="2.114826">
        <ele>139.60</ele>
        <time>1970-01-01T01:47:54Z</time>
      </trkpt>
      <trkpt lat="41.565538" lon="2.115071">
        <ele>135.60</ele>
        <time>1970-01-01T01:47:58Z</time>
      </trkpt>
      <trkpt lat="41.565163" lon="2.115288">
        <ele>132.60</ele>
        <time>1970-01-01T01:48:02Z</time>
      </trkpt>
      <trkpt lat="41.564800" lon="2.115435">
        <ele>131.80</ele>
        <time>1970-01-01T01:48:06Z</time>
      </trkpt>
      <trkpt lat="41.564445" lon="2.115570">
        <ele>127.60</ele>
        <time>1970-01-01T01:48:10Z</time>
      </trkpt>
      <trkpt lat="41.564106" lon="2.115718">
        <ele>128.00</ele>
        <time>1970-01-01T01:48:14Z</time>
      </trkpt>
      <trkpt lat="41.563785" lon="2.115743">
        <ele>124.80</ele>
        <time>1970-01-01T01:48:18Z</time>
      </trkpt>
      <trkpt lat="41.563460" lon="2.115705">
        <ele>124.20</ele>
        <time>1970-01-01T01:48:22Z</time>
      </trkpt>
      <trkpt lat="41.563170" lon="2.115660">
        <ele>125.40</ele>
        <time>1970-01-01T01:48:26Z</time>
      </trkpt>
      <trkpt lat="41.562920" lon="2.115635">
        <ele>126.00</ele>
        <time>1970-01-01T01:48:30Z</time>
      </trkpt>
      <trkpt lat="41.562660" lon="2.115701">
        <ele>125.40</ele>
        <time>1970-01-01T01:48:34Z</time>
      </trkpt>
      <trkpt lat="41.562390" lon="2.115805">
        <ele>124.40</ele>
        <time>1970-01-01T01:48:38Z</time>
      </trkpt>
      <trkpt lat="41.562116" lon="2.115896">
        <ele>123.80</ele>
        <time>1970-01-01T01:48:42Z</time>
      </trkpt>
      <trkpt lat="41.561841" lon="2.115961">
        <ele>124.20</ele>
        <time>1970-01-01T01:48:46Z</time>
      </trkpt>
      <trkpt lat="41.561576" lon="2.116030">
        <ele>125.20</ele>
        <time>1970-01-01T01:48:50Z</time>
      </trkpt>
      <trkpt lat="41.561345" lon="2.116101">
        <ele>126.40</ele>
        <time>1970-01-01T01:48:54Z</time>
      </trkpt>
      <trkpt lat="41.561138" lon="2.116155">
        <ele>126.20</ele>
        <time>1970-01-01T01:48:58Z</time>
      </trkpt>
      <trkpt lat="41.560943" lon="2.116208">
        <ele>126.20</ele>
        <time>1970-01-01T01:49:02Z</time>
      </trkpt>
      <trkpt lat="41.560761" lon="2.116258">
        <ele>127.80</ele>
        <time>1970-01-01T01:49:06Z</time>
      </trkpt>
      <trkpt lat="41.560578" lon="2.116316">
        <ele>127.80</ele>
        <time>1970-01-01T01:49:10Z</time>
      </trkpt>
      <trkpt lat="41.560400" lon="2.116420">
        <ele>128.00</ele>
        <time>1970-01-01T01:49:14Z</time>
      </trkpt>
      <trkpt lat="41.560205" lon="2.116556">
        <ele>126.00</ele>
        <time>1970-01-01T01:49:18Z</time>
      </trkpt>
      <trkpt lat="41.559996" lon="2.116716">
        <ele>124.60</ele>
        <time>1970-01-01T01:49:22Z</time>
      </trkpt>
      <trkpt lat="41.559790" lon="2.116885">
        <ele>123.80</ele>
        <time>1970-01-01T01:49:26Z</time>
      </trkpt>
      <trkpt lat="41.559548" lon="2.116975">
        <ele>122.40</ele>
        <time>1970-01-01T01:49:30Z</time>
      </trkpt>
      <trkpt lat="41.559288" lon="2.116943">
        <ele>120.60</ele>
        <time>1970-01-01T01:49:34Z</time>
      </trkpt>
      <trkpt lat="41.559016" lon="2.116945">
        <ele>118.60</ele>
        <time>1970-01-01T01:49:38Z</time>
      </trkpt>
      <trkpt lat="41.558770" lon="2.116780">
        <ele>117.20</ele>
        <time>1970-01-01T01:49:42Z</time>
      </trkpt>
      <trkpt lat="41.558578" lon="2.116713">
        <ele>116.20</ele>
        <time>1970-01-01T01:49:46Z</time>
      </trkpt>
      <trkpt lat="41.558360" lon="2.116530">
        <ele>114.00</ele>
        <time>1970-01-01T01:49:50Z</time>
      </trkpt>
      <trkpt lat="41.558120" lon="2.116368">
        <ele>112.00</ele>
        <time>1970-01-01T01:49:54Z</time>
      </trkpt>
      <trkpt lat="41.557960" lon="2.116113">
        <ele>112.40</ele>
        <time>1970-01-01T01:49:58Z</time>
      </trkpt>
      <trkpt lat="41.557888" lon="2.115861">
        <ele>112.60</ele>
        <time>1970-01-01T01:50:02Z</time>
      </trkpt>
      <trkpt lat="41.557696" lon="2.115895">
        <ele>110.60</ele>
        <time>1970-01-01T01:50:06Z</time>
      </trkpt>
      <trkpt lat="41.557518" lon="2.115753">
        <ele>110.20</ele>
        <time>1970-01-01T01:50:10Z</time>
      </trkpt>
      <trkpt lat="41.557400" lon="2.115708">
        <ele>110.20</ele>
        <time>1970-01-01T01:50:14Z</time>
      </trkpt>
      <trkpt lat="41.557340" lon="2.115918">
        <ele>108.60</ele>
        <time>1970-01-01T01:50:18Z</time>
      </trkpt>
      <trkpt lat="41.557198" lon="2.115951">
        <ele>108.20</ele>
        <time>1970-01-01T01:50:22Z</time>
      </trkpt>
      <trkpt lat="41.557006" lon="2.115820">
        <ele>106.40</ele>
        <time>1970-01-01T01:50:26Z</time>
      </trkpt>
      <trkpt lat="41.556863" lon="2.115873">
        <ele>107.20</ele>
        <time>1970-01-01T01:50:30Z</time>
      </trkpt>
      <trkpt lat="41.556721" lon="2.116093">
        <ele>108.40</ele>
        <time>1970-01-01T01:50:34Z</time>
      </trkpt>
      <trkpt lat="41.556590" lon="2.116290">
        <ele>109.20</ele>
        <time>1970-01-01T01:50:38Z</time>
      </trkpt>
      <trkpt lat="41.556445" lon="2.116458">
        <ele>109.20</ele>
        <time>1970-01-01T01:50:42Z</time>
      </trkpt>
      <trkpt lat="41.556380" lon="2.116430">
        <ele>111.80</ele>
        <time>1970-01-01T01:50:46Z</time>
      </trkpt>
      <trkpt lat="41.556460" lon="2.116308">
        <ele>111.60</ele>
        <time>1970-01-01T01:50:50Z</time>
      </trkpt>
      <trkpt lat="41.556541" lon="2.116141">
        <ele>111.20</ele>
        <time>1970-01-01T01:50:54Z</time>
      </trkpt>
      <trkpt lat="41.556541" lon="2.115945">
        <ele>112.80</ele>
        <time>1970-01-01T01:50:58Z</time>
      </trkpt>
      <trkpt lat="41.556490" lon="2.115833">
        <ele>115.00</ele>
        <time>1970-01-01T01:51:02Z</time>
      </trkpt>
      <trkpt lat="41.556406" lon="2.115790">
        <ele>116.20</ele>
        <time>1970-01-01T01:51:06Z</time>
      </trkpt>
      <trkpt lat="41.556328" lon="2.115780">
        <ele>117.60</ele>
        <time>1970-01-01T01:51:10Z</time>
      </trkpt>
      <trkpt lat="41.556251" lon="2.115746">
        <ele>119.40</ele>
        <time>1970-01-01T01:51:14Z</time>
      </trkpt>
      <trkpt lat="41.556165" lon="2.115706">
        <ele>120.00</ele>
        <time>1970-01-01T01:51:18Z</time>
      </trkpt>
      <trkpt lat="41.556100" lon="2.115670">
        <ele>122.20</ele>
        <time>1970-01-01T01:51:22Z</time>
      </trkpt>
      <trkpt lat="41.556061" lon="2.115628">
        <ele>123.00</ele>
        <time>1970-01-01T01:51:26Z</time>
      </trkpt>
      <trkpt lat="41.556001" lon="2.115606">
        <ele>124.00</ele>
        <time>1970-01-01T01:51:30Z</time>
      </trkpt>
      <trkpt lat="41.555933" lon="2.115605">
        <ele>124.20</ele>
        <time>1970-01-01T01:51:34Z</time>
      </trkpt>
      <trkpt lat="41.555851" lon="2.115605">
        <ele>125.60</ele>
        <time>1970-01-01T01:51:38Z</time>
      </trkpt>
      <trkpt lat="41.555773" lon="2.115580">
        <ele>126.20</ele>
        <time>1970-01-01T01:51:42Z</time>
      </trkpt>
      <trkpt lat="41.555705" lon="2.115576">
        <ele>127.00</ele>
        <time>1970-01-01T01:51:46Z</time>
      </trkpt>
      <trkpt lat="41.555666" lon="2.115605">
        <ele>127.80</ele>
        <time>1970-01-01T01:51:50Z</time>
      </trkpt>
      <trkpt lat="41.555621" lon="2.115633">
        <ele>128.40</ele>
        <time>1970-01-01T01:51:54Z</time>
      </trkpt>
      <trkpt lat="41.555576" lon="2.115686">
        <ele>128.80</ele>
        <time>1970-01-01T01:51:58Z</time>
      </trkpt>
      <trkpt lat="41.555538" lon="2.115756">
        <ele>129.00</ele>
        <time>1970-01-01T01:52:02Z</time>
      </trkpt>
      <trkpt lat="41.555526" lon="2.115805">
        <ele>129.00</ele>
        <time>1970-01-01T01:52:06Z</time>
      </trkpt>
      <trkpt lat="41.555491" lon="2.115846">
        <ele>128.80</ele>
        <time>1970-01-01T01:52:10Z</time>
      </trkpt>
      <trkpt lat="41.555471" lon="2.115908">
        <ele>129.20</ele>
        <time>1970-01-01T01:52:14Z</time>
      </trkpt>
      <trkpt lat="41.555421" lon="2.115960">
        <ele>129.00</ele>
        <time>1970-01-01T01:52:18Z</time>
      </trkpt>
      <trkpt lat="41.555375" lon="2.115961">
        <ele>129.20</ele>
        <time>1970-01-01T01:52:22Z</time>
      </trkpt>
      <trkpt lat="41.555323" lon="2.115905">
        <ele>129.60</ele>
        <time>1970-01-01T01:52:26Z</time>
      </trkpt>
      <trkpt lat="41.555273" lon="2.115848">
        <ele>130.20</ele>
        <time>1970-01-01T01:52:30Z</time>
      </trkpt>
      <trkpt lat="41.555215" lon="2.115781">
        <ele>130.40</ele>
        <time>1970-01-01T01:52:34Z</time>
      </trkpt>
      <trkpt lat="41.555141" lon="2.115721">
        <ele>131.40</ele>
        <time>1970-01-01T01:52:38Z</time>
      </trkpt>
      <trkpt lat="41.555081" lon="2.115658">
        <ele>132.00</ele>
        <time>1970-01-01T01:52:42Z</time>
      </trkpt>
      <trkpt lat="41.555001" lon="2.115616">
        <ele>132.60</ele>
        <time>1970-01-01T01:52:46Z</time>
      </trkpt>
      <trkpt lat="41.554935" lon="2.115556">
        <ele>133.20</ele>
        <time>1970-01-01T01:52:50Z</time>
      </trkpt>
      <trkpt lat="41.554840" lon="2.115466">
        <ele>134.00</ele>
        <time>1970-01-01T01:52:54Z</time>
      </trkpt>
      <trkpt lat="41.554743" lon="2.115373">
        <ele>135.00</ele>
        <time>1970-01-01T01:52:58Z</time>
      </trkpt>
      <trkpt lat="41.554628" lon="2.115290">
        <ele>135.20</ele>
        <time>1970-01-01T01:53:02Z</time>
      </trkpt>
      <trkpt lat="41.554511" lon="2.115201">
        <ele>136.00</ele>
        <time>1970-01-01T01:53:06Z</time>
      </trkpt>
      <trkpt lat="41.554378" lon="2.115125">
        <ele>136.60</ele>
        <time>1970-01-01T01:53:10Z</time>
      </trkpt>
      <trkpt lat="41.554251" lon="2.115085">
        <ele>137.80</ele>
        <time>1970-01-01T01:53:14Z</time>
      </trkpt>
      <trkpt lat="41.554111" lon="2.115101">
        <ele>138.20</ele>
        <time>1970-01-01T01:53:18Z</time>
      </trkpt>
      <trkpt lat="41.553986" lon="2.115151">
        <ele>140.00</ele>
        <time>1970-01-01T01:53:22Z</time>
      </trkpt>
      <trkpt lat="41.553886" lon="2.115245">
        <ele>140.60</ele>
        <time>1970-01-01T01:53:26Z</time>
      </trkpt>
      <trkpt lat="41.553793" lon="2.115356">
        <ele>141.20</ele>
        <time>1970-01-01T01:53:30Z</time>
      </trkpt>
      <trkpt lat="41.553708" lon="2.115473">
        <ele>142.00</ele>
        <time>1970-01-01T01:53:34Z</time>
      </trkpt>
      <trkpt lat="41.553616" lon="2.115583">
        <ele>143.00</ele>
        <time>1970-01-01T01:53:38Z</time>
      </trkpt>
      <trkpt lat="41.553521" lon="2.115703">
        <ele>144.00</ele>
        <time>1970-01-01T01:53:42Z</time>
      </trkpt>
      <trkpt lat="41.553421" lon="2.115806">
        <ele>144.20</ele>
        <time>1970-01-01T01:53:46Z</time>
      </trkpt>
      <trkpt lat="41.553318" lon="2.115738">
        <ele>145.60</ele>
        <time>1970-01-01T01:53:50Z</time>
      </trkpt>
      <trkpt lat="41.553285" lon="2.115608">
        <ele>146.80</ele>
        <time>1970-01-01T01:53:54Z</time>
      </trkpt>
      <trkpt lat="41.553325" lon="2.115500">
        <ele>148.40</ele>
        <time>1970-01-01T01:53:58Z</time>
      </trkpt>
      <trkpt lat="41.553403" lon="2.115408">
        <ele>149.00</ele>
        <time>1970-01-01T01:54:02Z</time>
      </trkpt>
      <trkpt lat="41.553483" lon="2.115303">
        <ele>149.80</ele>
        <time>1970-01-01T01:54:06Z</time>
      </trkpt>
      <trkpt lat="41.553566" lon="2.115198">
        <ele>150.20</ele>
        <time>1970-01-01T01:54:10Z</time>
      </trkpt>
      <trkpt lat="41.553660" lon="2.115110">
        <ele>150.80</ele>
        <time>1970-01-01T01:54:14Z</time>
      </trkpt>
      <trkpt lat="41.553740" lon="2.115010">
        <ele>151.40</ele>
        <time>1970-01-01T01:54:18Z</time>
      </trkpt>
      <trkpt lat="41.553816" lon="2.114903">
        <ele>152.00</ele>
        <time>1970-01-01T01:54:22Z</time>
      </trkpt>
      <trkpt lat="41.553878" lon="2.114776">
        <ele>152.80</ele>
        <time>1970-01-01T01:54:26Z</time>
      </trkpt>
      <trkpt lat="41.553960" lon="2.114666">
        <ele>153.80</ele>
        <time>1970-01-01T01:54:30Z</time>
      </trkpt>
      <trkpt lat="41.554035" lon="2.114555">
        <ele>154.00</ele>
        <time>1970-01-01T01:54:34Z</time>
      </trkpt>
      <trkpt lat="41.554106" lon="2.114460">
        <ele>155.00</ele>
        <time>1970-01-01T01:54:38Z</time>
      </trkpt>
      <trkpt lat="41.554206" lon="2.114278">
        <ele>156.00</ele>
        <time>1970-01-01T01:54:51Z</time>
      </trkpt>
      <trkpt lat="41.554268" lon="2.114160">
        <ele>156.60</ele>
        <time>1970-01-01T01:54:55Z</time>
      </trkpt>
      <trkpt lat="41.554268" lon="2.114025">
        <ele>157.60</ele>
        <time>1970-01-01T01:54:59Z</time>
      </trkpt>
      <trkpt lat="41.554256" lon="2.113900">
        <ele>158.80</ele>
        <time>1970-01-01T01:55:03Z</time>
      </trkpt>
      <trkpt lat="41.554221" lon="2.113800">
        <ele>160.00</ele>
        <time>1970-01-01T01:55:07Z</time>
      </trkpt>
      <trkpt lat="41.554218" lon="2.113726">
        <ele>160.20</ele>
        <time>1970-01-01T01:55:11Z</time>
      </trkpt>
      <trkpt lat="41.554151" lon="2.113616">
        <ele>160.40</ele>
        <time>1970-01-01T01:55:15Z</time>
      </trkpt>
      <trkpt lat="41.554108" lon="2.113480">
        <ele>161.20</ele>
        <time>1970-01-01T01:55:19Z</time>
      </trkpt>
      <trkpt lat="41.554056" lon="2.113313">
        <ele>162.60</ele>
        <time>1970-01-01T01:55:23Z</time>
      </trkpt>
      <trkpt lat="41.554016" lon="2.113188">
        <ele>162.80</ele>
        <time>1970-01-01T01:55:27Z</time>
      </trkpt>
      <trkpt lat="41.553960" lon="2.113060">
        <ele>163.40</ele>
        <time>1970-01-01T01:55:31Z</time>
      </trkpt>
      <trkpt lat="41.553933" lon="2.112930">
        <ele>164.00</ele>
        <time>1970-01-01T01:55:35Z</time>
      </trkpt>
      <trkpt lat="41.553903" lon="2.112791">
        <ele>165.80</ele>
        <time>1970-01-01T01:55:39Z</time>
      </trkpt>
      <trkpt lat="41.553891" lon="2.112695">
        <ele>166.20</ele>
        <time>1970-01-01T01:55:43Z</time>
      </trkpt>
      <trkpt lat="41.553878" lon="2.112590">
        <ele>167.40</ele>
        <time>1970-01-01T01:55:47Z</time>
      </trkpt>
      <trkpt lat="41.553921" lon="2.112443">
        <ele>167.80</ele>
        <time>1970-01-01T01:55:51Z</time>
      </trkpt>
      <trkpt lat="41.553901" lon="2.112316">
        <ele>167.60</ele>
        <time>1970-01-01T01:55:55Z</time>
      </trkpt>
      <trkpt lat="41.553845" lon="2.112225">
        <ele>168.00</ele>
        <time>1970-01-01T01:55:59Z</time>
      </trkpt>
      <trkpt lat="41.553800" lon="2.112105">
        <ele>167.40</ele>
        <time>1970-01-01T01:56:03Z</time>
      </trkpt>
      <trkpt lat="41.553735" lon="2.111965">
        <ele>167.60</ele>
        <time>1970-01-01T01:56:07Z</time>
      </trkpt>
      <trkpt lat="41.553690" lon="2.111835">
        <ele>168.00</ele>
        <time>1970-01-01T01:56:11Z</time>
      </trkpt>
      <trkpt lat="41.553653" lon="2.111710">
        <ele>168.00</ele>
        <time>1970-01-01T01:56:15Z</time>
      </trkpt>
      <trkpt lat="41.553600" lon="2.111541">
        <ele>168.00</ele>
        <time>1970-01-01T01:56:19Z</time>
      </trkpt>
      <trkpt lat="41.553561" lon="2.111380">
        <ele>167.60</ele>
        <time>1970-01-01T01:56:23Z</time>
      </trkpt>
      <trkpt lat="41.553528" lon="2.111231">
        <ele>167.60</ele>
        <time>1970-01-01T01:56:27Z</time>
      </trkpt>
      <trkpt lat="41.553523" lon="2.111096">
        <ele>167.60</ele>
        <time>1970-01-01T01:56:31Z</time>
      </trkpt>
      <trkpt lat="41.553620" lon="2.110968">
        <ele>168.00</ele>
        <time>1970-01-01T01:56:35Z</time>
      </trkpt>
      <trkpt lat="41.553745" lon="2.110886">
        <ele>168.20</ele>
        <time>1970-01-01T01:56:39Z</time>
      </trkpt>
      <trkpt lat="41.553880" lon="2.110801">
        <ele>168.20</ele>
        <time>1970-01-01T01:56:43Z</time>
      </trkpt>
      <trkpt lat="41.553995" lon="2.110743">
        <ele>168.40</ele>
        <time>1970-01-01T01:56:47Z</time>
      </trkpt>
      <trkpt lat="41.554148" lon="2.110638">
        <ele>168.20</ele>
        <time>1970-01-01T01:56:51Z</time>
      </trkpt>
      <trkpt lat="41.554181" lon="2.110448">
        <ele>168.60</ele>
        <time>1970-01-01T01:56:55Z</time>
      </trkpt>
      <trkpt lat="41.554135" lon="2.110266">
        <ele>168.40</ele>
        <time>1970-01-01T01:56:59Z</time>
      </trkpt>
      <trkpt lat="41.554071" lon="2.110065">
        <ele>168.00</ele>
        <time>1970-01-01T01:57:03Z</time>
      </trkpt>
      <trkpt lat="41.554008" lon="2.109855">
        <ele>167.40</ele>
        <time>1970-01-01T01:57:07Z</time>
      </trkpt>
      <trkpt lat="41.553941" lon="2.109663">
        <ele>168.00</ele>
        <time>1970-01-01T01:57:11Z</time>
      </trkpt>
      <trkpt lat="41.553901" lon="2.109528">
        <ele>167.80</ele>
        <time>1970-01-01T01:57:15Z</time>
      </trkpt>
      <trkpt lat="41.553810" lon="2.109320">
        <ele>168.00</ele>
        <time>1970-01-01T01:57:19Z</time>
      </trkpt>
      <trkpt lat="41.553755" lon="2.109103">
        <ele>168.20</ele>
        <time>1970-01-01T01:57:23Z</time>
      </trkpt>
      <trkpt lat="41.553665" lon="2.108893">
        <ele>168.20</ele>
        <time>1970-01-01T01:57:27Z</time>
      </trkpt>
      <trkpt lat="41.553606" lon="2.108671">
        <ele>167.40</ele>
        <time>1970-01-01T01:57:31Z</time>
      </trkpt>
      <trkpt lat="41.553656" lon="2.108508">
        <ele>167.80</ele>
        <time>1970-01-01T01:57:35Z</time>
      </trkpt>
      <trkpt lat="41.553811" lon="2.108375">
        <ele>167.80</ele>
        <time>1970-01-01T01:57:39Z</time>
      </trkpt>
      <trkpt lat="41.553938" lon="2.108253">
        <ele>167.60</ele>
        <time>1970-01-01T01:57:43Z</time>
      </trkpt>
      <trkpt lat="41.554098" lon="2.108121">
        <ele>167.80</ele>
        <time>1970-01-01T01:57:47Z</time>
      </trkpt>
      <trkpt lat="41.554266" lon="2.107973">
        <ele>167.20</ele>
        <time>1970-01-01T01:57:51Z</time>
      </trkpt>
      <trkpt lat="41.554420" lon="2.107851">
        <ele>167.20</ele>
        <time>1970-01-01T01:57:55Z</time>
      </trkpt>
      <trkpt lat="41.554565" lon="2.107735">
        <ele>167.40</ele>
        <time>1970-01-01T01:57:59Z</time>
      </trkpt>
      <trkpt lat="41.554548" lon="2.107531">
        <ele>166.40</ele>
        <time>1970-01-01T01:58:03Z</time>
      </trkpt>
      <trkpt lat="41.554415" lon="2.107355">
        <ele>166.20</ele>
        <time>1970-01-01T01:58:07Z</time>
      </trkpt>
      <trkpt lat="41.554271" lon="2.107161">
        <ele>165.60</ele>
        <time>1970-01-01T01:58:11Z</time>
      </trkpt>
      <trkpt lat="41.554085" lon="2.106963">
        <ele>165.40</ele>
        <time>1970-01-01T01:58:15Z</time>
      </trkpt>
      <trkpt lat="41.553913" lon="2.106786">
        <ele>164.40</ele>
        <time>1970-01-01T01:58:19Z</time>
      </trkpt>
      <trkpt lat="41.553721" lon="2.106631">
        <ele>164.80</ele>
        <time>1970-01-01T01:58:23Z</time>
      </trkpt>
      <trkpt lat="41.553555" lon="2.106440">
        <ele>164.00</ele>
        <time>1970-01-01T01:58:27Z</time>
      </trkpt>
      <trkpt lat="41.553410" lon="2.106243">
        <ele>164.00</ele>
        <time>1970-01-01T01:58:31Z</time>
      </trkpt>
      <trkpt lat="41.553490" lon="2.105983">
        <ele>163.80</ele>
        <time>1970-01-01T01:58:35Z</time>
      </trkpt>
      <trkpt lat="41.553648" lon="2.105755">
        <ele>164.40</ele>
        <time>1970-01-01T01:58:39Z</time>
      </trkpt>
      <trkpt lat="41.553820" lon="2.105578">
        <ele>164.80</ele>
        <time>1970-01-01T01:58:43Z</time>
      </trkpt>
      <trkpt lat="41.553940" lon="2.105375">
        <ele>165.00</ele>
        <time>1970-01-01T01:58:47Z</time>
      </trkpt>
      <trkpt lat="41.554065" lon="2.105173">
        <ele>165.00</ele>
        <time>1970-01-01T01:58:51Z</time>
      </trkpt>
      <trkpt lat="41.554185" lon="2.104975">
        <ele>165.40</ele>
        <time>1970-01-01T01:58:55Z</time>
      </trkpt>
      <trkpt lat="41.554303" lon="2.104788">
        <ele>166.00</ele>
        <time>1970-01-01T01:58:59Z</time>
      </trkpt>
      <trkpt lat="41.554378" lon="2.104680">
        <ele>166.40</ele>
        <time>1970-01-01T01:59:03Z</time>
      </trkpt>
      <trkpt lat="41.554410" lon="2.104616">
        <ele>167.20</ele>
        <time>1970-01-01T01:59:07Z</time>
      </trkpt>
      <trkpt lat="41.554365" lon="2.104513">
        <ele>167.20</ele>
        <time>1970-01-01T01:59:11Z</time>
      </trkpt>
      <trkpt lat="41.554218" lon="2.104341">
        <ele>166.40</ele>
        <time>1970-01-01T01:59:15Z</time>
      </trkpt>
      <trkpt lat="41.554066" lon="2.104156">
        <ele>165.80</ele>
        <time>1970-01-01T01:59:19Z</time>
      </trkpt>
      <trkpt lat="41.553931" lon="2.103986">
        <ele>165.20</ele>
        <time>1970-01-01T01:59:23Z</time>
      </trkpt>
      <trkpt lat="41.553691" lon="2.103835">
        <ele>164.80</ele>
        <time>1970-01-01T01:59:52Z</time>
      </trkpt>
      <trkpt lat="41.553535" lon="2.103643">
        <ele>164.60</ele>
        <time>1970-01-01T01:59:56Z</time>
      </trkpt>
      <trkpt lat="41.553373" lon="2.103460">
        <ele>164.60</ele>
        <time>1970-01-01T02:00:00Z</time>
      </trkpt>
      <trkpt lat="41.553200" lon="2.103316">
        <ele>164.40</ele>
        <time>1970-01-01T02:00:04Z</time>
      </trkpt>
      <trkpt lat="41.553091" lon="2.103196">
        <ele>164.60</ele>
        <time>1970-01-01T02:00:08Z</time>
      </trkpt>
      <trkpt lat="41.552913" lon="2.103003">
        <ele>162.60</ele>
        <time>1970-01-01T02:00:12Z</time>
      </trkpt>
      <trkpt lat="41.552740" lon="2.102755">
        <ele>163.80</ele>
        <time>1970-01-01T02:00:16Z</time>
      </trkpt>
      <trkpt lat="41.552655" lon="2.102590">
        <ele>164.00</ele>
        <time>1970-01-01T02:00:20Z</time>
      </trkpt>
      <trkpt lat="41.552470" lon="2.102363">
        <ele>162.00</ele>
        <time>1970-01-01T02:00:24Z</time>
      </trkpt>
      <trkpt lat="41.552278" lon="2.102113">
        <ele>162.20</ele>
        <time>1970-01-01T02:00:28Z</time>
      </trkpt>
      <trkpt lat="41.552065" lon="2.101928">
        <ele>160.60</ele>
        <time>1970-01-01T02:00:32Z</time>
      </trkpt>
      <trkpt lat="41.551921" lon="2.101708">
        <ele>162.40</ele>
        <time>1970-01-01T02:00:36Z</time>
      </trkpt>
      <trkpt lat="41.551755" lon="2.101543">
        <ele>162.20</ele>
        <time>1970-01-01T02:00:40Z</time>
      </trkpt>
      <trkpt lat="41.551618" lon="2.101338">
        <ele>161.60</ele>
        <time>1970-01-01T02:00:44Z</time>
      </trkpt>
      <trkpt lat="41.551451" lon="2.101158">
        <ele>161.20</ele>
        <time>1970-01-01T02:00:48Z</time>
      </trkpt>
    </trkseg>
  </trk>
</gpx>
